<?xml version="1.0" encoding="UTF-8"?>
<gpx xmlns="http://www.topografix.com/GPX/1/1" version="1.1" creator="Nokia Sports Tracker" xmlns:xsi="http://www.w3.org/2001/XMLSchema-instance" xsi:schemaLocation="http://www.topografix.com/GPX/1/1 http://www.topografix.com/GPX/1/1/gpx.xsd">
<metadata>
<name>28.02.2010 10:13</name>
<desc>Nordic Walking</desc>
<author><name>Jörg U.</name></author>
<time>2010-02-28T10:14:44.08</time>
</metadata>
<trk>
<name>28.02.2010 10:13</name>
<trkseg>
<trkpt lat="48.943420" lon="8.666823">
<ele>310.0</ele>
<speed>0.4</speed>
<course>270.0</course>
<desc>Speed 0.4 km/h Distance 0.00 km</desc>
<time>2010-02-28T10:14:44.83</time>
<name>1</name>
</trkpt>
<trkpt lat="48.943420" lon="8.666822">
<ele>310.0</ele>
<speed>0.4</speed>
<course>270.0</course>
<desc>Speed 0.4 km/h Distance 0.00 km</desc>
<time>2010-02-28T10:14:45.89</time>
<name>2</name>
</trkpt>
<trkpt lat="48.943420" lon="8.666818">
<ele>310.0</ele>
<speed>0.1</speed>
<course>213.7</course>
<desc>Speed 0.1 km/h Distance 0.00 km</desc>
<time>2010-02-28T10:14:46.83</time>
<name>3</name>
</trkpt>
<trkpt lat="48.943417" lon="8.666815">
<ele>310.0</ele>
<speed>0.9</speed>
<course>270.0</course>
<desc>Speed 0.9 km/h Distance 0.00 km</desc>
<time>2010-02-28T10:14:48.00</time>
<name>4</name>
</trkpt>
<trkpt lat="48.943417" lon="8.666812">
<ele>310.0</ele>
<speed>0.9</speed>
<course>221.4</course>
<desc>Speed 0.9 km/h Distance 0.00 km</desc>
<time>2010-02-28T10:14:48.83</time>
<name>5</name>
</trkpt>
<trkpt lat="48.943412" lon="8.666805">
<ele>310.0</ele>
<speed>0.8</speed>
<course>213.2</course>
<desc>Speed 0.8 km/h Distance 0.00 km</desc>
<time>2010-02-28T10:14:49.82</time>
<name>6</name>
</trkpt>
<trkpt lat="48.943407" lon="8.666800">
<ele>310.0</ele>
<speed>0.5</speed>
<course>224.5</course>
<desc>Speed 0.5 km/h Distance 0.00 km</desc>
<time>2010-02-28T10:14:50.82</time>
<name>7</name>
</trkpt>
<trkpt lat="48.943403" lon="8.666795">
<ele>310.0</ele>
<speed>0.3</speed>
<course>217.2</course>
<desc>Speed 0.3 km/h Distance 0.00 km</desc>
<time>2010-02-28T10:14:51.82</time>
<name>8</name>
</trkpt>
<trkpt lat="48.943402" lon="8.666793">
<ele>310.0</ele>
<speed>0.6</speed>
<course>198.8</course>
<desc>Speed 0.6 km/h Distance 0.00 km</desc>
<time>2010-02-28T10:14:52.82</time>
<name>9</name>
</trkpt>
<trkpt lat="48.943395" lon="8.666790">
<ele>310.0</ele>
<speed>2.2</speed>
<course>198.8</course>
<desc>Speed 2.2 km/h Distance 0.00 km</desc>
<time>2010-02-28T10:14:53.82</time>
<name>10</name>
</trkpt>
<trkpt lat="48.943395" lon="8.666792">
<ele>310.0</ele>
<speed>1.4</speed>
<course>187.4</course>
<desc>Speed 1.4 km/h Distance 0.00 km</desc>
<time>2010-02-28T10:14:54.82</time>
<name>11</name>
</trkpt>
<trkpt lat="48.943388" lon="8.666790">
<ele>310.0</ele>
<speed>2.8</speed>
<course>187.4</course>
<desc>Speed 2.8 km/h Distance 0.00 km</desc>
<time>2010-02-28T10:14:55.82</time>
<name>12</name>
</trkpt>
<trkpt lat="48.943388" lon="8.666790">
<ele>310.0</ele>
<speed>0.5</speed>
<course>326.3</course>
<desc>Speed 0.5 km/h Distance 0.00 km</desc>
<time>2010-02-28T10:14:56.82</time>
<name>13</name>
</trkpt>
<trkpt lat="48.943392" lon="8.666787">
<ele>310.0</ele>
<speed>1.4</speed>
<course>53.9</course>
<desc>Speed 1.4 km/h Distance 0.01 km</desc>
<time>2010-02-28T10:14:57.82</time>
<name>14</name>
</trkpt>
<trkpt lat="48.943393" lon="8.666790">
<ele>310.0</ele>
<speed>1.6</speed>
<course>90.0</course>
<desc>Speed 1.6 km/h Distance 0.01 km</desc>
<time>2010-02-28T10:14:58.82</time>
<name>15</name>
</trkpt>
<trkpt lat="48.943393" lon="8.666792">
<ele>310.0</ele>
<speed>1.6</speed>
<course>198.8</course>
<desc>Speed 1.6 km/h Distance 0.01 km</desc>
<time>2010-02-28T10:14:59.82</time>
<name>16</name>
</trkpt>
<trkpt lat="48.943390" lon="8.666790">
<ele>310.0</ele>
<speed>1.4</speed>
<course>192.6</course>
<desc>Speed 1.4 km/h Distance 0.01 km</desc>
<time>2010-02-28T10:15:00.82</time>
<name>17</name>
</trkpt>
<trkpt lat="48.943388" lon="8.666788">
<ele>310.0</ele>
<speed>0.6</speed>
<course>192.6</course>
<desc>Speed 0.6 km/h Distance 0.01 km</desc>
<time>2010-02-28T10:15:01.82</time>
<name>18</name>
</trkpt>
<trkpt lat="48.943388" lon="8.666787">
<ele>310.0</ele>
<speed>0.7</speed>
<course>270.0</course>
<desc>Speed 0.7 km/h Distance 0.01 km</desc>
<time>2010-02-28T10:15:02.82</time>
<name>19</name>
</trkpt>
<trkpt lat="48.943388" lon="8.666783">
<ele>310.0</ele>
<speed>0.4</speed>
<course>224.5</course>
<desc>Speed 0.4 km/h Distance 0.01 km</desc>
<time>2010-02-28T10:15:03.82</time>
<name>20</name>
</trkpt>
<trkpt lat="48.943385" lon="8.666778">
<ele>310.0</ele>
<speed>0.9</speed>
<course>352.6</course>
<desc>Speed 0.9 km/h Distance 0.01 km</desc>
<time>2010-02-28T10:15:04.82</time>
<name>21</name>
</trkpt>
<trkpt lat="48.943392" lon="8.666777">
<ele>310.0</ele>
<speed>2.3</speed>
<course>306.1</course>
<desc>Speed 2.3 km/h Distance 0.01 km</desc>
<time>2010-02-28T10:15:05.82</time>
<name>22</name>
</trkpt>
<trkpt lat="48.943393" lon="8.666773">
<ele>310.0</ele>
<speed>0.8</speed>
<course>12.6</course>
<desc>Speed 0.8 km/h Distance 0.01 km</desc>
<time>2010-02-28T10:15:06.81</time>
<name>23</name>
</trkpt>
<trkpt lat="48.943395" lon="8.666773">
<ele>310.0</ele>
<speed>0.4</speed>
<course>12.6</course>
<desc>Speed 0.4 km/h Distance 0.01 km</desc>
<time>2010-02-28T10:15:07.81</time>
<name>24</name>
</trkpt>
<trkpt lat="48.943395" lon="8.666773">
<ele>310.0</ele>
<speed>0.7</speed>
<course>12.6</course>
<desc>Speed 0.7 km/h Distance 0.01 km</desc>
<time>2010-02-28T10:15:08.81</time>
<name>25</name>
</trkpt>
<trkpt lat="48.943395" lon="8.666773">
<ele>310.0</ele>
<speed>0.2</speed>
<course>12.6</course>
<desc>Speed 0.2 km/h Distance 0.01 km</desc>
<time>2010-02-28T10:15:09.81</time>
<name>26</name>
</trkpt>
<trkpt lat="48.943397" lon="8.666773">
<ele>310.0</ele>
<speed>0.4</speed>
<course>12.6</course>
<desc>Speed 0.4 km/h Distance 0.01 km</desc>
<time>2010-02-28T10:15:10.82</time>
<name>27</name>
</trkpt>
<trkpt lat="48.943398" lon="8.666773">
<ele>310.0</ele>
<speed>0.4</speed>
<course>29.2</course>
<desc>Speed 0.4 km/h Distance 0.01 km</desc>
<time>2010-02-28T10:15:11.81</time>
<name>28</name>
</trkpt>
<trkpt lat="48.943400" lon="8.666775">
<ele>310.0</ele>
<speed>0.3</speed>
<course>0.0</course>
<desc>Speed 0.3 km/h Distance 0.01 km</desc>
<time>2010-02-28T10:15:12.81</time>
<name>29</name>
</trkpt>
<trkpt lat="48.943403" lon="8.666775">
<ele>310.0</ele>
<speed>0.4</speed>
<course>0.0</course>
<desc>Speed 0.4 km/h Distance 0.01 km</desc>
<time>2010-02-28T10:15:13.81</time>
<name>30</name>
</trkpt>
<trkpt lat="48.943407" lon="8.666775">
<ele>310.0</ele>
<speed>0.4</speed>
<course>12.6</course>
<desc>Speed 0.4 km/h Distance 0.01 km</desc>
<time>2010-02-28T10:15:14.81</time>
<name>31</name>
</trkpt>
<trkpt lat="48.943412" lon="8.666777">
<ele>310.0</ele>
<speed>0.2</speed>
<course>322.8</course>
<desc>Speed 0.2 km/h Distance 0.01 km</desc>
<time>2010-02-28T10:15:15.81</time>
<name>32</name>
</trkpt>
<trkpt lat="48.943413" lon="8.666775">
<ele>310.0</ele>
<speed>0.1</speed>
<course>12.6</course>
<desc>Speed 0.1 km/h Distance 0.01 km</desc>
<time>2010-02-28T10:15:16.80</time>
<name>33</name>
</trkpt>
<trkpt lat="48.943415" lon="8.666775">
<ele>310.0</ele>
<speed>0.5</speed>
<course>330.8</course>
<desc>Speed 0.5 km/h Distance 0.01 km</desc>
<time>2010-02-28T10:15:17.80</time>
<name>34</name>
</trkpt>
<trkpt lat="48.943417" lon="8.666773">
<ele>310.0</ele>
<speed>0.4</speed>
<course>330.8</course>
<desc>Speed 0.4 km/h Distance 0.01 km</desc>
<time>2010-02-28T10:15:18.80</time>
<name>35</name>
</trkpt>
<trkpt lat="48.943417" lon="8.666773">
<ele>310.0</ele>
<speed>0.5</speed>
<course>270.0</course>
<desc>Speed 0.5 km/h Distance 0.01 km</desc>
<time>2010-02-28T10:15:19.80</time>
<name>36</name>
</trkpt>
<trkpt lat="48.943417" lon="8.666772">
<ele>310.0</ele>
<speed>0.4</speed>
<course>51.9</course>
<desc>Speed 0.4 km/h Distance 0.01 km</desc>
<time>2010-02-28T10:15:20.80</time>
<name>37</name>
</trkpt>
<trkpt lat="48.943418" lon="8.666775">
<ele>310.0</ele>
<speed>1.9</speed>
<course>320.6</course>
<desc>Speed 1.9 km/h Distance 0.01 km</desc>
<time>2010-02-28T10:15:21.80</time>
<name>38</name>
</trkpt>
<trkpt lat="48.943425" lon="8.666767">
<ele>310.0</ele>
<speed>1.3</speed>
<course>347.4</course>
<desc>Speed 1.3 km/h Distance 0.01 km</desc>
<time>2010-02-28T10:15:22.80</time>
<name>39</name>
</trkpt>
<trkpt lat="48.943428" lon="8.666765">
<ele>310.0</ele>
<speed>0.3</speed>
<course>347.4</course>
<desc>Speed 0.3 km/h Distance 0.01 km</desc>
<time>2010-02-28T10:15:23.80</time>
<name>40</name>
</trkpt>
<trkpt lat="48.943432" lon="8.666763">
<ele>310.0</ele>
<speed>0.6</speed>
<course>270.0</course>
<desc>Speed 0.6 km/h Distance 0.01 km</desc>
<time>2010-02-28T10:15:24.80</time>
<name>41</name>
</trkpt>
<trkpt lat="48.943432" lon="8.666760">
<ele>310.0</ele>
<speed>0.5</speed>
<course>12.6</course>
<desc>Speed 0.5 km/h Distance 0.01 km</desc>
<time>2010-02-28T10:15:25.80</time>
<name>42</name>
</trkpt>
<trkpt lat="48.943433" lon="8.666760">
<ele>310.0</ele>
<speed>0.1</speed>
<course>0.0</course>
<desc>Speed 0.1 km/h Distance 0.01 km</desc>
<time>2010-02-28T10:15:26.80</time>
<name>43</name>
</trkpt>
<trkpt lat="48.943438" lon="8.666760">
<ele>310.0</ele>
<speed>0.9</speed>
<course>326.3</course>
<desc>Speed 0.9 km/h Distance 0.01 km</desc>
<time>2010-02-28T10:15:27.80</time>
<name>44</name>
</trkpt>
<trkpt lat="48.943442" lon="8.666757">
<ele>310.0</ele>
<speed>0.4</speed>
<course>326.3</course>
<desc>Speed 0.4 km/h Distance 0.01 km</desc>
<time>2010-02-28T10:15:28.80</time>
<name>45</name>
</trkpt>
<trkpt lat="48.943445" lon="8.666753">
<ele>310.0</ele>
<speed>0.1</speed>
<course>326.8</course>
<desc>Speed 0.1 km/h Distance 0.02 km</desc>
<time>2010-02-28T10:15:29.80</time>
<name>46</name>
</trkpt>
<trkpt lat="48.943450" lon="8.666748">
<ele>310.0</ele>
<speed>0.3</speed>
<course>308.1</course>
<desc>Speed 0.3 km/h Distance 0.02 km</desc>
<time>2010-02-28T10:15:30.80</time>
<name>47</name>
</trkpt>
<trkpt lat="48.943452" lon="8.666745">
<ele>310.0</ele>
<speed>0.0</speed>
<course>12.6</course>
<desc>Speed 0.0 km/h Distance 0.02 km</desc>
<time>2010-02-28T10:15:31.80</time>
<name>48</name>
</trkpt>
<trkpt lat="48.943453" lon="8.666745">
<ele>310.0</ele>
<speed>0.2</speed>
<course>12.6</course>
<desc>Speed 0.2 km/h Distance 0.02 km</desc>
<time>2010-02-28T10:15:32.80</time>
<name>49</name>
</trkpt>
<trkpt lat="48.943457" lon="8.666745">
<ele>310.0</ele>
<speed>0.3</speed>
<course>270.0</course>
<desc>Speed 0.3 km/h Distance 0.02 km</desc>
<time>2010-02-28T10:15:33.80</time>
<name>50</name>
</trkpt>
<trkpt lat="48.943457" lon="8.666743">
<ele>310.0</ele>
<speed>0.3</speed>
<course>330.8</course>
<desc>Speed 0.3 km/h Distance 0.02 km</desc>
<time>2010-02-28T10:15:34.80</time>
<name>51</name>
</trkpt>
<trkpt lat="48.943458" lon="8.666742">
<ele>310.0</ele>
<speed>0.3</speed>
<course>12.6</course>
<desc>Speed 0.3 km/h Distance 0.02 km</desc>
<time>2010-02-28T10:15:35.80</time>
<name>52</name>
</trkpt>
<trkpt lat="48.943460" lon="8.666742">
<ele>310.0</ele>
<speed>0.2</speed>
<course>330.8</course>
<desc>Speed 0.2 km/h Distance 0.02 km</desc>
<time>2010-02-28T10:15:36.80</time>
<name>53</name>
</trkpt>
<trkpt lat="48.943462" lon="8.666740">
<ele>310.0</ele>
<speed>0.3</speed>
<course>330.8</course>
<desc>Speed 0.3 km/h Distance 0.02 km</desc>
<time>2010-02-28T10:15:37.80</time>
<name>54</name>
</trkpt>
<trkpt lat="48.943462" lon="8.666740">
<ele>310.0</ele>
<speed>0.0</speed>
<course>330.8</course>
<desc>Speed 0.0 km/h Distance 0.02 km</desc>
<time>2010-02-28T10:15:38.79</time>
<name>55</name>
</trkpt>
<trkpt lat="48.943462" lon="8.666740">
<ele>310.0</ele>
<speed>0.1</speed>
<course>330.8</course>
<desc>Speed 0.1 km/h Distance 0.02 km</desc>
<time>2010-02-28T10:15:39.79</time>
<name>56</name>
</trkpt>
<trkpt lat="48.943462" lon="8.666740">
<ele>310.0</ele>
<speed>0.1</speed>
<course>330.8</course>
<desc>Speed 0.1 km/h Distance 0.02 km</desc>
<time>2010-02-28T10:15:40.79</time>
<name>57</name>
</trkpt>
<trkpt lat="48.943462" lon="8.666740">
<ele>310.0</ele>
<speed>0.0</speed>
<course>330.8</course>
<desc>Speed 0.0 km/h Distance 0.02 km</desc>
<time>2010-02-28T10:15:41.79</time>
<name>58</name>
</trkpt>
<trkpt lat="48.943462" lon="8.666740">
<ele>310.0</ele>
<speed>0.1</speed>
<course>330.8</course>
<desc>Speed 0.1 km/h Distance 0.02 km</desc>
<time>2010-02-28T10:15:42.79</time>
<name>59</name>
</trkpt>
<trkpt lat="48.943462" lon="8.666740">
<ele>310.0</ele>
<speed>0.4</speed>
<course>330.8</course>
<desc>Speed 0.4 km/h Distance 0.02 km</desc>
<time>2010-02-28T10:15:43.79</time>
<name>60</name>
</trkpt>
<trkpt lat="48.943462" lon="8.666740">
<ele>310.0</ele>
<speed>0.1</speed>
<course>167.4</course>
<desc>Speed 0.1 km/h Distance 0.02 km</desc>
<time>2010-02-28T10:15:44.79</time>
<name>61</name>
</trkpt>
<trkpt lat="48.943460" lon="8.666740">
<ele>310.0</ele>
<speed>0.4</speed>
<course>167.4</course>
<desc>Speed 0.4 km/h Distance 0.02 km</desc>
<time>2010-02-28T10:15:45.79</time>
<name>62</name>
</trkpt>
<trkpt lat="48.943460" lon="8.666740">
<ele>310.0</ele>
<speed>0.3</speed>
<course>167.4</course>
<desc>Speed 0.3 km/h Distance 0.02 km</desc>
<time>2010-02-28T10:15:46.79</time>
<name>63</name>
</trkpt>
<trkpt lat="48.943460" lon="8.666740">
<ele>310.0</ele>
<speed>0.4</speed>
<course>167.4</course>
<desc>Speed 0.4 km/h Distance 0.02 km</desc>
<time>2010-02-28T10:15:47.79</time>
<name>64</name>
</trkpt>
<trkpt lat="48.943460" lon="8.666740">
<ele>310.0</ele>
<speed>0.6</speed>
<course>167.4</course>
<desc>Speed 0.6 km/h Distance 0.02 km</desc>
<time>2010-02-28T10:15:48.79</time>
<name>65</name>
</trkpt>
<trkpt lat="48.943460" lon="8.666740">
<ele>310.0</ele>
<speed>0.2</speed>
<course>270.0</course>
<desc>Speed 0.2 km/h Distance 0.02 km</desc>
<time>2010-02-28T10:15:49.79</time>
<name>66</name>
</trkpt>
<trkpt lat="48.943460" lon="8.666738">
<ele>310.0</ele>
<speed>0.5</speed>
<course>167.4</course>
<desc>Speed 0.5 km/h Distance 0.02 km</desc>
<time>2010-02-28T10:15:50.79</time>
<name>67</name>
</trkpt>
<trkpt lat="48.943458" lon="8.666738">
<ele>310.0</ele>
<speed>0.1</speed>
<course>167.4</course>
<desc>Speed 0.1 km/h Distance 0.02 km</desc>
<time>2010-02-28T10:15:51.79</time>
<name>68</name>
</trkpt>
<trkpt lat="48.943458" lon="8.666738">
<ele>310.0</ele>
<speed>0.4</speed>
<course>167.4</course>
<desc>Speed 0.4 km/h Distance 0.02 km</desc>
<time>2010-02-28T10:15:52.79</time>
<name>69</name>
</trkpt>
<trkpt lat="48.943458" lon="8.666738">
<ele>310.0</ele>
<speed>0.1</speed>
<course>167.4</course>
<desc>Speed 0.1 km/h Distance 0.02 km</desc>
<time>2010-02-28T10:15:53.79</time>
<name>70</name>
</trkpt>
<trkpt lat="48.943458" lon="8.666738">
<ele>310.0</ele>
<speed>0.5</speed>
<course>167.4</course>
<desc>Speed 0.5 km/h Distance 0.02 km</desc>
<time>2010-02-28T10:15:54.79</time>
<name>71</name>
</trkpt>
<trkpt lat="48.943457" lon="8.666738">
<ele>310.0</ele>
<speed>0.3</speed>
<course>167.4</course>
<desc>Speed 0.3 km/h Distance 0.02 km</desc>
<time>2010-02-28T10:15:55.79</time>
<name>72</name>
</trkpt>
<trkpt lat="48.943457" lon="8.666738">
<ele>310.0</ele>
<speed>0.4</speed>
<course>167.4</course>
<desc>Speed 0.4 km/h Distance 0.02 km</desc>
<time>2010-02-28T10:15:56.79</time>
<name>73</name>
</trkpt>
<trkpt lat="48.943457" lon="8.666738">
<ele>310.0</ele>
<speed>0.2</speed>
<course>167.4</course>
<desc>Speed 0.2 km/h Distance 0.02 km</desc>
<time>2010-02-28T10:15:57.79</time>
<name>74</name>
</trkpt>
<trkpt lat="48.943457" lon="8.666738">
<ele>310.0</ele>
<speed>0.1</speed>
<course>167.4</course>
<desc>Speed 0.1 km/h Distance 0.02 km</desc>
<time>2010-02-28T10:15:58.79</time>
<name>75</name>
</trkpt>
<trkpt lat="48.943457" lon="8.666738">
<ele>310.0</ele>
<speed>0.2</speed>
<course>167.4</course>
<desc>Speed 0.2 km/h Distance 0.02 km</desc>
<time>2010-02-28T10:15:59.79</time>
<name>76</name>
</trkpt>
<trkpt lat="48.943455" lon="8.666738">
<ele>310.0</ele>
<speed>0.2</speed>
<course>167.4</course>
<desc>Speed 0.2 km/h Distance 0.02 km</desc>
<time>2010-02-28T10:16:00.82</time>
<name>77</name>
</trkpt>
<trkpt lat="48.943455" lon="8.666738">
<ele>310.0</ele>
<speed>0.4</speed>
<course>167.4</course>
<desc>Speed 0.4 km/h Distance 0.02 km</desc>
<time>2010-02-28T10:16:01.81</time>
<name>78</name>
</trkpt>
<trkpt lat="48.943453" lon="8.666738">
<ele>310.0</ele>
<speed>0.1</speed>
<course>167.4</course>
<desc>Speed 0.1 km/h Distance 0.02 km</desc>
<time>2010-02-28T10:16:02.80</time>
<name>79</name>
</trkpt>
<trkpt lat="48.943453" lon="8.666738">
<ele>310.0</ele>
<speed>0.1</speed>
<course>167.4</course>
<desc>Speed 0.1 km/h Distance 0.02 km</desc>
<time>2010-02-28T10:16:03.80</time>
<name>80</name>
</trkpt>
<trkpt lat="48.943452" lon="8.666738">
<ele>310.0</ele>
<speed>0.2</speed>
<course>167.4</course>
<desc>Speed 0.2 km/h Distance 0.02 km</desc>
<time>2010-02-28T10:16:04.80</time>
<name>81</name>
</trkpt>
<trkpt lat="48.943450" lon="8.666738">
<ele>310.0</ele>
<speed>0.2</speed>
<course>167.4</course>
<desc>Speed 0.2 km/h Distance 0.02 km</desc>
<time>2010-02-28T10:16:05.80</time>
<name>82</name>
</trkpt>
<trkpt lat="48.943450" lon="8.666738">
<ele>310.0</ele>
<speed>0.1</speed>
<course>167.4</course>
<desc>Speed 0.1 km/h Distance 0.02 km</desc>
<time>2010-02-28T10:16:06.80</time>
<name>83</name>
</trkpt>
<trkpt lat="48.943450" lon="8.666738">
<ele>310.0</ele>
<speed>0.3</speed>
<course>167.4</course>
<desc>Speed 0.3 km/h Distance 0.02 km</desc>
<time>2010-02-28T10:16:07.79</time>
<name>84</name>
</trkpt>
<trkpt lat="48.943450" lon="8.666738">
<ele>310.0</ele>
<speed>0.2</speed>
<course>217.2</course>
<desc>Speed 0.2 km/h Distance 0.02 km</desc>
<time>2010-02-28T10:16:08.79</time>
<name>85</name>
</trkpt>
<trkpt lat="48.943448" lon="8.666737">
<ele>310.0</ele>
<speed>0.3</speed>
<course>217.2</course>
<desc>Speed 0.3 km/h Distance 0.02 km</desc>
<time>2010-02-28T10:16:09.79</time>
<name>86</name>
</trkpt>
<trkpt lat="48.943448" lon="8.666737">
<ele>310.0</ele>
<speed>0.4</speed>
<course>217.2</course>
<desc>Speed 0.4 km/h Distance 0.02 km</desc>
<time>2010-02-28T10:16:10.80</time>
<name>87</name>
</trkpt>
<trkpt lat="48.943448" lon="8.666737">
<ele>310.0</ele>
<speed>0.5</speed>
<course>167.4</course>
<desc>Speed 0.5 km/h Distance 0.02 km</desc>
<time>2010-02-28T10:16:11.79</time>
<name>88</name>
</trkpt>
<trkpt lat="48.943447" lon="8.666737">
<ele>310.0</ele>
<speed>0.1</speed>
<course>167.4</course>
<desc>Speed 0.1 km/h Distance 0.02 km</desc>
<time>2010-02-28T10:16:12.79</time>
<name>89</name>
</trkpt>
<trkpt lat="48.943447" lon="8.666737">
<ele>310.0</ele>
<speed>0.1</speed>
<course>167.4</course>
<desc>Speed 0.1 km/h Distance 0.02 km</desc>
<time>2010-02-28T10:16:13.79</time>
<name>90</name>
</trkpt>
<trkpt lat="48.943447" lon="8.666737">
<ele>310.0</ele>
<speed>0.1</speed>
<course>167.4</course>
<desc>Speed 0.1 km/h Distance 0.02 km</desc>
<time>2010-02-28T10:16:14.78</time>
<name>91</name>
</trkpt>
<trkpt lat="48.943447" lon="8.666737">
<ele>310.0</ele>
<speed>0.5</speed>
<course>167.4</course>
<desc>Speed 0.5 km/h Distance 0.02 km</desc>
<time>2010-02-28T10:16:15.79</time>
<name>92</name>
</trkpt>
<trkpt lat="48.943447" lon="8.666737">
<ele>310.0</ele>
<speed>0.3</speed>
<course>167.4</course>
<desc>Speed 0.3 km/h Distance 0.02 km</desc>
<time>2010-02-28T10:16:16.79</time>
<name>93</name>
</trkpt>
<trkpt lat="48.943447" lon="8.666737">
<ele>310.0</ele>
<speed>0.1</speed>
<course>142.8</course>
<desc>Speed 0.1 km/h Distance 0.02 km</desc>
<time>2010-02-28T10:16:17.79</time>
<name>94</name>
</trkpt>
<trkpt lat="48.943445" lon="8.666738">
<ele>310.0</ele>
<speed>0.8</speed>
<course>167.4</course>
<desc>Speed 0.8 km/h Distance 0.02 km</desc>
<time>2010-02-28T10:16:18.78</time>
<name>95</name>
</trkpt>
<trkpt lat="48.943443" lon="8.666738">
<ele>310.0</ele>
<speed>0.3</speed>
<course>180.0</course>
<desc>Speed 0.3 km/h Distance 0.02 km</desc>
<time>2010-02-28T10:16:19.78</time>
<name>96</name>
</trkpt>
<trkpt lat="48.943440" lon="8.666738">
<ele>310.0</ele>
<speed>0.3</speed>
<course>167.4</course>
<desc>Speed 0.3 km/h Distance 0.02 km</desc>
<time>2010-02-28T10:16:20.78</time>
<name>97</name>
</trkpt>
<trkpt lat="48.943438" lon="8.666738">
<ele>310.0</ele>
<speed>0.3</speed>
<course>161.2</course>
<desc>Speed 0.3 km/h Distance 0.02 km</desc>
<time>2010-02-28T10:16:21.78</time>
<name>98</name>
</trkpt>
<trkpt lat="48.943435" lon="8.666740">
<ele>310.0</ele>
<speed>0.8</speed>
<course>180.0</course>
<desc>Speed 0.8 km/h Distance 0.02 km</desc>
<time>2010-02-28T10:16:22.79</time>
<name>99</name>
</trkpt>
<trkpt lat="48.943427" lon="8.666740">
<ele>310.0</ele>
<speed>2.6</speed>
<course>191.4</course>
<desc>Speed 2.6 km/h Distance 0.02 km</desc>
<time>2010-02-28T10:16:23.79</time>
<name>100</name>
</trkpt>
<trkpt lat="48.943405" lon="8.666733">
<ele>310.0</ele>
<speed>7.7</speed>
<course>200.1</course>
<desc>Speed 7.7 km/h Distance 0.02 km</desc>
<time>2010-02-28T10:16:24.79</time>
<name>101</name>
</trkpt>
<trkpt lat="48.943390" lon="8.666725">
<ele>310.0</ele>
<speed>6.2</speed>
<course>207.0</course>
<desc>Speed 6.2 km/h Distance 0.03 km</desc>
<time>2010-02-28T10:16:25.78</time>
<name>102</name>
</trkpt>
<trkpt lat="48.943375" lon="8.666713">
<ele>310.0</ele>
<speed>6.3</speed>
<course>206.2</course>
<desc>Speed 6.3 km/h Distance 0.03 km</desc>
<time>2010-02-28T10:16:26.79</time>
<name>103</name>
</trkpt>
<trkpt lat="48.943362" lon="8.666703">
<ele>310.0</ele>
<speed>5.1</speed>
<course>175.6</course>
<desc>Speed 5.1 km/h Distance 0.03 km</desc>
<time>2010-02-28T10:16:27.79</time>
<name>104</name>
</trkpt>
<trkpt lat="48.943352" lon="8.666705">
<ele>310.0</ele>
<speed>2.9</speed>
<course>27.9</course>
<desc>Speed 2.9 km/h Distance 0.03 km</desc>
<time>2010-02-28T10:16:28.78</time>
<name>105</name>
</trkpt>
<trkpt lat="48.943360" lon="8.666712">
<ele>310.0</ele>
<speed>3.4</speed>
<course>40.9</course>
<desc>Speed 3.4 km/h Distance 0.03 km</desc>
<time>2010-02-28T10:16:29.78</time>
<name>106</name>
</trkpt>
<trkpt lat="48.943365" lon="8.666718">
<ele>310.0</ele>
<speed>3.4</speed>
<course>22.2</course>
<desc>Speed 3.4 km/h Distance 0.03 km</desc>
<time>2010-02-28T10:16:30.78</time>
<name>107</name>
</trkpt>
<trkpt lat="48.943370" lon="8.666722">
<ele>310.0</ele>
<speed>3.4</speed>
<course>44.5</course>
<desc>Speed 3.4 km/h Distance 0.03 km</desc>
<time>2010-02-28T10:16:31.78</time>
<name>108</name>
</trkpt>
<trkpt lat="48.943373" lon="8.666727">
<ele>310.0</ele>
<speed>3.4</speed>
<course>69.1</course>
<desc>Speed 3.4 km/h Distance 0.03 km</desc>
<time>2010-02-28T10:16:32.79</time>
<name>109</name>
</trkpt>
<trkpt lat="48.943375" lon="8.666733">
<ele>310.0</ele>
<speed>3.4</speed>
<course>141.7</course>
<desc>Speed 3.4 km/h Distance 0.03 km</desc>
<time>2010-02-28T10:16:33.77</time>
<name>110</name>
</trkpt>
<trkpt lat="48.943358" lon="8.666753">
<ele>310.0</ele>
<speed>3.9</speed>
<course>173.4</course>
<desc>Speed 3.9 km/h Distance 0.04 km</desc>
<time>2010-02-28T10:16:34.78</time>
<name>111</name>
</trkpt>
<trkpt lat="48.943338" lon="8.666757">
<ele>310.0</ele>
<speed>6.5</speed>
<course>127.3</course>
<desc>Speed 6.5 km/h Distance 0.04 km</desc>
<time>2010-02-28T10:16:35.78</time>
<name>112</name>
</trkpt>
<trkpt lat="48.943323" lon="8.666787">
<ele>310.0</ele>
<speed>5.8</speed>
<course>129.1</course>
<desc>Speed 5.8 km/h Distance 0.04 km</desc>
<time>2010-02-28T10:16:36.78</time>
<name>113</name>
</trkpt>
<trkpt lat="48.943310" lon="8.666812">
<ele>310.0</ele>
<speed>6.4</speed>
<course>150.2</course>
<desc>Speed 6.4 km/h Distance 0.04 km</desc>
<time>2010-02-28T10:16:37.78</time>
<name>114</name>
</trkpt>
<trkpt lat="48.943297" lon="8.666823">
<ele>310.0</ele>
<speed>4.4</speed>
<course>76.8</course>
<desc>Speed 4.4 km/h Distance 0.05 km</desc>
<time>2010-02-28T10:16:38.78</time>
<name>115</name>
</trkpt>
<trkpt lat="48.943303" lon="8.666867">
<ele>310.0</ele>
<speed>10.8</speed>
<course>124.0</course>
<desc>Speed 10.8 km/h Distance 0.05 km</desc>
<time>2010-02-28T10:16:39.78</time>
<name>116</name>
</trkpt>
<trkpt lat="48.943297" lon="8.666882">
<ele>310.0</ele>
<speed>2.3</speed>
<course>170.2</course>
<desc>Speed 2.3 km/h Distance 0.05 km</desc>
<time>2010-02-28T10:16:41.78</time>
<name>117</name>
</trkpt>
<trkpt lat="48.943278" lon="8.666887">
<ele>310.0</ele>
<speed>5.3</speed>
<course>161.9</course>
<desc>Speed 5.3 km/h Distance 0.05 km</desc>
<time>2010-02-28T10:16:42.78</time>
<name>118</name>
</trkpt>
<trkpt lat="48.943262" lon="8.666895">
<ele>310.0</ele>
<speed>5.5</speed>
<course>150.2</course>
<desc>Speed 5.5 km/h Distance 0.05 km</desc>
<time>2010-02-28T10:16:43.78</time>
<name>119</name>
</trkpt>
<trkpt lat="48.943248" lon="8.666907">
<ele>310.0</ele>
<speed>5.3</speed>
<course>108.7</course>
<desc>Speed 5.3 km/h Distance 0.06 km</desc>
<time>2010-02-28T10:16:44.78</time>
<name>120</name>
</trkpt>
<trkpt lat="48.943242" lon="8.666937">
<ele>310.0</ele>
<speed>7.5</speed>
<course>149.7</course>
<desc>Speed 7.5 km/h Distance 0.06 km</desc>
<time>2010-02-28T10:16:45.78</time>
<name>121</name>
</trkpt>
<trkpt lat="48.943227" lon="8.666950">
<ele>310.0</ele>
<speed>6.2</speed>
<course>154.0</course>
<desc>Speed 6.2 km/h Distance 0.06 km</desc>
<time>2010-02-28T10:16:46.78</time>
<name>122</name>
</trkpt>
<trkpt lat="48.943213" lon="8.666960">
<ele>310.0</ele>
<speed>5.8</speed>
<course>170.1</course>
<desc>Speed 5.8 km/h Distance 0.06 km</desc>
<time>2010-02-28T10:16:47.78</time>
<name>123</name>
</trkpt>
<trkpt lat="48.943012" lon="8.667013">
<ele>310.0</ele>
<speed>5.4</speed>
<course>182.7</course>
<desc>Speed 5.4 km/h Distance 0.08 km</desc>
<time>2010-02-28T10:16:50.77</time>
<name>124</name>
</trkpt>
<trkpt lat="48.942992" lon="8.667012">
<ele>310.0</ele>
<speed>5.8</speed>
<course>175.3</course>
<desc>Speed 5.8 km/h Distance 0.09 km</desc>
<time>2010-02-28T10:16:51.78</time>
<name>125</name>
</trkpt>
<trkpt lat="48.942980" lon="8.667013">
<ele>310.0</ele>
<speed>4.4</speed>
<course>192.6</course>
<desc>Speed 4.4 km/h Distance 0.09 km</desc>
<time>2010-02-28T10:16:52.78</time>
<name>126</name>
</trkpt>
<trkpt lat="48.942970" lon="8.667010">
<ele>310.0</ele>
<speed>4.8</speed>
<course>184.4</course>
<desc>Speed 4.8 km/h Distance 0.09 km</desc>
<time>2010-02-28T10:16:53.78</time>
<name>127</name>
</trkpt>
<trkpt lat="48.942960" lon="8.667008">
<ele>310.0</ele>
<speed>4.7</speed>
<course>213.2</course>
<desc>Speed 4.7 km/h Distance 0.09 km</desc>
<time>2010-02-28T10:16:54.78</time>
<name>128</name>
</trkpt>
<trkpt lat="48.942950" lon="8.666998">
<ele>310.0</ele>
<speed>5.0</speed>
<course>183.9</course>
<desc>Speed 5.0 km/h Distance 0.09 km</desc>
<time>2010-02-28T10:16:55.77</time>
<name>129</name>
</trkpt>
<trkpt lat="48.942937" lon="8.666997">
<ele>310.0</ele>
<speed>6.2</speed>
<course>175.0</course>
<desc>Speed 6.2 km/h Distance 0.09 km</desc>
<time>2010-02-28T10:16:56.78</time>
<name>130</name>
</trkpt>
<trkpt lat="48.942928" lon="8.666998">
<ele>310.0</ele>
<speed>4.7</speed>
<course>185.0</course>
<desc>Speed 4.7 km/h Distance 0.09 km</desc>
<time>2010-02-28T10:16:57.78</time>
<name>131</name>
</trkpt>
<trkpt lat="48.942920" lon="8.666997">
<ele>310.0</ele>
<speed>4.6</speed>
<course>84.9</course>
<desc>Speed 4.6 km/h Distance 0.09 km</desc>
<time>2010-02-28T10:16:58.78</time>
<name>132</name>
</trkpt>
<trkpt lat="48.942923" lon="8.667053">
<ele>310.0</ele>
<speed>4.3</speed>
<course>165.1</course>
<desc>Speed 4.3 km/h Distance 0.10 km</desc>
<time>2010-02-28T10:17:00.78</time>
<name>133</name>
</trkpt>
<trkpt lat="48.942912" lon="8.667058">
<ele>310.0</ele>
<speed>5.8</speed>
<course>180.0</course>
<desc>Speed 5.8 km/h Distance 0.10 km</desc>
<time>2010-02-28T10:17:01.78</time>
<name>134</name>
</trkpt>
<trkpt lat="48.942907" lon="8.667058">
<ele>310.0</ele>
<speed>2.3</speed>
<course>169.8</course>
<desc>Speed 2.3 km/h Distance 0.10 km</desc>
<time>2010-02-28T10:17:02.77</time>
<name>135</name>
</trkpt>
<trkpt lat="48.942852" lon="8.667073">
<ele>310.0</ele>
<speed>1.3</speed>
<course>153.6</course>
<desc>Speed 1.3 km/h Distance 0.11 km</desc>
<time>2010-02-28T10:17:04.78</time>
<name>136</name>
</trkpt>
<trkpt lat="48.942845" lon="8.667078">
<ele>310.0</ele>
<speed>1.3</speed>
<course>189.0</course>
<desc>Speed 1.3 km/h Distance 0.11 km</desc>
<time>2010-02-28T10:17:05.77</time>
<name>137</name>
</trkpt>
<trkpt lat="48.942832" lon="8.667075">
<ele>310.0</ele>
<speed>5.1</speed>
<course>176.7</course>
<desc>Speed 5.1 km/h Distance 0.11 km</desc>
<time>2010-02-28T10:17:06.77</time>
<name>138</name>
</trkpt>
<trkpt lat="48.942735" lon="8.667083">
<ele>310.0</ele>
<speed>4.3</speed>
<course>200.1</course>
<desc>Speed 4.3 km/h Distance 0.12 km</desc>
<time>2010-02-28T10:17:08.77</time>
<name>139</name>
</trkpt>
<trkpt lat="48.942720" lon="8.667075">
<ele>310.0</ele>
<speed>4.2</speed>
<course>190.8</course>
<desc>Speed 4.2 km/h Distance 0.12 km</desc>
<time>2010-02-28T10:17:09.77</time>
<name>140</name>
</trkpt>
<trkpt lat="48.942703" lon="8.667070">
<ele>310.0</ele>
<speed>4.5</speed>
<course>178.0</course>
<desc>Speed 4.5 km/h Distance 0.12 km</desc>
<time>2010-02-28T10:17:10.77</time>
<name>141</name>
</trkpt>
<trkpt lat="48.942610" lon="8.667075">
<ele>310.0</ele>
<speed>1.5</speed>
<course>187.7</course>
<desc>Speed 1.5 km/h Distance 0.13 km</desc>
<time>2010-02-28T10:17:12.76</time>
<name>142</name>
</trkpt>
<trkpt lat="48.942593" lon="8.667072">
<ele>310.0</ele>
<speed>3.2</speed>
<course>184.7</course>
<desc>Speed 3.2 km/h Distance 0.14 km</desc>
<time>2010-02-28T10:17:13.76</time>
<name>143</name>
</trkpt>
<trkpt lat="48.942582" lon="8.667070">
<ele>310.0</ele>
<speed>3.6</speed>
<course>183.9</course>
<desc>Speed 3.6 km/h Distance 0.14 km</desc>
<time>2010-02-28T10:17:14.76</time>
<name>144</name>
</trkpt>
<trkpt lat="48.942568" lon="8.667068">
<ele>310.0</ele>
<speed>4.8</speed>
<course>312.2</course>
<desc>Speed 4.8 km/h Distance 0.14 km</desc>
<time>2010-02-28T10:17:15.77</time>
<name>145</name>
</trkpt>
<trkpt lat="48.942573" lon="8.667060">
<ele>310.0</ele>
<speed>1.4</speed>
<course>177.3</course>
<desc>Speed 1.4 km/h Distance 0.14 km</desc>
<time>2010-02-28T10:17:16.77</time>
<name>146</name>
</trkpt>
<trkpt lat="48.942503" lon="8.667065">
<ele>310.0</ele>
<speed>3.6</speed>
<course>240.2</course>
<desc>Speed 3.6 km/h Distance 0.15 km</desc>
<time>2010-02-28T10:17:18.77</time>
<name>147</name>
</trkpt>
<trkpt lat="48.942498" lon="8.667052">
<ele>310.0</ele>
<speed>3.2</speed>
<course>206.0</course>
<desc>Speed 3.2 km/h Distance 0.15 km</desc>
<time>2010-02-28T10:17:19.77</time>
<name>148</name>
</trkpt>
<trkpt lat="48.942485" lon="8.667042">
<ele>310.0</ele>
<speed>5.4</speed>
<course>201.5</course>
<desc>Speed 5.4 km/h Distance 0.15 km</desc>
<time>2010-02-28T10:17:20.77</time>
<name>149</name>
</trkpt>
<trkpt lat="48.942477" lon="8.667037">
<ele>310.0</ele>
<speed>1.2</speed>
<course>216.9</course>
<desc>Speed 1.2 km/h Distance 0.15 km</desc>
<time>2010-02-28T10:17:21.77</time>
<name>150</name>
</trkpt>
<trkpt lat="48.942465" lon="8.667023">
<ele>310.0</ele>
<speed>3.7</speed>
<course>236.7</course>
<desc>Speed 3.7 km/h Distance 0.15 km</desc>
<time>2010-02-28T10:17:22.77</time>
<name>151</name>
</trkpt>
<trkpt lat="48.942460" lon="8.667012">
<ele>310.0</ele>
<speed>3.0</speed>
<course>263.8</course>
<desc>Speed 3.0 km/h Distance 0.15 km</desc>
<time>2010-02-28T10:17:23.76</time>
<name>152</name>
</trkpt>
<trkpt lat="48.942458" lon="8.666988">
<ele>310.0</ele>
<speed>3.6</speed>
<course>207.2</course>
<desc>Speed 3.6 km/h Distance 0.16 km</desc>
<time>2010-02-28T10:17:24.76</time>
<name>153</name>
</trkpt>
<trkpt lat="48.942443" lon="8.666977">
<ele>310.0</ele>
<speed>3.7</speed>
<course>226.6</course>
<desc>Speed 3.7 km/h Distance 0.16 km</desc>
<time>2010-02-28T10:17:25.76</time>
<name>154</name>
</trkpt>
<trkpt lat="48.942435" lon="8.666963">
<ele>310.0</ele>
<speed>4.0</speed>
<course>200.9</course>
<desc>Speed 4.0 km/h Distance 0.16 km</desc>
<time>2010-02-28T10:17:26.76</time>
<name>155</name>
</trkpt>
<trkpt lat="48.942423" lon="8.666957">
<ele>310.0</ele>
<speed>3.6</speed>
<course>213.2</course>
<desc>Speed 3.6 km/h Distance 0.16 km</desc>
<time>2010-02-28T10:17:27.76</time>
<name>156</name>
</trkpt>
<trkpt lat="48.942415" lon="8.666948">
<ele>310.0</ele>
<speed>3.9</speed>
<course>197.0</course>
<desc>Speed 3.9 km/h Distance 0.16 km</desc>
<time>2010-02-28T10:17:28.76</time>
<name>157</name>
</trkpt>
<trkpt lat="48.942393" lon="8.666938">
<ele>310.0</ele>
<speed>3.9</speed>
<course>206.4</course>
<desc>Speed 3.9 km/h Distance 0.16 km</desc>
<time>2010-02-28T10:17:29.76</time>
<name>158</name>
</trkpt>
<trkpt lat="48.942380" lon="8.666928">
<ele>310.0</ele>
<speed>4.4</speed>
<course>189.0</course>
<desc>Speed 4.4 km/h Distance 0.17 km</desc>
<time>2010-02-28T10:17:30.76</time>
<name>159</name>
</trkpt>
<trkpt lat="48.942367" lon="8.666925">
<ele>310.0</ele>
<speed>4.0</speed>
<course>157.0</course>
<desc>Speed 4.0 km/h Distance 0.17 km</desc>
<time>2010-02-28T10:17:31.76</time>
<name>160</name>
</trkpt>
<trkpt lat="48.942363" lon="8.666927">
<ele>310.0</ele>
<speed>3.9</speed>
<course>170.5</course>
<desc>Speed 3.9 km/h Distance 0.17 km</desc>
<time>2010-02-28T10:17:32.76</time>
<name>161</name>
</trkpt>
<trkpt lat="48.942343" lon="8.666932">
<ele>310.0</ele>
<speed>3.3</speed>
<course>164.5</course>
<desc>Speed 3.3 km/h Distance 0.17 km</desc>
<time>2010-02-28T10:17:33.76</time>
<name>162</name>
</trkpt>
<trkpt lat="48.942332" lon="8.666937">
<ele>310.0</ele>
<speed>3.7</speed>
<course>180.0</course>
<desc>Speed 3.7 km/h Distance 0.17 km</desc>
<time>2010-02-28T10:17:34.76</time>
<name>163</name>
</trkpt>
<trkpt lat="48.942327" lon="8.666937">
<ele>310.0</ele>
<speed>4.0</speed>
<course>167.4</course>
<desc>Speed 4.0 km/h Distance 0.17 km</desc>
<time>2010-02-28T10:17:35.76</time>
<name>164</name>
</trkpt>
<trkpt lat="48.942325" lon="8.666937">
<ele>310.0</ele>
<speed>4.6</speed>
<course>180.0</course>
<desc>Speed 4.6 km/h Distance 0.17 km</desc>
<time>2010-02-28T10:17:36.76</time>
<name>165</name>
</trkpt>
<trkpt lat="48.942300" lon="8.666937">
<ele>310.0</ele>
<speed>2.9</speed>
<course>171.0</course>
<desc>Speed 2.9 km/h Distance 0.17 km</desc>
<time>2010-02-28T10:17:37.76</time>
<name>166</name>
</trkpt>
<trkpt lat="48.942287" lon="8.666940">
<ele>310.5</ele>
<speed>4.2</speed>
<course>150.8</course>
<desc>Speed 4.2 km/h Distance 0.18 km</desc>
<time>2010-02-28T10:17:38.76</time>
<name>167</name>
</trkpt>
<trkpt lat="48.942283" lon="8.666943">
<ele>310.5</ele>
<speed>3.5</speed>
<course>110.9</course>
<desc>Speed 3.5 km/h Distance 0.18 km</desc>
<time>2010-02-28T10:17:39.76</time>
<name>168</name>
</trkpt>
<trkpt lat="48.942282" lon="8.666950">
<ele>310.5</ele>
<speed>3.7</speed>
<course>117.4</course>
<desc>Speed 3.7 km/h Distance 0.18 km</desc>
<time>2010-02-28T10:17:40.76</time>
<name>169</name>
</trkpt>
<trkpt lat="48.942280" lon="8.666955">
<ele>310.5</ele>
<speed>3.9</speed>
<course>154.4</course>
<desc>Speed 3.9 km/h Distance 0.18 km</desc>
<time>2010-02-28T10:17:41.76</time>
<name>170</name>
</trkpt>
<trkpt lat="48.942273" lon="8.666960">
<ele>310.5</ele>
<speed>4.3</speed>
<course>127.0</course>
<desc>Speed 4.3 km/h Distance 0.18 km</desc>
<time>2010-02-28T10:17:42.76</time>
<name>171</name>
</trkpt>
<trkpt lat="48.942270" lon="8.666967">
<ele>310.5</ele>
<speed>4.4</speed>
<course>117.0</course>
<desc>Speed 4.4 km/h Distance 0.18 km</desc>
<time>2010-02-28T10:17:43.76</time>
<name>172</name>
</trkpt>
<trkpt lat="48.942267" lon="8.666977">
<ele>310.5</ele>
<speed>3.8</speed>
<course>127.2</course>
<desc>Speed 3.8 km/h Distance 0.18 km</desc>
<time>2010-02-28T10:17:44.77</time>
<name>173</name>
</trkpt>
<trkpt lat="48.942262" lon="8.666987">
<ele>310.5</ele>
<speed>3.3</speed>
<course>127.2</course>
<desc>Speed 3.3 km/h Distance 0.18 km</desc>
<time>2010-02-28T10:17:45.76</time>
<name>174</name>
</trkpt>
<trkpt lat="48.942257" lon="8.666997">
<ele>310.5</ele>
<speed>4.2</speed>
<course>106.9</course>
<desc>Speed 4.2 km/h Distance 0.18 km</desc>
<time>2010-02-28T10:17:46.76</time>
<name>175</name>
</trkpt>
<trkpt lat="48.942253" lon="8.667013">
<ele>310.5</ele>
<speed>4.7</speed>
<course>116.9</course>
<desc>Speed 4.7 km/h Distance 0.18 km</desc>
<time>2010-02-28T10:17:47.76</time>
<name>176</name>
</trkpt>
<trkpt lat="48.942248" lon="8.667028">
<ele>310.5</ele>
<speed>5.5</speed>
<course>143.1</course>
<desc>Speed 5.5 km/h Distance 0.18 km</desc>
<time>2010-02-28T10:17:48.76</time>
<name>177</name>
</trkpt>
<trkpt lat="48.942237" lon="8.667042">
<ele>310.5</ele>
<speed>4.6</speed>
<course>146.8</course>
<desc>Speed 4.6 km/h Distance 0.19 km</desc>
<time>2010-02-28T10:17:49.76</time>
<name>178</name>
</trkpt>
<trkpt lat="48.942227" lon="8.667052">
<ele>310.5</ele>
<speed>4.7</speed>
<course>127.4</course>
<desc>Speed 4.7 km/h Distance 0.19 km</desc>
<time>2010-02-28T10:17:50.75</time>
<name>179</name>
</trkpt>
<trkpt lat="48.942222" lon="8.667062">
<ele>310.5</ele>
<speed>4.6</speed>
<course>140.6</course>
<desc>Speed 4.6 km/h Distance 0.19 km</desc>
<time>2010-02-28T10:17:51.75</time>
<name>180</name>
</trkpt>
<trkpt lat="48.942215" lon="8.667070">
<ele>310.5</ele>
<speed>4.6</speed>
<course>117.0</course>
<desc>Speed 4.6 km/h Distance 0.19 km</desc>
<time>2010-02-28T10:17:52.75</time>
<name>181</name>
</trkpt>
<trkpt lat="48.942212" lon="8.667080">
<ele>310.5</ele>
<speed>4.5</speed>
<course>172.5</course>
<desc>Speed 4.5 km/h Distance 0.19 km</desc>
<time>2010-02-28T10:17:53.76</time>
<name>182</name>
</trkpt>
<trkpt lat="48.942197" lon="8.667083">
<ele>310.5</ele>
<speed>4.1</speed>
<course>165.1</course>
<desc>Speed 4.1 km/h Distance 0.19 km</desc>
<time>2010-02-28T10:17:54.75</time>
<name>183</name>
</trkpt>
<trkpt lat="48.942185" lon="8.667088">
<ele>310.5</ele>
<speed>4.1</speed>
<course>146.8</course>
<desc>Speed 4.1 km/h Distance 0.19 km</desc>
<time>2010-02-28T10:17:55.75</time>
<name>184</name>
</trkpt>
<trkpt lat="48.942177" lon="8.667097">
<ele>310.5</ele>
<speed>4.6</speed>
<course>152.1</course>
<desc>Speed 4.6 km/h Distance 0.19 km</desc>
<time>2010-02-28T10:17:56.75</time>
<name>185</name>
</trkpt>
<trkpt lat="48.942168" lon="8.667103">
<ele>310.5</ele>
<speed>4.4</speed>
<course>160.3</course>
<desc>Speed 4.4 km/h Distance 0.19 km</desc>
<time>2010-02-28T10:17:57.75</time>
<name>186</name>
</trkpt>
<trkpt lat="48.942150" lon="8.667113">
<ele>310.5</ele>
<speed>4.1</speed>
<course>150.6</course>
<desc>Speed 4.1 km/h Distance 0.20 km</desc>
<time>2010-02-28T10:17:58.75</time>
<name>187</name>
</trkpt>
<trkpt lat="48.942138" lon="8.667123">
<ele>310.5</ele>
<speed>4.6</speed>
<course>189.6</course>
<desc>Speed 4.6 km/h Distance 0.20 km</desc>
<time>2010-02-28T10:17:59.75</time>
<name>188</name>
</trkpt>
<trkpt lat="48.942080" lon="8.667108">
<ele>310.5</ele>
<speed>4.9</speed>
<course>180.0</course>
<desc>Speed 4.9 km/h Distance 0.21 km</desc>
<time>2010-02-28T10:18:01.75</time>
<name>189</name>
</trkpt>
<trkpt lat="48.942062" lon="8.667108">
<ele>310.5</ele>
<speed>5.0</speed>
<course>189.5</course>
<desc>Speed 5.0 km/h Distance 0.21 km</desc>
<time>2010-02-28T10:18:02.75</time>
<name>190</name>
</trkpt>
<trkpt lat="48.942042" lon="8.667103">
<ele>310.5</ele>
<speed>4.4</speed>
<course>188.1</course>
<desc>Speed 4.4 km/h Distance 0.21 km</desc>
<time>2010-02-28T10:18:03.74</time>
<name>191</name>
</trkpt>
<trkpt lat="48.942018" lon="8.667098">
<ele>310.5</ele>
<speed>5.0</speed>
<course>194.6</course>
<desc>Speed 5.0 km/h Distance 0.21 km</desc>
<time>2010-02-28T10:18:04.74</time>
<name>192</name>
</trkpt>
<trkpt lat="48.941993" lon="8.667088">
<ele>310.5</ele>
<speed>4.5</speed>
<course>192.3</course>
<desc>Speed 4.5 km/h Distance 0.21 km</desc>
<time>2010-02-28T10:18:05.75</time>
<name>193</name>
</trkpt>
<trkpt lat="48.941968" lon="8.667080">
<ele>310.5</ele>
<speed>5.1</speed>
<course>180.0</course>
<desc>Speed 5.1 km/h Distance 0.22 km</desc>
<time>2010-02-28T10:18:06.75</time>
<name>194</name>
</trkpt>
<trkpt lat="48.941950" lon="8.667080">
<ele>310.5</ele>
<speed>5.2</speed>
<course>185.6</course>
<desc>Speed 5.2 km/h Distance 0.22 km</desc>
<time>2010-02-28T10:18:07.75</time>
<name>195</name>
</trkpt>
<trkpt lat="48.941930" lon="8.667077">
<ele>310.5</ele>
<speed>5.1</speed>
<course>182.7</course>
<desc>Speed 5.1 km/h Distance 0.22 km</desc>
<time>2010-02-28T10:18:08.74</time>
<name>196</name>
</trkpt>
<trkpt lat="48.941910" lon="8.667075">
<ele>310.5</ele>
<speed>4.7</speed>
<course>302.4</course>
<desc>Speed 4.7 km/h Distance 0.22 km</desc>
<time>2010-02-28T10:18:09.75</time>
<name>197</name>
</trkpt>
<trkpt lat="48.941918" lon="8.667055">
<ele>310.5</ele>
<speed>7.2</speed>
<course>187.7</course>
<desc>Speed 7.2 km/h Distance 0.23 km</desc>
<time>2010-02-28T10:18:10.76</time>
<name>198</name>
</trkpt>
<trkpt lat="48.941910" lon="8.667053">
<ele>310.5</ele>
<speed>1.3</speed>
<course>203.0</course>
<desc>Speed 1.3 km/h Distance 0.23 km</desc>
<time>2010-02-28T10:18:11.74</time>
<name>199</name>
</trkpt>
<trkpt lat="48.941907" lon="8.667052">
<ele>310.5</ele>
<speed>0.7</speed>
<course>205.4</course>
<desc>Speed 0.7 km/h Distance 0.23 km</desc>
<time>2010-02-28T10:18:12.75</time>
<name>200</name>
</trkpt>
<trkpt lat="48.941902" lon="8.667048">
<ele>310.5</ele>
<speed>0.4</speed>
<course>168.8</course>
<desc>Speed 0.4 km/h Distance 0.23 km</desc>
<time>2010-02-28T10:18:13.75</time>
<name>201</name>
</trkpt>
<trkpt lat="48.941868" lon="8.667058">
<ele>311.0</ele>
<speed>3.5</speed>
<course>192.6</course>
<desc>Speed 3.5 km/h Distance 0.23 km</desc>
<time>2010-02-28T10:18:15.75</time>
<name>202</name>
</trkpt>
<trkpt lat="48.941858" lon="8.667055">
<ele>311.0</ele>
<speed>4.9</speed>
<course>181.2</course>
<desc>Speed 4.9 km/h Distance 0.23 km</desc>
<time>2010-02-28T10:18:16.75</time>
<name>203</name>
</trkpt>
<trkpt lat="48.941845" lon="8.667053">
<ele>311.0</ele>
<speed>4.3</speed>
<course>178.8</course>
<desc>Speed 4.3 km/h Distance 0.23 km</desc>
<time>2010-02-28T10:18:17.75</time>
<name>204</name>
</trkpt>
<trkpt lat="48.941832" lon="8.667053">
<ele>311.0</ele>
<speed>3.9</speed>
<course>183.9</course>
<desc>Speed 3.9 km/h Distance 0.24 km</desc>
<time>2010-02-28T10:18:18.74</time>
<name>205</name>
</trkpt>
<trkpt lat="48.941818" lon="8.667052">
<ele>311.0</ele>
<speed>4.1</speed>
<course>189.7</course>
<desc>Speed 4.1 km/h Distance 0.24 km</desc>
<time>2010-02-28T10:18:19.74</time>
<name>206</name>
</trkpt>
<trkpt lat="48.941805" lon="8.667048">
<ele>311.0</ele>
<speed>3.4</speed>
<course>167.4</course>
<desc>Speed 3.4 km/h Distance 0.24 km</desc>
<time>2010-02-28T10:18:20.74</time>
<name>207</name>
</trkpt>
<trkpt lat="48.941802" lon="8.667048">
<ele>311.0</ele>
<speed>2.2</speed>
<course>180.0</course>
<desc>Speed 2.2 km/h Distance 0.24 km</desc>
<time>2010-02-28T10:18:21.74</time>
<name>208</name>
</trkpt>
<trkpt lat="48.941795" lon="8.667048">
<ele>311.0</ele>
<speed>2.2</speed>
<course>171.0</course>
<desc>Speed 2.2 km/h Distance 0.24 km</desc>
<time>2010-02-28T10:18:22.74</time>
<name>209</name>
</trkpt>
<trkpt lat="48.941782" lon="8.667052">
<ele>312.0</ele>
<speed>5.7</speed>
<course>188.1</course>
<desc>Speed 5.7 km/h Distance 0.24 km</desc>
<time>2010-02-28T10:18:23.74</time>
<name>210</name>
</trkpt>
<trkpt lat="48.941772" lon="8.667050">
<ele>312.0</ele>
<speed>4.3</speed>
<course>168.8</course>
<desc>Speed 4.3 km/h Distance 0.24 km</desc>
<time>2010-02-28T10:18:24.74</time>
<name>211</name>
</trkpt>
<trkpt lat="48.941760" lon="8.667053">
<ele>312.0</ele>
<speed>3.7</speed>
<course>173.7</course>
<desc>Speed 3.7 km/h Distance 0.24 km</desc>
<time>2010-02-28T10:18:25.74</time>
<name>212</name>
</trkpt>
<trkpt lat="48.941748" lon="8.667055">
<ele>312.0</ele>
<speed>3.2</speed>
<course>180.0</course>
<desc>Speed 3.2 km/h Distance 0.25 km</desc>
<time>2010-02-28T10:18:26.74</time>
<name>213</name>
</trkpt>
<trkpt lat="48.941733" lon="8.667055">
<ele>312.0</ele>
<speed>4.4</speed>
<course>175.0</course>
<desc>Speed 4.4 km/h Distance 0.25 km</desc>
<time>2010-02-28T10:18:27.74</time>
<name>214</name>
</trkpt>
<trkpt lat="48.941725" lon="8.667055">
<ele>312.0</ele>
<speed>1.4</speed>
<course>192.6</course>
<desc>Speed 1.4 km/h Distance 0.25 km</desc>
<time>2010-02-28T10:18:28.74</time>
<name>215</name>
</trkpt>
<trkpt lat="48.941715" lon="8.667052">
<ele>312.0</ele>
<speed>1.6</speed>
<course>192.6</course>
<desc>Speed 1.6 km/h Distance 0.25 km</desc>
<time>2010-02-28T10:18:29.74</time>
<name>216</name>
</trkpt>
<trkpt lat="48.941710" lon="8.667050">
<ele>312.0</ele>
<speed>1.4</speed>
<course>171.0</course>
<desc>Speed 1.4 km/h Distance 0.25 km</desc>
<time>2010-02-28T10:18:30.74</time>
<name>217</name>
</trkpt>
<trkpt lat="48.941697" lon="8.667053">
<ele>312.5</ele>
<speed>4.1</speed>
<course>170.3</course>
<desc>Speed 4.1 km/h Distance 0.25 km</desc>
<time>2010-02-28T10:18:31.74</time>
<name>218</name>
</trkpt>
<trkpt lat="48.941683" lon="8.667057">
<ele>312.5</ele>
<speed>4.0</speed>
<course>136.5</course>
<desc>Speed 4.0 km/h Distance 0.25 km</desc>
<time>2010-02-28T10:18:32.74</time>
<name>219</name>
</trkpt>
<trkpt lat="48.941680" lon="8.667062">
<ele>312.5</ele>
<speed>2.2</speed>
<course>167.4</course>
<desc>Speed 2.2 km/h Distance 0.25 km</desc>
<time>2010-02-28T10:18:33.74</time>
<name>220</name>
</trkpt>
<trkpt lat="48.941678" lon="8.667062">
<ele>312.5</ele>
<speed>0.9</speed>
<course>330.8</course>
<desc>Speed 0.9 km/h Distance 0.25 km</desc>
<time>2010-02-28T10:18:34.74</time>
<name>221</name>
</trkpt>
<trkpt lat="48.941680" lon="8.667060">
<ele>312.5</ele>
<speed>0.7</speed>
<course>154.8</course>
<desc>Speed 0.7 km/h Distance 0.25 km</desc>
<time>2010-02-28T10:18:35.73</time>
<name>222</name>
</trkpt>
<trkpt lat="48.941668" lon="8.667068">
<ele>312.5</ele>
<speed>4.0</speed>
<course>160.1</course>
<desc>Speed 4.0 km/h Distance 0.25 km</desc>
<time>2010-02-28T10:18:36.73</time>
<name>223</name>
</trkpt>
<trkpt lat="48.941653" lon="8.667077">
<ele>312.5</ele>
<speed>3.0</speed>
<course>154.5</course>
<desc>Speed 3.0 km/h Distance 0.26 km</desc>
<time>2010-02-28T10:18:37.74</time>
<name>224</name>
</trkpt>
<trkpt lat="48.941635" lon="8.667090">
<ele>313.0</ele>
<speed>4.4</speed>
<course>157.7</course>
<desc>Speed 4.4 km/h Distance 0.26 km</desc>
<time>2010-02-28T10:18:38.74</time>
<name>225</name>
</trkpt>
<trkpt lat="48.941622" lon="8.667098">
<ele>313.0</ele>
<speed>2.8</speed>
<course>160.3</course>
<desc>Speed 2.8 km/h Distance 0.26 km</desc>
<time>2010-02-28T10:18:39.73</time>
<name>226</name>
</trkpt>
<trkpt lat="48.941603" lon="8.667108">
<ele>313.0</ele>
<speed>1.7</speed>
<course>166.5</course>
<desc>Speed 1.7 km/h Distance 0.26 km</desc>
<time>2010-02-28T10:18:40.73</time>
<name>227</name>
</trkpt>
<trkpt lat="48.941590" lon="8.667113">
<ele>313.5</ele>
<speed>1.2</speed>
<course>154.5</course>
<desc>Speed 1.2 km/h Distance 0.26 km</desc>
<time>2010-02-28T10:18:41.74</time>
<name>228</name>
</trkpt>
<trkpt lat="48.941572" lon="8.667127">
<ele>313.5</ele>
<speed>0.4</speed>
<course>146.3</course>
<desc>Speed 0.4 km/h Distance 0.27 km</desc>
<time>2010-02-28T10:18:42.74</time>
<name>229</name>
</trkpt>
<trkpt lat="48.941568" lon="8.667130">
<ele>313.5</ele>
<speed>0.6</speed>
<course>180.0</course>
<desc>Speed 0.6 km/h Distance 0.27 km</desc>
<time>2010-02-28T10:18:43.74</time>
<name>230</name>
</trkpt>
<trkpt lat="48.941563" lon="8.667130">
<ele>313.5</ele>
<speed>0.1</speed>
<course>243.4</course>
<desc>Speed 0.1 km/h Distance 0.27 km</desc>
<time>2010-02-28T10:18:44.74</time>
<name>231</name>
</trkpt>
<trkpt lat="48.941562" lon="8.667125">
<ele>314.0</ele>
<speed>0.8</speed>
<course>243.4</course>
<desc>Speed 0.8 km/h Distance 0.27 km</desc>
<time>2010-02-28T10:18:45.74</time>
<name>232</name>
</trkpt>
<trkpt lat="48.941562" lon="8.667125">
<ele>314.0</ele>
<speed>0.2</speed>
<course>306.1</course>
<desc>Speed 0.2 km/h Distance 0.27 km</desc>
<time>2010-02-28T10:18:46.74</time>
<name>233</name>
</trkpt>
<trkpt lat="48.941563" lon="8.667122">
<ele>314.0</ele>
<speed>0.1</speed>
<course>326.3</course>
<desc>Speed 0.1 km/h Distance 0.27 km</desc>
<time>2010-02-28T10:18:47.72</time>
<name>234</name>
</trkpt>
<trkpt lat="48.941567" lon="8.667118">
<ele>314.0</ele>
<speed>0.7</speed>
<course>326.3</course>
<desc>Speed 0.7 km/h Distance 0.27 km</desc>
<time>2010-02-28T10:18:48.72</time>
<name>235</name>
</trkpt>
<trkpt lat="48.941567" lon="8.667117">
<ele>314.5</ele>
<speed>0.5</speed>
<course>156.2</course>
<desc>Speed 0.5 km/h Distance 0.27 km</desc>
<time>2010-02-28T10:18:49.74</time>
<name>236</name>
</trkpt>
<trkpt lat="48.941562" lon="8.667120">
<ele>314.5</ele>
<speed>0.5</speed>
<course>217.2</course>
<desc>Speed 0.5 km/h Distance 0.27 km</desc>
<time>2010-02-28T10:18:50.73</time>
<name>237</name>
</trkpt>
<trkpt lat="48.941560" lon="8.667118">
<ele>314.5</ele>
<speed>0.5</speed>
<course>270.0</course>
<desc>Speed 0.5 km/h Distance 0.27 km</desc>
<time>2010-02-28T10:18:51.72</time>
<name>238</name>
</trkpt>
<trkpt lat="48.941560" lon="8.667115">
<ele>314.5</ele>
<speed>0.8</speed>
<course>175.6</course>
<desc>Speed 0.8 km/h Distance 0.27 km</desc>
<time>2010-02-28T10:18:52.73</time>
<name>239</name>
</trkpt>
<trkpt lat="48.941550" lon="8.667117">
<ele>314.5</ele>
<speed>2.5</speed>
<course>138.1</course>
<desc>Speed 2.5 km/h Distance 0.27 km</desc>
<time>2010-02-28T10:18:53.73</time>
<name>240</name>
</trkpt>
<trkpt lat="48.941545" lon="8.667123">
<ele>314.5</ele>
<speed>1.7</speed>
<course>123.9</course>
<desc>Speed 1.7 km/h Distance 0.27 km</desc>
<time>2010-02-28T10:18:54.73</time>
<name>241</name>
</trkpt>
<trkpt lat="48.941538" lon="8.667138">
<ele>315.0</ele>
<speed>2.4</speed>
<course>152.8</course>
<desc>Speed 2.4 km/h Distance 0.27 km</desc>
<time>2010-02-28T10:18:55.73</time>
<name>242</name>
</trkpt>
<trkpt lat="48.941523" lon="8.667150">
<ele>315.0</ele>
<speed>3.2</speed>
<course>145.9</course>
<desc>Speed 3.2 km/h Distance 0.27 km</desc>
<time>2010-02-28T10:18:56.73</time>
<name>243</name>
</trkpt>
<trkpt lat="48.941518" lon="8.667155">
<ele>315.0</ele>
<speed>2.1</speed>
<course>133.1</course>
<desc>Speed 2.1 km/h Distance 0.28 km</desc>
<time>2010-02-28T10:18:57.73</time>
<name>244</name>
</trkpt>
<trkpt lat="48.941478" lon="8.667220">
<ele>315.5</ele>
<speed>2.6</speed>
<course>138.5</course>
<desc>Speed 2.6 km/h Distance 0.28 km</desc>
<time>2010-02-28T10:18:59.73</time>
<name>245</name>
</trkpt>
<trkpt lat="48.941430" lon="8.667285">
<ele>315.5</ele>
<speed>3.6</speed>
<course>141.9</course>
<desc>Speed 3.6 km/h Distance 0.29 km</desc>
<time>2010-02-28T10:19:01.73</time>
<name>246</name>
</trkpt>
<trkpt lat="48.941422" lon="8.667295">
<ele>315.5</ele>
<speed>4.0</speed>
<course>121.4</course>
<desc>Speed 4.0 km/h Distance 0.29 km</desc>
<time>2010-02-28T10:19:02.73</time>
<name>247</name>
</trkpt>
<trkpt lat="48.941418" lon="8.667303">
<ele>316.0</ele>
<speed>3.4</speed>
<course>135.5</course>
<desc>Speed 3.4 km/h Distance 0.29 km</desc>
<time>2010-02-28T10:19:03.73</time>
<name>248</name>
</trkpt>
<trkpt lat="48.941412" lon="8.667313">
<ele>316.0</ele>
<speed>3.6</speed>
<course>140.6</course>
<desc>Speed 3.6 km/h Distance 0.29 km</desc>
<time>2010-02-28T10:19:04.73</time>
<name>249</name>
</trkpt>
<trkpt lat="48.941405" lon="8.667322">
<ele>316.5</ele>
<speed>4.2</speed>
<course>104.2</course>
<desc>Speed 4.2 km/h Distance 0.29 km</desc>
<time>2010-02-28T10:19:05.73</time>
<name>250</name>
</trkpt>
<trkpt lat="48.941403" lon="8.667332">
<ele>316.5</ele>
<speed>3.7</speed>
<course>138.4</course>
<desc>Speed 3.7 km/h Distance 0.29 km</desc>
<time>2010-02-28T10:19:06.72</time>
<name>251</name>
</trkpt>
<trkpt lat="48.941370" lon="8.667377">
<ele>318.0</ele>
<speed>1.9</speed>
<course>136.5</course>
<desc>Speed 1.9 km/h Distance 0.30 km</desc>
<time>2010-02-28T10:19:08.72</time>
<name>252</name>
</trkpt>
<trkpt lat="48.941367" lon="8.667382">
<ele>318.5</ele>
<speed>1.3</speed>
<course>146.3</course>
<desc>Speed 1.3 km/h Distance 0.30 km</desc>
<time>2010-02-28T10:19:09.73</time>
<name>253</name>
</trkpt>
<trkpt lat="48.941363" lon="8.667385">
<ele>318.5</ele>
<speed>0.4</speed>
<course>146.3</course>
<desc>Speed 0.4 km/h Distance 0.30 km</desc>
<time>2010-02-28T10:19:10.73</time>
<name>254</name>
</trkpt>
<trkpt lat="48.941360" lon="8.667388">
<ele>318.5</ele>
<speed>0.2</speed>
<course>135.5</course>
<desc>Speed 0.2 km/h Distance 0.30 km</desc>
<time>2010-02-28T10:19:11.73</time>
<name>255</name>
</trkpt>
<trkpt lat="48.941357" lon="8.667393">
<ele>318.5</ele>
<speed>0.4</speed>
<course>138.1</course>
<desc>Speed 0.4 km/h Distance 0.30 km</desc>
<time>2010-02-28T10:19:12.72</time>
<name>256</name>
</trkpt>
<trkpt lat="48.941352" lon="8.667400">
<ele>318.5</ele>
<speed>0.3</speed>
<course>146.7</course>
<desc>Speed 0.3 km/h Distance 0.30 km</desc>
<time>2010-02-28T10:19:13.72</time>
<name>257</name>
</trkpt>
<trkpt lat="48.941337" lon="8.667415">
<ele>319.0</ele>
<speed>0.3</speed>
<course>141.8</course>
<desc>Speed 0.3 km/h Distance 0.30 km</desc>
<time>2010-02-28T10:19:14.72</time>
<name>258</name>
</trkpt>
<trkpt lat="48.941312" lon="8.667445">
<ele>319.5</ele>
<speed>0.3</speed>
<course>140.6</course>
<desc>Speed 0.3 km/h Distance 0.31 km</desc>
<time>2010-02-28T10:19:16.72</time>
<name>259</name>
</trkpt>
<trkpt lat="48.941305" lon="8.667453">
<ele>319.5</ele>
<speed>0.3</speed>
<course>139.8</course>
<desc>Speed 0.3 km/h Distance 0.31 km</desc>
<time>2010-02-28T10:19:17.71</time>
<name>260</name>
</trkpt>
<trkpt lat="48.941293" lon="8.667468">
<ele>319.5</ele>
<speed>0.3</speed>
<course>142.5</course>
<desc>Speed 0.3 km/h Distance 0.31 km</desc>
<time>2010-02-28T10:19:18.70</time>
<name>261</name>
</trkpt>
<trkpt lat="48.941283" lon="8.667480">
<ele>320.0</ele>
<speed>0.3</speed>
<course>148.4</course>
<desc>Speed 0.3 km/h Distance 0.31 km</desc>
<time>2010-02-28T10:19:19.70</time>
<name>262</name>
</trkpt>
<trkpt lat="48.941280" lon="8.667483">
<ele>320.0</ele>
<speed>0.3</speed>
<course>107.9</course>
<desc>Speed 0.3 km/h Distance 0.31 km</desc>
<time>2010-02-28T10:19:20.70</time>
<name>263</name>
</trkpt>
<trkpt lat="48.941230" lon="8.667718">
<ele>320.0</ele>
<speed>0.3</speed>
<course>19.0</course>
<desc>Speed 0.3 km/h Distance 0.33 km</desc>
<time>2010-02-28T10:19:24.71</time>
<name>264</name>
</trkpt>
<trkpt lat="48.941412" lon="8.667813">
<ele>321.5</ele>
<speed>4.8</speed>
<course>77.8</course>
<desc>Speed 4.8 km/h Distance 0.35 km</desc>
<time>2010-02-28T10:19:28.72</time>
<name>265</name>
</trkpt>
<trkpt lat="48.941413" lon="8.667825">
<ele>322.0</ele>
<speed>4.8</speed>
<course>66.2</course>
<desc>Speed 4.8 km/h Distance 0.35 km</desc>
<time>2010-02-28T10:19:29.71</time>
<name>266</name>
</trkpt>
<trkpt lat="48.941468" lon="8.668015">
<ele>322.0</ele>
<speed>3.8</speed>
<course>121.3</course>
<desc>Speed 3.8 km/h Distance 0.37 km</desc>
<time>2010-02-28T10:19:32.72</time>
<name>267</name>
</trkpt>
<trkpt lat="48.941458" lon="8.668040">
<ele>322.0</ele>
<speed>2.9</speed>
<course>220.4</course>
<desc>Speed 2.9 km/h Distance 0.37 km</desc>
<time>2010-02-28T10:19:33.72</time>
<name>268</name>
</trkpt>
<trkpt lat="48.941163" lon="8.667658">
<ele>324.5</ele>
<speed>6.9</speed>
<course>105.0</course>
<desc>Speed 6.9 km/h Distance 0.41 km</desc>
<time>2010-02-28T10:19:38.72</time>
<name>269</name>
</trkpt>
<trkpt lat="48.941158" lon="8.667687">
<ele>328.0</ele>
<speed>3.2</speed>
<course>157.9</course>
<desc>Speed 3.2 km/h Distance 0.41 km</desc>
<time>2010-02-28T10:19:40.72</time>
<name>270</name>
</trkpt>
<trkpt lat="48.941145" lon="8.667695">
<ele>328.0</ele>
<speed>2.8</speed>
<course>155.3</course>
<desc>Speed 2.8 km/h Distance 0.42 km</desc>
<time>2010-02-28T10:19:41.71</time>
<name>271</name>
</trkpt>
<trkpt lat="48.941128" lon="8.667707">
<ele>328.0</ele>
<speed>3.1</speed>
<course>158.5</course>
<desc>Speed 3.1 km/h Distance 0.42 km</desc>
<time>2010-02-28T10:19:42.72</time>
<name>272</name>
</trkpt>
<trkpt lat="48.941112" lon="8.667717">
<ele>329.5</ele>
<speed>3.0</speed>
<course>132.4</course>
<desc>Speed 3.0 km/h Distance 0.42 km</desc>
<time>2010-02-28T10:19:43.71</time>
<name>273</name>
</trkpt>
<trkpt lat="48.941102" lon="8.667733">
<ele>331.5</ele>
<speed>3.1</speed>
<course>119.7</course>
<desc>Speed 3.1 km/h Distance 0.42 km</desc>
<time>2010-02-28T10:19:44.71</time>
<name>274</name>
</trkpt>
<trkpt lat="48.941097" lon="8.667747">
<ele>330.0</ele>
<speed>5.2</speed>
<course>5.0</course>
<desc>Speed 5.2 km/h Distance 0.42 km</desc>
<time>2010-02-28T10:19:45.71</time>
<name>275</name>
</trkpt>
<trkpt lat="48.941105" lon="8.667748">
<ele>329.5</ele>
<speed>1.8</speed>
<course>47.1</course>
<desc>Speed 1.8 km/h Distance 0.42 km</desc>
<time>2010-02-28T10:19:46.71</time>
<name>276</name>
</trkpt>
<trkpt lat="48.941110" lon="8.667757">
<ele>331.5</ele>
<speed>2.5</speed>
<course>114.6</course>
<desc>Speed 2.5 km/h Distance 0.42 km</desc>
<time>2010-02-28T10:19:47.71</time>
<name>277</name>
</trkpt>
<trkpt lat="48.941105" lon="8.667773">
<ele>333.0</ele>
<speed>2.7</speed>
<course>124.1</course>
<desc>Speed 2.7 km/h Distance 0.43 km</desc>
<time>2010-02-28T10:19:48.71</time>
<name>278</name>
</trkpt>
<trkpt lat="48.941098" lon="8.667788">
<ele>334.0</ele>
<speed>4.0</speed>
<course>127.3</course>
<desc>Speed 4.0 km/h Distance 0.43 km</desc>
<time>2010-02-28T10:19:49.71</time>
<name>279</name>
</trkpt>
<trkpt lat="48.941092" lon="8.667802">
<ele>334.5</ele>
<speed>2.9</speed>
<course>116.9</course>
<desc>Speed 2.9 km/h Distance 0.43 km</desc>
<time>2010-02-28T10:19:50.71</time>
<name>280</name>
</trkpt>
<trkpt lat="48.941087" lon="8.667817">
<ele>335.5</ele>
<speed>2.6</speed>
<course>138.6</course>
<desc>Speed 2.6 km/h Distance 0.43 km</desc>
<time>2010-02-28T10:19:51.71</time>
<name>281</name>
</trkpt>
<trkpt lat="48.941082" lon="8.667823">
<ele>337.5</ele>
<speed>2.4</speed>
<course>108.7</course>
<desc>Speed 2.4 km/h Distance 0.43 km</desc>
<time>2010-02-28T10:19:52.71</time>
<name>282</name>
</trkpt>
<trkpt lat="48.941078" lon="8.667838">
<ele>339.0</ele>
<speed>4.8</speed>
<course>151.4</course>
<desc>Speed 4.8 km/h Distance 0.43 km</desc>
<time>2010-02-28T10:19:53.71</time>
<name>283</name>
</trkpt>
<trkpt lat="48.941068" lon="8.667847">
<ele>339.0</ele>
<speed>3.1</speed>
<course>127.2</course>
<desc>Speed 3.1 km/h Distance 0.43 km</desc>
<time>2010-02-28T10:19:54.71</time>
<name>284</name>
</trkpt>
<trkpt lat="48.941062" lon="8.667860">
<ele>339.5</ele>
<speed>3.6</speed>
<course>119.7</course>
<desc>Speed 3.6 km/h Distance 0.43 km</desc>
<time>2010-02-28T10:19:55.71</time>
<name>285</name>
</trkpt>
<trkpt lat="48.941057" lon="8.667873">
<ele>340.0</ele>
<speed>3.2</speed>
<course>130.9</course>
<desc>Speed 3.2 km/h Distance 0.44 km</desc>
<time>2010-02-28T10:19:56.71</time>
<name>286</name>
</trkpt>
<trkpt lat="48.941050" lon="8.667885">
<ele>339.5</ele>
<speed>2.6</speed>
<course>131.1</course>
<desc>Speed 2.6 km/h Distance 0.44 km</desc>
<time>2010-02-28T10:19:57.71</time>
<name>287</name>
</trkpt>
<trkpt lat="48.941043" lon="8.667897">
<ele>340.0</ele>
<speed>3.4</speed>
<course>127.3</course>
<desc>Speed 3.4 km/h Distance 0.44 km</desc>
<time>2010-02-28T10:19:58.71</time>
<name>288</name>
</trkpt>
<trkpt lat="48.941035" lon="8.667913">
<ele>340.5</ele>
<speed>4.0</speed>
<course>138.8</course>
<desc>Speed 4.0 km/h Distance 0.44 km</desc>
<time>2010-02-28T10:19:59.71</time>
<name>289</name>
</trkpt>
<trkpt lat="48.941025" lon="8.667927">
<ele>340.5</ele>
<speed>4.2</speed>
<course>127.0</course>
<desc>Speed 4.2 km/h Distance 0.44 km</desc>
<time>2010-02-28T10:20:00.71</time>
<name>290</name>
</trkpt>
<trkpt lat="48.941022" lon="8.667933">
<ele>340.5</ele>
<speed>1.9</speed>
<course>47.8</course>
<desc>Speed 1.9 km/h Distance 0.44 km</desc>
<time>2010-02-28T10:20:01.71</time>
<name>291</name>
</trkpt>
<trkpt lat="48.941027" lon="8.667942">
<ele>341.0</ele>
<speed>1.5</speed>
<course>115.1</course>
<desc>Speed 1.5 km/h Distance 0.44 km</desc>
<time>2010-02-28T10:20:02.70</time>
<name>292</name>
</trkpt>
<trkpt lat="48.941020" lon="8.667963">
<ele>341.5</ele>
<speed>6.0</speed>
<course>105.5</course>
<desc>Speed 6.0 km/h Distance 0.44 km</desc>
<time>2010-02-28T10:20:03.70</time>
<name>293</name>
</trkpt>
<trkpt lat="48.941017" lon="8.667982">
<ele>343.0</ele>
<speed>3.7</speed>
<course>122.4</course>
<desc>Speed 3.7 km/h Distance 0.45 km</desc>
<time>2010-02-28T10:20:04.70</time>
<name>294</name>
</trkpt>
<trkpt lat="48.941008" lon="8.668002">
<ele>343.0</ele>
<speed>3.1</speed>
<course>116.9</course>
<desc>Speed 3.1 km/h Distance 0.45 km</desc>
<time>2010-02-28T10:20:05.70</time>
<name>295</name>
</trkpt>
<trkpt lat="48.941002" lon="8.668022">
<ele>342.5</ele>
<speed>3.1</speed>
<course>81.3</course>
<desc>Speed 3.1 km/h Distance 0.45 km</desc>
<time>2010-02-28T10:20:06.70</time>
<name>296</name>
</trkpt>
<trkpt lat="48.941003" lon="8.668038">
<ele>343.0</ele>
<speed>3.4</speed>
<course>75.8</course>
<desc>Speed 3.4 km/h Distance 0.45 km</desc>
<time>2010-02-28T10:20:07.70</time>
<name>297</name>
</trkpt>
<trkpt lat="48.941007" lon="8.668058">
<ele>343.5</ele>
<speed>3.9</speed>
<course>90.0</course>
<desc>Speed 3.9 km/h Distance 0.45 km</desc>
<time>2010-02-28T10:20:08.70</time>
<name>298</name>
</trkpt>
<trkpt lat="48.941007" lon="8.668078">
<ele>344.5</ele>
<speed>4.1</speed>
<course>108.7</course>
<desc>Speed 4.1 km/h Distance 0.45 km</desc>
<time>2010-02-28T10:20:09.70</time>
<name>299</name>
</trkpt>
<trkpt lat="48.941003" lon="8.668093">
<ele>344.0</ele>
<speed>3.4</speed>
<course>108.7</course>
<desc>Speed 3.4 km/h Distance 0.45 km</desc>
<time>2010-02-28T10:20:10.71</time>
<name>300</name>
</trkpt>
<trkpt lat="48.941000" lon="8.668108">
<ele>343.0</ele>
<speed>2.8</speed>
<course>108.7</course>
<desc>Speed 2.8 km/h Distance 0.45 km</desc>
<time>2010-02-28T10:20:11.70</time>
<name>301</name>
</trkpt>
<trkpt lat="48.940997" lon="8.668123">
<ele>343.0</ele>
<speed>3.5</speed>
<course>104.4</course>
<desc>Speed 3.5 km/h Distance 0.46 km</desc>
<time>2010-02-28T10:20:12.70</time>
<name>302</name>
</trkpt>
<trkpt lat="48.940995" lon="8.668133">
<ele>342.5</ele>
<speed>1.5</speed>
<course>121.4</course>
<desc>Speed 1.5 km/h Distance 0.46 km</desc>
<time>2010-02-28T10:20:13.70</time>
<name>303</name>
</trkpt>
<trkpt lat="48.940992" lon="8.668142">
<ele>343.0</ele>
<speed>1.4</speed>
<course>123.3</course>
<desc>Speed 1.4 km/h Distance 0.46 km</desc>
<time>2010-02-28T10:20:14.70</time>
<name>304</name>
</trkpt>
<trkpt lat="48.940987" lon="8.668153">
<ele>342.0</ele>
<speed>2.6</speed>
<course>133.5</course>
<desc>Speed 2.6 km/h Distance 0.46 km</desc>
<time>2010-02-28T10:20:15.70</time>
<name>305</name>
</trkpt>
<trkpt lat="48.940978" lon="8.668167">
<ele>343.5</ele>
<speed>2.6</speed>
<course>141.9</course>
<desc>Speed 2.6 km/h Distance 0.46 km</desc>
<time>2010-02-28T10:20:16.70</time>
<name>306</name>
</trkpt>
<trkpt lat="48.940970" lon="8.668177">
<ele>343.5</ele>
<speed>3.2</speed>
<course>146.8</course>
<desc>Speed 3.2 km/h Distance 0.46 km</desc>
<time>2010-02-28T10:20:17.70</time>
<name>307</name>
</trkpt>
<trkpt lat="48.940960" lon="8.668187">
<ele>343.5</ele>
<speed>4.2</speed>
<course>146.6</course>
<desc>Speed 4.2 km/h Distance 0.46 km</desc>
<time>2010-02-28T10:20:18.70</time>
<name>308</name>
</trkpt>
<trkpt lat="48.940948" lon="8.668198">
<ele>343.5</ele>
<speed>3.7</speed>
<course>123.1</course>
<desc>Speed 3.7 km/h Distance 0.46 km</desc>
<time>2010-02-28T10:20:19.70</time>
<name>309</name>
</trkpt>
<trkpt lat="48.940943" lon="8.668210">
<ele>344.5</ele>
<speed>3.3</speed>
<course>149.6</course>
<desc>Speed 3.3 km/h Distance 0.47 km</desc>
<time>2010-02-28T10:20:20.70</time>
<name>310</name>
</trkpt>
<trkpt lat="48.940928" lon="8.668223">
<ele>343.5</ele>
<speed>4.8</speed>
<course>130.9</course>
<desc>Speed 4.8 km/h Distance 0.47 km</desc>
<time>2010-02-28T10:20:21.70</time>
<name>311</name>
</trkpt>
<trkpt lat="48.940922" lon="8.668235">
<ele>344.0</ele>
<speed>3.9</speed>
<course>128.1</course>
<desc>Speed 3.9 km/h Distance 0.47 km</desc>
<time>2010-02-28T10:20:22.69</time>
<name>312</name>
</trkpt>
<trkpt lat="48.940920" lon="8.668238">
<ele>344.0</ele>
<speed>1.3</speed>
<course>79.3</course>
<desc>Speed 1.3 km/h Distance 0.47 km</desc>
<time>2010-02-28T10:20:23.69</time>
<name>313</name>
</trkpt>
<trkpt lat="48.940922" lon="8.668252">
<ele>346.0</ele>
<speed>3.2</speed>
<course>90.0</course>
<desc>Speed 3.2 km/h Distance 0.47 km</desc>
<time>2010-02-28T10:20:24.70</time>
<name>314</name>
</trkpt>
<trkpt lat="48.940922" lon="8.668263">
<ele>347.5</ele>
<speed>2.9</speed>
<course>117.0</course>
<desc>Speed 2.9 km/h Distance 0.47 km</desc>
<time>2010-02-28T10:20:25.70</time>
<name>315</name>
</trkpt>
<trkpt lat="48.940918" lon="8.668273">
<ele>348.5</ele>
<speed>3.3</speed>
<course>104.4</course>
<desc>Speed 3.3 km/h Distance 0.47 km</desc>
<time>2010-02-28T10:20:26.70</time>
<name>316</name>
</trkpt>
<trkpt lat="48.940917" lon="8.668283">
<ele>350.5</ele>
<speed>2.8</speed>
<course>123.1</course>
<desc>Speed 2.8 km/h Distance 0.47 km</desc>
<time>2010-02-28T10:20:27.70</time>
<name>317</name>
</trkpt>
<trkpt lat="48.940912" lon="8.668295">
<ele>351.0</ele>
<speed>3.6</speed>
<course>119.7</course>
<desc>Speed 3.6 km/h Distance 0.47 km</desc>
<time>2010-02-28T10:20:28.70</time>
<name>318</name>
</trkpt>
<trkpt lat="48.940907" lon="8.668308">
<ele>351.5</ele>
<speed>3.9</speed>
<course>100.8</course>
<desc>Speed 3.9 km/h Distance 0.47 km</desc>
<time>2010-02-28T10:20:29.70</time>
<name>319</name>
</trkpt>
<trkpt lat="48.940905" lon="8.668322">
<ele>353.5</ele>
<speed>3.6</speed>
<course>114.6</course>
<desc>Speed 3.6 km/h Distance 0.47 km</desc>
<time>2010-02-28T10:20:30.70</time>
<name>320</name>
</trkpt>
<trkpt lat="48.940900" lon="8.668338">
<ele>354.5</ele>
<speed>5.0</speed>
<course>90.0</course>
<desc>Speed 5.0 km/h Distance 0.48 km</desc>
<time>2010-02-28T10:20:31.70</time>
<name>321</name>
</trkpt>
<trkpt lat="48.940900" lon="8.668345">
<ele>355.5</ele>
<speed>1.8</speed>
<course>110.9</course>
<desc>Speed 1.8 km/h Distance 0.48 km</desc>
<time>2010-02-28T10:20:32.69</time>
<name>322</name>
</trkpt>
<trkpt lat="48.940893" lon="8.668372">
<ele>357.0</ele>
<speed>7.5</speed>
<course>99.6</course>
<desc>Speed 7.5 km/h Distance 0.48 km</desc>
<time>2010-02-28T10:20:33.69</time>
<name>323</name>
</trkpt>
<trkpt lat="48.940892" lon="8.668387">
<ele>358.5</ele>
<speed>4.5</speed>
<course>99.6</course>
<desc>Speed 4.5 km/h Distance 0.48 km</desc>
<time>2010-02-28T10:20:34.68</time>
<name>324</name>
</trkpt>
<trkpt lat="48.940890" lon="8.668402">
<ele>360.5</ele>
<speed>3.7</speed>
<course>123.3</course>
<desc>Speed 3.7 km/h Distance 0.48 km</desc>
<time>2010-02-28T10:20:35.68</time>
<name>325</name>
</trkpt>
<trkpt lat="48.940885" lon="8.668413">
<ele>361.0</ele>
<speed>4.0</speed>
<course>110.9</course>
<desc>Speed 4.0 km/h Distance 0.48 km</desc>
<time>2010-02-28T10:20:36.68</time>
<name>326</name>
</trkpt>
<trkpt lat="48.940882" lon="8.668427">
<ele>362.5</ele>
<speed>3.4</speed>
<course>117.0</course>
<desc>Speed 3.4 km/h Distance 0.48 km</desc>
<time>2010-02-28T10:20:37.68</time>
<name>327</name>
</trkpt>
<trkpt lat="48.940878" lon="8.668437">
<ele>363.5</ele>
<speed>3.1</speed>
<course>131.1</course>
<desc>Speed 3.1 km/h Distance 0.48 km</desc>
<time>2010-02-28T10:20:38.69</time>
<name>328</name>
</trkpt>
<trkpt lat="48.940872" lon="8.668448">
<ele>364.5</ele>
<speed>3.3</speed>
<course>127.0</course>
<desc>Speed 3.3 km/h Distance 0.49 km</desc>
<time>2010-02-28T10:20:39.69</time>
<name>329</name>
</trkpt>
<trkpt lat="48.940868" lon="8.668455">
<ele>365.0</ele>
<speed>1.5</speed>
<course>90.0</course>
<desc>Speed 1.5 km/h Distance 0.49 km</desc>
<time>2010-02-28T10:20:40.69</time>
<name>330</name>
</trkpt>
<trkpt lat="48.940868" lon="8.668470">
<ele>366.0</ele>
<speed>2.7</speed>
<course>127.2</course>
<desc>Speed 2.7 km/h Distance 0.49 km</desc>
<time>2010-02-28T10:20:41.69</time>
<name>331</name>
</trkpt>
<trkpt lat="48.940863" lon="8.668480">
<ele>366.5</ele>
<speed>2.7</speed>
<course>121.3</course>
<desc>Speed 2.7 km/h Distance 0.49 km</desc>
<time>2010-02-28T10:20:42.69</time>
<name>332</name>
</trkpt>
<trkpt lat="48.940857" lon="8.668497">
<ele>366.0</ele>
<speed>2.7</speed>
<course>140.6</course>
<desc>Speed 2.7 km/h Distance 0.49 km</desc>
<time>2010-02-28T10:20:43.69</time>
<name>333</name>
</trkpt>
<trkpt lat="48.940850" lon="8.668505">
<ele>366.5</ele>
<speed>2.9</speed>
<course>155.1</course>
<desc>Speed 2.9 km/h Distance 0.49 km</desc>
<time>2010-02-28T10:20:44.69</time>
<name>334</name>
</trkpt>
<trkpt lat="48.940838" lon="8.668513">
<ele>366.0</ele>
<speed>2.8</speed>
<course>140.6</course>
<desc>Speed 2.8 km/h Distance 0.49 km</desc>
<time>2010-02-28T10:20:45.69</time>
<name>335</name>
</trkpt>
<trkpt lat="48.940832" lon="8.668522">
<ele>366.5</ele>
<speed>2.9</speed>
<course>130.3</course>
<desc>Speed 2.9 km/h Distance 0.49 km</desc>
<time>2010-02-28T10:20:46.69</time>
<name>336</name>
</trkpt>
<trkpt lat="48.940823" lon="8.668537">
<ele>367.5</ele>
<speed>3.9</speed>
<course>146.8</course>
<desc>Speed 3.9 km/h Distance 0.49 km</desc>
<time>2010-02-28T10:20:47.69</time>
<name>337</name>
</trkpt>
<trkpt lat="48.940813" lon="8.668547">
<ele>368.0</ele>
<speed>3.9</speed>
<course>130.2</course>
<desc>Speed 3.9 km/h Distance 0.50 km</desc>
<time>2010-02-28T10:20:48.69</time>
<name>338</name>
</trkpt>
<trkpt lat="48.940805" lon="8.668562">
<ele>367.5</ele>
<speed>4.3</speed>
<course>127.3</course>
<desc>Speed 4.3 km/h Distance 0.50 km</desc>
<time>2010-02-28T10:20:49.69</time>
<name>339</name>
</trkpt>
<trkpt lat="48.940798" lon="8.668575">
<ele>367.5</ele>
<speed>4.1</speed>
<course>119.3</course>
<desc>Speed 4.1 km/h Distance 0.50 km</desc>
<time>2010-02-28T10:20:50.69</time>
<name>340</name>
</trkpt>
<trkpt lat="48.940787" lon="8.668607">
<ele>369.5</ele>
<speed>4.3</speed>
<course>125.6</course>
<desc>Speed 4.3 km/h Distance 0.50 km</desc>
<time>2010-02-28T10:20:51.69</time>
<name>341</name>
</trkpt>
<trkpt lat="48.940773" lon="8.668635">
<ele>372.0</ele>
<speed>4.5</speed>
<course>123.1</course>
<desc>Speed 4.5 km/h Distance 0.50 km</desc>
<time>2010-02-28T10:20:52.68</time>
<name>342</name>
</trkpt>
<trkpt lat="48.940768" lon="8.668647">
<ele>372.5</ele>
<speed>3.3</speed>
<course>110.9</course>
<desc>Speed 3.3 km/h Distance 0.50 km</desc>
<time>2010-02-28T10:20:53.69</time>
<name>343</name>
</trkpt>
<trkpt lat="48.940765" lon="8.668660">
<ele>372.5</ele>
<speed>3.2</speed>
<course>119.7</course>
<desc>Speed 3.2 km/h Distance 0.51 km</desc>
<time>2010-02-28T10:20:54.68</time>
<name>344</name>
</trkpt>
<trkpt lat="48.940760" lon="8.668673">
<ele>373.0</ele>
<speed>3.6</speed>
<course>119.7</course>
<desc>Speed 3.6 km/h Distance 0.51 km</desc>
<time>2010-02-28T10:20:55.68</time>
<name>345</name>
</trkpt>
<trkpt lat="48.940755" lon="8.668687">
<ele>373.5</ele>
<speed>3.7</speed>
<course>116.9</course>
<desc>Speed 3.7 km/h Distance 0.51 km</desc>
<time>2010-02-28T10:20:56.68</time>
<name>346</name>
</trkpt>
<trkpt lat="48.940750" lon="8.668702">
<ele>374.0</ele>
<speed>4.0</speed>
<course>109.9</course>
<desc>Speed 4.0 km/h Distance 0.51 km</desc>
<time>2010-02-28T10:20:57.68</time>
<name>347</name>
</trkpt>
<trkpt lat="48.940742" lon="8.668737">
<ele>376.0</ele>
<speed>3.4</speed>
<course>106.9</course>
<desc>Speed 3.4 km/h Distance 0.51 km</desc>
<time>2010-02-28T10:20:58.68</time>
<name>348</name>
</trkpt>
<trkpt lat="48.940738" lon="8.668753">
<ele>376.5</ele>
<speed>4.4</speed>
<course>120.4</course>
<desc>Speed 4.4 km/h Distance 0.51 km</desc>
<time>2010-02-28T10:20:59.68</time>
<name>349</name>
</trkpt>
<trkpt lat="48.940730" lon="8.668775">
<ele>376.0</ele>
<speed>4.2</speed>
<course>100.8</course>
<desc>Speed 4.2 km/h Distance 0.51 km</desc>
<time>2010-02-28T10:21:00.68</time>
<name>350</name>
</trkpt>
<trkpt lat="48.940728" lon="8.668788">
<ele>376.0</ele>
<speed>3.7</speed>
<course>105.5</course>
<desc>Speed 3.7 km/h Distance 0.52 km</desc>
<time>2010-02-28T10:21:01.68</time>
<name>351</name>
</trkpt>
<trkpt lat="48.940725" lon="8.668807">
<ele>376.5</ele>
<speed>4.0</speed>
<course>113.5</course>
<desc>Speed 4.0 km/h Distance 0.52 km</desc>
<time>2010-02-28T10:21:02.68</time>
<name>352</name>
</trkpt>
<trkpt lat="48.940722" lon="8.668818">
<ele>376.5</ele>
<speed>3.2</speed>
<course>130.9</course>
<desc>Speed 3.2 km/h Distance 0.52 km</desc>
<time>2010-02-28T10:21:03.68</time>
<name>353</name>
</trkpt>
<trkpt lat="48.940715" lon="8.668830">
<ele>375.5</ele>
<speed>3.1</speed>
<course>140.6</course>
<desc>Speed 3.1 km/h Distance 0.52 km</desc>
<time>2010-02-28T10:21:04.68</time>
<name>354</name>
</trkpt>
<trkpt lat="48.940708" lon="8.668838">
<ele>375.0</ele>
<speed>2.7</speed>
<course>123.3</course>
<desc>Speed 2.7 km/h Distance 0.52 km</desc>
<time>2010-02-28T10:21:05.68</time>
<name>355</name>
</trkpt>
<trkpt lat="48.940703" lon="8.668850">
<ele>374.5</ele>
<speed>3.5</speed>
<course>127.2</course>
<desc>Speed 3.5 km/h Distance 0.52 km</desc>
<time>2010-02-28T10:21:06.68</time>
<name>356</name>
</trkpt>
<trkpt lat="48.940698" lon="8.668860">
<ele>374.0</ele>
<speed>3.2</speed>
<course>176.2</course>
<desc>Speed 3.2 km/h Distance 0.52 km</desc>
<time>2010-02-28T10:21:07.68</time>
<name>357</name>
</trkpt>
<trkpt lat="48.940683" lon="8.668862">
<ele>374.0</ele>
<speed>5.8</speed>
<course>121.4</course>
<desc>Speed 5.8 km/h Distance 0.52 km</desc>
<time>2010-02-28T10:21:08.68</time>
<name>358</name>
</trkpt>
<trkpt lat="48.940673" lon="8.668887">
<ele>374.0</ele>
<speed>4.4</speed>
<course>108.7</course>
<desc>Speed 4.4 km/h Distance 0.53 km</desc>
<time>2010-02-28T10:21:09.68</time>
<name>359</name>
</trkpt>
<trkpt lat="48.940667" lon="8.668917">
<ele>376.0</ele>
<speed>5.5</speed>
<course>124.7</course>
<desc>Speed 5.5 km/h Distance 0.53 km</desc>
<time>2010-02-28T10:21:10.69</time>
<name>360</name>
</trkpt>
<trkpt lat="48.940658" lon="8.668935">
<ele>376.0</ele>
<speed>4.5</speed>
<course>116.9</course>
<desc>Speed 4.5 km/h Distance 0.53 km</desc>
<time>2010-02-28T10:21:11.68</time>
<name>361</name>
</trkpt>
<trkpt lat="48.940647" lon="8.668970">
<ele>375.5</ele>
<speed>4.3</speed>
<course>114.1</course>
<desc>Speed 4.3 km/h Distance 0.53 km</desc>
<time>2010-02-28T10:21:12.67</time>
<name>362</name>
</trkpt>
<trkpt lat="48.940638" lon="8.668998">
<ele>375.0</ele>
<speed>4.9</speed>
<course>73.0</course>
<desc>Speed 4.9 km/h Distance 0.53 km</desc>
<time>2010-02-28T10:21:13.68</time>
<name>363</name>
</trkpt>
<trkpt lat="48.940642" lon="8.669015">
<ele>374.5</ele>
<speed>3.4</speed>
<course>127.2</course>
<desc>Speed 3.4 km/h Distance 0.54 km</desc>
<time>2010-02-28T10:21:14.68</time>
<name>364</name>
</trkpt>
<trkpt lat="48.940635" lon="8.669028">
<ele>374.5</ele>
<speed>4.2</speed>
<course>112.5</course>
<desc>Speed 4.2 km/h Distance 0.54 km</desc>
<time>2010-02-28T10:21:15.68</time>
<name>365</name>
</trkpt>
<trkpt lat="48.940630" lon="8.669047">
<ele>374.5</ele>
<speed>3.7</speed>
<course>132.4</course>
<desc>Speed 3.7 km/h Distance 0.54 km</desc>
<time>2010-02-28T10:21:16.67</time>
<name>366</name>
</trkpt>
<trkpt lat="48.940620" lon="8.669063">
<ele>373.0</ele>
<speed>3.5</speed>
<course>141.0</course>
<desc>Speed 3.5 km/h Distance 0.54 km</desc>
<time>2010-02-28T10:21:17.67</time>
<name>367</name>
</trkpt>
<trkpt lat="48.940613" lon="8.669072">
<ele>372.0</ele>
<speed>2.9</speed>
<course>127.0</course>
<desc>Speed 2.9 km/h Distance 0.54 km</desc>
<time>2010-02-28T10:21:18.67</time>
<name>368</name>
</trkpt>
<trkpt lat="48.940610" lon="8.669078">
<ele>372.0</ele>
<speed>2.0</speed>
<course>90.0</course>
<desc>Speed 2.0 km/h Distance 0.54 km</desc>
<time>2010-02-28T10:21:19.67</time>
<name>369</name>
</trkpt>
<trkpt lat="48.940610" lon="8.669085">
<ele>372.5</ele>
<speed>1.8</speed>
<course>140.6</course>
<desc>Speed 1.8 km/h Distance 0.54 km</desc>
<time>2010-02-28T10:21:20.67</time>
<name>370</name>
</trkpt>
<trkpt lat="48.940603" lon="8.669093">
<ele>372.0</ele>
<speed>3.4</speed>
<course>140.6</course>
<desc>Speed 3.4 km/h Distance 0.54 km</desc>
<time>2010-02-28T10:21:21.67</time>
<name>371</name>
</trkpt>
<trkpt lat="48.940597" lon="8.669102">
<ele>372.0</ele>
<speed>3.6</speed>
<course>124.1</course>
<desc>Speed 3.6 km/h Distance 0.54 km</desc>
<time>2010-02-28T10:21:22.67</time>
<name>372</name>
</trkpt>
<trkpt lat="48.940590" lon="8.669117">
<ele>372.5</ele>
<speed>4.4</speed>
<course>127.3</course>
<desc>Speed 4.4 km/h Distance 0.55 km</desc>
<time>2010-02-28T10:21:23.67</time>
<name>373</name>
</trkpt>
<trkpt lat="48.940583" lon="8.669130">
<ele>372.5</ele>
<speed>4.3</speed>
<course>140.6</course>
<desc>Speed 4.3 km/h Distance 0.55 km</desc>
<time>2010-02-28T10:21:24.67</time>
<name>374</name>
</trkpt>
<trkpt lat="48.940577" lon="8.669138">
<ele>372.0</ele>
<speed>3.2</speed>
<course>119.3</course>
<desc>Speed 3.2 km/h Distance 0.55 km</desc>
<time>2010-02-28T10:21:25.67</time>
<name>375</name>
</trkpt>
<trkpt lat="48.940565" lon="8.669170">
<ele>370.0</ele>
<speed>3.9</speed>
<course>130.2</course>
<desc>Speed 3.9 km/h Distance 0.55 km</desc>
<time>2010-02-28T10:21:26.67</time>
<name>376</name>
</trkpt>
<trkpt lat="48.940548" lon="8.669200">
<ele>368.5</ele>
<speed>3.6</speed>
<course>119.0</course>
<desc>Speed 3.6 km/h Distance 0.55 km</desc>
<time>2010-02-28T10:21:27.67</time>
<name>377</name>
</trkpt>
<trkpt lat="48.940542" lon="8.669218">
<ele>367.5</ele>
<speed>3.0</speed>
<course>99.6</course>
<desc>Speed 3.0 km/h Distance 0.55 km</desc>
<time>2010-02-28T10:21:28.67</time>
<name>378</name>
</trkpt>
<trkpt lat="48.940540" lon="8.669233">
<ele>368.0</ele>
<speed>3.7</speed>
<course>118.3</course>
<desc>Speed 3.7 km/h Distance 0.56 km</desc>
<time>2010-02-28T10:21:29.66</time>
<name>379</name>
</trkpt>
<trkpt lat="48.940530" lon="8.669262">
<ele>368.0</ele>
<speed>4.1</speed>
<course>139.8</course>
<desc>Speed 4.1 km/h Distance 0.56 km</desc>
<time>2010-02-28T10:21:30.66</time>
<name>380</name>
</trkpt>
<trkpt lat="48.940507" lon="8.669292">
<ele>366.5</ele>
<speed>1.6</speed>
<course>121.4</course>
<desc>Speed 1.6 km/h Distance 0.56 km</desc>
<time>2010-02-28T10:21:32.66</time>
<name>381</name>
</trkpt>
<trkpt lat="48.940503" lon="8.669300">
<ele>367.0</ele>
<speed>2.7</speed>
<course>119.8</course>
<desc>Speed 2.7 km/h Distance 0.56 km</desc>
<time>2010-02-28T10:21:33.66</time>
<name>382</name>
</trkpt>
<trkpt lat="48.940498" lon="8.669313">
<ele>367.0</ele>
<speed>2.9</speed>
<course>130.3</course>
<desc>Speed 2.9 km/h Distance 0.56 km</desc>
<time>2010-02-28T10:21:34.66</time>
<name>383</name>
</trkpt>
<trkpt lat="48.940490" lon="8.669328">
<ele>367.5</ele>
<speed>4.4</speed>
<course>127.2</course>
<desc>Speed 4.4 km/h Distance 0.57 km</desc>
<time>2010-02-28T10:21:35.67</time>
<name>384</name>
</trkpt>
<trkpt lat="48.940485" lon="8.669338">
<ele>368.5</ele>
<speed>3.1</speed>
<course>127.2</course>
<desc>Speed 3.1 km/h Distance 0.57 km</desc>
<time>2010-02-28T10:21:36.67</time>
<name>385</name>
</trkpt>
<trkpt lat="48.940480" lon="8.669348">
<ele>369.0</ele>
<speed>3.5</speed>
<course>135.5</course>
<desc>Speed 3.5 km/h Distance 0.57 km</desc>
<time>2010-02-28T10:21:37.67</time>
<name>386</name>
</trkpt>
<trkpt lat="48.940473" lon="8.669358">
<ele>370.0</ele>
<speed>3.4</speed>
<course>137.4</course>
<desc>Speed 3.4 km/h Distance 0.57 km</desc>
<time>2010-02-28T10:21:38.67</time>
<name>387</name>
</trkpt>
<trkpt lat="48.940465" lon="8.669370">
<ele>370.0</ele>
<speed>3.0</speed>
<course>127.3</course>
<desc>Speed 3.0 km/h Distance 0.57 km</desc>
<time>2010-02-28T10:21:39.66</time>
<name>388</name>
</trkpt>
<trkpt lat="48.940457" lon="8.669387">
<ele>369.5</ele>
<speed>3.6</speed>
<course>120.4</course>
<desc>Speed 3.6 km/h Distance 0.57 km</desc>
<time>2010-02-28T10:21:40.66</time>
<name>389</name>
</trkpt>
<trkpt lat="48.940432" lon="8.669452">
<ele>373.0</ele>
<speed>3.1</speed>
<course>113.5</course>
<desc>Speed 3.1 km/h Distance 0.58 km</desc>
<time>2010-02-28T10:21:42.65</time>
<name>390</name>
</trkpt>
<trkpt lat="48.940422" lon="8.669487">
<ele>374.5</ele>
<speed>3.5</speed>
<course>110.8</course>
<desc>Speed 3.5 km/h Distance 0.58 km</desc>
<time>2010-02-28T10:21:43.66</time>
<name>391</name>
</trkpt>
<trkpt lat="48.940418" lon="8.669500">
<ele>375.5</ele>
<speed>4.0</speed>
<course>119.7</course>
<desc>Speed 4.0 km/h Distance 0.58 km</desc>
<time>2010-02-28T10:21:44.66</time>
<name>392</name>
</trkpt>
<trkpt lat="48.940413" lon="8.669513">
<ele>376.5</ele>
<speed>3.7</speed>
<course>131.3</course>
<desc>Speed 3.7 km/h Distance 0.58 km</desc>
<time>2010-02-28T10:21:45.65</time>
<name>393</name>
</trkpt>
<trkpt lat="48.940407" lon="8.669525">
<ele>377.5</ele>
<speed>3.6</speed>
<course>127.3</course>
<desc>Speed 3.6 km/h Distance 0.58 km</desc>
<time>2010-02-28T10:21:46.66</time>
<name>394</name>
</trkpt>
<trkpt lat="48.940400" lon="8.669538">
<ele>378.5</ele>
<speed>4.6</speed>
<course>130.9</course>
<desc>Speed 4.6 km/h Distance 0.58 km</desc>
<time>2010-02-28T10:21:47.66</time>
<name>395</name>
</trkpt>
<trkpt lat="48.940393" lon="8.669550">
<ele>379.5</ele>
<speed>4.2</speed>
<course>106.9</course>
<desc>Speed 4.2 km/h Distance 0.58 km</desc>
<time>2010-02-28T10:21:48.65</time>
<name>396</name>
</trkpt>
<trkpt lat="48.940388" lon="8.669575">
<ele>381.0</ele>
<speed>3.6</speed>
<course>122.4</course>
<desc>Speed 3.6 km/h Distance 0.59 km</desc>
<time>2010-02-28T10:21:49.66</time>
<name>397</name>
</trkpt>
<trkpt lat="48.940380" lon="8.669595">
<ele>380.5</ele>
<speed>4.9</speed>
<course>141.9</course>
<desc>Speed 4.9 km/h Distance 0.59 km</desc>
<time>2010-02-28T10:21:50.66</time>
<name>398</name>
</trkpt>
<trkpt lat="48.940372" lon="8.669605">
<ele>381.5</ele>
<speed>3.7</speed>
<course>140.6</course>
<desc>Speed 3.7 km/h Distance 0.59 km</desc>
<time>2010-02-28T10:21:51.66</time>
<name>399</name>
</trkpt>
<trkpt lat="48.940365" lon="8.669613">
<ele>381.5</ele>
<speed>3.2</speed>
<course>130.9</course>
<desc>Speed 3.2 km/h Distance 0.59 km</desc>
<time>2010-02-28T10:21:52.66</time>
<name>400</name>
</trkpt>
<trkpt lat="48.940358" lon="8.669625">
<ele>382.0</ele>
<speed>4.0</speed>
<course>135.4</course>
<desc>Speed 4.0 km/h Distance 0.59 km</desc>
<time>2010-02-28T10:21:53.66</time>
<name>401</name>
</trkpt>
<trkpt lat="48.940348" lon="8.669640">
<ele>383.0</ele>
<speed>4.0</speed>
<course>132.9</course>
<desc>Speed 4.0 km/h Distance 0.59 km</desc>
<time>2010-02-28T10:21:54.66</time>
<name>402</name>
</trkpt>
<trkpt lat="48.940343" lon="8.669648">
<ele>383.5</ele>
<speed>2.8</speed>
<course>127.4</course>
<desc>Speed 2.8 km/h Distance 0.59 km</desc>
<time>2010-02-28T10:21:55.65</time>
<name>403</name>
</trkpt>
<trkpt lat="48.940338" lon="8.669658">
<ele>383.5</ele>
<speed>3.1</speed>
<course>119.8</course>
<desc>Speed 3.1 km/h Distance 0.59 km</desc>
<time>2010-02-28T10:21:56.65</time>
<name>404</name>
</trkpt>
<trkpt lat="48.940333" lon="8.669672">
<ele>383.0</ele>
<speed>3.7</speed>
<course>123.1</course>
<desc>Speed 3.7 km/h Distance 0.60 km</desc>
<time>2010-02-28T10:21:57.65</time>
<name>405</name>
</trkpt>
<trkpt lat="48.940323" lon="8.669695">
<ele>382.5</ele>
<speed>3.8</speed>
<course>131.3</course>
<desc>Speed 3.8 km/h Distance 0.60 km</desc>
<time>2010-02-28T10:21:58.66</time>
<name>406</name>
</trkpt>
<trkpt lat="48.940317" lon="8.669707">
<ele>382.5</ele>
<speed>3.9</speed>
<course>97.9</course>
<desc>Speed 3.9 km/h Distance 0.60 km</desc>
<time>2010-02-28T10:21:59.65</time>
<name>407</name>
</trkpt>
<trkpt lat="48.940315" lon="8.669725">
<ele>384.0</ele>
<speed>3.6</speed>
<course>108.7</course>
<desc>Speed 3.6 km/h Distance 0.60 km</desc>
<time>2010-02-28T10:22:00.65</time>
<name>408</name>
</trkpt>
<trkpt lat="48.940312" lon="8.669740">
<ele>383.5</ele>
<speed>2.6</speed>
<course>156.2</course>
<desc>Speed 2.6 km/h Distance 0.60 km</desc>
<time>2010-02-28T10:22:01.65</time>
<name>409</name>
</trkpt>
<trkpt lat="48.940307" lon="8.669743">
<ele>382.0</ele>
<speed>1.8</speed>
<course>113.5</course>
<desc>Speed 1.8 km/h Distance 0.60 km</desc>
<time>2010-02-28T10:22:02.65</time>
<name>410</name>
</trkpt>
<trkpt lat="48.940303" lon="8.669755">
<ele>382.5</ele>
<speed>3.0</speed>
<course>117.0</course>
<desc>Speed 3.0 km/h Distance 0.60 km</desc>
<time>2010-02-28T10:22:03.65</time>
<name>411</name>
</trkpt>
<trkpt lat="48.940300" lon="8.669765">
<ele>382.5</ele>
<speed>2.7</speed>
<course>106.9</course>
<desc>Speed 2.7 km/h Distance 0.60 km</desc>
<time>2010-02-28T10:22:04.65</time>
<name>412</name>
</trkpt>
<trkpt lat="48.940298" lon="8.669773">
<ele>383.0</ele>
<speed>1.7</speed>
<course>132.6</course>
<desc>Speed 1.7 km/h Distance 0.60 km</desc>
<time>2010-02-28T10:22:05.66</time>
<name>413</name>
</trkpt>
<trkpt lat="48.940293" lon="8.669782">
<ele>383.5</ele>
<speed>2.9</speed>
<course>139.1</course>
<desc>Speed 2.9 km/h Distance 0.61 km</desc>
<time>2010-02-28T10:22:06.65</time>
<name>414</name>
</trkpt>
<trkpt lat="48.940288" lon="8.669788">
<ele>382.5</ele>
<speed>2.6</speed>
<course>141.9</course>
<desc>Speed 2.6 km/h Distance 0.61 km</desc>
<time>2010-02-28T10:22:07.65</time>
<name>415</name>
</trkpt>
<trkpt lat="48.940280" lon="8.669798">
<ele>382.5</ele>
<speed>3.2</speed>
<course>90.0</course>
<desc>Speed 3.2 km/h Distance 0.61 km</desc>
<time>2010-02-28T10:22:08.65</time>
<name>416</name>
</trkpt>
<trkpt lat="48.940280" lon="8.669818">
<ele>383.5</ele>
<speed>2.8</speed>
<course>157.4</course>
<desc>Speed 2.8 km/h Distance 0.61 km</desc>
<time>2010-02-28T10:22:09.66</time>
<name>417</name>
</trkpt>
<trkpt lat="48.940267" lon="8.669827">
<ele>382.5</ele>
<speed>3.3</speed>
<course>139.1</course>
<desc>Speed 3.3 km/h Distance 0.61 km</desc>
<time>2010-02-28T10:22:10.66</time>
<name>418</name>
</trkpt>
<trkpt lat="48.940262" lon="8.669833">
<ele>381.5</ele>
<speed>2.0</speed>
<course>129.3</course>
<desc>Speed 2.0 km/h Distance 0.61 km</desc>
<time>2010-02-28T10:22:11.65</time>
<name>419</name>
</trkpt>
<trkpt lat="48.940238" lon="8.669877">
<ele>381.5</ele>
<speed>3.5</speed>
<course>106.7</course>
<desc>Speed 3.5 km/h Distance 0.62 km</desc>
<time>2010-02-28T10:22:13.65</time>
<name>420</name>
</trkpt>
<trkpt lat="48.940237" lon="8.669885">
<ele>382.5</ele>
<speed>2.3</speed>
<course>100.8</course>
<desc>Speed 2.3 km/h Distance 0.62 km</desc>
<time>2010-02-28T10:22:14.65</time>
<name>421</name>
</trkpt>
<trkpt lat="48.940233" lon="8.669912">
<ele>383.5</ele>
<speed>3.2</speed>
<course>127.2</course>
<desc>Speed 3.2 km/h Distance 0.62 km</desc>
<time>2010-02-28T10:22:15.65</time>
<name>422</name>
</trkpt>
<trkpt lat="48.940228" lon="8.669922">
<ele>383.0</ele>
<speed>2.8</speed>
<course>132.2</course>
<desc>Speed 2.8 km/h Distance 0.62 km</desc>
<time>2010-02-28T10:22:16.65</time>
<name>423</name>
</trkpt>
<trkpt lat="48.940223" lon="8.669930">
<ele>382.0</ele>
<speed>2.7</speed>
<course>152.1</course>
<desc>Speed 2.7 km/h Distance 0.62 km</desc>
<time>2010-02-28T10:22:17.64</time>
<name>424</name>
</trkpt>
<trkpt lat="48.940215" lon="8.669937">
<ele>381.0</ele>
<speed>2.8</speed>
<course>147.0</course>
<desc>Speed 2.8 km/h Distance 0.62 km</desc>
<time>2010-02-28T10:22:18.64</time>
<name>425</name>
</trkpt>
<trkpt lat="48.940205" lon="8.669947">
<ele>381.0</ele>
<speed>3.7</speed>
<course>121.4</course>
<desc>Speed 3.7 km/h Distance 0.62 km</desc>
<time>2010-02-28T10:22:19.64</time>
<name>426</name>
</trkpt>
<trkpt lat="48.940202" lon="8.669955">
<ele>381.5</ele>
<speed>2.2</speed>
<course>116.9</course>
<desc>Speed 2.2 km/h Distance 0.62 km</desc>
<time>2010-02-28T10:22:20.64</time>
<name>427</name>
</trkpt>
<trkpt lat="48.940193" lon="8.669980">
<ele>380.5</ele>
<speed>3.2</speed>
<course>81.3</course>
<desc>Speed 3.2 km/h Distance 0.62 km</desc>
<time>2010-02-28T10:22:21.64</time>
<name>428</name>
</trkpt>
<trkpt lat="48.940195" lon="8.669997">
<ele>381.0</ele>
<speed>2.3</speed>
<course>119.0</course>
<desc>Speed 2.3 km/h Distance 0.63 km</desc>
<time>2010-02-28T10:22:22.64</time>
<name>429</name>
</trkpt>
<trkpt lat="48.940175" lon="8.670052">
<ele>386.0</ele>
<speed>2.4</speed>
<course>132.9</course>
<desc>Speed 2.4 km/h Distance 0.63 km</desc>
<time>2010-02-28T10:22:24.64</time>
<name>430</name>
</trkpt>
<trkpt lat="48.940170" lon="8.670060">
<ele>386.0</ele>
<speed>2.9</speed>
<course>115.4</course>
<desc>Speed 2.9 km/h Distance 0.63 km</desc>
<time>2010-02-28T10:22:25.64</time>
<name>431</name>
</trkpt>
<trkpt lat="48.940162" lon="8.670087">
<ele>385.5</ele>
<speed>3.2</speed>
<course>122.9</course>
<desc>Speed 3.2 km/h Distance 0.63 km</desc>
<time>2010-02-28T10:22:26.64</time>
<name>432</name>
</trkpt>
<trkpt lat="48.940138" lon="8.670142">
<ele>387.0</ele>
<speed>2.7</speed>
<course>135.5</course>
<desc>Speed 2.7 km/h Distance 0.64 km</desc>
<time>2010-02-28T10:22:28.64</time>
<name>433</name>
</trkpt>
<trkpt lat="48.940128" lon="8.670157">
<ele>385.5</ele>
<speed>3.0</speed>
<course>115.1</course>
<desc>Speed 3.0 km/h Distance 0.64 km</desc>
<time>2010-02-28T10:22:29.64</time>
<name>434</name>
</trkpt>
<trkpt lat="48.940122" lon="8.670178">
<ele>386.0</ele>
<speed>3.0</speed>
<course>125.6</course>
<desc>Speed 3.0 km/h Distance 0.64 km</desc>
<time>2010-02-28T10:22:30.64</time>
<name>435</name>
</trkpt>
<trkpt lat="48.940108" lon="8.670207">
<ele>387.5</ele>
<speed>3.1</speed>
<course>135.5</course>
<desc>Speed 3.1 km/h Distance 0.64 km</desc>
<time>2010-02-28T10:22:31.64</time>
<name>436</name>
</trkpt>
<trkpt lat="48.940102" lon="8.670217">
<ele>386.0</ele>
<speed>3.0</speed>
<course>113.5</course>
<desc>Speed 3.0 km/h Distance 0.65 km</desc>
<time>2010-02-28T10:22:32.64</time>
<name>437</name>
</trkpt>
<trkpt lat="48.940098" lon="8.670228">
<ele>385.5</ele>
<speed>2.7</speed>
<course>110.8</course>
<desc>Speed 2.7 km/h Distance 0.65 km</desc>
<time>2010-02-28T10:22:33.64</time>
<name>438</name>
</trkpt>
<trkpt lat="48.940095" lon="8.670242">
<ele>385.5</ele>
<speed>2.5</speed>
<course>127.6</course>
<desc>Speed 2.5 km/h Distance 0.65 km</desc>
<time>2010-02-28T10:22:34.64</time>
<name>439</name>
</trkpt>
<trkpt lat="48.940090" lon="8.670252">
<ele>384.5</ele>
<speed>2.5</speed>
<course>153.6</course>
<desc>Speed 2.5 km/h Distance 0.65 km</desc>
<time>2010-02-28T10:22:35.64</time>
<name>440</name>
</trkpt>
<trkpt lat="48.940083" lon="8.670257">
<ele>382.5</ele>
<speed>1.3</speed>
<course>133.6</course>
<desc>Speed 1.3 km/h Distance 0.65 km</desc>
<time>2010-02-28T10:22:36.64</time>
<name>441</name>
</trkpt>
<trkpt lat="48.940075" lon="8.670270">
<ele>381.5</ele>
<speed>3.7</speed>
<course>117.0</course>
<desc>Speed 3.7 km/h Distance 0.65 km</desc>
<time>2010-02-28T10:22:37.64</time>
<name>442</name>
</trkpt>
<trkpt lat="48.940072" lon="8.670280">
<ele>380.0</ele>
<speed>2.4</speed>
<course>127.0</course>
<desc>Speed 2.4 km/h Distance 0.65 km</desc>
<time>2010-02-28T10:22:38.64</time>
<name>443</name>
</trkpt>
<trkpt lat="48.940068" lon="8.670287">
<ele>379.0</ele>
<speed>1.4</speed>
<course>149.6</course>
<desc>Speed 1.4 km/h Distance 0.65 km</desc>
<time>2010-02-28T10:22:39.64</time>
<name>444</name>
</trkpt>
<trkpt lat="48.940037" lon="8.670315">
<ele>373.0</ele>
<speed>3.6</speed>
<course>130.9</course>
<desc>Speed 3.6 km/h Distance 0.66 km</desc>
<time>2010-02-28T10:22:41.64</time>
<name>445</name>
</trkpt>
<trkpt lat="48.940030" lon="8.670327">
<ele>372.0</ele>
<speed>3.4</speed>
<course>123.1</course>
<desc>Speed 3.4 km/h Distance 0.66 km</desc>
<time>2010-02-28T10:22:42.64</time>
<name>446</name>
</trkpt>
<trkpt lat="48.940025" lon="8.670338">
<ele>372.0</ele>
<speed>3.5</speed>
<course>100.8</course>
<desc>Speed 3.5 km/h Distance 0.66 km</desc>
<time>2010-02-28T10:22:43.64</time>
<name>447</name>
</trkpt>
<trkpt lat="48.940023" lon="8.670352">
<ele>372.5</ele>
<speed>2.7</speed>
<course>127.3</course>
<desc>Speed 2.7 km/h Distance 0.66 km</desc>
<time>2010-02-28T10:22:44.64</time>
<name>448</name>
</trkpt>
<trkpt lat="48.940017" lon="8.670365">
<ele>372.0</ele>
<speed>2.6</speed>
<course>127.0</course>
<desc>Speed 2.6 km/h Distance 0.66 km</desc>
<time>2010-02-28T10:22:45.63</time>
<name>449</name>
</trkpt>
<trkpt lat="48.940013" lon="8.670372">
<ele>372.0</ele>
<speed>2.0</speed>
<course>96.2</course>
<desc>Speed 2.0 km/h Distance 0.66 km</desc>
<time>2010-02-28T10:22:46.63</time>
<name>450</name>
</trkpt>
<trkpt lat="48.940012" lon="8.670395">
<ele>373.0</ele>
<speed>3.3</speed>
<course>99.6</course>
<desc>Speed 3.3 km/h Distance 0.66 km</desc>
<time>2010-02-28T10:22:47.63</time>
<name>451</name>
</trkpt>
<trkpt lat="48.940010" lon="8.670410">
<ele>373.5</ele>
<speed>2.2</speed>
<course>137.0</course>
<desc>Speed 2.2 km/h Distance 0.66 km</desc>
<time>2010-02-28T10:22:48.63</time>
<name>452</name>
</trkpt>
<trkpt lat="48.939978" lon="8.670455">
<ele>369.5</ele>
<speed>2.5</speed>
<course>132.2</course>
<desc>Speed 2.5 km/h Distance 0.67 km</desc>
<time>2010-02-28T10:22:50.64</time>
<name>453</name>
</trkpt>
<trkpt lat="48.939973" lon="8.670463">
<ele>369.5</ele>
<speed>2.5</speed>
<course>132.2</course>
<desc>Speed 2.5 km/h Distance 0.67 km</desc>
<time>2010-02-28T10:22:51.63</time>
<name>454</name>
</trkpt>
<trkpt lat="48.939968" lon="8.670472">
<ele>368.5</ele>
<speed>2.6</speed>
<course>143.4</course>
<desc>Speed 2.6 km/h Distance 0.67 km</desc>
<time>2010-02-28T10:22:52.63</time>
<name>455</name>
</trkpt>
<trkpt lat="48.939955" lon="8.670487">
<ele>367.0</ele>
<speed>4.0</speed>
<course>127.2</course>
<desc>Speed 4.0 km/h Distance 0.67 km</desc>
<time>2010-02-28T10:22:53.63</time>
<name>456</name>
</trkpt>
<trkpt lat="48.939945" lon="8.670507">
<ele>366.5</ele>
<speed>3.6</speed>
<course>144.2</course>
<desc>Speed 3.6 km/h Distance 0.67 km</desc>
<time>2010-02-28T10:22:54.63</time>
<name>457</name>
</trkpt>
<trkpt lat="48.939928" lon="8.670525">
<ele>366.5</ele>
<speed>5.0</speed>
<course>127.2</course>
<desc>Speed 5.0 km/h Distance 0.68 km</desc>
<time>2010-02-28T10:22:55.63</time>
<name>458</name>
</trkpt>
<trkpt lat="48.939922" lon="8.670538">
<ele>367.0</ele>
<speed>3.1</speed>
<course>97.9</course>
<desc>Speed 3.1 km/h Distance 0.68 km</desc>
<time>2010-02-28T10:22:56.63</time>
<name>459</name>
</trkpt>
<trkpt lat="48.939920" lon="8.670557">
<ele>367.0</ele>
<speed>3.0</speed>
<course>134.1</course>
<desc>Speed 3.0 km/h Distance 0.68 km</desc>
<time>2010-02-28T10:22:57.63</time>
<name>460</name>
</trkpt>
<trkpt lat="48.939908" lon="8.670575">
<ele>365.0</ele>
<speed>4.6</speed>
<course>115.7</course>
<desc>Speed 4.6 km/h Distance 0.68 km</desc>
<time>2010-02-28T10:22:58.63</time>
<name>461</name>
</trkpt>
<trkpt lat="48.939898" lon="8.670607">
<ele>370.0</ele>
<speed>2.3</speed>
<course>134.3</course>
<desc>Speed 2.3 km/h Distance 0.68 km</desc>
<time>2010-02-28T10:22:59.63</time>
<name>462</name>
</trkpt>
<trkpt lat="48.939883" lon="8.670630">
<ele>370.0</ele>
<speed>3.6</speed>
<course>138.8</course>
<desc>Speed 3.6 km/h Distance 0.69 km</desc>
<time>2010-02-28T10:23:00.63</time>
<name>463</name>
</trkpt>
<trkpt lat="48.939873" lon="8.670643">
<ele>370.0</ele>
<speed>4.6</speed>
<course>133.1</course>
<desc>Speed 4.6 km/h Distance 0.69 km</desc>
<time>2010-02-28T10:23:01.63</time>
<name>464</name>
</trkpt>
<trkpt lat="48.939847" lon="8.670687">
<ele>369.5</ele>
<speed>3.0</speed>
<course>124.1</course>
<desc>Speed 3.0 km/h Distance 0.69 km</desc>
<time>2010-02-28T10:23:03.63</time>
<name>465</name>
</trkpt>
<trkpt lat="48.939840" lon="8.670702">
<ele>371.0</ele>
<speed>2.8</speed>
<course>140.6</course>
<desc>Speed 2.8 km/h Distance 0.69 km</desc>
<time>2010-02-28T10:23:04.63</time>
<name>466</name>
</trkpt>
<trkpt lat="48.939833" lon="8.670710">
<ele>370.5</ele>
<speed>3.4</speed>
<course>127.0</course>
<desc>Speed 3.4 km/h Distance 0.69 km</desc>
<time>2010-02-28T10:23:05.63</time>
<name>467</name>
</trkpt>
<trkpt lat="48.939827" lon="8.670723">
<ele>370.0</ele>
<speed>2.9</speed>
<course>99.6</course>
<desc>Speed 2.9 km/h Distance 0.69 km</desc>
<time>2010-02-28T10:23:06.63</time>
<name>468</name>
</trkpt>
<trkpt lat="48.939825" lon="8.670738">
<ele>370.0</ele>
<speed>2.1</speed>
<course>135.5</course>
<desc>Speed 2.1 km/h Distance 0.70 km</desc>
<time>2010-02-28T10:23:07.63</time>
<name>469</name>
</trkpt>
<trkpt lat="48.939818" lon="8.670748">
<ele>370.0</ele>
<speed>3.4</speed>
<course>112.1</course>
<desc>Speed 3.4 km/h Distance 0.70 km</desc>
<time>2010-02-28T10:23:08.63</time>
<name>470</name>
</trkpt>
<trkpt lat="48.939812" lon="8.670773">
<ele>369.0</ele>
<speed>2.8</speed>
<course>127.3</course>
<desc>Speed 2.8 km/h Distance 0.70 km</desc>
<time>2010-02-28T10:23:09.62</time>
<name>471</name>
</trkpt>
<trkpt lat="48.939805" lon="8.670787">
<ele>368.5</ele>
<speed>4.0</speed>
<course>130.9</course>
<desc>Speed 4.0 km/h Distance 0.70 km</desc>
<time>2010-02-28T10:23:10.63</time>
<name>472</name>
</trkpt>
<trkpt lat="48.939798" lon="8.670798">
<ele>368.0</ele>
<speed>2.8</speed>
<course>106.7</course>
<desc>Speed 2.8 km/h Distance 0.70 km</desc>
<time>2010-02-28T10:23:11.62</time>
<name>473</name>
</trkpt>
<trkpt lat="48.939797" lon="8.670807">
<ele>367.5</ele>
<speed>2.0</speed>
<course>123.1</course>
<desc>Speed 2.0 km/h Distance 0.70 km</desc>
<time>2010-02-28T10:23:12.62</time>
<name>474</name>
</trkpt>
<trkpt lat="48.939792" lon="8.670818">
<ele>366.5</ele>
<speed>3.2</speed>
<course>133.6</course>
<desc>Speed 3.2 km/h Distance 0.70 km</desc>
<time>2010-02-28T10:23:13.62</time>
<name>475</name>
</trkpt>
<trkpt lat="48.939783" lon="8.670832">
<ele>366.0</ele>
<speed>3.6</speed>
<course>127.3</course>
<desc>Speed 3.6 km/h Distance 0.70 km</desc>
<time>2010-02-28T10:23:14.62</time>
<name>476</name>
</trkpt>
<trkpt lat="48.939777" lon="8.670845">
<ele>366.0</ele>
<speed>3.1</speed>
<course>120.3</course>
<desc>Speed 3.1 km/h Distance 0.71 km</desc>
<time>2010-02-28T10:23:15.62</time>
<name>477</name>
</trkpt>
<trkpt lat="48.939768" lon="8.670867">
<ele>365.5</ele>
<speed>4.4</speed>
<course>122.4</course>
<desc>Speed 4.4 km/h Distance 0.71 km</desc>
<time>2010-02-28T10:23:16.62</time>
<name>478</name>
</trkpt>
<trkpt lat="48.939760" lon="8.670887">
<ele>365.5</ele>
<speed>3.1</speed>
<course>149.7</course>
<desc>Speed 3.1 km/h Distance 0.71 km</desc>
<time>2010-02-28T10:23:17.62</time>
<name>479</name>
</trkpt>
<trkpt lat="48.939745" lon="8.670900">
<ele>366.5</ele>
<speed>3.1</speed>
<course>125.9</course>
<desc>Speed 3.1 km/h Distance 0.71 km</desc>
<time>2010-02-28T10:23:18.62</time>
<name>480</name>
</trkpt>
<trkpt lat="48.939712" lon="8.670970">
<ele>367.5</ele>
<speed>4.0</speed>
<course>116.9</course>
<desc>Speed 4.0 km/h Distance 0.72 km</desc>
<time>2010-02-28T10:23:20.62</time>
<name>481</name>
</trkpt>
<trkpt lat="48.939707" lon="8.670985">
<ele>368.5</ele>
<speed>3.9</speed>
<course>119.7</course>
<desc>Speed 3.9 km/h Distance 0.72 km</desc>
<time>2010-02-28T10:23:21.62</time>
<name>482</name>
</trkpt>
<trkpt lat="48.939702" lon="8.670998">
<ele>368.0</ele>
<speed>3.6</speed>
<course>129.1</course>
<desc>Speed 3.6 km/h Distance 0.72 km</desc>
<time>2010-02-28T10:23:22.62</time>
<name>483</name>
</trkpt>
<trkpt lat="48.939688" lon="8.671023">
<ele>368.5</ele>
<speed>4.3</speed>
<course>116.9</course>
<desc>Speed 4.3 km/h Distance 0.72 km</desc>
<time>2010-02-28T10:23:23.62</time>
<name>484</name>
</trkpt>
<trkpt lat="48.939683" lon="8.671038">
<ele>369.0</ele>
<speed>3.6</speed>
<course>130.1</course>
<desc>Speed 3.6 km/h Distance 0.72 km</desc>
<time>2010-02-28T10:23:24.62</time>
<name>485</name>
</trkpt>
<trkpt lat="48.939675" lon="8.671053">
<ele>370.0</ele>
<speed>2.8</speed>
<course>131.6</course>
<desc>Speed 2.8 km/h Distance 0.72 km</desc>
<time>2010-02-28T10:23:25.62</time>
<name>486</name>
</trkpt>
<trkpt lat="48.939663" lon="8.671073">
<ele>369.5</ele>
<speed>4.6</speed>
<course>106.9</course>
<desc>Speed 4.6 km/h Distance 0.73 km</desc>
<time>2010-02-28T10:23:26.62</time>
<name>487</name>
</trkpt>
<trkpt lat="48.939658" lon="8.671098">
<ele>370.5</ele>
<speed>4.6</speed>
<course>127.3</course>
<desc>Speed 4.6 km/h Distance 0.73 km</desc>
<time>2010-02-28T10:23:27.62</time>
<name>488</name>
</trkpt>
<trkpt lat="48.939652" lon="8.671112">
<ele>370.5</ele>
<speed>3.6</speed>
<course>133.6</course>
<desc>Speed 3.6 km/h Distance 0.73 km</desc>
<time>2010-02-28T10:23:28.62</time>
<name>489</name>
</trkpt>
<trkpt lat="48.939643" lon="8.671125">
<ele>369.5</ele>
<speed>4.4</speed>
<course>108.6</course>
<desc>Speed 4.4 km/h Distance 0.73 km</desc>
<time>2010-02-28T10:23:29.62</time>
<name>490</name>
</trkpt>
<trkpt lat="48.939640" lon="8.671140">
<ele>369.0</ele>
<speed>2.7</speed>
<course>135.5</course>
<desc>Speed 2.7 km/h Distance 0.73 km</desc>
<time>2010-02-28T10:23:30.62</time>
<name>491</name>
</trkpt>
<trkpt lat="48.939633" lon="8.671150">
<ele>368.5</ele>
<speed>3.2</speed>
<course>127.3</course>
<desc>Speed 3.2 km/h Distance 0.73 km</desc>
<time>2010-02-28T10:23:31.62</time>
<name>492</name>
</trkpt>
<trkpt lat="48.939627" lon="8.671163">
<ele>368.0</ele>
<speed>4.0</speed>
<course>134.6</course>
<desc>Speed 4.0 km/h Distance 0.73 km</desc>
<time>2010-02-28T10:23:32.62</time>
<name>493</name>
</trkpt>
<trkpt lat="48.939608" lon="8.671192">
<ele>368.0</ele>
<speed>3.5</speed>
<course>153.6</course>
<desc>Speed 3.5 km/h Distance 0.74 km</desc>
<time>2010-02-28T10:23:33.62</time>
<name>494</name>
</trkpt>
<trkpt lat="48.939602" lon="8.671197">
<ele>367.5</ele>
<speed>2.6</speed>
<course>132.4</course>
<desc>Speed 2.6 km/h Distance 0.74 km</desc>
<time>2010-02-28T10:23:34.62</time>
<name>495</name>
</trkpt>
<trkpt lat="48.939592" lon="8.671213">
<ele>367.0</ele>
<speed>4.2</speed>
<course>108.7</course>
<desc>Speed 4.2 km/h Distance 0.74 km</desc>
<time>2010-02-28T10:23:35.62</time>
<name>496</name>
</trkpt>
<trkpt lat="48.939588" lon="8.671228">
<ele>366.5</ele>
<speed>1.9</speed>
<course>135.9</course>
<desc>Speed 1.9 km/h Distance 0.74 km</desc>
<time>2010-02-28T10:23:36.61</time>
<name>497</name>
</trkpt>
<trkpt lat="48.939553" lon="8.671280">
<ele>363.5</ele>
<speed>2.2</speed>
<course>152.8</course>
<desc>Speed 2.2 km/h Distance 0.75 km</desc>
<time>2010-02-28T10:23:38.61</time>
<name>498</name>
</trkpt>
<trkpt lat="48.939538" lon="8.671292">
<ele>363.0</ele>
<speed>3.1</speed>
<course>124.0</course>
<desc>Speed 3.1 km/h Distance 0.75 km</desc>
<time>2010-02-28T10:23:39.61</time>
<name>499</name>
</trkpt>
<trkpt lat="48.939532" lon="8.671307">
<ele>363.0</ele>
<speed>4.2</speed>
<course>127.3</course>
<desc>Speed 4.2 km/h Distance 0.75 km</desc>
<time>2010-02-28T10:23:40.62</time>
<name>500</name>
</trkpt>
<trkpt lat="48.939522" lon="8.671327">
<ele>362.5</ele>
<speed>4.8</speed>
<course>232.4</course>
<desc>Speed 4.8 km/h Distance 0.75 km</desc>
<time>2010-02-28T10:23:41.62</time>
<name>501</name>
</trkpt>
<trkpt lat="48.939518" lon="8.671320">
<ele>363.0</ele>
<speed>1.8</speed>
<course>127.4</course>
<desc>Speed 1.8 km/h Distance 0.75 km</desc>
<time>2010-02-28T10:23:42.61</time>
<name>502</name>
</trkpt>
<trkpt lat="48.939513" lon="8.671330">
<ele>363.5</ele>
<speed>2.2</speed>
<course>143.0</course>
<desc>Speed 2.2 km/h Distance 0.75 km</desc>
<time>2010-02-28T10:23:43.61</time>
<name>503</name>
</trkpt>
<trkpt lat="48.939502" lon="8.671343">
<ele>365.0</ele>
<speed>4.4</speed>
<course>122.6</course>
<desc>Speed 4.4 km/h Distance 0.75 km</desc>
<time>2010-02-28T10:23:44.61</time>
<name>504</name>
</trkpt>
<trkpt lat="48.939488" lon="8.671375">
<ele>364.0</ele>
<speed>3.0</speed>
<course>124.7</course>
<desc>Speed 3.0 km/h Distance 0.76 km</desc>
<time>2010-02-28T10:23:45.61</time>
<name>505</name>
</trkpt>
<trkpt lat="48.939463" lon="8.671430">
<ele>364.5</ele>
<speed>3.0</speed>
<course>62.6</course>
<desc>Speed 3.0 km/h Distance 0.76 km</desc>
<time>2010-02-28T10:23:47.61</time>
<name>506</name>
</trkpt>
<trkpt lat="48.939465" lon="8.671435">
<ele>364.5</ele>
<speed>0.9</speed>
<course>116.9</course>
<desc>Speed 0.9 km/h Distance 0.76 km</desc>
<time>2010-02-28T10:23:48.60</time>
<name>507</name>
</trkpt>
<trkpt lat="48.939460" lon="8.671450">
<ele>365.5</ele>
<speed>3.2</speed>
<course>75.6</course>
<desc>Speed 3.2 km/h Distance 0.76 km</desc>
<time>2010-02-28T10:23:49.61</time>
<name>508</name>
</trkpt>
<trkpt lat="48.939462" lon="8.671460">
<ele>367.0</ele>
<speed>1.7</speed>
<course>110.7</course>
<desc>Speed 1.7 km/h Distance 0.76 km</desc>
<time>2010-02-28T10:23:50.60</time>
<name>509</name>
</trkpt>
<trkpt lat="48.939458" lon="8.671473">
<ele>368.0</ele>
<speed>3.3</speed>
<course>130.9</course>
<desc>Speed 3.3 km/h Distance 0.77 km</desc>
<time>2010-02-28T10:23:51.61</time>
<name>510</name>
</trkpt>
<trkpt lat="48.939452" lon="8.671485">
<ele>369.0</ele>
<speed>3.5</speed>
<course>123.1</course>
<desc>Speed 3.5 km/h Distance 0.77 km</desc>
<time>2010-02-28T10:23:52.60</time>
<name>511</name>
</trkpt>
<trkpt lat="48.939442" lon="8.671508">
<ele>369.5</ele>
<speed>2.8</speed>
<course>119.3</course>
<desc>Speed 2.8 km/h Distance 0.77 km</desc>
<time>2010-02-28T10:23:53.61</time>
<name>512</name>
</trkpt>
<trkpt lat="48.939430" lon="8.671540">
<ele>370.0</ele>
<speed>3.4</speed>
<course>146.5</course>
<desc>Speed 3.4 km/h Distance 0.77 km</desc>
<time>2010-02-28T10:23:54.61</time>
<name>513</name>
</trkpt>
<trkpt lat="48.939422" lon="8.671548">
<ele>371.5</ele>
<speed>2.2</speed>
<course>142.5</course>
<desc>Speed 2.2 km/h Distance 0.77 km</desc>
<time>2010-02-28T10:23:55.61</time>
<name>514</name>
</trkpt>
<trkpt lat="48.939412" lon="8.671560">
<ele>373.5</ele>
<speed>2.6</speed>
<course>142.5</course>
<desc>Speed 2.6 km/h Distance 0.77 km</desc>
<time>2010-02-28T10:23:56.61</time>
<name>515</name>
</trkpt>
<trkpt lat="48.939402" lon="8.671572">
<ele>374.5</ele>
<speed>4.2</speed>
<course>127.2</course>
<desc>Speed 4.2 km/h Distance 0.78 km</desc>
<time>2010-02-28T10:23:57.61</time>
<name>516</name>
</trkpt>
<trkpt lat="48.939397" lon="8.671582">
<ele>376.0</ele>
<speed>2.5</speed>
<course>146.8</course>
<desc>Speed 2.5 km/h Distance 0.78 km</desc>
<time>2010-02-28T10:23:58.60</time>
<name>517</name>
</trkpt>
<trkpt lat="48.939388" lon="8.671590">
<ele>377.5</ele>
<speed>2.6</speed>
<course>119.0</course>
<desc>Speed 2.6 km/h Distance 0.78 km</desc>
<time>2010-02-28T10:23:59.61</time>
<name>518</name>
</trkpt>
<trkpt lat="48.939382" lon="8.671608">
<ele>378.0</ele>
<speed>4.6</speed>
<course>114.5</course>
<desc>Speed 4.6 km/h Distance 0.78 km</desc>
<time>2010-02-28T10:24:00.60</time>
<name>519</name>
</trkpt>
<trkpt lat="48.939377" lon="8.671625">
<ele>378.5</ele>
<speed>3.1</speed>
<course>132.4</course>
<desc>Speed 3.1 km/h Distance 0.78 km</desc>
<time>2010-02-28T10:24:01.61</time>
<name>520</name>
</trkpt>
<trkpt lat="48.939367" lon="8.671642">
<ele>378.5</ele>
<speed>2.6</speed>
<course>136.5</course>
<desc>Speed 2.6 km/h Distance 0.78 km</desc>
<time>2010-02-28T10:24:02.60</time>
<name>521</name>
</trkpt>
<trkpt lat="48.939352" lon="8.671663">
<ele>378.0</ele>
<speed>2.4</speed>
<course>137.4</course>
<desc>Speed 2.4 km/h Distance 0.78 km</desc>
<time>2010-02-28T10:24:03.60</time>
<name>522</name>
</trkpt>
<trkpt lat="48.939327" lon="8.671698">
<ele>376.0</ele>
<speed>2.5</speed>
<course>136.2</course>
<desc>Speed 2.5 km/h Distance 0.79 km</desc>
<time>2010-02-28T10:24:05.60</time>
<name>523</name>
</trkpt>
<trkpt lat="48.939287" lon="8.671757">
<ele>373.0</ele>
<speed>3.5</speed>
<course>143.1</course>
<desc>Speed 3.5 km/h Distance 0.79 km</desc>
<time>2010-02-28T10:24:07.60</time>
<name>524</name>
</trkpt>
<trkpt lat="48.939275" lon="8.671770">
<ele>374.0</ele>
<speed>3.8</speed>
<course>127.2</course>
<desc>Speed 3.8 km/h Distance 0.80 km</desc>
<time>2010-02-28T10:24:08.60</time>
<name>525</name>
</trkpt>
<trkpt lat="48.939270" lon="8.671780">
<ele>373.5</ele>
<speed>2.1</speed>
<course>145.5</course>
<desc>Speed 2.1 km/h Distance 0.80 km</desc>
<time>2010-02-28T10:24:09.60</time>
<name>526</name>
</trkpt>
<trkpt lat="48.939233" lon="8.671818">
<ele>368.0</ele>
<speed>4.1</speed>
<course>139.5</course>
<desc>Speed 4.1 km/h Distance 0.80 km</desc>
<time>2010-02-28T10:24:11.60</time>
<name>527</name>
</trkpt>
<trkpt lat="48.939183" lon="8.671883">
<ele>363.5</ele>
<speed>2.8</speed>
<course>140.6</course>
<desc>Speed 2.8 km/h Distance 0.81 km</desc>
<time>2010-02-28T10:24:13.60</time>
<name>528</name>
</trkpt>
<trkpt lat="48.939177" lon="8.671892">
<ele>363.5</ele>
<speed>3.0</speed>
<course>146.3</course>
<desc>Speed 3.0 km/h Distance 0.81 km</desc>
<time>2010-02-28T10:24:14.60</time>
<name>529</name>
</trkpt>
<trkpt lat="48.939170" lon="8.671898">
<ele>363.5</ele>
<speed>2.6</speed>
<course>151.1</course>
<desc>Speed 2.6 km/h Distance 0.81 km</desc>
<time>2010-02-28T10:24:15.60</time>
<name>530</name>
</trkpt>
<trkpt lat="48.939160" lon="8.671907">
<ele>364.0</ele>
<speed>3.1</speed>
<course>122.4</course>
<desc>Speed 3.1 km/h Distance 0.81 km</desc>
<time>2010-02-28T10:24:16.60</time>
<name>531</name>
</trkpt>
<trkpt lat="48.939152" lon="8.671927">
<ele>364.5</ele>
<speed>4.0</speed>
<course>151.4</course>
<desc>Speed 4.0 km/h Distance 0.81 km</desc>
<time>2010-02-28T10:24:17.60</time>
<name>532</name>
</trkpt>
<trkpt lat="48.939142" lon="8.671935">
<ele>365.0</ele>
<speed>2.5</speed>
<course>122.4</course>
<desc>Speed 2.5 km/h Distance 0.82 km</desc>
<time>2010-02-28T10:24:18.60</time>
<name>533</name>
</trkpt>
<trkpt lat="48.939133" lon="8.671955">
<ele>365.5</ele>
<speed>4.2</speed>
<course>146.3</course>
<desc>Speed 4.2 km/h Distance 0.82 km</desc>
<time>2010-02-28T10:24:19.60</time>
<name>534</name>
</trkpt>
<trkpt lat="48.939127" lon="8.671962">
<ele>365.5</ele>
<speed>2.7</speed>
<course>127.3</course>
<desc>Speed 2.7 km/h Distance 0.82 km</desc>
<time>2010-02-28T10:24:20.60</time>
<name>535</name>
</trkpt>
<trkpt lat="48.939118" lon="8.671978">
<ele>366.5</ele>
<speed>3.2</speed>
<course>141.9</course>
<desc>Speed 3.2 km/h Distance 0.82 km</desc>
<time>2010-02-28T10:24:21.60</time>
<name>536</name>
</trkpt>
<trkpt lat="48.939110" lon="8.671988">
<ele>367.0</ele>
<speed>3.9</speed>
<course>116.9</course>
<desc>Speed 3.9 km/h Distance 0.82 km</desc>
<time>2010-02-28T10:24:22.60</time>
<name>537</name>
</trkpt>
<trkpt lat="48.939105" lon="8.672003">
<ele>368.0</ele>
<speed>3.4</speed>
<course>119.7</course>
<desc>Speed 3.4 km/h Distance 0.82 km</desc>
<time>2010-02-28T10:24:23.59</time>
<name>538</name>
</trkpt>
<trkpt lat="48.939100" lon="8.672017">
<ele>368.5</ele>
<speed>2.3</speed>
<course>108.7</course>
<desc>Speed 2.3 km/h Distance 0.82 km</desc>
<time>2010-02-28T10:24:24.60</time>
<name>539</name>
</trkpt>
<trkpt lat="48.939097" lon="8.672032">
<ele>368.5</ele>
<speed>1.9</speed>
<course>105.5</course>
<desc>Speed 1.9 km/h Distance 0.82 km</desc>
<time>2010-02-28T10:24:25.59</time>
<name>540</name>
</trkpt>
<trkpt lat="48.939093" lon="8.672050">
<ele>369.5</ele>
<speed>2.1</speed>
<course>137.4</course>
<desc>Speed 2.1 km/h Distance 0.83 km</desc>
<time>2010-02-28T10:24:26.59</time>
<name>541</name>
</trkpt>
<trkpt lat="48.939077" lon="8.672073">
<ele>369.0</ele>
<speed>3.9</speed>
<course>127.3</course>
<desc>Speed 3.9 km/h Distance 0.83 km</desc>
<time>2010-02-28T10:24:27.58</time>
<name>542</name>
</trkpt>
<trkpt lat="48.939062" lon="8.672103">
<ele>370.5</ele>
<speed>4.0</speed>
<course>135.5</course>
<desc>Speed 4.0 km/h Distance 0.83 km</desc>
<time>2010-02-28T10:24:28.59</time>
<name>543</name>
</trkpt>
<trkpt lat="48.939055" lon="8.672113">
<ele>370.5</ele>
<speed>3.2</speed>
<course>143.1</course>
<desc>Speed 3.2 km/h Distance 0.83 km</desc>
<time>2010-02-28T10:24:29.58</time>
<name>544</name>
</trkpt>
<trkpt lat="48.939043" lon="8.672127">
<ele>371.0</ele>
<speed>4.7</speed>
<course>142.5</course>
<desc>Speed 4.7 km/h Distance 0.83 km</desc>
<time>2010-02-28T10:24:30.58</time>
<name>545</name>
</trkpt>
<trkpt lat="48.939033" lon="8.672138">
<ele>371.5</ele>
<speed>3.6</speed>
<course>120.3</course>
<desc>Speed 3.6 km/h Distance 0.83 km</desc>
<time>2010-02-28T10:24:31.58</time>
<name>546</name>
</trkpt>
<trkpt lat="48.939025" lon="8.672160">
<ele>372.5</ele>
<speed>3.2</speed>
<course>119.7</course>
<desc>Speed 3.2 km/h Distance 0.84 km</desc>
<time>2010-02-28T10:24:32.58</time>
<name>547</name>
</trkpt>
<trkpt lat="48.939015" lon="8.672187">
<ele>373.0</ele>
<speed>4.2</speed>
<course>146.3</course>
<desc>Speed 4.2 km/h Distance 0.84 km</desc>
<time>2010-02-28T10:24:33.58</time>
<name>548</name>
</trkpt>
<trkpt lat="48.939008" lon="8.672193">
<ele>373.0</ele>
<speed>2.3</speed>
<course>134.0</course>
<desc>Speed 2.3 km/h Distance 0.84 km</desc>
<time>2010-02-28T10:24:34.58</time>
<name>549</name>
</trkpt>
<trkpt lat="48.938997" lon="8.672212">
<ele>373.5</ele>
<speed>3.9</speed>
<course>136.7</course>
<desc>Speed 3.9 km/h Distance 0.84 km</desc>
<time>2010-02-28T10:24:35.58</time>
<name>550</name>
</trkpt>
<trkpt lat="48.938985" lon="8.672228">
<ele>373.0</ele>
<speed>2.6</speed>
<course>146.8</course>
<desc>Speed 2.6 km/h Distance 0.84 km</desc>
<time>2010-02-28T10:24:36.58</time>
<name>551</name>
</trkpt>
<trkpt lat="48.938977" lon="8.672237">
<ele>373.0</ele>
<speed>2.8</speed>
<course>132.4</course>
<desc>Speed 2.8 km/h Distance 0.84 km</desc>
<time>2010-02-28T10:24:37.59</time>
<name>552</name>
</trkpt>
<trkpt lat="48.938967" lon="8.672253">
<ele>373.5</ele>
<speed>4.6</speed>
<course>136.9</course>
<desc>Speed 4.6 km/h Distance 0.85 km</desc>
<time>2010-02-28T10:24:38.59</time>
<name>553</name>
</trkpt>
<trkpt lat="48.938955" lon="8.672270">
<ele>374.5</ele>
<speed>4.5</speed>
<course>116.9</course>
<desc>Speed 4.5 km/h Distance 0.85 km</desc>
<time>2010-02-28T10:24:39.59</time>
<name>554</name>
</trkpt>
<trkpt lat="48.938950" lon="8.672285">
<ele>374.5</ele>
<speed>4.5</speed>
<course>124.7</course>
<desc>Speed 4.5 km/h Distance 0.85 km</desc>
<time>2010-02-28T10:24:40.59</time>
<name>555</name>
</trkpt>
<trkpt lat="48.938942" lon="8.672303">
<ele>375.5</ele>
<speed>5.3</speed>
<course>116.9</course>
<desc>Speed 5.3 km/h Distance 0.85 km</desc>
<time>2010-02-28T10:24:41.59</time>
<name>556</name>
</trkpt>
<trkpt lat="48.938937" lon="8.672318">
<ele>376.5</ele>
<speed>3.8</speed>
<course>123.3</course>
<desc>Speed 3.8 km/h Distance 0.85 km</desc>
<time>2010-02-28T10:24:42.59</time>
<name>557</name>
</trkpt>
<trkpt lat="48.938932" lon="8.672330">
<ele>377.5</ele>
<speed>2.9</speed>
<course>124.0</course>
<desc>Speed 2.9 km/h Distance 0.85 km</desc>
<time>2010-02-28T10:24:43.59</time>
<name>558</name>
</trkpt>
<trkpt lat="48.938918" lon="8.672360">
<ele>378.0</ele>
<speed>4.2</speed>
<course>137.4</course>
<desc>Speed 4.2 km/h Distance 0.86 km</desc>
<time>2010-02-28T10:24:44.59</time>
<name>559</name>
</trkpt>
<trkpt lat="48.938910" lon="8.672372">
<ele>378.0</ele>
<speed>4.2</speed>
<course>137.4</course>
<desc>Speed 4.2 km/h Distance 0.86 km</desc>
<time>2010-02-28T10:24:45.59</time>
<name>560</name>
</trkpt>
<trkpt lat="48.938902" lon="8.672383">
<ele>378.0</ele>
<speed>3.7</speed>
<course>116.9</course>
<desc>Speed 3.7 km/h Distance 0.86 km</desc>
<time>2010-02-28T10:24:46.59</time>
<name>561</name>
</trkpt>
<trkpt lat="48.938897" lon="8.672398">
<ele>379.5</ele>
<speed>3.7</speed>
<course>124.6</course>
<desc>Speed 3.7 km/h Distance 0.86 km</desc>
<time>2010-02-28T10:24:47.59</time>
<name>562</name>
</trkpt>
<trkpt lat="48.938888" lon="8.672417">
<ele>380.0</ele>
<speed>4.8</speed>
<course>127.0</course>
<desc>Speed 4.8 km/h Distance 0.86 km</desc>
<time>2010-02-28T10:24:48.58</time>
<name>563</name>
</trkpt>
<trkpt lat="48.938882" lon="8.672430">
<ele>380.5</ele>
<speed>4.3</speed>
<course>135.4</course>
<desc>Speed 4.3 km/h Distance 0.86 km</desc>
<time>2010-02-28T10:24:49.58</time>
<name>564</name>
</trkpt>
<trkpt lat="48.938872" lon="8.672445">
<ele>381.0</ele>
<speed>4.6</speed>
<course>130.9</course>
<desc>Speed 4.6 km/h Distance 0.86 km</desc>
<time>2010-02-28T10:24:50.58</time>
<name>565</name>
</trkpt>
<trkpt lat="48.938865" lon="8.672457">
<ele>381.0</ele>
<speed>3.7</speed>
<course>121.0</course>
<desc>Speed 3.7 km/h Distance 0.87 km</desc>
<time>2010-02-28T10:24:51.59</time>
<name>566</name>
</trkpt>
<trkpt lat="48.938840" lon="8.672520">
<ele>386.0</ele>
<speed>4.3</speed>
<course>137.4</course>
<desc>Speed 4.3 km/h Distance 0.87 km</desc>
<time>2010-02-28T10:24:53.58</time>
<name>567</name>
</trkpt>
<trkpt lat="48.938832" lon="8.672532">
<ele>386.5</ele>
<speed>4.0</speed>
<course>137.4</course>
<desc>Speed 4.0 km/h Distance 0.87 km</desc>
<time>2010-02-28T10:24:54.58</time>
<name>568</name>
</trkpt>
<trkpt lat="48.938823" lon="8.672543">
<ele>386.5</ele>
<speed>4.3</speed>
<course>146.6</course>
<desc>Speed 4.3 km/h Distance 0.87 km</desc>
<time>2010-02-28T10:24:55.58</time>
<name>569</name>
</trkpt>
<trkpt lat="48.938812" lon="8.672555">
<ele>386.5</ele>
<speed>4.2</speed>
<course>154.8</course>
<desc>Speed 4.2 km/h Distance 0.87 km</desc>
<time>2010-02-28T10:24:56.58</time>
<name>570</name>
</trkpt>
<trkpt lat="48.938800" lon="8.672563">
<ele>386.0</ele>
<speed>3.6</speed>
<course>146.6</course>
<desc>Speed 3.6 km/h Distance 0.88 km</desc>
<time>2010-02-28T10:24:57.58</time>
<name>571</name>
</trkpt>
<trkpt lat="48.938788" lon="8.672575">
<ele>386.0</ele>
<speed>4.0</speed>
<course>153.6</course>
<desc>Speed 4.0 km/h Distance 0.88 km</desc>
<time>2010-02-28T10:24:58.58</time>
<name>572</name>
</trkpt>
<trkpt lat="48.938775" lon="8.672585">
<ele>385.5</ele>
<speed>3.7</speed>
<course>153.0</course>
<desc>Speed 3.7 km/h Distance 0.88 km</desc>
<time>2010-02-28T10:24:59.58</time>
<name>573</name>
</trkpt>
<trkpt lat="48.938760" lon="8.672597">
<ele>385.0</ele>
<speed>4.1</speed>
<course>165.4</course>
<desc>Speed 4.1 km/h Distance 0.88 km</desc>
<time>2010-02-28T10:25:00.58</time>
<name>574</name>
</trkpt>
<trkpt lat="48.938743" lon="8.672603">
<ele>384.0</ele>
<speed>3.6</speed>
<course>157.4</course>
<desc>Speed 3.6 km/h Distance 0.88 km</desc>
<time>2010-02-28T10:25:01.58</time>
<name>575</name>
</trkpt>
<trkpt lat="48.938725" lon="8.672615">
<ele>383.5</ele>
<speed>4.9</speed>
<course>152.8</course>
<desc>Speed 4.9 km/h Distance 0.89 km</desc>
<time>2010-02-28T10:25:02.58</time>
<name>576</name>
</trkpt>
<trkpt lat="48.938710" lon="8.672627">
<ele>382.5</ele>
<speed>5.0</speed>
<course>149.7</course>
<desc>Speed 5.0 km/h Distance 0.89 km</desc>
<time>2010-02-28T10:25:03.58</time>
<name>577</name>
</trkpt>
<trkpt lat="48.938695" lon="8.672640">
<ele>381.5</ele>
<speed>5.2</speed>
<course>150.6</course>
<desc>Speed 5.2 km/h Distance 0.89 km</desc>
<time>2010-02-28T10:25:04.58</time>
<name>578</name>
</trkpt>
<trkpt lat="48.938683" lon="8.672650">
<ele>380.5</ele>
<speed>4.8</speed>
<course>153.6</course>
<desc>Speed 4.8 km/h Distance 0.89 km</desc>
<time>2010-02-28T10:25:05.58</time>
<name>579</name>
</trkpt>
<trkpt lat="48.938670" lon="8.672660">
<ele>380.0</ele>
<speed>5.2</speed>
<course>146.6</course>
<desc>Speed 5.2 km/h Distance 0.89 km</desc>
<time>2010-02-28T10:25:06.58</time>
<name>580</name>
</trkpt>
<trkpt lat="48.938658" lon="8.672672">
<ele>380.0</ele>
<speed>5.0</speed>
<course>141.9</course>
<desc>Speed 5.0 km/h Distance 0.89 km</desc>
<time>2010-02-28T10:25:07.58</time>
<name>581</name>
</trkpt>
<trkpt lat="48.938650" lon="8.672682">
<ele>379.0</ele>
<speed>3.9</speed>
<course>154.0</course>
<desc>Speed 3.9 km/h Distance 0.90 km</desc>
<time>2010-02-28T10:25:08.58</time>
<name>582</name>
</trkpt>
<trkpt lat="48.938637" lon="8.672692">
<ele>379.0</ele>
<speed>5.0</speed>
<course>133.1</course>
<desc>Speed 5.0 km/h Distance 0.90 km</desc>
<time>2010-02-28T10:25:09.58</time>
<name>583</name>
</trkpt>
<trkpt lat="48.938623" lon="8.672713">
<ele>379.5</ele>
<speed>5.3</speed>
<course>132.4</course>
<desc>Speed 5.3 km/h Distance 0.90 km</desc>
<time>2010-02-28T10:25:10.59</time>
<name>584</name>
</trkpt>
<trkpt lat="48.938608" lon="8.672738">
<ele>380.0</ele>
<speed>5.4</speed>
<course>128.7</course>
<desc>Speed 5.4 km/h Distance 0.90 km</desc>
<time>2010-02-28T10:25:11.58</time>
<name>585</name>
</trkpt>
<trkpt lat="48.938592" lon="8.672770">
<ele>381.0</ele>
<speed>5.4</speed>
<course>127.3</course>
<desc>Speed 5.4 km/h Distance 0.90 km</desc>
<time>2010-02-28T10:25:12.58</time>
<name>586</name>
</trkpt>
<trkpt lat="48.938578" lon="8.672797">
<ele>381.0</ele>
<speed>5.1</speed>
<course>122.1</course>
<desc>Speed 5.1 km/h Distance 0.91 km</desc>
<time>2010-02-28T10:25:13.57</time>
<name>587</name>
</trkpt>
<trkpt lat="48.938567" lon="8.672825">
<ele>382.0</ele>
<speed>4.4</speed>
<course>139.5</course>
<desc>Speed 4.4 km/h Distance 0.91 km</desc>
<time>2010-02-28T10:25:14.57</time>
<name>588</name>
</trkpt>
<trkpt lat="48.938550" lon="8.672847">
<ele>381.5</ele>
<speed>5.3</speed>
<course>153.0</course>
<desc>Speed 5.3 km/h Distance 0.91 km</desc>
<time>2010-02-28T10:25:15.57</time>
<name>589</name>
</trkpt>
<trkpt lat="48.938535" lon="8.672858">
<ele>380.5</ele>
<speed>4.7</speed>
<course>159.9</course>
<desc>Speed 4.7 km/h Distance 0.91 km</desc>
<time>2010-02-28T10:25:16.56</time>
<name>590</name>
</trkpt>
<trkpt lat="48.938520" lon="8.672867">
<ele>378.5</ele>
<speed>4.4</speed>
<course>161.6</course>
<desc>Speed 4.4 km/h Distance 0.92 km</desc>
<time>2010-02-28T10:25:17.57</time>
<name>591</name>
</trkpt>
<trkpt lat="48.938507" lon="8.672873">
<ele>379.0</ele>
<speed>5.0</speed>
<course>132.9</course>
<desc>Speed 5.0 km/h Distance 0.92 km</desc>
<time>2010-02-28T10:25:18.56</time>
<name>592</name>
</trkpt>
<trkpt lat="48.938488" lon="8.672903">
<ele>380.0</ele>
<speed>4.9</speed>
<course>163.4</course>
<desc>Speed 4.9 km/h Distance 0.92 km</desc>
<time>2010-02-28T10:25:19.57</time>
<name>593</name>
</trkpt>
<trkpt lat="48.938473" lon="8.672910">
<ele>381.0</ele>
<speed>5.3</speed>
<course>165.1</course>
<desc>Speed 5.3 km/h Distance 0.92 km</desc>
<time>2010-02-28T10:25:20.57</time>
<name>594</name>
</trkpt>
<trkpt lat="48.938462" lon="8.672915">
<ele>381.5</ele>
<speed>5.3</speed>
<course>153.8</course>
<desc>Speed 5.3 km/h Distance 0.92 km</desc>
<time>2010-02-28T10:25:21.56</time>
<name>595</name>
</trkpt>
<trkpt lat="48.938448" lon="8.672925">
<ele>382.0</ele>
<speed>5.1</speed>
<course>146.7</course>
<desc>Speed 5.1 km/h Distance 0.92 km</desc>
<time>2010-02-28T10:25:22.56</time>
<name>596</name>
</trkpt>
<trkpt lat="48.938437" lon="8.672937">
<ele>382.5</ele>
<speed>4.6</speed>
<course>150.2</course>
<desc>Speed 4.6 km/h Distance 0.93 km</desc>
<time>2010-02-28T10:25:23.56</time>
<name>597</name>
</trkpt>
<trkpt lat="48.938423" lon="8.672948">
<ele>383.0</ele>
<speed>5.5</speed>
<course>156.5</course>
<desc>Speed 5.5 km/h Distance 0.93 km</desc>
<time>2010-02-28T10:25:24.56</time>
<name>598</name>
</trkpt>
<trkpt lat="48.938408" lon="8.672958">
<ele>383.5</ele>
<speed>5.0</speed>
<course>168.3</course>
<desc>Speed 5.0 km/h Distance 0.93 km</desc>
<time>2010-02-28T10:25:25.56</time>
<name>599</name>
</trkpt>
<trkpt lat="48.938393" lon="8.672963">
<ele>384.0</ele>
<speed>4.9</speed>
<course>143.6</course>
<desc>Speed 4.9 km/h Distance 0.93 km</desc>
<time>2010-02-28T10:25:26.56</time>
<name>600</name>
</trkpt>
<trkpt lat="48.938380" lon="8.672978">
<ele>384.0</ele>
<speed>4.6</speed>
<course>157.7</course>
<desc>Speed 4.6 km/h Distance 0.93 km</desc>
<time>2010-02-28T10:25:27.57</time>
<name>601</name>
</trkpt>
<trkpt lat="48.938367" lon="8.672987">
<ele>383.5</ele>
<speed>4.4</speed>
<course>166.0</course>
<desc>Speed 4.4 km/h Distance 0.93 km</desc>
<time>2010-02-28T10:25:28.56</time>
<name>602</name>
</trkpt>
<trkpt lat="48.938353" lon="8.672992">
<ele>382.0</ele>
<speed>3.5</speed>
<course>164.0</course>
<desc>Speed 3.5 km/h Distance 0.94 km</desc>
<time>2010-02-28T10:25:29.57</time>
<name>603</name>
</trkpt>
<trkpt lat="48.938342" lon="8.672997">
<ele>381.5</ele>
<speed>2.8</speed>
<course>168.4</course>
<desc>Speed 2.8 km/h Distance 0.94 km</desc>
<time>2010-02-28T10:25:30.57</time>
<name>604</name>
</trkpt>
<trkpt lat="48.938320" lon="8.673003">
<ele>379.5</ele>
<speed>6.4</speed>
<course>154.8</course>
<desc>Speed 6.4 km/h Distance 0.94 km</desc>
<time>2010-02-28T10:25:31.56</time>
<name>605</name>
</trkpt>
<trkpt lat="48.938308" lon="8.673012">
<ele>379.0</ele>
<speed>2.6</speed>
<course>165.1</course>
<desc>Speed 2.6 km/h Distance 0.94 km</desc>
<time>2010-02-28T10:25:32.57</time>
<name>606</name>
</trkpt>
<trkpt lat="48.938300" lon="8.673015">
<ele>380.0</ele>
<speed>3.6</speed>
<course>155.2</course>
<desc>Speed 3.6 km/h Distance 0.94 km</desc>
<time>2010-02-28T10:25:33.56</time>
<name>607</name>
</trkpt>
<trkpt lat="48.938293" lon="8.673020">
<ele>381.0</ele>
<speed>3.0</speed>
<course>159.8</course>
<desc>Speed 3.0 km/h Distance 0.94 km</desc>
<time>2010-02-28T10:25:34.56</time>
<name>608</name>
</trkpt>
<trkpt lat="48.938282" lon="8.673027">
<ele>381.0</ele>
<speed>4.0</speed>
<course>167.4</course>
<desc>Speed 4.0 km/h Distance 0.94 km</desc>
<time>2010-02-28T10:25:35.56</time>
<name>609</name>
</trkpt>
<trkpt lat="48.938272" lon="8.673030">
<ele>380.5</ele>
<speed>3.7</speed>
<course>177.8</course>
<desc>Speed 3.7 km/h Distance 0.95 km</desc>
<time>2010-02-28T10:25:36.56</time>
<name>610</name>
</trkpt>
<trkpt lat="48.938260" lon="8.673030">
<ele>381.0</ele>
<speed>3.9</speed>
<course>171.0</course>
<desc>Speed 3.9 km/h Distance 0.95 km</desc>
<time>2010-02-28T10:25:37.56</time>
<name>611</name>
</trkpt>
<trkpt lat="48.938247" lon="8.673033">
<ele>381.0</ele>
<speed>4.8</speed>
<course>175.3</course>
<desc>Speed 4.8 km/h Distance 0.95 km</desc>
<time>2010-02-28T10:25:38.56</time>
<name>612</name>
</trkpt>
<trkpt lat="48.938235" lon="8.673035">
<ele>381.0</ele>
<speed>4.5</speed>
<course>167.4</course>
<desc>Speed 4.5 km/h Distance 0.95 km</desc>
<time>2010-02-28T10:25:39.56</time>
<name>613</name>
</trkpt>
<trkpt lat="48.938225" lon="8.673038">
<ele>382.0</ele>
<speed>2.8</speed>
<course>164.0</course>
<desc>Speed 2.8 km/h Distance 0.95 km</desc>
<time>2010-02-28T10:25:40.56</time>
<name>614</name>
</trkpt>
<trkpt lat="48.938213" lon="8.673043">
<ele>382.0</ele>
<speed>4.5</speed>
<course>170.3</course>
<desc>Speed 4.5 km/h Distance 0.95 km</desc>
<time>2010-02-28T10:25:41.57</time>
<name>615</name>
</trkpt>
<trkpt lat="48.938200" lon="8.673047">
<ele>381.5</ele>
<speed>4.0</speed>
<course>165.1</course>
<desc>Speed 4.0 km/h Distance 0.95 km</desc>
<time>2010-02-28T10:25:42.56</time>
<name>616</name>
</trkpt>
<trkpt lat="48.938188" lon="8.673052">
<ele>381.0</ele>
<speed>4.6</speed>
<course>166.5</course>
<desc>Speed 4.6 km/h Distance 0.96 km</desc>
<time>2010-02-28T10:25:43.56</time>
<name>617</name>
</trkpt>
<trkpt lat="48.938175" lon="8.673057">
<ele>380.5</ele>
<speed>4.4</speed>
<course>159.1</course>
<desc>Speed 4.4 km/h Distance 0.96 km</desc>
<time>2010-02-28T10:25:44.57</time>
<name>618</name>
</trkpt>
<trkpt lat="48.938163" lon="8.673063">
<ele>381.0</ele>
<speed>4.5</speed>
<course>161.9</course>
<desc>Speed 4.5 km/h Distance 0.96 km</desc>
<time>2010-02-28T10:25:45.56</time>
<name>619</name>
</trkpt>
<trkpt lat="48.938150" lon="8.673070">
<ele>381.5</ele>
<speed>4.1</speed>
<course>159.1</course>
<desc>Speed 4.1 km/h Distance 0.96 km</desc>
<time>2010-02-28T10:25:46.56</time>
<name>620</name>
</trkpt>
<trkpt lat="48.938138" lon="8.673077">
<ele>382.0</ele>
<speed>4.1</speed>
<course>177.8</course>
<desc>Speed 4.1 km/h Distance 0.96 km</desc>
<time>2010-02-28T10:25:47.56</time>
<name>621</name>
</trkpt>
<trkpt lat="48.938127" lon="8.673077">
<ele>382.0</ele>
<speed>3.6</speed>
<course>161.8</course>
<desc>Speed 3.6 km/h Distance 0.96 km</desc>
<time>2010-02-28T10:25:48.56</time>
<name>622</name>
</trkpt>
<trkpt lat="48.938117" lon="8.673082">
<ele>381.5</ele>
<speed>3.4</speed>
<course>159.4</course>
<desc>Speed 3.4 km/h Distance 0.96 km</desc>
<time>2010-02-28T10:25:49.56</time>
<name>623</name>
</trkpt>
<trkpt lat="48.938105" lon="8.673088">
<ele>381.5</ele>
<speed>3.3</speed>
<course>150.2</course>
<desc>Speed 3.3 km/h Distance 0.97 km</desc>
<time>2010-02-28T10:25:50.57</time>
<name>624</name>
</trkpt>
<trkpt lat="48.938092" lon="8.673100">
<ele>381.5</ele>
<speed>3.6</speed>
<course>149.7</course>
<desc>Speed 3.6 km/h Distance 0.97 km</desc>
<time>2010-02-28T10:25:51.56</time>
<name>625</name>
</trkpt>
<trkpt lat="48.938077" lon="8.673113">
<ele>381.5</ele>
<speed>4.7</speed>
<course>171.0</course>
<desc>Speed 4.7 km/h Distance 0.97 km</desc>
<time>2010-02-28T10:25:52.56</time>
<name>626</name>
</trkpt>
<trkpt lat="48.938063" lon="8.673117">
<ele>380.5</ele>
<speed>4.1</speed>
<course>177.2</course>
<desc>Speed 4.1 km/h Distance 0.97 km</desc>
<time>2010-02-28T10:25:53.56</time>
<name>627</name>
</trkpt>
<trkpt lat="48.938047" lon="8.673118">
<ele>380.5</ele>
<speed>4.0</speed>
<course>172.3</course>
<desc>Speed 4.0 km/h Distance 0.97 km</desc>
<time>2010-02-28T10:25:54.55</time>
<name>628</name>
</trkpt>
<trkpt lat="48.938030" lon="8.673122">
<ele>381.0</ele>
<speed>4.8</speed>
<course>189.0</course>
<desc>Speed 4.8 km/h Distance 0.97 km</desc>
<time>2010-02-28T10:25:55.55</time>
<name>629</name>
</trkpt>
<trkpt lat="48.938017" lon="8.673118">
<ele>379.5</ele>
<speed>4.4</speed>
<course>171.0</course>
<desc>Speed 4.4 km/h Distance 0.98 km</desc>
<time>2010-02-28T10:25:56.56</time>
<name>630</name>
</trkpt>
<trkpt lat="48.938003" lon="8.673122">
<ele>377.5</ele>
<speed>3.9</speed>
<course>177.2</course>
<desc>Speed 3.9 km/h Distance 0.98 km</desc>
<time>2010-02-28T10:25:57.56</time>
<name>631</name>
</trkpt>
<trkpt lat="48.937987" lon="8.673123">
<ele>377.0</ele>
<speed>4.1</speed>
<course>164.0</course>
<desc>Speed 4.1 km/h Distance 0.98 km</desc>
<time>2010-02-28T10:25:58.56</time>
<name>632</name>
</trkpt>
<trkpt lat="48.937975" lon="8.673128">
<ele>377.0</ele>
<speed>4.4</speed>
<course>171.0</course>
<desc>Speed 4.4 km/h Distance 0.98 km</desc>
<time>2010-02-28T10:25:59.56</time>
<name>633</name>
</trkpt>
<trkpt lat="48.937962" lon="8.673132">
<ele>376.0</ele>
<speed>4.1</speed>
<course>171.0</course>
<desc>Speed 4.1 km/h Distance 0.98 km</desc>
<time>2010-02-28T10:26:00.56</time>
<name>634</name>
</trkpt>
<trkpt lat="48.937948" lon="8.673135">
<ele>376.0</ele>
<speed>4.9</speed>
<course>163.4</course>
<desc>Speed 4.9 km/h Distance 0.98 km</desc>
<time>2010-02-28T10:26:01.56</time>
<name>635</name>
</trkpt>
<trkpt lat="48.937933" lon="8.673142">
<ele>375.5</ele>
<speed>4.3</speed>
<course>173.7</course>
<desc>Speed 4.3 km/h Distance 0.98 km</desc>
<time>2010-02-28T10:26:02.56</time>
<name>636</name>
</trkpt>
<trkpt lat="48.937922" lon="8.673143">
<ele>375.0</ele>
<speed>4.5</speed>
<course>169.7</course>
<desc>Speed 4.5 km/h Distance 0.99 km</desc>
<time>2010-02-28T10:26:03.56</time>
<name>637</name>
</trkpt>
<trkpt lat="48.937908" lon="8.673147">
<ele>375.0</ele>
<speed>4.5</speed>
<course>163.4</course>
<desc>Speed 4.5 km/h Distance 0.99 km</desc>
<time>2010-02-28T10:26:04.56</time>
<name>638</name>
</trkpt>
<trkpt lat="48.937893" lon="8.673153">
<ele>374.5</ele>
<speed>4.8</speed>
<course>161.9</course>
<desc>Speed 4.8 km/h Distance 0.99 km</desc>
<time>2010-02-28T10:26:05.56</time>
<name>639</name>
</trkpt>
<trkpt lat="48.937880" lon="8.673160">
<ele>374.0</ele>
<speed>3.7</speed>
<course>150.2</course>
<desc>Speed 3.7 km/h Distance 0.99 km</desc>
<time>2010-02-28T10:26:06.56</time>
<name>640</name>
</trkpt>
<trkpt lat="48.937867" lon="8.673172">
<ele>373.5</ele>
<speed>4.0</speed>
<course>166.5</course>
<desc>Speed 4.0 km/h Distance 0.99 km</desc>
<time>2010-02-28T10:26:07.56</time>
<name>641</name>
</trkpt>
<trkpt lat="48.937853" lon="8.673177">
<ele>374.0</ele>
<speed>4.8</speed>
<course>163.4</course>
<desc>Speed 4.8 km/h Distance 0.99 km</desc>
<time>2010-02-28T10:26:08.56</time>
<name>642</name>
</trkpt>
<trkpt lat="48.937838" lon="8.673183">
<ele>374.0</ele>
<speed>4.4</speed>
<course>146.7</course>
<desc>Speed 4.4 km/h Distance 1.00 km</desc>
<time>2010-02-28T10:26:09.56</time>
<name>643</name>
</trkpt>
<trkpt lat="48.937825" lon="8.673197">
<ele>374.0</ele>
<speed>4.9</speed>
<course>142.5</course>
<desc>Speed 4.9 km/h Distance 1.00 km</desc>
<time>2010-02-28T10:26:10.56</time>
<name>644</name>
</trkpt>
<trkpt lat="48.937815" lon="8.673208">
<ele>373.5</ele>
<speed>4.1</speed>
<course>135.4</course>
<desc>Speed 4.1 km/h Distance 1.00 km</desc>
<time>2010-02-28T10:26:11.56</time>
<name>645</name>
</trkpt>
<trkpt lat="48.937802" lon="8.673228">
<ele>374.0</ele>
<speed>5.2</speed>
<course>136.7</course>
<desc>Speed 5.2 km/h Distance 1.00 km</desc>
<time>2010-02-28T10:26:12.56</time>
<name>646</name>
</trkpt>
<trkpt lat="48.937790" lon="8.673245">
<ele>373.5</ele>
<speed>4.4</speed>
<course>127.3</course>
<desc>Speed 4.4 km/h Distance 1.00 km</desc>
<time>2010-02-28T10:26:13.56</time>
<name>647</name>
</trkpt>
<trkpt lat="48.937782" lon="8.673262">
<ele>373.5</ele>
<speed>4.2</speed>
<course>132.4</course>
<desc>Speed 4.2 km/h Distance 1.00 km</desc>
<time>2010-02-28T10:26:14.55</time>
<name>648</name>
</trkpt>
<trkpt lat="48.937772" lon="8.673278">
<ele>371.5</ele>
<speed>2.6</speed>
<course>127.3</course>
<desc>Speed 2.6 km/h Distance 1.01 km</desc>
<time>2010-02-28T10:26:15.55</time>
<name>649</name>
</trkpt>
<trkpt lat="48.937762" lon="8.673298">
<ele>371.5</ele>
<speed>4.7</speed>
<course>137.4</course>
<desc>Speed 4.7 km/h Distance 1.01 km</desc>
<time>2010-02-28T10:26:16.55</time>
<name>650</name>
</trkpt>
<trkpt lat="48.937753" lon="8.673310">
<ele>371.5</ele>
<speed>4.2</speed>
<course>130.3</course>
<desc>Speed 4.2 km/h Distance 1.01 km</desc>
<time>2010-02-28T10:26:17.55</time>
<name>651</name>
</trkpt>
<trkpt lat="48.937745" lon="8.673325">
<ele>371.5</ele>
<speed>4.7</speed>
<course>132.6</course>
<desc>Speed 4.7 km/h Distance 1.01 km</desc>
<time>2010-02-28T10:26:18.55</time>
<name>652</name>
</trkpt>
<trkpt lat="48.937740" lon="8.673333">
<ele>371.0</ele>
<speed>2.6</speed>
<course>135.5</course>
<desc>Speed 2.6 km/h Distance 1.01 km</desc>
<time>2010-02-28T10:26:19.55</time>
<name>653</name>
</trkpt>
<trkpt lat="48.937733" lon="8.673343">
<ele>371.0</ele>
<speed>3.7</speed>
<course>154.8</course>
<desc>Speed 3.7 km/h Distance 1.01 km</desc>
<time>2010-02-28T10:26:20.55</time>
<name>654</name>
</trkpt>
<trkpt lat="48.937722" lon="8.673352">
<ele>370.5</ele>
<speed>4.9</speed>
<course>160.1</course>
<desc>Speed 4.9 km/h Distance 1.01 km</desc>
<time>2010-02-28T10:26:21.55</time>
<name>655</name>
</trkpt>
<trkpt lat="48.937707" lon="8.673360">
<ele>370.5</ele>
<speed>5.2</speed>
<course>159.9</course>
<desc>Speed 5.2 km/h Distance 1.02 km</desc>
<time>2010-02-28T10:26:22.55</time>
<name>656</name>
</trkpt>
<trkpt lat="48.937692" lon="8.673368">
<ele>370.0</ele>
<speed>4.9</speed>
<course>164.7</course>
<desc>Speed 4.9 km/h Distance 1.02 km</desc>
<time>2010-02-28T10:26:23.55</time>
<name>657</name>
</trkpt>
<trkpt lat="48.937672" lon="8.673377">
<ele>370.5</ele>
<speed>5.3</speed>
<course>167.4</course>
<desc>Speed 5.3 km/h Distance 1.02 km</desc>
<time>2010-02-28T10:26:24.55</time>
<name>658</name>
</trkpt>
<trkpt lat="48.937652" lon="8.673383">
<ele>371.0</ele>
<speed>5.5</speed>
<course>169.8</course>
<desc>Speed 5.5 km/h Distance 1.02 km</desc>
<time>2010-02-28T10:26:25.55</time>
<name>659</name>
</trkpt>
<trkpt lat="48.937633" lon="8.673388">
<ele>370.5</ele>
<speed>4.8</speed>
<course>163.4</course>
<desc>Speed 4.8 km/h Distance 1.02 km</desc>
<time>2010-02-28T10:26:26.55</time>
<name>660</name>
</trkpt>
<trkpt lat="48.937618" lon="8.673395">
<ele>370.5</ele>
<speed>4.6</speed>
<course>159.9</course>
<desc>Speed 4.6 km/h Distance 1.03 km</desc>
<time>2010-02-28T10:26:27.55</time>
<name>661</name>
</trkpt>
<trkpt lat="48.937603" lon="8.673403">
<ele>370.0</ele>
<speed>4.9</speed>
<course>156.3</course>
<desc>Speed 4.9 km/h Distance 1.03 km</desc>
<time>2010-02-28T10:26:28.55</time>
<name>662</name>
</trkpt>
<trkpt lat="48.937588" lon="8.673413">
<ele>370.0</ele>
<speed>4.2</speed>
<course>166.0</course>
<desc>Speed 4.2 km/h Distance 1.03 km</desc>
<time>2010-02-28T10:26:29.55</time>
<name>663</name>
</trkpt>
<trkpt lat="48.937575" lon="8.673418">
<ele>370.5</ele>
<speed>4.6</speed>
<course>157.7</course>
<desc>Speed 4.6 km/h Distance 1.03 km</desc>
<time>2010-02-28T10:26:30.55</time>
<name>664</name>
</trkpt>
<trkpt lat="48.937562" lon="8.673427">
<ele>371.0</ele>
<speed>4.1</speed>
<course>146.6</course>
<desc>Speed 4.1 km/h Distance 1.03 km</desc>
<time>2010-02-28T10:26:31.55</time>
<name>665</name>
</trkpt>
<trkpt lat="48.937543" lon="8.673445">
<ele>372.5</ele>
<speed>4.3</speed>
<course>175.0</course>
<desc>Speed 4.3 km/h Distance 1.04 km</desc>
<time>2010-02-28T10:26:32.55</time>
<name>666</name>
</trkpt>
<trkpt lat="48.937528" lon="8.673447">
<ele>372.5</ele>
<speed>4.9</speed>
<course>157.4</course>
<desc>Speed 4.9 km/h Distance 1.04 km</desc>
<time>2010-02-28T10:26:33.55</time>
<name>667</name>
</trkpt>
<trkpt lat="48.937515" lon="8.673455">
<ele>373.5</ele>
<speed>4.7</speed>
<course>159.1</course>
<desc>Speed 4.7 km/h Distance 1.04 km</desc>
<time>2010-02-28T10:26:34.55</time>
<name>668</name>
</trkpt>
<trkpt lat="48.937503" lon="8.673462">
<ele>374.0</ele>
<speed>4.0</speed>
<course>166.5</course>
<desc>Speed 4.0 km/h Distance 1.04 km</desc>
<time>2010-02-28T10:26:35.55</time>
<name>669</name>
</trkpt>
<trkpt lat="48.937490" lon="8.673467">
<ele>375.0</ele>
<speed>4.8</speed>
<course>158.5</course>
<desc>Speed 4.8 km/h Distance 1.04 km</desc>
<time>2010-02-28T10:26:36.55</time>
<name>670</name>
</trkpt>
<trkpt lat="48.937473" lon="8.673477">
<ele>374.5</ele>
<speed>7.0</speed>
<course>156.3</course>
<desc>Speed 7.0 km/h Distance 1.04 km</desc>
<time>2010-02-28T10:26:37.55</time>
<name>671</name>
</trkpt>
<trkpt lat="48.937458" lon="8.673487">
<ele>375.0</ele>
<speed>5.5</speed>
<course>174.7</course>
<desc>Speed 5.5 km/h Distance 1.05 km</desc>
<time>2010-02-28T10:26:38.55</time>
<name>672</name>
</trkpt>
<trkpt lat="48.937445" lon="8.673488">
<ele>375.0</ele>
<speed>5.1</speed>
<course>163.0</course>
<desc>Speed 5.1 km/h Distance 1.05 km</desc>
<time>2010-02-28T10:26:39.55</time>
<name>673</name>
</trkpt>
<trkpt lat="48.937423" lon="8.673498">
<ele>376.5</ele>
<speed>5.0</speed>
<course>175.3</course>
<desc>Speed 5.0 km/h Distance 1.05 km</desc>
<time>2010-02-28T10:26:40.54</time>
<name>674</name>
</trkpt>
<trkpt lat="48.937412" lon="8.673500">
<ele>376.5</ele>
<speed>4.2</speed>
<course>176.1</course>
<desc>Speed 4.2 km/h Distance 1.05 km</desc>
<time>2010-02-28T10:26:41.54</time>
<name>675</name>
</trkpt>
<trkpt lat="48.937398" lon="8.673502">
<ele>376.5</ele>
<speed>4.5</speed>
<course>164.0</course>
<desc>Speed 4.5 km/h Distance 1.05 km</desc>
<time>2010-02-28T10:26:42.54</time>
<name>676</name>
</trkpt>
<trkpt lat="48.937387" lon="8.673507">
<ele>376.5</ele>
<speed>4.5</speed>
<course>166.5</course>
<desc>Speed 4.5 km/h Distance 1.05 km</desc>
<time>2010-02-28T10:26:43.54</time>
<name>677</name>
</trkpt>
<trkpt lat="48.937373" lon="8.673512">
<ele>377.0</ele>
<speed>3.7</speed>
<course>177.8</course>
<desc>Speed 3.7 km/h Distance 1.05 km</desc>
<time>2010-02-28T10:26:44.54</time>
<name>678</name>
</trkpt>
<trkpt lat="48.937362" lon="8.673512">
<ele>377.0</ele>
<speed>4.1</speed>
<course>164.0</course>
<desc>Speed 4.1 km/h Distance 1.06 km</desc>
<time>2010-02-28T10:26:45.54</time>
<name>679</name>
</trkpt>
<trkpt lat="48.937350" lon="8.673517">
<ele>377.5</ele>
<speed>4.2</speed>
<course>166.5</course>
<desc>Speed 4.2 km/h Distance 1.06 km</desc>
<time>2010-02-28T10:26:46.54</time>
<name>680</name>
</trkpt>
<trkpt lat="48.937337" lon="8.673522">
<ele>378.0</ele>
<speed>4.8</speed>
<course>161.9</course>
<desc>Speed 4.8 km/h Distance 1.06 km</desc>
<time>2010-02-28T10:26:47.54</time>
<name>681</name>
</trkpt>
<trkpt lat="48.937320" lon="8.673530">
<ele>378.5</ele>
<speed>5.8</speed>
<course>166.0</course>
<desc>Speed 5.8 km/h Distance 1.06 km</desc>
<time>2010-02-28T10:26:48.54</time>
<name>682</name>
</trkpt>
<trkpt lat="48.937307" lon="8.673535">
<ele>378.5</ele>
<speed>4.6</speed>
<course>177.8</course>
<desc>Speed 4.6 km/h Distance 1.06 km</desc>
<time>2010-02-28T10:26:49.54</time>
<name>683</name>
</trkpt>
<trkpt lat="48.937295" lon="8.673535">
<ele>378.5</ele>
<speed>3.9</speed>
<course>175.3</course>
<desc>Speed 3.9 km/h Distance 1.06 km</desc>
<time>2010-02-28T10:26:50.54</time>
<name>684</name>
</trkpt>
<trkpt lat="48.937283" lon="8.673537">
<ele>379.0</ele>
<speed>3.6</speed>
<course>171.0</course>
<desc>Speed 3.6 km/h Distance 1.07 km</desc>
<time>2010-02-28T10:26:51.54</time>
<name>685</name>
</trkpt>
<trkpt lat="48.937270" lon="8.673540">
<ele>378.0</ele>
<speed>4.5</speed>
<course>174.7</course>
<desc>Speed 4.5 km/h Distance 1.07 km</desc>
<time>2010-02-28T10:26:52.54</time>
<name>686</name>
</trkpt>
<trkpt lat="48.937257" lon="8.673542">
<ele>378.0</ele>
<speed>4.5</speed>
<course>166.8</course>
<desc>Speed 4.5 km/h Distance 1.07 km</desc>
<time>2010-02-28T10:26:53.54</time>
<name>687</name>
</trkpt>
<trkpt lat="48.937233" lon="8.673550">
<ele>379.5</ele>
<speed>8.2</speed>
<course>175.3</course>
<desc>Speed 8.2 km/h Distance 1.07 km</desc>
<time>2010-02-28T10:26:54.54</time>
<name>688</name>
</trkpt>
<trkpt lat="48.937222" lon="8.673552">
<ele>380.0</ele>
<speed>3.5</speed>
<course>166.5</course>
<desc>Speed 3.5 km/h Distance 1.07 km</desc>
<time>2010-02-28T10:26:55.54</time>
<name>689</name>
</trkpt>
<trkpt lat="48.937208" lon="8.673557">
<ele>380.0</ele>
<speed>3.6</speed>
<course>178.8</course>
<desc>Speed 3.6 km/h Distance 1.07 km</desc>
<time>2010-02-28T10:26:56.54</time>
<name>690</name>
</trkpt>
<trkpt lat="48.937195" lon="8.673557">
<ele>379.5</ele>
<speed>4.1</speed>
<course>177.5</course>
<desc>Speed 4.1 km/h Distance 1.08 km</desc>
<time>2010-02-28T10:26:57.54</time>
<name>691</name>
</trkpt>
<trkpt lat="48.937177" lon="8.673558">
<ele>379.5</ele>
<speed>5.2</speed>
<course>192.6</course>
<desc>Speed 5.2 km/h Distance 1.08 km</desc>
<time>2010-02-28T10:26:58.54</time>
<name>692</name>
</trkpt>
<trkpt lat="48.937172" lon="8.673557">
<ele>379.5</ele>
<speed>2.0</speed>
<course>163.4</course>
<desc>Speed 2.0 km/h Distance 1.08 km</desc>
<time>2010-02-28T10:26:59.54</time>
<name>693</name>
</trkpt>
<trkpt lat="48.937153" lon="8.673565">
<ele>379.5</ele>
<speed>6.1</speed>
<course>176.2</course>
<desc>Speed 6.1 km/h Distance 1.08 km</desc>
<time>2010-02-28T10:27:00.54</time>
<name>694</name>
</trkpt>
<trkpt lat="48.937138" lon="8.673567">
<ele>378.5</ele>
<speed>4.2</speed>
<course>180.0</course>
<desc>Speed 4.2 km/h Distance 1.08 km</desc>
<time>2010-02-28T10:27:01.54</time>
<name>695</name>
</trkpt>
<trkpt lat="48.937127" lon="8.673567">
<ele>378.0</ele>
<speed>4.4</speed>
<course>166.5</course>
<desc>Speed 4.4 km/h Distance 1.08 km</desc>
<time>2010-02-28T10:27:02.54</time>
<name>696</name>
</trkpt>
<trkpt lat="48.937113" lon="8.673572">
<ele>377.5</ele>
<speed>3.7</speed>
<course>180.0</course>
<desc>Speed 3.7 km/h Distance 1.08 km</desc>
<time>2010-02-28T10:27:03.54</time>
<name>697</name>
</trkpt>
<trkpt lat="48.937102" lon="8.673572">
<ele>377.5</ele>
<speed>4.0</speed>
<course>178.8</course>
<desc>Speed 4.0 km/h Distance 1.09 km</desc>
<time>2010-02-28T10:27:04.54</time>
<name>698</name>
</trkpt>
<trkpt lat="48.937088" lon="8.673572">
<ele>377.0</ele>
<speed>3.4</speed>
<course>172.6</course>
<desc>Speed 3.4 km/h Distance 1.09 km</desc>
<time>2010-02-28T10:27:05.54</time>
<name>699</name>
</trkpt>
<trkpt lat="48.937082" lon="8.673573">
<ele>378.0</ele>
<speed>2.6</speed>
<course>180.0</course>
<desc>Speed 2.6 km/h Distance 1.09 km</desc>
<time>2010-02-28T10:27:06.54</time>
<name>700</name>
</trkpt>
<trkpt lat="48.937072" lon="8.673573">
<ele>379.0</ele>
<speed>3.1</speed>
<course>170.5</course>
<desc>Speed 3.1 km/h Distance 1.09 km</desc>
<time>2010-02-28T10:27:07.54</time>
<name>701</name>
</trkpt>
<trkpt lat="48.937060" lon="8.673577">
<ele>379.0</ele>
<speed>3.6</speed>
<course>175.6</course>
<desc>Speed 3.6 km/h Distance 1.09 km</desc>
<time>2010-02-28T10:27:08.54</time>
<name>702</name>
</trkpt>
<trkpt lat="48.937050" lon="8.673577">
<ele>379.0</ele>
<speed>3.3</speed>
<course>175.6</course>
<desc>Speed 3.3 km/h Distance 1.09 km</desc>
<time>2010-02-28T10:27:09.54</time>
<name>703</name>
</trkpt>
<trkpt lat="48.937040" lon="8.673577">
<ele>379.0</ele>
<speed>3.8</speed>
<course>171.9</course>
<desc>Speed 3.8 km/h Distance 1.09 km</desc>
<time>2010-02-28T10:27:10.54</time>
<name>704</name>
</trkpt>
<trkpt lat="48.937030" lon="8.673578">
<ele>379.5</ele>
<speed>3.7</speed>
<course>175.6</course>
<desc>Speed 3.7 km/h Distance 1.09 km</desc>
<time>2010-02-28T10:27:11.54</time>
<name>705</name>
</trkpt>
<trkpt lat="48.937020" lon="8.673580">
<ele>380.0</ele>
<speed>3.1</speed>
<course>173.4</course>
<desc>Speed 3.1 km/h Distance 1.09 km</desc>
<time>2010-02-28T10:27:12.54</time>
<name>706</name>
</trkpt>
<trkpt lat="48.937010" lon="8.673582">
<ele>380.0</ele>
<speed>3.6</speed>
<course>180.0</course>
<desc>Speed 3.6 km/h Distance 1.10 km</desc>
<time>2010-02-28T10:27:13.54</time>
<name>707</name>
</trkpt>
<trkpt lat="48.937000" lon="8.673582">
<ele>380.0</ele>
<speed>3.4</speed>
<course>194.9</course>
<desc>Speed 3.4 km/h Distance 1.10 km</desc>
<time>2010-02-28T10:27:14.54</time>
<name>708</name>
</trkpt>
<trkpt lat="48.936992" lon="8.673578">
<ele>380.0</ele>
<speed>3.4</speed>
<course>188.1</course>
<desc>Speed 3.4 km/h Distance 1.10 km</desc>
<time>2010-02-28T10:27:15.54</time>
<name>709</name>
</trkpt>
<trkpt lat="48.936982" lon="8.673577">
<ele>380.0</ele>
<speed>3.6</speed>
<course>184.4</course>
<desc>Speed 3.6 km/h Distance 1.10 km</desc>
<time>2010-02-28T10:27:16.54</time>
<name>710</name>
</trkpt>
<trkpt lat="48.936972" lon="8.673575">
<ele>380.0</ele>
<speed>3.0</speed>
<course>192.6</course>
<desc>Speed 3.0 km/h Distance 1.10 km</desc>
<time>2010-02-28T10:27:17.54</time>
<name>711</name>
</trkpt>
<trkpt lat="48.936962" lon="8.673572">
<ele>379.5</ele>
<speed>2.7</speed>
<course>197.5</course>
<desc>Speed 2.7 km/h Distance 1.10 km</desc>
<time>2010-02-28T10:27:18.54</time>
<name>712</name>
</trkpt>
<trkpt lat="48.936955" lon="8.673568">
<ele>379.5</ele>
<speed>2.6</speed>
<course>191.2</course>
<desc>Speed 2.6 km/h Distance 1.10 km</desc>
<time>2010-02-28T10:27:19.54</time>
<name>713</name>
</trkpt>
<trkpt lat="48.936943" lon="8.673565">
<ele>379.0</ele>
<speed>3.7</speed>
<course>192.6</course>
<desc>Speed 3.7 km/h Distance 1.10 km</desc>
<time>2010-02-28T10:27:20.54</time>
<name>714</name>
</trkpt>
<trkpt lat="48.936933" lon="8.673562">
<ele>379.5</ele>
<speed>3.5</speed>
<course>221.4</course>
<desc>Speed 3.5 km/h Distance 1.10 km</desc>
<time>2010-02-28T10:27:21.54</time>
<name>715</name>
</trkpt>
<trkpt lat="48.936928" lon="8.673555">
<ele>379.5</ele>
<speed>1.8</speed>
<course>165.2</course>
<desc>Speed 1.8 km/h Distance 1.11 km</desc>
<time>2010-02-28T10:27:22.54</time>
<name>716</name>
</trkpt>
<trkpt lat="48.936878" lon="8.673575">
<ele>383.5</ele>
<speed>3.8</speed>
<course>170.5</course>
<desc>Speed 3.8 km/h Distance 1.11 km</desc>
<time>2010-02-28T10:27:24.54</time>
<name>717</name>
</trkpt>
<trkpt lat="48.936858" lon="8.673580">
<ele>382.0</ele>
<speed>4.2</speed>
<course>174.1</course>
<desc>Speed 4.2 km/h Distance 1.11 km</desc>
<time>2010-02-28T10:27:25.54</time>
<name>718</name>
</trkpt>
<trkpt lat="48.936837" lon="8.673583">
<ele>382.0</ele>
<speed>4.5</speed>
<course>169.6</course>
<desc>Speed 4.5 km/h Distance 1.12 km</desc>
<time>2010-02-28T10:27:26.54</time>
<name>719</name>
</trkpt>
<trkpt lat="48.936813" lon="8.673590">
<ele>383.5</ele>
<speed>4.1</speed>
<course>182.8</course>
<desc>Speed 4.1 km/h Distance 1.12 km</desc>
<time>2010-02-28T10:27:27.54</time>
<name>720</name>
</trkpt>
<trkpt lat="48.936797" lon="8.673588">
<ele>384.0</ele>
<speed>4.2</speed>
<course>184.1</course>
<desc>Speed 4.2 km/h Distance 1.12 km</desc>
<time>2010-02-28T10:27:28.54</time>
<name>721</name>
</trkpt>
<trkpt lat="48.936780" lon="8.673587">
<ele>385.0</ele>
<speed>4.2</speed>
<course>182.8</course>
<desc>Speed 4.2 km/h Distance 1.12 km</desc>
<time>2010-02-28T10:27:29.54</time>
<name>722</name>
</trkpt>
<trkpt lat="48.936763" lon="8.673585">
<ele>385.5</ele>
<speed>4.5</speed>
<course>188.8</course>
<desc>Speed 4.5 km/h Distance 1.12 km</desc>
<time>2010-02-28T10:27:30.54</time>
<name>723</name>
</trkpt>
<trkpt lat="48.936748" lon="8.673582">
<ele>385.5</ele>
<speed>4.6</speed>
<course>187.0</course>
<desc>Speed 4.6 km/h Distance 1.13 km</desc>
<time>2010-02-28T10:27:31.54</time>
<name>724</name>
</trkpt>
<trkpt lat="48.936730" lon="8.673578">
<ele>385.5</ele>
<speed>4.5</speed>
<course>198.4</course>
<desc>Speed 4.5 km/h Distance 1.13 km</desc>
<time>2010-02-28T10:27:32.54</time>
<name>725</name>
</trkpt>
<trkpt lat="48.936717" lon="8.673572">
<ele>387.0</ele>
<speed>4.0</speed>
<course>213.2</course>
<desc>Speed 4.0 km/h Distance 1.13 km</desc>
<time>2010-02-28T10:27:33.54</time>
<name>726</name>
</trkpt>
<trkpt lat="48.936708" lon="8.673563">
<ele>387.0</ele>
<speed>4.1</speed>
<course>194.9</course>
<desc>Speed 4.1 km/h Distance 1.13 km</desc>
<time>2010-02-28T10:27:34.54</time>
<name>727</name>
</trkpt>
<trkpt lat="48.936692" lon="8.673557">
<ele>389.0</ele>
<speed>3.8</speed>
<course>222.1</course>
<desc>Speed 3.8 km/h Distance 1.13 km</desc>
<time>2010-02-28T10:27:35.54</time>
<name>728</name>
</trkpt>
<trkpt lat="48.936678" lon="8.673538">
<ele>388.5</ele>
<speed>4.4</speed>
<course>193.8</course>
<desc>Speed 4.4 km/h Distance 1.13 km</desc>
<time>2010-02-28T10:27:36.54</time>
<name>729</name>
</trkpt>
<trkpt lat="48.936660" lon="8.673532">
<ele>388.0</ele>
<speed>4.5</speed>
<course>217.5</course>
<desc>Speed 4.5 km/h Distance 1.14 km</desc>
<time>2010-02-28T10:27:37.54</time>
<name>730</name>
</trkpt>
<trkpt lat="48.936650" lon="8.673520">
<ele>387.5</ele>
<speed>3.7</speed>
<course>238.6</course>
<desc>Speed 3.7 km/h Distance 1.14 km</desc>
<time>2010-02-28T10:27:38.54</time>
<name>731</name>
</trkpt>
<trkpt lat="48.936647" lon="8.673512">
<ele>387.5</ele>
<speed>2.9</speed>
<course>174.7</course>
<desc>Speed 2.9 km/h Distance 1.14 km</desc>
<time>2010-02-28T10:27:39.54</time>
<name>732</name>
</trkpt>
<trkpt lat="48.936633" lon="8.673513">
<ele>389.5</ele>
<speed>2.9</speed>
<course>201.5</course>
<desc>Speed 2.9 km/h Distance 1.14 km</desc>
<time>2010-02-28T10:27:40.54</time>
<name>733</name>
</trkpt>
<trkpt lat="48.936625" lon="8.673508">
<ele>390.0</ele>
<speed>2.5</speed>
<course>198.8</course>
<desc>Speed 2.5 km/h Distance 1.14 km</desc>
<time>2010-02-28T10:27:41.54</time>
<name>734</name>
</trkpt>
<trkpt lat="48.936618" lon="8.673505">
<ele>390.5</ele>
<speed>2.1</speed>
<course>187.4</course>
<desc>Speed 2.1 km/h Distance 1.14 km</desc>
<time>2010-02-28T10:27:42.54</time>
<name>735</name>
</trkpt>
<trkpt lat="48.936612" lon="8.673503">
<ele>390.5</ele>
<speed>1.5</speed>
<course>206.4</course>
<desc>Speed 1.5 km/h Distance 1.14 km</desc>
<time>2010-02-28T10:27:43.54</time>
<name>736</name>
</trkpt>
<trkpt lat="48.936605" lon="8.673498">
<ele>390.5</ele>
<speed>2.0</speed>
<course>233.0</course>
<desc>Speed 2.0 km/h Distance 1.14 km</desc>
<time>2010-02-28T10:27:44.54</time>
<name>737</name>
</trkpt>
<trkpt lat="48.936602" lon="8.673492">
<ele>391.0</ele>
<speed>1.9</speed>
<course>232.4</course>
<desc>Speed 1.9 km/h Distance 1.14 km</desc>
<time>2010-02-28T10:27:45.54</time>
<name>738</name>
</trkpt>
<trkpt lat="48.936597" lon="8.673482">
<ele>391.0</ele>
<speed>3.2</speed>
<course>224.6</course>
<desc>Speed 3.2 km/h Distance 1.14 km</desc>
<time>2010-02-28T10:27:46.54</time>
<name>739</name>
</trkpt>
<trkpt lat="48.936583" lon="8.673462">
<ele>390.0</ele>
<speed>4.1</speed>
<course>226.5</course>
<desc>Speed 4.1 km/h Distance 1.15 km</desc>
<time>2010-02-28T10:27:47.54</time>
<name>740</name>
</trkpt>
<trkpt lat="48.936575" lon="8.673448">
<ele>390.0</ele>
<speed>4.3</speed>
<course>213.5</course>
<desc>Speed 4.3 km/h Distance 1.15 km</desc>
<time>2010-02-28T10:27:48.54</time>
<name>741</name>
</trkpt>
<trkpt lat="48.936560" lon="8.673433">
<ele>391.0</ele>
<speed>4.0</speed>
<course>209.8</course>
<desc>Speed 4.0 km/h Distance 1.15 km</desc>
<time>2010-02-28T10:27:49.54</time>
<name>742</name>
</trkpt>
<trkpt lat="48.936547" lon="8.673422">
<ele>390.5</ele>
<speed>4.3</speed>
<course>226.5</course>
<desc>Speed 4.3 km/h Distance 1.15 km</desc>
<time>2010-02-28T10:27:50.54</time>
<name>743</name>
</trkpt>
<trkpt lat="48.936538" lon="8.673408">
<ele>391.0</ele>
<speed>4.6</speed>
<course>216.1</course>
<desc>Speed 4.6 km/h Distance 1.15 km</desc>
<time>2010-02-28T10:27:51.54</time>
<name>744</name>
</trkpt>
<trkpt lat="48.936523" lon="8.673392">
<ele>393.5</ele>
<speed>3.7</speed>
<course>213.2</course>
<desc>Speed 3.7 km/h Distance 1.16 km</desc>
<time>2010-02-28T10:27:52.54</time>
<name>745</name>
</trkpt>
<trkpt lat="48.936513" lon="8.673382">
<ele>393.5</ele>
<speed>3.7</speed>
<course>207.9</course>
<desc>Speed 3.7 km/h Distance 1.16 km</desc>
<time>2010-02-28T10:27:53.54</time>
<name>746</name>
</trkpt>
<trkpt lat="48.936505" lon="8.673375">
<ele>394.0</ele>
<speed>3.0</speed>
<course>205.2</course>
<desc>Speed 3.0 km/h Distance 1.16 km</desc>
<time>2010-02-28T10:27:54.54</time>
<name>747</name>
</trkpt>
<trkpt lat="48.936493" lon="8.673367">
<ele>395.0</ele>
<speed>4.0</speed>
<course>208.6</course>
<desc>Speed 4.0 km/h Distance 1.16 km</desc>
<time>2010-02-28T10:27:55.54</time>
<name>748</name>
</trkpt>
<trkpt lat="48.936483" lon="8.673358">
<ele>395.5</ele>
<speed>3.6</speed>
<course>213.2</course>
<desc>Speed 3.6 km/h Distance 1.16 km</desc>
<time>2010-02-28T10:27:56.54</time>
<name>749</name>
</trkpt>
<trkpt lat="48.936473" lon="8.673348">
<ele>395.0</ele>
<speed>3.9</speed>
<course>222.6</course>
<desc>Speed 3.9 km/h Distance 1.16 km</desc>
<time>2010-02-28T10:27:57.54</time>
<name>750</name>
</trkpt>
<trkpt lat="48.936465" lon="8.673337">
<ele>395.5</ele>
<speed>3.7</speed>
<course>229.1</course>
<desc>Speed 3.7 km/h Distance 1.16 km</desc>
<time>2010-02-28T10:27:58.54</time>
<name>751</name>
</trkpt>
<trkpt lat="48.936458" lon="8.673325">
<ele>395.5</ele>
<speed>3.8</speed>
<course>217.5</course>
<desc>Speed 3.8 km/h Distance 1.16 km</desc>
<time>2010-02-28T10:27:59.54</time>
<name>752</name>
</trkpt>
<trkpt lat="48.936448" lon="8.673313">
<ele>395.5</ele>
<speed>4.1</speed>
<course>201.5</course>
<desc>Speed 4.1 km/h Distance 1.17 km</desc>
<time>2010-02-28T10:28:00.54</time>
<name>753</name>
</trkpt>
<trkpt lat="48.936440" lon="8.673308">
<ele>395.0</ele>
<speed>2.3</speed>
<course>202.2</course>
<desc>Speed 2.3 km/h Distance 1.17 km</desc>
<time>2010-02-28T10:28:01.54</time>
<name>754</name>
</trkpt>
<trkpt lat="48.936435" lon="8.673305">
<ele>395.0</ele>
<speed>1.4</speed>
<course>209.2</course>
<desc>Speed 1.4 km/h Distance 1.17 km</desc>
<time>2010-02-28T10:28:02.54</time>
<name>755</name>
</trkpt>
<trkpt lat="48.936425" lon="8.673297">
<ele>393.5</ele>
<speed>3.4</speed>
<course>219.4</course>
<desc>Speed 3.4 km/h Distance 1.17 km</desc>
<time>2010-02-28T10:28:03.54</time>
<name>756</name>
</trkpt>
<trkpt lat="48.936418" lon="8.673288">
<ele>393.0</ele>
<speed>2.5</speed>
<course>232.7</course>
<desc>Speed 2.5 km/h Distance 1.17 km</desc>
<time>2010-02-28T10:28:04.54</time>
<name>757</name>
</trkpt>
<trkpt lat="48.936410" lon="8.673272">
<ele>393.0</ele>
<speed>5.1</speed>
<course>221.4</course>
<desc>Speed 5.1 km/h Distance 1.17 km</desc>
<time>2010-02-28T10:28:05.54</time>
<name>758</name>
</trkpt>
<trkpt lat="48.936400" lon="8.673258">
<ele>392.5</ele>
<speed>4.4</speed>
<course>222.6</course>
<desc>Speed 4.4 km/h Distance 1.17 km</desc>
<time>2010-02-28T10:28:06.54</time>
<name>759</name>
</trkpt>
<trkpt lat="48.936392" lon="8.673247">
<ele>392.0</ele>
<speed>4.2</speed>
<course>224.5</course>
<desc>Speed 4.2 km/h Distance 1.17 km</desc>
<time>2010-02-28T10:28:07.54</time>
<name>760</name>
</trkpt>
<trkpt lat="48.936385" lon="8.673237">
<ele>391.5</ele>
<speed>3.2</speed>
<course>224.5</course>
<desc>Speed 3.2 km/h Distance 1.17 km</desc>
<time>2010-02-28T10:28:08.54</time>
<name>761</name>
</trkpt>
<trkpt lat="48.936375" lon="8.673222">
<ele>390.0</ele>
<speed>5.0</speed>
<course>232.7</course>
<desc>Speed 5.0 km/h Distance 1.18 km</desc>
<time>2010-02-28T10:28:09.54</time>
<name>762</name>
</trkpt>
<trkpt lat="48.936368" lon="8.673208">
<ele>390.0</ele>
<speed>3.8</speed>
<course>229.9</course>
<desc>Speed 3.8 km/h Distance 1.18 km</desc>
<time>2010-02-28T10:28:10.54</time>
<name>763</name>
</trkpt>
<trkpt lat="48.936360" lon="8.673193">
<ele>389.5</ele>
<speed>4.6</speed>
<course>229.7</course>
<desc>Speed 4.6 km/h Distance 1.18 km</desc>
<time>2010-02-28T10:28:11.54</time>
<name>764</name>
</trkpt>
<trkpt lat="48.936352" lon="8.673178">
<ele>388.5</ele>
<speed>4.0</speed>
<course>226.5</course>
<desc>Speed 4.0 km/h Distance 1.18 km</desc>
<time>2010-02-28T10:28:12.54</time>
<name>765</name>
</trkpt>
<trkpt lat="48.936343" lon="8.673165">
<ele>387.5</ele>
<speed>4.5</speed>
<course>233.0</course>
<desc>Speed 4.5 km/h Distance 1.18 km</desc>
<time>2010-02-28T10:28:13.54</time>
<name>766</name>
</trkpt>
<trkpt lat="48.936337" lon="8.673152">
<ele>387.0</ele>
<speed>4.0</speed>
<course>238.7</course>
<desc>Speed 4.0 km/h Distance 1.18 km</desc>
<time>2010-02-28T10:28:14.54</time>
<name>767</name>
</trkpt>
<trkpt lat="48.936330" lon="8.673135">
<ele>387.0</ele>
<speed>4.2</speed>
<course>243.1</course>
<desc>Speed 4.2 km/h Distance 1.18 km</desc>
<time>2010-02-28T10:28:15.54</time>
<name>768</name>
</trkpt>
<trkpt lat="48.936325" lon="8.673120">
<ele>387.5</ele>
<speed>4.4</speed>
<course>240.3</course>
<desc>Speed 4.4 km/h Distance 1.19 km</desc>
<time>2010-02-28T10:28:16.54</time>
<name>769</name>
</trkpt>
<trkpt lat="48.936320" lon="8.673107">
<ele>388.0</ele>
<speed>4.0</speed>
<course>238.6</course>
<desc>Speed 4.0 km/h Distance 1.19 km</desc>
<time>2010-02-28T10:28:17.54</time>
<name>770</name>
</trkpt>
<trkpt lat="48.936317" lon="8.673098">
<ele>388.0</ele>
<speed>2.3</speed>
<course>249.1</course>
<desc>Speed 2.3 km/h Distance 1.19 km</desc>
<time>2010-02-28T10:28:18.54</time>
<name>771</name>
</trkpt>
<trkpt lat="48.936315" lon="8.673092">
<ele>387.5</ele>
<speed>1.9</speed>
<course>282.3</course>
<desc>Speed 1.9 km/h Distance 1.19 km</desc>
<time>2010-02-28T10:28:19.54</time>
<name>772</name>
</trkpt>
<trkpt lat="48.936317" lon="8.673080">
<ele>387.5</ele>
<speed>2.9</speed>
<course>203.8</course>
<desc>Speed 2.9 km/h Distance 1.19 km</desc>
<time>2010-02-28T10:28:20.54</time>
<name>773</name>
</trkpt>
<trkpt lat="48.936312" lon="8.673077">
<ele>389.0</ele>
<speed>1.8</speed>
<course>246.5</course>
<desc>Speed 1.8 km/h Distance 1.19 km</desc>
<time>2010-02-28T10:28:21.54</time>
<name>774</name>
</trkpt>
<trkpt lat="48.936308" lon="8.673065">
<ele>389.0</ele>
<speed>2.8</speed>
<course>229.1</course>
<desc>Speed 2.8 km/h Distance 1.19 km</desc>
<time>2010-02-28T10:28:22.54</time>
<name>775</name>
</trkpt>
<trkpt lat="48.936302" lon="8.673053">
<ele>386.5</ele>
<speed>3.6</speed>
<course>234.6</course>
<desc>Speed 3.6 km/h Distance 1.19 km</desc>
<time>2010-02-28T10:28:23.54</time>
<name>776</name>
</trkpt>
<trkpt lat="48.936290" lon="8.673028">
<ele>387.0</ele>
<speed>4.1</speed>
<course>236.0</course>
<desc>Speed 4.1 km/h Distance 1.19 km</desc>
<time>2010-02-28T10:28:24.54</time>
<name>777</name>
</trkpt>
<trkpt lat="48.936283" lon="8.673013">
<ele>386.0</ele>
<speed>3.9</speed>
<course>232.8</course>
<desc>Speed 3.9 km/h Distance 1.20 km</desc>
<time>2010-02-28T10:28:25.54</time>
<name>778</name>
</trkpt>
<trkpt lat="48.936277" lon="8.673000">
<ele>386.0</ele>
<speed>4.2</speed>
<course>226.5</course>
<desc>Speed 4.2 km/h Distance 1.20 km</desc>
<time>2010-02-28T10:28:26.54</time>
<name>779</name>
</trkpt>
<trkpt lat="48.936268" lon="8.672987">
<ele>386.0</ele>
<speed>4.1</speed>
<course>251.3</course>
<desc>Speed 4.1 km/h Distance 1.20 km</desc>
<time>2010-02-28T10:28:27.54</time>
<name>780</name>
</trkpt>
<trkpt lat="48.936265" lon="8.672972">
<ele>385.5</ele>
<speed>3.8</speed>
<course>224.5</course>
<desc>Speed 3.8 km/h Distance 1.20 km</desc>
<time>2010-02-28T10:28:28.54</time>
<name>781</name>
</trkpt>
<trkpt lat="48.936258" lon="8.672962">
<ele>386.0</ele>
<speed>3.5</speed>
<course>233.0</course>
<desc>Speed 3.5 km/h Distance 1.20 km</desc>
<time>2010-02-28T10:28:29.54</time>
<name>782</name>
</trkpt>
<trkpt lat="48.936252" lon="8.672948">
<ele>385.5</ele>
<speed>3.7</speed>
<course>232.7</course>
<desc>Speed 3.7 km/h Distance 1.20 km</desc>
<time>2010-02-28T10:28:30.54</time>
<name>783</name>
</trkpt>
<trkpt lat="48.936245" lon="8.672935">
<ele>385.5</ele>
<speed>4.7</speed>
<course>236.9</course>
<desc>Speed 4.7 km/h Distance 1.20 km</desc>
<time>2010-02-28T10:28:31.54</time>
<name>784</name>
</trkpt>
<trkpt lat="48.936240" lon="8.672923">
<ele>385.5</ele>
<speed>3.1</speed>
<course>232.8</course>
<desc>Speed 3.1 km/h Distance 1.20 km</desc>
<time>2010-02-28T10:28:32.54</time>
<name>785</name>
</trkpt>
<trkpt lat="48.936233" lon="8.672910">
<ele>385.0</ele>
<speed>4.2</speed>
<course>232.7</course>
<desc>Speed 4.2 km/h Distance 1.20 km</desc>
<time>2010-02-28T10:28:33.54</time>
<name>786</name>
</trkpt>
<trkpt lat="48.936225" lon="8.672893">
<ele>385.0</ele>
<speed>4.6</speed>
<course>253.1</course>
<desc>Speed 4.6 km/h Distance 1.21 km</desc>
<time>2010-02-28T10:28:34.54</time>
<name>787</name>
</trkpt>
<trkpt lat="48.936222" lon="8.672877">
<ele>385.0</ele>
<speed>4.3</speed>
<course>245.4</course>
<desc>Speed 4.3 km/h Distance 1.21 km</desc>
<time>2010-02-28T10:28:35.54</time>
<name>788</name>
</trkpt>
<trkpt lat="48.936217" lon="8.672860">
<ele>385.0</ele>
<speed>4.6</speed>
<course>235.9</course>
<desc>Speed 4.6 km/h Distance 1.21 km</desc>
<time>2010-02-28T10:28:36.54</time>
<name>789</name>
</trkpt>
<trkpt lat="48.936210" lon="8.672845">
<ele>384.5</ele>
<speed>4.6</speed>
<course>251.3</course>
<desc>Speed 4.6 km/h Distance 1.21 km</desc>
<time>2010-02-28T10:28:37.54</time>
<name>790</name>
</trkpt>
<trkpt lat="48.936207" lon="8.672830">
<ele>385.0</ele>
<speed>4.1</speed>
<course>238.6</course>
<desc>Speed 4.1 km/h Distance 1.21 km</desc>
<time>2010-02-28T10:28:38.54</time>
<name>791</name>
</trkpt>
<trkpt lat="48.936200" lon="8.672813">
<ele>385.0</ele>
<speed>4.9</speed>
<course>262.1</course>
<desc>Speed 4.9 km/h Distance 1.21 km</desc>
<time>2010-02-28T10:28:39.54</time>
<name>792</name>
</trkpt>
<trkpt lat="48.936198" lon="8.672795">
<ele>385.5</ele>
<speed>5.1</speed>
<course>229.8</course>
<desc>Speed 5.1 km/h Distance 1.21 km</desc>
<time>2010-02-28T10:28:40.54</time>
<name>793</name>
</trkpt>
<trkpt lat="48.936190" lon="8.672780">
<ele>385.5</ele>
<speed>4.3</speed>
<course>243.1</course>
<desc>Speed 4.3 km/h Distance 1.22 km</desc>
<time>2010-02-28T10:28:41.54</time>
<name>794</name>
</trkpt>
<trkpt lat="48.936185" lon="8.672765">
<ele>385.0</ele>
<speed>4.3</speed>
<course>229.9</course>
<desc>Speed 4.3 km/h Distance 1.22 km</desc>
<time>2010-02-28T10:28:42.54</time>
<name>795</name>
</trkpt>
<trkpt lat="48.936177" lon="8.672750">
<ele>385.0</ele>
<speed>4.3</speed>
<course>259.3</course>
<desc>Speed 4.3 km/h Distance 1.22 km</desc>
<time>2010-02-28T10:28:43.54</time>
<name>796</name>
</trkpt>
<trkpt lat="48.936175" lon="8.672737">
<ele>385.0</ele>
<speed>2.8</speed>
<course>290.9</course>
<desc>Speed 2.8 km/h Distance 1.22 km</desc>
<time>2010-02-28T10:28:44.54</time>
<name>797</name>
</trkpt>
<trkpt lat="48.936177" lon="8.672730">
<ele>384.5</ele>
<speed>1.7</speed>
<course>203.0</course>
<desc>Speed 1.7 km/h Distance 1.22 km</desc>
<time>2010-02-28T10:28:45.54</time>
<name>798</name>
</trkpt>
<trkpt lat="48.936173" lon="8.672728">
<ele>384.5</ele>
<speed>0.9</speed>
<course>228.9</course>
<desc>Speed 0.9 km/h Distance 1.22 km</desc>
<time>2010-02-28T10:28:46.54</time>
<name>799</name>
</trkpt>
<trkpt lat="48.936167" lon="8.672717">
<ele>384.0</ele>
<speed>3.3</speed>
<course>236.0</course>
<desc>Speed 3.3 km/h Distance 1.22 km</desc>
<time>2010-02-28T10:28:47.54</time>
<name>800</name>
</trkpt>
<trkpt lat="48.936160" lon="8.672702">
<ele>384.0</ele>
<speed>4.0</speed>
<course>230.3</course>
<desc>Speed 4.0 km/h Distance 1.22 km</desc>
<time>2010-02-28T10:28:48.54</time>
<name>801</name>
</trkpt>
<trkpt lat="48.936150" lon="8.672683">
<ele>383.5</ele>
<speed>4.6</speed>
<course>243.1</course>
<desc>Speed 4.6 km/h Distance 1.22 km</desc>
<time>2010-02-28T10:28:49.54</time>
<name>802</name>
</trkpt>
<trkpt lat="48.936145" lon="8.672668">
<ele>383.5</ele>
<speed>3.1</speed>
<course>232.7</course>
<desc>Speed 3.1 km/h Distance 1.23 km</desc>
<time>2010-02-28T10:28:50.54</time>
<name>803</name>
</trkpt>
<trkpt lat="48.936137" lon="8.672652">
<ele>383.0</ele>
<speed>3.6</speed>
<course>256.8</course>
<desc>Speed 3.6 km/h Distance 1.23 km</desc>
<time>2010-02-28T10:28:51.54</time>
<name>804</name>
</trkpt>
<trkpt lat="48.936133" lon="8.672630">
<ele>384.5</ele>
<speed>4.4</speed>
<course>243.1</course>
<desc>Speed 4.4 km/h Distance 1.23 km</desc>
<time>2010-02-28T10:28:52.54</time>
<name>805</name>
</trkpt>
<trkpt lat="48.936128" lon="8.672615">
<ele>384.5</ele>
<speed>4.1</speed>
<course>245.4</course>
<desc>Speed 4.1 km/h Distance 1.23 km</desc>
<time>2010-02-28T10:28:53.54</time>
<name>806</name>
</trkpt>
<trkpt lat="48.936123" lon="8.672598">
<ele>385.0</ele>
<speed>4.1</speed>
<course>221.3</course>
<desc>Speed 4.1 km/h Distance 1.23 km</desc>
<time>2010-02-28T10:28:54.54</time>
<name>807</name>
</trkpt>
<trkpt lat="48.936113" lon="8.672585">
<ele>384.5</ele>
<speed>3.9</speed>
<course>229.7</course>
<desc>Speed 3.9 km/h Distance 1.23 km</desc>
<time>2010-02-28T10:28:55.54</time>
<name>808</name>
</trkpt>
<trkpt lat="48.936105" lon="8.672570">
<ele>384.5</ele>
<speed>4.2</speed>
<course>231.1</course>
<desc>Speed 4.2 km/h Distance 1.23 km</desc>
<time>2010-02-28T10:28:56.54</time>
<name>809</name>
</trkpt>
<trkpt lat="48.936090" lon="8.672542">
<ele>384.5</ele>
<speed>4.5</speed>
<course>238.6</course>
<desc>Speed 4.5 km/h Distance 1.24 km</desc>
<time>2010-02-28T10:28:57.54</time>
<name>810</name>
</trkpt>
<trkpt lat="48.936083" lon="8.672525">
<ele>384.5</ele>
<speed>4.0</speed>
<course>243.1</course>
<desc>Speed 4.0 km/h Distance 1.24 km</desc>
<time>2010-02-28T10:28:58.54</time>
<name>811</name>
</trkpt>
<trkpt lat="48.936078" lon="8.672510">
<ele>385.0</ele>
<speed>4.2</speed>
<course>236.9</course>
<desc>Speed 4.2 km/h Distance 1.24 km</desc>
<time>2010-02-28T10:28:59.54</time>
<name>812</name>
</trkpt>
<trkpt lat="48.936073" lon="8.672498">
<ele>385.0</ele>
<speed>3.3</speed>
<course>222.6</course>
<desc>Speed 3.3 km/h Distance 1.24 km</desc>
<time>2010-02-28T10:29:00.54</time>
<name>813</name>
</trkpt>
<trkpt lat="48.936065" lon="8.672487">
<ele>385.0</ele>
<speed>3.7</speed>
<course>226.8</course>
<desc>Speed 3.7 km/h Distance 1.24 km</desc>
<time>2010-02-28T10:29:01.54</time>
<name>814</name>
</trkpt>
<trkpt lat="48.936030" lon="8.672430">
<ele>387.0</ele>
<speed>5.3</speed>
<course>240.3</course>
<desc>Speed 5.3 km/h Distance 1.25 km</desc>
<time>2010-02-28T10:29:03.54</time>
<name>815</name>
</trkpt>
<trkpt lat="48.936025" lon="8.672417">
<ele>387.0</ele>
<speed>3.7</speed>
<course>240.3</course>
<desc>Speed 3.7 km/h Distance 1.25 km</desc>
<time>2010-02-28T10:29:04.54</time>
<name>816</name>
</trkpt>
<trkpt lat="48.936020" lon="8.672403">
<ele>387.5</ele>
<speed>3.7</speed>
<course>236.9</course>
<desc>Speed 3.7 km/h Distance 1.25 km</desc>
<time>2010-02-28T10:29:05.54</time>
<name>817</name>
</trkpt>
<trkpt lat="48.936015" lon="8.672392">
<ele>388.5</ele>
<speed>4.0</speed>
<course>222.6</course>
<desc>Speed 4.0 km/h Distance 1.25 km</desc>
<time>2010-02-28T10:29:06.54</time>
<name>818</name>
</trkpt>
<trkpt lat="48.936007" lon="8.672380">
<ele>388.0</ele>
<speed>4.3</speed>
<course>236.9</course>
<desc>Speed 4.3 km/h Distance 1.25 km</desc>
<time>2010-02-28T10:29:07.54</time>
<name>819</name>
</trkpt>
<trkpt lat="48.936002" lon="8.672368">
<ele>388.0</ele>
<speed>3.9</speed>
<course>221.4</course>
<desc>Speed 3.9 km/h Distance 1.25 km</desc>
<time>2010-02-28T10:29:08.54</time>
<name>820</name>
</trkpt>
<trkpt lat="48.935992" lon="8.672355">
<ele>388.5</ele>
<speed>5.0</speed>
<course>221.3</course>
<desc>Speed 5.0 km/h Distance 1.25 km</desc>
<time>2010-02-28T10:29:09.54</time>
<name>821</name>
</trkpt>
<trkpt lat="48.935982" lon="8.672342">
<ele>388.5</ele>
<speed>5.2</speed>
<course>201.5</course>
<desc>Speed 5.2 km/h Distance 1.26 km</desc>
<time>2010-02-28T10:29:10.54</time>
<name>822</name>
</trkpt>
<trkpt lat="48.935973" lon="8.672337">
<ele>389.0</ele>
<speed>2.8</speed>
<course>221.3</course>
<desc>Speed 2.8 km/h Distance 1.26 km</desc>
<time>2010-02-28T10:29:11.54</time>
<name>823</name>
</trkpt>
<trkpt lat="48.935963" lon="8.672323">
<ele>388.5</ele>
<speed>4.9</speed>
<course>203.7</course>
<desc>Speed 4.9 km/h Distance 1.26 km</desc>
<time>2010-02-28T10:29:12.54</time>
<name>824</name>
</trkpt>
<trkpt lat="48.935948" lon="8.672313">
<ele>388.0</ele>
<speed>5.3</speed>
<course>196.0</course>
<desc>Speed 5.3 km/h Distance 1.26 km</desc>
<time>2010-02-28T10:29:13.54</time>
<name>825</name>
</trkpt>
<trkpt lat="48.935937" lon="8.672308">
<ele>387.0</ele>
<speed>4.5</speed>
<course>196.0</course>
<desc>Speed 4.5 km/h Distance 1.26 km</desc>
<time>2010-02-28T10:29:14.54</time>
<name>826</name>
</trkpt>
<trkpt lat="48.935925" lon="8.672303">
<ele>385.5</ele>
<speed>4.2</speed>
<course>205.2</course>
<desc>Speed 4.2 km/h Distance 1.26 km</desc>
<time>2010-02-28T10:29:15.54</time>
<name>827</name>
</trkpt>
<trkpt lat="48.935913" lon="8.672295">
<ele>384.5</ele>
<speed>3.5</speed>
<course>202.3</course>
<desc>Speed 3.5 km/h Distance 1.26 km</desc>
<time>2010-02-28T10:29:16.54</time>
<name>828</name>
</trkpt>
<trkpt lat="48.935900" lon="8.672287">
<ele>383.5</ele>
<speed>4.0</speed>
<course>205.2</course>
<desc>Speed 4.0 km/h Distance 1.27 km</desc>
<time>2010-02-28T10:29:17.54</time>
<name>829</name>
</trkpt>
<trkpt lat="48.935888" lon="8.672278">
<ele>382.5</ele>
<speed>2.7</speed>
<course>210.0</course>
<desc>Speed 2.7 km/h Distance 1.27 km</desc>
<time>2010-02-28T10:29:18.54</time>
<name>830</name>
</trkpt>
<trkpt lat="48.935875" lon="8.672267">
<ele>383.0</ele>
<speed>3.2</speed>
<course>221.2</course>
<desc>Speed 3.2 km/h Distance 1.27 km</desc>
<time>2010-02-28T10:29:19.54</time>
<name>831</name>
</trkpt>
<trkpt lat="48.935860" lon="8.672247">
<ele>382.5</ele>
<speed>2.2</speed>
<course>215.8</course>
<desc>Speed 2.2 km/h Distance 1.27 km</desc>
<time>2010-02-28T10:29:20.54</time>
<name>832</name>
</trkpt>
<trkpt lat="48.935843" lon="8.672228">
<ele>382.5</ele>
<speed>2.0</speed>
<course>215.6</course>
<desc>Speed 2.0 km/h Distance 1.27 km</desc>
<time>2010-02-28T10:29:21.54</time>
<name>833</name>
</trkpt>
<trkpt lat="48.935825" lon="8.672208">
<ele>381.0</ele>
<speed>2.6</speed>
<course>192.6</course>
<desc>Speed 2.6 km/h Distance 1.28 km</desc>
<time>2010-02-28T10:29:22.54</time>
<name>834</name>
</trkpt>
<trkpt lat="48.935815" lon="8.672205">
<ele>380.5</ele>
<speed>2.2</speed>
<course>139.1</course>
<desc>Speed 2.2 km/h Distance 1.28 km</desc>
<time>2010-02-28T10:29:23.54</time>
<name>835</name>
</trkpt>
<trkpt lat="48.935810" lon="8.672212">
<ele>381.0</ele>
<speed>2.7</speed>
<course>192.6</course>
<desc>Speed 2.7 km/h Distance 1.28 km</desc>
<time>2010-02-28T10:29:24.54</time>
<name>836</name>
</trkpt>
<trkpt lat="48.935805" lon="8.672210">
<ele>379.5</ele>
<speed>1.9</speed>
<course>156.2</course>
<desc>Speed 1.9 km/h Distance 1.28 km</desc>
<time>2010-02-28T10:29:25.54</time>
<name>837</name>
</trkpt>
<trkpt lat="48.935800" lon="8.672213">
<ele>380.5</ele>
<speed>2.4</speed>
<course>201.5</course>
<desc>Speed 2.4 km/h Distance 1.28 km</desc>
<time>2010-02-28T10:29:26.54</time>
<name>838</name>
</trkpt>
<trkpt lat="48.935792" lon="8.672208">
<ele>381.0</ele>
<speed>2.7</speed>
<course>191.2</course>
<desc>Speed 2.7 km/h Distance 1.28 km</desc>
<time>2010-02-28T10:29:27.54</time>
<name>839</name>
</trkpt>
<trkpt lat="48.935780" lon="8.672205">
<ele>383.0</ele>
<speed>2.9</speed>
<course>203.7</course>
<desc>Speed 2.9 km/h Distance 1.28 km</desc>
<time>2010-02-28T10:29:28.54</time>
<name>840</name>
</trkpt>
<trkpt lat="48.935765" lon="8.672195">
<ele>384.0</ele>
<speed>2.4</speed>
<course>161.2</course>
<desc>Speed 2.4 km/h Distance 1.28 km</desc>
<time>2010-02-28T10:29:29.54</time>
<name>841</name>
</trkpt>
<trkpt lat="48.935762" lon="8.672197">
<ele>384.5</ele>
<speed>1.9</speed>
<course>156.2</course>
<desc>Speed 1.9 km/h Distance 1.28 km</desc>
<time>2010-02-28T10:29:30.54</time>
<name>842</name>
</trkpt>
<trkpt lat="48.935752" lon="8.672203">
<ele>384.0</ele>
<speed>3.9</speed>
<course>164.5</course>
<desc>Speed 3.9 km/h Distance 1.28 km</desc>
<time>2010-02-28T10:29:31.54</time>
<name>843</name>
</trkpt>
<trkpt lat="48.935740" lon="8.672208">
<ele>384.5</ele>
<speed>3.4</speed>
<course>161.2</course>
<desc>Speed 3.4 km/h Distance 1.29 km</desc>
<time>2010-02-28T10:29:32.54</time>
<name>844</name>
</trkpt>
<trkpt lat="48.935733" lon="8.672212">
<ele>384.0</ele>
<speed>2.7</speed>
<course>175.0</course>
<desc>Speed 2.7 km/h Distance 1.29 km</desc>
<time>2010-02-28T10:29:33.54</time>
<name>845</name>
</trkpt>
<trkpt lat="48.935725" lon="8.672213">
<ele>383.5</ele>
<speed>2.5</speed>
<course>165.1</course>
<desc>Speed 2.5 km/h Distance 1.29 km</desc>
<time>2010-02-28T10:29:34.54</time>
<name>846</name>
</trkpt>
<trkpt lat="48.935717" lon="8.672217">
<ele>383.0</ele>
<speed>2.7</speed>
<course>175.0</course>
<desc>Speed 2.7 km/h Distance 1.29 km</desc>
<time>2010-02-28T10:29:35.54</time>
<name>847</name>
</trkpt>
<trkpt lat="48.935708" lon="8.672218">
<ele>381.5</ele>
<speed>1.8</speed>
<course>167.4</course>
<desc>Speed 1.8 km/h Distance 1.29 km</desc>
<time>2010-02-28T10:29:36.54</time>
<name>848</name>
</trkpt>
<trkpt lat="48.935698" lon="8.672222">
<ele>380.5</ele>
<speed>2.1</speed>
<course>169.6</course>
<desc>Speed 2.1 km/h Distance 1.29 km</desc>
<time>2010-02-28T10:29:37.54</time>
<name>849</name>
</trkpt>
<trkpt lat="48.935687" lon="8.672225">
<ele>379.0</ele>
<speed>2.3</speed>
<course>193.5</course>
<desc>Speed 2.3 km/h Distance 1.29 km</desc>
<time>2010-02-28T10:29:38.54</time>
<name>850</name>
</trkpt>
<trkpt lat="48.935673" lon="8.672220">
<ele>377.5</ele>
<speed>3.6</speed>
<course>177.8</course>
<desc>Speed 3.6 km/h Distance 1.29 km</desc>
<time>2010-02-28T10:29:39.54</time>
<name>851</name>
</trkpt>
<trkpt lat="48.935662" lon="8.672220">
<ele>375.5</ele>
<speed>2.1</speed>
<course>175.6</course>
<desc>Speed 2.1 km/h Distance 1.30 km</desc>
<time>2010-02-28T10:29:40.54</time>
<name>852</name>
</trkpt>
<trkpt lat="48.935652" lon="8.672222">
<ele>376.0</ele>
<speed>3.1</speed>
<course>166.2</course>
<desc>Speed 3.1 km/h Distance 1.30 km</desc>
<time>2010-02-28T10:29:41.54</time>
<name>853</name>
</trkpt>
<trkpt lat="48.935643" lon="8.672225">
<ele>376.0</ele>
<speed>2.4</speed>
<course>180.0</course>
<desc>Speed 2.4 km/h Distance 1.30 km</desc>
<time>2010-02-28T10:29:42.54</time>
<name>854</name>
</trkpt>
<trkpt lat="48.935635" lon="8.672225">
<ele>375.0</ele>
<speed>2.7</speed>
<course>167.4</course>
<desc>Speed 2.7 km/h Distance 1.30 km</desc>
<time>2010-02-28T10:29:43.54</time>
<name>855</name>
</trkpt>
<trkpt lat="48.935625" lon="8.672228">
<ele>375.0</ele>
<speed>3.2</speed>
<course>146.8</course>
<desc>Speed 3.2 km/h Distance 1.30 km</desc>
<time>2010-02-28T10:29:44.54</time>
<name>856</name>
</trkpt>
<trkpt lat="48.935618" lon="8.672235">
<ele>376.5</ele>
<speed>2.9</speed>
<course>192.6</course>
<desc>Speed 2.9 km/h Distance 1.30 km</desc>
<time>2010-02-28T10:29:45.54</time>
<name>857</name>
</trkpt>
<trkpt lat="48.935613" lon="8.672233">
<ele>376.5</ele>
<speed>1.2</speed>
<course>158.5</course>
<desc>Speed 1.2 km/h Distance 1.30 km</desc>
<time>2010-02-28T10:29:46.54</time>
<name>858</name>
</trkpt>
<trkpt lat="48.935605" lon="8.672238">
<ele>377.0</ele>
<speed>2.8</speed>
<course>213.7</course>
<desc>Speed 2.8 km/h Distance 1.30 km</desc>
<time>2010-02-28T10:29:47.54</time>
<name>859</name>
</trkpt>
<trkpt lat="48.935602" lon="8.672235">
<ele>377.0</ele>
<speed>0.2</speed>
<course>190.3</course>
<desc>Speed 0.2 km/h Distance 1.30 km</desc>
<time>2010-02-28T10:29:48.54</time>
<name>860</name>
</trkpt>
<trkpt lat="48.935595" lon="8.672233">
<ele>377.0</ele>
<speed>1.6</speed>
<course>169.7</course>
<desc>Speed 1.6 km/h Distance 1.30 km</desc>
<time>2010-02-28T10:29:49.54</time>
<name>861</name>
</trkpt>
<trkpt lat="48.935588" lon="8.672235">
<ele>376.5</ele>
<speed>2.1</speed>
<course>157.8</course>
<desc>Speed 2.1 km/h Distance 1.30 km</desc>
<time>2010-02-28T10:29:50.54</time>
<name>862</name>
</trkpt>
<trkpt lat="48.935583" lon="8.672238">
<ele>375.5</ele>
<speed>1.2</speed>
<course>164.0</course>
<desc>Speed 1.2 km/h Distance 1.30 km</desc>
<time>2010-02-28T10:29:51.54</time>
<name>863</name>
</trkpt>
<trkpt lat="48.935577" lon="8.672242">
<ele>376.0</ele>
<speed>1.6</speed>
<course>156.2</course>
<desc>Speed 1.6 km/h Distance 1.31 km</desc>
<time>2010-02-28T10:29:52.54</time>
<name>864</name>
</trkpt>
<trkpt lat="48.935567" lon="8.672248">
<ele>376.5</ele>
<speed>3.8</speed>
<course>90.0</course>
<desc>Speed 3.8 km/h Distance 1.31 km</desc>
<time>2010-02-28T10:29:53.54</time>
<name>865</name>
</trkpt>
<trkpt lat="48.935567" lon="8.672255">
<ele>377.5</ele>
<speed>2.8</speed>
<course>177.2</course>
<desc>Speed 2.8 km/h Distance 1.31 km</desc>
<time>2010-02-28T10:29:54.54</time>
<name>866</name>
</trkpt>
<trkpt lat="48.935550" lon="8.672257">
<ele>379.0</ele>
<speed>4.0</speed>
<course>156.6</course>
<desc>Speed 4.0 km/h Distance 1.31 km</desc>
<time>2010-02-28T10:29:55.54</time>
<name>867</name>
</trkpt>
<trkpt lat="48.935540" lon="8.672263">
<ele>381.5</ele>
<speed>2.2</speed>
<course>153.6</course>
<desc>Speed 2.2 km/h Distance 1.31 km</desc>
<time>2010-02-28T10:29:56.54</time>
<name>868</name>
</trkpt>
<trkpt lat="48.935533" lon="8.672268">
<ele>381.5</ele>
<speed>1.6</speed>
<course>150.6</course>
<desc>Speed 1.6 km/h Distance 1.31 km</desc>
<time>2010-02-28T10:29:57.54</time>
<name>869</name>
</trkpt>
<trkpt lat="48.935522" lon="8.672278">
<ele>382.0</ele>
<speed>3.0</speed>
<course>161.8</course>
<desc>Speed 3.0 km/h Distance 1.31 km</desc>
<time>2010-02-28T10:29:58.54</time>
<name>870</name>
</trkpt>
<trkpt lat="48.935512" lon="8.672283">
<ele>382.0</ele>
<speed>3.5</speed>
<course>140.6</course>
<desc>Speed 3.5 km/h Distance 1.31 km</desc>
<time>2010-02-28T10:29:59.54</time>
<name>871</name>
</trkpt>
<trkpt lat="48.935505" lon="8.672292">
<ele>382.5</ele>
<speed>2.6</speed>
<course>153.6</course>
<desc>Speed 2.6 km/h Distance 1.31 km</desc>
<time>2010-02-28T10:30:00.54</time>
<name>872</name>
</trkpt>
<trkpt lat="48.935498" lon="8.672297">
<ele>382.0</ele>
<speed>2.2</speed>
<course>127.2</course>
<desc>Speed 2.2 km/h Distance 1.32 km</desc>
<time>2010-02-28T10:30:01.54</time>
<name>873</name>
</trkpt>
<trkpt lat="48.935493" lon="8.672307">
<ele>383.0</ele>
<speed>2.8</speed>
<course>141.9</course>
<desc>Speed 2.8 km/h Distance 1.32 km</desc>
<time>2010-02-28T10:30:02.54</time>
<name>874</name>
</trkpt>
<trkpt lat="48.935485" lon="8.672317">
<ele>383.5</ele>
<speed>3.4</speed>
<course>146.7</course>
<desc>Speed 3.4 km/h Distance 1.32 km</desc>
<time>2010-02-28T10:30:03.54</time>
<name>875</name>
</trkpt>
<trkpt lat="48.935473" lon="8.672328">
<ele>384.0</ele>
<speed>3.6</speed>
<course>152.1</course>
<desc>Speed 3.6 km/h Distance 1.32 km</desc>
<time>2010-02-28T10:30:04.54</time>
<name>876</name>
</trkpt>
<trkpt lat="48.935465" lon="8.672335">
<ele>384.5</ele>
<speed>3.0</speed>
<course>141.9</course>
<desc>Speed 3.0 km/h Distance 1.32 km</desc>
<time>2010-02-28T10:30:05.54</time>
<name>877</name>
</trkpt>
<trkpt lat="48.935457" lon="8.672345">
<ele>385.0</ele>
<speed>4.1</speed>
<course>146.9</course>
<desc>Speed 4.1 km/h Distance 1.32 km</desc>
<time>2010-02-28T10:30:06.54</time>
<name>878</name>
</trkpt>
<trkpt lat="48.935445" lon="8.672357">
<ele>385.5</ele>
<speed>4.3</speed>
<course>146.7</course>
<desc>Speed 4.3 km/h Distance 1.32 km</desc>
<time>2010-02-28T10:30:07.54</time>
<name>879</name>
</trkpt>
<trkpt lat="48.935432" lon="8.672370">
<ele>386.0</ele>
<speed>3.8</speed>
<course>161.2</course>
<desc>Speed 3.8 km/h Distance 1.32 km</desc>
<time>2010-02-28T10:30:08.54</time>
<name>880</name>
</trkpt>
<trkpt lat="48.935428" lon="8.672372">
<ele>386.0</ele>
<speed>1.3</speed>
<course>121.4</course>
<desc>Speed 1.3 km/h Distance 1.32 km</desc>
<time>2010-02-28T10:30:09.54</time>
<name>881</name>
</trkpt>
<trkpt lat="48.935425" lon="8.672380">
<ele>387.5</ele>
<speed>2.3</speed>
<course>172.6</course>
<desc>Speed 2.3 km/h Distance 1.33 km</desc>
<time>2010-02-28T10:30:10.54</time>
<name>882</name>
</trkpt>
<trkpt lat="48.935418" lon="8.672382">
<ele>387.5</ele>
<speed>2.0</speed>
<course>167.4</course>
<desc>Speed 2.0 km/h Distance 1.33 km</desc>
<time>2010-02-28T10:30:11.54</time>
<name>883</name>
</trkpt>
<trkpt lat="48.935413" lon="8.672383">
<ele>387.0</ele>
<speed>1.7</speed>
<course>172.6</course>
<desc>Speed 1.7 km/h Distance 1.33 km</desc>
<time>2010-02-28T10:30:12.54</time>
<name>884</name>
</trkpt>
<trkpt lat="48.935407" lon="8.672385">
<ele>387.0</ele>
<speed>2.2</speed>
<course>172.6</course>
<desc>Speed 2.2 km/h Distance 1.33 km</desc>
<time>2010-02-28T10:30:13.54</time>
<name>885</name>
</trkpt>
<trkpt lat="48.935400" lon="8.672387">
<ele>386.0</ele>
<speed>1.7</speed>
<course>167.4</course>
<desc>Speed 1.7 km/h Distance 1.33 km</desc>
<time>2010-02-28T10:30:14.54</time>
<name>886</name>
</trkpt>
<trkpt lat="48.935390" lon="8.672390">
<ele>386.0</ele>
<speed>2.4</speed>
<course>170.5</course>
<desc>Speed 2.4 km/h Distance 1.33 km</desc>
<time>2010-02-28T10:30:15.54</time>
<name>887</name>
</trkpt>
<trkpt lat="48.935378" lon="8.672393">
<ele>385.0</ele>
<speed>2.2</speed>
<course>161.8</course>
<desc>Speed 2.2 km/h Distance 1.33 km</desc>
<time>2010-02-28T10:30:16.54</time>
<name>888</name>
</trkpt>
<trkpt lat="48.935368" lon="8.672398">
<ele>385.0</ele>
<speed>2.9</speed>
<course>133.6</course>
<desc>Speed 2.9 km/h Distance 1.33 km</desc>
<time>2010-02-28T10:30:17.54</time>
<name>889</name>
</trkpt>
<trkpt lat="48.935360" lon="8.672412">
<ele>386.0</ele>
<speed>2.4</speed>
<course>176.2</course>
<desc>Speed 2.4 km/h Distance 1.33 km</desc>
<time>2010-02-28T10:30:18.54</time>
<name>890</name>
</trkpt>
<trkpt lat="48.935345" lon="8.672413">
<ele>386.0</ele>
<speed>5.8</speed>
<course>168.8</course>
<desc>Speed 5.8 km/h Distance 1.33 km</desc>
<time>2010-02-28T10:30:19.54</time>
<name>891</name>
</trkpt>
<trkpt lat="48.935333" lon="8.672417">
<ele>388.0</ele>
<speed>3.6</speed>
<course>132.6</course>
<desc>Speed 3.6 km/h Distance 1.34 km</desc>
<time>2010-02-28T10:30:20.54</time>
<name>892</name>
</trkpt>
<trkpt lat="48.935328" lon="8.672425">
<ele>388.0</ele>
<speed>3.2</speed>
<course>146.3</course>
<desc>Speed 3.2 km/h Distance 1.34 km</desc>
<time>2010-02-28T10:30:21.54</time>
<name>893</name>
</trkpt>
<trkpt lat="48.935322" lon="8.672432">
<ele>388.5</ele>
<speed>2.8</speed>
<course>146.2</course>
<desc>Speed 2.8 km/h Distance 1.34 km</desc>
<time>2010-02-28T10:30:22.54</time>
<name>894</name>
</trkpt>
<trkpt lat="48.935313" lon="8.672440">
<ele>388.5</ele>
<speed>2.6</speed>
<course>146.3</course>
<desc>Speed 2.6 km/h Distance 1.34 km</desc>
<time>2010-02-28T10:30:23.54</time>
<name>895</name>
</trkpt>
<trkpt lat="48.935307" lon="8.672447">
<ele>388.5</ele>
<speed>2.1</speed>
<course>130.9</course>
<desc>Speed 2.1 km/h Distance 1.34 km</desc>
<time>2010-02-28T10:30:24.54</time>
<name>896</name>
</trkpt>
<trkpt lat="48.935300" lon="8.672458">
<ele>389.0</ele>
<speed>2.6</speed>
<course>142.5</course>
<desc>Speed 2.6 km/h Distance 1.34 km</desc>
<time>2010-02-28T10:30:25.54</time>
<name>897</name>
</trkpt>
<trkpt lat="48.935290" lon="8.672470">
<ele>389.0</ele>
<speed>3.1</speed>
<course>146.3</course>
<desc>Speed 3.1 km/h Distance 1.34 km</desc>
<time>2010-02-28T10:30:26.54</time>
<name>898</name>
</trkpt>
<trkpt lat="48.935280" lon="8.672480">
<ele>389.0</ele>
<speed>3.9</speed>
<course>146.7</course>
<desc>Speed 3.9 km/h Distance 1.34 km</desc>
<time>2010-02-28T10:30:27.54</time>
<name>899</name>
</trkpt>
<trkpt lat="48.935243" lon="8.672517">
<ele>389.0</ele>
<speed>2.7</speed>
<course>139.8</course>
<desc>Speed 2.7 km/h Distance 1.35 km</desc>
<time>2010-02-28T10:30:29.54</time>
<name>900</name>
</trkpt>
<trkpt lat="48.935232" lon="8.672532">
<ele>389.0</ele>
<speed>2.3</speed>
<course>270.0</course>
<desc>Speed 2.3 km/h Distance 1.35 km</desc>
<time>2010-02-28T10:30:30.54</time>
<name>901</name>
</trkpt>
<trkpt lat="48.935232" lon="8.672527">
<ele>388.5</ele>
<speed>3.2</speed>
<course>144.6</course>
<desc>Speed 3.2 km/h Distance 1.35 km</desc>
<time>2010-02-28T10:30:31.54</time>
<name>902</name>
</trkpt>
<trkpt lat="48.935212" lon="8.672548">
<ele>389.0</ele>
<speed>3.1</speed>
<course>150.6</course>
<desc>Speed 3.1 km/h Distance 1.35 km</desc>
<time>2010-02-28T10:30:32.54</time>
<name>903</name>
</trkpt>
<trkpt lat="48.935200" lon="8.672558">
<ele>387.5</ele>
<speed>4.1</speed>
<course>141.9</course>
<desc>Speed 4.1 km/h Distance 1.36 km</desc>
<time>2010-02-28T10:30:33.54</time>
<name>904</name>
</trkpt>
<trkpt lat="48.935192" lon="8.672568">
<ele>388.5</ele>
<speed>3.2</speed>
<course>161.8</course>
<desc>Speed 3.2 km/h Distance 1.36 km</desc>
<time>2010-02-28T10:30:34.54</time>
<name>905</name>
</trkpt>
<trkpt lat="48.935182" lon="8.672573">
<ele>388.5</ele>
<speed>3.8</speed>
<course>133.6</course>
<desc>Speed 3.8 km/h Distance 1.36 km</desc>
<time>2010-02-28T10:30:35.54</time>
<name>906</name>
</trkpt>
<trkpt lat="48.935173" lon="8.672587">
<ele>388.5</ele>
<speed>3.0</speed>
<course>161.8</course>
<desc>Speed 3.0 km/h Distance 1.36 km</desc>
<time>2010-02-28T10:30:36.54</time>
<name>907</name>
</trkpt>
<trkpt lat="48.935163" lon="8.672592">
<ele>387.0</ele>
<speed>3.5</speed>
<course>135.5</course>
<desc>Speed 3.5 km/h Distance 1.36 km</desc>
<time>2010-02-28T10:30:37.54</time>
<name>908</name>
</trkpt>
<trkpt lat="48.935157" lon="8.672602">
<ele>386.5</ele>
<speed>3.3</speed>
<course>127.0</course>
<desc>Speed 3.3 km/h Distance 1.36 km</desc>
<time>2010-02-28T10:30:38.54</time>
<name>909</name>
</trkpt>
<trkpt lat="48.935153" lon="8.672608">
<ele>386.5</ele>
<speed>2.1</speed>
<course>157.8</course>
<desc>Speed 2.1 km/h Distance 1.36 km</desc>
<time>2010-02-28T10:30:39.54</time>
<name>910</name>
</trkpt>
<trkpt lat="48.935148" lon="8.672612">
<ele>386.5</ele>
<speed>2.0</speed>
<course>117.4</course>
<desc>Speed 2.0 km/h Distance 1.36 km</desc>
<time>2010-02-28T10:30:40.54</time>
<name>911</name>
</trkpt>
<trkpt lat="48.935147" lon="8.672617">
<ele>386.5</ele>
<speed>1.5</speed>
<course>136.8</course>
<desc>Speed 1.5 km/h Distance 1.36 km</desc>
<time>2010-02-28T10:30:41.54</time>
<name>912</name>
</trkpt>
<trkpt lat="48.935123" lon="8.672650">
<ele>386.5</ele>
<speed>2.1</speed>
<course>134.1</course>
<desc>Speed 2.1 km/h Distance 1.37 km</desc>
<time>2010-02-28T10:30:43.54</time>
<name>913</name>
</trkpt>
<trkpt lat="48.935112" lon="8.672668">
<ele>388.0</ele>
<speed>3.8</speed>
<course>130.9</course>
<desc>Speed 3.8 km/h Distance 1.37 km</desc>
<time>2010-02-28T10:30:44.54</time>
<name>914</name>
</trkpt>
<trkpt lat="48.935105" lon="8.672680">
<ele>388.5</ele>
<speed>4.6</speed>
<course>131.6</course>
<desc>Speed 4.6 km/h Distance 1.37 km</desc>
<time>2010-02-28T10:30:45.54</time>
<name>915</name>
</trkpt>
<trkpt lat="48.935093" lon="8.672700">
<ele>390.0</ele>
<speed>3.0</speed>
<course>90.0</course>
<desc>Speed 3.0 km/h Distance 1.37 km</desc>
<time>2010-02-28T10:30:46.54</time>
<name>916</name>
</trkpt>
<trkpt lat="48.935093" lon="8.672710">
<ele>390.0</ele>
<speed>2.4</speed>
<course>128.0</course>
<desc>Speed 2.4 km/h Distance 1.37 km</desc>
<time>2010-02-28T10:30:47.54</time>
<name>917</name>
</trkpt>
<trkpt lat="48.935060" lon="8.672775">
<ele>391.5</ele>
<speed>3.7</speed>
<course>124.3</course>
<desc>Speed 3.7 km/h Distance 1.38 km</desc>
<time>2010-02-28T10:30:49.54</time>
<name>918</name>
</trkpt>
<trkpt lat="48.935038" lon="8.672823">
<ele>390.5</ele>
<speed>3.2</speed>
<course>124.0</course>
<desc>Speed 3.2 km/h Distance 1.38 km</desc>
<time>2010-02-28T10:30:51.54</time>
<name>919</name>
</trkpt>
<trkpt lat="48.935032" lon="8.672838">
<ele>391.0</ele>
<speed>3.1</speed>
<course>116.9</course>
<desc>Speed 3.1 km/h Distance 1.38 km</desc>
<time>2010-02-28T10:30:52.54</time>
<name>920</name>
</trkpt>
<trkpt lat="48.935025" lon="8.672858">
<ele>391.0</ele>
<speed>3.1</speed>
<course>130.3</course>
<desc>Speed 3.1 km/h Distance 1.39 km</desc>
<time>2010-02-28T10:30:53.54</time>
<name>921</name>
</trkpt>
<trkpt lat="48.935017" lon="8.672873">
<ele>392.0</ele>
<speed>4.3</speed>
<course>107.1</course>
<desc>Speed 4.3 km/h Distance 1.39 km</desc>
<time>2010-02-28T10:30:54.54</time>
<name>922</name>
</trkpt>
<trkpt lat="48.935015" lon="8.672882">
<ele>392.0</ele>
<speed>1.0</speed>
<course>116.9</course>
<desc>Speed 1.0 km/h Distance 1.39 km</desc>
<time>2010-02-28T10:30:55.54</time>
<name>923</name>
</trkpt>
<trkpt lat="48.935010" lon="8.672897">
<ele>392.0</ele>
<speed>2.3</speed>
<course>124.7</course>
<desc>Speed 2.3 km/h Distance 1.39 km</desc>
<time>2010-02-28T10:30:56.54</time>
<name>924</name>
</trkpt>
<trkpt lat="48.935002" lon="8.672915">
<ele>392.5</ele>
<speed>2.8</speed>
<course>114.5</course>
<desc>Speed 2.8 km/h Distance 1.39 km</desc>
<time>2010-02-28T10:30:57.54</time>
<name>925</name>
</trkpt>
<trkpt lat="48.934997" lon="8.672932">
<ele>392.5</ele>
<speed>0.9</speed>
<course>124.7</course>
<desc>Speed 0.9 km/h Distance 1.39 km</desc>
<time>2010-02-28T10:30:58.54</time>
<name>926</name>
</trkpt>
<trkpt lat="48.934988" lon="8.672950">
<ele>392.5</ele>
<speed>2.6</speed>
<course>136.5</course>
<desc>Speed 2.6 km/h Distance 1.39 km</desc>
<time>2010-02-28T10:30:59.54</time>
<name>927</name>
</trkpt>
<trkpt lat="48.934985" lon="8.672955">
<ele>392.0</ele>
<speed>1.8</speed>
<course>270.0</course>
<desc>Speed 1.8 km/h Distance 1.39 km</desc>
<time>2010-02-28T10:31:00.54</time>
<name>928</name>
</trkpt>
<trkpt lat="48.934985" lon="8.672952">
<ele>392.0</ele>
<speed>1.5</speed>
<course>119.7</course>
<desc>Speed 1.5 km/h Distance 1.39 km</desc>
<time>2010-02-28T10:31:01.54</time>
<name>929</name>
</trkpt>
<trkpt lat="48.934980" lon="8.672965">
<ele>393.0</ele>
<speed>3.6</speed>
<course>127.2</course>
<desc>Speed 3.6 km/h Distance 1.39 km</desc>
<time>2010-02-28T10:31:02.54</time>
<name>930</name>
</trkpt>
<trkpt lat="48.934975" lon="8.672975">
<ele>392.5</ele>
<speed>2.6</speed>
<course>104.2</course>
<desc>Speed 2.6 km/h Distance 1.40 km</desc>
<time>2010-02-28T10:31:03.54</time>
<name>931</name>
</trkpt>
<trkpt lat="48.934973" lon="8.672985">
<ele>393.0</ele>
<speed>2.4</speed>
<course>130.3</course>
<desc>Speed 2.4 km/h Distance 1.40 km</desc>
<time>2010-02-28T10:31:04.54</time>
<name>932</name>
</trkpt>
<trkpt lat="48.934965" lon="8.673000">
<ele>393.0</ele>
<speed>4.1</speed>
<course>141.9</course>
<desc>Speed 4.1 km/h Distance 1.40 km</desc>
<time>2010-02-28T10:31:05.54</time>
<name>933</name>
</trkpt>
<trkpt lat="48.934957" lon="8.673010">
<ele>392.0</ele>
<speed>3.7</speed>
<course>124.7</course>
<desc>Speed 3.7 km/h Distance 1.40 km</desc>
<time>2010-02-28T10:31:06.54</time>
<name>934</name>
</trkpt>
<trkpt lat="48.934948" lon="8.673028">
<ele>392.0</ele>
<speed>4.4</speed>
<course>138.6</course>
<desc>Speed 4.4 km/h Distance 1.40 km</desc>
<time>2010-02-28T10:31:07.54</time>
<name>935</name>
</trkpt>
<trkpt lat="48.934943" lon="8.673035">
<ele>391.5</ele>
<speed>1.9</speed>
<course>127.3</course>
<desc>Speed 1.9 km/h Distance 1.40 km</desc>
<time>2010-02-28T10:31:08.54</time>
<name>936</name>
</trkpt>
<trkpt lat="48.934933" lon="8.673055">
<ele>391.5</ele>
<speed>2.9</speed>
<course>127.0</course>
<desc>Speed 2.9 km/h Distance 1.40 km</desc>
<time>2010-02-28T10:31:09.54</time>
<name>937</name>
</trkpt>
<trkpt lat="48.934930" lon="8.673062">
<ele>392.0</ele>
<speed>1.7</speed>
<course>114.6</course>
<desc>Speed 1.7 km/h Distance 1.40 km</desc>
<time>2010-02-28T10:31:10.54</time>
<name>938</name>
</trkpt>
<trkpt lat="48.934915" lon="8.673112">
<ele>392.5</ele>
<speed>3.5</speed>
<course>110.9</course>
<desc>Speed 3.5 km/h Distance 1.41 km</desc>
<time>2010-02-28T10:31:12.54</time>
<name>939</name>
</trkpt>
<trkpt lat="48.934910" lon="8.673132">
<ele>392.0</ele>
<speed>3.5</speed>
<course>79.2</course>
<desc>Speed 3.5 km/h Distance 1.41 km</desc>
<time>2010-02-28T10:31:13.54</time>
<name>940</name>
</trkpt>
<trkpt lat="48.934912" lon="8.673145">
<ele>392.5</ele>
<speed>3.0</speed>
<course>95.8</course>
<desc>Speed 3.0 km/h Distance 1.41 km</desc>
<time>2010-02-28T10:31:14.54</time>
<name>941</name>
</trkpt>
<trkpt lat="48.934910" lon="8.673170">
<ele>392.5</ele>
<speed>3.4</speed>
<course>97.2</course>
<desc>Speed 3.4 km/h Distance 1.41 km</desc>
<time>2010-02-28T10:31:15.54</time>
<name>942</name>
</trkpt>
<trkpt lat="48.934908" lon="8.673190">
<ele>394.5</ele>
<speed>4.2</speed>
<course>121.3</course>
<desc>Speed 4.2 km/h Distance 1.41 km</desc>
<time>2010-02-28T10:31:16.54</time>
<name>943</name>
</trkpt>
<trkpt lat="48.934898" lon="8.673215">
<ele>394.0</ele>
<speed>3.6</speed>
<course>121.3</course>
<desc>Speed 3.6 km/h Distance 1.42 km</desc>
<time>2010-02-28T10:31:17.54</time>
<name>944</name>
</trkpt>
<trkpt lat="48.934888" lon="8.673240">
<ele>393.5</ele>
<speed>4.1</speed>
<course>122.1</course>
<desc>Speed 4.1 km/h Distance 1.42 km</desc>
<time>2010-02-28T10:31:18.54</time>
<name>945</name>
</trkpt>
<trkpt lat="48.934877" lon="8.673268">
<ele>394.0</ele>
<speed>4.8</speed>
<course>130.2</course>
<desc>Speed 4.8 km/h Distance 1.42 km</desc>
<time>2010-02-28T10:31:19.54</time>
<name>946</name>
</trkpt>
<trkpt lat="48.934868" lon="8.673283">
<ele>394.0</ele>
<speed>4.4</speed>
<course>114.6</course>
<desc>Speed 4.4 km/h Distance 1.42 km</desc>
<time>2010-02-28T10:31:20.54</time>
<name>947</name>
</trkpt>
<trkpt lat="48.934863" lon="8.673300">
<ele>394.0</ele>
<speed>3.6</speed>
<course>90.0</course>
<desc>Speed 3.6 km/h Distance 1.42 km</desc>
<time>2010-02-28T10:31:21.54</time>
<name>948</name>
</trkpt>
<trkpt lat="48.934863" lon="8.673313">
<ele>395.5</ele>
<speed>3.1</speed>
<course>104.2</course>
<desc>Speed 3.1 km/h Distance 1.42 km</desc>
<time>2010-02-28T10:31:22.54</time>
<name>949</name>
</trkpt>
<trkpt lat="48.934860" lon="8.673333">
<ele>395.5</ele>
<speed>3.2</speed>
<course>103.2</course>
<desc>Speed 3.2 km/h Distance 1.43 km</desc>
<time>2010-02-28T10:31:23.54</time>
<name>950</name>
</trkpt>
<trkpt lat="48.934857" lon="8.673355">
<ele>396.5</ele>
<speed>3.1</speed>
<course>97.9</course>
<desc>Speed 3.1 km/h Distance 1.43 km</desc>
<time>2010-02-28T10:31:24.54</time>
<name>951</name>
</trkpt>
<trkpt lat="48.934855" lon="8.673373">
<ele>396.5</ele>
<speed>4.1</speed>
<course>106.9</course>
<desc>Speed 4.1 km/h Distance 1.43 km</desc>
<time>2010-02-28T10:31:25.54</time>
<name>952</name>
</trkpt>
<trkpt lat="48.934852" lon="8.673390">
<ele>396.0</ele>
<speed>2.5</speed>
<course>79.3</course>
<desc>Speed 2.5 km/h Distance 1.43 km</desc>
<time>2010-02-28T10:31:26.54</time>
<name>953</name>
</trkpt>
<trkpt lat="48.934853" lon="8.673403">
<ele>396.5</ele>
<speed>3.0</speed>
<course>110.9</course>
<desc>Speed 3.0 km/h Distance 1.43 km</desc>
<time>2010-02-28T10:31:27.54</time>
<name>954</name>
</trkpt>
<trkpt lat="48.934852" lon="8.673410">
<ele>396.5</ele>
<speed>2.0</speed>
<course>100.8</course>
<desc>Speed 2.0 km/h Distance 1.43 km</desc>
<time>2010-02-28T10:31:28.54</time>
<name>955</name>
</trkpt>
<trkpt lat="48.934850" lon="8.673423">
<ele>395.5</ele>
<speed>2.3</speed>
<course>108.7</course>
<desc>Speed 2.3 km/h Distance 1.43 km</desc>
<time>2010-02-28T10:31:29.54</time>
<name>956</name>
</trkpt>
<trkpt lat="48.934847" lon="8.673438">
<ele>395.0</ele>
<speed>2.6</speed>
<course>82.1</course>
<desc>Speed 2.6 km/h Distance 1.43 km</desc>
<time>2010-02-28T10:31:30.54</time>
<name>957</name>
</trkpt>
<trkpt lat="48.934848" lon="8.673457">
<ele>395.5</ele>
<speed>4.1</speed>
<course>113.5</course>
<desc>Speed 4.1 km/h Distance 1.44 km</desc>
<time>2010-02-28T10:31:31.54</time>
<name>958</name>
</trkpt>
<trkpt lat="48.934845" lon="8.673468">
<ele>395.0</ele>
<speed>3.7</speed>
<course>122.4</course>
<desc>Speed 3.7 km/h Distance 1.44 km</desc>
<time>2010-02-28T10:31:32.54</time>
<name>959</name>
</trkpt>
<trkpt lat="48.934837" lon="8.673488">
<ele>395.5</ele>
<speed>4.0</speed>
<course>119.0</course>
<desc>Speed 4.0 km/h Distance 1.44 km</desc>
<time>2010-02-28T10:31:33.54</time>
<name>960</name>
</trkpt>
<trkpt lat="48.934830" lon="8.673507">
<ele>396.0</ele>
<speed>4.0</speed>
<course>116.9</course>
<desc>Speed 4.0 km/h Distance 1.44 km</desc>
<time>2010-02-28T10:31:34.54</time>
<name>961</name>
</trkpt>
<trkpt lat="48.934823" lon="8.673527">
<ele>396.0</ele>
<speed>3.5</speed>
<course>119.7</course>
<desc>Speed 3.5 km/h Distance 1.44 km</desc>
<time>2010-02-28T10:31:35.54</time>
<name>962</name>
</trkpt>
<trkpt lat="48.934818" lon="8.673540">
<ele>395.0</ele>
<speed>4.1</speed>
<course>123.1</course>
<desc>Speed 4.1 km/h Distance 1.44 km</desc>
<time>2010-02-28T10:31:36.54</time>
<name>963</name>
</trkpt>
<trkpt lat="48.934808" lon="8.673563">
<ele>395.0</ele>
<speed>2.2</speed>
<course>113.5</course>
<desc>Speed 2.2 km/h Distance 1.44 km</desc>
<time>2010-02-28T10:31:37.54</time>
<name>964</name>
</trkpt>
<trkpt lat="48.934805" lon="8.673575">
<ele>395.5</ele>
<speed>2.9</speed>
<course>110.8</course>
<desc>Speed 2.9 km/h Distance 1.45 km</desc>
<time>2010-02-28T10:31:38.54</time>
<name>965</name>
</trkpt>
<trkpt lat="48.934802" lon="8.673588">
<ele>395.5</ele>
<speed>3.6</speed>
<course>110.8</course>
<desc>Speed 3.6 km/h Distance 1.45 km</desc>
<time>2010-02-28T10:31:39.54</time>
<name>966</name>
</trkpt>
<trkpt lat="48.934798" lon="8.673602">
<ele>396.0</ele>
<speed>3.6</speed>
<course>114.6</course>
<desc>Speed 3.6 km/h Distance 1.45 km</desc>
<time>2010-02-28T10:31:40.54</time>
<name>967</name>
</trkpt>
<trkpt lat="48.934793" lon="8.673618">
<ele>396.0</ele>
<speed>4.3</speed>
<course>133.6</course>
<desc>Speed 4.3 km/h Distance 1.45 km</desc>
<time>2010-02-28T10:31:41.54</time>
<name>968</name>
</trkpt>
<trkpt lat="48.934785" lon="8.673632">
<ele>396.0</ele>
<speed>4.4</speed>
<course>104.2</course>
<desc>Speed 4.4 km/h Distance 1.45 km</desc>
<time>2010-02-28T10:31:42.54</time>
<name>969</name>
</trkpt>
<trkpt lat="48.934782" lon="8.673652">
<ele>397.0</ele>
<speed>4.4</speed>
<course>113.5</course>
<desc>Speed 4.4 km/h Distance 1.45 km</desc>
<time>2010-02-28T10:31:43.54</time>
<name>970</name>
</trkpt>
<trkpt lat="48.934778" lon="8.673663">
<ele>397.5</ele>
<speed>3.4</speed>
<course>121.3</course>
<desc>Speed 3.4 km/h Distance 1.45 km</desc>
<time>2010-02-28T10:31:44.54</time>
<name>971</name>
</trkpt>
<trkpt lat="48.934772" lon="8.673680">
<ele>397.5</ele>
<speed>3.7</speed>
<course>104.4</course>
<desc>Speed 3.7 km/h Distance 1.45 km</desc>
<time>2010-02-28T10:31:45.54</time>
<name>972</name>
</trkpt>
<trkpt lat="48.934770" lon="8.673690">
<ele>397.5</ele>
<speed>2.1</speed>
<course>117.4</course>
<desc>Speed 2.1 km/h Distance 1.45 km</desc>
<time>2010-02-28T10:31:46.54</time>
<name>973</name>
</trkpt>
<trkpt lat="48.934768" lon="8.673695">
<ele>398.0</ele>
<speed>1.5</speed>
<course>127.3</course>
<desc>Speed 1.5 km/h Distance 1.45 km</desc>
<time>2010-02-28T10:31:47.54</time>
<name>974</name>
</trkpt>
<trkpt lat="48.934743" lon="8.673745">
<ele>398.5</ele>
<speed>4.5</speed>
<course>116.9</course>
<desc>Speed 4.5 km/h Distance 1.46 km</desc>
<time>2010-02-28T10:31:49.54</time>
<name>975</name>
</trkpt>
<trkpt lat="48.934735" lon="8.673770">
<ele>399.0</ele>
<speed>3.5</speed>
<course>99.6</course>
<desc>Speed 3.5 km/h Distance 1.46 km</desc>
<time>2010-02-28T10:31:50.54</time>
<name>976</name>
</trkpt>
<trkpt lat="48.934733" lon="8.673785">
<ele>400.0</ele>
<speed>3.6</speed>
<course>141.9</course>
<desc>Speed 3.6 km/h Distance 1.46 km</desc>
<time>2010-02-28T10:31:51.54</time>
<name>977</name>
</trkpt>
<trkpt lat="48.934725" lon="8.673795">
<ele>400.0</ele>
<speed>3.5</speed>
<course>136.3</course>
<desc>Speed 3.5 km/h Distance 1.46 km</desc>
<time>2010-02-28T10:31:52.54</time>
<name>978</name>
</trkpt>
<trkpt lat="48.934707" lon="8.673822">
<ele>400.0</ele>
<speed>3.1</speed>
<course>118.3</course>
<desc>Speed 3.1 km/h Distance 1.47 km</desc>
<time>2010-02-28T10:31:53.54</time>
<name>979</name>
</trkpt>
<trkpt lat="48.934697" lon="8.673850">
<ele>400.0</ele>
<speed>2.6</speed>
<course>130.9</course>
<desc>Speed 2.6 km/h Distance 1.47 km</desc>
<time>2010-02-28T10:31:54.54</time>
<name>980</name>
</trkpt>
<trkpt lat="48.934690" lon="8.673862">
<ele>399.5</ele>
<speed>4.2</speed>
<course>104.4</course>
<desc>Speed 4.2 km/h Distance 1.47 km</desc>
<time>2010-02-28T10:31:55.54</time>
<name>981</name>
</trkpt>
<trkpt lat="48.934688" lon="8.673872">
<ele>400.0</ele>
<speed>2.6</speed>
<course>106.9</course>
<desc>Speed 2.6 km/h Distance 1.47 km</desc>
<time>2010-02-28T10:31:56.54</time>
<name>982</name>
</trkpt>
<trkpt lat="48.934685" lon="8.673888">
<ele>400.0</ele>
<speed>2.9</speed>
<course>119.0</course>
<desc>Speed 2.9 km/h Distance 1.47 km</desc>
<time>2010-02-28T10:31:57.54</time>
<name>983</name>
</trkpt>
<trkpt lat="48.934678" lon="8.673907">
<ele>399.5</ele>
<speed>3.0</speed>
<course>90.0</course>
<desc>Speed 3.0 km/h Distance 1.47 km</desc>
<time>2010-02-28T10:31:58.54</time>
<name>984</name>
</trkpt>
<trkpt lat="48.934678" lon="8.673923">
<ele>400.0</ele>
<speed>3.8</speed>
<course>112.9</course>
<desc>Speed 3.8 km/h Distance 1.47 km</desc>
<time>2010-02-28T10:31:59.54</time>
<name>985</name>
</trkpt>
<trkpt lat="48.934670" lon="8.673953">
<ele>399.5</ele>
<speed>2.7</speed>
<course>122.3</course>
<desc>Speed 2.7 km/h Distance 1.48 km</desc>
<time>2010-02-28T10:32:00.54</time>
<name>986</name>
</trkpt>
<trkpt lat="48.934662" lon="8.673973">
<ele>400.0</ele>
<speed>4.6</speed>
<course>131.6</course>
<desc>Speed 4.6 km/h Distance 1.48 km</desc>
<time>2010-02-28T10:32:01.54</time>
<name>987</name>
</trkpt>
<trkpt lat="48.934650" lon="8.673993">
<ele>400.0</ele>
<speed>4.8</speed>
<course>124.1</course>
<desc>Speed 4.8 km/h Distance 1.48 km</desc>
<time>2010-02-28T10:32:02.54</time>
<name>988</name>
</trkpt>
<trkpt lat="48.934643" lon="8.674008">
<ele>400.5</ele>
<speed>4.6</speed>
<course>116.9</course>
<desc>Speed 4.6 km/h Distance 1.48 km</desc>
<time>2010-02-28T10:32:03.54</time>
<name>989</name>
</trkpt>
<trkpt lat="48.934637" lon="8.674028">
<ele>400.5</ele>
<speed>5.2</speed>
<course>108.7</course>
<desc>Speed 5.2 km/h Distance 1.48 km</desc>
<time>2010-02-28T10:32:04.54</time>
<name>990</name>
</trkpt>
<trkpt lat="48.934633" lon="8.674043">
<ele>400.5</ele>
<speed>3.3</speed>
<course>122.9</course>
<desc>Speed 3.3 km/h Distance 1.49 km</desc>
<time>2010-02-28T10:32:05.54</time>
<name>991</name>
</trkpt>
<trkpt lat="48.934628" lon="8.674055">
<ele>400.5</ele>
<speed>2.4</speed>
<course>110.7</course>
<desc>Speed 2.4 km/h Distance 1.49 km</desc>
<time>2010-02-28T10:32:06.54</time>
<name>992</name>
</trkpt>
<trkpt lat="48.934625" lon="8.674068">
<ele>401.0</ele>
<speed>3.6</speed>
<course>99.6</course>
<desc>Speed 3.6 km/h Distance 1.49 km</desc>
<time>2010-02-28T10:32:07.54</time>
<name>993</name>
</trkpt>
<trkpt lat="48.934623" lon="8.674083">
<ele>401.5</ele>
<speed>2.7</speed>
<course>135.5</course>
<desc>Speed 2.7 km/h Distance 1.49 km</desc>
<time>2010-02-28T10:32:08.54</time>
<name>994</name>
</trkpt>
<trkpt lat="48.934617" lon="8.674093">
<ele>402.0</ele>
<speed>3.3</speed>
<course>82.1</course>
<desc>Speed 3.3 km/h Distance 1.49 km</desc>
<time>2010-02-28T10:32:09.54</time>
<name>995</name>
</trkpt>
<trkpt lat="48.934618" lon="8.674112">
<ele>402.0</ele>
<speed>3.1</speed>
<course>80.4</course>
<desc>Speed 3.1 km/h Distance 1.49 km</desc>
<time>2010-02-28T10:32:10.54</time>
<name>996</name>
</trkpt>
<trkpt lat="48.934620" lon="8.674127">
<ele>402.5</ele>
<speed>2.5</speed>
<course>123.1</course>
<desc>Speed 2.5 km/h Distance 1.49 km</desc>
<time>2010-02-28T10:32:11.54</time>
<name>997</name>
</trkpt>
<trkpt lat="48.934610" lon="8.674150">
<ele>402.5</ele>
<speed>3.3</speed>
<course>121.3</course>
<desc>Speed 3.3 km/h Distance 1.49 km</desc>
<time>2010-02-28T10:32:12.54</time>
<name>998</name>
</trkpt>
<trkpt lat="48.934587" lon="8.674208">
<ele>403.5</ele>
<speed>4.6</speed>
<course>112.1</course>
<desc>Speed 4.6 km/h Distance 1.50 km</desc>
<time>2010-02-28T10:32:14.54</time>
<name>999</name>
</trkpt>
<trkpt lat="48.934580" lon="8.674233">
<ele>403.0</ele>
<speed>4.3</speed>
<course>110.9</course>
<desc>Speed 4.3 km/h Distance 1.50 km</desc>
<time>2010-02-28T10:32:15.54</time>
<name>1000</name>
</trkpt>
<trkpt lat="48.934573" lon="8.674260">
<ele>403.5</ele>
<speed>5.2</speed>
<course>129.7</course>
<desc>Speed 5.2 km/h Distance 1.50 km</desc>
<time>2010-02-28T10:32:16.54</time>
<name>1001</name>
</trkpt>
<trkpt lat="48.934563" lon="8.674278">
<ele>404.0</ele>
<speed>5.0</speed>
<course>102.3</course>
<desc>Speed 5.0 km/h Distance 1.50 km</desc>
<time>2010-02-28T10:32:17.54</time>
<name>1002</name>
</trkpt>
<trkpt lat="48.934560" lon="8.674302">
<ele>404.0</ele>
<speed>2.9</speed>
<course>90.0</course>
<desc>Speed 2.9 km/h Distance 1.51 km</desc>
<time>2010-02-28T10:32:18.54</time>
<name>1003</name>
</trkpt>
<trkpt lat="48.934560" lon="8.674313">
<ele>405.0</ele>
<speed>2.6</speed>
<course>114.5</course>
<desc>Speed 2.6 km/h Distance 1.51 km</desc>
<time>2010-02-28T10:32:19.54</time>
<name>1004</name>
</trkpt>
<trkpt lat="48.934555" lon="8.674330">
<ele>405.0</ele>
<speed>3.3</speed>
<course>100.8</course>
<desc>Speed 3.3 km/h Distance 1.51 km</desc>
<time>2010-02-28T10:32:20.54</time>
<name>1005</name>
</trkpt>
<trkpt lat="48.934553" lon="8.674343">
<ele>405.0</ele>
<speed>3.7</speed>
<course>112.1</course>
<desc>Speed 3.7 km/h Distance 1.51 km</desc>
<time>2010-02-28T10:32:21.54</time>
<name>1006</name>
</trkpt>
<trkpt lat="48.934547" lon="8.674368">
<ele>405.0</ele>
<speed>4.0</speed>
<course>98.7</course>
<desc>Speed 4.0 km/h Distance 1.51 km</desc>
<time>2010-02-28T10:32:22.54</time>
<name>1007</name>
</trkpt>
<trkpt lat="48.934545" lon="8.674385">
<ele>405.5</ele>
<speed>4.3</speed>
<course>105.5</course>
<desc>Speed 4.3 km/h Distance 1.51 km</desc>
<time>2010-02-28T10:32:23.54</time>
<name>1008</name>
</trkpt>
<trkpt lat="48.934542" lon="8.674403">
<ele>405.5</ele>
<speed>3.5</speed>
<course>98.7</course>
<desc>Speed 3.5 km/h Distance 1.51 km</desc>
<time>2010-02-28T10:32:24.54</time>
<name>1009</name>
</trkpt>
<trkpt lat="48.934540" lon="8.674420">
<ele>405.5</ele>
<speed>3.6</speed>
<course>122.4</course>
<desc>Speed 3.6 km/h Distance 1.52 km</desc>
<time>2010-02-28T10:32:25.54</time>
<name>1010</name>
</trkpt>
<trkpt lat="48.934532" lon="8.674440">
<ele>405.5</ele>
<speed>3.3</speed>
<course>99.6</course>
<desc>Speed 3.3 km/h Distance 1.52 km</desc>
<time>2010-02-28T10:32:26.54</time>
<name>1011</name>
</trkpt>
<trkpt lat="48.934530" lon="8.674455">
<ele>406.0</ele>
<speed>3.7</speed>
<course>101.5</course>
<desc>Speed 3.7 km/h Distance 1.52 km</desc>
<time>2010-02-28T10:32:27.54</time>
<name>1012</name>
</trkpt>
<trkpt lat="48.934527" lon="8.674480">
<ele>407.5</ele>
<speed>3.7</speed>
<course>106.9</course>
<desc>Speed 3.7 km/h Distance 1.52 km</desc>
<time>2010-02-28T10:32:28.54</time>
<name>1013</name>
</trkpt>
<trkpt lat="48.934523" lon="8.674497">
<ele>408.0</ele>
<speed>4.2</speed>
<course>90.0</course>
<desc>Speed 4.2 km/h Distance 1.52 km</desc>
<time>2010-02-28T10:32:29.54</time>
<name>1014</name>
</trkpt>
<trkpt lat="48.934523" lon="8.674515">
<ele>408.5</ele>
<speed>4.3</speed>
<course>85.4</course>
<desc>Speed 4.3 km/h Distance 1.52 km</desc>
<time>2010-02-28T10:32:30.54</time>
<name>1015</name>
</trkpt>
<trkpt lat="48.934525" lon="8.674547">
<ele>409.5</ele>
<speed>4.0</speed>
<course>104.2</course>
<desc>Speed 4.0 km/h Distance 1.53 km</desc>
<time>2010-02-28T10:32:31.54</time>
<name>1016</name>
</trkpt>
<trkpt lat="48.934520" lon="8.674577">
<ele>409.5</ele>
<speed>4.6</speed>
<course>90.0</course>
<desc>Speed 4.6 km/h Distance 1.53 km</desc>
<time>2010-02-28T10:32:32.54</time>
<name>1017</name>
</trkpt>
<trkpt lat="48.934520" lon="8.674607">
<ele>409.5</ele>
<speed>5.6</speed>
<course>110.8</course>
<desc>Speed 5.6 km/h Distance 1.53 km</desc>
<time>2010-02-28T10:32:33.54</time>
<name>1018</name>
</trkpt>
<trkpt lat="48.934515" lon="8.674627">
<ele>409.5</ele>
<speed>4.6</speed>
<course>90.0</course>
<desc>Speed 4.6 km/h Distance 1.53 km</desc>
<time>2010-02-28T10:32:34.54</time>
<name>1019</name>
</trkpt>
<trkpt lat="48.934515" lon="8.674638">
<ele>409.5</ele>
<speed>2.9</speed>
<course>106.9</course>
<desc>Speed 2.9 km/h Distance 1.53 km</desc>
<time>2010-02-28T10:32:35.54</time>
<name>1020</name>
</trkpt>
<trkpt lat="48.934510" lon="8.674663">
<ele>409.5</ele>
<speed>4.8</speed>
<course>97.2</course>
<desc>Speed 4.8 km/h Distance 1.53 km</desc>
<time>2010-02-28T10:32:36.54</time>
<name>1021</name>
</trkpt>
<trkpt lat="48.934508" lon="8.674683">
<ele>410.0</ele>
<speed>4.7</speed>
<course>114.5</course>
<desc>Speed 4.7 km/h Distance 1.54 km</desc>
<time>2010-02-28T10:32:37.54</time>
<name>1022</name>
</trkpt>
<trkpt lat="48.934503" lon="8.674700">
<ele>409.0</ele>
<speed>4.1</speed>
<course>104.2</course>
<desc>Speed 4.1 km/h Distance 1.54 km</desc>
<time>2010-02-28T10:32:38.54</time>
<name>1023</name>
</trkpt>
<trkpt lat="48.934500" lon="8.674720">
<ele>408.5</ele>
<speed>4.6</speed>
<course>107.0</course>
<desc>Speed 4.6 km/h Distance 1.54 km</desc>
<time>2010-02-28T10:32:39.54</time>
<name>1024</name>
</trkpt>
<trkpt lat="48.934497" lon="8.674737">
<ele>408.5</ele>
<speed>3.7</speed>
<course>104.2</course>
<desc>Speed 3.7 km/h Distance 1.54 km</desc>
<time>2010-02-28T10:32:40.54</time>
<name>1025</name>
</trkpt>
<trkpt lat="48.934493" lon="8.674757">
<ele>409.0</ele>
<speed>4.4</speed>
<course>90.0</course>
<desc>Speed 4.4 km/h Distance 1.54 km</desc>
<time>2010-02-28T10:32:41.54</time>
<name>1026</name>
</trkpt>
<trkpt lat="48.934493" lon="8.674777">
<ele>409.0</ele>
<speed>3.4</speed>
<course>66.4</course>
<desc>Speed 3.4 km/h Distance 1.54 km</desc>
<time>2010-02-28T10:32:42.54</time>
<name>1027</name>
</trkpt>
<trkpt lat="48.934497" lon="8.674788">
<ele>408.5</ele>
<speed>3.3</speed>
<course>77.7</course>
<desc>Speed 3.3 km/h Distance 1.54 km</desc>
<time>2010-02-28T10:32:43.54</time>
<name>1028</name>
</trkpt>
<trkpt lat="48.934498" lon="8.674800">
<ele>408.0</ele>
<speed>2.5</speed>
<course>96.2</course>
<desc>Speed 2.5 km/h Distance 1.54 km</desc>
<time>2010-02-28T10:32:44.54</time>
<name>1029</name>
</trkpt>
<trkpt lat="48.934497" lon="8.674823">
<ele>408.5</ele>
<speed>4.7</speed>
<course>90.0</course>
<desc>Speed 4.7 km/h Distance 1.55 km</desc>
<time>2010-02-28T10:32:45.54</time>
<name>1030</name>
</trkpt>
<trkpt lat="48.934497" lon="8.674840">
<ele>408.0</ele>
<speed>3.3</speed>
<course>116.9</course>
<desc>Speed 3.3 km/h Distance 1.55 km</desc>
<time>2010-02-28T10:32:46.54</time>
<name>1031</name>
</trkpt>
<trkpt lat="48.934488" lon="8.674865">
<ele>407.5</ele>
<speed>5.6</speed>
<course>105.9</course>
<desc>Speed 5.6 km/h Distance 1.55 km</desc>
<time>2010-02-28T10:32:47.54</time>
<name>1032</name>
</trkpt>
<trkpt lat="48.934483" lon="8.674892">
<ele>407.5</ele>
<speed>4.4</speed>
<course>79.3</course>
<desc>Speed 4.4 km/h Distance 1.55 km</desc>
<time>2010-02-28T10:32:48.54</time>
<name>1033</name>
</trkpt>
<trkpt lat="48.934485" lon="8.674905">
<ele>408.0</ele>
<speed>3.2</speed>
<course>63.1</course>
<desc>Speed 3.2 km/h Distance 1.55 km</desc>
<time>2010-02-28T10:32:49.54</time>
<name>1034</name>
</trkpt>
<trkpt lat="48.934490" lon="8.674920">
<ele>408.0</ele>
<speed>2.7</speed>
<course>47.4</course>
<desc>Speed 2.7 km/h Distance 1.55 km</desc>
<time>2010-02-28T10:32:50.54</time>
<name>1035</name>
</trkpt>
<trkpt lat="48.934495" lon="8.674928">
<ele>407.5</ele>
<speed>2.2</speed>
<course>52.6</course>
<desc>Speed 2.2 km/h Distance 1.55 km</desc>
<time>2010-02-28T10:32:51.54</time>
<name>1036</name>
</trkpt>
<trkpt lat="48.934500" lon="8.674938">
<ele>407.5</ele>
<speed>3.0</speed>
<course>69.2</course>
<desc>Speed 3.0 km/h Distance 1.56 km</desc>
<time>2010-02-28T10:32:52.54</time>
<name>1037</name>
</trkpt>
<trkpt lat="48.934503" lon="8.674952">
<ele>407.5</ele>
<speed>3.2</speed>
<course>90.0</course>
<desc>Speed 3.2 km/h Distance 1.56 km</desc>
<time>2010-02-28T10:32:53.54</time>
<name>1038</name>
</trkpt>
<trkpt lat="48.934503" lon="8.674972">
<ele>407.5</ele>
<speed>4.1</speed>
<course>110.8</course>
<desc>Speed 4.1 km/h Distance 1.56 km</desc>
<time>2010-02-28T10:32:54.54</time>
<name>1039</name>
</trkpt>
<trkpt lat="48.934498" lon="8.674992">
<ele>406.0</ele>
<speed>3.4</speed>
<course>108.0</course>
<desc>Speed 3.4 km/h Distance 1.56 km</desc>
<time>2010-02-28T10:32:55.54</time>
<name>1040</name>
</trkpt>
<trkpt lat="48.934493" lon="8.675015">
<ele>405.0</ele>
<speed>4.5</speed>
<course>109.3</course>
<desc>Speed 4.5 km/h Distance 1.56 km</desc>
<time>2010-02-28T10:32:56.54</time>
<name>1041</name>
</trkpt>
<trkpt lat="48.934488" lon="8.675037">
<ele>405.0</ele>
<speed>4.1</speed>
<course>94.8</course>
<desc>Speed 4.1 km/h Distance 1.56 km</desc>
<time>2010-02-28T10:32:57.54</time>
<name>1042</name>
</trkpt>
<trkpt lat="48.934487" lon="8.675067">
<ele>405.0</ele>
<speed>4.5</speed>
<course>90.0</course>
<desc>Speed 4.5 km/h Distance 1.56 km</desc>
<time>2010-02-28T10:32:58.54</time>
<name>1043</name>
</trkpt>
<trkpt lat="48.934487" lon="8.675087">
<ele>405.0</ele>
<speed>4.9</speed>
<course>98.7</course>
<desc>Speed 4.9 km/h Distance 1.57 km</desc>
<time>2010-02-28T10:32:59.54</time>
<name>1044</name>
</trkpt>
<trkpt lat="48.934483" lon="8.675120">
<ele>406.5</ele>
<speed>4.5</speed>
<course>71.9</course>
<desc>Speed 4.5 km/h Distance 1.57 km</desc>
<time>2010-02-28T10:33:00.54</time>
<name>1045</name>
</trkpt>
<trkpt lat="48.934488" lon="8.675143">
<ele>407.0</ele>
<speed>6.1</speed>
<course>113.5</course>
<desc>Speed 6.1 km/h Distance 1.57 km</desc>
<time>2010-02-28T10:33:01.54</time>
<name>1046</name>
</trkpt>
<trkpt lat="48.934482" lon="8.675167">
<ele>406.5</ele>
<speed>4.0</speed>
<course>79.2</course>
<desc>Speed 4.0 km/h Distance 1.57 km</desc>
<time>2010-02-28T10:33:02.54</time>
<name>1047</name>
</trkpt>
<trkpt lat="48.934483" lon="8.675180">
<ele>406.5</ele>
<speed>3.2</speed>
<course>341.8</course>
<desc>Speed 3.2 km/h Distance 1.57 km</desc>
<time>2010-02-28T10:33:03.54</time>
<name>1048</name>
</trkpt>
<trkpt lat="48.934493" lon="8.675175">
<ele>406.0</ele>
<speed>7.8</speed>
<course>110.8</course>
<desc>Speed 7.8 km/h Distance 1.57 km</desc>
<time>2010-02-28T10:33:04.54</time>
<name>1049</name>
</trkpt>
<trkpt lat="48.934487" lon="8.675202">
<ele>406.0</ele>
<speed>7.7</speed>
<course>90.0</course>
<desc>Speed 7.7 km/h Distance 1.58 km</desc>
<time>2010-02-28T10:33:05.54</time>
<name>1050</name>
</trkpt>
<trkpt lat="48.934487" lon="8.675222">
<ele>405.5</ele>
<speed>3.6</speed>
<course>96.7</course>
<desc>Speed 3.6 km/h Distance 1.58 km</desc>
<time>2010-02-28T10:33:06.54</time>
<name>1051</name>
</trkpt>
<trkpt lat="48.934485" lon="8.675243">
<ele>405.0</ele>
<speed>4.2</speed>
<course>77.7</course>
<desc>Speed 4.2 km/h Distance 1.58 km</desc>
<time>2010-02-28T10:33:07.54</time>
<name>1052</name>
</trkpt>
<trkpt lat="48.934487" lon="8.675255">
<ele>404.0</ele>
<speed>2.9</speed>
<course>97.9</course>
<desc>Speed 2.9 km/h Distance 1.58 km</desc>
<time>2010-02-28T10:33:08.54</time>
<name>1053</name>
</trkpt>
<trkpt lat="48.934485" lon="8.675273">
<ele>404.0</ele>
<speed>4.1</speed>
<course>104.2</course>
<desc>Speed 4.1 km/h Distance 1.58 km</desc>
<time>2010-02-28T10:33:09.54</time>
<name>1054</name>
</trkpt>
<trkpt lat="48.934482" lon="8.675293">
<ele>403.5</ele>
<speed>4.6</speed>
<course>115.1</course>
<desc>Speed 4.6 km/h Distance 1.58 km</desc>
<time>2010-02-28T10:33:10.54</time>
<name>1055</name>
</trkpt>
<trkpt lat="48.934475" lon="8.675315">
<ele>403.5</ele>
<speed>4.5</speed>
<course>115.1</course>
<desc>Speed 4.5 km/h Distance 1.59 km</desc>
<time>2010-02-28T10:33:11.54</time>
<name>1056</name>
</trkpt>
<trkpt lat="48.934468" lon="8.675337">
<ele>402.5</ele>
<speed>4.0</speed>
<course>107.1</course>
<desc>Speed 4.0 km/h Distance 1.59 km</desc>
<time>2010-02-28T10:33:12.54</time>
<name>1057</name>
</trkpt>
<trkpt lat="48.934467" lon="8.675345">
<ele>402.0</ele>
<speed>2.6</speed>
<course>110.9</course>
<desc>Speed 2.6 km/h Distance 1.59 km</desc>
<time>2010-02-28T10:33:13.54</time>
<name>1058</name>
</trkpt>
<trkpt lat="48.934463" lon="8.675358">
<ele>402.0</ele>
<speed>2.6</speed>
<course>113.5</course>
<desc>Speed 2.6 km/h Distance 1.59 km</desc>
<time>2010-02-28T10:33:14.54</time>
<name>1059</name>
</trkpt>
<trkpt lat="48.934457" lon="8.675382">
<ele>402.0</ele>
<speed>4.1</speed>
<course>127.2</course>
<desc>Speed 4.1 km/h Distance 1.59 km</desc>
<time>2010-02-28T10:33:15.54</time>
<name>1060</name>
</trkpt>
<trkpt lat="48.934450" lon="8.675395">
<ele>401.0</ele>
<speed>4.4</speed>
<course>127.2</course>
<desc>Speed 4.4 km/h Distance 1.59 km</desc>
<time>2010-02-28T10:33:16.54</time>
<name>1061</name>
</trkpt>
<trkpt lat="48.934450" lon="8.675395">
<ele>401.0</ele>
<speed>0.7</speed>
<course>90.0</course>
<desc>Speed 0.7 km/h Distance 1.59 km</desc>
<time>2010-02-28T10:33:17.54</time>
<name>1062</name>
</trkpt>
<trkpt lat="48.934450" lon="8.675402">
<ele>402.0</ele>
<speed>1.1</speed>
<course>117.0</course>
<desc>Speed 1.1 km/h Distance 1.59 km</desc>
<time>2010-02-28T10:33:18.54</time>
<name>1063</name>
</trkpt>
<trkpt lat="48.934447" lon="8.675412">
<ele>402.0</ele>
<speed>1.0</speed>
<course>90.0</course>
<desc>Speed 1.0 km/h Distance 1.59 km</desc>
<time>2010-02-28T10:33:19.54</time>
<name>1064</name>
</trkpt>
<trkpt lat="48.934447" lon="8.675417">
<ele>402.5</ele>
<speed>1.5</speed>
<course>75.6</course>
<desc>Speed 1.5 km/h Distance 1.59 km</desc>
<time>2010-02-28T10:33:20.54</time>
<name>1065</name>
</trkpt>
<trkpt lat="48.934448" lon="8.675427">
<ele>403.0</ele>
<speed>2.1</speed>
<course>117.0</course>
<desc>Speed 2.1 km/h Distance 1.59 km</desc>
<time>2010-02-28T10:33:21.54</time>
<name>1066</name>
</trkpt>
<trkpt lat="48.934445" lon="8.675437">
<ele>402.5</ele>
<speed>2.8</speed>
<course>110.9</course>
<desc>Speed 2.8 km/h Distance 1.60 km</desc>
<time>2010-02-28T10:33:22.54</time>
<name>1067</name>
</trkpt>
<trkpt lat="48.934443" lon="8.675443">
<ele>403.5</ele>
<speed>2.3</speed>
<course>140.6</course>
<desc>Speed 2.3 km/h Distance 1.60 km</desc>
<time>2010-02-28T10:33:23.54</time>
<name>1068</name>
</trkpt>
<trkpt lat="48.934437" lon="8.675452">
<ele>403.5</ele>
<speed>3.3</speed>
<course>121.4</course>
<desc>Speed 3.3 km/h Distance 1.60 km</desc>
<time>2010-02-28T10:33:24.54</time>
<name>1069</name>
</trkpt>
<trkpt lat="48.934433" lon="8.675460">
<ele>403.5</ele>
<speed>3.1</speed>
<course>147.7</course>
<desc>Speed 3.1 km/h Distance 1.60 km</desc>
<time>2010-02-28T10:33:25.54</time>
<name>1070</name>
</trkpt>
<trkpt lat="48.934428" lon="8.675465">
<ele>403.5</ele>
<speed>2.6</speed>
<course>194.9</course>
<desc>Speed 2.6 km/h Distance 1.60 km</desc>
<time>2010-02-28T10:33:26.54</time>
<name>1071</name>
</trkpt>
<trkpt lat="48.934420" lon="8.675462">
<ele>401.5</ele>
<speed>3.1</speed>
<course>162.5</course>
<desc>Speed 3.1 km/h Distance 1.60 km</desc>
<time>2010-02-28T10:33:27.54</time>
<name>1072</name>
</trkpt>
<trkpt lat="48.934413" lon="8.675465">
<ele>401.0</ele>
<speed>3.6</speed>
<course>194.6</course>
<desc>Speed 3.6 km/h Distance 1.60 km</desc>
<time>2010-02-28T10:33:28.54</time>
<name>1073</name>
</trkpt>
<trkpt lat="48.934397" lon="8.675458">
<ele>400.0</ele>
<speed>5.0</speed>
<course>182.8</course>
<desc>Speed 5.0 km/h Distance 1.60 km</desc>
<time>2010-02-28T10:33:29.54</time>
<name>1074</name>
</trkpt>
<trkpt lat="48.934380" lon="8.675457">
<ele>398.0</ele>
<speed>4.3</speed>
<course>156.3</course>
<desc>Speed 4.3 km/h Distance 1.60 km</desc>
<time>2010-02-28T10:33:30.54</time>
<name>1075</name>
</trkpt>
<trkpt lat="48.934360" lon="8.675470">
<ele>396.0</ele>
<speed>4.5</speed>
<course>257.7</course>
<desc>Speed 4.5 km/h Distance 1.61 km</desc>
<time>2010-02-28T10:33:31.54</time>
<name>1076</name>
</trkpt>
<trkpt lat="48.934355" lon="8.675435">
<ele>392.5</ele>
<speed>9.1</speed>
<course>161.8</course>
<desc>Speed 9.1 km/h Distance 1.61 km</desc>
<time>2010-02-28T10:33:32.54</time>
<name>1077</name>
</trkpt>
<trkpt lat="48.934345" lon="8.675440">
<ele>391.0</ele>
<speed>3.1</speed>
<course>141.6</course>
<desc>Speed 3.1 km/h Distance 1.61 km</desc>
<time>2010-02-28T10:33:33.54</time>
<name>1078</name>
</trkpt>
<trkpt lat="48.934337" lon="8.675450">
<ele>390.5</ele>
<speed>4.1</speed>
<course>119.7</course>
<desc>Speed 4.1 km/h Distance 1.61 km</desc>
<time>2010-02-28T10:33:34.54</time>
<name>1079</name>
</trkpt>
<trkpt lat="48.934317" lon="8.675503">
<ele>389.5</ele>
<speed>5.0</speed>
<course>146.7</course>
<desc>Speed 5.0 km/h Distance 1.62 km</desc>
<time>2010-02-28T10:33:36.54</time>
<name>1080</name>
</trkpt>
<trkpt lat="48.934302" lon="8.675518">
<ele>388.0</ele>
<speed>4.6</speed>
<course>136.5</course>
<desc>Speed 4.6 km/h Distance 1.62 km</desc>
<time>2010-02-28T10:33:37.54</time>
<name>1081</name>
</trkpt>
<trkpt lat="48.934287" lon="8.675540">
<ele>388.5</ele>
<speed>5.6</speed>
<course>146.8</course>
<desc>Speed 5.6 km/h Distance 1.62 km</desc>
<time>2010-02-28T10:33:38.54</time>
<name>1082</name>
</trkpt>
<trkpt lat="48.934277" lon="8.675550">
<ele>388.0</ele>
<speed>4.4</speed>
<course>127.3</course>
<desc>Speed 4.4 km/h Distance 1.62 km</desc>
<time>2010-02-28T10:33:39.54</time>
<name>1083</name>
</trkpt>
<trkpt lat="48.934237" lon="8.675630">
<ele>386.0</ele>
<speed>4.6</speed>
<course>131.2</course>
<desc>Speed 4.6 km/h Distance 1.63 km</desc>
<time>2010-02-28T10:33:41.54</time>
<name>1084</name>
</trkpt>
<trkpt lat="48.934205" lon="8.675685">
<ele>382.5</ele>
<speed>4.6</speed>
<course>132.4</course>
<desc>Speed 4.6 km/h Distance 1.63 km</desc>
<time>2010-02-28T10:33:43.54</time>
<name>1085</name>
</trkpt>
<trkpt lat="48.934190" lon="8.675710">
<ele>382.0</ele>
<speed>5.0</speed>
<course>127.3</course>
<desc>Speed 5.0 km/h Distance 1.64 km</desc>
<time>2010-02-28T10:33:44.54</time>
<name>1086</name>
</trkpt>
<trkpt lat="48.934175" lon="8.675740">
<ele>381.5</ele>
<speed>5.1</speed>
<course>146.6</course>
<desc>Speed 5.1 km/h Distance 1.64 km</desc>
<time>2010-02-28T10:33:45.54</time>
<name>1087</name>
</trkpt>
<trkpt lat="48.934163" lon="8.675752">
<ele>381.0</ele>
<speed>5.1</speed>
<course>130.6</course>
<desc>Speed 5.1 km/h Distance 1.64 km</desc>
<time>2010-02-28T10:33:46.54</time>
<name>1088</name>
</trkpt>
<trkpt lat="48.934112" lon="8.675843">
<ele>380.5</ele>
<speed>5.7</speed>
<course>131.3</course>
<desc>Speed 5.7 km/h Distance 1.65 km</desc>
<time>2010-02-28T10:33:48.54</time>
<name>1089</name>
</trkpt>
<trkpt lat="48.934068" lon="8.675918">
<ele>381.5</ele>
<speed>5.9</speed>
<course>130.6</course>
<desc>Speed 5.9 km/h Distance 1.66 km</desc>
<time>2010-02-28T10:33:50.54</time>
<name>1090</name>
</trkpt>
<trkpt lat="48.934053" lon="8.675945">
<ele>381.0</ele>
<speed>5.7</speed>
<course>127.3</course>
<desc>Speed 5.7 km/h Distance 1.66 km</desc>
<time>2010-02-28T10:33:51.54</time>
<name>1091</name>
</trkpt>
<trkpt lat="48.934037" lon="8.675978">
<ele>381.0</ele>
<speed>5.8</speed>
<course>128.6</course>
<desc>Speed 5.8 km/h Distance 1.66 km</desc>
<time>2010-02-28T10:33:52.54</time>
<name>1092</name>
</trkpt>
<trkpt lat="48.934018" lon="8.676013">
<ele>381.0</ele>
<speed>5.6</speed>
<course>130.2</course>
<desc>Speed 5.6 km/h Distance 1.67 km</desc>
<time>2010-02-28T10:33:53.54</time>
<name>1093</name>
</trkpt>
<trkpt lat="48.933977" lon="8.676088">
<ele>382.5</ele>
<speed>5.7</speed>
<course>133.1</course>
<desc>Speed 5.7 km/h Distance 1.67 km</desc>
<time>2010-02-28T10:33:55.54</time>
<name>1094</name>
</trkpt>
<trkpt lat="48.933963" lon="8.676110">
<ele>383.0</ele>
<speed>5.3</speed>
<course>139.8</course>
<desc>Speed 5.3 km/h Distance 1.67 km</desc>
<time>2010-02-28T10:33:56.54</time>
<name>1095</name>
</trkpt>
<trkpt lat="48.933952" lon="8.676125">
<ele>383.0</ele>
<speed>5.7</speed>
<course>132.4</course>
<desc>Speed 5.7 km/h Distance 1.68 km</desc>
<time>2010-02-28T10:33:57.54</time>
<name>1096</name>
</trkpt>
<trkpt lat="48.933942" lon="8.676142">
<ele>382.5</ele>
<speed>5.3</speed>
<course>142.8</course>
<desc>Speed 5.3 km/h Distance 1.68 km</desc>
<time>2010-02-28T10:33:58.54</time>
<name>1097</name>
</trkpt>
<trkpt lat="48.933930" lon="8.676155">
<ele>382.5</ele>
<speed>5.2</speed>
<course>135.5</course>
<desc>Speed 5.2 km/h Distance 1.68 km</desc>
<time>2010-02-28T10:33:59.54</time>
<name>1098</name>
</trkpt>
<trkpt lat="48.933920" lon="8.676170">
<ele>383.0</ele>
<speed>5.3</speed>
<course>146.9</course>
<desc>Speed 5.3 km/h Distance 1.68 km</desc>
<time>2010-02-28T10:34:00.54</time>
<name>1099</name>
</trkpt>
<trkpt lat="48.933908" lon="8.676182">
<ele>383.0</ele>
<speed>5.6</speed>
<course>131.7</course>
<desc>Speed 5.6 km/h Distance 1.68 km</desc>
<time>2010-02-28T10:34:01.54</time>
<name>1100</name>
</trkpt>
<trkpt lat="48.933897" lon="8.676202">
<ele>383.0</ele>
<speed>6.4</speed>
<course>131.6</course>
<desc>Speed 6.4 km/h Distance 1.68 km</desc>
<time>2010-02-28T10:34:02.54</time>
<name>1101</name>
</trkpt>
<trkpt lat="48.933885" lon="8.676222">
<ele>383.0</ele>
<speed>6.0</speed>
<course>136.7</course>
<desc>Speed 6.0 km/h Distance 1.69 km</desc>
<time>2010-02-28T10:34:03.54</time>
<name>1102</name>
</trkpt>
<trkpt lat="48.933873" lon="8.676238">
<ele>382.5</ele>
<speed>5.7</speed>
<course>146.6</course>
<desc>Speed 5.7 km/h Distance 1.69 km</desc>
<time>2010-02-28T10:34:04.54</time>
<name>1103</name>
</trkpt>
<trkpt lat="48.933860" lon="8.676252">
<ele>382.5</ele>
<speed>6.0</speed>
<course>133.1</course>
<desc>Speed 6.0 km/h Distance 1.69 km</desc>
<time>2010-02-28T10:34:05.54</time>
<name>1104</name>
</trkpt>
<trkpt lat="48.933847" lon="8.676273">
<ele>382.0</ele>
<speed>5.4</speed>
<course>129.1</course>
<desc>Speed 5.4 km/h Distance 1.69 km</desc>
<time>2010-02-28T10:34:06.54</time>
<name>1105</name>
</trkpt>
<trkpt lat="48.933833" lon="8.676298">
<ele>382.0</ele>
<speed>5.8</speed>
<course>129.7</course>
<desc>Speed 5.8 km/h Distance 1.69 km</desc>
<time>2010-02-28T10:34:07.54</time>
<name>1106</name>
</trkpt>
<trkpt lat="48.933823" lon="8.676317">
<ele>381.5</ele>
<speed>5.8</speed>
<course>136.8</course>
<desc>Speed 5.8 km/h Distance 1.70 km</desc>
<time>2010-02-28T10:34:08.54</time>
<name>1107</name>
</trkpt>
<trkpt lat="48.933812" lon="8.676333">
<ele>381.0</ele>
<speed>5.3</speed>
<course>127.3</course>
<desc>Speed 5.3 km/h Distance 1.70 km</desc>
<time>2010-02-28T10:34:09.54</time>
<name>1108</name>
</trkpt>
<trkpt lat="48.933802" lon="8.676353">
<ele>380.5</ele>
<speed>5.7</speed>
<course>133.1</course>
<desc>Speed 5.7 km/h Distance 1.70 km</desc>
<time>2010-02-28T10:34:10.54</time>
<name>1109</name>
</trkpt>
<trkpt lat="48.933788" lon="8.676375">
<ele>381.0</ele>
<speed>5.8</speed>
<course>133.1</course>
<desc>Speed 5.8 km/h Distance 1.70 km</desc>
<time>2010-02-28T10:34:11.54</time>
<name>1110</name>
</trkpt>
<trkpt lat="48.933775" lon="8.676397">
<ele>381.0</ele>
<speed>5.4</speed>
<course>136.5</course>
<desc>Speed 5.4 km/h Distance 1.70 km</desc>
<time>2010-02-28T10:34:12.54</time>
<name>1111</name>
</trkpt>
<trkpt lat="48.933760" lon="8.676418">
<ele>381.0</ele>
<speed>6.1</speed>
<course>133.6</course>
<desc>Speed 6.1 km/h Distance 1.71 km</desc>
<time>2010-02-28T10:34:13.54</time>
<name>1112</name>
</trkpt>
<trkpt lat="48.933752" lon="8.676432">
<ele>380.5</ele>
<speed>4.9</speed>
<course>90.0</course>
<desc>Speed 4.9 km/h Distance 1.71 km</desc>
<time>2010-02-28T10:34:14.54</time>
<name>1113</name>
</trkpt>
<trkpt lat="48.933752" lon="8.676472">
<ele>380.0</ele>
<speed>9.1</speed>
<course>157.9</course>
<desc>Speed 9.1 km/h Distance 1.71 km</desc>
<time>2010-02-28T10:34:15.54</time>
<name>1114</name>
</trkpt>
<trkpt lat="48.933738" lon="8.676480">
<ele>380.0</ele>
<speed>6.2</speed>
<course>131.6</course>
<desc>Speed 6.2 km/h Distance 1.71 km</desc>
<time>2010-02-28T10:34:16.54</time>
<name>1115</name>
</trkpt>
<trkpt lat="48.933727" lon="8.676500">
<ele>380.5</ele>
<speed>5.2</speed>
<course>127.3</course>
<desc>Speed 5.2 km/h Distance 1.71 km</desc>
<time>2010-02-28T10:34:17.54</time>
<name>1116</name>
</trkpt>
<trkpt lat="48.933717" lon="8.676520">
<ele>380.0</ele>
<speed>5.7</speed>
<course>135.3</course>
<desc>Speed 5.7 km/h Distance 1.72 km</desc>
<time>2010-02-28T10:34:18.54</time>
<name>1117</name>
</trkpt>
<trkpt lat="48.933707" lon="8.676535">
<ele>380.0</ele>
<speed>4.8</speed>
<course>136.9</course>
<desc>Speed 4.8 km/h Distance 1.72 km</desc>
<time>2010-02-28T10:34:19.54</time>
<name>1118</name>
</trkpt>
<trkpt lat="48.933695" lon="8.676552">
<ele>380.0</ele>
<speed>4.9</speed>
<course>134.1</course>
<desc>Speed 4.9 km/h Distance 1.72 km</desc>
<time>2010-02-28T10:34:20.54</time>
<name>1119</name>
</trkpt>
<trkpt lat="48.933683" lon="8.676570">
<ele>380.0</ele>
<speed>4.9</speed>
<course>138.8</course>
<desc>Speed 4.9 km/h Distance 1.72 km</desc>
<time>2010-02-28T10:34:21.54</time>
<name>1120</name>
</trkpt>
<trkpt lat="48.933673" lon="8.676583">
<ele>380.0</ele>
<speed>4.5</speed>
<course>146.7</course>
<desc>Speed 4.5 km/h Distance 1.72 km</desc>
<time>2010-02-28T10:34:22.54</time>
<name>1121</name>
</trkpt>
<trkpt lat="48.933658" lon="8.676598">
<ele>380.5</ele>
<speed>5.0</speed>
<course>150.8</course>
<desc>Speed 5.0 km/h Distance 1.73 km</desc>
<time>2010-02-28T10:34:23.54</time>
<name>1122</name>
</trkpt>
<trkpt lat="48.933647" lon="8.676608">
<ele>381.0</ele>
<speed>4.3</speed>
<course>152.1</course>
<desc>Speed 4.3 km/h Distance 1.73 km</desc>
<time>2010-02-28T10:34:24.54</time>
<name>1123</name>
</trkpt>
<trkpt lat="48.933638" lon="8.676615">
<ele>381.5</ele>
<speed>3.0</speed>
<course>90.0</course>
<desc>Speed 3.0 km/h Distance 1.73 km</desc>
<time>2010-02-28T10:34:25.54</time>
<name>1124</name>
</trkpt>
<trkpt lat="48.933638" lon="8.676617">
<ele>381.5</ele>
<speed>0.7</speed>
<course>156.2</course>
<desc>Speed 0.7 km/h Distance 1.73 km</desc>
<time>2010-02-28T10:34:26.54</time>
<name>1125</name>
</trkpt>
<trkpt lat="48.933633" lon="8.676620">
<ele>382.5</ele>
<speed>0.9</speed>
<course>217.2</course>
<desc>Speed 0.9 km/h Distance 1.73 km</desc>
<time>2010-02-28T10:34:27.54</time>
<name>1126</name>
</trkpt>
<trkpt lat="48.933632" lon="8.676618">
<ele>382.5</ele>
<speed>0.7</speed>
<course>150.8</course>
<desc>Speed 0.7 km/h Distance 1.73 km</desc>
<time>2010-02-28T10:34:28.54</time>
<name>1127</name>
</trkpt>
<trkpt lat="48.933630" lon="8.676620">
<ele>383.0</ele>
<speed>0.1</speed>
<course>150.8</course>
<desc>Speed 0.1 km/h Distance 1.73 km</desc>
<time>2010-02-28T10:34:29.54</time>
<name>1128</name>
</trkpt>
<trkpt lat="48.933630" lon="8.676622">
<ele>383.0</ele>
<speed>0.6</speed>
<course>180.0</course>
<desc>Speed 0.6 km/h Distance 1.73 km</desc>
<time>2010-02-28T10:34:30.54</time>
<name>1129</name>
</trkpt>
<trkpt lat="48.933628" lon="8.676622">
<ele>383.0</ele>
<speed>0.7</speed>
<course>142.8</course>
<desc>Speed 0.7 km/h Distance 1.73 km</desc>
<time>2010-02-28T10:34:31.54</time>
<name>1130</name>
</trkpt>
<trkpt lat="48.933627" lon="8.676623">
<ele>383.5</ele>
<speed>0.5</speed>
<course>150.8</course>
<desc>Speed 0.5 km/h Distance 1.73 km</desc>
<time>2010-02-28T10:34:32.54</time>
<name>1131</name>
</trkpt>
<trkpt lat="48.933625" lon="8.676625">
<ele>383.5</ele>
<speed>0.6</speed>
<course>140.6</course>
<desc>Speed 0.6 km/h Distance 1.73 km</desc>
<time>2010-02-28T10:34:33.54</time>
<name>1132</name>
</trkpt>
<trkpt lat="48.933618" lon="8.676633">
<ele>383.5</ele>
<speed>1.7</speed>
<course>106.7</course>
<desc>Speed 1.7 km/h Distance 1.73 km</desc>
<time>2010-02-28T10:34:34.54</time>
<name>1133</name>
</trkpt>
<trkpt lat="48.933617" lon="8.676642">
<ele>383.5</ele>
<speed>2.2</speed>
<course>124.0</course>
<desc>Speed 2.2 km/h Distance 1.73 km</desc>
<time>2010-02-28T10:34:35.54</time>
<name>1134</name>
</trkpt>
<trkpt lat="48.933610" lon="8.676657">
<ele>383.0</ele>
<speed>3.8</speed>
<course>150.8</course>
<desc>Speed 3.8 km/h Distance 1.73 km</desc>
<time>2010-02-28T10:34:36.54</time>
<name>1135</name>
</trkpt>
<trkpt lat="48.933598" lon="8.676667">
<ele>382.5</ele>
<speed>4.5</speed>
<course>149.7</course>
<desc>Speed 4.5 km/h Distance 1.73 km</desc>
<time>2010-02-28T10:34:37.54</time>
<name>1136</name>
</trkpt>
<trkpt lat="48.933583" lon="8.676680">
<ele>382.5</ele>
<speed>6.1</speed>
<course>129.1</course>
<desc>Speed 6.1 km/h Distance 1.74 km</desc>
<time>2010-02-28T10:34:38.54</time>
<name>1137</name>
</trkpt>
<trkpt lat="48.933570" lon="8.676705">
<ele>384.0</ele>
<speed>7.3</speed>
<course>143.4</course>
<desc>Speed 7.3 km/h Distance 1.74 km</desc>
<time>2010-02-28T10:34:39.54</time>
<name>1138</name>
</trkpt>
<trkpt lat="48.933557" lon="8.676720">
<ele>384.0</ele>
<speed>5.5</speed>
<course>124.7</course>
<desc>Speed 5.5 km/h Distance 1.74 km</desc>
<time>2010-02-28T10:34:40.54</time>
<name>1139</name>
</trkpt>
<trkpt lat="48.933548" lon="8.676738">
<ele>384.0</ele>
<speed>4.5</speed>
<course>132.4</course>
<desc>Speed 4.5 km/h Distance 1.74 km</desc>
<time>2010-02-28T10:34:41.54</time>
<name>1140</name>
</trkpt>
<trkpt lat="48.933538" lon="8.676755">
<ele>384.0</ele>
<speed>4.5</speed>
<course>146.6</course>
<desc>Speed 4.5 km/h Distance 1.74 km</desc>
<time>2010-02-28T10:34:42.54</time>
<name>1141</name>
</trkpt>
<trkpt lat="48.933527" lon="8.676767">
<ele>383.5</ele>
<speed>5.3</speed>
<course>132.4</course>
<desc>Speed 5.3 km/h Distance 1.75 km</desc>
<time>2010-02-28T10:34:43.54</time>
<name>1142</name>
</trkpt>
<trkpt lat="48.933517" lon="8.676783">
<ele>383.5</ele>
<speed>5.6</speed>
<course>135.5</course>
<desc>Speed 5.6 km/h Distance 1.75 km</desc>
<time>2010-02-28T10:34:44.54</time>
<name>1143</name>
</trkpt>
<trkpt lat="48.933507" lon="8.676798">
<ele>383.5</ele>
<speed>5.5</speed>
<course>127.3</course>
<desc>Speed 5.5 km/h Distance 1.75 km</desc>
<time>2010-02-28T10:34:45.54</time>
<name>1144</name>
</trkpt>
<trkpt lat="48.933498" lon="8.676815">
<ele>383.5</ele>
<speed>5.4</speed>
<course>135.5</course>
<desc>Speed 5.4 km/h Distance 1.75 km</desc>
<time>2010-02-28T10:34:46.54</time>
<name>1145</name>
</trkpt>
<trkpt lat="48.933488" lon="8.676830">
<ele>383.5</ele>
<speed>5.2</speed>
<course>138.8</course>
<desc>Speed 5.2 km/h Distance 1.75 km</desc>
<time>2010-02-28T10:34:47.54</time>
<name>1146</name>
</trkpt>
<trkpt lat="48.933478" lon="8.676843">
<ele>383.0</ele>
<speed>5.3</speed>
<course>150.6</course>
<desc>Speed 5.3 km/h Distance 1.75 km</desc>
<time>2010-02-28T10:34:48.54</time>
<name>1147</name>
</trkpt>
<trkpt lat="48.933467" lon="8.676853">
<ele>383.0</ele>
<speed>5.5</speed>
<course>139.8</course>
<desc>Speed 5.5 km/h Distance 1.75 km</desc>
<time>2010-02-28T10:34:49.54</time>
<name>1148</name>
</trkpt>
<trkpt lat="48.933455" lon="8.676868">
<ele>383.0</ele>
<speed>5.7</speed>
<course>143.1</course>
<desc>Speed 5.7 km/h Distance 1.76 km</desc>
<time>2010-02-28T10:34:50.54</time>
<name>1149</name>
</trkpt>
<trkpt lat="48.933443" lon="8.676882">
<ele>383.0</ele>
<speed>5.4</speed>
<course>143.0</course>
<desc>Speed 5.4 km/h Distance 1.76 km</desc>
<time>2010-02-28T10:34:51.54</time>
<name>1150</name>
</trkpt>
<trkpt lat="48.933432" lon="8.676895">
<ele>382.5</ele>
<speed>5.5</speed>
<course>158.5</course>
<desc>Speed 5.5 km/h Distance 1.76 km</desc>
<time>2010-02-28T10:34:52.54</time>
<name>1151</name>
</trkpt>
<trkpt lat="48.933415" lon="8.676905">
<ele>382.5</ele>
<speed>5.9</speed>
<course>138.8</course>
<desc>Speed 5.9 km/h Distance 1.76 km</desc>
<time>2010-02-28T10:34:53.54</time>
<name>1152</name>
</trkpt>
<trkpt lat="48.933405" lon="8.676918">
<ele>382.0</ele>
<speed>5.2</speed>
<course>150.6</course>
<desc>Speed 5.2 km/h Distance 1.76 km</desc>
<time>2010-02-28T10:34:54.54</time>
<name>1153</name>
</trkpt>
<trkpt lat="48.933393" lon="8.676928">
<ele>382.0</ele>
<speed>5.1</speed>
<course>138.7</course>
<desc>Speed 5.1 km/h Distance 1.76 km</desc>
<time>2010-02-28T10:34:55.54</time>
<name>1154</name>
</trkpt>
<trkpt lat="48.933383" lon="8.676942">
<ele>382.0</ele>
<speed>5.4</speed>
<course>143.1</course>
<desc>Speed 5.4 km/h Distance 1.77 km</desc>
<time>2010-02-28T10:34:56.54</time>
<name>1155</name>
</trkpt>
<trkpt lat="48.933372" lon="8.676955">
<ele>382.0</ele>
<speed>5.5</speed>
<course>143.4</course>
<desc>Speed 5.5 km/h Distance 1.77 km</desc>
<time>2010-02-28T10:34:57.54</time>
<name>1156</name>
</trkpt>
<trkpt lat="48.933358" lon="8.676970">
<ele>382.0</ele>
<speed>5.8</speed>
<course>139.8</course>
<desc>Speed 5.8 km/h Distance 1.77 km</desc>
<time>2010-02-28T10:34:58.54</time>
<name>1157</name>
</trkpt>
<trkpt lat="48.933347" lon="8.676985">
<ele>382.0</ele>
<speed>5.7</speed>
<course>143.5</course>
<desc>Speed 5.7 km/h Distance 1.77 km</desc>
<time>2010-02-28T10:34:59.54</time>
<name>1158</name>
</trkpt>
<trkpt lat="48.933333" lon="8.677000">
<ele>382.0</ele>
<speed>5.9</speed>
<course>146.6</course>
<desc>Speed 5.9 km/h Distance 1.77 km</desc>
<time>2010-02-28T10:35:00.54</time>
<name>1159</name>
</trkpt>
<trkpt lat="48.933320" lon="8.677013">
<ele>381.5</ele>
<speed>5.7</speed>
<course>153.8</course>
<desc>Speed 5.7 km/h Distance 1.77 km</desc>
<time>2010-02-28T10:35:01.54</time>
<name>1160</name>
</trkpt>
<trkpt lat="48.933307" lon="8.677023">
<ele>381.5</ele>
<speed>5.6</speed>
<course>150.2</course>
<desc>Speed 5.6 km/h Distance 1.78 km</desc>
<time>2010-02-28T10:35:02.54</time>
<name>1161</name>
</trkpt>
<trkpt lat="48.933293" lon="8.677035">
<ele>381.5</ele>
<speed>5.7</speed>
<course>151.4</course>
<desc>Speed 5.7 km/h Distance 1.78 km</desc>
<time>2010-02-28T10:35:03.54</time>
<name>1162</name>
</trkpt>
<trkpt lat="48.933283" lon="8.677043">
<ele>381.0</ele>
<speed>4.6</speed>
<course>150.6</course>
<desc>Speed 4.6 km/h Distance 1.78 km</desc>
<time>2010-02-28T10:35:04.54</time>
<name>1163</name>
</trkpt>
<trkpt lat="48.933272" lon="8.677053">
<ele>381.0</ele>
<speed>5.1</speed>
<course>146.6</course>
<desc>Speed 5.1 km/h Distance 1.78 km</desc>
<time>2010-02-28T10:35:05.54</time>
<name>1164</name>
</trkpt>
<trkpt lat="48.933258" lon="8.677067">
<ele>381.0</ele>
<speed>5.7</speed>
<course>150.6</course>
<desc>Speed 5.7 km/h Distance 1.78 km</desc>
<time>2010-02-28T10:35:06.54</time>
<name>1165</name>
</trkpt>
<trkpt lat="48.933247" lon="8.677077">
<ele>380.5</ele>
<speed>5.6</speed>
<course>156.3</course>
<desc>Speed 5.6 km/h Distance 1.78 km</desc>
<time>2010-02-28T10:35:07.54</time>
<name>1166</name>
</trkpt>
<trkpt lat="48.933232" lon="8.677087">
<ele>380.0</ele>
<speed>6.2</speed>
<course>159.1</course>
<desc>Speed 6.2 km/h Distance 1.79 km</desc>
<time>2010-02-28T10:35:08.54</time>
<name>1167</name>
</trkpt>
<trkpt lat="48.933220" lon="8.677093">
<ele>379.5</ele>
<speed>5.3</speed>
<course>155.4</course>
<desc>Speed 5.3 km/h Distance 1.79 km</desc>
<time>2010-02-28T10:35:09.54</time>
<name>1168</name>
</trkpt>
<trkpt lat="48.933208" lon="8.677102">
<ele>379.5</ele>
<speed>5.0</speed>
<course>142.7</course>
<desc>Speed 5.0 km/h Distance 1.79 km</desc>
<time>2010-02-28T10:35:10.54</time>
<name>1169</name>
</trkpt>
<trkpt lat="48.933198" lon="8.677113">
<ele>379.5</ele>
<speed>4.9</speed>
<course>147.0</course>
<desc>Speed 4.9 km/h Distance 1.79 km</desc>
<time>2010-02-28T10:35:11.54</time>
<name>1170</name>
</trkpt>
<trkpt lat="48.933188" lon="8.677123">
<ele>379.0</ele>
<speed>4.8</speed>
<course>155.1</course>
<desc>Speed 4.8 km/h Distance 1.79 km</desc>
<time>2010-02-28T10:35:12.54</time>
<name>1171</name>
</trkpt>
<trkpt lat="48.933177" lon="8.677132">
<ele>378.5</ele>
<speed>5.1</speed>
<course>150.6</course>
<desc>Speed 5.1 km/h Distance 1.79 km</desc>
<time>2010-02-28T10:35:13.54</time>
<name>1172</name>
</trkpt>
<trkpt lat="48.933165" lon="8.677142">
<ele>378.5</ele>
<speed>5.5</speed>
<course>146.8</course>
<desc>Speed 5.5 km/h Distance 1.79 km</desc>
<time>2010-02-28T10:35:14.54</time>
<name>1173</name>
</trkpt>
<trkpt lat="48.933157" lon="8.677150">
<ele>378.0</ele>
<speed>4.5</speed>
<course>150.6</course>
<desc>Speed 4.5 km/h Distance 1.80 km</desc>
<time>2010-02-28T10:35:15.54</time>
<name>1174</name>
</trkpt>
<trkpt lat="48.933145" lon="8.677160">
<ele>378.0</ele>
<speed>5.5</speed>
<course>151.4</course>
<desc>Speed 5.5 km/h Distance 1.80 km</desc>
<time>2010-02-28T10:35:16.54</time>
<name>1175</name>
</trkpt>
<trkpt lat="48.933135" lon="8.677168">
<ele>377.5</ele>
<speed>4.5</speed>
<course>155.1</course>
<desc>Speed 4.5 km/h Distance 1.80 km</desc>
<time>2010-02-28T10:35:17.54</time>
<name>1176</name>
</trkpt>
<trkpt lat="48.933123" lon="8.677177">
<ele>377.5</ele>
<speed>5.1</speed>
<course>159.8</course>
<desc>Speed 5.1 km/h Distance 1.80 km</desc>
<time>2010-02-28T10:35:18.54</time>
<name>1177</name>
</trkpt>
<trkpt lat="48.933112" lon="8.677183">
<ele>377.0</ele>
<speed>4.8</speed>
<course>146.8</course>
<desc>Speed 4.8 km/h Distance 1.80 km</desc>
<time>2010-02-28T10:35:19.54</time>
<name>1178</name>
</trkpt>
<trkpt lat="48.933102" lon="8.677193">
<ele>376.5</ele>
<speed>4.7</speed>
<course>151.4</course>
<desc>Speed 4.7 km/h Distance 1.80 km</desc>
<time>2010-02-28T10:35:20.54</time>
<name>1179</name>
</trkpt>
<trkpt lat="48.933092" lon="8.677202">
<ele>376.5</ele>
<speed>4.4</speed>
<course>151.4</course>
<desc>Speed 4.4 km/h Distance 1.80 km</desc>
<time>2010-02-28T10:35:21.54</time>
<name>1180</name>
</trkpt>
<trkpt lat="48.933082" lon="8.677210">
<ele>376.0</ele>
<speed>4.2</speed>
<course>158.5</course>
<desc>Speed 4.2 km/h Distance 1.80 km</desc>
<time>2010-02-28T10:35:22.54</time>
<name>1181</name>
</trkpt>
<trkpt lat="48.933073" lon="8.677215">
<ele>375.5</ele>
<speed>4.3</speed>
<course>150.6</course>
<desc>Speed 4.3 km/h Distance 1.81 km</desc>
<time>2010-02-28T10:35:23.54</time>
<name>1182</name>
</trkpt>
<trkpt lat="48.933062" lon="8.677225">
<ele>375.0</ele>
<speed>5.1</speed>
<course>151.4</course>
<desc>Speed 5.1 km/h Distance 1.81 km</desc>
<time>2010-02-28T10:35:24.54</time>
<name>1183</name>
</trkpt>
<trkpt lat="48.933052" lon="8.677233">
<ele>375.0</ele>
<speed>5.2</speed>
<course>154.0</course>
<desc>Speed 5.2 km/h Distance 1.81 km</desc>
<time>2010-02-28T10:35:25.54</time>
<name>1184</name>
</trkpt>
<trkpt lat="48.933038" lon="8.677243">
<ele>375.0</ele>
<speed>5.7</speed>
<course>150.8</course>
<desc>Speed 5.7 km/h Distance 1.81 km</desc>
<time>2010-02-28T10:35:26.54</time>
<name>1185</name>
</trkpt>
<trkpt lat="48.933027" lon="8.677253">
<ele>375.0</ele>
<speed>5.5</speed>
<course>150.2</course>
<desc>Speed 5.5 km/h Distance 1.81 km</desc>
<time>2010-02-28T10:35:27.54</time>
<name>1186</name>
</trkpt>
<trkpt lat="48.933013" lon="8.677265">
<ele>375.0</ele>
<speed>5.4</speed>
<course>151.4</course>
<desc>Speed 5.4 km/h Distance 1.81 km</desc>
<time>2010-02-28T10:35:28.54</time>
<name>1187</name>
</trkpt>
<trkpt lat="48.933003" lon="8.677273">
<ele>375.0</ele>
<speed>4.9</speed>
<course>152.8</course>
<desc>Speed 4.9 km/h Distance 1.81 km</desc>
<time>2010-02-28T10:35:29.54</time>
<name>1188</name>
</trkpt>
<trkpt lat="48.932988" lon="8.677285">
<ele>375.0</ele>
<speed>5.8</speed>
<course>153.8</course>
<desc>Speed 5.8 km/h Distance 1.82 km</desc>
<time>2010-02-28T10:35:30.54</time>
<name>1189</name>
</trkpt>
<trkpt lat="48.932975" lon="8.677295">
<ele>375.5</ele>
<speed>5.7</speed>
<course>152.8</course>
<desc>Speed 5.7 km/h Distance 1.82 km</desc>
<time>2010-02-28T10:35:31.54</time>
<name>1190</name>
</trkpt>
<trkpt lat="48.932960" lon="8.677307">
<ele>375.5</ele>
<speed>5.9</speed>
<course>152.8</course>
<desc>Speed 5.9 km/h Distance 1.82 km</desc>
<time>2010-02-28T10:35:32.54</time>
<name>1191</name>
</trkpt>
<trkpt lat="48.932945" lon="8.677318">
<ele>376.0</ele>
<speed>5.9</speed>
<course>153.6</course>
<desc>Speed 5.9 km/h Distance 1.82 km</desc>
<time>2010-02-28T10:35:33.54</time>
<name>1192</name>
</trkpt>
<trkpt lat="48.932932" lon="8.677328">
<ele>376.5</ele>
<speed>5.6</speed>
<course>153.8</course>
<desc>Speed 5.6 km/h Distance 1.82 km</desc>
<time>2010-02-28T10:35:34.54</time>
<name>1193</name>
</trkpt>
<trkpt lat="48.932918" lon="8.677338">
<ele>376.5</ele>
<speed>5.5</speed>
<course>150.0</course>
<desc>Speed 5.5 km/h Distance 1.83 km</desc>
<time>2010-02-28T10:35:35.54</time>
<name>1194</name>
</trkpt>
<trkpt lat="48.932905" lon="8.677350">
<ele>376.5</ele>
<speed>5.7</speed>
<course>138.8</course>
<desc>Speed 5.7 km/h Distance 1.83 km</desc>
<time>2010-02-28T10:35:36.54</time>
<name>1195</name>
</trkpt>
<trkpt lat="48.932895" lon="8.677363">
<ele>376.5</ele>
<speed>5.4</speed>
<course>129.7</course>
<desc>Speed 5.4 km/h Distance 1.83 km</desc>
<time>2010-02-28T10:35:37.54</time>
<name>1196</name>
</trkpt>
<trkpt lat="48.932885" lon="8.677382">
<ele>376.5</ele>
<speed>5.5</speed>
<course>121.3</course>
<desc>Speed 5.5 km/h Distance 1.83 km</desc>
<time>2010-02-28T10:35:38.54</time>
<name>1197</name>
</trkpt>
<trkpt lat="48.932878" lon="8.677398">
<ele>376.0</ele>
<speed>4.6</speed>
<course>127.2</course>
<desc>Speed 4.6 km/h Distance 1.83 km</desc>
<time>2010-02-28T10:35:39.54</time>
<name>1198</name>
</trkpt>
<trkpt lat="48.932870" lon="8.677415">
<ele>376.0</ele>
<speed>4.9</speed>
<course>119.0</course>
<desc>Speed 4.9 km/h Distance 1.83 km</desc>
<time>2010-02-28T10:35:40.54</time>
<name>1199</name>
</trkpt>
<trkpt lat="48.932863" lon="8.677433">
<ele>376.5</ele>
<speed>5.3</speed>
<course>124.6</course>
<desc>Speed 5.3 km/h Distance 1.83 km</desc>
<time>2010-02-28T10:35:41.54</time>
<name>1200</name>
</trkpt>
<trkpt lat="48.932855" lon="8.677452">
<ele>377.0</ele>
<speed>5.0</speed>
<course>110.9</course>
<desc>Speed 5.0 km/h Distance 1.84 km</desc>
<time>2010-02-28T10:35:42.54</time>
<name>1201</name>
</trkpt>
<trkpt lat="48.932850" lon="8.677472">
<ele>377.0</ele>
<speed>4.2</speed>
<course>100.7</course>
<desc>Speed 4.2 km/h Distance 1.84 km</desc>
<time>2010-02-28T10:35:43.54</time>
<name>1202</name>
</trkpt>
<trkpt lat="48.932848" lon="8.677485">
<ele>378.0</ele>
<speed>2.5</speed>
<course>90.0</course>
<desc>Speed 2.5 km/h Distance 1.84 km</desc>
<time>2010-02-28T10:35:44.54</time>
<name>1203</name>
</trkpt>
<trkpt lat="48.932848" lon="8.677500">
<ele>379.0</ele>
<speed>4.0</speed>
<course>82.1</course>
<desc>Speed 4.0 km/h Distance 1.84 km</desc>
<time>2010-02-28T10:35:45.54</time>
<name>1204</name>
</trkpt>
<trkpt lat="48.932850" lon="8.677518">
<ele>379.0</ele>
<speed>4.8</speed>
<course>90.0</course>
<desc>Speed 4.8 km/h Distance 1.84 km</desc>
<time>2010-02-28T10:35:46.54</time>
<name>1205</name>
</trkpt>
<trkpt lat="48.932850" lon="8.677540">
<ele>379.5</ele>
<speed>5.6</speed>
<course>90.0</course>
<desc>Speed 5.6 km/h Distance 1.84 km</desc>
<time>2010-02-28T10:35:47.54</time>
<name>1206</name>
</trkpt>
<trkpt lat="48.932850" lon="8.677558">
<ele>380.0</ele>
<speed>4.4</speed>
<course>77.7</course>
<desc>Speed 4.4 km/h Distance 1.84 km</desc>
<time>2010-02-28T10:35:48.54</time>
<name>1207</name>
</trkpt>
<trkpt lat="48.932853" lon="8.677582">
<ele>380.5</ele>
<speed>5.8</speed>
<course>82.8</course>
<desc>Speed 5.8 km/h Distance 1.85 km</desc>
<time>2010-02-28T10:35:49.54</time>
<name>1208</name>
</trkpt>
<trkpt lat="48.932855" lon="8.677602">
<ele>381.0</ele>
<speed>5.2</speed>
<course>90.0</course>
<desc>Speed 5.2 km/h Distance 1.85 km</desc>
<time>2010-02-28T10:35:50.54</time>
<name>1209</name>
</trkpt>
<trkpt lat="48.932855" lon="8.677622">
<ele>381.5</ele>
<speed>4.8</speed>
<course>83.8</course>
<desc>Speed 4.8 km/h Distance 1.85 km</desc>
<time>2010-02-28T10:35:51.54</time>
<name>1210</name>
</trkpt>
<trkpt lat="48.932857" lon="8.677645">
<ele>382.0</ele>
<speed>5.1</speed>
<course>83.3</course>
<desc>Speed 5.1 km/h Distance 1.85 km</desc>
<time>2010-02-28T10:35:52.54</time>
<name>1211</name>
</trkpt>
<trkpt lat="48.932858" lon="8.677667">
<ele>382.5</ele>
<speed>5.4</speed>
<course>83.8</course>
<desc>Speed 5.4 km/h Distance 1.85 km</desc>
<time>2010-02-28T10:35:53.54</time>
<name>1212</name>
</trkpt>
<trkpt lat="48.932860" lon="8.677690">
<ele>382.5</ele>
<speed>5.6</speed>
<course>90.0</course>
<desc>Speed 5.6 km/h Distance 1.85 km</desc>
<time>2010-02-28T10:35:54.54</time>
<name>1213</name>
</trkpt>
<trkpt lat="48.932860" lon="8.677710">
<ele>383.0</ele>
<speed>5.1</speed>
<course>97.2</course>
<desc>Speed 5.1 km/h Distance 1.86 km</desc>
<time>2010-02-28T10:35:55.54</time>
<name>1214</name>
</trkpt>
<trkpt lat="48.932858" lon="8.677730">
<ele>383.0</ele>
<speed>5.4</speed>
<course>103.2</course>
<desc>Speed 5.4 km/h Distance 1.86 km</desc>
<time>2010-02-28T10:35:56.54</time>
<name>1215</name>
</trkpt>
<trkpt lat="48.932855" lon="8.677752">
<ele>383.0</ele>
<speed>5.5</speed>
<course>130.2</course>
<desc>Speed 5.5 km/h Distance 1.86 km</desc>
<time>2010-02-28T10:35:57.54</time>
<name>1216</name>
</trkpt>
<trkpt lat="48.932847" lon="8.677767">
<ele>382.5</ele>
<speed>5.3</speed>
<course>135.5</course>
<desc>Speed 5.3 km/h Distance 1.86 km</desc>
<time>2010-02-28T10:35:58.54</time>
<name>1217</name>
</trkpt>
<trkpt lat="48.932840" lon="8.677777">
<ele>382.0</ele>
<speed>4.9</speed>
<course>130.3</course>
<desc>Speed 4.9 km/h Distance 1.86 km</desc>
<time>2010-02-28T10:35:59.54</time>
<name>1218</name>
</trkpt>
<trkpt lat="48.932832" lon="8.677792">
<ele>381.5</ele>
<speed>5.1</speed>
<course>138.7</course>
<desc>Speed 5.1 km/h Distance 1.86 km</desc>
<time>2010-02-28T10:36:00.54</time>
<name>1219</name>
</trkpt>
<trkpt lat="48.932822" lon="8.677805">
<ele>381.0</ele>
<speed>5.7</speed>
<course>138.7</course>
<desc>Speed 5.7 km/h Distance 1.86 km</desc>
<time>2010-02-28T10:36:01.54</time>
<name>1220</name>
</trkpt>
<trkpt lat="48.932812" lon="8.677818">
<ele>381.0</ele>
<speed>5.3</speed>
<course>143.1</course>
<desc>Speed 5.3 km/h Distance 1.87 km</desc>
<time>2010-02-28T10:36:02.54</time>
<name>1221</name>
</trkpt>
<trkpt lat="48.932800" lon="8.677832">
<ele>381.0</ele>
<speed>5.8</speed>
<course>146.7</course>
<desc>Speed 5.8 km/h Distance 1.87 km</desc>
<time>2010-02-28T10:36:03.54</time>
<name>1222</name>
</trkpt>
<trkpt lat="48.932788" lon="8.677843">
<ele>381.0</ele>
<speed>5.5</speed>
<course>153.8</course>
<desc>Speed 5.5 km/h Distance 1.87 km</desc>
<time>2010-02-28T10:36:04.54</time>
<name>1223</name>
</trkpt>
<trkpt lat="48.932775" lon="8.677853">
<ele>381.0</ele>
<speed>5.4</speed>
<course>153.8</course>
<desc>Speed 5.4 km/h Distance 1.87 km</desc>
<time>2010-02-28T10:36:05.54</time>
<name>1224</name>
</trkpt>
<trkpt lat="48.932762" lon="8.677863">
<ele>381.0</ele>
<speed>5.3</speed>
<course>146.8</course>
<desc>Speed 5.3 km/h Distance 1.87 km</desc>
<time>2010-02-28T10:36:06.54</time>
<name>1225</name>
</trkpt>
<trkpt lat="48.932752" lon="8.677873">
<ele>380.5</ele>
<speed>5.3</speed>
<course>150.2</course>
<desc>Speed 5.3 km/h Distance 1.87 km</desc>
<time>2010-02-28T10:36:07.54</time>
<name>1226</name>
</trkpt>
<trkpt lat="48.932738" lon="8.677885">
<ele>380.5</ele>
<speed>5.8</speed>
<course>157.9</course>
<desc>Speed 5.8 km/h Distance 1.88 km</desc>
<time>2010-02-28T10:36:08.54</time>
<name>1227</name>
</trkpt>
<trkpt lat="48.932725" lon="8.677893">
<ele>380.5</ele>
<speed>5.8</speed>
<course>171.0</course>
<desc>Speed 5.8 km/h Distance 1.88 km</desc>
<time>2010-02-28T10:36:09.54</time>
<name>1228</name>
</trkpt>
<trkpt lat="48.932712" lon="8.677897">
<ele>380.0</ele>
<speed>5.3</speed>
<course>176.2</course>
<desc>Speed 5.3 km/h Distance 1.88 km</desc>
<time>2010-02-28T10:36:10.54</time>
<name>1229</name>
</trkpt>
<trkpt lat="48.932697" lon="8.677898">
<ele>380.0</ele>
<speed>6.0</speed>
<course>185.3</course>
<desc>Speed 6.0 km/h Distance 1.88 km</desc>
<time>2010-02-28T10:36:11.54</time>
<name>1230</name>
</trkpt>
<trkpt lat="48.932683" lon="8.677897">
<ele>379.5</ele>
<speed>5.7</speed>
<course>154.8</course>
<desc>Speed 5.7 km/h Distance 1.88 km</desc>
<time>2010-02-28T10:36:12.54</time>
<name>1231</name>
</trkpt>
<trkpt lat="48.932672" lon="8.677905">
<ele>379.5</ele>
<speed>5.5</speed>
<course>157.9</course>
<desc>Speed 5.5 km/h Distance 1.88 km</desc>
<time>2010-02-28T10:36:13.54</time>
<name>1232</name>
</trkpt>
<trkpt lat="48.932658" lon="8.677913">
<ele>379.0</ele>
<speed>5.6</speed>
<course>150.6</course>
<desc>Speed 5.6 km/h Distance 1.88 km</desc>
<time>2010-02-28T10:36:14.54</time>
<name>1233</name>
</trkpt>
<trkpt lat="48.932647" lon="8.677923">
<ele>379.0</ele>
<speed>5.3</speed>
<course>154.8</course>
<desc>Speed 5.3 km/h Distance 1.89 km</desc>
<time>2010-02-28T10:36:15.54</time>
<name>1234</name>
</trkpt>
<trkpt lat="48.932635" lon="8.677932">
<ele>379.0</ele>
<speed>5.4</speed>
<course>146.6</course>
<desc>Speed 5.4 km/h Distance 1.89 km</desc>
<time>2010-02-28T10:36:16.54</time>
<name>1235</name>
</trkpt>
<trkpt lat="48.932623" lon="8.677943">
<ele>379.0</ele>
<speed>5.3</speed>
<course>150.2</course>
<desc>Speed 5.3 km/h Distance 1.89 km</desc>
<time>2010-02-28T10:36:17.54</time>
<name>1236</name>
</trkpt>
<trkpt lat="48.932610" lon="8.677955">
<ele>378.5</ele>
<speed>5.9</speed>
<course>157.7</course>
<desc>Speed 5.9 km/h Distance 1.89 km</desc>
<time>2010-02-28T10:36:18.54</time>
<name>1237</name>
</trkpt>
<trkpt lat="48.932597" lon="8.677963">
<ele>378.5</ele>
<speed>5.5</speed>
<course>157.4</course>
<desc>Speed 5.5 km/h Distance 1.89 km</desc>
<time>2010-02-28T10:36:19.54</time>
<name>1238</name>
</trkpt>
<trkpt lat="48.932583" lon="8.677972">
<ele>378.5</ele>
<speed>5.8</speed>
<course>157.9</course>
<desc>Speed 5.8 km/h Distance 1.89 km</desc>
<time>2010-02-28T10:36:20.54</time>
<name>1239</name>
</trkpt>
<trkpt lat="48.932570" lon="8.677980">
<ele>378.5</ele>
<speed>5.6</speed>
<course>157.7</course>
<desc>Speed 5.6 km/h Distance 1.90 km</desc>
<time>2010-02-28T10:36:21.54</time>
<name>1240</name>
</trkpt>
<trkpt lat="48.932557" lon="8.677988">
<ele>378.0</ele>
<speed>5.6</speed>
<course>154.0</course>
<desc>Speed 5.6 km/h Distance 1.90 km</desc>
<time>2010-02-28T10:36:22.54</time>
<name>1241</name>
</trkpt>
<trkpt lat="48.932543" lon="8.677998">
<ele>378.0</ele>
<speed>6.0</speed>
<course>154.0</course>
<desc>Speed 6.0 km/h Distance 1.90 km</desc>
<time>2010-02-28T10:36:23.54</time>
<name>1242</name>
</trkpt>
<trkpt lat="48.932530" lon="8.678008">
<ele>378.0</ele>
<speed>5.8</speed>
<course>146.9</course>
<desc>Speed 5.8 km/h Distance 1.90 km</desc>
<time>2010-02-28T10:36:24.54</time>
<name>1243</name>
</trkpt>
<trkpt lat="48.932518" lon="8.678020">
<ele>378.0</ele>
<speed>5.4</speed>
<course>150.6</course>
<desc>Speed 5.4 km/h Distance 1.90 km</desc>
<time>2010-02-28T10:36:25.54</time>
<name>1244</name>
</trkpt>
<trkpt lat="48.932507" lon="8.678030">
<ele>378.0</ele>
<speed>5.5</speed>
<course>150.6</course>
<desc>Speed 5.5 km/h Distance 1.90 km</desc>
<time>2010-02-28T10:36:26.54</time>
<name>1245</name>
</trkpt>
<trkpt lat="48.932495" lon="8.678040">
<ele>378.0</ele>
<speed>5.5</speed>
<course>146.7</course>
<desc>Speed 5.5 km/h Distance 1.90 km</desc>
<time>2010-02-28T10:36:27.54</time>
<name>1246</name>
</trkpt>
<trkpt lat="48.932483" lon="8.678052">
<ele>377.5</ele>
<speed>5.5</speed>
<course>146.9</course>
<desc>Speed 5.5 km/h Distance 1.91 km</desc>
<time>2010-02-28T10:36:28.54</time>
<name>1247</name>
</trkpt>
<trkpt lat="48.932472" lon="8.678063">
<ele>377.5</ele>
<speed>5.8</speed>
<course>154.8</course>
<desc>Speed 5.8 km/h Distance 1.91 km</desc>
<time>2010-02-28T10:36:29.54</time>
<name>1248</name>
</trkpt>
<trkpt lat="48.932460" lon="8.678072">
<ele>377.5</ele>
<speed>5.5</speed>
<course>154.0</course>
<desc>Speed 5.5 km/h Distance 1.91 km</desc>
<time>2010-02-28T10:36:30.54</time>
<name>1249</name>
</trkpt>
<trkpt lat="48.932447" lon="8.678082">
<ele>377.0</ele>
<speed>5.4</speed>
<course>150.6</course>
<desc>Speed 5.4 km/h Distance 1.91 km</desc>
<time>2010-02-28T10:36:31.54</time>
<name>1250</name>
</trkpt>
<trkpt lat="48.932435" lon="8.678092">
<ele>377.0</ele>
<speed>5.4</speed>
<course>150.6</course>
<desc>Speed 5.4 km/h Distance 1.91 km</desc>
<time>2010-02-28T10:36:32.54</time>
<name>1251</name>
</trkpt>
<trkpt lat="48.932423" lon="8.678102">
<ele>377.5</ele>
<speed>5.5</speed>
<course>153.8</course>
<desc>Speed 5.5 km/h Distance 1.91 km</desc>
<time>2010-02-28T10:36:33.54</time>
<name>1252</name>
</trkpt>
<trkpt lat="48.932410" lon="8.678112">
<ele>377.5</ele>
<speed>5.6</speed>
<course>150.6</course>
<desc>Speed 5.6 km/h Distance 1.92 km</desc>
<time>2010-02-28T10:36:34.54</time>
<name>1253</name>
</trkpt>
<trkpt lat="48.932398" lon="8.678122">
<ele>377.5</ele>
<speed>5.6</speed>
<course>146.6</course>
<desc>Speed 5.6 km/h Distance 1.92 km</desc>
<time>2010-02-28T10:36:35.54</time>
<name>1254</name>
</trkpt>
<trkpt lat="48.932387" lon="8.678133">
<ele>377.5</ele>
<speed>5.7</speed>
<course>177.3</course>
<desc>Speed 5.7 km/h Distance 1.92 km</desc>
<time>2010-02-28T10:36:36.54</time>
<name>1255</name>
</trkpt>
<trkpt lat="48.932367" lon="8.678135">
<ele>378.5</ele>
<speed>7.7</speed>
<course>146.7</course>
<desc>Speed 7.7 km/h Distance 1.92 km</desc>
<time>2010-02-28T10:36:37.54</time>
<name>1256</name>
</trkpt>
<trkpt lat="48.932355" lon="8.678147">
<ele>378.5</ele>
<speed>5.7</speed>
<course>150.6</course>
<desc>Speed 5.7 km/h Distance 1.92 km</desc>
<time>2010-02-28T10:36:38.54</time>
<name>1257</name>
</trkpt>
<trkpt lat="48.932343" lon="8.678157">
<ele>378.5</ele>
<speed>5.3</speed>
<course>153.8</course>
<desc>Speed 5.3 km/h Distance 1.92 km</desc>
<time>2010-02-28T10:36:39.54</time>
<name>1258</name>
</trkpt>
<trkpt lat="48.932330" lon="8.678167">
<ele>378.5</ele>
<speed>6.0</speed>
<course>157.4</course>
<desc>Speed 6.0 km/h Distance 1.93 km</desc>
<time>2010-02-28T10:36:40.54</time>
<name>1259</name>
</trkpt>
<trkpt lat="48.932317" lon="8.678175">
<ele>378.5</ele>
<speed>5.8</speed>
<course>153.8</course>
<desc>Speed 5.8 km/h Distance 1.93 km</desc>
<time>2010-02-28T10:36:41.54</time>
<name>1260</name>
</trkpt>
<trkpt lat="48.932303" lon="8.678185">
<ele>378.5</ele>
<speed>5.4</speed>
<course>135.3</course>
<desc>Speed 5.4 km/h Distance 1.93 km</desc>
<time>2010-02-28T10:36:42.54</time>
<name>1261</name>
</trkpt>
<trkpt lat="48.932293" lon="8.678200">
<ele>378.5</ele>
<speed>6.1</speed>
<course>154.0</course>
<desc>Speed 6.1 km/h Distance 1.93 km</desc>
<time>2010-02-28T10:36:43.54</time>
<name>1262</name>
</trkpt>
<trkpt lat="48.932280" lon="8.678210">
<ele>378.5</ele>
<speed>5.6</speed>
<course>150.6</course>
<desc>Speed 5.6 km/h Distance 1.93 km</desc>
<time>2010-02-28T10:36:44.54</time>
<name>1263</name>
</trkpt>
<trkpt lat="48.932268" lon="8.678220">
<ele>378.5</ele>
<speed>5.4</speed>
<course>150.2</course>
<desc>Speed 5.4 km/h Distance 1.93 km</desc>
<time>2010-02-28T10:36:45.54</time>
<name>1264</name>
</trkpt>
<trkpt lat="48.932255" lon="8.678232">
<ele>378.5</ele>
<speed>6.0</speed>
<course>150.8</course>
<desc>Speed 6.0 km/h Distance 1.94 km</desc>
<time>2010-02-28T10:36:46.54</time>
<name>1265</name>
</trkpt>
<trkpt lat="48.932243" lon="8.678242">
<ele>378.5</ele>
<speed>5.6</speed>
<course>157.9</course>
<desc>Speed 5.6 km/h Distance 1.94 km</desc>
<time>2010-02-28T10:36:47.54</time>
<name>1266</name>
</trkpt>
<trkpt lat="48.932230" lon="8.678250">
<ele>378.5</ele>
<speed>5.7</speed>
<course>161.6</course>
<desc>Speed 5.7 km/h Distance 1.94 km</desc>
<time>2010-02-28T10:36:48.54</time>
<name>1267</name>
</trkpt>
<trkpt lat="48.932217" lon="8.678257">
<ele>378.5</ele>
<speed>5.7</speed>
<course>161.9</course>
<desc>Speed 5.7 km/h Distance 1.94 km</desc>
<time>2010-02-28T10:36:49.54</time>
<name>1268</name>
</trkpt>
<trkpt lat="48.932203" lon="8.678263">
<ele>378.5</ele>
<speed>6.0</speed>
<course>161.9</course>
<desc>Speed 6.0 km/h Distance 1.94 km</desc>
<time>2010-02-28T10:36:50.54</time>
<name>1269</name>
</trkpt>
<trkpt lat="48.932190" lon="8.678270">
<ele>378.5</ele>
<speed>5.8</speed>
<course>161.9</course>
<desc>Speed 5.8 km/h Distance 1.94 km</desc>
<time>2010-02-28T10:36:51.54</time>
<name>1270</name>
</trkpt>
<trkpt lat="48.932177" lon="8.678277">
<ele>378.5</ele>
<speed>5.9</speed>
<course>154.0</course>
<desc>Speed 5.9 km/h Distance 1.94 km</desc>
<time>2010-02-28T10:36:52.54</time>
<name>1271</name>
</trkpt>
<trkpt lat="48.932163" lon="8.678287">
<ele>378.5</ele>
<speed>5.8</speed>
<course>154.0</course>
<desc>Speed 5.8 km/h Distance 1.95 km</desc>
<time>2010-02-28T10:36:53.54</time>
<name>1272</name>
</trkpt>
<trkpt lat="48.932150" lon="8.678297">
<ele>378.5</ele>
<speed>5.7</speed>
<course>146.7</course>
<desc>Speed 5.7 km/h Distance 1.95 km</desc>
<time>2010-02-28T10:36:54.54</time>
<name>1273</name>
</trkpt>
<trkpt lat="48.932138" lon="8.678308">
<ele>378.5</ele>
<speed>5.5</speed>
<course>154.8</course>
<desc>Speed 5.5 km/h Distance 1.95 km</desc>
<time>2010-02-28T10:36:55.54</time>
<name>1274</name>
</trkpt>
<trkpt lat="48.932127" lon="8.678317">
<ele>378.5</ele>
<speed>5.7</speed>
<course>166.5</course>
<desc>Speed 5.7 km/h Distance 1.95 km</desc>
<time>2010-02-28T10:36:56.54</time>
<name>1275</name>
</trkpt>
<trkpt lat="48.932113" lon="8.678322">
<ele>378.5</ele>
<speed>5.2</speed>
<course>164.5</course>
<desc>Speed 5.2 km/h Distance 1.95 km</desc>
<time>2010-02-28T10:36:57.54</time>
<name>1276</name>
</trkpt>
<trkpt lat="48.932102" lon="8.678327">
<ele>378.5</ele>
<speed>4.7</speed>
<course>152.1</course>
<desc>Speed 4.7 km/h Distance 1.95 km</desc>
<time>2010-02-28T10:36:58.54</time>
<name>1277</name>
</trkpt>
<trkpt lat="48.932093" lon="8.678333">
<ele>378.0</ele>
<speed>3.9</speed>
<course>151.7</course>
<desc>Speed 3.9 km/h Distance 1.95 km</desc>
<time>2010-02-28T10:36:59.54</time>
<name>1278</name>
</trkpt>
<trkpt lat="48.932085" lon="8.678340">
<ele>378.0</ele>
<speed>3.9</speed>
<course>146.8</course>
<desc>Speed 3.9 km/h Distance 1.96 km</desc>
<time>2010-02-28T10:37:00.54</time>
<name>1279</name>
</trkpt>
<trkpt lat="48.932075" lon="8.678350">
<ele>378.0</ele>
<speed>4.7</speed>
<course>150.6</course>
<desc>Speed 4.7 km/h Distance 1.96 km</desc>
<time>2010-02-28T10:37:01.54</time>
<name>1280</name>
</trkpt>
<trkpt lat="48.932063" lon="8.678360">
<ele>377.5</ele>
<speed>5.4</speed>
<course>150.6</course>
<desc>Speed 5.4 km/h Distance 1.96 km</desc>
<time>2010-02-28T10:37:02.54</time>
<name>1281</name>
</trkpt>
<trkpt lat="48.932052" lon="8.678370">
<ele>377.5</ele>
<speed>5.5</speed>
<course>159.4</course>
<desc>Speed 5.5 km/h Distance 1.96 km</desc>
<time>2010-02-28T10:37:03.54</time>
<name>1282</name>
</trkpt>
<trkpt lat="48.932040" lon="8.678377">
<ele>377.5</ele>
<speed>5.4</speed>
<course>159.9</course>
<desc>Speed 5.4 km/h Distance 1.96 km</desc>
<time>2010-02-28T10:37:04.54</time>
<name>1283</name>
</trkpt>
<trkpt lat="48.932025" lon="8.678385">
<ele>377.5</ele>
<speed>6.2</speed>
<course>157.9</course>
<desc>Speed 6.2 km/h Distance 1.96 km</desc>
<time>2010-02-28T10:37:05.54</time>
<name>1284</name>
</trkpt>
<trkpt lat="48.932012" lon="8.678393">
<ele>377.5</ele>
<speed>6.0</speed>
<course>155.1</course>
<desc>Speed 6.0 km/h Distance 1.96 km</desc>
<time>2010-02-28T10:37:06.54</time>
<name>1285</name>
</trkpt>
<trkpt lat="48.932000" lon="8.678402">
<ele>377.5</ele>
<speed>5.2</speed>
<course>154.8</course>
<desc>Speed 5.2 km/h Distance 1.97 km</desc>
<time>2010-02-28T10:37:07.54</time>
<name>1286</name>
</trkpt>
<trkpt lat="48.931988" lon="8.678410">
<ele>377.5</ele>
<speed>4.9</speed>
<course>146.6</course>
<desc>Speed 4.9 km/h Distance 1.97 km</desc>
<time>2010-02-28T10:37:08.54</time>
<name>1287</name>
</trkpt>
<trkpt lat="48.931978" lon="8.678420">
<ele>377.0</ele>
<speed>5.4</speed>
<course>157.4</course>
<desc>Speed 5.4 km/h Distance 1.97 km</desc>
<time>2010-02-28T10:37:09.54</time>
<name>1288</name>
</trkpt>
<trkpt lat="48.931965" lon="8.678428">
<ele>377.0</ele>
<speed>5.7</speed>
<course>156.2</course>
<desc>Speed 5.7 km/h Distance 1.97 km</desc>
<time>2010-02-28T10:37:10.54</time>
<name>1289</name>
</trkpt>
<trkpt lat="48.931955" lon="8.678435">
<ele>377.0</ele>
<speed>5.0</speed>
<course>154.0</course>
<desc>Speed 5.0 km/h Distance 1.97 km</desc>
<time>2010-02-28T10:37:11.54</time>
<name>1290</name>
</trkpt>
<trkpt lat="48.931942" lon="8.678445">
<ele>377.0</ele>
<speed>5.6</speed>
<course>159.8</course>
<desc>Speed 5.6 km/h Distance 1.97 km</desc>
<time>2010-02-28T10:37:12.54</time>
<name>1291</name>
</trkpt>
<trkpt lat="48.931930" lon="8.678452">
<ele>377.0</ele>
<speed>5.6</speed>
<course>153.8</course>
<desc>Speed 5.6 km/h Distance 1.98 km</desc>
<time>2010-02-28T10:37:13.54</time>
<name>1292</name>
</trkpt>
<trkpt lat="48.931917" lon="8.678462">
<ele>376.5</ele>
<speed>5.8</speed>
<course>154.8</course>
<desc>Speed 5.8 km/h Distance 1.98 km</desc>
<time>2010-02-28T10:37:14.54</time>
<name>1293</name>
</trkpt>
<trkpt lat="48.931905" lon="8.678470">
<ele>377.0</ele>
<speed>5.8</speed>
<course>150.2</course>
<desc>Speed 5.8 km/h Distance 1.98 km</desc>
<time>2010-02-28T10:37:15.54</time>
<name>1294</name>
</trkpt>
<trkpt lat="48.931892" lon="8.678482">
<ele>377.0</ele>
<speed>5.9</speed>
<course>157.4</course>
<desc>Speed 5.9 km/h Distance 1.98 km</desc>
<time>2010-02-28T10:37:16.54</time>
<name>1295</name>
</trkpt>
<trkpt lat="48.931878" lon="8.678490">
<ele>377.0</ele>
<speed>5.6</speed>
<course>150.6</course>
<desc>Speed 5.6 km/h Distance 1.98 km</desc>
<time>2010-02-28T10:37:17.54</time>
<name>1296</name>
</trkpt>
<trkpt lat="48.931867" lon="8.678500">
<ele>377.0</ele>
<speed>5.5</speed>
<course>150.2</course>
<desc>Speed 5.5 km/h Distance 1.98 km</desc>
<time>2010-02-28T10:37:18.54</time>
<name>1297</name>
</trkpt>
<trkpt lat="48.931853" lon="8.678512">
<ele>377.0</ele>
<speed>5.7</speed>
<course>146.7</course>
<desc>Speed 5.7 km/h Distance 1.98 km</desc>
<time>2010-02-28T10:37:19.54</time>
<name>1298</name>
</trkpt>
<trkpt lat="48.931842" lon="8.678523">
<ele>377.0</ele>
<speed>5.4</speed>
<course>150.8</course>
<desc>Speed 5.4 km/h Distance 1.99 km</desc>
<time>2010-02-28T10:37:20.54</time>
<name>1299</name>
</trkpt>
<trkpt lat="48.931830" lon="8.678533">
<ele>377.0</ele>
<speed>5.6</speed>
<course>155.4</course>
<desc>Speed 5.6 km/h Distance 1.99 km</desc>
<time>2010-02-28T10:37:21.54</time>
<name>1300</name>
</trkpt>
<trkpt lat="48.931818" lon="8.678542">
<ele>376.5</ele>
<speed>5.6</speed>
<course>150.6</course>
<desc>Speed 5.6 km/h Distance 1.99 km</desc>
<time>2010-02-28T10:37:22.54</time>
<name>1301</name>
</trkpt>
<trkpt lat="48.931807" lon="8.678552">
<ele>376.5</ele>
<speed>5.5</speed>
<course>153.8</course>
<desc>Speed 5.5 km/h Distance 1.99 km</desc>
<time>2010-02-28T10:37:23.54</time>
<name>1302</name>
</trkpt>
<trkpt lat="48.931793" lon="8.678562">
<ele>376.0</ele>
<speed>5.8</speed>
<course>157.4</course>
<desc>Speed 5.8 km/h Distance 1.99 km</desc>
<time>2010-02-28T10:37:24.54</time>
<name>1303</name>
</trkpt>
<trkpt lat="48.931780" lon="8.678570">
<ele>376.0</ele>
<speed>5.9</speed>
<course>150.6</course>
<desc>Speed 5.9 km/h Distance 1.99 km</desc>
<time>2010-02-28T10:37:25.54</time>
<name>1304</name>
</trkpt>
<trkpt lat="48.931768" lon="8.678580">
<ele>376.0</ele>
<speed>5.7</speed>
<course>150.6</course>
<desc>Speed 5.7 km/h Distance 2.00 km</desc>
<time>2010-02-28T10:37:26.54</time>
<name>1305</name>
</trkpt>
<trkpt lat="48.931757" lon="8.678590">
<ele>376.0</ele>
<speed>5.7</speed>
<course>154.0</course>
<desc>Speed 5.7 km/h Distance 2.00 km</desc>
<time>2010-02-28T10:37:27.54</time>
<name>1306</name>
</trkpt>
<trkpt lat="48.931743" lon="8.678600">
<ele>376.0</ele>
<speed>5.4</speed>
<course>154.8</course>
<desc>Speed 5.4 km/h Distance 2.00 km</desc>
<time>2010-02-28T10:37:28.54</time>
<name>1307</name>
</trkpt>
<trkpt lat="48.931732" lon="8.678608">
<ele>376.0</ele>
<speed>5.3</speed>
<course>157.4</course>
<desc>Speed 5.3 km/h Distance 2.00 km</desc>
<time>2010-02-28T10:37:29.54</time>
<name>1308</name>
</trkpt>
<trkpt lat="48.931718" lon="8.678617">
<ele>376.0</ele>
<speed>5.5</speed>
<course>153.8</course>
<desc>Speed 5.5 km/h Distance 2.00 km</desc>
<time>2010-02-28T10:37:30.54</time>
<name>1309</name>
</trkpt>
<trkpt lat="48.931705" lon="8.678627">
<ele>376.0</ele>
<speed>5.6</speed>
<course>154.8</course>
<desc>Speed 5.6 km/h Distance 2.00 km</desc>
<time>2010-02-28T10:37:31.54</time>
<name>1310</name>
</trkpt>
<trkpt lat="48.931693" lon="8.678635">
<ele>376.0</ele>
<speed>5.7</speed>
<course>153.6</course>
<desc>Speed 5.7 km/h Distance 2.00 km</desc>
<time>2010-02-28T10:37:32.54</time>
<name>1311</name>
</trkpt>
<trkpt lat="48.931680" lon="8.678645">
<ele>376.0</ele>
<speed>5.6</speed>
<course>154.8</course>
<desc>Speed 5.6 km/h Distance 2.01 km</desc>
<time>2010-02-28T10:37:33.54</time>
<name>1312</name>
</trkpt>
<trkpt lat="48.931668" lon="8.678653">
<ele>375.5</ele>
<speed>5.1</speed>
<course>157.4</course>
<desc>Speed 5.1 km/h Distance 2.01 km</desc>
<time>2010-02-28T10:37:34.54</time>
<name>1313</name>
</trkpt>
<trkpt lat="48.931655" lon="8.678662">
<ele>375.5</ele>
<speed>5.2</speed>
<course>153.6</course>
<desc>Speed 5.2 km/h Distance 2.01 km</desc>
<time>2010-02-28T10:37:35.54</time>
<name>1314</name>
</trkpt>
<trkpt lat="48.931642" lon="8.678672">
<ele>376.0</ele>
<speed>5.4</speed>
<course>161.8</course>
<desc>Speed 5.4 km/h Distance 2.01 km</desc>
<time>2010-02-28T10:37:36.54</time>
<name>1315</name>
</trkpt>
<trkpt lat="48.931632" lon="8.678677">
<ele>375.5</ele>
<speed>4.0</speed>
<course>158.5</course>
<desc>Speed 4.0 km/h Distance 2.01 km</desc>
<time>2010-02-28T10:37:37.54</time>
<name>1316</name>
</trkpt>
<trkpt lat="48.931623" lon="8.678682">
<ele>375.5</ele>
<speed>3.9</speed>
<course>151.4</course>
<desc>Speed 3.9 km/h Distance 2.01 km</desc>
<time>2010-02-28T10:37:38.54</time>
<name>1317</name>
</trkpt>
<trkpt lat="48.931613" lon="8.678690">
<ele>375.0</ele>
<speed>4.4</speed>
<course>159.9</course>
<desc>Speed 4.4 km/h Distance 2.01 km</desc>
<time>2010-02-28T10:37:39.54</time>
<name>1318</name>
</trkpt>
<trkpt lat="48.931598" lon="8.678698">
<ele>375.0</ele>
<speed>5.8</speed>
<course>146.8</course>
<desc>Speed 5.8 km/h Distance 2.02 km</desc>
<time>2010-02-28T10:37:40.54</time>
<name>1319</name>
</trkpt>
<trkpt lat="48.931588" lon="8.678708">
<ele>375.0</ele>
<speed>4.9</speed>
<course>142.5</course>
<desc>Speed 4.9 km/h Distance 2.02 km</desc>
<time>2010-02-28T10:37:41.54</time>
<name>1320</name>
</trkpt>
<trkpt lat="48.931578" lon="8.678720">
<ele>374.5</ele>
<speed>5.0</speed>
<course>146.6</course>
<desc>Speed 5.0 km/h Distance 2.02 km</desc>
<time>2010-02-28T10:37:42.54</time>
<name>1321</name>
</trkpt>
<trkpt lat="48.931567" lon="8.678732">
<ele>374.5</ele>
<speed>5.2</speed>
<course>159.9</course>
<desc>Speed 5.2 km/h Distance 2.02 km</desc>
<time>2010-02-28T10:37:43.54</time>
<name>1322</name>
</trkpt>
<trkpt lat="48.931552" lon="8.678740">
<ele>374.5</ele>
<speed>5.9</speed>
<course>146.6</course>
<desc>Speed 5.9 km/h Distance 2.02 km</desc>
<time>2010-02-28T10:37:44.54</time>
<name>1323</name>
</trkpt>
<trkpt lat="48.931540" lon="8.678752">
<ele>375.0</ele>
<speed>5.9</speed>
<course>156.3</course>
<desc>Speed 5.9 km/h Distance 2.02 km</desc>
<time>2010-02-28T10:37:45.54</time>
<name>1324</name>
</trkpt>
<trkpt lat="48.931525" lon="8.678762">
<ele>374.5</ele>
<speed>6.3</speed>
<course>163.4</course>
<desc>Speed 6.3 km/h Distance 2.03 km</desc>
<time>2010-02-28T10:37:46.54</time>
<name>1325</name>
</trkpt>
<trkpt lat="48.931510" lon="8.678768">
<ele>375.0</ele>
<speed>6.2</speed>
<course>163.4</course>
<desc>Speed 6.2 km/h Distance 2.03 km</desc>
<time>2010-02-28T10:37:47.54</time>
<name>1326</name>
</trkpt>
<trkpt lat="48.931495" lon="8.678775">
<ele>375.0</ele>
<speed>6.0</speed>
<course>159.9</course>
<desc>Speed 6.0 km/h Distance 2.03 km</desc>
<time>2010-02-28T10:37:48.54</time>
<name>1327</name>
</trkpt>
<trkpt lat="48.931480" lon="8.678783">
<ele>375.0</ele>
<speed>5.8</speed>
<course>157.7</course>
<desc>Speed 5.8 km/h Distance 2.03 km</desc>
<time>2010-02-28T10:37:49.54</time>
<name>1328</name>
</trkpt>
<trkpt lat="48.931467" lon="8.678792">
<ele>375.0</ele>
<speed>5.4</speed>
<course>159.4</course>
<desc>Speed 5.4 km/h Distance 2.03 km</desc>
<time>2010-02-28T10:37:50.54</time>
<name>1329</name>
</trkpt>
<trkpt lat="48.931455" lon="8.678798">
<ele>375.0</ele>
<speed>5.5</speed>
<course>164.0</course>
<desc>Speed 5.5 km/h Distance 2.03 km</desc>
<time>2010-02-28T10:37:51.54</time>
<name>1330</name>
</trkpt>
<trkpt lat="48.931440" lon="8.678805">
<ele>375.5</ele>
<speed>5.5</speed>
<course>150.6</course>
<desc>Speed 5.5 km/h Distance 2.04 km</desc>
<time>2010-02-28T10:37:52.54</time>
<name>1331</name>
</trkpt>
<trkpt lat="48.931428" lon="8.678815">
<ele>375.5</ele>
<speed>5.6</speed>
<course>157.9</course>
<desc>Speed 5.6 km/h Distance 2.04 km</desc>
<time>2010-02-28T10:37:53.54</time>
<name>1332</name>
</trkpt>
<trkpt lat="48.931415" lon="8.678823">
<ele>375.5</ele>
<speed>5.3</speed>
<course>146.8</course>
<desc>Speed 5.3 km/h Distance 2.04 km</desc>
<time>2010-02-28T10:37:54.54</time>
<name>1333</name>
</trkpt>
<trkpt lat="48.931405" lon="8.678833">
<ele>375.5</ele>
<speed>5.1</speed>
<course>157.7</course>
<desc>Speed 5.1 km/h Distance 2.04 km</desc>
<time>2010-02-28T10:37:55.54</time>
<name>1334</name>
</trkpt>
<trkpt lat="48.931392" lon="8.678842">
<ele>375.5</ele>
<speed>5.6</speed>
<course>150.6</course>
<desc>Speed 5.6 km/h Distance 2.04 km</desc>
<time>2010-02-28T10:37:56.54</time>
<name>1335</name>
</trkpt>
<trkpt lat="48.931380" lon="8.678852">
<ele>375.5</ele>
<speed>5.3</speed>
<course>146.6</course>
<desc>Speed 5.3 km/h Distance 2.04 km</desc>
<time>2010-02-28T10:37:57.54</time>
<name>1336</name>
</trkpt>
<trkpt lat="48.931368" lon="8.678863">
<ele>375.5</ele>
<speed>5.7</speed>
<course>154.0</course>
<desc>Speed 5.7 km/h Distance 2.04 km</desc>
<time>2010-02-28T10:37:58.54</time>
<name>1337</name>
</trkpt>
<trkpt lat="48.931355" lon="8.678873">
<ele>375.5</ele>
<speed>5.8</speed>
<course>161.9</course>
<desc>Speed 5.8 km/h Distance 2.05 km</desc>
<time>2010-02-28T10:37:59.54</time>
<name>1338</name>
</trkpt>
<trkpt lat="48.931342" lon="8.678880">
<ele>375.5</ele>
<speed>5.1</speed>
<course>161.9</course>
<desc>Speed 5.1 km/h Distance 2.05 km</desc>
<time>2010-02-28T10:38:00.54</time>
<name>1339</name>
</trkpt>
<trkpt lat="48.931328" lon="8.678887">
<ele>375.5</ele>
<speed>5.4</speed>
<course>141.9</course>
<desc>Speed 5.4 km/h Distance 2.05 km</desc>
<time>2010-02-28T10:38:01.54</time>
<name>1340</name>
</trkpt>
<trkpt lat="48.931320" lon="8.678897">
<ele>375.5</ele>
<speed>4.2</speed>
<course>137.4</course>
<desc>Speed 4.2 km/h Distance 2.05 km</desc>
<time>2010-02-28T10:38:02.54</time>
<name>1341</name>
</trkpt>
<trkpt lat="48.931312" lon="8.678908">
<ele>375.5</ele>
<speed>4.6</speed>
<course>130.3</course>
<desc>Speed 4.6 km/h Distance 2.05 km</desc>
<time>2010-02-28T10:38:03.54</time>
<name>1342</name>
</trkpt>
<trkpt lat="48.931303" lon="8.678923">
<ele>375.5</ele>
<speed>4.7</speed>
<course>124.7</course>
<desc>Speed 4.7 km/h Distance 2.05 km</desc>
<time>2010-02-28T10:38:04.54</time>
<name>1343</name>
</trkpt>
<trkpt lat="48.931295" lon="8.678942">
<ele>375.5</ele>
<speed>5.1</speed>
<course>109.4</course>
<desc>Speed 5.1 km/h Distance 2.05 km</desc>
<time>2010-02-28T10:38:05.54</time>
<name>1344</name>
</trkpt>
<trkpt lat="48.931290" lon="8.678963">
<ele>376.0</ele>
<speed>5.5</speed>
<course>103.2</course>
<desc>Speed 5.5 km/h Distance 2.06 km</desc>
<time>2010-02-28T10:38:06.54</time>
<name>1345</name>
</trkpt>
<trkpt lat="48.931287" lon="8.678985">
<ele>375.5</ele>
<speed>5.8</speed>
<course>116.9</course>
<desc>Speed 5.8 km/h Distance 2.06 km</desc>
<time>2010-02-28T10:38:07.54</time>
<name>1346</name>
</trkpt>
<trkpt lat="48.931280" lon="8.679005">
<ele>376.0</ele>
<speed>5.8</speed>
<course>99.6</course>
<desc>Speed 5.8 km/h Distance 2.06 km</desc>
<time>2010-02-28T10:38:08.54</time>
<name>1347</name>
</trkpt>
<trkpt lat="48.931278" lon="8.679020">
<ele>376.0</ele>
<speed>3.7</speed>
<course>90.0</course>
<desc>Speed 3.7 km/h Distance 2.06 km</desc>
<time>2010-02-28T10:38:09.54</time>
<name>1348</name>
</trkpt>
<trkpt lat="48.931278" lon="8.679032">
<ele>376.5</ele>
<speed>3.0</speed>
<course>90.0</course>
<desc>Speed 3.0 km/h Distance 2.06 km</desc>
<time>2010-02-28T10:38:10.54</time>
<name>1349</name>
</trkpt>
<trkpt lat="48.931278" lon="8.679033">
<ele>376.5</ele>
<speed>0.6</speed>
<course>69.1</course>
<desc>Speed 0.6 km/h Distance 2.06 km</desc>
<time>2010-02-28T10:38:11.54</time>
<name>1350</name>
</trkpt>
<trkpt lat="48.931280" lon="8.679040">
<ele>376.5</ele>
<speed>1.7</speed>
<course>75.8</course>
<desc>Speed 1.7 km/h Distance 2.06 km</desc>
<time>2010-02-28T10:38:12.54</time>
<name>1351</name>
</trkpt>
<trkpt lat="48.931282" lon="8.679050">
<ele>376.5</ele>
<speed>2.3</speed>
<course>77.7</course>
<desc>Speed 2.3 km/h Distance 2.06 km</desc>
<time>2010-02-28T10:38:13.54</time>
<name>1352</name>
</trkpt>
<trkpt lat="48.931283" lon="8.679062">
<ele>376.5</ele>
<speed>2.9</speed>
<course>66.5</course>
<desc>Speed 2.9 km/h Distance 2.06 km</desc>
<time>2010-02-28T10:38:14.54</time>
<name>1353</name>
</trkpt>
<trkpt lat="48.931287" lon="8.679073">
<ele>377.0</ele>
<speed>3.1</speed>
<course>77.7</course>
<desc>Speed 3.1 km/h Distance 2.07 km</desc>
<time>2010-02-28T10:38:15.54</time>
<name>1354</name>
</trkpt>
<trkpt lat="48.931288" lon="8.679085">
<ele>377.0</ele>
<speed>2.9</speed>
<course>90.0</course>
<desc>Speed 2.9 km/h Distance 2.07 km</desc>
<time>2010-02-28T10:38:16.54</time>
<name>1355</name>
</trkpt>
<trkpt lat="48.931288" lon="8.679092">
<ele>377.0</ele>
<speed>1.8</speed>
<course>90.0</course>
<desc>Speed 1.8 km/h Distance 2.07 km</desc>
<time>2010-02-28T10:38:17.54</time>
<name>1356</name>
</trkpt>
<trkpt lat="48.931288" lon="8.679092">
<ele>377.0</ele>
<speed>0.3</speed>
<course>90.0</course>
<desc>Speed 0.3 km/h Distance 2.07 km</desc>
<time>2010-02-28T10:38:18.54</time>
<name>1357</name>
</trkpt>
<trkpt lat="48.931288" lon="8.679092">
<ele>377.0</ele>
<speed>0.0</speed>
<course>90.0</course>
<desc>Speed 0.0 km/h Distance 2.07 km</desc>
<time>2010-02-28T10:38:19.54</time>
<name>1358</name>
</trkpt>
<trkpt lat="48.931288" lon="8.679092">
<ele>377.0</ele>
<speed>0.2</speed>
<course>90.0</course>
<desc>Speed 0.2 km/h Distance 2.07 km</desc>
<time>2010-02-28T10:38:20.54</time>
<name>1359</name>
</trkpt>
<trkpt lat="48.931288" lon="8.679097">
<ele>377.5</ele>
<speed>1.2</speed>
<course>90.0</course>
<desc>Speed 1.2 km/h Distance 2.07 km</desc>
<time>2010-02-28T10:38:21.54</time>
<name>1360</name>
</trkpt>
<trkpt lat="48.931288" lon="8.679102">
<ele>377.5</ele>
<speed>1.3</speed>
<course>47.1</course>
<desc>Speed 1.3 km/h Distance 2.07 km</desc>
<time>2010-02-28T10:38:22.54</time>
<name>1361</name>
</trkpt>
<trkpt lat="48.931293" lon="8.679110">
<ele>378.0</ele>
<speed>3.2</speed>
<course>46.4</course>
<desc>Speed 3.2 km/h Distance 2.07 km</desc>
<time>2010-02-28T10:38:23.54</time>
<name>1362</name>
</trkpt>
<trkpt lat="48.931302" lon="8.679123">
<ele>378.0</ele>
<speed>4.6</speed>
<course>55.9</course>
<desc>Speed 4.6 km/h Distance 2.07 km</desc>
<time>2010-02-28T10:38:24.54</time>
<name>1363</name>
</trkpt>
<trkpt lat="48.931308" lon="8.679138">
<ele>378.0</ele>
<speed>4.7</speed>
<course>71.3</course>
<desc>Speed 4.7 km/h Distance 2.07 km</desc>
<time>2010-02-28T10:38:25.54</time>
<name>1364</name>
</trkpt>
<trkpt lat="48.931312" lon="8.679153">
<ele>378.5</ele>
<speed>4.5</speed>
<course>73.1</course>
<desc>Speed 4.5 km/h Distance 2.07 km</desc>
<time>2010-02-28T10:38:26.54</time>
<name>1365</name>
</trkpt>
<trkpt lat="48.931315" lon="8.679170">
<ele>378.5</ele>
<speed>4.6</speed>
<course>81.3</course>
<desc>Speed 4.6 km/h Distance 2.07 km</desc>
<time>2010-02-28T10:38:27.54</time>
<name>1366</name>
</trkpt>
<trkpt lat="48.931317" lon="8.679187">
<ele>378.5</ele>
<speed>4.5</speed>
<course>81.3</course>
<desc>Speed 4.5 km/h Distance 2.07 km</desc>
<time>2010-02-28T10:38:28.54</time>
<name>1367</name>
</trkpt>
<trkpt lat="48.931318" lon="8.679203">
<ele>378.5</ele>
<speed>4.4</speed>
<course>90.0</course>
<desc>Speed 4.4 km/h Distance 2.08 km</desc>
<time>2010-02-28T10:38:29.54</time>
<name>1368</name>
</trkpt>
<trkpt lat="48.931318" lon="8.679220">
<ele>379.0</ele>
<speed>4.5</speed>
<course>73.1</course>
<desc>Speed 4.5 km/h Distance 2.08 km</desc>
<time>2010-02-28T10:38:30.54</time>
<name>1369</name>
</trkpt>
<trkpt lat="48.931322" lon="8.679237">
<ele>379.0</ele>
<speed>4.4</speed>
<course>82.1</course>
<desc>Speed 4.4 km/h Distance 2.08 km</desc>
<time>2010-02-28T10:38:31.54</time>
<name>1370</name>
</trkpt>
<trkpt lat="48.931323" lon="8.679255">
<ele>379.0</ele>
<speed>4.7</speed>
<course>81.3</course>
<desc>Speed 4.7 km/h Distance 2.08 km</desc>
<time>2010-02-28T10:38:32.54</time>
<name>1371</name>
</trkpt>
<trkpt lat="48.931325" lon="8.679272">
<ele>379.5</ele>
<speed>5.0</speed>
<course>73.1</course>
<desc>Speed 5.0 km/h Distance 2.08 km</desc>
<time>2010-02-28T10:38:33.54</time>
<name>1372</name>
</trkpt>
<trkpt lat="48.931328" lon="8.679288">
<ele>379.5</ele>
<speed>4.7</speed>
<course>71.3</course>
<desc>Speed 4.7 km/h Distance 2.08 km</desc>
<time>2010-02-28T10:38:34.54</time>
<name>1373</name>
</trkpt>
<trkpt lat="48.931332" lon="8.679303">
<ele>379.5</ele>
<speed>4.5</speed>
<course>67.4</course>
<desc>Speed 4.5 km/h Distance 2.08 km</desc>
<time>2010-02-28T10:38:35.54</time>
<name>1374</name>
</trkpt>
<trkpt lat="48.931337" lon="8.679322">
<ele>380.0</ele>
<speed>4.8</speed>
<course>73.1</course>
<desc>Speed 4.8 km/h Distance 2.08 km</desc>
<time>2010-02-28T10:38:36.54</time>
<name>1375</name>
</trkpt>
<trkpt lat="48.931340" lon="8.679338">
<ele>380.0</ele>
<speed>4.6</speed>
<course>65.4</course>
<desc>Speed 4.6 km/h Distance 2.09 km</desc>
<time>2010-02-28T10:38:37.54</time>
<name>1376</name>
</trkpt>
<trkpt lat="48.931345" lon="8.679355">
<ele>380.5</ele>
<speed>4.6</speed>
<course>73.0</course>
<desc>Speed 4.6 km/h Distance 2.09 km</desc>
<time>2010-02-28T10:38:38.54</time>
<name>1377</name>
</trkpt>
<trkpt lat="48.931348" lon="8.679372">
<ele>380.5</ele>
<speed>4.8</speed>
<course>65.5</course>
<desc>Speed 4.8 km/h Distance 2.09 km</desc>
<time>2010-02-28T10:38:39.54</time>
<name>1378</name>
</trkpt>
<trkpt lat="48.931353" lon="8.679388">
<ele>380.5</ele>
<speed>4.4</speed>
<course>65.4</course>
<desc>Speed 4.4 km/h Distance 2.09 km</desc>
<time>2010-02-28T10:38:40.54</time>
<name>1379</name>
</trkpt>
<trkpt lat="48.931358" lon="8.679405">
<ele>380.5</ele>
<speed>4.4</speed>
<course>74.5</course>
<desc>Speed 4.4 km/h Distance 2.09 km</desc>
<time>2010-02-28T10:38:41.54</time>
<name>1380</name>
</trkpt>
<trkpt lat="48.931362" lon="8.679423">
<ele>381.0</ele>
<speed>4.6</speed>
<course>73.1</course>
<desc>Speed 4.6 km/h Distance 2.09 km</desc>
<time>2010-02-28T10:38:42.54</time>
<name>1381</name>
</trkpt>
<trkpt lat="48.931365" lon="8.679440">
<ele>381.0</ele>
<speed>4.6</speed>
<course>65.5</course>
<desc>Speed 4.6 km/h Distance 2.09 km</desc>
<time>2010-02-28T10:38:43.54</time>
<name>1382</name>
</trkpt>
<trkpt lat="48.931370" lon="8.679457">
<ele>381.0</ele>
<speed>4.5</speed>
<course>73.0</course>
<desc>Speed 4.5 km/h Distance 2.10 km</desc>
<time>2010-02-28T10:38:44.54</time>
<name>1383</name>
</trkpt>
<trkpt lat="48.931373" lon="8.679473">
<ele>381.5</ele>
<speed>4.7</speed>
<course>65.5</course>
<desc>Speed 4.7 km/h Distance 2.10 km</desc>
<time>2010-02-28T10:38:45.54</time>
<name>1384</name>
</trkpt>
<trkpt lat="48.931378" lon="8.679490">
<ele>381.5</ele>
<speed>4.7</speed>
<course>73.1</course>
<desc>Speed 4.7 km/h Distance 2.10 km</desc>
<time>2010-02-28T10:38:46.54</time>
<name>1385</name>
</trkpt>
<trkpt lat="48.931382" lon="8.679507">
<ele>382.0</ele>
<speed>4.5</speed>
<course>65.4</course>
<desc>Speed 4.5 km/h Distance 2.10 km</desc>
<time>2010-02-28T10:38:47.54</time>
<name>1386</name>
</trkpt>
<trkpt lat="48.931387" lon="8.679523">
<ele>382.0</ele>
<speed>4.4</speed>
<course>73.1</course>
<desc>Speed 4.4 km/h Distance 2.10 km</desc>
<time>2010-02-28T10:38:48.54</time>
<name>1387</name>
</trkpt>
<trkpt lat="48.931390" lon="8.679540">
<ele>382.0</ele>
<speed>4.6</speed>
<course>63.1</course>
<desc>Speed 4.6 km/h Distance 2.10 km</desc>
<time>2010-02-28T10:38:49.54</time>
<name>1388</name>
</trkpt>
<trkpt lat="48.931395" lon="8.679555">
<ele>382.0</ele>
<speed>4.4</speed>
<course>55.9</course>
<desc>Speed 4.4 km/h Distance 2.10 km</desc>
<time>2010-02-28T10:38:50.54</time>
<name>1389</name>
</trkpt>
<trkpt lat="48.931402" lon="8.679570">
<ele>382.5</ele>
<speed>4.5</speed>
<course>74.5</course>
<desc>Speed 4.5 km/h Distance 2.10 km</desc>
<time>2010-02-28T10:38:51.54</time>
<name>1390</name>
</trkpt>
<trkpt lat="48.931405" lon="8.679588">
<ele>382.5</ele>
<speed>4.8</speed>
<course>65.5</course>
<desc>Speed 4.8 km/h Distance 2.11 km</desc>
<time>2010-02-28T10:38:52.54</time>
<name>1391</name>
</trkpt>
<trkpt lat="48.931410" lon="8.679605">
<ele>383.0</ele>
<speed>4.7</speed>
<course>71.3</course>
<desc>Speed 4.7 km/h Distance 2.11 km</desc>
<time>2010-02-28T10:38:53.54</time>
<name>1392</name>
</trkpt>
<trkpt lat="48.931413" lon="8.679620">
<ele>383.0</ele>
<speed>4.3</speed>
<course>73.1</course>
<desc>Speed 4.3 km/h Distance 2.11 km</desc>
<time>2010-02-28T10:38:54.54</time>
<name>1393</name>
</trkpt>
<trkpt lat="48.931417" lon="8.679637">
<ele>383.5</ele>
<speed>4.4</speed>
<course>65.5</course>
<desc>Speed 4.4 km/h Distance 2.11 km</desc>
<time>2010-02-28T10:38:55.54</time>
<name>1394</name>
</trkpt>
<trkpt lat="48.931422" lon="8.679653">
<ele>383.5</ele>
<speed>4.5</speed>
<course>73.0</course>
<desc>Speed 4.5 km/h Distance 2.11 km</desc>
<time>2010-02-28T10:38:56.54</time>
<name>1395</name>
</trkpt>
<trkpt lat="48.931425" lon="8.679670">
<ele>384.0</ele>
<speed>4.3</speed>
<course>65.4</course>
<desc>Speed 4.3 km/h Distance 2.11 km</desc>
<time>2010-02-28T10:38:57.54</time>
<name>1396</name>
</trkpt>
<trkpt lat="48.931430" lon="8.679687">
<ele>384.0</ele>
<speed>4.6</speed>
<course>65.5</course>
<desc>Speed 4.6 km/h Distance 2.11 km</desc>
<time>2010-02-28T10:38:58.54</time>
<name>1397</name>
</trkpt>
<trkpt lat="48.931435" lon="8.679703">
<ele>384.5</ele>
<speed>4.5</speed>
<course>71.3</course>
<desc>Speed 4.5 km/h Distance 2.11 km</desc>
<time>2010-02-28T10:38:59.54</time>
<name>1398</name>
</trkpt>
<trkpt lat="48.931438" lon="8.679718">
<ele>384.5</ele>
<speed>4.4</speed>
<course>63.1</course>
<desc>Speed 4.4 km/h Distance 2.12 km</desc>
<time>2010-02-28T10:39:00.54</time>
<name>1399</name>
</trkpt>
<trkpt lat="48.931443" lon="8.679733">
<ele>385.0</ele>
<speed>4.1</speed>
<course>71.3</course>
<desc>Speed 4.1 km/h Distance 2.12 km</desc>
<time>2010-02-28T10:39:01.54</time>
<name>1400</name>
</trkpt>
<trkpt lat="48.931447" lon="8.679748">
<ele>385.0</ele>
<speed>4.0</speed>
<course>63.1</course>
<desc>Speed 4.0 km/h Distance 2.12 km</desc>
<time>2010-02-28T10:39:02.54</time>
<name>1401</name>
</trkpt>
<trkpt lat="48.931452" lon="8.679763">
<ele>385.0</ele>
<speed>4.2</speed>
<course>73.0</course>
<desc>Speed 4.2 km/h Distance 2.12 km</desc>
<time>2010-02-28T10:39:03.54</time>
<name>1402</name>
</trkpt>
<trkpt lat="48.931455" lon="8.679780">
<ele>385.0</ele>
<speed>4.5</speed>
<course>73.1</course>
<desc>Speed 4.5 km/h Distance 2.12 km</desc>
<time>2010-02-28T10:39:04.54</time>
<name>1403</name>
</trkpt>
<trkpt lat="48.931458" lon="8.679797">
<ele>385.5</ele>
<speed>4.5</speed>
<course>73.1</course>
<desc>Speed 4.5 km/h Distance 2.12 km</desc>
<time>2010-02-28T10:39:05.54</time>
<name>1404</name>
</trkpt>
<trkpt lat="48.931462" lon="8.679813">
<ele>385.5</ele>
<speed>4.5</speed>
<course>73.1</course>
<desc>Speed 4.5 km/h Distance 2.12 km</desc>
<time>2010-02-28T10:39:06.54</time>
<name>1405</name>
</trkpt>
<trkpt lat="48.931465" lon="8.679830">
<ele>385.5</ele>
<speed>4.4</speed>
<course>71.4</course>
<desc>Speed 4.4 km/h Distance 2.12 km</desc>
<time>2010-02-28T10:39:07.54</time>
<name>1406</name>
</trkpt>
<trkpt lat="48.931468" lon="8.679845">
<ele>385.5</ele>
<speed>4.0</speed>
<course>71.3</course>
<desc>Speed 4.0 km/h Distance 2.13 km</desc>
<time>2010-02-28T10:39:08.54</time>
<name>1407</name>
</trkpt>
<trkpt lat="48.931472" lon="8.679860">
<ele>386.0</ele>
<speed>4.5</speed>
<course>71.3</course>
<desc>Speed 4.5 km/h Distance 2.13 km</desc>
<time>2010-02-28T10:39:09.54</time>
<name>1408</name>
</trkpt>
<trkpt lat="48.931475" lon="8.679875">
<ele>386.0</ele>
<speed>4.2</speed>
<course>81.4</course>
<desc>Speed 4.2 km/h Distance 2.13 km</desc>
<time>2010-02-28T10:39:10.54</time>
<name>1409</name>
</trkpt>
<trkpt lat="48.931477" lon="8.679892">
<ele>386.0</ele>
<speed>4.3</speed>
<course>63.1</course>
<desc>Speed 4.3 km/h Distance 2.13 km</desc>
<time>2010-02-28T10:39:11.54</time>
<name>1410</name>
</trkpt>
<trkpt lat="48.931482" lon="8.679907">
<ele>386.0</ele>
<speed>4.0</speed>
<course>56.7</course>
<desc>Speed 4.0 km/h Distance 2.13 km</desc>
<time>2010-02-28T10:39:12.54</time>
<name>1411</name>
</trkpt>
<trkpt lat="48.931487" lon="8.679918">
<ele>386.0</ele>
<speed>4.0</speed>
<course>55.9</course>
<desc>Speed 4.0 km/h Distance 2.13 km</desc>
<time>2010-02-28T10:39:13.54</time>
<name>1412</name>
</trkpt>
<trkpt lat="48.931493" lon="8.679933">
<ele>386.0</ele>
<speed>4.2</speed>
<course>63.0</course>
<desc>Speed 4.2 km/h Distance 2.13 km</desc>
<time>2010-02-28T10:39:14.54</time>
<name>1413</name>
</trkpt>
<trkpt lat="48.931498" lon="8.679948">
<ele>386.5</ele>
<speed>4.3</speed>
<course>60.3</course>
<desc>Speed 4.3 km/h Distance 2.13 km</desc>
<time>2010-02-28T10:39:15.54</time>
<name>1414</name>
</trkpt>
<trkpt lat="48.931503" lon="8.679962">
<ele>386.0</ele>
<speed>4.1</speed>
<course>71.3</course>
<desc>Speed 4.1 km/h Distance 2.14 km</desc>
<time>2010-02-28T10:39:16.54</time>
<name>1415</name>
</trkpt>
<trkpt lat="48.931507" lon="8.679977">
<ele>386.0</ele>
<speed>4.1</speed>
<course>60.4</course>
<desc>Speed 4.1 km/h Distance 2.14 km</desc>
<time>2010-02-28T10:39:17.54</time>
<name>1416</name>
</trkpt>
<trkpt lat="48.931512" lon="8.679990">
<ele>386.5</ele>
<speed>4.1</speed>
<course>65.5</course>
<desc>Speed 4.1 km/h Distance 2.14 km</desc>
<time>2010-02-28T10:39:18.54</time>
<name>1417</name>
</trkpt>
<trkpt lat="48.931517" lon="8.680007">
<ele>386.0</ele>
<speed>4.4</speed>
<course>69.2</course>
<desc>Speed 4.4 km/h Distance 2.14 km</desc>
<time>2010-02-28T10:39:19.54</time>
<name>1418</name>
</trkpt>
<trkpt lat="48.931520" lon="8.680020">
<ele>386.0</ele>
<speed>4.1</speed>
<course>80.4</course>
<desc>Speed 4.1 km/h Distance 2.14 km</desc>
<time>2010-02-28T10:39:20.54</time>
<name>1419</name>
</trkpt>
<trkpt lat="48.931522" lon="8.680035">
<ele>386.0</ele>
<speed>4.0</speed>
<course>73.1</course>
<desc>Speed 4.0 km/h Distance 2.14 km</desc>
<time>2010-02-28T10:39:21.54</time>
<name>1420</name>
</trkpt>
<trkpt lat="48.931525" lon="8.680052">
<ele>386.0</ele>
<speed>4.3</speed>
<course>69.3</course>
<desc>Speed 4.3 km/h Distance 2.14 km</desc>
<time>2010-02-28T10:39:22.54</time>
<name>1421</name>
</trkpt>
<trkpt lat="48.931528" lon="8.680065">
<ele>385.5</ele>
<speed>3.7</speed>
<course>60.3</course>
<desc>Speed 3.7 km/h Distance 2.14 km</desc>
<time>2010-02-28T10:39:23.54</time>
<name>1422</name>
</trkpt>
<trkpt lat="48.931533" lon="8.680078">
<ele>385.5</ele>
<speed>4.0</speed>
<course>63.1</course>
<desc>Speed 4.0 km/h Distance 2.14 km</desc>
<time>2010-02-28T10:39:24.54</time>
<name>1423</name>
</trkpt>
<trkpt lat="48.931538" lon="8.680093">
<ele>385.5</ele>
<speed>4.4</speed>
<course>60.3</course>
<desc>Speed 4.4 km/h Distance 2.15 km</desc>
<time>2010-02-28T10:39:25.54</time>
<name>1424</name>
</trkpt>
<trkpt lat="48.931543" lon="8.680107">
<ele>385.5</ele>
<speed>4.0</speed>
<course>71.3</course>
<desc>Speed 4.0 km/h Distance 2.15 km</desc>
<time>2010-02-28T10:39:26.54</time>
<name>1425</name>
</trkpt>
<trkpt lat="48.931547" lon="8.680122">
<ele>385.5</ele>
<speed>4.1</speed>
<course>60.3</course>
<desc>Speed 4.1 km/h Distance 2.15 km</desc>
<time>2010-02-28T10:39:27.54</time>
<name>1426</name>
</trkpt>
<trkpt lat="48.931552" lon="8.680135">
<ele>385.5</ele>
<speed>4.2</speed>
<course>71.4</course>
<desc>Speed 4.2 km/h Distance 2.15 km</desc>
<time>2010-02-28T10:39:28.54</time>
<name>1427</name>
</trkpt>
<trkpt lat="48.931555" lon="8.680150">
<ele>385.5</ele>
<speed>4.4</speed>
<course>63.1</course>
<desc>Speed 4.4 km/h Distance 2.15 km</desc>
<time>2010-02-28T10:39:29.54</time>
<name>1428</name>
</trkpt>
<trkpt lat="48.931560" lon="8.680165">
<ele>385.5</ele>
<speed>4.4</speed>
<course>74.5</course>
<desc>Speed 4.4 km/h Distance 2.15 km</desc>
<time>2010-02-28T10:39:30.54</time>
<name>1429</name>
</trkpt>
<trkpt lat="48.931563" lon="8.680183">
<ele>385.5</ele>
<speed>4.7</speed>
<course>71.3</course>
<desc>Speed 4.7 km/h Distance 2.15 km</desc>
<time>2010-02-28T10:39:31.54</time>
<name>1430</name>
</trkpt>
<trkpt lat="48.931567" lon="8.680198">
<ele>385.5</ele>
<speed>4.2</speed>
<course>56.9</course>
<desc>Speed 4.2 km/h Distance 2.15 km</desc>
<time>2010-02-28T10:39:32.54</time>
<name>1431</name>
</trkpt>
<trkpt lat="48.931572" lon="8.680210">
<ele>385.5</ele>
<speed>3.9</speed>
<course>73.1</course>
<desc>Speed 3.9 km/h Distance 2.15 km</desc>
<time>2010-02-28T10:39:33.54</time>
<name>1432</name>
</trkpt>
<trkpt lat="48.931575" lon="8.680227">
<ele>385.5</ele>
<speed>4.2</speed>
<course>71.3</course>
<desc>Speed 4.2 km/h Distance 2.16 km</desc>
<time>2010-02-28T10:39:34.54</time>
<name>1433</name>
</trkpt>
<trkpt lat="48.931578" lon="8.680242">
<ele>385.5</ele>
<speed>4.1</speed>
<course>80.4</course>
<desc>Speed 4.1 km/h Distance 2.16 km</desc>
<time>2010-02-28T10:39:35.54</time>
<name>1434</name>
</trkpt>
<trkpt lat="48.931580" lon="8.680257">
<ele>385.5</ele>
<speed>4.1</speed>
<course>71.3</course>
<desc>Speed 4.1 km/h Distance 2.16 km</desc>
<time>2010-02-28T10:39:36.54</time>
<name>1435</name>
</trkpt>
<trkpt lat="48.931583" lon="8.680272">
<ele>385.5</ele>
<speed>4.2</speed>
<course>71.3</course>
<desc>Speed 4.2 km/h Distance 2.16 km</desc>
<time>2010-02-28T10:39:37.54</time>
<name>1436</name>
</trkpt>
<trkpt lat="48.931587" lon="8.680287">
<ele>385.5</ele>
<speed>4.2</speed>
<course>71.3</course>
<desc>Speed 4.2 km/h Distance 2.16 km</desc>
<time>2010-02-28T10:39:38.54</time>
<name>1437</name>
</trkpt>
<trkpt lat="48.931590" lon="8.680302">
<ele>385.5</ele>
<speed>4.0</speed>
<course>80.4</course>
<desc>Speed 4.0 km/h Distance 2.16 km</desc>
<time>2010-02-28T10:39:39.54</time>
<name>1438</name>
</trkpt>
<trkpt lat="48.931592" lon="8.680317">
<ele>385.5</ele>
<speed>4.2</speed>
<course>81.4</course>
<desc>Speed 4.2 km/h Distance 2.16 km</desc>
<time>2010-02-28T10:39:40.54</time>
<name>1439</name>
</trkpt>
<trkpt lat="48.931593" lon="8.680333">
<ele>385.5</ele>
<speed>4.1</speed>
<course>73.1</course>
<desc>Speed 4.1 km/h Distance 2.16 km</desc>
<time>2010-02-28T10:39:41.54</time>
<name>1440</name>
</trkpt>
<trkpt lat="48.931597" lon="8.680350">
<ele>385.5</ele>
<speed>4.5</speed>
<course>74.5</course>
<desc>Speed 4.5 km/h Distance 2.17 km</desc>
<time>2010-02-28T10:39:42.54</time>
<name>1441</name>
</trkpt>
<trkpt lat="48.931600" lon="8.680368">
<ele>385.5</ele>
<speed>4.6</speed>
<course>81.3</course>
<desc>Speed 4.6 km/h Distance 2.17 km</desc>
<time>2010-02-28T10:39:43.54</time>
<name>1442</name>
</trkpt>
<trkpt lat="48.931602" lon="8.680385">
<ele>385.5</ele>
<speed>4.5</speed>
<course>74.5</course>
<desc>Speed 4.5 km/h Distance 2.17 km</desc>
<time>2010-02-28T10:39:44.54</time>
<name>1443</name>
</trkpt>
<trkpt lat="48.931605" lon="8.680403">
<ele>386.0</ele>
<speed>4.4</speed>
<course>81.3</course>
<desc>Speed 4.4 km/h Distance 2.17 km</desc>
<time>2010-02-28T10:39:45.54</time>
<name>1444</name>
</trkpt>
<trkpt lat="48.931607" lon="8.680420">
<ele>386.0</ele>
<speed>4.2</speed>
<course>73.0</course>
<desc>Speed 4.2 km/h Distance 2.17 km</desc>
<time>2010-02-28T10:39:46.54</time>
<name>1445</name>
</trkpt>
<trkpt lat="48.931610" lon="8.680437">
<ele>386.0</ele>
<speed>4.6</speed>
<course>67.5</course>
<desc>Speed 4.6 km/h Distance 2.17 km</desc>
<time>2010-02-28T10:39:47.54</time>
<name>1446</name>
</trkpt>
<trkpt lat="48.931615" lon="8.680455">
<ele>386.5</ele>
<speed>4.6</speed>
<course>65.5</course>
<desc>Speed 4.6 km/h Distance 2.17 km</desc>
<time>2010-02-28T10:39:48.54</time>
<name>1447</name>
</trkpt>
<trkpt lat="48.931620" lon="8.680472">
<ele>386.5</ele>
<speed>4.8</speed>
<course>67.5</course>
<desc>Speed 4.8 km/h Distance 2.17 km</desc>
<time>2010-02-28T10:39:49.54</time>
<name>1448</name>
</trkpt>
<trkpt lat="48.931625" lon="8.680490">
<ele>386.5</ele>
<speed>4.9</speed>
<course>73.1</course>
<desc>Speed 4.9 km/h Distance 2.18 km</desc>
<time>2010-02-28T10:39:50.54</time>
<name>1449</name>
</trkpt>
<trkpt lat="48.931628" lon="8.680507">
<ele>386.5</ele>
<speed>4.8</speed>
<course>61.0</course>
<desc>Speed 4.8 km/h Distance 2.18 km</desc>
<time>2010-02-28T10:39:51.54</time>
<name>1450</name>
</trkpt>
<trkpt lat="48.931635" lon="8.680525">
<ele>387.0</ele>
<speed>5.0</speed>
<course>69.2</course>
<desc>Speed 5.0 km/h Distance 2.18 km</desc>
<time>2010-02-28T10:39:52.54</time>
<name>1451</name>
</trkpt>
<trkpt lat="48.931640" lon="8.680545">
<ele>387.0</ele>
<speed>5.1</speed>
<course>74.5</course>
<desc>Speed 5.1 km/h Distance 2.18 km</desc>
<time>2010-02-28T10:39:53.54</time>
<name>1452</name>
</trkpt>
<trkpt lat="48.931643" lon="8.680563">
<ele>387.5</ele>
<speed>4.9</speed>
<course>67.5</course>
<desc>Speed 4.9 km/h Distance 2.18 km</desc>
<time>2010-02-28T10:39:54.54</time>
<name>1453</name>
</trkpt>
<trkpt lat="48.931648" lon="8.680582">
<ele>387.5</ele>
<speed>4.9</speed>
<course>58.7</course>
<desc>Speed 4.9 km/h Distance 2.18 km</desc>
<time>2010-02-28T10:39:55.54</time>
<name>1454</name>
</trkpt>
<trkpt lat="48.931655" lon="8.680598">
<ele>387.5</ele>
<speed>4.9</speed>
<course>61.0</course>
<desc>Speed 4.9 km/h Distance 2.19 km</desc>
<time>2010-02-28T10:39:56.54</time>
<name>1455</name>
</trkpt>
<trkpt lat="48.931662" lon="8.680617">
<ele>388.0</ele>
<speed>4.9</speed>
<course>74.5</course>
<desc>Speed 4.9 km/h Distance 2.19 km</desc>
<time>2010-02-28T10:39:57.54</time>
<name>1456</name>
</trkpt>
<trkpt lat="48.931665" lon="8.680635">
<ele>388.0</ele>
<speed>5.1</speed>
<course>67.4</course>
<desc>Speed 5.1 km/h Distance 2.19 km</desc>
<time>2010-02-28T10:39:58.54</time>
<name>1457</name>
</trkpt>
<trkpt lat="48.931670" lon="8.680653">
<ele>388.0</ele>
<speed>5.0</speed>
<course>74.5</course>
<desc>Speed 5.0 km/h Distance 2.19 km</desc>
<time>2010-02-28T10:39:59.54</time>
<name>1458</name>
</trkpt>
<trkpt lat="48.931673" lon="8.680672">
<ele>387.5</ele>
<speed>5.1</speed>
<course>69.2</course>
<desc>Speed 5.1 km/h Distance 2.19 km</desc>
<time>2010-02-28T10:40:00.54</time>
<name>1459</name>
</trkpt>
<trkpt lat="48.931678" lon="8.680692">
<ele>387.5</ele>
<speed>5.1</speed>
<course>58.6</course>
<desc>Speed 5.1 km/h Distance 2.19 km</desc>
<time>2010-02-28T10:40:01.54</time>
<name>1460</name>
</trkpt>
<trkpt lat="48.931685" lon="8.680708">
<ele>388.0</ele>
<speed>5.0</speed>
<course>61.0</course>
<desc>Speed 5.0 km/h Distance 2.19 km</desc>
<time>2010-02-28T10:40:02.54</time>
<name>1461</name>
</trkpt>
<trkpt lat="48.931692" lon="8.680727">
<ele>388.0</ele>
<speed>5.0</speed>
<course>74.5</course>
<desc>Speed 5.0 km/h Distance 2.20 km</desc>
<time>2010-02-28T10:40:03.54</time>
<name>1462</name>
</trkpt>
<trkpt lat="48.931695" lon="8.680745">
<ele>388.0</ele>
<speed>5.1</speed>
<course>61.0</course>
<desc>Speed 5.1 km/h Distance 2.20 km</desc>
<time>2010-02-28T10:40:04.54</time>
<name>1463</name>
</trkpt>
<trkpt lat="48.931702" lon="8.680763">
<ele>387.5</ele>
<speed>5.0</speed>
<course>69.2</course>
<desc>Speed 5.0 km/h Distance 2.20 km</desc>
<time>2010-02-28T10:40:05.54</time>
<name>1464</name>
</trkpt>
<trkpt lat="48.931707" lon="8.680783">
<ele>387.5</ele>
<speed>5.4</speed>
<course>75.8</course>
<desc>Speed 5.4 km/h Distance 2.20 km</desc>
<time>2010-02-28T10:40:06.54</time>
<name>1465</name>
</trkpt>
<trkpt lat="48.931710" lon="8.680803">
<ele>387.5</ele>
<speed>5.3</speed>
<course>69.2</course>
<desc>Speed 5.3 km/h Distance 2.20 km</desc>
<time>2010-02-28T10:40:07.54</time>
<name>1466</name>
</trkpt>
<trkpt lat="48.931715" lon="8.680823">
<ele>388.0</ele>
<speed>5.3</speed>
<course>61.0</course>
<desc>Speed 5.3 km/h Distance 2.20 km</desc>
<time>2010-02-28T10:40:08.54</time>
<name>1467</name>
</trkpt>
<trkpt lat="48.931722" lon="8.680842">
<ele>388.0</ele>
<speed>5.3</speed>
<course>63.1</course>
<desc>Speed 5.3 km/h Distance 2.20 km</desc>
<time>2010-02-28T10:40:09.54</time>
<name>1468</name>
</trkpt>
<trkpt lat="48.931728" lon="8.680862">
<ele>388.0</ele>
<speed>5.3</speed>
<course>76.8</course>
<desc>Speed 5.3 km/h Distance 2.21 km</desc>
<time>2010-02-28T10:40:10.54</time>
<name>1469</name>
</trkpt>
<trkpt lat="48.931732" lon="8.680883">
<ele>388.5</ele>
<speed>5.6</speed>
<course>60.3</course>
<desc>Speed 5.6 km/h Distance 2.21 km</desc>
<time>2010-02-28T10:40:11.54</time>
<name>1470</name>
</trkpt>
<trkpt lat="48.931737" lon="8.680897">
<ele>388.5</ele>
<speed>3.6</speed>
<course>308.1</course>
<desc>Speed 3.6 km/h Distance 2.21 km</desc>
<time>2010-02-28T10:40:12.54</time>
<name>1471</name>
</trkpt>
<trkpt lat="48.931738" lon="8.680893">
<ele>389.0</ele>
<speed>1.0</speed>
<course>236.9</course>
<desc>Speed 1.0 km/h Distance 2.21 km</desc>
<time>2010-02-28T10:40:13.54</time>
<name>1472</name>
</trkpt>
<trkpt lat="48.931733" lon="8.680882">
<ele>389.0</ele>
<speed>3.8</speed>
<course>270.0</course>
<desc>Speed 3.8 km/h Distance 2.21 km</desc>
<time>2010-02-28T10:40:14.54</time>
<name>1473</name>
</trkpt>
<trkpt lat="48.931733" lon="8.680878">
<ele>389.0</ele>
<speed>1.3</speed>
<course>90.0</course>
<desc>Speed 1.3 km/h Distance 2.21 km</desc>
<time>2010-02-28T10:40:15.54</time>
<name>1474</name>
</trkpt>
<trkpt lat="48.931733" lon="8.680882">
<ele>389.5</ele>
<speed>1.2</speed>
<course>63.0</course>
<desc>Speed 1.2 km/h Distance 2.21 km</desc>
<time>2010-02-28T10:40:16.54</time>
<name>1475</name>
</trkpt>
<trkpt lat="48.931737" lon="8.680892">
<ele>389.5</ele>
<speed>2.6</speed>
<course>48.7</course>
<desc>Speed 2.6 km/h Distance 2.21 km</desc>
<time>2010-02-28T10:40:17.54</time>
<name>1476</name>
</trkpt>
<trkpt lat="48.931743" lon="8.680903">
<ele>389.5</ele>
<speed>3.9</speed>
<course>41.2</course>
<desc>Speed 3.9 km/h Distance 2.21 km</desc>
<time>2010-02-28T10:40:18.54</time>
<name>1477</name>
</trkpt>
<trkpt lat="48.931753" lon="8.680917">
<ele>390.0</ele>
<speed>5.1</speed>
<course>69.2</course>
<desc>Speed 5.1 km/h Distance 2.21 km</desc>
<time>2010-02-28T10:40:19.54</time>
<name>1478</name>
</trkpt>
<trkpt lat="48.931758" lon="8.680937">
<ele>389.5</ele>
<speed>5.5</speed>
<course>75.8</course>
<desc>Speed 5.5 km/h Distance 2.22 km</desc>
<time>2010-02-28T10:40:20.54</time>
<name>1479</name>
</trkpt>
<trkpt lat="48.931762" lon="8.680957">
<ele>389.5</ele>
<speed>5.5</speed>
<course>70.6</course>
<desc>Speed 5.5 km/h Distance 2.22 km</desc>
<time>2010-02-28T10:40:21.54</time>
<name>1480</name>
</trkpt>
<trkpt lat="48.931767" lon="8.680978">
<ele>389.5</ele>
<speed>5.5</speed>
<course>74.5</course>
<desc>Speed 5.5 km/h Distance 2.22 km</desc>
<time>2010-02-28T10:40:22.54</time>
<name>1481</name>
</trkpt>
<trkpt lat="48.931770" lon="8.680997">
<ele>389.5</ele>
<speed>5.5</speed>
<course>69.2</course>
<desc>Speed 5.5 km/h Distance 2.22 km</desc>
<time>2010-02-28T10:40:23.54</time>
<name>1482</name>
</trkpt>
<trkpt lat="48.931775" lon="8.681017">
<ele>389.5</ele>
<speed>5.4</speed>
<course>69.2</course>
<desc>Speed 5.4 km/h Distance 2.22 km</desc>
<time>2010-02-28T10:40:24.54</time>
<name>1483</name>
</trkpt>
<trkpt lat="48.931780" lon="8.681037">
<ele>389.0</ele>
<speed>5.3</speed>
<course>69.2</course>
<desc>Speed 5.3 km/h Distance 2.22 km</desc>
<time>2010-02-28T10:40:25.54</time>
<name>1484</name>
</trkpt>
<trkpt lat="48.931785" lon="8.681057">
<ele>389.0</ele>
<speed>5.5</speed>
<course>67.5</course>
<desc>Speed 5.5 km/h Distance 2.22 km</desc>
<time>2010-02-28T10:40:26.54</time>
<name>1485</name>
</trkpt>
<trkpt lat="48.931790" lon="8.681075">
<ele>389.0</ele>
<speed>5.3</speed>
<course>69.1</course>
<desc>Speed 5.3 km/h Distance 2.23 km</desc>
<time>2010-02-28T10:40:27.54</time>
<name>1486</name>
</trkpt>
<trkpt lat="48.931795" lon="8.681095">
<ele>389.0</ele>
<speed>5.4</speed>
<course>67.4</course>
<desc>Speed 5.4 km/h Distance 2.23 km</desc>
<time>2010-02-28T10:40:28.54</time>
<name>1487</name>
</trkpt>
<trkpt lat="48.931800" lon="8.681113">
<ele>389.0</ele>
<speed>5.4</speed>
<course>69.2</course>
<desc>Speed 5.4 km/h Distance 2.23 km</desc>
<time>2010-02-28T10:40:29.54</time>
<name>1488</name>
</trkpt>
<trkpt lat="48.931805" lon="8.681133">
<ele>389.0</ele>
<speed>5.3</speed>
<course>74.5</course>
<desc>Speed 5.3 km/h Distance 2.23 km</desc>
<time>2010-02-28T10:40:30.54</time>
<name>1489</name>
</trkpt>
<trkpt lat="48.931808" lon="8.681152">
<ele>389.0</ele>
<speed>5.3</speed>
<course>69.2</course>
<desc>Speed 5.3 km/h Distance 2.23 km</desc>
<time>2010-02-28T10:40:31.54</time>
<name>1490</name>
</trkpt>
<trkpt lat="48.931813" lon="8.681172">
<ele>388.5</ele>
<speed>5.5</speed>
<course>75.8</course>
<desc>Speed 5.5 km/h Distance 2.23 km</desc>
<time>2010-02-28T10:40:32.54</time>
<name>1491</name>
</trkpt>
<trkpt lat="48.931817" lon="8.681192">
<ele>388.5</ele>
<speed>5.3</speed>
<course>69.2</course>
<desc>Speed 5.3 km/h Distance 2.24 km</desc>
<time>2010-02-28T10:40:33.54</time>
<name>1492</name>
</trkpt>
<trkpt lat="48.931822" lon="8.681212">
<ele>388.5</ele>
<speed>5.5</speed>
<course>69.1</course>
<desc>Speed 5.5 km/h Distance 2.24 km</desc>
<time>2010-02-28T10:40:34.54</time>
<name>1493</name>
</trkpt>
<trkpt lat="48.931827" lon="8.681232">
<ele>388.5</ele>
<speed>5.3</speed>
<course>41.2</course>
<desc>Speed 5.3 km/h Distance 2.24 km</desc>
<time>2010-02-28T10:40:35.54</time>
<name>1494</name>
</trkpt>
<trkpt lat="48.931837" lon="8.681245">
<ele>388.5</ele>
<speed>5.0</speed>
<course>41.4</course>
<desc>Speed 5.0 km/h Distance 2.24 km</desc>
<time>2010-02-28T10:40:36.54</time>
<name>1495</name>
</trkpt>
<trkpt lat="48.931847" lon="8.681258">
<ele>388.5</ele>
<speed>5.3</speed>
<course>61.0</course>
<desc>Speed 5.3 km/h Distance 2.24 km</desc>
<time>2010-02-28T10:40:37.54</time>
<name>1496</name>
</trkpt>
<trkpt lat="48.931853" lon="8.681277">
<ele>388.5</ele>
<speed>5.2</speed>
<course>69.2</course>
<desc>Speed 5.2 km/h Distance 2.24 km</desc>
<time>2010-02-28T10:40:38.54</time>
<name>1497</name>
</trkpt>
<trkpt lat="48.931858" lon="8.681297">
<ele>388.5</ele>
<speed>5.7</speed>
<course>70.7</course>
<desc>Speed 5.7 km/h Distance 2.24 km</desc>
<time>2010-02-28T10:40:39.54</time>
<name>1498</name>
</trkpt>
<trkpt lat="48.931863" lon="8.681318">
<ele>388.5</ele>
<speed>5.9</speed>
<course>76.8</course>
<desc>Speed 5.9 km/h Distance 2.25 km</desc>
<time>2010-02-28T10:40:40.54</time>
<name>1499</name>
</trkpt>
<trkpt lat="48.931867" lon="8.681340">
<ele>388.5</ele>
<speed>5.8</speed>
<course>76.8</course>
<desc>Speed 5.8 km/h Distance 2.25 km</desc>
<time>2010-02-28T10:40:41.54</time>
<name>1500</name>
</trkpt>
<trkpt lat="48.931870" lon="8.681362">
<ele>388.5</ele>
<speed>5.8</speed>
<course>75.8</course>
<desc>Speed 5.8 km/h Distance 2.25 km</desc>
<time>2010-02-28T10:40:42.54</time>
<name>1501</name>
</trkpt>
<trkpt lat="48.931873" lon="8.681382">
<ele>388.5</ele>
<speed>5.5</speed>
<course>76.8</course>
<desc>Speed 5.5 km/h Distance 2.25 km</desc>
<time>2010-02-28T10:40:43.54</time>
<name>1502</name>
</trkpt>
<trkpt lat="48.931877" lon="8.681403">
<ele>388.5</ele>
<speed>5.7</speed>
<course>67.5</course>
<desc>Speed 5.7 km/h Distance 2.25 km</desc>
<time>2010-02-28T10:40:44.54</time>
<name>1503</name>
</trkpt>
<trkpt lat="48.931882" lon="8.681422">
<ele>389.0</ele>
<speed>5.5</speed>
<course>70.6</course>
<desc>Speed 5.5 km/h Distance 2.25 km</desc>
<time>2010-02-28T10:40:45.54</time>
<name>1504</name>
</trkpt>
<trkpt lat="48.931887" lon="8.681443">
<ele>389.0</ele>
<speed>5.8</speed>
<course>69.2</course>
<desc>Speed 5.8 km/h Distance 2.26 km</desc>
<time>2010-02-28T10:40:46.54</time>
<name>1505</name>
</trkpt>
<trkpt lat="48.931892" lon="8.681463">
<ele>389.0</ele>
<speed>5.6</speed>
<course>69.2</course>
<desc>Speed 5.6 km/h Distance 2.26 km</desc>
<time>2010-02-28T10:40:47.54</time>
<name>1506</name>
</trkpt>
<trkpt lat="48.931897" lon="8.681483">
<ele>389.0</ele>
<speed>5.8</speed>
<course>64.9</course>
<desc>Speed 5.8 km/h Distance 2.26 km</desc>
<time>2010-02-28T10:40:48.54</time>
<name>1507</name>
</trkpt>
<trkpt lat="48.931903" lon="8.681505">
<ele>389.0</ele>
<speed>5.8</speed>
<course>69.2</course>
<desc>Speed 5.8 km/h Distance 2.26 km</desc>
<time>2010-02-28T10:40:49.54</time>
<name>1508</name>
</trkpt>
<trkpt lat="48.931908" lon="8.681525">
<ele>389.0</ele>
<speed>5.6</speed>
<course>69.1</course>
<desc>Speed 5.6 km/h Distance 2.26 km</desc>
<time>2010-02-28T10:40:50.54</time>
<name>1509</name>
</trkpt>
<trkpt lat="48.931913" lon="8.681545">
<ele>389.0</ele>
<speed>5.8</speed>
<course>69.2</course>
<desc>Speed 5.8 km/h Distance 2.26 km</desc>
<time>2010-02-28T10:40:51.54</time>
<name>1510</name>
</trkpt>
<trkpt lat="48.931918" lon="8.681565">
<ele>389.0</ele>
<speed>5.5</speed>
<course>70.6</course>
<desc>Speed 5.5 km/h Distance 2.27 km</desc>
<time>2010-02-28T10:40:52.54</time>
<name>1511</name>
</trkpt>
<trkpt lat="48.931923" lon="8.681587">
<ele>389.0</ele>
<speed>5.7</speed>
<course>75.8</course>
<desc>Speed 5.7 km/h Distance 2.27 km</desc>
<time>2010-02-28T10:40:53.54</time>
<name>1512</name>
</trkpt>
<trkpt lat="48.931927" lon="8.681607">
<ele>389.0</ele>
<speed>5.5</speed>
<course>70.6</course>
<desc>Speed 5.5 km/h Distance 2.27 km</desc>
<time>2010-02-28T10:40:54.54</time>
<name>1513</name>
</trkpt>
<trkpt lat="48.931932" lon="8.681628">
<ele>389.0</ele>
<speed>5.7</speed>
<course>64.9</course>
<desc>Speed 5.7 km/h Distance 2.27 km</desc>
<time>2010-02-28T10:40:55.54</time>
<name>1514</name>
</trkpt>
<trkpt lat="48.931938" lon="8.681650">
<ele>389.0</ele>
<speed>5.9</speed>
<course>70.6</course>
<desc>Speed 5.9 km/h Distance 2.27 km</desc>
<time>2010-02-28T10:40:56.54</time>
<name>1515</name>
</trkpt>
<trkpt lat="48.931943" lon="8.681672">
<ele>389.5</ele>
<speed>5.9</speed>
<course>70.6</course>
<desc>Speed 5.9 km/h Distance 2.27 km</desc>
<time>2010-02-28T10:40:57.54</time>
<name>1516</name>
</trkpt>
<trkpt lat="48.931948" lon="8.681693">
<ele>389.5</ele>
<speed>5.9</speed>
<course>69.2</course>
<desc>Speed 5.9 km/h Distance 2.28 km</desc>
<time>2010-02-28T10:40:58.54</time>
<name>1517</name>
</trkpt>
<trkpt lat="48.931953" lon="8.681713">
<ele>389.5</ele>
<speed>5.8</speed>
<course>70.6</course>
<desc>Speed 5.8 km/h Distance 2.28 km</desc>
<time>2010-02-28T10:40:59.54</time>
<name>1518</name>
</trkpt>
<trkpt lat="48.931958" lon="8.681735">
<ele>389.5</ele>
<speed>5.9</speed>
<course>70.6</course>
<desc>Speed 5.9 km/h Distance 2.28 km</desc>
<time>2010-02-28T10:41:00.54</time>
<name>1519</name>
</trkpt>
<trkpt lat="48.931963" lon="8.681757">
<ele>389.5</ele>
<speed>5.8</speed>
<course>76.8</course>
<desc>Speed 5.8 km/h Distance 2.28 km</desc>
<time>2010-02-28T10:41:01.54</time>
<name>1520</name>
</trkpt>
<trkpt lat="48.931967" lon="8.681778">
<ele>389.5</ele>
<speed>5.7</speed>
<course>70.7</course>
<desc>Speed 5.7 km/h Distance 2.28 km</desc>
<time>2010-02-28T10:41:02.54</time>
<name>1521</name>
</trkpt>
<trkpt lat="48.931972" lon="8.681800">
<ele>389.5</ele>
<speed>5.8</speed>
<course>69.2</course>
<desc>Speed 5.8 km/h Distance 2.28 km</desc>
<time>2010-02-28T10:41:03.54</time>
<name>1522</name>
</trkpt>
<trkpt lat="48.931977" lon="8.681820">
<ele>389.5</ele>
<speed>5.7</speed>
<course>76.8</course>
<desc>Speed 5.7 km/h Distance 2.29 km</desc>
<time>2010-02-28T10:41:04.54</time>
<name>1523</name>
</trkpt>
<trkpt lat="48.931980" lon="8.681842">
<ele>389.5</ele>
<speed>5.6</speed>
<course>69.2</course>
<desc>Speed 5.6 km/h Distance 2.29 km</desc>
<time>2010-02-28T10:41:05.54</time>
<name>1524</name>
</trkpt>
<trkpt lat="48.931985" lon="8.681862">
<ele>389.5</ele>
<speed>5.7</speed>
<course>70.6</course>
<desc>Speed 5.7 km/h Distance 2.29 km</desc>
<time>2010-02-28T10:41:06.54</time>
<name>1525</name>
</trkpt>
<trkpt lat="48.931990" lon="8.681883">
<ele>389.5</ele>
<speed>5.6</speed>
<course>67.5</course>
<desc>Speed 5.6 km/h Distance 2.29 km</desc>
<time>2010-02-28T10:41:07.54</time>
<name>1526</name>
</trkpt>
<trkpt lat="48.931995" lon="8.681902">
<ele>389.5</ele>
<speed>5.4</speed>
<course>75.8</course>
<desc>Speed 5.4 km/h Distance 2.29 km</desc>
<time>2010-02-28T10:41:08.54</time>
<name>1527</name>
</trkpt>
<trkpt lat="48.931998" lon="8.681922">
<ele>390.0</ele>
<speed>5.5</speed>
<course>69.1</course>
<desc>Speed 5.5 km/h Distance 2.29 km</desc>
<time>2010-02-28T10:41:09.54</time>
<name>1528</name>
</trkpt>
<trkpt lat="48.932003" lon="8.681942">
<ele>390.0</ele>
<speed>5.5</speed>
<course>76.8</course>
<desc>Speed 5.5 km/h Distance 2.29 km</desc>
<time>2010-02-28T10:41:10.54</time>
<name>1529</name>
</trkpt>
<trkpt lat="48.932007" lon="8.681963">
<ele>390.0</ele>
<speed>5.5</speed>
<course>75.8</course>
<desc>Speed 5.5 km/h Distance 2.30 km</desc>
<time>2010-02-28T10:41:11.54</time>
<name>1530</name>
</trkpt>
<trkpt lat="48.932010" lon="8.681983">
<ele>390.0</ele>
<speed>5.5</speed>
<course>69.2</course>
<desc>Speed 5.5 km/h Distance 2.30 km</desc>
<time>2010-02-28T10:41:12.54</time>
<name>1531</name>
</trkpt>
<trkpt lat="48.932015" lon="8.682003">
<ele>390.0</ele>
<speed>5.7</speed>
<course>69.2</course>
<desc>Speed 5.7 km/h Distance 2.30 km</desc>
<time>2010-02-28T10:41:13.54</time>
<name>1532</name>
</trkpt>
<trkpt lat="48.932020" lon="8.682023">
<ele>390.0</ele>
<speed>5.4</speed>
<course>69.2</course>
<desc>Speed 5.4 km/h Distance 2.30 km</desc>
<time>2010-02-28T10:41:14.54</time>
<name>1533</name>
</trkpt>
<trkpt lat="48.932025" lon="8.682043">
<ele>390.0</ele>
<speed>5.4</speed>
<course>67.4</course>
<desc>Speed 5.4 km/h Distance 2.30 km</desc>
<time>2010-02-28T10:41:15.54</time>
<name>1534</name>
</trkpt>
<trkpt lat="48.932030" lon="8.682062">
<ele>390.0</ele>
<speed>5.4</speed>
<course>67.4</course>
<desc>Speed 5.4 km/h Distance 2.30 km</desc>
<time>2010-02-28T10:41:16.54</time>
<name>1535</name>
</trkpt>
<trkpt lat="48.932035" lon="8.682080">
<ele>390.0</ele>
<speed>5.4</speed>
<course>67.4</course>
<desc>Speed 5.4 km/h Distance 2.31 km</desc>
<time>2010-02-28T10:41:17.54</time>
<name>1536</name>
</trkpt>
<trkpt lat="48.932040" lon="8.682098">
<ele>390.0</ele>
<speed>5.3</speed>
<course>67.5</course>
<desc>Speed 5.3 km/h Distance 2.31 km</desc>
<time>2010-02-28T10:41:18.54</time>
<name>1537</name>
</trkpt>
<trkpt lat="48.932045" lon="8.682117">
<ele>390.5</ele>
<speed>5.4</speed>
<course>67.5</course>
<desc>Speed 5.4 km/h Distance 2.31 km</desc>
<time>2010-02-28T10:41:19.54</time>
<name>1538</name>
</trkpt>
<trkpt lat="48.932050" lon="8.682135">
<ele>390.5</ele>
<speed>5.4</speed>
<course>63.1</course>
<desc>Speed 5.4 km/h Distance 2.31 km</desc>
<time>2010-02-28T10:41:20.54</time>
<name>1539</name>
</trkpt>
<trkpt lat="48.932057" lon="8.682155">
<ele>390.5</ele>
<speed>5.3</speed>
<course>67.5</course>
<desc>Speed 5.3 km/h Distance 2.31 km</desc>
<time>2010-02-28T10:41:21.54</time>
<name>1540</name>
</trkpt>
<trkpt lat="48.932062" lon="8.682173">
<ele>390.5</ele>
<speed>5.2</speed>
<course>67.5</course>
<desc>Speed 5.2 km/h Distance 2.31 km</desc>
<time>2010-02-28T10:41:22.54</time>
<name>1541</name>
</trkpt>
<trkpt lat="48.932067" lon="8.682192">
<ele>390.5</ele>
<speed>5.1</speed>
<course>67.5</course>
<desc>Speed 5.1 km/h Distance 2.31 km</desc>
<time>2010-02-28T10:41:23.54</time>
<name>1542</name>
</trkpt>
<trkpt lat="48.932072" lon="8.682210">
<ele>391.0</ele>
<speed>5.2</speed>
<course>69.2</course>
<desc>Speed 5.2 km/h Distance 2.32 km</desc>
<time>2010-02-28T10:41:24.54</time>
<name>1543</name>
</trkpt>
<trkpt lat="48.932077" lon="8.682230">
<ele>391.0</ele>
<speed>5.3</speed>
<course>67.5</course>
<desc>Speed 5.3 km/h Distance 2.32 km</desc>
<time>2010-02-28T10:41:25.54</time>
<name>1544</name>
</trkpt>
<trkpt lat="48.932082" lon="8.682248">
<ele>391.5</ele>
<speed>5.4</speed>
<course>69.2</course>
<desc>Speed 5.4 km/h Distance 2.32 km</desc>
<time>2010-02-28T10:41:26.54</time>
<name>1545</name>
</trkpt>
<trkpt lat="48.932087" lon="8.682268">
<ele>391.5</ele>
<speed>5.4</speed>
<course>69.2</course>
<desc>Speed 5.4 km/h Distance 2.32 km</desc>
<time>2010-02-28T10:41:27.54</time>
<name>1546</name>
</trkpt>
<trkpt lat="48.932092" lon="8.682288">
<ele>392.0</ele>
<speed>5.3</speed>
<course>74.5</course>
<desc>Speed 5.3 km/h Distance 2.32 km</desc>
<time>2010-02-28T10:41:28.54</time>
<name>1547</name>
</trkpt>
<trkpt lat="48.932095" lon="8.682307">
<ele>392.0</ele>
<speed>4.9</speed>
<course>74.6</course>
<desc>Speed 4.9 km/h Distance 2.32 km</desc>
<time>2010-02-28T10:41:29.54</time>
<name>1548</name>
</trkpt>
<trkpt lat="48.932098" lon="8.682325">
<ele>392.0</ele>
<speed>5.1</speed>
<course>67.5</course>
<desc>Speed 5.1 km/h Distance 2.32 km</desc>
<time>2010-02-28T10:41:30.54</time>
<name>1549</name>
</trkpt>
<trkpt lat="48.932103" lon="8.682343">
<ele>392.5</ele>
<speed>4.9</speed>
<course>74.5</course>
<desc>Speed 4.9 km/h Distance 2.33 km</desc>
<time>2010-02-28T10:41:31.54</time>
<name>1550</name>
</trkpt>
<trkpt lat="48.932107" lon="8.682362">
<ele>392.5</ele>
<speed>4.9</speed>
<course>74.5</course>
<desc>Speed 4.9 km/h Distance 2.33 km</desc>
<time>2010-02-28T10:41:32.54</time>
<name>1551</name>
</trkpt>
<trkpt lat="48.932110" lon="8.682380">
<ele>392.5</ele>
<speed>5.0</speed>
<course>73.1</course>
<desc>Speed 5.0 km/h Distance 2.33 km</desc>
<time>2010-02-28T10:41:33.54</time>
<name>1552</name>
</trkpt>
<trkpt lat="48.932113" lon="8.682397">
<ele>392.5</ele>
<speed>4.9</speed>
<course>82.1</course>
<desc>Speed 4.9 km/h Distance 2.33 km</desc>
<time>2010-02-28T10:41:34.54</time>
<name>1553</name>
</trkpt>
<trkpt lat="48.932115" lon="8.682415">
<ele>393.0</ele>
<speed>4.8</speed>
<course>74.5</course>
<desc>Speed 4.8 km/h Distance 2.33 km</desc>
<time>2010-02-28T10:41:35.54</time>
<name>1554</name>
</trkpt>
<trkpt lat="48.932118" lon="8.682433">
<ele>393.0</ele>
<speed>4.9</speed>
<course>74.5</course>
<desc>Speed 4.9 km/h Distance 2.33 km</desc>
<time>2010-02-28T10:41:36.54</time>
<name>1555</name>
</trkpt>
<trkpt lat="48.932122" lon="8.682452">
<ele>393.0</ele>
<speed>4.9</speed>
<course>65.4</course>
<desc>Speed 4.9 km/h Distance 2.33 km</desc>
<time>2010-02-28T10:41:37.54</time>
<name>1556</name>
</trkpt>
<trkpt lat="48.932127" lon="8.682468">
<ele>393.0</ele>
<speed>4.5</speed>
<course>73.1</course>
<desc>Speed 4.5 km/h Distance 2.34 km</desc>
<time>2010-02-28T10:41:38.54</time>
<name>1557</name>
</trkpt>
<trkpt lat="48.932130" lon="8.682485">
<ele>393.5</ele>
<speed>4.7</speed>
<course>74.6</course>
<desc>Speed 4.7 km/h Distance 2.34 km</desc>
<time>2010-02-28T10:41:39.54</time>
<name>1558</name>
</trkpt>
<trkpt lat="48.932133" lon="8.682503">
<ele>393.5</ele>
<speed>4.7</speed>
<course>63.1</course>
<desc>Speed 4.7 km/h Distance 2.34 km</desc>
<time>2010-02-28T10:41:40.54</time>
<name>1559</name>
</trkpt>
<trkpt lat="48.932138" lon="8.682518">
<ele>393.5</ele>
<speed>4.1</speed>
<course>71.3</course>
<desc>Speed 4.1 km/h Distance 2.34 km</desc>
<time>2010-02-28T10:41:41.54</time>
<name>1560</name>
</trkpt>
<trkpt lat="48.932142" lon="8.682533">
<ele>393.5</ele>
<speed>4.2</speed>
<course>63.1</course>
<desc>Speed 4.2 km/h Distance 2.34 km</desc>
<time>2010-02-28T10:41:42.54</time>
<name>1561</name>
</trkpt>
<trkpt lat="48.932147" lon="8.682548">
<ele>393.5</ele>
<speed>4.4</speed>
<course>65.4</course>
<desc>Speed 4.4 km/h Distance 2.34 km</desc>
<time>2010-02-28T10:41:43.54</time>
<name>1562</name>
</trkpt>
<trkpt lat="48.932152" lon="8.682565">
<ele>393.5</ele>
<speed>4.6</speed>
<course>65.5</course>
<desc>Speed 4.6 km/h Distance 2.34 km</desc>
<time>2010-02-28T10:41:44.54</time>
<name>1563</name>
</trkpt>
<trkpt lat="48.932157" lon="8.682582">
<ele>393.5</ele>
<speed>4.4</speed>
<course>63.1</course>
<desc>Speed 4.4 km/h Distance 2.34 km</desc>
<time>2010-02-28T10:41:45.54</time>
<name>1564</name>
</trkpt>
<trkpt lat="48.932162" lon="8.682597">
<ele>394.0</ele>
<speed>4.4</speed>
<course>65.5</course>
<desc>Speed 4.4 km/h Distance 2.35 km</desc>
<time>2010-02-28T10:41:46.54</time>
<name>1565</name>
</trkpt>
<trkpt lat="48.932167" lon="8.682613">
<ele>394.0</ele>
<speed>4.6</speed>
<course>73.0</course>
<desc>Speed 4.6 km/h Distance 2.35 km</desc>
<time>2010-02-28T10:41:47.54</time>
<name>1566</name>
</trkpt>
<trkpt lat="48.932170" lon="8.682630">
<ele>394.0</ele>
<speed>4.4</speed>
<course>71.3</course>
<desc>Speed 4.4 km/h Distance 2.35 km</desc>
<time>2010-02-28T10:41:48.54</time>
<name>1567</name>
</trkpt>
<trkpt lat="48.932173" lon="8.682645">
<ele>394.5</ele>
<speed>4.4</speed>
<course>73.1</course>
<desc>Speed 4.4 km/h Distance 2.35 km</desc>
<time>2010-02-28T10:41:49.54</time>
<name>1568</name>
</trkpt>
<trkpt lat="48.932177" lon="8.682662">
<ele>394.5</ele>
<speed>4.6</speed>
<course>58.7</course>
<desc>Speed 4.6 km/h Distance 2.35 km</desc>
<time>2010-02-28T10:41:50.54</time>
<name>1569</name>
</trkpt>
<trkpt lat="48.932183" lon="8.682678">
<ele>394.5</ele>
<speed>4.8</speed>
<course>65.5</course>
<desc>Speed 4.8 km/h Distance 2.35 km</desc>
<time>2010-02-28T10:41:51.54</time>
<name>1570</name>
</trkpt>
<trkpt lat="48.932188" lon="8.682695">
<ele>394.5</ele>
<speed>4.5</speed>
<course>65.4</course>
<desc>Speed 4.5 km/h Distance 2.35 km</desc>
<time>2010-02-28T10:41:52.54</time>
<name>1571</name>
</trkpt>
<trkpt lat="48.932193" lon="8.682712">
<ele>395.0</ele>
<speed>4.8</speed>
<course>65.4</course>
<desc>Speed 4.8 km/h Distance 2.35 km</desc>
<time>2010-02-28T10:41:53.54</time>
<name>1572</name>
</trkpt>
<trkpt lat="48.932198" lon="8.682728">
<ele>395.0</ele>
<speed>4.9</speed>
<course>81.3</course>
<desc>Speed 4.9 km/h Distance 2.36 km</desc>
<time>2010-02-28T10:41:54.54</time>
<name>1573</name>
</trkpt>
<trkpt lat="48.932200" lon="8.682745">
<ele>395.0</ele>
<speed>4.6</speed>
<course>74.5</course>
<desc>Speed 4.6 km/h Distance 2.36 km</desc>
<time>2010-02-28T10:41:55.54</time>
<name>1574</name>
</trkpt>
<trkpt lat="48.932203" lon="8.682763">
<ele>395.0</ele>
<speed>4.9</speed>
<course>74.5</course>
<desc>Speed 4.9 km/h Distance 2.36 km</desc>
<time>2010-02-28T10:41:56.54</time>
<name>1575</name>
</trkpt>
<trkpt lat="48.932207" lon="8.682782">
<ele>395.0</ele>
<speed>4.8</speed>
<course>82.1</course>
<desc>Speed 4.8 km/h Distance 2.36 km</desc>
<time>2010-02-28T10:41:57.54</time>
<name>1576</name>
</trkpt>
<trkpt lat="48.932208" lon="8.682800">
<ele>395.0</ele>
<speed>5.0</speed>
<course>81.3</course>
<desc>Speed 5.0 km/h Distance 2.36 km</desc>
<time>2010-02-28T10:41:58.54</time>
<name>1577</name>
</trkpt>
<trkpt lat="48.932210" lon="8.682817">
<ele>394.5</ele>
<speed>4.4</speed>
<course>65.5</course>
<desc>Speed 4.4 km/h Distance 2.36 km</desc>
<time>2010-02-28T10:41:59.54</time>
<name>1578</name>
</trkpt>
<trkpt lat="48.932215" lon="8.682833">
<ele>394.5</ele>
<speed>4.8</speed>
<course>65.5</course>
<desc>Speed 4.8 km/h Distance 2.36 km</desc>
<time>2010-02-28T10:42:00.54</time>
<name>1579</name>
</trkpt>
<trkpt lat="48.932220" lon="8.682850">
<ele>394.5</ele>
<speed>4.8</speed>
<course>65.5</course>
<desc>Speed 4.8 km/h Distance 2.37 km</desc>
<time>2010-02-28T10:42:01.54</time>
<name>1580</name>
</trkpt>
<trkpt lat="48.932225" lon="8.682867">
<ele>394.5</ele>
<speed>4.8</speed>
<course>74.6</course>
<desc>Speed 4.8 km/h Distance 2.37 km</desc>
<time>2010-02-28T10:42:02.54</time>
<name>1581</name>
</trkpt>
<trkpt lat="48.932228" lon="8.682885">
<ele>394.5</ele>
<speed>4.9</speed>
<course>74.5</course>
<desc>Speed 4.9 km/h Distance 2.37 km</desc>
<time>2010-02-28T10:42:03.54</time>
<name>1582</name>
</trkpt>
<trkpt lat="48.932232" lon="8.682903">
<ele>394.0</ele>
<speed>4.7</speed>
<course>73.1</course>
<desc>Speed 4.7 km/h Distance 2.37 km</desc>
<time>2010-02-28T10:42:04.54</time>
<name>1583</name>
</trkpt>
<trkpt lat="48.932235" lon="8.682920">
<ele>394.0</ele>
<speed>4.2</speed>
<course>73.1</course>
<desc>Speed 4.2 km/h Distance 2.37 km</desc>
<time>2010-02-28T10:42:05.54</time>
<name>1584</name>
</trkpt>
<trkpt lat="48.932238" lon="8.682937">
<ele>394.0</ele>
<speed>4.6</speed>
<course>73.1</course>
<desc>Speed 4.6 km/h Distance 2.37 km</desc>
<time>2010-02-28T10:42:06.54</time>
<name>1585</name>
</trkpt>
<trkpt lat="48.932242" lon="8.682953">
<ele>394.0</ele>
<speed>4.6</speed>
<course>67.4</course>
<desc>Speed 4.6 km/h Distance 2.37 km</desc>
<time>2010-02-28T10:42:07.54</time>
<name>1586</name>
</trkpt>
<trkpt lat="48.932247" lon="8.682972">
<ele>394.5</ele>
<speed>4.5</speed>
<course>81.3</course>
<desc>Speed 4.5 km/h Distance 2.37 km</desc>
<time>2010-02-28T10:42:08.54</time>
<name>1587</name>
</trkpt>
<trkpt lat="48.932248" lon="8.682988">
<ele>394.0</ele>
<speed>4.3</speed>
<course>82.1</course>
<desc>Speed 4.3 km/h Distance 2.38 km</desc>
<time>2010-02-28T10:42:09.54</time>
<name>1588</name>
</trkpt>
<trkpt lat="48.932250" lon="8.683007">
<ele>394.0</ele>
<speed>4.8</speed>
<course>73.1</course>
<desc>Speed 4.8 km/h Distance 2.38 km</desc>
<time>2010-02-28T10:42:10.54</time>
<name>1589</name>
</trkpt>
<trkpt lat="48.932253" lon="8.683023">
<ele>394.0</ele>
<speed>4.9</speed>
<course>74.5</course>
<desc>Speed 4.9 km/h Distance 2.38 km</desc>
<time>2010-02-28T10:42:11.54</time>
<name>1590</name>
</trkpt>
<trkpt lat="48.932257" lon="8.683042">
<ele>394.0</ele>
<speed>4.8</speed>
<course>67.5</course>
<desc>Speed 4.8 km/h Distance 2.38 km</desc>
<time>2010-02-28T10:42:12.54</time>
<name>1591</name>
</trkpt>
<trkpt lat="48.932262" lon="8.683060">
<ele>394.0</ele>
<speed>4.5</speed>
<course>74.5</course>
<desc>Speed 4.5 km/h Distance 2.38 km</desc>
<time>2010-02-28T10:42:13.54</time>
<name>1592</name>
</trkpt>
<trkpt lat="48.932265" lon="8.683078">
<ele>394.0</ele>
<speed>4.3</speed>
<course>52.7</course>
<desc>Speed 4.3 km/h Distance 2.38 km</desc>
<time>2010-02-28T10:42:14.54</time>
<name>1593</name>
</trkpt>
<trkpt lat="48.932272" lon="8.683092">
<ele>394.0</ele>
<speed>4.2</speed>
<course>74.5</course>
<desc>Speed 4.2 km/h Distance 2.38 km</desc>
<time>2010-02-28T10:42:15.54</time>
<name>1594</name>
</trkpt>
<trkpt lat="48.932275" lon="8.683110">
<ele>394.0</ele>
<speed>4.5</speed>
<course>56.0</course>
<desc>Speed 4.5 km/h Distance 2.39 km</desc>
<time>2010-02-28T10:42:16.54</time>
<name>1595</name>
</trkpt>
<trkpt lat="48.932282" lon="8.683125">
<ele>393.5</ele>
<speed>4.4</speed>
<course>52.7</course>
<desc>Speed 4.4 km/h Distance 2.39 km</desc>
<time>2010-02-28T10:42:17.54</time>
<name>1596</name>
</trkpt>
<trkpt lat="48.932288" lon="8.683138">
<ele>393.5</ele>
<speed>4.4</speed>
<course>73.0</course>
<desc>Speed 4.4 km/h Distance 2.39 km</desc>
<time>2010-02-28T10:42:18.54</time>
<name>1597</name>
</trkpt>
<trkpt lat="48.932292" lon="8.683155">
<ele>393.0</ele>
<speed>4.4</speed>
<course>55.9</course>
<desc>Speed 4.4 km/h Distance 2.39 km</desc>
<time>2010-02-28T10:42:19.54</time>
<name>1598</name>
</trkpt>
<trkpt lat="48.932298" lon="8.683170">
<ele>393.0</ele>
<speed>4.6</speed>
<course>61.0</course>
<desc>Speed 4.6 km/h Distance 2.39 km</desc>
<time>2010-02-28T10:42:20.54</time>
<name>1599</name>
</trkpt>
<trkpt lat="48.932305" lon="8.683188">
<ele>393.0</ele>
<speed>5.1</speed>
<course>65.4</course>
<desc>Speed 5.1 km/h Distance 2.39 km</desc>
<time>2010-02-28T10:42:21.54</time>
<name>1600</name>
</trkpt>
<trkpt lat="48.932310" lon="8.683205">
<ele>393.0</ele>
<speed>4.9</speed>
<course>58.7</course>
<desc>Speed 4.9 km/h Distance 2.39 km</desc>
<time>2010-02-28T10:42:22.54</time>
<name>1601</name>
</trkpt>
<trkpt lat="48.932317" lon="8.683222">
<ele>393.0</ele>
<speed>5.0</speed>
<course>69.2</course>
<desc>Speed 5.0 km/h Distance 2.40 km</desc>
<time>2010-02-28T10:42:23.54</time>
<name>1602</name>
</trkpt>
<trkpt lat="48.932322" lon="8.683242">
<ele>392.5</ele>
<speed>5.1</speed>
<course>61.0</course>
<desc>Speed 5.1 km/h Distance 2.40 km</desc>
<time>2010-02-28T10:42:24.54</time>
<name>1603</name>
</trkpt>
<trkpt lat="48.932328" lon="8.683260">
<ele>392.5</ele>
<speed>5.3</speed>
<course>69.2</course>
<desc>Speed 5.3 km/h Distance 2.40 km</desc>
<time>2010-02-28T10:42:25.54</time>
<name>1604</name>
</trkpt>
<trkpt lat="48.932333" lon="8.683280">
<ele>393.0</ele>
<speed>5.5</speed>
<course>65.4</course>
<desc>Speed 5.5 km/h Distance 2.40 km</desc>
<time>2010-02-28T10:42:26.54</time>
<name>1605</name>
</trkpt>
<trkpt lat="48.932338" lon="8.683297">
<ele>393.0</ele>
<speed>4.9</speed>
<course>67.4</course>
<desc>Speed 4.9 km/h Distance 2.40 km</desc>
<time>2010-02-28T10:42:27.54</time>
<name>1606</name>
</trkpt>
<trkpt lat="48.932343" lon="8.683315">
<ele>393.0</ele>
<speed>5.0</speed>
<course>58.6</course>
<desc>Speed 5.0 km/h Distance 2.40 km</desc>
<time>2010-02-28T10:42:28.54</time>
<name>1607</name>
</trkpt>
<trkpt lat="48.932350" lon="8.683332">
<ele>393.5</ele>
<speed>4.8</speed>
<course>63.1</course>
<desc>Speed 4.8 km/h Distance 2.40 km</desc>
<time>2010-02-28T10:42:29.54</time>
<name>1608</name>
</trkpt>
<trkpt lat="48.932355" lon="8.683347">
<ele>393.5</ele>
<speed>4.5</speed>
<course>61.0</course>
<desc>Speed 4.5 km/h Distance 2.41 km</desc>
<time>2010-02-28T10:42:30.54</time>
<name>1609</name>
</trkpt>
<trkpt lat="48.932362" lon="8.683365">
<ele>394.0</ele>
<speed>4.8</speed>
<course>61.0</course>
<desc>Speed 4.8 km/h Distance 2.41 km</desc>
<time>2010-02-28T10:42:31.54</time>
<name>1610</name>
</trkpt>
<trkpt lat="48.932368" lon="8.683383">
<ele>394.5</ele>
<speed>4.7</speed>
<course>67.4</course>
<desc>Speed 4.7 km/h Distance 2.41 km</desc>
<time>2010-02-28T10:42:32.54</time>
<name>1611</name>
</trkpt>
<trkpt lat="48.932373" lon="8.683402">
<ele>394.5</ele>
<speed>4.6</speed>
<course>58.7</course>
<desc>Speed 4.6 km/h Distance 2.41 km</desc>
<time>2010-02-28T10:42:33.54</time>
<name>1612</name>
</trkpt>
<trkpt lat="48.932380" lon="8.683418">
<ele>395.0</ele>
<speed>4.4</speed>
<course>67.5</course>
<desc>Speed 4.4 km/h Distance 2.41 km</desc>
<time>2010-02-28T10:42:34.54</time>
<name>1613</name>
</trkpt>
<trkpt lat="48.932385" lon="8.683437">
<ele>395.5</ele>
<speed>4.8</speed>
<course>81.3</course>
<desc>Speed 4.8 km/h Distance 2.41 km</desc>
<time>2010-02-28T10:42:35.54</time>
<name>1614</name>
</trkpt>
<trkpt lat="48.932387" lon="8.683453">
<ele>395.0</ele>
<speed>4.0</speed>
<course>74.6</course>
<desc>Speed 4.0 km/h Distance 2.41 km</desc>
<time>2010-02-28T10:42:36.54</time>
<name>1615</name>
</trkpt>
<trkpt lat="48.932390" lon="8.683472">
<ele>395.5</ele>
<speed>4.8</speed>
<course>65.5</course>
<desc>Speed 4.8 km/h Distance 2.42 km</desc>
<time>2010-02-28T10:42:37.54</time>
<name>1616</name>
</trkpt>
<trkpt lat="48.932395" lon="8.683488">
<ele>396.0</ele>
<speed>4.5</speed>
<course>75.8</course>
<desc>Speed 4.5 km/h Distance 2.42 km</desc>
<time>2010-02-28T10:42:38.54</time>
<name>1617</name>
</trkpt>
<trkpt lat="48.932398" lon="8.683508">
<ele>396.0</ele>
<speed>4.8</speed>
<course>73.1</course>
<desc>Speed 4.8 km/h Distance 2.42 km</desc>
<time>2010-02-28T10:42:39.54</time>
<name>1618</name>
</trkpt>
<trkpt lat="48.932402" lon="8.683525">
<ele>396.0</ele>
<speed>4.5</speed>
<course>65.4</course>
<desc>Speed 4.5 km/h Distance 2.42 km</desc>
<time>2010-02-28T10:42:40.54</time>
<name>1619</name>
</trkpt>
<trkpt lat="48.932407" lon="8.683542">
<ele>396.0</ele>
<speed>4.5</speed>
<course>63.1</course>
<desc>Speed 4.5 km/h Distance 2.42 km</desc>
<time>2010-02-28T10:42:41.54</time>
<name>1620</name>
</trkpt>
<trkpt lat="48.932413" lon="8.683562">
<ele>396.5</ele>
<speed>4.8</speed>
<course>58.7</course>
<desc>Speed 4.8 km/h Distance 2.42 km</desc>
<time>2010-02-28T10:42:42.54</time>
<name>1621</name>
</trkpt>
<trkpt lat="48.932420" lon="8.683578">
<ele>397.0</ele>
<speed>4.7</speed>
<course>67.5</course>
<desc>Speed 4.7 km/h Distance 2.42 km</desc>
<time>2010-02-28T10:42:43.54</time>
<name>1622</name>
</trkpt>
<trkpt lat="48.932425" lon="8.683597">
<ele>397.0</ele>
<speed>4.8</speed>
<course>65.5</course>
<desc>Speed 4.8 km/h Distance 2.43 km</desc>
<time>2010-02-28T10:42:44.54</time>
<name>1623</name>
</trkpt>
<trkpt lat="48.932430" lon="8.683613">
<ele>397.0</ele>
<speed>4.7</speed>
<course>61.0</course>
<desc>Speed 4.7 km/h Distance 2.43 km</desc>
<time>2010-02-28T10:42:45.54</time>
<name>1624</name>
</trkpt>
<trkpt lat="48.932437" lon="8.683632">
<ele>397.0</ele>
<speed>4.9</speed>
<course>67.5</course>
<desc>Speed 4.9 km/h Distance 2.43 km</desc>
<time>2010-02-28T10:42:46.54</time>
<name>1625</name>
</trkpt>
<trkpt lat="48.932442" lon="8.683650">
<ele>397.0</ele>
<speed>4.8</speed>
<course>67.4</course>
<desc>Speed 4.8 km/h Distance 2.43 km</desc>
<time>2010-02-28T10:42:47.54</time>
<name>1626</name>
</trkpt>
<trkpt lat="48.932447" lon="8.683668">
<ele>397.0</ele>
<speed>5.0</speed>
<course>75.8</course>
<desc>Speed 5.0 km/h Distance 2.43 km</desc>
<time>2010-02-28T10:42:48.54</time>
<name>1627</name>
</trkpt>
<trkpt lat="48.932450" lon="8.683688">
<ele>397.0</ele>
<speed>5.4</speed>
<course>67.5</course>
<desc>Speed 5.4 km/h Distance 2.43 km</desc>
<time>2010-02-28T10:42:49.54</time>
<name>1628</name>
</trkpt>
<trkpt lat="48.932455" lon="8.683707">
<ele>397.0</ele>
<speed>5.1</speed>
<course>70.6</course>
<desc>Speed 5.1 km/h Distance 2.43 km</desc>
<time>2010-02-28T10:42:50.54</time>
<name>1629</name>
</trkpt>
<trkpt lat="48.932460" lon="8.683728">
<ele>397.5</ele>
<speed>5.7</speed>
<course>61.0</course>
<desc>Speed 5.7 km/h Distance 2.44 km</desc>
<time>2010-02-28T10:42:51.54</time>
<name>1630</name>
</trkpt>
<trkpt lat="48.932467" lon="8.683747">
<ele>397.5</ele>
<speed>5.3</speed>
<course>67.4</course>
<desc>Speed 5.3 km/h Distance 2.44 km</desc>
<time>2010-02-28T10:42:52.54</time>
<name>1631</name>
</trkpt>
<trkpt lat="48.932472" lon="8.683765">
<ele>397.5</ele>
<speed>5.1</speed>
<course>64.9</course>
<desc>Speed 5.1 km/h Distance 2.44 km</desc>
<time>2010-02-28T10:42:53.54</time>
<name>1632</name>
</trkpt>
<trkpt lat="48.932478" lon="8.683787">
<ele>397.5</ele>
<speed>5.4</speed>
<course>61.0</course>
<desc>Speed 5.4 km/h Distance 2.44 km</desc>
<time>2010-02-28T10:42:54.54</time>
<name>1633</name>
</trkpt>
<trkpt lat="48.932485" lon="8.683805">
<ele>397.5</ele>
<speed>5.3</speed>
<course>58.6</course>
<desc>Speed 5.3 km/h Distance 2.44 km</desc>
<time>2010-02-28T10:42:55.54</time>
<name>1634</name>
</trkpt>
<trkpt lat="48.932492" lon="8.683822">
<ele>397.5</ele>
<speed>4.6</speed>
<course>67.4</course>
<desc>Speed 4.6 km/h Distance 2.44 km</desc>
<time>2010-02-28T10:42:56.54</time>
<name>1635</name>
</trkpt>
<trkpt lat="48.932497" lon="8.683840">
<ele>398.0</ele>
<speed>4.7</speed>
<course>63.1</course>
<desc>Speed 4.7 km/h Distance 2.44 km</desc>
<time>2010-02-28T10:42:57.54</time>
<name>1636</name>
</trkpt>
<trkpt lat="48.932503" lon="8.683860">
<ele>398.5</ele>
<speed>5.2</speed>
<course>58.7</course>
<desc>Speed 5.2 km/h Distance 2.45 km</desc>
<time>2010-02-28T10:42:58.54</time>
<name>1637</name>
</trkpt>
<trkpt lat="48.932510" lon="8.683877">
<ele>398.0</ele>
<speed>4.7</speed>
<course>63.1</course>
<desc>Speed 4.7 km/h Distance 2.45 km</desc>
<time>2010-02-28T10:42:59.54</time>
<name>1638</name>
</trkpt>
<trkpt lat="48.932517" lon="8.683897">
<ele>398.5</ele>
<speed>5.3</speed>
<course>69.2</course>
<desc>Speed 5.3 km/h Distance 2.45 km</desc>
<time>2010-02-28T10:43:00.54</time>
<name>1639</name>
</trkpt>
<trkpt lat="48.932522" lon="8.683917">
<ele>398.5</ele>
<speed>5.7</speed>
<course>75.8</course>
<desc>Speed 5.7 km/h Distance 2.45 km</desc>
<time>2010-02-28T10:43:01.54</time>
<name>1640</name>
</trkpt>
<trkpt lat="48.932525" lon="8.683937">
<ele>398.5</ele>
<speed>5.3</speed>
<course>63.1</course>
<desc>Speed 5.3 km/h Distance 2.45 km</desc>
<time>2010-02-28T10:43:02.54</time>
<name>1641</name>
</trkpt>
<trkpt lat="48.932532" lon="8.683957">
<ele>398.5</ele>
<speed>5.1</speed>
<course>61.0</course>
<desc>Speed 5.1 km/h Distance 2.45 km</desc>
<time>2010-02-28T10:43:03.54</time>
<name>1642</name>
</trkpt>
<trkpt lat="48.932538" lon="8.683975">
<ele>398.5</ele>
<speed>5.5</speed>
<course>63.1</course>
<desc>Speed 5.5 km/h Distance 2.46 km</desc>
<time>2010-02-28T10:43:04.54</time>
<name>1643</name>
</trkpt>
<trkpt lat="48.932545" lon="8.683995">
<ele>398.5</ele>
<speed>5.5</speed>
<course>59.6</course>
<desc>Speed 5.5 km/h Distance 2.46 km</desc>
<time>2010-02-28T10:43:05.54</time>
<name>1644</name>
</trkpt>
<trkpt lat="48.932553" lon="8.684017">
<ele>399.0</ele>
<speed>5.5</speed>
<course>67.4</course>
<desc>Speed 5.5 km/h Distance 2.46 km</desc>
<time>2010-02-28T10:43:06.54</time>
<name>1645</name>
</trkpt>
<trkpt lat="48.932558" lon="8.684035">
<ele>399.0</ele>
<speed>5.4</speed>
<course>57.6</course>
<desc>Speed 5.4 km/h Distance 2.46 km</desc>
<time>2010-02-28T10:43:07.54</time>
<name>1646</name>
</trkpt>
<trkpt lat="48.932567" lon="8.684055">
<ele>399.0</ele>
<speed>5.4</speed>
<course>63.2</course>
<desc>Speed 5.4 km/h Distance 2.46 km</desc>
<time>2010-02-28T10:43:08.54</time>
<name>1647</name>
</trkpt>
<trkpt lat="48.932573" lon="8.684075">
<ele>399.5</ele>
<speed>5.3</speed>
<course>61.1</course>
<desc>Speed 5.3 km/h Distance 2.46 km</desc>
<time>2010-02-28T10:43:09.54</time>
<name>1648</name>
</trkpt>
<trkpt lat="48.932580" lon="8.684093">
<ele>399.5</ele>
<speed>5.2</speed>
<course>64.9</course>
<desc>Speed 5.2 km/h Distance 2.47 km</desc>
<time>2010-02-28T10:43:10.54</time>
<name>1649</name>
</trkpt>
<trkpt lat="48.932587" lon="8.684115">
<ele>399.5</ele>
<speed>5.4</speed>
<course>63.1</course>
<desc>Speed 5.4 km/h Distance 2.47 km</desc>
<time>2010-02-28T10:43:11.54</time>
<name>1650</name>
</trkpt>
<trkpt lat="48.932593" lon="8.684135">
<ele>400.0</ele>
<speed>5.3</speed>
<course>61.0</course>
<desc>Speed 5.3 km/h Distance 2.47 km</desc>
<time>2010-02-28T10:43:12.54</time>
<name>1651</name>
</trkpt>
<trkpt lat="48.932600" lon="8.684153">
<ele>400.0</ele>
<speed>5.3</speed>
<course>57.6</course>
<desc>Speed 5.3 km/h Distance 2.47 km</desc>
<time>2010-02-28T10:43:13.54</time>
<name>1652</name>
</trkpt>
<trkpt lat="48.932608" lon="8.684173">
<ele>400.0</ele>
<speed>5.3</speed>
<course>57.7</course>
<desc>Speed 5.3 km/h Distance 2.47 km</desc>
<time>2010-02-28T10:43:14.54</time>
<name>1653</name>
</trkpt>
<trkpt lat="48.932617" lon="8.684193">
<ele>400.0</ele>
<speed>5.4</speed>
<course>59.6</course>
<desc>Speed 5.4 km/h Distance 2.47 km</desc>
<time>2010-02-28T10:43:15.54</time>
<name>1654</name>
</trkpt>
<trkpt lat="48.932625" lon="8.684215">
<ele>400.5</ele>
<speed>5.5</speed>
<course>61.0</course>
<desc>Speed 5.5 km/h Distance 2.48 km</desc>
<time>2010-02-28T10:43:16.54</time>
<name>1655</name>
</trkpt>
<trkpt lat="48.932632" lon="8.684233">
<ele>400.5</ele>
<speed>5.4</speed>
<course>64.9</course>
<desc>Speed 5.4 km/h Distance 2.48 km</desc>
<time>2010-02-28T10:43:17.54</time>
<name>1656</name>
</trkpt>
<trkpt lat="48.932638" lon="8.684255">
<ele>400.5</ele>
<speed>5.5</speed>
<course>61.0</course>
<desc>Speed 5.5 km/h Distance 2.48 km</desc>
<time>2010-02-28T10:43:18.54</time>
<name>1657</name>
</trkpt>
<trkpt lat="48.932645" lon="8.684273">
<ele>400.5</ele>
<speed>5.6</speed>
<course>63.1</course>
<desc>Speed 5.6 km/h Distance 2.48 km</desc>
<time>2010-02-28T10:43:19.54</time>
<name>1658</name>
</trkpt>
<trkpt lat="48.932652" lon="8.684293">
<ele>400.5</ele>
<speed>5.6</speed>
<course>57.6</course>
<desc>Speed 5.6 km/h Distance 2.48 km</desc>
<time>2010-02-28T10:43:20.54</time>
<name>1659</name>
</trkpt>
<trkpt lat="48.932660" lon="8.684313">
<ele>400.5</ele>
<speed>5.5</speed>
<course>63.1</course>
<desc>Speed 5.5 km/h Distance 2.48 km</desc>
<time>2010-02-28T10:43:21.54</time>
<name>1660</name>
</trkpt>
<trkpt lat="48.932667" lon="8.684333">
<ele>400.5</ele>
<speed>5.6</speed>
<course>55.4</course>
<desc>Speed 5.6 km/h Distance 2.49 km</desc>
<time>2010-02-28T10:43:22.54</time>
<name>1661</name>
</trkpt>
<trkpt lat="48.932675" lon="8.684352">
<ele>401.0</ele>
<speed>5.5</speed>
<course>61.0</course>
<desc>Speed 5.5 km/h Distance 2.49 km</desc>
<time>2010-02-28T10:43:23.54</time>
<name>1662</name>
</trkpt>
<trkpt lat="48.932682" lon="8.684370">
<ele>401.0</ele>
<speed>5.4</speed>
<course>55.3</course>
<desc>Speed 5.4 km/h Distance 2.49 km</desc>
<time>2010-02-28T10:43:24.54</time>
<name>1663</name>
</trkpt>
<trkpt lat="48.932690" lon="8.684388">
<ele>401.0</ele>
<speed>5.4</speed>
<course>61.0</course>
<desc>Speed 5.4 km/h Distance 2.49 km</desc>
<time>2010-02-28T10:43:25.54</time>
<name>1664</name>
</trkpt>
<trkpt lat="48.932697" lon="8.684407">
<ele>401.0</ele>
<speed>5.5</speed>
<course>61.0</course>
<desc>Speed 5.5 km/h Distance 2.49 km</desc>
<time>2010-02-28T10:43:26.54</time>
<name>1665</name>
</trkpt>
<trkpt lat="48.932703" lon="8.684425">
<ele>401.0</ele>
<speed>5.5</speed>
<course>63.1</course>
<desc>Speed 5.5 km/h Distance 2.49 km</desc>
<time>2010-02-28T10:43:27.54</time>
<name>1666</name>
</trkpt>
<trkpt lat="48.932710" lon="8.684445">
<ele>401.0</ele>
<speed>5.5</speed>
<course>61.0</course>
<desc>Speed 5.5 km/h Distance 2.50 km</desc>
<time>2010-02-28T10:43:28.54</time>
<name>1667</name>
</trkpt>
<trkpt lat="48.932717" lon="8.684463">
<ele>401.0</ele>
<speed>5.5</speed>
<course>61.0</course>
<desc>Speed 5.5 km/h Distance 2.50 km</desc>
<time>2010-02-28T10:43:29.54</time>
<name>1668</name>
</trkpt>
<trkpt lat="48.932723" lon="8.684482">
<ele>401.0</ele>
<speed>5.4</speed>
<course>52.7</course>
<desc>Speed 5.4 km/h Distance 2.50 km</desc>
<time>2010-02-28T10:43:30.54</time>
<name>1669</name>
</trkpt>
<trkpt lat="48.932732" lon="8.684498">
<ele>401.5</ele>
<speed>5.4</speed>
<course>57.6</course>
<desc>Speed 5.4 km/h Distance 2.50 km</desc>
<time>2010-02-28T10:43:31.54</time>
<name>1670</name>
</trkpt>
<trkpt lat="48.932740" lon="8.684518">
<ele>401.5</ele>
<speed>5.6</speed>
<course>63.2</course>
<desc>Speed 5.6 km/h Distance 2.50 km</desc>
<time>2010-02-28T10:43:32.54</time>
<name>1671</name>
</trkpt>
<trkpt lat="48.932747" lon="8.684538">
<ele>401.5</ele>
<speed>5.7</speed>
<course>63.1</course>
<desc>Speed 5.7 km/h Distance 2.50 km</desc>
<time>2010-02-28T10:43:33.54</time>
<name>1672</name>
</trkpt>
<trkpt lat="48.932753" lon="8.684558">
<ele>401.5</ele>
<speed>5.8</speed>
<course>63.1</course>
<desc>Speed 5.8 km/h Distance 2.50 km</desc>
<time>2010-02-28T10:43:34.54</time>
<name>1673</name>
</trkpt>
<trkpt lat="48.932760" lon="8.684578">
<ele>401.5</ele>
<speed>5.6</speed>
<course>55.3</course>
<desc>Speed 5.6 km/h Distance 2.51 km</desc>
<time>2010-02-28T10:43:35.54</time>
<name>1674</name>
</trkpt>
<trkpt lat="48.932768" lon="8.684597">
<ele>401.0</ele>
<speed>5.6</speed>
<course>63.1</course>
<desc>Speed 5.6 km/h Distance 2.51 km</desc>
<time>2010-02-28T10:43:36.54</time>
<name>1675</name>
</trkpt>
<trkpt lat="48.932775" lon="8.684617">
<ele>401.0</ele>
<speed>5.7</speed>
<course>57.6</course>
<desc>Speed 5.7 km/h Distance 2.51 km</desc>
<time>2010-02-28T10:43:37.54</time>
<name>1676</name>
</trkpt>
<trkpt lat="48.932783" lon="8.684637">
<ele>401.0</ele>
<speed>5.7</speed>
<course>55.3</course>
<desc>Speed 5.7 km/h Distance 2.51 km</desc>
<time>2010-02-28T10:43:38.54</time>
<name>1677</name>
</trkpt>
<trkpt lat="48.932792" lon="8.684655">
<ele>401.0</ele>
<speed>5.7</speed>
<course>57.6</course>
<desc>Speed 5.7 km/h Distance 2.51 km</desc>
<time>2010-02-28T10:43:39.54</time>
<name>1678</name>
</trkpt>
<trkpt lat="48.932800" lon="8.684675">
<ele>401.5</ele>
<speed>5.7</speed>
<course>61.0</course>
<desc>Speed 5.7 km/h Distance 2.51 km</desc>
<time>2010-02-28T10:43:40.54</time>
<name>1679</name>
</trkpt>
<trkpt lat="48.932807" lon="8.684693">
<ele>401.5</ele>
<speed>5.6</speed>
<course>63.1</course>
<desc>Speed 5.6 km/h Distance 2.52 km</desc>
<time>2010-02-28T10:43:41.54</time>
<name>1680</name>
</trkpt>
<trkpt lat="48.932813" lon="8.684713">
<ele>401.5</ele>
<speed>5.5</speed>
<course>61.0</course>
<desc>Speed 5.5 km/h Distance 2.52 km</desc>
<time>2010-02-28T10:43:42.54</time>
<name>1681</name>
</trkpt>
<trkpt lat="48.932820" lon="8.684732">
<ele>401.5</ele>
<speed>5.5</speed>
<course>57.6</course>
<desc>Speed 5.5 km/h Distance 2.52 km</desc>
<time>2010-02-28T10:43:43.54</time>
<name>1682</name>
</trkpt>
<trkpt lat="48.932828" lon="8.684752">
<ele>401.5</ele>
<speed>5.7</speed>
<course>63.1</course>
<desc>Speed 5.7 km/h Distance 2.52 km</desc>
<time>2010-02-28T10:43:44.54</time>
<name>1683</name>
</trkpt>
<trkpt lat="48.932835" lon="8.684772">
<ele>401.5</ele>
<speed>5.8</speed>
<course>61.0</course>
<desc>Speed 5.8 km/h Distance 2.52 km</desc>
<time>2010-02-28T10:43:45.54</time>
<name>1684</name>
</trkpt>
<trkpt lat="48.932842" lon="8.684790">
<ele>401.5</ele>
<speed>5.5</speed>
<course>63.2</course>
<desc>Speed 5.5 km/h Distance 2.52 km</desc>
<time>2010-02-28T10:43:46.54</time>
<name>1685</name>
</trkpt>
<trkpt lat="48.932848" lon="8.684810">
<ele>401.5</ele>
<speed>5.8</speed>
<course>63.1</course>
<desc>Speed 5.8 km/h Distance 2.53 km</desc>
<time>2010-02-28T10:43:47.54</time>
<name>1686</name>
</trkpt>
<trkpt lat="48.932855" lon="8.684830">
<ele>401.5</ele>
<speed>5.6</speed>
<course>61.1</course>
<desc>Speed 5.6 km/h Distance 2.53 km</desc>
<time>2010-02-28T10:43:48.54</time>
<name>1687</name>
</trkpt>
<trkpt lat="48.932862" lon="8.684848">
<ele>401.5</ele>
<speed>5.7</speed>
<course>63.1</course>
<desc>Speed 5.7 km/h Distance 2.53 km</desc>
<time>2010-02-28T10:43:49.54</time>
<name>1688</name>
</trkpt>
<trkpt lat="48.932868" lon="8.684868">
<ele>401.0</ele>
<speed>5.7</speed>
<course>61.0</course>
<desc>Speed 5.7 km/h Distance 2.53 km</desc>
<time>2010-02-28T10:43:50.54</time>
<name>1689</name>
</trkpt>
<trkpt lat="48.932875" lon="8.684887">
<ele>401.0</ele>
<speed>5.7</speed>
<course>63.1</course>
<desc>Speed 5.7 km/h Distance 2.53 km</desc>
<time>2010-02-28T10:43:51.54</time>
<name>1690</name>
</trkpt>
<trkpt lat="48.932882" lon="8.684907">
<ele>401.0</ele>
<speed>5.6</speed>
<course>69.2</course>
<desc>Speed 5.6 km/h Distance 2.53 km</desc>
<time>2010-02-28T10:43:52.54</time>
<name>1691</name>
</trkpt>
<trkpt lat="48.932887" lon="8.684927">
<ele>400.5</ele>
<speed>5.7</speed>
<course>64.9</course>
<desc>Speed 5.7 km/h Distance 2.54 km</desc>
<time>2010-02-28T10:43:53.54</time>
<name>1692</name>
</trkpt>
<trkpt lat="48.932893" lon="8.684948">
<ele>400.5</ele>
<speed>5.8</speed>
<course>63.1</course>
<desc>Speed 5.8 km/h Distance 2.54 km</desc>
<time>2010-02-28T10:43:54.54</time>
<name>1693</name>
</trkpt>
<trkpt lat="48.932900" lon="8.684968">
<ele>400.5</ele>
<speed>5.8</speed>
<course>61.0</course>
<desc>Speed 5.8 km/h Distance 2.54 km</desc>
<time>2010-02-28T10:43:55.54</time>
<name>1694</name>
</trkpt>
<trkpt lat="48.932907" lon="8.684987">
<ele>400.5</ele>
<speed>5.8</speed>
<course>70.6</course>
<desc>Speed 5.8 km/h Distance 2.54 km</desc>
<time>2010-02-28T10:43:56.54</time>
<name>1695</name>
</trkpt>
<trkpt lat="48.932912" lon="8.685008">
<ele>400.5</ele>
<speed>5.9</speed>
<course>63.1</course>
<desc>Speed 5.9 km/h Distance 2.54 km</desc>
<time>2010-02-28T10:43:57.54</time>
<name>1696</name>
</trkpt>
<trkpt lat="48.932918" lon="8.685028">
<ele>400.0</ele>
<speed>5.8</speed>
<course>63.1</course>
<desc>Speed 5.8 km/h Distance 2.54 km</desc>
<time>2010-02-28T10:43:58.54</time>
<name>1697</name>
</trkpt>
<trkpt lat="48.932925" lon="8.685048">
<ele>400.0</ele>
<speed>5.8</speed>
<course>63.1</course>
<desc>Speed 5.8 km/h Distance 2.55 km</desc>
<time>2010-02-28T10:43:59.54</time>
<name>1698</name>
</trkpt>
<trkpt lat="48.932932" lon="8.685068">
<ele>400.0</ele>
<speed>5.9</speed>
<course>57.6</course>
<desc>Speed 5.9 km/h Distance 2.55 km</desc>
<time>2010-02-28T10:44:00.54</time>
<name>1699</name>
</trkpt>
<trkpt lat="48.932940" lon="8.685088">
<ele>400.0</ele>
<speed>5.9</speed>
<course>63.1</course>
<desc>Speed 5.9 km/h Distance 2.55 km</desc>
<time>2010-02-28T10:44:01.54</time>
<name>1700</name>
</trkpt>
<trkpt lat="48.932947" lon="8.685108">
<ele>400.0</ele>
<speed>6.0</speed>
<course>63.1</course>
<desc>Speed 6.0 km/h Distance 2.55 km</desc>
<time>2010-02-28T10:44:02.54</time>
<name>1701</name>
</trkpt>
<trkpt lat="48.932953" lon="8.685128">
<ele>400.0</ele>
<speed>5.9</speed>
<course>63.1</course>
<desc>Speed 5.9 km/h Distance 2.55 km</desc>
<time>2010-02-28T10:44:03.54</time>
<name>1702</name>
</trkpt>
<trkpt lat="48.932960" lon="8.685148">
<ele>400.0</ele>
<speed>6.0</speed>
<course>59.7</course>
<desc>Speed 6.0 km/h Distance 2.55 km</desc>
<time>2010-02-28T10:44:04.54</time>
<name>1703</name>
</trkpt>
<trkpt lat="48.932968" lon="8.685170">
<ele>400.0</ele>
<speed>6.1</speed>
<course>63.1</course>
<desc>Speed 6.1 km/h Distance 2.56 km</desc>
<time>2010-02-28T10:44:05.54</time>
<name>1704</name>
</trkpt>
<trkpt lat="48.932975" lon="8.685190">
<ele>400.0</ele>
<speed>6.0</speed>
<course>63.1</course>
<desc>Speed 6.0 km/h Distance 2.56 km</desc>
<time>2010-02-28T10:44:06.54</time>
<name>1705</name>
</trkpt>
<trkpt lat="48.932982" lon="8.685210">
<ele>400.0</ele>
<speed>5.9</speed>
<course>63.1</course>
<desc>Speed 5.9 km/h Distance 2.56 km</desc>
<time>2010-02-28T10:44:07.54</time>
<name>1706</name>
</trkpt>
<trkpt lat="48.932988" lon="8.685230">
<ele>400.0</ele>
<speed>6.0</speed>
<course>63.1</course>
<desc>Speed 6.0 km/h Distance 2.56 km</desc>
<time>2010-02-28T10:44:08.54</time>
<name>1707</name>
</trkpt>
<trkpt lat="48.932995" lon="8.685250">
<ele>400.0</ele>
<speed>5.9</speed>
<course>57.6</course>
<desc>Speed 5.9 km/h Distance 2.56 km</desc>
<time>2010-02-28T10:44:09.54</time>
<name>1708</name>
</trkpt>
<trkpt lat="48.933003" lon="8.685270">
<ele>400.0</ele>
<speed>5.8</speed>
<course>63.1</course>
<desc>Speed 5.8 km/h Distance 2.56 km</desc>
<time>2010-02-28T10:44:10.54</time>
<name>1709</name>
</trkpt>
<trkpt lat="48.933010" lon="8.685290">
<ele>400.0</ele>
<speed>6.0</speed>
<course>63.1</course>
<desc>Speed 6.0 km/h Distance 2.57 km</desc>
<time>2010-02-28T10:44:11.54</time>
<name>1710</name>
</trkpt>
<trkpt lat="48.933017" lon="8.685310">
<ele>400.0</ele>
<speed>5.9</speed>
<course>55.3</course>
<desc>Speed 5.9 km/h Distance 2.57 km</desc>
<time>2010-02-28T10:44:12.54</time>
<name>1711</name>
</trkpt>
<trkpt lat="48.933025" lon="8.685328">
<ele>400.0</ele>
<speed>5.8</speed>
<course>57.6</course>
<desc>Speed 5.8 km/h Distance 2.57 km</desc>
<time>2010-02-28T10:44:13.54</time>
<name>1712</name>
</trkpt>
<trkpt lat="48.933033" lon="8.685348">
<ele>400.5</ele>
<speed>5.9</speed>
<course>57.6</course>
<desc>Speed 5.9 km/h Distance 2.57 km</desc>
<time>2010-02-28T10:44:14.54</time>
<name>1713</name>
</trkpt>
<trkpt lat="48.933042" lon="8.685368">
<ele>400.5</ele>
<speed>6.0</speed>
<course>63.1</course>
<desc>Speed 6.0 km/h Distance 2.57 km</desc>
<time>2010-02-28T10:44:15.54</time>
<name>1714</name>
</trkpt>
<trkpt lat="48.933048" lon="8.685388">
<ele>400.5</ele>
<speed>6.0</speed>
<course>57.6</course>
<desc>Speed 6.0 km/h Distance 2.57 km</desc>
<time>2010-02-28T10:44:16.54</time>
<name>1715</name>
</trkpt>
<trkpt lat="48.933057" lon="8.685408">
<ele>400.0</ele>
<speed>5.8</speed>
<course>63.1</course>
<desc>Speed 5.8 km/h Distance 2.58 km</desc>
<time>2010-02-28T10:44:17.54</time>
<name>1716</name>
</trkpt>
<trkpt lat="48.933063" lon="8.685428">
<ele>400.0</ele>
<speed>6.0</speed>
<course>57.6</course>
<desc>Speed 6.0 km/h Distance 2.58 km</desc>
<time>2010-02-28T10:44:18.54</time>
<name>1717</name>
</trkpt>
<trkpt lat="48.933072" lon="8.685448">
<ele>400.0</ele>
<speed>6.0</speed>
<course>57.6</course>
<desc>Speed 6.0 km/h Distance 2.58 km</desc>
<time>2010-02-28T10:44:19.54</time>
<name>1718</name>
</trkpt>
<trkpt lat="48.933080" lon="8.685468">
<ele>400.0</ele>
<speed>6.0</speed>
<course>64.9</course>
<desc>Speed 6.0 km/h Distance 2.58 km</desc>
<time>2010-02-28T10:44:20.54</time>
<name>1719</name>
</trkpt>
<trkpt lat="48.933087" lon="8.685490">
<ele>400.0</ele>
<speed>5.9</speed>
<course>63.1</course>
<desc>Speed 5.9 km/h Distance 2.58 km</desc>
<time>2010-02-28T10:44:21.54</time>
<name>1720</name>
</trkpt>
<trkpt lat="48.933093" lon="8.685510">
<ele>400.0</ele>
<speed>5.8</speed>
<course>61.0</course>
<desc>Speed 5.8 km/h Distance 2.58 km</desc>
<time>2010-02-28T10:44:22.54</time>
<name>1721</name>
</trkpt>
<trkpt lat="48.933100" lon="8.685528">
<ele>400.0</ele>
<speed>5.8</speed>
<course>57.6</course>
<desc>Speed 5.8 km/h Distance 2.59 km</desc>
<time>2010-02-28T10:44:23.54</time>
<name>1722</name>
</trkpt>
<trkpt lat="48.933108" lon="8.685548">
<ele>400.0</ele>
<speed>5.9</speed>
<course>63.1</course>
<desc>Speed 5.9 km/h Distance 2.59 km</desc>
<time>2010-02-28T10:44:24.54</time>
<name>1723</name>
</trkpt>
<trkpt lat="48.933115" lon="8.685568">
<ele>400.0</ele>
<speed>5.8</speed>
<course>57.6</course>
<desc>Speed 5.8 km/h Distance 2.59 km</desc>
<time>2010-02-28T10:44:25.54</time>
<name>1724</name>
</trkpt>
<trkpt lat="48.933123" lon="8.685588">
<ele>400.0</ele>
<speed>6.0</speed>
<course>64.9</course>
<desc>Speed 6.0 km/h Distance 2.59 km</desc>
<time>2010-02-28T10:44:26.54</time>
<name>1725</name>
</trkpt>
<trkpt lat="48.933130" lon="8.685610">
<ele>400.0</ele>
<speed>6.0</speed>
<course>57.6</course>
<desc>Speed 6.0 km/h Distance 2.59 km</desc>
<time>2010-02-28T10:44:27.54</time>
<name>1726</name>
</trkpt>
<trkpt lat="48.933138" lon="8.685630">
<ele>400.0</ele>
<speed>6.0</speed>
<course>63.1</course>
<desc>Speed 6.0 km/h Distance 2.59 km</desc>
<time>2010-02-28T10:44:28.54</time>
<name>1727</name>
</trkpt>
<trkpt lat="48.933145" lon="8.685650">
<ele>400.0</ele>
<speed>6.0</speed>
<course>57.6</course>
<desc>Speed 6.0 km/h Distance 2.60 km</desc>
<time>2010-02-28T10:44:29.54</time>
<name>1728</name>
</trkpt>
<trkpt lat="48.933153" lon="8.685670">
<ele>400.0</ele>
<speed>6.0</speed>
<course>63.1</course>
<desc>Speed 6.0 km/h Distance 2.60 km</desc>
<time>2010-02-28T10:44:30.54</time>
<name>1729</name>
</trkpt>
<trkpt lat="48.933160" lon="8.685690">
<ele>400.0</ele>
<speed>5.9</speed>
<course>64.9</course>
<desc>Speed 5.9 km/h Distance 2.60 km</desc>
<time>2010-02-28T10:44:31.54</time>
<name>1730</name>
</trkpt>
<trkpt lat="48.933167" lon="8.685712">
<ele>399.5</ele>
<speed>5.9</speed>
<course>63.1</course>
<desc>Speed 5.9 km/h Distance 2.60 km</desc>
<time>2010-02-28T10:44:32.54</time>
<name>1731</name>
</trkpt>
<trkpt lat="48.933173" lon="8.685732">
<ele>399.5</ele>
<speed>6.1</speed>
<course>57.6</course>
<desc>Speed 6.1 km/h Distance 2.60 km</desc>
<time>2010-02-28T10:44:33.54</time>
<name>1732</name>
</trkpt>
<trkpt lat="48.933182" lon="8.685752">
<ele>399.5</ele>
<speed>6.0</speed>
<course>63.1</course>
<desc>Speed 6.0 km/h Distance 2.60 km</desc>
<time>2010-02-28T10:44:34.54</time>
<name>1733</name>
</trkpt>
<trkpt lat="48.933188" lon="8.685772">
<ele>399.5</ele>
<speed>5.9</speed>
<course>55.3</course>
<desc>Speed 5.9 km/h Distance 2.61 km</desc>
<time>2010-02-28T10:44:35.54</time>
<name>1734</name>
</trkpt>
<trkpt lat="48.933197" lon="8.685790">
<ele>399.5</ele>
<speed>5.8</speed>
<course>57.6</course>
<desc>Speed 5.8 km/h Distance 2.61 km</desc>
<time>2010-02-28T10:44:36.54</time>
<name>1735</name>
</trkpt>
<trkpt lat="48.933205" lon="8.685810">
<ele>399.5</ele>
<speed>5.9</speed>
<course>57.6</course>
<desc>Speed 5.9 km/h Distance 2.61 km</desc>
<time>2010-02-28T10:44:37.54</time>
<name>1736</name>
</trkpt>
<trkpt lat="48.933213" lon="8.685830">
<ele>399.5</ele>
<speed>5.9</speed>
<course>55.3</course>
<desc>Speed 5.9 km/h Distance 2.61 km</desc>
<time>2010-02-28T10:44:38.54</time>
<name>1737</name>
</trkpt>
<trkpt lat="48.933222" lon="8.685848">
<ele>399.5</ele>
<speed>5.9</speed>
<course>57.6</course>
<desc>Speed 5.9 km/h Distance 2.61 km</desc>
<time>2010-02-28T10:44:39.54</time>
<name>1738</name>
</trkpt>
<trkpt lat="48.933230" lon="8.685868">
<ele>400.0</ele>
<speed>6.0</speed>
<course>64.9</course>
<desc>Speed 6.0 km/h Distance 2.61 km</desc>
<time>2010-02-28T10:44:40.54</time>
<name>1739</name>
</trkpt>
<trkpt lat="48.933237" lon="8.685890">
<ele>399.5</ele>
<speed>6.1</speed>
<course>63.1</course>
<desc>Speed 6.1 km/h Distance 2.62 km</desc>
<time>2010-02-28T10:44:41.54</time>
<name>1740</name>
</trkpt>
<trkpt lat="48.933243" lon="8.685910">
<ele>399.5</ele>
<speed>6.1</speed>
<course>64.9</course>
<desc>Speed 6.1 km/h Distance 2.62 km</desc>
<time>2010-02-28T10:44:42.54</time>
<name>1741</name>
</trkpt>
<trkpt lat="48.933250" lon="8.685932">
<ele>399.5</ele>
<speed>6.1</speed>
<course>64.9</course>
<desc>Speed 6.1 km/h Distance 2.62 km</desc>
<time>2010-02-28T10:44:43.54</time>
<name>1742</name>
</trkpt>
<trkpt lat="48.933257" lon="8.685953">
<ele>399.5</ele>
<speed>5.9</speed>
<course>63.1</course>
<desc>Speed 5.9 km/h Distance 2.62 km</desc>
<time>2010-02-28T10:44:44.54</time>
<name>1743</name>
</trkpt>
<trkpt lat="48.933263" lon="8.685973">
<ele>399.5</ele>
<speed>5.9</speed>
<course>63.1</course>
<desc>Speed 5.9 km/h Distance 2.62 km</desc>
<time>2010-02-28T10:44:45.54</time>
<name>1744</name>
</trkpt>
<trkpt lat="48.933270" lon="8.685993">
<ele>399.5</ele>
<speed>5.8</speed>
<course>63.1</course>
<desc>Speed 5.8 km/h Distance 2.62 km</desc>
<time>2010-02-28T10:44:46.54</time>
<name>1745</name>
</trkpt>
<trkpt lat="48.933277" lon="8.686013">
<ele>399.5</ele>
<speed>5.9</speed>
<course>57.6</course>
<desc>Speed 5.9 km/h Distance 2.63 km</desc>
<time>2010-02-28T10:44:47.54</time>
<name>1746</name>
</trkpt>
<trkpt lat="48.933285" lon="8.686033">
<ele>399.5</ele>
<speed>6.1</speed>
<course>63.1</course>
<desc>Speed 6.1 km/h Distance 2.63 km</desc>
<time>2010-02-28T10:44:48.54</time>
<name>1747</name>
</trkpt>
<trkpt lat="48.933292" lon="8.686053">
<ele>399.5</ele>
<speed>6.2</speed>
<course>64.9</course>
<desc>Speed 6.2 km/h Distance 2.63 km</desc>
<time>2010-02-28T10:44:49.54</time>
<name>1748</name>
</trkpt>
<trkpt lat="48.933298" lon="8.686075">
<ele>399.5</ele>
<speed>6.1</speed>
<course>64.9</course>
<desc>Speed 6.1 km/h Distance 2.63 km</desc>
<time>2010-02-28T10:44:50.54</time>
<name>1749</name>
</trkpt>
<trkpt lat="48.933305" lon="8.686097">
<ele>399.0</ele>
<speed>6.1</speed>
<course>64.9</course>
<desc>Speed 6.1 km/h Distance 2.63 km</desc>
<time>2010-02-28T10:44:51.54</time>
<name>1750</name>
</trkpt>
<trkpt lat="48.933312" lon="8.686118">
<ele>399.0</ele>
<speed>6.0</speed>
<course>63.1</course>
<desc>Speed 6.0 km/h Distance 2.63 km</desc>
<time>2010-02-28T10:44:52.54</time>
<name>1751</name>
</trkpt>
<trkpt lat="48.933318" lon="8.686138">
<ele>399.0</ele>
<speed>5.9</speed>
<course>57.7</course>
<desc>Speed 5.9 km/h Distance 2.64 km</desc>
<time>2010-02-28T10:44:53.54</time>
<name>1752</name>
</trkpt>
<trkpt lat="48.933327" lon="8.686158">
<ele>399.0</ele>
<speed>5.9</speed>
<course>57.6</course>
<desc>Speed 5.9 km/h Distance 2.64 km</desc>
<time>2010-02-28T10:44:54.54</time>
<name>1753</name>
</trkpt>
<trkpt lat="48.933335" lon="8.686178">
<ele>399.0</ele>
<speed>6.1</speed>
<course>63.1</course>
<desc>Speed 6.1 km/h Distance 2.64 km</desc>
<time>2010-02-28T10:44:55.54</time>
<name>1754</name>
</trkpt>
<trkpt lat="48.933342" lon="8.686198">
<ele>399.0</ele>
<speed>5.9</speed>
<course>57.6</course>
<desc>Speed 5.9 km/h Distance 2.64 km</desc>
<time>2010-02-28T10:44:56.54</time>
<name>1755</name>
</trkpt>
<trkpt lat="48.933350" lon="8.686218">
<ele>399.0</ele>
<speed>5.9</speed>
<course>55.3</course>
<desc>Speed 5.9 km/h Distance 2.64 km</desc>
<time>2010-02-28T10:44:57.54</time>
<name>1756</name>
</trkpt>
<trkpt lat="48.933358" lon="8.686237">
<ele>399.0</ele>
<speed>5.8</speed>
<course>63.1</course>
<desc>Speed 5.8 km/h Distance 2.64 km</desc>
<time>2010-02-28T10:44:58.54</time>
<name>1757</name>
</trkpt>
<trkpt lat="48.933365" lon="8.686257">
<ele>399.0</ele>
<speed>6.0</speed>
<course>64.9</course>
<desc>Speed 6.0 km/h Distance 2.65 km</desc>
<time>2010-02-28T10:44:59.54</time>
<name>1758</name>
</trkpt>
<trkpt lat="48.933372" lon="8.686278">
<ele>399.0</ele>
<speed>6.0</speed>
<course>63.1</course>
<desc>Speed 6.0 km/h Distance 2.65 km</desc>
<time>2010-02-28T10:45:00.54</time>
<name>1759</name>
</trkpt>
<trkpt lat="48.933378" lon="8.686298">
<ele>399.0</ele>
<speed>5.9</speed>
<course>63.1</course>
<desc>Speed 5.9 km/h Distance 2.65 km</desc>
<time>2010-02-28T10:45:01.54</time>
<name>1760</name>
</trkpt>
<trkpt lat="48.933385" lon="8.686318">
<ele>399.0</ele>
<speed>5.8</speed>
<course>63.1</course>
<desc>Speed 5.8 km/h Distance 2.65 km</desc>
<time>2010-02-28T10:45:02.54</time>
<name>1761</name>
</trkpt>
<trkpt lat="48.933392" lon="8.686338">
<ele>399.0</ele>
<speed>5.9</speed>
<course>55.3</course>
<desc>Speed 5.9 km/h Distance 2.65 km</desc>
<time>2010-02-28T10:45:03.54</time>
<name>1762</name>
</trkpt>
<trkpt lat="48.933400" lon="8.686357">
<ele>399.0</ele>
<speed>6.0</speed>
<course>59.6</course>
<desc>Speed 6.0 km/h Distance 2.65 km</desc>
<time>2010-02-28T10:45:04.54</time>
<name>1763</name>
</trkpt>
<trkpt lat="48.933408" lon="8.686378">
<ele>399.0</ele>
<speed>6.0</speed>
<course>63.1</course>
<desc>Speed 6.0 km/h Distance 2.66 km</desc>
<time>2010-02-28T10:45:05.54</time>
<name>1764</name>
</trkpt>
<trkpt lat="48.933415" lon="8.686398">
<ele>399.0</ele>
<speed>6.0</speed>
<course>63.1</course>
<desc>Speed 6.0 km/h Distance 2.66 km</desc>
<time>2010-02-28T10:45:06.54</time>
<name>1765</name>
</trkpt>
<trkpt lat="48.933422" lon="8.686418">
<ele>399.0</ele>
<speed>6.0</speed>
<course>57.6</course>
<desc>Speed 6.0 km/h Distance 2.66 km</desc>
<time>2010-02-28T10:45:07.54</time>
<name>1766</name>
</trkpt>
<trkpt lat="48.933430" lon="8.686438">
<ele>399.0</ele>
<speed>5.9</speed>
<course>63.1</course>
<desc>Speed 5.9 km/h Distance 2.66 km</desc>
<time>2010-02-28T10:45:08.54</time>
<name>1767</name>
</trkpt>
<trkpt lat="48.933437" lon="8.686458">
<ele>399.0</ele>
<speed>5.9</speed>
<course>63.2</course>
<desc>Speed 5.9 km/h Distance 2.66 km</desc>
<time>2010-02-28T10:45:09.54</time>
<name>1768</name>
</trkpt>
<trkpt lat="48.933443" lon="8.686478">
<ele>399.0</ele>
<speed>5.8</speed>
<course>63.1</course>
<desc>Speed 5.8 km/h Distance 2.66 km</desc>
<time>2010-02-28T10:45:10.54</time>
<name>1769</name>
</trkpt>
<trkpt lat="48.933450" lon="8.686498">
<ele>399.0</ele>
<speed>5.9</speed>
<course>55.3</course>
<desc>Speed 5.9 km/h Distance 2.67 km</desc>
<time>2010-02-28T10:45:11.54</time>
<name>1770</name>
</trkpt>
<trkpt lat="48.933458" lon="8.686517">
<ele>399.0</ele>
<speed>5.8</speed>
<course>55.3</course>
<desc>Speed 5.8 km/h Distance 2.67 km</desc>
<time>2010-02-28T10:45:12.54</time>
<name>1771</name>
</trkpt>
<trkpt lat="48.933467" lon="8.686535">
<ele>399.0</ele>
<speed>5.8</speed>
<course>57.6</course>
<desc>Speed 5.8 km/h Distance 2.67 km</desc>
<time>2010-02-28T10:45:13.54</time>
<name>1772</name>
</trkpt>
<trkpt lat="48.933475" lon="8.686555">
<ele>399.0</ele>
<speed>5.9</speed>
<course>63.1</course>
<desc>Speed 5.9 km/h Distance 2.67 km</desc>
<time>2010-02-28T10:45:14.54</time>
<name>1773</name>
</trkpt>
<trkpt lat="48.933482" lon="8.686575">
<ele>399.0</ele>
<speed>5.7</speed>
<course>61.0</course>
<desc>Speed 5.7 km/h Distance 2.67 km</desc>
<time>2010-02-28T10:45:15.54</time>
<name>1774</name>
</trkpt>
<trkpt lat="48.933488" lon="8.686593">
<ele>399.0</ele>
<speed>5.6</speed>
<course>61.0</course>
<desc>Speed 5.6 km/h Distance 2.67 km</desc>
<time>2010-02-28T10:45:16.54</time>
<name>1775</name>
</trkpt>
<trkpt lat="48.933495" lon="8.686612">
<ele>399.0</ele>
<speed>5.5</speed>
<course>55.3</course>
<desc>Speed 5.5 km/h Distance 2.68 km</desc>
<time>2010-02-28T10:45:17.54</time>
<name>1776</name>
</trkpt>
<trkpt lat="48.933503" lon="8.686630">
<ele>399.0</ele>
<speed>5.5</speed>
<course>67.5</course>
<desc>Speed 5.5 km/h Distance 2.68 km</desc>
<time>2010-02-28T10:45:18.54</time>
<name>1777</name>
</trkpt>
<trkpt lat="48.933508" lon="8.686648">
<ele>399.0</ele>
<speed>5.4</speed>
<course>58.7</course>
<desc>Speed 5.4 km/h Distance 2.68 km</desc>
<time>2010-02-28T10:45:19.54</time>
<name>1778</name>
</trkpt>
<trkpt lat="48.933515" lon="8.686665">
<ele>399.0</ele>
<speed>5.4</speed>
<course>61.0</course>
<desc>Speed 5.4 km/h Distance 2.68 km</desc>
<time>2010-02-28T10:45:20.54</time>
<name>1779</name>
</trkpt>
<trkpt lat="48.933522" lon="8.686683">
<ele>398.5</ele>
<speed>5.5</speed>
<course>63.1</course>
<desc>Speed 5.5 km/h Distance 2.68 km</desc>
<time>2010-02-28T10:45:21.54</time>
<name>1780</name>
</trkpt>
<trkpt lat="48.933528" lon="8.686703">
<ele>398.5</ele>
<speed>5.8</speed>
<course>69.2</course>
<desc>Speed 5.8 km/h Distance 2.68 km</desc>
<time>2010-02-28T10:45:22.54</time>
<name>1781</name>
</trkpt>
<trkpt lat="48.933533" lon="8.686723">
<ele>398.5</ele>
<speed>5.7</speed>
<course>70.7</course>
<desc>Speed 5.7 km/h Distance 2.69 km</desc>
<time>2010-02-28T10:45:23.54</time>
<name>1782</name>
</trkpt>
<trkpt lat="48.933538" lon="8.686745">
<ele>398.5</ele>
<speed>5.7</speed>
<course>82.8</course>
<desc>Speed 5.7 km/h Distance 2.69 km</desc>
<time>2010-02-28T10:45:24.54</time>
<name>1783</name>
</trkpt>
<trkpt lat="48.933540" lon="8.686765">
<ele>398.5</ele>
<speed>5.5</speed>
<course>82.1</course>
<desc>Speed 5.5 km/h Distance 2.69 km</desc>
<time>2010-02-28T10:45:25.54</time>
<name>1784</name>
</trkpt>
<trkpt lat="48.933542" lon="8.686783">
<ele>398.5</ele>
<speed>4.5</speed>
<course>99.6</course>
<desc>Speed 4.5 km/h Distance 2.69 km</desc>
<time>2010-02-28T10:45:26.54</time>
<name>1785</name>
</trkpt>
<trkpt lat="48.933540" lon="8.686798">
<ele>398.5</ele>
<speed>4.1</speed>
<course>110.9</course>
<desc>Speed 4.1 km/h Distance 2.69 km</desc>
<time>2010-02-28T10:45:27.54</time>
<name>1786</name>
</trkpt>
<trkpt lat="48.933537" lon="8.686812">
<ele>398.5</ele>
<speed>4.0</speed>
<course>106.7</course>
<desc>Speed 4.0 km/h Distance 2.69 km</desc>
<time>2010-02-28T10:45:28.54</time>
<name>1787</name>
</trkpt>
<trkpt lat="48.933535" lon="8.686820">
<ele>398.0</ele>
<speed>2.3</speed>
<course>106.7</course>
<desc>Speed 2.3 km/h Distance 2.69 km</desc>
<time>2010-02-28T10:45:29.54</time>
<name>1788</name>
</trkpt>
<trkpt lat="48.933535" lon="8.686820">
<ele>398.0</ele>
<speed>0.6</speed>
<course>12.6</course>
<desc>Speed 0.6 km/h Distance 2.69 km</desc>
<time>2010-02-28T10:45:30.54</time>
<name>1789</name>
</trkpt>
<trkpt lat="48.933537" lon="8.686820">
<ele>398.0</ele>
<speed>0.3</speed>
<course>12.6</course>
<desc>Speed 0.3 km/h Distance 2.69 km</desc>
<time>2010-02-28T10:45:31.54</time>
<name>1790</name>
</trkpt>
<trkpt lat="48.933537" lon="8.686820">
<ele>398.0</ele>
<speed>0.2</speed>
<course>347.4</course>
<desc>Speed 0.2 km/h Distance 2.69 km</desc>
<time>2010-02-28T10:45:32.54</time>
<name>1791</name>
</trkpt>
<trkpt lat="48.933542" lon="8.686818">
<ele>398.5</ele>
<speed>1.8</speed>
<course>46.5</course>
<desc>Speed 1.8 km/h Distance 2.69 km</desc>
<time>2010-02-28T10:45:33.54</time>
<name>1792</name>
</trkpt>
<trkpt lat="48.933550" lon="8.686832">
<ele>398.5</ele>
<speed>4.8</speed>
<course>47.6</course>
<desc>Speed 4.8 km/h Distance 2.69 km</desc>
<time>2010-02-28T10:45:34.54</time>
<name>1793</name>
</trkpt>
<trkpt lat="48.933560" lon="8.686848">
<ele>398.5</ele>
<speed>5.3</speed>
<course>46.4</course>
<desc>Speed 5.3 km/h Distance 2.70 km</desc>
<time>2010-02-28T10:45:35.54</time>
<name>1794</name>
</trkpt>
<trkpt lat="48.933568" lon="8.686862">
<ele>398.0</ele>
<speed>5.4</speed>
<course>47.6</course>
<desc>Speed 5.4 km/h Distance 2.70 km</desc>
<time>2010-02-28T10:45:36.54</time>
<name>1795</name>
</trkpt>
<trkpt lat="48.933578" lon="8.686878">
<ele>398.0</ele>
<speed>5.4</speed>
<course>41.2</course>
<desc>Speed 5.4 km/h Distance 2.70 km</desc>
<time>2010-02-28T10:45:37.54</time>
<name>1796</name>
</trkpt>
<trkpt lat="48.933588" lon="8.686892">
<ele>398.0</ele>
<speed>5.3</speed>
<course>40.2</course>
<desc>Speed 5.3 km/h Distance 2.70 km</desc>
<time>2010-02-28T10:45:38.54</time>
<name>1797</name>
</trkpt>
<trkpt lat="48.933600" lon="8.686907">
<ele>397.5</ele>
<speed>5.6</speed>
<course>61.0</course>
<desc>Speed 5.6 km/h Distance 2.70 km</desc>
<time>2010-02-28T10:45:39.54</time>
<name>1798</name>
</trkpt>
<trkpt lat="48.933607" lon="8.686925">
<ele>397.5</ele>
<speed>5.7</speed>
<course>64.9</course>
<desc>Speed 5.7 km/h Distance 2.70 km</desc>
<time>2010-02-28T10:45:40.54</time>
<name>1799</name>
</trkpt>
<trkpt lat="48.933613" lon="8.686947">
<ele>397.5</ele>
<speed>6.2</speed>
<course>64.9</course>
<desc>Speed 6.2 km/h Distance 2.71 km</desc>
<time>2010-02-28T10:45:41.54</time>
<name>1800</name>
</trkpt>
<trkpt lat="48.933620" lon="8.686968">
<ele>397.0</ele>
<speed>5.8</speed>
<course>69.2</course>
<desc>Speed 5.8 km/h Distance 2.71 km</desc>
<time>2010-02-28T10:45:42.54</time>
<name>1801</name>
</trkpt>
<trkpt lat="48.933625" lon="8.686988">
<ele>397.0</ele>
<speed>5.5</speed>
<course>75.8</course>
<desc>Speed 5.5 km/h Distance 2.71 km</desc>
<time>2010-02-28T10:45:43.54</time>
<name>1802</name>
</trkpt>
<trkpt lat="48.933628" lon="8.687008">
<ele>397.0</ele>
<speed>5.8</speed>
<course>90.0</course>
<desc>Speed 5.8 km/h Distance 2.71 km</desc>
<time>2010-02-28T10:45:44.54</time>
<name>1803</name>
</trkpt>
<trkpt lat="48.933628" lon="8.687025">
<ele>397.0</ele>
<speed>4.8</speed>
<course>90.0</course>
<desc>Speed 4.8 km/h Distance 2.71 km</desc>
<time>2010-02-28T10:45:45.54</time>
<name>1804</name>
</trkpt>
<trkpt lat="48.933628" lon="8.687035">
<ele>397.0</ele>
<speed>2.7</speed>
<course>171.9</course>
<desc>Speed 2.7 km/h Distance 2.71 km</desc>
<time>2010-02-28T10:45:46.54</time>
<name>1805</name>
</trkpt>
<trkpt lat="48.933623" lon="8.687035">
<ele>397.0</ele>
<speed>1.8</speed>
<course>322.8</course>
<desc>Speed 1.8 km/h Distance 2.71 km</desc>
<time>2010-02-28T10:45:47.54</time>
<name>1806</name>
</trkpt>
<trkpt lat="48.933625" lon="8.687033">
<ele>397.0</ele>
<speed>0.3</speed>
<course>12.6</course>
<desc>Speed 0.3 km/h Distance 2.71 km</desc>
<time>2010-02-28T10:45:48.54</time>
<name>1807</name>
</trkpt>
<trkpt lat="48.933627" lon="8.687033">
<ele>397.0</ele>
<speed>0.3</speed>
<course>33.7</course>
<desc>Speed 0.3 km/h Distance 2.71 km</desc>
<time>2010-02-28T10:45:49.54</time>
<name>1808</name>
</trkpt>
<trkpt lat="48.933630" lon="8.687037">
<ele>397.0</ele>
<speed>1.5</speed>
<course>60.2</course>
<desc>Speed 1.5 km/h Distance 2.71 km</desc>
<time>2010-02-28T10:45:50.54</time>
<name>1809</name>
</trkpt>
<trkpt lat="48.933635" lon="8.687050">
<ele>397.5</ele>
<speed>4.2</speed>
<course>49.1</course>
<desc>Speed 4.2 km/h Distance 2.72 km</desc>
<time>2010-02-28T10:45:51.54</time>
<name>1810</name>
</trkpt>
<trkpt lat="48.933642" lon="8.687062">
<ele>397.0</ele>
<speed>4.3</speed>
<course>58.6</course>
<desc>Speed 4.3 km/h Distance 2.72 km</desc>
<time>2010-02-28T10:45:52.54</time>
<name>1811</name>
</trkpt>
<trkpt lat="48.933648" lon="8.687078">
<ele>397.0</ele>
<speed>5.1</speed>
<course>56.0</course>
<desc>Speed 5.1 km/h Distance 2.72 km</desc>
<time>2010-02-28T10:45:53.54</time>
<name>1812</name>
</trkpt>
<trkpt lat="48.933655" lon="8.687093">
<ele>397.0</ele>
<speed>5.0</speed>
<course>61.0</course>
<desc>Speed 5.0 km/h Distance 2.72 km</desc>
<time>2010-02-28T10:45:54.54</time>
<name>1813</name>
</trkpt>
<trkpt lat="48.933662" lon="8.687112">
<ele>397.0</ele>
<speed>5.4</speed>
<course>70.7</course>
<desc>Speed 5.4 km/h Distance 2.72 km</desc>
<time>2010-02-28T10:45:55.54</time>
<name>1814</name>
</trkpt>
<trkpt lat="48.933667" lon="8.687133">
<ele>397.0</ele>
<speed>6.0</speed>
<course>55.3</course>
<desc>Speed 6.0 km/h Distance 2.72 km</desc>
<time>2010-02-28T10:45:56.54</time>
<name>1815</name>
</trkpt>
<trkpt lat="48.933675" lon="8.687152">
<ele>396.5</ele>
<speed>5.6</speed>
<course>52.7</course>
<desc>Speed 5.6 km/h Distance 2.72 km</desc>
<time>2010-02-28T10:45:57.54</time>
<name>1816</name>
</trkpt>
<trkpt lat="48.933682" lon="8.687165">
<ele>396.5</ele>
<speed>4.4</speed>
<course>71.3</course>
<desc>Speed 4.4 km/h Distance 2.73 km</desc>
<time>2010-02-28T10:45:58.54</time>
<name>1817</name>
</trkpt>
<trkpt lat="48.933685" lon="8.687180">
<ele>396.5</ele>
<speed>4.2</speed>
<course>58.7</course>
<desc>Speed 4.2 km/h Distance 2.73 km</desc>
<time>2010-02-28T10:45:59.54</time>
<name>1818</name>
</trkpt>
<trkpt lat="48.933692" lon="8.687197">
<ele>396.5</ele>
<speed>4.7</speed>
<course>52.7</course>
<desc>Speed 4.7 km/h Distance 2.73 km</desc>
<time>2010-02-28T10:46:00.54</time>
<name>1819</name>
</trkpt>
<trkpt lat="48.933700" lon="8.687213">
<ele>396.5</ele>
<speed>5.4</speed>
<course>70.6</course>
<desc>Speed 5.4 km/h Distance 2.73 km</desc>
<time>2010-02-28T10:46:01.54</time>
<name>1820</name>
</trkpt>
<trkpt lat="48.933705" lon="8.687235">
<ele>396.5</ele>
<speed>5.9</speed>
<course>57.6</course>
<desc>Speed 5.9 km/h Distance 2.73 km</desc>
<time>2010-02-28T10:46:02.54</time>
<name>1821</name>
</trkpt>
<trkpt lat="48.933713" lon="8.687255">
<ele>396.5</ele>
<speed>5.9</speed>
<course>61.0</course>
<desc>Speed 5.9 km/h Distance 2.73 km</desc>
<time>2010-02-28T10:46:03.54</time>
<name>1822</name>
</trkpt>
<trkpt lat="48.933720" lon="8.687273">
<ele>396.5</ele>
<speed>5.6</speed>
<course>44.6</course>
<desc>Speed 5.6 km/h Distance 2.73 km</desc>
<time>2010-02-28T10:46:04.54</time>
<name>1823</name>
</trkpt>
<trkpt lat="48.933730" lon="8.687288">
<ele>396.5</ele>
<speed>5.5</speed>
<course>47.6</course>
<desc>Speed 5.5 km/h Distance 2.74 km</desc>
<time>2010-02-28T10:46:05.54</time>
<name>1824</name>
</trkpt>
<trkpt lat="48.933740" lon="8.687305">
<ele>396.5</ele>
<speed>5.5</speed>
<course>61.0</course>
<desc>Speed 5.5 km/h Distance 2.74 km</desc>
<time>2010-02-28T10:46:06.54</time>
<name>1825</name>
</trkpt>
<trkpt lat="48.933747" lon="8.687323">
<ele>396.5</ele>
<speed>5.6</speed>
<course>58.7</course>
<desc>Speed 5.6 km/h Distance 2.74 km</desc>
<time>2010-02-28T10:46:07.54</time>
<name>1826</name>
</trkpt>
<trkpt lat="48.933753" lon="8.687340">
<ele>396.5</ele>
<speed>5.2</speed>
<course>63.1</course>
<desc>Speed 5.2 km/h Distance 2.74 km</desc>
<time>2010-02-28T10:46:08.54</time>
<name>1827</name>
</trkpt>
<trkpt lat="48.933758" lon="8.687355">
<ele>396.0</ele>
<speed>4.2</speed>
<course>71.3</course>
<desc>Speed 4.2 km/h Distance 2.74 km</desc>
<time>2010-02-28T10:46:09.54</time>
<name>1828</name>
</trkpt>
<trkpt lat="48.933762" lon="8.687370">
<ele>396.0</ele>
<speed>4.4</speed>
<course>61.0</course>
<desc>Speed 4.4 km/h Distance 2.74 km</desc>
<time>2010-02-28T10:46:10.54</time>
<name>1829</name>
</trkpt>
<trkpt lat="48.933768" lon="8.687388">
<ele>396.0</ele>
<speed>5.1</speed>
<course>60.4</course>
<desc>Speed 5.1 km/h Distance 2.74 km</desc>
<time>2010-02-28T10:46:11.54</time>
<name>1830</name>
</trkpt>
<trkpt lat="48.933773" lon="8.687402">
<ele>396.0</ele>
<speed>4.0</speed>
<course>90.0</course>
<desc>Speed 4.0 km/h Distance 2.75 km</desc>
<time>2010-02-28T10:46:12.54</time>
<name>1831</name>
</trkpt>
<trkpt lat="48.933773" lon="8.687412">
<ele>396.0</ele>
<speed>2.4</speed>
<course>60.3</course>
<desc>Speed 2.4 km/h Distance 2.75 km</desc>
<time>2010-02-28T10:46:13.54</time>
<name>1832</name>
</trkpt>
<trkpt lat="48.933778" lon="8.687425">
<ele>396.0</ele>
<speed>4.0</speed>
<course>61.0</course>
<desc>Speed 4.0 km/h Distance 2.75 km</desc>
<time>2010-02-28T10:46:14.54</time>
<name>1833</name>
</trkpt>
<trkpt lat="48.933785" lon="8.687443">
<ele>396.0</ele>
<speed>5.3</speed>
<course>69.2</course>
<desc>Speed 5.3 km/h Distance 2.75 km</desc>
<time>2010-02-28T10:46:15.54</time>
<name>1834</name>
</trkpt>
<trkpt lat="48.933790" lon="8.687463">
<ele>396.0</ele>
<speed>5.5</speed>
<course>67.4</course>
<desc>Speed 5.5 km/h Distance 2.75 km</desc>
<time>2010-02-28T10:46:16.54</time>
<name>1835</name>
</trkpt>
<trkpt lat="48.933795" lon="8.687482">
<ele>396.0</ele>
<speed>5.3</speed>
<course>74.5</course>
<desc>Speed 5.3 km/h Distance 2.75 km</desc>
<time>2010-02-28T10:46:17.54</time>
<name>1836</name>
</trkpt>
<trkpt lat="48.933798" lon="8.687500">
<ele>396.0</ele>
<speed>4.8</speed>
<course>69.2</course>
<desc>Speed 4.8 km/h Distance 2.75 km</desc>
<time>2010-02-28T10:46:18.54</time>
<name>1837</name>
</trkpt>
<trkpt lat="48.933802" lon="8.687513">
<ele>396.0</ele>
<speed>4.0</speed>
<course>80.4</course>
<desc>Speed 4.0 km/h Distance 2.75 km</desc>
<time>2010-02-28T10:46:19.54</time>
<name>1838</name>
</trkpt>
<trkpt lat="48.933803" lon="8.687528">
<ele>396.0</ele>
<speed>3.9</speed>
<course>322.8</course>
<desc>Speed 3.9 km/h Distance 2.76 km</desc>
<time>2010-02-28T10:46:20.54</time>
<name>1839</name>
</trkpt>
<trkpt lat="48.933805" lon="8.687527">
<ele>396.0</ele>
<speed>0.6</speed>
<course>322.8</course>
<desc>Speed 0.6 km/h Distance 2.76 km</desc>
<time>2010-02-28T10:46:21.54</time>
<name>1840</name>
</trkpt>
<trkpt lat="48.933805" lon="8.687527">
<ele>396.0</ele>
<speed>0.2</speed>
<course>322.8</course>
<desc>Speed 0.2 km/h Distance 2.76 km</desc>
<time>2010-02-28T10:46:22.54</time>
<name>1841</name>
</trkpt>
<trkpt lat="48.933805" lon="8.687527">
<ele>396.0</ele>
<speed>0.3</speed>
<course>322.8</course>
<desc>Speed 0.3 km/h Distance 2.76 km</desc>
<time>2010-02-28T10:46:23.54</time>
<name>1842</name>
</trkpt>
<trkpt lat="48.933805" lon="8.687527">
<ele>396.0</ele>
<speed>0.2</speed>
<course>322.8</course>
<desc>Speed 0.2 km/h Distance 2.76 km</desc>
<time>2010-02-28T10:46:24.54</time>
<name>1843</name>
</trkpt>
<trkpt lat="48.933805" lon="8.687527">
<ele>396.0</ele>
<speed>0.2</speed>
<course>322.8</course>
<desc>Speed 0.2 km/h Distance 2.76 km</desc>
<time>2010-02-28T10:46:25.54</time>
<name>1844</name>
</trkpt>
<trkpt lat="48.933805" lon="8.687527">
<ele>396.0</ele>
<speed>0.2</speed>
<course>322.8</course>
<desc>Speed 0.2 km/h Distance 2.76 km</desc>
<time>2010-02-28T10:46:26.54</time>
<name>1845</name>
</trkpt>
<trkpt lat="48.933805" lon="8.687527">
<ele>396.0</ele>
<speed>0.1</speed>
<course>322.8</course>
<desc>Speed 0.1 km/h Distance 2.76 km</desc>
<time>2010-02-28T10:46:27.54</time>
<name>1846</name>
</trkpt>
<trkpt lat="48.933805" lon="8.687527">
<ele>396.0</ele>
<speed>0.3</speed>
<course>58.6</course>
<desc>Speed 0.3 km/h Distance 2.76 km</desc>
<time>2010-02-28T10:46:28.54</time>
<name>1847</name>
</trkpt>
<trkpt lat="48.933808" lon="8.687535">
<ele>396.0</ele>
<speed>2.4</speed>
<course>60.3</course>
<desc>Speed 2.4 km/h Distance 2.76 km</desc>
<time>2010-02-28T10:46:29.54</time>
<name>1848</name>
</trkpt>
<trkpt lat="48.933813" lon="8.687548">
<ele>396.0</ele>
<speed>4.2</speed>
<course>65.4</course>
<desc>Speed 4.2 km/h Distance 2.76 km</desc>
<time>2010-02-28T10:46:30.54</time>
<name>1849</name>
</trkpt>
<trkpt lat="48.933818" lon="8.687565">
<ele>396.0</ele>
<speed>4.8</speed>
<course>65.4</course>
<desc>Speed 4.8 km/h Distance 2.76 km</desc>
<time>2010-02-28T10:46:31.54</time>
<name>1850</name>
</trkpt>
<trkpt lat="48.933823" lon="8.687582">
<ele>395.5</ele>
<speed>4.8</speed>
<course>65.4</course>
<desc>Speed 4.8 km/h Distance 2.76 km</desc>
<time>2010-02-28T10:46:32.54</time>
<name>1851</name>
</trkpt>
<trkpt lat="48.933828" lon="8.687598">
<ele>396.0</ele>
<speed>4.6</speed>
<course>61.0</course>
<desc>Speed 4.6 km/h Distance 2.76 km</desc>
<time>2010-02-28T10:46:33.54</time>
<name>1852</name>
</trkpt>
<trkpt lat="48.933835" lon="8.687617">
<ele>395.5</ele>
<speed>5.3</speed>
<course>61.0</course>
<desc>Speed 5.3 km/h Distance 2.76 km</desc>
<time>2010-02-28T10:46:34.54</time>
<name>1853</name>
</trkpt>
<trkpt lat="48.933842" lon="8.687635">
<ele>395.5</ele>
<speed>5.4</speed>
<course>61.0</course>
<desc>Speed 5.4 km/h Distance 2.76 km</desc>
<time>2010-02-28T10:46:35.54</time>
<name>1854</name>
</trkpt>
<trkpt lat="48.933848" lon="8.687653">
<ele>395.5</ele>
<speed>5.6</speed>
<course>67.5</course>
<desc>Speed 5.6 km/h Distance 2.77 km</desc>
<time>2010-02-28T10:46:36.54</time>
<name>1855</name>
</trkpt>
<trkpt lat="48.933853" lon="8.687672">
<ele>395.5</ele>
<speed>5.1</speed>
<course>67.5</course>
<desc>Speed 5.1 km/h Distance 2.77 km</desc>
<time>2010-02-28T10:46:37.54</time>
<name>1856</name>
</trkpt>
<trkpt lat="48.933858" lon="8.687690">
<ele>395.5</ele>
<speed>5.3</speed>
<course>61.0</course>
<desc>Speed 5.3 km/h Distance 2.77 km</desc>
<time>2010-02-28T10:46:38.54</time>
<name>1857</name>
</trkpt>
<trkpt lat="48.933865" lon="8.687708">
<ele>395.5</ele>
<speed>5.4</speed>
<course>69.2</course>
<desc>Speed 5.4 km/h Distance 2.77 km</desc>
<time>2010-02-28T10:46:39.54</time>
<name>1858</name>
</trkpt>
<trkpt lat="48.933870" lon="8.687728">
<ele>395.5</ele>
<speed>5.8</speed>
<course>52.7</course>
<desc>Speed 5.8 km/h Distance 2.77 km</desc>
<time>2010-02-28T10:46:40.54</time>
<name>1859</name>
</trkpt>
<trkpt lat="48.933878" lon="8.687745">
<ele>395.5</ele>
<speed>5.6</speed>
<course>57.7</course>
<desc>Speed 5.6 km/h Distance 2.77 km</desc>
<time>2010-02-28T10:46:41.54</time>
<name>1860</name>
</trkpt>
<trkpt lat="48.933887" lon="8.687765">
<ele>395.5</ele>
<speed>6.1</speed>
<course>61.0</course>
<desc>Speed 6.1 km/h Distance 2.78 km</desc>
<time>2010-02-28T10:46:42.54</time>
<name>1861</name>
</trkpt>
<trkpt lat="48.933893" lon="8.687783">
<ele>395.5</ele>
<speed>5.3</speed>
<course>56.0</course>
<desc>Speed 5.3 km/h Distance 2.78 km</desc>
<time>2010-02-28T10:46:43.54</time>
<name>1862</name>
</trkpt>
<trkpt lat="48.933900" lon="8.687798">
<ele>396.0</ele>
<speed>4.4</speed>
<course>52.7</course>
<desc>Speed 4.4 km/h Distance 2.78 km</desc>
<time>2010-02-28T10:46:44.54</time>
<name>1863</name>
</trkpt>
<trkpt lat="48.933907" lon="8.687812">
<ele>396.5</ele>
<speed>4.2</speed>
<course>71.3</course>
<desc>Speed 4.2 km/h Distance 2.78 km</desc>
<time>2010-02-28T10:46:45.54</time>
<name>1864</name>
</trkpt>
<trkpt lat="48.933910" lon="8.687827">
<ele>396.5</ele>
<speed>4.1</speed>
<course>40.9</course>
<desc>Speed 4.1 km/h Distance 2.78 km</desc>
<time>2010-02-28T10:46:46.54</time>
<name>1865</name>
</trkpt>
<trkpt lat="48.933915" lon="8.687833">
<ele>396.5</ele>
<speed>2.3</speed>
<course>73.1</course>
<desc>Speed 2.3 km/h Distance 2.78 km</desc>
<time>2010-02-28T10:46:47.54</time>
<name>1866</name>
</trkpt>
<trkpt lat="48.933917" lon="8.687842">
<ele>396.5</ele>
<speed>2.2</speed>
<course>73.1</course>
<desc>Speed 2.2 km/h Distance 2.78 km</desc>
<time>2010-02-28T10:46:48.54</time>
<name>1867</name>
</trkpt>
<trkpt lat="48.933917" lon="8.687842">
<ele>396.5</ele>
<speed>0.7</speed>
<course>270.0</course>
<desc>Speed 0.7 km/h Distance 2.78 km</desc>
<time>2010-02-28T10:46:49.77</time>
<name>1868</name>
</trkpt>
<trkpt lat="48.933917" lon="8.687840">
<ele>396.5</ele>
<speed>0.1</speed>
<course>270.0</course>
<desc>Speed 0.1 km/h Distance 2.78 km</desc>
<time>2010-02-28T10:46:50.57</time>
<name>1869</name>
</trkpt>
<trkpt lat="48.933917" lon="8.687840">
<ele>396.5</ele>
<speed>0.3</speed>
<course>270.0</course>
<desc>Speed 0.3 km/h Distance 2.78 km</desc>
<time>2010-02-28T10:46:51.57</time>
<name>1870</name>
</trkpt>
<trkpt lat="48.933917" lon="8.687840">
<ele>396.5</ele>
<speed>0.5</speed>
<course>128.1</course>
<desc>Speed 0.5 km/h Distance 2.78 km</desc>
<time>2010-02-28T10:46:52.57</time>
<name>1871</name>
</trkpt>
<trkpt lat="48.933915" lon="8.687843">
<ele>396.5</ele>
<speed>1.0</speed>
<course>146.3</course>
<desc>Speed 1.0 km/h Distance 2.78 km</desc>
<time>2010-02-28T10:46:53.57</time>
<name>1872</name>
</trkpt>
<trkpt lat="48.933912" lon="8.687847">
<ele>396.0</ele>
<speed>0.4</speed>
<course>20.2</course>
<desc>Speed 0.4 km/h Distance 2.78 km</desc>
<time>2010-02-28T10:46:55.12</time>
<name>1873</name>
</trkpt>
<trkpt lat="48.933923" lon="8.687853">
<ele>395.5</ele>
<speed>4.9</speed>
<course>330.8</course>
<desc>Speed 4.9 km/h Distance 2.78 km</desc>
<time>2010-02-28T10:46:56.40</time>
<name>1874</name>
</trkpt>
<trkpt lat="48.933925" lon="8.687852">
<ele>395.5</ele>
<speed>1.0</speed>
<course>202.2</course>
<desc>Speed 1.0 km/h Distance 2.78 km</desc>
<time>2010-02-28T10:46:57.12</time>
<name>1875</name>
</trkpt>
<trkpt lat="48.933920" lon="8.687848">
<ele>395.5</ele>
<speed>0.6</speed>
<course>270.0</course>
<desc>Speed 0.6 km/h Distance 2.79 km</desc>
<time>2010-02-28T10:46:58.12</time>
<name>1876</name>
</trkpt>
<trkpt lat="48.933920" lon="8.687847">
<ele>395.0</ele>
<speed>0.4</speed>
<course>270.0</course>
<desc>Speed 0.4 km/h Distance 2.79 km</desc>
<time>2010-02-28T10:46:59.12</time>
<name>1877</name>
</trkpt>
<trkpt lat="48.933920" lon="8.687847">
<ele>395.0</ele>
<speed>0.3</speed>
<course>167.4</course>
<desc>Speed 0.3 km/h Distance 2.79 km</desc>
<time>2010-02-28T10:47:00.11</time>
<name>1878</name>
</trkpt>
<trkpt lat="48.933917" lon="8.687848">
<ele>395.0</ele>
<speed>0.9</speed>
<course>167.4</course>
<desc>Speed 0.9 km/h Distance 2.79 km</desc>
<time>2010-02-28T10:47:01.12</time>
<name>1879</name>
</trkpt>
<trkpt lat="48.933915" lon="8.687848">
<ele>394.5</ele>
<speed>0.4</speed>
<course>12.6</course>
<desc>Speed 0.4 km/h Distance 2.79 km</desc>
<time>2010-02-28T10:47:02.11</time>
<name>1880</name>
</trkpt>
<trkpt lat="48.933917" lon="8.687848">
<ele>394.5</ele>
<speed>0.6</speed>
<course>12.6</course>
<desc>Speed 0.6 km/h Distance 2.79 km</desc>
<time>2010-02-28T10:47:03.11</time>
<name>1881</name>
</trkpt>
<trkpt lat="48.933917" lon="8.687848">
<ele>394.0</ele>
<speed>0.1</speed>
<course>270.0</course>
<desc>Speed 0.1 km/h Distance 2.79 km</desc>
<time>2010-02-28T10:47:04.11</time>
<name>1882</name>
</trkpt>
<trkpt lat="48.933917" lon="8.687840">
<ele>394.0</ele>
<speed>2.6</speed>
<course>281.5</course>
<desc>Speed 2.6 km/h Distance 2.79 km</desc>
<time>2010-02-28T10:47:05.11</time>
<name>1883</name>
</trkpt>
<trkpt lat="48.933920" lon="8.687815">
<ele>394.5</ele>
<speed>6.9</speed>
<course>308.1</course>
<desc>Speed 6.9 km/h Distance 2.79 km</desc>
<time>2010-02-28T10:47:06.11</time>
<name>1884</name>
</trkpt>
<trkpt lat="48.933922" lon="8.687812">
<ele>394.5</ele>
<speed>1.0</speed>
<course>12.6</course>
<desc>Speed 1.0 km/h Distance 2.79 km</desc>
<time>2010-02-28T10:47:07.14</time>
<name>1885</name>
</trkpt>
<trkpt lat="48.933923" lon="8.687812">
<ele>394.5</ele>
<speed>0.3</speed>
<course>12.6</course>
<desc>Speed 0.3 km/h Distance 2.79 km</desc>
<time>2010-02-28T10:47:08.10</time>
<name>1886</name>
</trkpt>
<trkpt lat="48.933923" lon="8.687812">
<ele>394.5</ele>
<speed>0.1</speed>
<course>90.0</course>
<desc>Speed 0.1 km/h Distance 2.79 km</desc>
<time>2010-02-28T10:47:09.10</time>
<name>1887</name>
</trkpt>
<trkpt lat="48.933923" lon="8.687813">
<ele>394.5</ele>
<speed>0.5</speed>
<course>180.0</course>
<desc>Speed 0.5 km/h Distance 2.79 km</desc>
<time>2010-02-28T10:47:11.10</time>
<name>1888</name>
</trkpt>
<trkpt lat="48.933920" lon="8.687813">
<ele>394.0</ele>
<speed>1.2</speed>
<course>29.2</course>
<desc>Speed 1.2 km/h Distance 2.79 km</desc>
<time>2010-02-28T10:47:12.10</time>
<name>1889</name>
</trkpt>
<trkpt lat="48.933922" lon="8.687815">
<ele>394.0</ele>
<speed>0.8</speed>
<course>150.8</course>
<desc>Speed 0.8 km/h Distance 2.79 km</desc>
<time>2010-02-28T10:47:13.09</time>
<name>1890</name>
</trkpt>
<trkpt lat="48.933920" lon="8.687817">
<ele>394.0</ele>
<speed>0.3</speed>
<course>167.4</course>
<desc>Speed 0.3 km/h Distance 2.79 km</desc>
<time>2010-02-28T10:47:14.09</time>
<name>1891</name>
</trkpt>
<trkpt lat="48.933918" lon="8.687818">
<ele>393.5</ele>
<speed>0.3</speed>
<course>167.4</course>
<desc>Speed 0.3 km/h Distance 2.79 km</desc>
<time>2010-02-28T10:47:17.13</time>
<name>1892</name>
</trkpt>
<trkpt lat="48.933918" lon="8.687818">
<ele>393.5</ele>
<speed>0.1</speed>
<course>0.0</course>
<desc>Speed 0.1 km/h Distance 2.79 km</desc>
<time>2010-02-28T10:47:18.13</time>
<name>1893</name>
</trkpt>
<trkpt lat="48.933920" lon="8.687818">
<ele>393.0</ele>
<speed>0.2</speed>
<course>0.0</course>
<desc>Speed 0.2 km/h Distance 2.79 km</desc>
<time>2010-02-28T10:47:19.15</time>
<name>1894</name>
</trkpt>
<trkpt lat="48.933920" lon="8.687818">
<ele>393.0</ele>
<speed>0.1</speed>
<course>12.6</course>
<desc>Speed 0.1 km/h Distance 2.79 km</desc>
<time>2010-02-28T10:47:20.17</time>
<name>1895</name>
</trkpt>
<trkpt lat="48.933922" lon="8.687818">
<ele>393.5</ele>
<speed>0.1</speed>
<course>322.8</course>
<desc>Speed 0.1 km/h Distance 2.79 km</desc>
<time>2010-02-28T10:47:21.18</time>
<name>1896</name>
</trkpt>
<trkpt lat="48.933923" lon="8.687817">
<ele>393.0</ele>
<speed>0.8</speed>
<course>322.8</course>
<desc>Speed 0.8 km/h Distance 2.79 km</desc>
<time>2010-02-28T10:47:22.18</time>
<name>1897</name>
</trkpt>
<trkpt lat="48.933923" lon="8.687817">
<ele>393.0</ele>
<speed>0.2</speed>
<course>90.0</course>
<desc>Speed 0.2 km/h Distance 2.79 km</desc>
<time>2010-02-28T10:47:23.22</time>
<name>1898</name>
</trkpt>
<trkpt lat="48.933923" lon="8.687820">
<ele>393.0</ele>
<speed>0.5</speed>
<course>39.4</course>
<desc>Speed 0.5 km/h Distance 2.79 km</desc>
<time>2010-02-28T10:47:24.81</time>
<name>1899</name>
</trkpt>
<trkpt lat="48.933930" lon="8.687828">
<ele>393.5</ele>
<speed>2.1</speed>
<course>82.8</course>
<desc>Speed 2.1 km/h Distance 2.79 km</desc>
<time>2010-02-28T10:47:26.29</time>
<name>1900</name>
</trkpt>
<trkpt lat="48.933932" lon="8.687848">
<ele>394.0</ele>
<speed>5.0</speed>
<course>75.6</course>
<desc>Speed 5.0 km/h Distance 2.79 km</desc>
<time>2010-02-28T10:47:27.29</time>
<name>1901</name>
</trkpt>
<trkpt lat="48.933933" lon="8.687858">
<ele>394.0</ele>
<speed>1.9</speed>
<course>150.8</course>
<desc>Speed 1.9 km/h Distance 2.79 km</desc>
<time>2010-02-28T10:47:28.46</time>
<name>1902</name>
</trkpt>
<trkpt lat="48.933932" lon="8.687860">
<ele>394.0</ele>
<speed>0.5</speed>
<course>150.8</course>
<desc>Speed 0.5 km/h Distance 2.79 km</desc>
<time>2010-02-28T10:47:29.37</time>
<name>1903</name>
</trkpt>
<trkpt lat="48.933932" lon="8.687860">
<ele>394.0</ele>
<speed>0.4</speed>
<course>116.6</course>
<desc>Speed 0.4 km/h Distance 2.79 km</desc>
<time>2010-02-28T10:47:30.32</time>
<name>1904</name>
</trkpt>
<trkpt lat="48.933930" lon="8.687865">
<ele>394.0</ele>
<speed>0.0</speed>
<course>90.0</course>
<desc>Speed 0.0 km/h Distance 2.79 km</desc>
<time>2010-02-28T10:47:31.32</time>
<name>1905</name>
</trkpt>
<trkpt lat="48.933930" lon="8.687867">
<ele>394.0</ele>
<speed>0.7</speed>
<course>235.7</course>
<desc>Speed 0.7 km/h Distance 2.79 km</desc>
<time>2010-02-28T10:47:32.47</time>
<name>1906</name>
</trkpt>
<trkpt lat="48.933928" lon="8.687863">
<ele>394.0</ele>
<speed>1.4</speed>
<course>235.7</course>
<desc>Speed 1.4 km/h Distance 2.80 km</desc>
<time>2010-02-28T10:47:33.35</time>
<name>1907</name>
</trkpt>
<trkpt lat="48.933928" lon="8.687863">
<ele>394.0</ele>
<speed>0.0</speed>
<course>150.8</course>
<desc>Speed 0.0 km/h Distance 2.80 km</desc>
<time>2010-02-28T10:47:34.35</time>
<name>1908</name>
</trkpt>
<trkpt lat="48.933927" lon="8.687865">
<ele>394.0</ele>
<speed>1.4</speed>
<course>100.7</course>
<desc>Speed 1.4 km/h Distance 2.80 km</desc>
<time>2010-02-28T10:47:35.57</time>
<name>1909</name>
</trkpt>
<trkpt lat="48.933925" lon="8.687878">
<ele>394.0</ele>
<speed>3.6</speed>
<course>37.2</course>
<desc>Speed 3.6 km/h Distance 2.80 km</desc>
<time>2010-02-28T10:47:36.35</time>
<name>1910</name>
</trkpt>
<trkpt lat="48.933927" lon="8.687880">
<ele>394.5</ele>
<speed>0.9</speed>
<course>228.9</course>
<desc>Speed 0.9 km/h Distance 2.80 km</desc>
<time>2010-02-28T10:47:37.35</time>
<name>1911</name>
</trkpt>
<trkpt lat="48.933920" lon="8.687868">
<ele>394.5</ele>
<speed>4.7</speed>
<course>80.4</course>
<desc>Speed 4.7 km/h Distance 2.80 km</desc>
<time>2010-02-28T10:47:38.35</time>
<name>1912</name>
</trkpt>
<trkpt lat="48.933922" lon="8.687883">
<ele>394.5</ele>
<speed>0.5</speed>
<course>90.0</course>
<desc>Speed 0.5 km/h Distance 2.80 km</desc>
<time>2010-02-28T10:47:40.35</time>
<name>1913</name>
</trkpt>
<trkpt lat="48.933922" lon="8.687887">
<ele>394.5</ele>
<speed>0.4</speed>
<course>172.6</course>
<desc>Speed 0.4 km/h Distance 2.80 km</desc>
<time>2010-02-28T10:47:41.35</time>
<name>1914</name>
</trkpt>
<trkpt lat="48.933915" lon="8.687888">
<ele>394.5</ele>
<speed>1.8</speed>
<course>270.0</course>
<desc>Speed 1.8 km/h Distance 2.80 km</desc>
<time>2010-02-28T10:47:42.35</time>
<name>1915</name>
</trkpt>
<trkpt lat="48.933915" lon="8.687887">
<ele>394.5</ele>
<speed>0.4</speed>
<course>270.0</course>
<desc>Speed 0.4 km/h Distance 2.80 km</desc>
<time>2010-02-28T10:47:43.35</time>
<name>1916</name>
</trkpt>
<trkpt lat="48.933915" lon="8.687885">
<ele>394.5</ele>
<speed>0.8</speed>
<course>192.6</course>
<desc>Speed 0.8 km/h Distance 2.80 km</desc>
<time>2010-02-28T10:47:44.35</time>
<name>1917</name>
</trkpt>
<trkpt lat="48.933913" lon="8.687883">
<ele>394.5</ele>
<speed>0.3</speed>
<course>270.0</course>
<desc>Speed 0.3 km/h Distance 2.80 km</desc>
<time>2010-02-28T10:47:45.35</time>
<name>1918</name>
</trkpt>
<trkpt lat="48.933913" lon="8.687882">
<ele>394.5</ele>
<speed>0.4</speed>
<course>270.0</course>
<desc>Speed 0.4 km/h Distance 2.80 km</desc>
<time>2010-02-28T10:47:46.35</time>
<name>1919</name>
</trkpt>
<trkpt lat="48.933913" lon="8.687880">
<ele>394.5</ele>
<speed>0.6</speed>
<course>347.4</course>
<desc>Speed 0.6 km/h Distance 2.80 km</desc>
<time>2010-02-28T10:47:47.35</time>
<name>1920</name>
</trkpt>
<trkpt lat="48.933915" lon="8.687878">
<ele>394.5</ele>
<speed>0.2</speed>
<course>297.4</course>
<desc>Speed 0.2 km/h Distance 2.80 km</desc>
<time>2010-02-28T10:47:48.35</time>
<name>1921</name>
</trkpt>
<trkpt lat="48.933917" lon="8.687873">
<ele>394.0</ele>
<speed>0.8</speed>
<course>341.6</course>
<desc>Speed 0.8 km/h Distance 2.80 km</desc>
<time>2010-02-28T10:47:49.35</time>
<name>1922</name>
</trkpt>
<trkpt lat="48.933930" lon="8.687867">
<ele>395.0</ele>
<speed>5.4</speed>
<course>261.4</course>
<desc>Speed 5.4 km/h Distance 2.80 km</desc>
<time>2010-02-28T10:47:50.35</time>
<name>1923</name>
</trkpt>
<trkpt lat="48.933928" lon="8.687850">
<ele>393.5</ele>
<speed>3.0</speed>
<course>90.0</course>
<desc>Speed 3.0 km/h Distance 2.80 km</desc>
<time>2010-02-28T10:47:51.35</time>
<name>1924</name>
</trkpt>
<trkpt lat="48.933928" lon="8.687853">
<ele>393.5</ele>
<speed>1.0</speed>
<course>64.1</course>
<desc>Speed 1.0 km/h Distance 2.80 km</desc>
<time>2010-02-28T10:47:52.35</time>
<name>1925</name>
</trkpt>
<trkpt lat="48.933930" lon="8.687858">
<ele>393.0</ele>
<speed>1.4</speed>
<course>11.2</course>
<desc>Speed 1.4 km/h Distance 2.80 km</desc>
<time>2010-02-28T10:47:53.35</time>
<name>1926</name>
</trkpt>
<trkpt lat="48.933942" lon="8.687862">
<ele>393.0</ele>
<speed>4.6</speed>
<course>38.4</course>
<desc>Speed 4.6 km/h Distance 2.81 km</desc>
<time>2010-02-28T10:47:54.35</time>
<name>1927</name>
</trkpt>
<trkpt lat="48.933950" lon="8.687872">
<ele>393.0</ele>
<speed>4.3</speed>
<course>41.3</course>
<desc>Speed 4.3 km/h Distance 2.81 km</desc>
<time>2010-02-28T10:47:55.35</time>
<name>1928</name>
</trkpt>
<trkpt lat="48.933960" lon="8.687885">
<ele>393.5</ele>
<speed>5.8</speed>
<course>23.8</course>
<desc>Speed 5.8 km/h Distance 2.81 km</desc>
<time>2010-02-28T10:47:56.35</time>
<name>1929</name>
</trkpt>
<trkpt lat="48.933980" lon="8.687898">
<ele>394.5</ele>
<speed>9.1</speed>
<course>49.9</course>
<desc>Speed 9.1 km/h Distance 2.81 km</desc>
<time>2010-02-28T10:47:57.35</time>
<name>1930</name>
</trkpt>
<trkpt lat="48.933988" lon="8.687913">
<ele>394.0</ele>
<speed>5.1</speed>
<course>41.3</course>
<desc>Speed 5.1 km/h Distance 2.81 km</desc>
<time>2010-02-28T10:47:58.35</time>
<name>1931</name>
</trkpt>
<trkpt lat="48.933998" lon="8.687927">
<ele>394.0</ele>
<speed>5.7</speed>
<course>45.9</course>
<desc>Speed 5.7 km/h Distance 2.81 km</desc>
<time>2010-02-28T10:47:59.35</time>
<name>1932</name>
</trkpt>
<trkpt lat="48.934010" lon="8.687945">
<ele>394.0</ele>
<speed>5.9</speed>
<course>47.6</course>
<desc>Speed 5.9 km/h Distance 2.82 km</desc>
<time>2010-02-28T10:48:00.35</time>
<name>1933</name>
</trkpt>
<trkpt lat="48.934020" lon="8.687962">
<ele>394.5</ele>
<speed>5.5</speed>
<course>58.7</course>
<desc>Speed 5.5 km/h Distance 2.82 km</desc>
<time>2010-02-28T10:48:01.35</time>
<name>1934</name>
</trkpt>
<trkpt lat="48.934027" lon="8.687978">
<ele>394.0</ele>
<speed>4.9</speed>
<course>47.6</course>
<desc>Speed 4.9 km/h Distance 2.82 km</desc>
<time>2010-02-28T10:48:02.35</time>
<name>1935</name>
</trkpt>
<trkpt lat="48.934037" lon="8.687995">
<ele>394.0</ele>
<speed>5.4</speed>
<course>47.6</course>
<desc>Speed 5.4 km/h Distance 2.82 km</desc>
<time>2010-02-28T10:48:03.35</time>
<name>1936</name>
</trkpt>
<trkpt lat="48.934047" lon="8.688012">
<ele>394.0</ele>
<speed>5.8</speed>
<course>47.6</course>
<desc>Speed 5.8 km/h Distance 2.82 km</desc>
<time>2010-02-28T10:48:04.35</time>
<name>1937</name>
</trkpt>
<trkpt lat="48.934057" lon="8.688028">
<ele>394.0</ele>
<speed>5.8</speed>
<course>63.1</course>
<desc>Speed 5.8 km/h Distance 2.82 km</desc>
<time>2010-02-28T10:48:05.35</time>
<name>1938</name>
</trkpt>
<trkpt lat="48.934062" lon="8.688043">
<ele>394.0</ele>
<speed>4.4</speed>
<course>49.1</course>
<desc>Speed 4.4 km/h Distance 2.83 km</desc>
<time>2010-02-28T10:48:06.35</time>
<name>1939</name>
</trkpt>
<trkpt lat="48.934068" lon="8.688055">
<ele>394.0</ele>
<speed>4.5</speed>
<course>58.7</course>
<desc>Speed 4.5 km/h Distance 2.83 km</desc>
<time>2010-02-28T10:48:07.35</time>
<name>1940</name>
</trkpt>
<trkpt lat="48.934075" lon="8.688072">
<ele>394.0</ele>
<speed>4.4</speed>
<course>58.7</course>
<desc>Speed 4.4 km/h Distance 2.83 km</desc>
<time>2010-02-28T10:48:08.35</time>
<name>1941</name>
</trkpt>
<trkpt lat="48.934082" lon="8.688088">
<ele>394.0</ele>
<speed>5.1</speed>
<course>65.5</course>
<desc>Speed 5.1 km/h Distance 2.83 km</desc>
<time>2010-02-28T10:48:09.35</time>
<name>1942</name>
</trkpt>
<trkpt lat="48.934087" lon="8.688105">
<ele>394.0</ele>
<speed>4.5</speed>
<course>104.2</course>
<desc>Speed 4.5 km/h Distance 2.83 km</desc>
<time>2010-02-28T10:48:10.35</time>
<name>1943</name>
</trkpt>
<trkpt lat="48.934085" lon="8.688115">
<ele>393.0</ele>
<speed>2.6</speed>
<course>162.5</course>
<desc>Speed 2.6 km/h Distance 2.83 km</desc>
<time>2010-02-28T10:48:11.35</time>
<name>1944</name>
</trkpt>
<trkpt lat="48.934078" lon="8.688118">
<ele>393.5</ele>
<speed>1.1</speed>
<course>150.8</course>
<desc>Speed 1.1 km/h Distance 2.83 km</desc>
<time>2010-02-28T10:48:12.35</time>
<name>1945</name>
</trkpt>
<trkpt lat="48.934077" lon="8.688120">
<ele>393.0</ele>
<speed>0.5</speed>
<course>63.0</course>
<desc>Speed 0.5 km/h Distance 2.83 km</desc>
<time>2010-02-28T10:48:13.35</time>
<name>1946</name>
</trkpt>
<trkpt lat="48.934080" lon="8.688130">
<ele>392.5</ele>
<speed>3.1</speed>
<course>71.3</course>
<desc>Speed 3.1 km/h Distance 2.83 km</desc>
<time>2010-02-28T10:48:14.35</time>
<name>1947</name>
</trkpt>
<trkpt lat="48.934083" lon="8.688145">
<ele>392.0</ele>
<speed>4.2</speed>
<course>61.0</course>
<desc>Speed 4.2 km/h Distance 2.83 km</desc>
<time>2010-02-28T10:48:15.35</time>
<name>1948</name>
</trkpt>
<trkpt lat="48.934090" lon="8.688163">
<ele>392.0</ele>
<speed>5.7</speed>
<course>69.1</course>
<desc>Speed 5.7 km/h Distance 2.84 km</desc>
<time>2010-02-28T10:48:16.35</time>
<name>1949</name>
</trkpt>
<trkpt lat="48.934093" lon="8.688177">
<ele>391.5</ele>
<speed>4.0</speed>
<course>71.3</course>
<desc>Speed 4.0 km/h Distance 2.84 km</desc>
<time>2010-02-28T10:48:17.35</time>
<name>1950</name>
</trkpt>
<trkpt lat="48.934097" lon="8.688192">
<ele>390.5</ele>
<speed>3.9</speed>
<course>71.3</course>
<desc>Speed 3.9 km/h Distance 2.84 km</desc>
<time>2010-02-28T10:48:18.35</time>
<name>1951</name>
</trkpt>
<trkpt lat="48.934100" lon="8.688207">
<ele>389.5</ele>
<speed>5.1</speed>
<course>61.0</course>
<desc>Speed 5.1 km/h Distance 2.84 km</desc>
<time>2010-02-28T10:48:19.35</time>
<name>1952</name>
</trkpt>
<trkpt lat="48.934107" lon="8.688225">
<ele>389.0</ele>
<speed>5.2</speed>
<course>60.3</course>
<desc>Speed 5.2 km/h Distance 2.84 km</desc>
<time>2010-02-28T10:48:20.35</time>
<name>1953</name>
</trkpt>
<trkpt lat="48.934112" lon="8.688238">
<ele>389.0</ele>
<speed>4.9</speed>
<course>65.5</course>
<desc>Speed 4.9 km/h Distance 2.84 km</desc>
<time>2010-02-28T10:48:21.35</time>
<name>1954</name>
</trkpt>
<trkpt lat="48.934117" lon="8.688255">
<ele>388.5</ele>
<speed>5.1</speed>
<course>52.7</course>
<desc>Speed 5.1 km/h Distance 2.84 km</desc>
<time>2010-02-28T10:48:22.35</time>
<name>1955</name>
</trkpt>
<trkpt lat="48.934125" lon="8.688272">
<ele>388.0</ele>
<speed>5.2</speed>
<course>37.3</course>
<desc>Speed 5.2 km/h Distance 2.84 km</desc>
<time>2010-02-28T10:48:23.35</time>
<name>1956</name>
</trkpt>
<trkpt lat="48.934135" lon="8.688283">
<ele>388.0</ele>
<speed>4.9</speed>
<course>25.2</course>
<desc>Speed 4.9 km/h Distance 2.85 km</desc>
<time>2010-02-28T10:48:24.35</time>
<name>1957</name>
</trkpt>
<trkpt lat="48.934147" lon="8.688292">
<ele>388.0</ele>
<speed>4.5</speed>
<course>22.1</course>
<desc>Speed 4.5 km/h Distance 2.85 km</desc>
<time>2010-02-28T10:48:25.35</time>
<name>1958</name>
</trkpt>
<trkpt lat="48.934160" lon="8.688300">
<ele>388.0</ele>
<speed>4.4</speed>
<course>33.2</course>
<desc>Speed 4.4 km/h Distance 2.85 km</desc>
<time>2010-02-28T10:48:26.35</time>
<name>1959</name>
</trkpt>
<trkpt lat="48.934170" lon="8.688310">
<ele>388.0</ele>
<speed>4.6</speed>
<course>52.7</course>
<desc>Speed 4.6 km/h Distance 2.85 km</desc>
<time>2010-02-28T10:48:27.35</time>
<name>1960</name>
</trkpt>
<trkpt lat="48.934178" lon="8.688327">
<ele>388.0</ele>
<speed>5.3</speed>
<course>47.5</course>
<desc>Speed 5.3 km/h Distance 2.85 km</desc>
<time>2010-02-28T10:48:28.35</time>
<name>1961</name>
</trkpt>
<trkpt lat="48.934188" lon="8.688343">
<ele>388.5</ele>
<speed>5.4</speed>
<course>52.7</course>
<desc>Speed 5.4 km/h Distance 2.85 km</desc>
<time>2010-02-28T10:48:29.35</time>
<name>1962</name>
</trkpt>
<trkpt lat="48.934197" lon="8.688360">
<ele>388.5</ele>
<speed>5.4</speed>
<course>59.7</course>
<desc>Speed 5.4 km/h Distance 2.86 km</desc>
<time>2010-02-28T10:48:30.35</time>
<name>1963</name>
</trkpt>
<trkpt lat="48.934205" lon="8.688382">
<ele>389.0</ele>
<speed>6.1</speed>
<course>50.3</course>
<desc>Speed 6.1 km/h Distance 2.86 km</desc>
<time>2010-02-28T10:48:31.35</time>
<name>1964</name>
</trkpt>
<trkpt lat="48.934215" lon="8.688400">
<ele>389.0</ele>
<speed>5.8</speed>
<course>63.1</course>
<desc>Speed 5.8 km/h Distance 2.86 km</desc>
<time>2010-02-28T10:48:32.35</time>
<name>1965</name>
</trkpt>
<trkpt lat="48.934222" lon="8.688420">
<ele>389.0</ele>
<speed>5.6</speed>
<course>55.9</course>
<desc>Speed 5.6 km/h Distance 2.86 km</desc>
<time>2010-02-28T10:48:33.35</time>
<name>1966</name>
</trkpt>
<trkpt lat="48.934228" lon="8.688435">
<ele>389.0</ele>
<speed>4.8</speed>
<course>49.8</course>
<desc>Speed 4.8 km/h Distance 2.86 km</desc>
<time>2010-02-28T10:48:34.35</time>
<name>1967</name>
</trkpt>
<trkpt lat="48.934237" lon="8.688450">
<ele>389.0</ele>
<speed>5.0</speed>
<course>44.5</course>
<desc>Speed 5.0 km/h Distance 2.86 km</desc>
<time>2010-02-28T10:48:35.35</time>
<name>1968</name>
</trkpt>
<trkpt lat="48.934247" lon="8.688465">
<ele>388.5</ele>
<speed>5.2</speed>
<course>47.6</course>
<desc>Speed 5.2 km/h Distance 2.86 km</desc>
<time>2010-02-28T10:48:36.35</time>
<name>1969</name>
</trkpt>
<trkpt lat="48.934257" lon="8.688482">
<ele>389.0</ele>
<speed>5.5</speed>
<course>52.7</course>
<desc>Speed 5.5 km/h Distance 2.87 km</desc>
<time>2010-02-28T10:48:37.35</time>
<name>1970</name>
</trkpt>
<trkpt lat="48.934265" lon="8.688498">
<ele>389.0</ele>
<speed>5.3</speed>
<course>41.3</course>
<desc>Speed 5.3 km/h Distance 2.87 km</desc>
<time>2010-02-28T10:48:38.35</time>
<name>1971</name>
</trkpt>
<trkpt lat="48.934275" lon="8.688512">
<ele>389.0</ele>
<speed>5.0</speed>
<course>47.8</course>
<desc>Speed 5.0 km/h Distance 2.87 km</desc>
<time>2010-02-28T10:48:39.35</time>
<name>1972</name>
</trkpt>
<trkpt lat="48.934280" lon="8.688520">
<ele>389.0</ele>
<speed>2.6</speed>
<course>38.4</course>
<desc>Speed 2.6 km/h Distance 2.87 km</desc>
<time>2010-02-28T10:48:40.35</time>
<name>1973</name>
</trkpt>
<trkpt lat="48.934288" lon="8.688530">
<ele>389.5</ele>
<speed>3.5</speed>
<course>49.9</course>
<desc>Speed 3.5 km/h Distance 2.87 km</desc>
<time>2010-02-28T10:48:41.35</time>
<name>1974</name>
</trkpt>
<trkpt lat="48.934297" lon="8.688545">
<ele>389.5</ele>
<speed>4.7</speed>
<course>22.1</course>
<desc>Speed 4.7 km/h Distance 2.87 km</desc>
<time>2010-02-28T10:48:42.35</time>
<name>1975</name>
</trkpt>
<trkpt lat="48.934310" lon="8.688553">
<ele>390.0</ele>
<speed>4.9</speed>
<course>20.9</course>
<desc>Speed 4.9 km/h Distance 2.87 km</desc>
<time>2010-02-28T10:48:43.35</time>
<name>1976</name>
</trkpt>
<trkpt lat="48.934322" lon="8.688560">
<ele>390.0</ele>
<speed>4.8</speed>
<course>37.5</course>
<desc>Speed 4.8 km/h Distance 2.88 km</desc>
<time>2010-02-28T10:48:44.35</time>
<name>1977</name>
</trkpt>
<trkpt lat="48.934332" lon="8.688572">
<ele>390.0</ele>
<speed>4.5</speed>
<course>52.7</course>
<desc>Speed 4.5 km/h Distance 2.88 km</desc>
<time>2010-02-28T10:48:45.35</time>
<name>1978</name>
</trkpt>
<trkpt lat="48.934340" lon="8.688588">
<ele>390.0</ele>
<speed>5.1</speed>
<course>49.9</course>
<desc>Speed 5.1 km/h Distance 2.88 km</desc>
<time>2010-02-28T10:48:46.35</time>
<name>1979</name>
</trkpt>
<trkpt lat="48.934348" lon="8.688603">
<ele>390.0</ele>
<speed>5.4</speed>
<course>47.6</course>
<desc>Speed 5.4 km/h Distance 2.88 km</desc>
<time>2010-02-28T10:48:47.37</time>
<name>1980</name>
</trkpt>
<trkpt lat="48.934358" lon="8.688620">
<ele>390.0</ele>
<speed>5.6</speed>
<course>50.3</course>
<desc>Speed 5.6 km/h Distance 2.88 km</desc>
<time>2010-02-28T10:48:48.37</time>
<name>1981</name>
</trkpt>
<trkpt lat="48.934368" lon="8.688638">
<ele>390.5</ele>
<speed>5.8</speed>
<course>50.3</course>
<desc>Speed 5.8 km/h Distance 2.88 km</desc>
<time>2010-02-28T10:48:49.37</time>
<name>1982</name>
</trkpt>
<trkpt lat="48.934378" lon="8.688657">
<ele>390.0</ele>
<speed>5.7</speed>
<course>50.3</course>
<desc>Speed 5.7 km/h Distance 2.89 km</desc>
<time>2010-02-28T10:48:50.37</time>
<name>1983</name>
</trkpt>
<trkpt lat="48.934388" lon="8.688675">
<ele>390.5</ele>
<speed>5.8</speed>
<course>61.0</course>
<desc>Speed 5.8 km/h Distance 2.89 km</desc>
<time>2010-02-28T10:48:51.37</time>
<name>1984</name>
</trkpt>
<trkpt lat="48.934395" lon="8.688693">
<ele>390.5</ele>
<speed>5.5</speed>
<course>47.6</course>
<desc>Speed 5.5 km/h Distance 2.89 km</desc>
<time>2010-02-28T10:48:52.37</time>
<name>1985</name>
</trkpt>
<trkpt lat="48.934405" lon="8.688710">
<ele>390.5</ele>
<speed>5.5</speed>
<course>44.5</course>
<desc>Speed 5.5 km/h Distance 2.89 km</desc>
<time>2010-02-28T10:48:53.37</time>
<name>1986</name>
</trkpt>
<trkpt lat="48.934415" lon="8.688725">
<ele>390.5</ele>
<speed>5.3</speed>
<course>44.7</course>
<desc>Speed 5.3 km/h Distance 2.89 km</desc>
<time>2010-02-28T10:48:54.37</time>
<name>1987</name>
</trkpt>
<trkpt lat="48.934425" lon="8.688740">
<ele>391.0</ele>
<speed>5.5</speed>
<course>41.3</course>
<desc>Speed 5.5 km/h Distance 2.89 km</desc>
<time>2010-02-28T10:48:55.37</time>
<name>1988</name>
</trkpt>
<trkpt lat="48.934435" lon="8.688753">
<ele>391.0</ele>
<speed>4.7</speed>
<course>41.2</course>
<desc>Speed 4.7 km/h Distance 2.89 km</desc>
<time>2010-02-28T10:48:56.37</time>
<name>1989</name>
</trkpt>
<trkpt lat="48.934445" lon="8.688767">
<ele>391.5</ele>
<speed>4.7</speed>
<course>52.7</course>
<desc>Speed 4.7 km/h Distance 2.90 km</desc>
<time>2010-02-28T10:48:57.37</time>
<name>1990</name>
</trkpt>
<trkpt lat="48.934453" lon="8.688783">
<ele>391.5</ele>
<speed>5.1</speed>
<course>49.7</course>
<desc>Speed 5.1 km/h Distance 2.90 km</desc>
<time>2010-02-28T10:48:58.37</time>
<name>1991</name>
</trkpt>
<trkpt lat="48.934462" lon="8.688798">
<ele>391.5</ele>
<speed>5.0</speed>
<course>49.1</course>
<desc>Speed 5.0 km/h Distance 2.90 km</desc>
<time>2010-02-28T10:48:59.37</time>
<name>1992</name>
</trkpt>
<trkpt lat="48.934468" lon="8.688810">
<ele>391.0</ele>
<speed>4.4</speed>
<course>44.5</course>
<desc>Speed 4.4 km/h Distance 2.90 km</desc>
<time>2010-02-28T10:49:00.37</time>
<name>1993</name>
</trkpt>
<trkpt lat="48.934472" lon="8.688815">
<ele>391.0</ele>
<speed>1.5</speed>
<course>43.5</course>
<desc>Speed 1.5 km/h Distance 2.90 km</desc>
<time>2010-02-28T10:49:01.37</time>
<name>1994</name>
</trkpt>
<trkpt lat="48.934475" lon="8.688820">
<ele>391.0</ele>
<speed>1.8</speed>
<course>42.3</course>
<desc>Speed 1.8 km/h Distance 2.90 km</desc>
<time>2010-02-28T10:49:02.37</time>
<name>1995</name>
</trkpt>
<trkpt lat="48.934483" lon="8.688832">
<ele>391.0</ele>
<speed>4.3</speed>
<course>63.1</course>
<desc>Speed 4.3 km/h Distance 2.90 km</desc>
<time>2010-02-28T10:49:03.37</time>
<name>1996</name>
</trkpt>
<trkpt lat="48.934488" lon="8.688847">
<ele>391.0</ele>
<speed>4.5</speed>
<course>77.7</course>
<desc>Speed 4.5 km/h Distance 2.90 km</desc>
<time>2010-02-28T10:49:04.37</time>
<name>1997</name>
</trkpt>
<trkpt lat="48.934490" lon="8.688858">
<ele>391.0</ele>
<speed>3.1</speed>
<course>209.2</course>
<desc>Speed 3.1 km/h Distance 2.90 km</desc>
<time>2010-02-28T10:49:05.37</time>
<name>1998</name>
</trkpt>
<trkpt lat="48.934488" lon="8.688857">
<ele>391.0</ele>
<speed>1.0</speed>
<course>233.0</course>
<desc>Speed 1.0 km/h Distance 2.91 km</desc>
<time>2010-02-28T10:49:06.37</time>
<name>1999</name>
</trkpt>
<trkpt lat="48.934485" lon="8.688850">
<ele>391.0</ele>
<speed>2.1</speed>
<course>217.2</course>
<desc>Speed 2.1 km/h Distance 2.91 km</desc>
<time>2010-02-28T10:49:07.37</time>
<name>2000</name>
</trkpt>
<trkpt lat="48.934483" lon="8.688848">
<ele>391.5</ele>
<speed>1.1</speed>
<course>37.2</course>
<desc>Speed 1.1 km/h Distance 2.91 km</desc>
<time>2010-02-28T10:49:08.37</time>
<name>2001</name>
</trkpt>
<trkpt lat="48.934485" lon="8.688850">
<ele>391.5</ele>
<speed>0.7</speed>
<course>27.9</course>
<desc>Speed 0.7 km/h Distance 2.91 km</desc>
<time>2010-02-28T10:49:09.37</time>
<name>2002</name>
</trkpt>
<trkpt lat="48.934493" lon="8.688857">
<ele>392.0</ele>
<speed>3.2</speed>
<course>46.6</course>
<desc>Speed 3.2 km/h Distance 2.91 km</desc>
<time>2010-02-28T10:49:10.37</time>
<name>2003</name>
</trkpt>
<trkpt lat="48.934502" lon="8.688870">
<ele>392.0</ele>
<speed>4.2</speed>
<course>49.8</course>
<desc>Speed 4.2 km/h Distance 2.91 km</desc>
<time>2010-02-28T10:49:11.37</time>
<name>2004</name>
</trkpt>
<trkpt lat="48.934510" lon="8.688885">
<ele>392.0</ele>
<speed>5.1</speed>
<course>52.7</course>
<desc>Speed 5.1 km/h Distance 2.91 km</desc>
<time>2010-02-28T10:49:12.37</time>
<name>2005</name>
</trkpt>
<trkpt lat="48.934518" lon="8.688902">
<ele>392.0</ele>
<speed>5.4</speed>
<course>58.7</course>
<desc>Speed 5.4 km/h Distance 2.91 km</desc>
<time>2010-02-28T10:49:13.37</time>
<name>2006</name>
</trkpt>
<trkpt lat="48.934525" lon="8.688918">
<ele>392.0</ele>
<speed>5.3</speed>
<course>55.3</course>
<desc>Speed 5.3 km/h Distance 2.91 km</desc>
<time>2010-02-28T10:49:14.37</time>
<name>2007</name>
</trkpt>
<trkpt lat="48.934533" lon="8.688937">
<ele>392.0</ele>
<speed>5.6</speed>
<course>50.3</course>
<desc>Speed 5.6 km/h Distance 2.91 km</desc>
<time>2010-02-28T10:49:15.37</time>
<name>2008</name>
</trkpt>
<trkpt lat="48.934543" lon="8.688955">
<ele>392.0</ele>
<speed>5.8</speed>
<course>47.5</course>
<desc>Speed 5.8 km/h Distance 2.92 km</desc>
<time>2010-02-28T10:49:16.37</time>
<name>2009</name>
</trkpt>
<trkpt lat="48.934553" lon="8.688972">
<ele>392.0</ele>
<speed>5.5</speed>
<course>50.3</course>
<desc>Speed 5.5 km/h Distance 2.92 km</desc>
<time>2010-02-28T10:49:17.37</time>
<name>2010</name>
</trkpt>
<trkpt lat="48.934563" lon="8.688990">
<ele>392.5</ele>
<speed>5.6</speed>
<course>47.6</course>
<desc>Speed 5.6 km/h Distance 2.92 km</desc>
<time>2010-02-28T10:49:18.37</time>
<name>2011</name>
</trkpt>
<trkpt lat="48.934573" lon="8.689007">
<ele>392.5</ele>
<speed>5.6</speed>
<course>47.6</course>
<desc>Speed 5.6 km/h Distance 2.92 km</desc>
<time>2010-02-28T10:49:19.37</time>
<name>2012</name>
</trkpt>
<trkpt lat="48.934583" lon="8.689023">
<ele>392.5</ele>
<speed>5.7</speed>
<course>40.2</course>
<desc>Speed 5.7 km/h Distance 2.92 km</desc>
<time>2010-02-28T10:49:20.37</time>
<name>2013</name>
</trkpt>
<trkpt lat="48.934595" lon="8.689038">
<ele>392.5</ele>
<speed>6.0</speed>
<course>47.6</course>
<desc>Speed 6.0 km/h Distance 2.92 km</desc>
<time>2010-02-28T10:49:21.37</time>
<name>2014</name>
</trkpt>
<trkpt lat="48.934605" lon="8.689055">
<ele>392.5</ele>
<speed>5.7</speed>
<course>43.3</course>
<desc>Speed 5.7 km/h Distance 2.93 km</desc>
<time>2010-02-28T10:49:22.37</time>
<name>2015</name>
</trkpt>
<trkpt lat="48.934617" lon="8.689072">
<ele>393.0</ele>
<speed>5.8</speed>
<course>47.5</course>
<desc>Speed 5.8 km/h Distance 2.93 km</desc>
<time>2010-02-28T10:49:23.37</time>
<name>2016</name>
</trkpt>
<trkpt lat="48.934627" lon="8.689088">
<ele>393.0</ele>
<speed>5.8</speed>
<course>49.7</course>
<desc>Speed 5.8 km/h Distance 2.93 km</desc>
<time>2010-02-28T10:49:24.37</time>
<name>2017</name>
</trkpt>
<trkpt lat="48.934635" lon="8.689103">
<ele>393.0</ele>
<speed>5.1</speed>
<course>47.6</course>
<desc>Speed 5.1 km/h Distance 2.93 km</desc>
<time>2010-02-28T10:49:25.37</time>
<name>2018</name>
</trkpt>
<trkpt lat="48.934645" lon="8.689120">
<ele>393.0</ele>
<speed>5.4</speed>
<course>52.7</course>
<desc>Speed 5.4 km/h Distance 2.93 km</desc>
<time>2010-02-28T10:49:26.37</time>
<name>2019</name>
</trkpt>
<trkpt lat="48.934653" lon="8.689137">
<ele>393.0</ele>
<speed>5.5</speed>
<course>44.5</course>
<desc>Speed 5.5 km/h Distance 2.93 km</desc>
<time>2010-02-28T10:49:27.37</time>
<name>2020</name>
</trkpt>
<trkpt lat="48.934663" lon="8.689152">
<ele>393.0</ele>
<speed>5.2</speed>
<course>52.7</course>
<desc>Speed 5.2 km/h Distance 2.94 km</desc>
<time>2010-02-28T10:49:28.37</time>
<name>2021</name>
</trkpt>
<trkpt lat="48.934672" lon="8.689168">
<ele>393.0</ele>
<speed>5.3</speed>
<course>61.0</course>
<desc>Speed 5.3 km/h Distance 2.94 km</desc>
<time>2010-02-28T10:49:29.37</time>
<name>2022</name>
</trkpt>
<trkpt lat="48.934678" lon="8.689187">
<ele>392.5</ele>
<speed>5.5</speed>
<course>61.0</course>
<desc>Speed 5.5 km/h Distance 2.94 km</desc>
<time>2010-02-28T10:49:30.37</time>
<name>2023</name>
</trkpt>
<trkpt lat="48.934685" lon="8.689205">
<ele>392.5</ele>
<speed>5.6</speed>
<course>70.6</course>
<desc>Speed 5.6 km/h Distance 2.94 km</desc>
<time>2010-02-28T10:49:31.37</time>
<name>2024</name>
</trkpt>
<trkpt lat="48.934690" lon="8.689227">
<ele>392.5</ele>
<speed>6.1</speed>
<course>57.6</course>
<desc>Speed 6.1 km/h Distance 2.94 km</desc>
<time>2010-02-28T10:49:32.37</time>
<name>2025</name>
</trkpt>
<trkpt lat="48.934698" lon="8.689247">
<ele>392.5</ele>
<speed>6.0</speed>
<course>61.0</course>
<desc>Speed 6.0 km/h Distance 2.94 km</desc>
<time>2010-02-28T10:49:33.37</time>
<name>2026</name>
</trkpt>
<trkpt lat="48.934705" lon="8.689265">
<ele>392.5</ele>
<speed>5.6</speed>
<course>55.4</course>
<desc>Speed 5.6 km/h Distance 2.95 km</desc>
<time>2010-02-28T10:49:34.37</time>
<name>2027</name>
</trkpt>
<trkpt lat="48.934713" lon="8.689283">
<ele>392.5</ele>
<speed>5.7</speed>
<course>44.7</course>
<desc>Speed 5.7 km/h Distance 2.95 km</desc>
<time>2010-02-28T10:49:35.37</time>
<name>2028</name>
</trkpt>
<trkpt lat="48.934723" lon="8.689298">
<ele>392.5</ele>
<speed>5.5</speed>
<course>52.7</course>
<desc>Speed 5.5 km/h Distance 2.95 km</desc>
<time>2010-02-28T10:49:36.37</time>
<name>2029</name>
</trkpt>
<trkpt lat="48.934732" lon="8.689315">
<ele>392.0</ele>
<speed>5.6</speed>
<course>50.3</course>
<desc>Speed 5.6 km/h Distance 2.95 km</desc>
<time>2010-02-28T10:49:37.37</time>
<name>2030</name>
</trkpt>
<trkpt lat="48.934742" lon="8.689333">
<ele>392.0</ele>
<speed>5.5</speed>
<course>44.5</course>
<desc>Speed 5.5 km/h Distance 2.95 km</desc>
<time>2010-02-28T10:49:38.37</time>
<name>2031</name>
</trkpt>
<trkpt lat="48.934752" lon="8.689348">
<ele>392.0</ele>
<speed>5.5</speed>
<course>47.6</course>
<desc>Speed 5.5 km/h Distance 2.95 km</desc>
<time>2010-02-28T10:49:39.37</time>
<name>2032</name>
</trkpt>
<trkpt lat="48.934762" lon="8.689365">
<ele>392.0</ele>
<speed>5.6</speed>
<course>47.5</course>
<desc>Speed 5.6 km/h Distance 2.96 km</desc>
<time>2010-02-28T10:49:40.37</time>
<name>2033</name>
</trkpt>
<trkpt lat="48.934772" lon="8.689382">
<ele>391.5</ele>
<speed>5.6</speed>
<course>49.7</course>
<desc>Speed 5.6 km/h Distance 2.96 km</desc>
<time>2010-02-28T10:49:41.37</time>
<name>2034</name>
</trkpt>
<trkpt lat="48.934780" lon="8.689397">
<ele>391.5</ele>
<speed>5.5</speed>
<course>52.7</course>
<desc>Speed 5.5 km/h Distance 2.96 km</desc>
<time>2010-02-28T10:49:43.36</time>
<name>2035</name>
</trkpt>
<trkpt lat="48.934788" lon="8.689413">
<ele>391.5</ele>
<speed>5.5</speed>
<course>61.0</course>
<desc>Speed 5.5 km/h Distance 2.96 km</desc>
<time>2010-02-28T10:49:44.37</time>
<name>2036</name>
</trkpt>
<trkpt lat="48.934795" lon="8.689432">
<ele>391.5</ele>
<speed>5.1</speed>
<course>49.8</course>
<desc>Speed 5.1 km/h Distance 2.96 km</desc>
<time>2010-02-28T10:49:45.37</time>
<name>2037</name>
</trkpt>
<trkpt lat="48.934803" lon="8.689447">
<ele>391.5</ele>
<speed>4.9</speed>
<course>49.7</course>
<desc>Speed 4.9 km/h Distance 2.96 km</desc>
<time>2010-02-28T10:49:46.37</time>
<name>2038</name>
</trkpt>
<trkpt lat="48.934812" lon="8.689462">
<ele>391.5</ele>
<speed>5.2</speed>
<course>44.7</course>
<desc>Speed 5.2 km/h Distance 2.96 km</desc>
<time>2010-02-28T10:49:47.37</time>
<name>2039</name>
</trkpt>
<trkpt lat="48.934822" lon="8.689477">
<ele>391.5</ele>
<speed>5.4</speed>
<course>58.7</course>
<desc>Speed 5.4 km/h Distance 2.97 km</desc>
<time>2010-02-28T10:49:48.37</time>
<name>2040</name>
</trkpt>
<trkpt lat="48.934828" lon="8.689493">
<ele>391.5</ele>
<speed>5.2</speed>
<course>44.6</course>
<desc>Speed 5.2 km/h Distance 2.97 km</desc>
<time>2010-02-28T10:49:49.37</time>
<name>2041</name>
</trkpt>
<trkpt lat="48.934838" lon="8.689508">
<ele>391.5</ele>
<speed>5.3</speed>
<course>52.7</course>
<desc>Speed 5.3 km/h Distance 2.97 km</desc>
<time>2010-02-28T10:49:50.37</time>
<name>2042</name>
</trkpt>
<trkpt lat="48.934847" lon="8.689525">
<ele>391.5</ele>
<speed>5.5</speed>
<course>52.7</course>
<desc>Speed 5.5 km/h Distance 2.97 km</desc>
<time>2010-02-28T10:49:51.37</time>
<name>2043</name>
</trkpt>
<trkpt lat="48.934855" lon="8.689542">
<ele>391.0</ele>
<speed>5.6</speed>
<course>44.5</course>
<desc>Speed 5.6 km/h Distance 2.97 km</desc>
<time>2010-02-28T10:49:52.37</time>
<name>2044</name>
</trkpt>
<trkpt lat="48.934865" lon="8.689557">
<ele>391.0</ele>
<speed>5.3</speed>
<course>44.6</course>
<desc>Speed 5.3 km/h Distance 2.97 km</desc>
<time>2010-02-28T10:49:53.37</time>
<name>2045</name>
</trkpt>
<trkpt lat="48.934875" lon="8.689572">
<ele>391.0</ele>
<speed>5.4</speed>
<course>58.7</course>
<desc>Speed 5.4 km/h Distance 2.97 km</desc>
<time>2010-02-28T10:49:54.37</time>
<name>2046</name>
</trkpt>
<trkpt lat="48.934882" lon="8.689588">
<ele>391.0</ele>
<speed>5.2</speed>
<course>52.7</course>
<desc>Speed 5.2 km/h Distance 2.98 km</desc>
<time>2010-02-28T10:49:55.37</time>
<name>2047</name>
</trkpt>
<trkpt lat="48.934890" lon="8.689605">
<ele>391.0</ele>
<speed>5.1</speed>
<course>52.7</course>
<desc>Speed 5.1 km/h Distance 2.98 km</desc>
<time>2010-02-28T10:49:56.37</time>
<name>2048</name>
</trkpt>
<trkpt lat="48.934898" lon="8.689622">
<ele>391.0</ele>
<speed>5.3</speed>
<course>55.3</course>
<desc>Speed 5.3 km/h Distance 2.98 km</desc>
<time>2010-02-28T10:49:57.37</time>
<name>2049</name>
</trkpt>
<trkpt lat="48.934907" lon="8.689640">
<ele>391.0</ele>
<speed>5.5</speed>
<course>61.0</course>
<desc>Speed 5.5 km/h Distance 2.98 km</desc>
<time>2010-02-28T10:49:58.37</time>
<name>2050</name>
</trkpt>
<trkpt lat="48.934913" lon="8.689658">
<ele>391.0</ele>
<speed>5.4</speed>
<course>50.3</course>
<desc>Speed 5.4 km/h Distance 2.98 km</desc>
<time>2010-02-28T10:49:59.37</time>
<name>2051</name>
</trkpt>
<trkpt lat="48.934923" lon="8.689677">
<ele>391.0</ele>
<speed>5.3</speed>
<course>58.7</course>
<desc>Speed 5.3 km/h Distance 2.98 km</desc>
<time>2010-02-28T10:50:00.37</time>
<name>2052</name>
</trkpt>
<trkpt lat="48.934930" lon="8.689693">
<ele>391.0</ele>
<speed>5.3</speed>
<course>52.7</course>
<desc>Speed 5.3 km/h Distance 2.99 km</desc>
<time>2010-02-28T10:50:01.37</time>
<name>2053</name>
</trkpt>
<trkpt lat="48.934938" lon="8.689710">
<ele>391.0</ele>
<speed>5.2</speed>
<course>47.4</course>
<desc>Speed 5.2 km/h Distance 2.99 km</desc>
<time>2010-02-28T10:50:02.37</time>
<name>2054</name>
</trkpt>
<trkpt lat="48.934948" lon="8.689727">
<ele>391.0</ele>
<speed>5.3</speed>
<course>44.5</course>
<desc>Speed 5.3 km/h Distance 2.99 km</desc>
<time>2010-02-28T10:50:03.37</time>
<name>2055</name>
</trkpt>
<trkpt lat="48.934958" lon="8.689742">
<ele>391.5</ele>
<speed>5.4</speed>
<course>52.7</course>
<desc>Speed 5.4 km/h Distance 2.99 km</desc>
<time>2010-02-28T10:50:04.37</time>
<name>2056</name>
</trkpt>
<trkpt lat="48.934967" lon="8.689758">
<ele>391.5</ele>
<speed>5.5</speed>
<course>52.7</course>
<desc>Speed 5.5 km/h Distance 2.99 km</desc>
<time>2010-02-28T10:50:05.37</time>
<name>2057</name>
</trkpt>
<trkpt lat="48.934975" lon="8.689775">
<ele>391.5</ele>
<speed>5.4</speed>
<course>58.7</course>
<desc>Speed 5.4 km/h Distance 2.99 km</desc>
<time>2010-02-28T10:50:06.37</time>
<name>2058</name>
</trkpt>
<trkpt lat="48.934982" lon="8.689792">
<ele>391.5</ele>
<speed>4.9</speed>
<course>52.8</course>
<desc>Speed 4.9 km/h Distance 2.99 km</desc>
<time>2010-02-28T10:50:07.37</time>
<name>2059</name>
</trkpt>
<trkpt lat="48.934987" lon="8.689802">
<ele>392.0</ele>
<speed>3.3</speed>
<course>33.5</course>
<desc>Speed 3.3 km/h Distance 3.00 km</desc>
<time>2010-02-28T10:50:08.37</time>
<name>2060</name>
</trkpt>
<trkpt lat="48.934995" lon="8.689810">
<ele>392.0</ele>
<speed>3.6</speed>
<course>49.7</course>
<desc>Speed 3.6 km/h Distance 3.00 km</desc>
<time>2010-02-28T10:50:09.37</time>
<name>2061</name>
</trkpt>
<trkpt lat="48.935003" lon="8.689825">
<ele>392.0</ele>
<speed>5.0</speed>
<course>52.6</course>
<desc>Speed 5.0 km/h Distance 3.00 km</desc>
<time>2010-02-28T10:50:10.37</time>
<name>2062</name>
</trkpt>
<trkpt lat="48.935012" lon="8.689842">
<ele>392.0</ele>
<speed>5.3</speed>
<course>44.5</course>
<desc>Speed 5.3 km/h Distance 3.00 km</desc>
<time>2010-02-28T10:50:11.37</time>
<name>2063</name>
</trkpt>
<trkpt lat="48.935022" lon="8.689857">
<ele>392.0</ele>
<speed>5.3</speed>
<course>52.7</course>
<desc>Speed 5.3 km/h Distance 3.00 km</desc>
<time>2010-02-28T10:50:12.37</time>
<name>2064</name>
</trkpt>
<trkpt lat="48.935030" lon="8.689873">
<ele>392.0</ele>
<speed>5.4</speed>
<course>52.7</course>
<desc>Speed 5.4 km/h Distance 3.00 km</desc>
<time>2010-02-28T10:50:13.37</time>
<name>2065</name>
</trkpt>
<trkpt lat="48.935038" lon="8.689890">
<ele>392.0</ele>
<speed>5.3</speed>
<course>52.7</course>
<desc>Speed 5.3 km/h Distance 3.00 km</desc>
<time>2010-02-28T10:50:14.37</time>
<name>2066</name>
</trkpt>
<trkpt lat="48.935047" lon="8.689907">
<ele>392.0</ele>
<speed>5.5</speed>
<course>47.6</course>
<desc>Speed 5.5 km/h Distance 3.01 km</desc>
<time>2010-02-28T10:50:15.37</time>
<name>2067</name>
</trkpt>
<trkpt lat="48.935057" lon="8.689923">
<ele>392.0</ele>
<speed>5.4</speed>
<course>52.7</course>
<desc>Speed 5.4 km/h Distance 3.01 km</desc>
<time>2010-02-28T10:50:16.37</time>
<name>2068</name>
</trkpt>
<trkpt lat="48.935065" lon="8.689940">
<ele>392.0</ele>
<speed>5.4</speed>
<course>52.7</course>
<desc>Speed 5.4 km/h Distance 3.01 km</desc>
<time>2010-02-28T10:50:17.37</time>
<name>2069</name>
</trkpt>
<trkpt lat="48.935073" lon="8.689957">
<ele>392.0</ele>
<speed>5.3</speed>
<course>49.7</course>
<desc>Speed 5.3 km/h Distance 3.01 km</desc>
<time>2010-02-28T10:50:18.37</time>
<name>2070</name>
</trkpt>
<trkpt lat="48.935082" lon="8.689972">
<ele>392.0</ele>
<speed>5.1</speed>
<course>44.5</course>
<desc>Speed 5.1 km/h Distance 3.01 km</desc>
<time>2010-02-28T10:50:19.37</time>
<name>2071</name>
</trkpt>
<trkpt lat="48.935092" lon="8.689987">
<ele>392.0</ele>
<speed>5.2</speed>
<course>37.5</course>
<desc>Speed 5.2 km/h Distance 3.01 km</desc>
<time>2010-02-28T10:50:20.37</time>
<name>2072</name>
</trkpt>
<trkpt lat="48.935102" lon="8.689998">
<ele>392.0</ele>
<speed>4.9</speed>
<course>41.4</course>
<desc>Speed 4.9 km/h Distance 3.02 km</desc>
<time>2010-02-28T10:50:21.37</time>
<name>2073</name>
</trkpt>
<trkpt lat="48.935112" lon="8.690012">
<ele>392.0</ele>
<speed>4.8</speed>
<course>65.5</course>
<desc>Speed 4.8 km/h Distance 3.02 km</desc>
<time>2010-02-28T10:50:22.37</time>
<name>2074</name>
</trkpt>
<trkpt lat="48.935117" lon="8.690028">
<ele>392.0</ele>
<speed>5.0</speed>
<course>61.0</course>
<desc>Speed 5.0 km/h Distance 3.02 km</desc>
<time>2010-02-28T10:50:23.37</time>
<name>2075</name>
</trkpt>
<trkpt lat="48.935123" lon="8.690047">
<ele>392.0</ele>
<speed>5.4</speed>
<course>61.0</course>
<desc>Speed 5.4 km/h Distance 3.02 km</desc>
<time>2010-02-28T10:50:24.37</time>
<name>2076</name>
</trkpt>
<trkpt lat="48.935130" lon="8.690065">
<ele>392.0</ele>
<speed>5.4</speed>
<course>52.7</course>
<desc>Speed 5.4 km/h Distance 3.02 km</desc>
<time>2010-02-28T10:50:25.37</time>
<name>2077</name>
</trkpt>
<trkpt lat="48.935138" lon="8.690082">
<ele>392.0</ele>
<speed>5.4</speed>
<course>52.7</course>
<desc>Speed 5.4 km/h Distance 3.02 km</desc>
<time>2010-02-28T10:50:26.37</time>
<name>2078</name>
</trkpt>
<trkpt lat="48.935147" lon="8.690098">
<ele>392.0</ele>
<speed>5.3</speed>
<course>52.7</course>
<desc>Speed 5.3 km/h Distance 3.02 km</desc>
<time>2010-02-28T10:50:27.37</time>
<name>2079</name>
</trkpt>
<trkpt lat="48.935155" lon="8.690115">
<ele>392.0</ele>
<speed>5.5</speed>
<course>52.7</course>
<desc>Speed 5.5 km/h Distance 3.03 km</desc>
<time>2010-02-28T10:50:28.37</time>
<name>2080</name>
</trkpt>
<trkpt lat="48.935163" lon="8.690132">
<ele>392.0</ele>
<speed>5.2</speed>
<course>46.4</course>
<desc>Speed 5.2 km/h Distance 3.03 km</desc>
<time>2010-02-28T10:50:29.37</time>
<name>2081</name>
</trkpt>
<trkpt lat="48.935172" lon="8.690145">
<ele>391.5</ele>
<speed>4.1</speed>
<course>52.6</course>
<desc>Speed 4.1 km/h Distance 3.03 km</desc>
<time>2010-02-28T10:50:30.37</time>
<name>2082</name>
</trkpt>
<trkpt lat="48.935177" lon="8.690155">
<ele>391.5</ele>
<speed>3.5</speed>
<course>47.8</course>
<desc>Speed 3.5 km/h Distance 3.03 km</desc>
<time>2010-02-28T10:50:31.37</time>
<name>2083</name>
</trkpt>
<trkpt lat="48.935182" lon="8.690163">
<ele>391.5</ele>
<speed>3.1</speed>
<course>52.7</course>
<desc>Speed 3.1 km/h Distance 3.03 km</desc>
<time>2010-02-28T10:50:32.37</time>
<name>2084</name>
</trkpt>
<trkpt lat="48.935188" lon="8.690177">
<ele>391.0</ele>
<speed>4.1</speed>
<course>55.9</course>
<desc>Speed 4.1 km/h Distance 3.03 km</desc>
<time>2010-02-28T10:50:33.37</time>
<name>2085</name>
</trkpt>
<trkpt lat="48.935195" lon="8.690192">
<ele>391.0</ele>
<speed>4.7</speed>
<course>42.6</course>
<desc>Speed 4.7 km/h Distance 3.03 km</desc>
<time>2010-02-28T10:50:34.37</time>
<name>2086</name>
</trkpt>
<trkpt lat="48.935203" lon="8.690203">
<ele>391.0</ele>
<speed>4.5</speed>
<course>49.7</course>
<desc>Speed 4.5 km/h Distance 3.03 km</desc>
<time>2010-02-28T10:50:35.37</time>
<name>2087</name>
</trkpt>
<trkpt lat="48.935212" lon="8.690218">
<ele>391.0</ele>
<speed>4.8</speed>
<course>46.4</course>
<desc>Speed 4.8 km/h Distance 3.04 km</desc>
<time>2010-02-28T10:50:36.37</time>
<name>2088</name>
</trkpt>
<trkpt lat="48.935220" lon="8.690232">
<ele>391.0</ele>
<speed>5.3</speed>
<course>47.6</course>
<desc>Speed 5.3 km/h Distance 3.04 km</desc>
<time>2010-02-28T10:50:37.37</time>
<name>2089</name>
</trkpt>
<trkpt lat="48.935230" lon="8.690248">
<ele>391.0</ele>
<speed>5.4</speed>
<course>52.7</course>
<desc>Speed 5.4 km/h Distance 3.04 km</desc>
<time>2010-02-28T10:50:38.37</time>
<name>2090</name>
</trkpt>
<trkpt lat="48.935238" lon="8.690265">
<ele>391.0</ele>
<speed>5.7</speed>
<course>44.6</course>
<desc>Speed 5.7 km/h Distance 3.04 km</desc>
<time>2010-02-28T10:50:39.37</time>
<name>2091</name>
</trkpt>
<trkpt lat="48.935248" lon="8.690280">
<ele>391.0</ele>
<speed>5.7</speed>
<course>47.6</course>
<desc>Speed 5.7 km/h Distance 3.04 km</desc>
<time>2010-02-28T10:50:40.37</time>
<name>2092</name>
</trkpt>
<trkpt lat="48.935258" lon="8.690297">
<ele>391.0</ele>
<speed>5.7</speed>
<course>52.7</course>
<desc>Speed 5.7 km/h Distance 3.04 km</desc>
<time>2010-02-28T10:50:41.37</time>
<name>2093</name>
</trkpt>
<trkpt lat="48.935267" lon="8.690313">
<ele>391.0</ele>
<speed>5.4</speed>
<course>52.7</course>
<desc>Speed 5.4 km/h Distance 3.04 km</desc>
<time>2010-02-28T10:50:42.37</time>
<name>2094</name>
</trkpt>
<trkpt lat="48.935275" lon="8.690330">
<ele>391.0</ele>
<speed>5.4</speed>
<course>55.9</course>
<desc>Speed 5.4 km/h Distance 3.05 km</desc>
<time>2010-02-28T10:50:43.37</time>
<name>2095</name>
</trkpt>
<trkpt lat="48.935282" lon="8.690345">
<ele>391.0</ele>
<speed>5.0</speed>
<course>52.6</course>
<desc>Speed 5.0 km/h Distance 3.05 km</desc>
<time>2010-02-28T10:50:44.37</time>
<name>2096</name>
</trkpt>
<trkpt lat="48.935288" lon="8.690358">
<ele>390.5</ele>
<speed>4.6</speed>
<course>33.2</course>
<desc>Speed 4.6 km/h Distance 3.05 km</desc>
<time>2010-02-28T10:50:45.37</time>
<name>2097</name>
</trkpt>
<trkpt lat="48.935297" lon="8.690367">
<ele>390.5</ele>
<speed>3.7</speed>
<course>51.9</course>
<desc>Speed 3.7 km/h Distance 3.05 km</desc>
<time>2010-02-28T10:50:46.37</time>
<name>2098</name>
</trkpt>
<trkpt lat="48.935298" lon="8.690370">
<ele>390.5</ele>
<speed>1.0</speed>
<course>51.9</course>
<desc>Speed 1.0 km/h Distance 3.05 km</desc>
<time>2010-02-28T10:50:47.37</time>
<name>2099</name>
</trkpt>
<trkpt lat="48.935298" lon="8.690370">
<ele>390.5</ele>
<speed>0.1</speed>
<course>51.9</course>
<desc>Speed 0.1 km/h Distance 3.05 km</desc>
<time>2010-02-28T10:50:48.37</time>
<name>2100</name>
</trkpt>
<trkpt lat="48.935298" lon="8.690370">
<ele>390.5</ele>
<speed>0.3</speed>
<course>51.9</course>
<desc>Speed 0.3 km/h Distance 3.05 km</desc>
<time>2010-02-28T10:50:49.37</time>
<name>2101</name>
</trkpt>
<trkpt lat="48.935298" lon="8.690370">
<ele>390.5</ele>
<speed>0.2</speed>
<course>51.9</course>
<desc>Speed 0.2 km/h Distance 3.05 km</desc>
<time>2010-02-28T10:50:50.37</time>
<name>2102</name>
</trkpt>
<trkpt lat="48.935298" lon="8.690370">
<ele>390.5</ele>
<speed>0.6</speed>
<course>90.0</course>
<desc>Speed 0.6 km/h Distance 3.05 km</desc>
<time>2010-02-28T10:50:51.37</time>
<name>2103</name>
</trkpt>
<trkpt lat="48.935298" lon="8.690372">
<ele>390.5</ele>
<speed>0.7</speed>
<course>90.0</course>
<desc>Speed 0.7 km/h Distance 3.05 km</desc>
<time>2010-02-28T10:50:52.37</time>
<name>2104</name>
</trkpt>
<trkpt lat="48.935298" lon="8.690372">
<ele>390.5</ele>
<speed>0.1</speed>
<course>117.4</course>
<desc>Speed 0.1 km/h Distance 3.05 km</desc>
<time>2010-02-28T10:50:53.37</time>
<name>2105</name>
</trkpt>
<trkpt lat="48.935297" lon="8.690377">
<ele>390.5</ele>
<speed>1.4</speed>
<course>12.6</course>
<desc>Speed 1.4 km/h Distance 3.05 km</desc>
<time>2010-02-28T10:50:54.37</time>
<name>2106</name>
</trkpt>
<trkpt lat="48.935298" lon="8.690378">
<ele>390.5</ele>
<speed>0.7</speed>
<course>90.0</course>
<desc>Speed 0.7 km/h Distance 3.05 km</desc>
<time>2010-02-28T10:50:55.37</time>
<name>2107</name>
</trkpt>
<trkpt lat="48.935298" lon="8.690382">
<ele>390.5</ele>
<speed>0.8</speed>
<course>90.0</course>
<desc>Speed 0.8 km/h Distance 3.05 km</desc>
<time>2010-02-28T10:50:56.37</time>
<name>2108</name>
</trkpt>
<trkpt lat="48.935298" lon="8.690383">
<ele>390.5</ele>
<speed>0.3</speed>
<course>90.0</course>
<desc>Speed 0.3 km/h Distance 3.05 km</desc>
<time>2010-02-28T10:50:57.37</time>
<name>2109</name>
</trkpt>
<trkpt lat="48.935298" lon="8.690383">
<ele>390.5</ele>
<speed>0.3</speed>
<course>355.0</course>
<desc>Speed 0.3 km/h Distance 3.05 km</desc>
<time>2010-02-28T10:50:58.37</time>
<name>2110</name>
</trkpt>
<trkpt lat="48.935307" lon="8.690382">
<ele>390.5</ele>
<speed>3.3</speed>
<course>28.9</course>
<desc>Speed 3.3 km/h Distance 3.05 km</desc>
<time>2010-02-28T10:50:59.37</time>
<name>2111</name>
</trkpt>
<trkpt lat="48.935317" lon="8.690390">
<ele>391.0</ele>
<speed>4.4</speed>
<course>33.4</course>
<desc>Speed 4.4 km/h Distance 3.05 km</desc>
<time>2010-02-28T10:51:00.37</time>
<name>2112</name>
</trkpt>
<trkpt lat="48.935328" lon="8.690402">
<ele>391.0</ele>
<speed>5.1</speed>
<course>40.2</course>
<desc>Speed 5.1 km/h Distance 3.06 km</desc>
<time>2010-02-28T10:51:01.37</time>
<name>2113</name>
</trkpt>
<trkpt lat="48.935340" lon="8.690417">
<ele>391.0</ele>
<speed>5.6</speed>
<course>41.2</course>
<desc>Speed 5.6 km/h Distance 3.06 km</desc>
<time>2010-02-28T10:51:02.37</time>
<name>2114</name>
</trkpt>
<trkpt lat="48.935350" lon="8.690430">
<ele>391.0</ele>
<speed>5.5</speed>
<course>44.5</course>
<desc>Speed 5.5 km/h Distance 3.06 km</desc>
<time>2010-02-28T10:51:03.37</time>
<name>2115</name>
</trkpt>
<trkpt lat="48.935360" lon="8.690445">
<ele>391.0</ele>
<speed>5.5</speed>
<course>44.5</course>
<desc>Speed 5.5 km/h Distance 3.06 km</desc>
<time>2010-02-28T10:51:04.37</time>
<name>2116</name>
</trkpt>
<trkpt lat="48.935370" lon="8.690460">
<ele>390.5</ele>
<speed>5.5</speed>
<course>41.2</course>
<desc>Speed 5.5 km/h Distance 3.06 km</desc>
<time>2010-02-28T10:51:05.37</time>
<name>2117</name>
</trkpt>
<trkpt lat="48.935380" lon="8.690473">
<ele>390.5</ele>
<speed>5.4</speed>
<course>49.7</course>
<desc>Speed 5.4 km/h Distance 3.06 km</desc>
<time>2010-02-28T10:51:06.37</time>
<name>2118</name>
</trkpt>
<trkpt lat="48.935388" lon="8.690488">
<ele>390.5</ele>
<speed>5.4</speed>
<course>41.2</course>
<desc>Speed 5.4 km/h Distance 3.06 km</desc>
<time>2010-02-28T10:51:07.37</time>
<name>2119</name>
</trkpt>
<trkpt lat="48.935398" lon="8.690502">
<ele>390.5</ele>
<speed>5.5</speed>
<course>44.5</course>
<desc>Speed 5.5 km/h Distance 3.07 km</desc>
<time>2010-02-28T10:51:08.37</time>
<name>2120</name>
</trkpt>
<trkpt lat="48.935408" lon="8.690517">
<ele>390.5</ele>
<speed>5.5</speed>
<course>52.7</course>
<desc>Speed 5.5 km/h Distance 3.07 km</desc>
<time>2010-02-28T10:51:09.37</time>
<name>2121</name>
</trkpt>
<trkpt lat="48.935417" lon="8.690533">
<ele>390.0</ele>
<speed>5.3</speed>
<course>41.2</course>
<desc>Speed 5.3 km/h Distance 3.07 km</desc>
<time>2010-02-28T10:51:10.37</time>
<name>2122</name>
</trkpt>
<trkpt lat="48.935427" lon="8.690547">
<ele>390.0</ele>
<speed>5.2</speed>
<course>44.5</course>
<desc>Speed 5.2 km/h Distance 3.07 km</desc>
<time>2010-02-28T10:51:11.37</time>
<name>2123</name>
</trkpt>
<trkpt lat="48.935437" lon="8.690562">
<ele>390.0</ele>
<speed>5.3</speed>
<course>49.7</course>
<desc>Speed 5.3 km/h Distance 3.07 km</desc>
<time>2010-02-28T10:51:12.37</time>
<name>2124</name>
</trkpt>
<trkpt lat="48.935445" lon="8.690577">
<ele>390.0</ele>
<speed>5.4</speed>
<course>47.5</course>
<desc>Speed 5.4 km/h Distance 3.07 km</desc>
<time>2010-02-28T10:51:13.37</time>
<name>2125</name>
</trkpt>
<trkpt lat="48.935455" lon="8.690593">
<ele>390.0</ele>
<speed>5.6</speed>
<course>41.2</course>
<desc>Speed 5.6 km/h Distance 3.08 km</desc>
<time>2010-02-28T10:51:14.37</time>
<name>2126</name>
</trkpt>
<trkpt lat="48.935465" lon="8.690607">
<ele>390.0</ele>
<speed>5.5</speed>
<course>36.9</course>
<desc>Speed 5.5 km/h Distance 3.08 km</desc>
<time>2010-02-28T10:51:15.37</time>
<name>2127</name>
</trkpt>
<trkpt lat="48.935477" lon="8.690620">
<ele>389.5</ele>
<speed>5.7</speed>
<course>36.9</course>
<desc>Speed 5.7 km/h Distance 3.08 km</desc>
<time>2010-02-28T10:51:16.37</time>
<name>2128</name>
</trkpt>
<trkpt lat="48.935488" lon="8.690633">
<ele>389.5</ele>
<speed>5.8</speed>
<course>37.0</course>
<desc>Speed 5.8 km/h Distance 3.08 km</desc>
<time>2010-02-28T10:51:17.37</time>
<name>2129</name>
</trkpt>
<trkpt lat="48.935500" lon="8.690647">
<ele>389.5</ele>
<speed>5.9</speed>
<course>40.2</course>
<desc>Speed 5.9 km/h Distance 3.08 km</desc>
<time>2010-02-28T10:51:18.37</time>
<name>2130</name>
</trkpt>
<trkpt lat="48.935512" lon="8.690662">
<ele>389.5</ele>
<speed>5.7</speed>
<course>36.9</course>
<desc>Speed 5.7 km/h Distance 3.08 km</desc>
<time>2010-02-28T10:51:19.37</time>
<name>2131</name>
</trkpt>
<trkpt lat="48.935523" lon="8.690675">
<ele>389.0</ele>
<speed>5.8</speed>
<course>36.9</course>
<desc>Speed 5.8 km/h Distance 3.08 km</desc>
<time>2010-02-28T10:51:20.37</time>
<name>2132</name>
</trkpt>
<trkpt lat="48.935535" lon="8.690688">
<ele>389.0</ele>
<speed>6.0</speed>
<course>40.2</course>
<desc>Speed 6.0 km/h Distance 3.09 km</desc>
<time>2010-02-28T10:51:21.37</time>
<name>2133</name>
</trkpt>
<trkpt lat="48.935547" lon="8.690703">
<ele>389.0</ele>
<speed>5.9</speed>
<course>47.7</course>
<desc>Speed 5.9 km/h Distance 3.09 km</desc>
<time>2010-02-28T10:51:22.37</time>
<name>2134</name>
</trkpt>
<trkpt lat="48.935557" lon="8.690720">
<ele>389.0</ele>
<speed>5.9</speed>
<course>44.7</course>
<desc>Speed 5.9 km/h Distance 3.09 km</desc>
<time>2010-02-28T10:51:23.37</time>
<name>2135</name>
</trkpt>
<trkpt lat="48.935567" lon="8.690735">
<ele>389.0</ele>
<speed>5.7</speed>
<course>40.4</course>
<desc>Speed 5.7 km/h Distance 3.09 km</desc>
<time>2010-02-28T10:51:24.37</time>
<name>2136</name>
</trkpt>
<trkpt lat="48.935578" lon="8.690750">
<ele>389.0</ele>
<speed>6.0</speed>
<course>36.9</course>
<desc>Speed 6.0 km/h Distance 3.09 km</desc>
<time>2010-02-28T10:51:25.37</time>
<name>2137</name>
</trkpt>
<trkpt lat="48.935590" lon="8.690763">
<ele>389.0</ele>
<speed>5.9</speed>
<course>29.8</course>
<desc>Speed 5.9 km/h Distance 3.09 km</desc>
<time>2010-02-28T10:51:26.37</time>
<name>2138</name>
</trkpt>
<trkpt lat="48.935603" lon="8.690775">
<ele>389.0</ele>
<speed>5.9</speed>
<course>33.3</course>
<desc>Speed 5.9 km/h Distance 3.10 km</desc>
<time>2010-02-28T10:51:27.37</time>
<name>2139</name>
</trkpt>
<trkpt lat="48.935617" lon="8.690788">
<ele>388.5</ele>
<speed>5.9</speed>
<course>40.2</course>
<desc>Speed 5.9 km/h Distance 3.10 km</desc>
<time>2010-02-28T10:51:28.37</time>
<name>2140</name>
</trkpt>
<trkpt lat="48.935628" lon="8.690803">
<ele>389.0</ele>
<speed>6.0</speed>
<course>33.4</course>
<desc>Speed 6.0 km/h Distance 3.10 km</desc>
<time>2010-02-28T10:51:29.37</time>
<name>2141</name>
</trkpt>
<trkpt lat="48.935642" lon="8.690817">
<ele>389.0</ele>
<speed>6.1</speed>
<course>40.2</course>
<desc>Speed 6.1 km/h Distance 3.10 km</desc>
<time>2010-02-28T10:51:30.37</time>
<name>2142</name>
</trkpt>
<trkpt lat="48.935653" lon="8.690832">
<ele>389.0</ele>
<speed>6.2</speed>
<course>39.4</course>
<desc>Speed 6.2 km/h Distance 3.10 km</desc>
<time>2010-02-28T10:51:31.37</time>
<name>2143</name>
</trkpt>
<trkpt lat="48.935667" lon="8.690848">
<ele>389.0</ele>
<speed>6.1</speed>
<course>43.3</course>
<desc>Speed 6.1 km/h Distance 3.11 km</desc>
<time>2010-02-28T10:51:32.37</time>
<name>2144</name>
</trkpt>
<trkpt lat="48.935678" lon="8.690865">
<ele>389.5</ele>
<speed>6.3</speed>
<course>37.0</course>
<desc>Speed 6.3 km/h Distance 3.11 km</desc>
<time>2010-02-28T10:51:33.37</time>
<name>2145</name>
</trkpt>
<trkpt lat="48.935690" lon="8.690878">
<ele>389.5</ele>
<speed>5.8</speed>
<course>36.6</course>
<desc>Speed 5.8 km/h Distance 3.11 km</desc>
<time>2010-02-28T10:51:34.37</time>
<name>2146</name>
</trkpt>
<trkpt lat="48.935703" lon="8.690893">
<ele>389.5</ele>
<speed>6.0</speed>
<course>40.1</course>
<desc>Speed 6.0 km/h Distance 3.11 km</desc>
<time>2010-02-28T10:51:35.37</time>
<name>2147</name>
</trkpt>
<trkpt lat="48.935715" lon="8.690908">
<ele>389.5</ele>
<speed>5.9</speed>
<course>43.2</course>
<desc>Speed 5.9 km/h Distance 3.11 km</desc>
<time>2010-02-28T10:51:36.37</time>
<name>2148</name>
</trkpt>
<trkpt lat="48.935727" lon="8.690925">
<ele>389.0</ele>
<speed>5.9</speed>
<course>45.9</course>
<desc>Speed 5.9 km/h Distance 3.11 km</desc>
<time>2010-02-28T10:51:37.37</time>
<name>2149</name>
</trkpt>
<trkpt lat="48.935738" lon="8.690943">
<ele>389.0</ele>
<speed>6.7</speed>
<course>40.2</course>
<desc>Speed 6.7 km/h Distance 3.12 km</desc>
<time>2010-02-28T10:51:38.37</time>
<name>2150</name>
</trkpt>
<trkpt lat="48.935750" lon="8.690958">
<ele>389.0</ele>
<speed>6.1</speed>
<course>40.4</course>
<desc>Speed 6.1 km/h Distance 3.12 km</desc>
<time>2010-02-28T10:51:39.37</time>
<name>2151</name>
</trkpt>
<trkpt lat="48.935762" lon="8.690973">
<ele>389.0</ele>
<speed>5.7</speed>
<course>40.2</course>
<desc>Speed 5.7 km/h Distance 3.12 km</desc>
<time>2010-02-28T10:51:40.37</time>
<name>2152</name>
</trkpt>
<trkpt lat="48.935773" lon="8.690988">
<ele>389.0</ele>
<speed>5.9</speed>
<course>47.5</course>
<desc>Speed 5.9 km/h Distance 3.12 km</desc>
<time>2010-02-28T10:51:41.37</time>
<name>2153</name>
</trkpt>
<trkpt lat="48.935783" lon="8.691005">
<ele>388.5</ele>
<speed>5.9</speed>
<course>40.2</course>
<desc>Speed 5.9 km/h Distance 3.12 km</desc>
<time>2010-02-28T10:51:42.37</time>
<name>2154</name>
</trkpt>
<trkpt lat="48.935795" lon="8.691020">
<ele>388.5</ele>
<speed>5.9</speed>
<course>44.6</course>
<desc>Speed 5.9 km/h Distance 3.12 km</desc>
<time>2010-02-28T10:51:43.36</time>
<name>2155</name>
</trkpt>
<trkpt lat="48.935805" lon="8.691035">
<ele>388.5</ele>
<speed>5.5</speed>
<course>64.6</course>
<desc>Speed 5.5 km/h Distance 3.13 km</desc>
<time>2010-02-28T10:51:44.46</time>
<name>2156</name>
</trkpt>
<trkpt lat="48.935813" lon="8.691062">
<ele>388.5</ele>
<speed>7.5</speed>
<course>47.6</course>
<desc>Speed 7.5 km/h Distance 3.13 km</desc>
<time>2010-02-28T10:51:45.38</time>
<name>2157</name>
</trkpt>
<trkpt lat="48.935823" lon="8.691078">
<ele>388.5</ele>
<speed>5.8</speed>
<course>43.3</course>
<desc>Speed 5.8 km/h Distance 3.13 km</desc>
<time>2010-02-28T10:51:46.52</time>
<name>2158</name>
</trkpt>
<trkpt lat="48.935835" lon="8.691095">
<ele>389.0</ele>
<speed>5.7</speed>
<course>40.3</course>
<desc>Speed 5.7 km/h Distance 3.13 km</desc>
<time>2010-02-28T10:51:47.47</time>
<name>2159</name>
</trkpt>
<trkpt lat="48.935847" lon="8.691110">
<ele>389.0</ele>
<speed>5.8</speed>
<course>36.9</course>
<desc>Speed 5.8 km/h Distance 3.13 km</desc>
<time>2010-02-28T10:51:48.47</time>
<name>2160</name>
</trkpt>
<trkpt lat="48.935858" lon="8.691123">
<ele>389.0</ele>
<speed>5.8</speed>
<course>43.2</course>
<desc>Speed 5.8 km/h Distance 3.13 km</desc>
<time>2010-02-28T10:51:49.47</time>
<name>2161</name>
</trkpt>
<trkpt lat="48.935870" lon="8.691140">
<ele>389.5</ele>
<speed>5.8</speed>
<course>41.4</course>
<desc>Speed 5.8 km/h Distance 3.14 km</desc>
<time>2010-02-28T10:51:50.47</time>
<name>2162</name>
</trkpt>
<trkpt lat="48.935880" lon="8.691153">
<ele>390.0</ele>
<speed>5.0</speed>
<course>46.6</course>
<desc>Speed 5.0 km/h Distance 3.14 km</desc>
<time>2010-02-28T10:51:51.47</time>
<name>2163</name>
</trkpt>
<trkpt lat="48.935888" lon="8.691167">
<ele>390.0</ele>
<speed>4.8</speed>
<course>61.0</course>
<desc>Speed 4.8 km/h Distance 3.14 km</desc>
<time>2010-02-28T10:51:52.47</time>
<name>2164</name>
</trkpt>
<trkpt lat="48.935895" lon="8.691185">
<ele>390.5</ele>
<speed>5.6</speed>
<course>46.5</course>
<desc>Speed 5.6 km/h Distance 3.14 km</desc>
<time>2010-02-28T10:51:53.47</time>
<name>2165</name>
</trkpt>
<trkpt lat="48.935903" lon="8.691198">
<ele>390.5</ele>
<speed>4.6</speed>
<course>46.4</course>
<desc>Speed 4.6 km/h Distance 3.14 km</desc>
<time>2010-02-28T10:51:54.47</time>
<name>2166</name>
</trkpt>
<trkpt lat="48.935912" lon="8.691212">
<ele>390.5</ele>
<speed>4.8</speed>
<course>33.3</course>
<desc>Speed 4.8 km/h Distance 3.14 km</desc>
<time>2010-02-28T10:51:55.48</time>
<name>2167</name>
</trkpt>
<trkpt lat="48.935923" lon="8.691223">
<ele>390.0</ele>
<speed>4.8</speed>
<course>33.3</course>
<desc>Speed 4.8 km/h Distance 3.15 km</desc>
<time>2010-02-28T10:51:56.47</time>
<name>2168</name>
</trkpt>
<trkpt lat="48.935935" lon="8.691235">
<ele>390.0</ele>
<speed>5.3</speed>
<course>36.1</course>
<desc>Speed 5.3 km/h Distance 3.15 km</desc>
<time>2010-02-28T10:51:57.47</time>
<name>2169</name>
</trkpt>
<trkpt lat="48.935950" lon="8.691252">
<ele>390.0</ele>
<speed>7.4</speed>
<course>52.7</course>
<desc>Speed 7.4 km/h Distance 3.15 km</desc>
<time>2010-02-28T10:51:58.47</time>
<name>2170</name>
</trkpt>
<trkpt lat="48.935958" lon="8.691268">
<ele>390.0</ele>
<speed>5.3</speed>
<course>36.9</course>
<desc>Speed 5.3 km/h Distance 3.15 km</desc>
<time>2010-02-28T10:51:59.47</time>
<name>2171</name>
</trkpt>
<trkpt lat="48.935970" lon="8.691282">
<ele>389.5</ele>
<speed>5.5</speed>
<course>30.3</course>
<desc>Speed 5.5 km/h Distance 3.15 km</desc>
<time>2010-02-28T10:52:00.47</time>
<name>2172</name>
</trkpt>
<trkpt lat="48.935985" lon="8.691295">
<ele>390.5</ele>
<speed>6.0</speed>
<course>52.7</course>
<desc>Speed 6.0 km/h Distance 3.15 km</desc>
<time>2010-02-28T10:52:01.47</time>
<name>2173</name>
</trkpt>
<trkpt lat="48.935993" lon="8.691312">
<ele>390.0</ele>
<speed>5.5</speed>
<course>49.8</course>
<desc>Speed 5.5 km/h Distance 3.16 km</desc>
<time>2010-02-28T10:52:02.47</time>
<name>2174</name>
</trkpt>
<trkpt lat="48.936002" lon="8.691327">
<ele>390.0</ele>
<speed>4.9</speed>
<course>47.6</course>
<desc>Speed 4.9 km/h Distance 3.16 km</desc>
<time>2010-02-28T10:52:03.47</time>
<name>2175</name>
</trkpt>
<trkpt lat="48.936012" lon="8.691343">
<ele>389.5</ele>
<speed>5.3</speed>
<course>42.6</course>
<desc>Speed 5.3 km/h Distance 3.16 km</desc>
<time>2010-02-28T10:52:04.47</time>
<name>2176</name>
</trkpt>
<trkpt lat="48.936020" lon="8.691355">
<ele>388.5</ele>
<speed>4.6</speed>
<course>21.2</course>
<desc>Speed 4.6 km/h Distance 3.16 km</desc>
<time>2010-02-28T10:52:05.47</time>
<name>2177</name>
</trkpt>
<trkpt lat="48.936057" lon="8.691377">
<ele>389.5</ele>
<speed>6.2</speed>
<course>37.2</course>
<desc>Speed 6.2 km/h Distance 3.16 km</desc>
<time>2010-02-28T10:52:06.99</time>
<name>2178</name>
</trkpt>
<trkpt lat="48.936078" lon="8.691402">
<ele>389.0</ele>
<speed>4.8</speed>
<course>46.6</course>
<desc>Speed 4.8 km/h Distance 3.17 km</desc>
<time>2010-02-28T10:52:08.97</time>
<name>2179</name>
</trkpt>
<trkpt lat="48.936087" lon="8.691415">
<ele>388.5</ele>
<speed>4.6</speed>
<course>33.4</course>
<desc>Speed 4.6 km/h Distance 3.17 km</desc>
<time>2010-02-28T10:52:09.98</time>
<name>2180</name>
</trkpt>
<trkpt lat="48.936098" lon="8.691427">
<ele>388.0</ele>
<speed>4.9</speed>
<course>41.2</course>
<desc>Speed 4.9 km/h Distance 3.17 km</desc>
<time>2010-02-28T10:52:11.47</time>
<name>2181</name>
</trkpt>
<trkpt lat="48.936118" lon="8.691453">
<ele>387.5</ele>
<speed>5.3</speed>
<course>37.5</course>
<desc>Speed 5.3 km/h Distance 3.17 km</desc>
<time>2010-02-28T10:52:12.97</time>
<name>2182</name>
</trkpt>
<trkpt lat="48.936128" lon="8.691465">
<ele>387.5</ele>
<speed>5.4</speed>
<course>36.9</course>
<desc>Speed 5.4 km/h Distance 3.17 km</desc>
<time>2010-02-28T10:52:13.97</time>
<name>2183</name>
</trkpt>
<trkpt lat="48.936140" lon="8.691478">
<ele>387.5</ele>
<speed>5.8</speed>
<course>44.5</course>
<desc>Speed 5.8 km/h Distance 3.18 km</desc>
<time>2010-02-28T10:52:14.97</time>
<name>2184</name>
</trkpt>
<trkpt lat="48.936150" lon="8.691493">
<ele>387.5</ele>
<speed>5.6</speed>
<course>47.6</course>
<desc>Speed 5.6 km/h Distance 3.18 km</desc>
<time>2010-02-28T10:52:15.97</time>
<name>2185</name>
</trkpt>
<trkpt lat="48.936160" lon="8.691510">
<ele>387.5</ele>
<speed>5.6</speed>
<course>33.2</course>
<desc>Speed 5.6 km/h Distance 3.18 km</desc>
<time>2010-02-28T10:52:16.97</time>
<name>2186</name>
</trkpt>
<trkpt lat="48.936170" lon="8.691520">
<ele>387.0</ele>
<speed>4.7</speed>
<course>41.2</course>
<desc>Speed 4.7 km/h Distance 3.18 km</desc>
<time>2010-02-28T10:52:17.97</time>
<name>2187</name>
</trkpt>
<trkpt lat="48.936180" lon="8.691533">
<ele>387.0</ele>
<speed>5.0</speed>
<course>37.3</course>
<desc>Speed 5.0 km/h Distance 3.18 km</desc>
<time>2010-02-28T10:52:18.97</time>
<name>2188</name>
</trkpt>
<trkpt lat="48.936190" lon="8.691545">
<ele>386.5</ele>
<speed>5.2</speed>
<course>49.8</course>
<desc>Speed 5.2 km/h Distance 3.18 km</desc>
<time>2010-02-28T10:52:19.98</time>
<name>2189</name>
</trkpt>
<trkpt lat="48.936198" lon="8.691560">
<ele>386.5</ele>
<speed>4.9</speed>
<course>30.1</course>
<desc>Speed 4.9 km/h Distance 3.18 km</desc>
<time>2010-02-28T10:52:21.47</time>
<name>2190</name>
</trkpt>
<trkpt lat="48.936212" lon="8.691572">
<ele>386.5</ele>
<speed>4.8</speed>
<course>41.2</course>
<desc>Speed 4.8 km/h Distance 3.19 km</desc>
<time>2010-02-28T10:52:22.47</time>
<name>2191</name>
</trkpt>
<trkpt lat="48.936232" lon="8.691598">
<ele>386.0</ele>
<speed>4.5</speed>
<course>33.2</course>
<desc>Speed 4.5 km/h Distance 3.19 km</desc>
<time>2010-02-28T10:52:23.97</time>
<name>2192</name>
</trkpt>
<trkpt lat="48.936242" lon="8.691608">
<ele>386.0</ele>
<speed>4.5</speed>
<course>37.2</course>
<desc>Speed 4.5 km/h Distance 3.19 km</desc>
<time>2010-02-28T10:52:24.98</time>
<name>2193</name>
</trkpt>
<trkpt lat="48.936263" lon="8.691633">
<ele>386.0</ele>
<speed>4.8</speed>
<course>41.2</course>
<desc>Speed 4.8 km/h Distance 3.19 km</desc>
<time>2010-02-28T10:52:26.97</time>
<name>2194</name>
</trkpt>
<trkpt lat="48.936273" lon="8.691647">
<ele>386.0</ele>
<speed>5.0</speed>
<course>36.9</course>
<desc>Speed 5.0 km/h Distance 3.20 km</desc>
<time>2010-02-28T10:52:27.97</time>
<name>2195</name>
</trkpt>
<trkpt lat="48.936285" lon="8.691660">
<ele>386.0</ele>
<speed>5.1</speed>
<course>49.7</course>
<desc>Speed 5.1 km/h Distance 3.20 km</desc>
<time>2010-02-28T10:52:28.96</time>
<name>2196</name>
</trkpt>
<trkpt lat="48.936293" lon="8.691675">
<ele>386.0</ele>
<speed>5.0</speed>
<course>37.5</course>
<desc>Speed 5.0 km/h Distance 3.20 km</desc>
<time>2010-02-28T10:52:29.96</time>
<name>2197</name>
</trkpt>
<trkpt lat="48.936303" lon="8.691687">
<ele>385.5</ele>
<speed>4.8</speed>
<course>37.5</course>
<desc>Speed 4.8 km/h Distance 3.20 km</desc>
<time>2010-02-28T10:52:30.96</time>
<name>2198</name>
</trkpt>
<trkpt lat="48.936313" lon="8.691698">
<ele>385.5</ele>
<speed>4.6</speed>
<course>29.4</course>
<desc>Speed 4.6 km/h Distance 3.20 km</desc>
<time>2010-02-28T10:52:31.96</time>
<name>2199</name>
</trkpt>
<trkpt lat="48.936325" lon="8.691708">
<ele>385.0</ele>
<speed>4.9</speed>
<course>33.4</course>
<desc>Speed 4.9 km/h Distance 3.20 km</desc>
<time>2010-02-28T10:52:32.96</time>
<name>2200</name>
</trkpt>
<trkpt lat="48.936337" lon="8.691720">
<ele>385.0</ele>
<speed>4.9</speed>
<course>29.4</course>
<desc>Speed 4.9 km/h Distance 3.20 km</desc>
<time>2010-02-28T10:52:33.96</time>
<name>2201</name>
</trkpt>
<trkpt lat="48.936348" lon="8.691730">
<ele>385.0</ele>
<speed>5.2</speed>
<course>37.0</course>
<desc>Speed 5.2 km/h Distance 3.21 km</desc>
<time>2010-02-28T10:52:34.96</time>
<name>2202</name>
</trkpt>
<trkpt lat="48.936360" lon="8.691743">
<ele>385.5</ele>
<speed>5.1</speed>
<course>29.8</course>
<desc>Speed 5.1 km/h Distance 3.21 km</desc>
<time>2010-02-28T10:52:35.97</time>
<name>2203</name>
</trkpt>
<trkpt lat="48.936373" lon="8.691755">
<ele>385.5</ele>
<speed>5.1</speed>
<course>33.4</course>
<desc>Speed 5.1 km/h Distance 3.21 km</desc>
<time>2010-02-28T10:52:36.96</time>
<name>2204</name>
</trkpt>
<trkpt lat="48.936385" lon="8.691767">
<ele>386.0</ele>
<speed>4.9</speed>
<course>27.0</course>
<desc>Speed 4.9 km/h Distance 3.21 km</desc>
<time>2010-02-28T10:52:37.97</time>
<name>2205</name>
</trkpt>
<trkpt lat="48.936400" lon="8.691778">
<ele>386.5</ele>
<speed>5.4</speed>
<course>29.8</course>
<desc>Speed 5.4 km/h Distance 3.21 km</desc>
<time>2010-02-28T10:52:38.96</time>
<name>2206</name>
</trkpt>
<trkpt lat="48.936413" lon="8.691790">
<ele>387.0</ele>
<speed>5.3</speed>
<course>28.1</course>
<desc>Speed 5.3 km/h Distance 3.21 km</desc>
<time>2010-02-28T10:52:39.97</time>
<name>2207</name>
</trkpt>
<trkpt lat="48.936440" lon="8.691812">
<ele>388.0</ele>
<speed>5.1</speed>
<course>27.2</course>
<desc>Speed 5.1 km/h Distance 3.22 km</desc>
<time>2010-02-28T10:52:41.97</time>
<name>2208</name>
</trkpt>
<trkpt lat="48.936455" lon="8.691823">
<ele>388.0</ele>
<speed>5.4</speed>
<course>22.6</course>
<desc>Speed 5.4 km/h Distance 3.22 km</desc>
<time>2010-02-28T10:52:42.96</time>
<name>2209</name>
</trkpt>
<trkpt lat="48.936468" lon="8.691832">
<ele>388.5</ele>
<speed>5.5</speed>
<course>19.9</course>
<desc>Speed 5.5 km/h Distance 3.22 km</desc>
<time>2010-02-28T10:52:43.96</time>
<name>2210</name>
</trkpt>
<trkpt lat="48.936483" lon="8.691840">
<ele>389.0</ele>
<speed>5.4</speed>
<course>26.0</course>
<desc>Speed 5.4 km/h Distance 3.22 km</desc>
<time>2010-02-28T10:52:44.95</time>
<name>2211</name>
</trkpt>
<trkpt lat="48.936497" lon="8.691850">
<ele>389.0</ele>
<speed>5.4</speed>
<course>26.0</course>
<desc>Speed 5.4 km/h Distance 3.22 km</desc>
<time>2010-02-28T10:52:45.95</time>
<name>2212</name>
</trkpt>
<trkpt lat="48.936510" lon="8.691860">
<ele>389.5</ele>
<speed>5.3</speed>
<course>33.1</course>
<desc>Speed 5.3 km/h Distance 3.23 km</desc>
<time>2010-02-28T10:52:46.95</time>
<name>2213</name>
</trkpt>
<trkpt lat="48.936522" lon="8.691872">
<ele>389.5</ele>
<speed>5.1</speed>
<course>26.0</course>
<desc>Speed 5.1 km/h Distance 3.23 km</desc>
<time>2010-02-28T10:52:47.95</time>
<name>2214</name>
</trkpt>
<trkpt lat="48.936535" lon="8.691882">
<ele>390.0</ele>
<speed>5.1</speed>
<course>24.6</course>
<desc>Speed 5.1 km/h Distance 3.23 km</desc>
<time>2010-02-28T10:52:48.95</time>
<name>2215</name>
</trkpt>
<trkpt lat="48.936547" lon="8.691890">
<ele>390.0</ele>
<speed>5.4</speed>
<course>13.5</course>
<desc>Speed 5.4 km/h Distance 3.23 km</desc>
<time>2010-02-28T10:52:49.95</time>
<name>2216</name>
</trkpt>
<trkpt lat="48.936560" lon="8.691895">
<ele>390.0</ele>
<speed>5.2</speed>
<course>9.7</course>
<desc>Speed 5.2 km/h Distance 3.23 km</desc>
<time>2010-02-28T10:52:50.95</time>
<name>2217</name>
</trkpt>
<trkpt lat="48.936573" lon="8.691898">
<ele>390.5</ele>
<speed>5.2</speed>
<course>3.8</course>
<desc>Speed 5.2 km/h Distance 3.23 km</desc>
<time>2010-02-28T10:52:51.95</time>
<name>2218</name>
</trkpt>
<trkpt lat="48.936588" lon="8.691900">
<ele>390.5</ele>
<speed>5.4</speed>
<course>9.0</course>
<desc>Speed 5.4 km/h Distance 3.24 km</desc>
<time>2010-02-28T10:52:52.95</time>
<name>2219</name>
</trkpt>
<trkpt lat="48.936602" lon="8.691903">
<ele>391.0</ele>
<speed>5.3</speed>
<course>3.8</course>
<desc>Speed 5.3 km/h Distance 3.24 km</desc>
<time>2010-02-28T10:52:53.96</time>
<name>2220</name>
</trkpt>
<trkpt lat="48.936617" lon="8.691905">
<ele>391.0</ele>
<speed>5.1</speed>
<course>1.2</course>
<desc>Speed 5.1 km/h Distance 3.24 km</desc>
<time>2010-02-28T10:52:54.95</time>
<name>2221</name>
</trkpt>
<trkpt lat="48.936630" lon="8.691905">
<ele>391.5</ele>
<speed>5.0</speed>
<course>356.1</course>
<desc>Speed 5.0 km/h Distance 3.24 km</desc>
<time>2010-02-28T10:52:55.95</time>
<name>2222</name>
</trkpt>
<trkpt lat="48.936643" lon="8.691903">
<ele>391.5</ele>
<speed>5.2</speed>
<course>355.9</course>
<desc>Speed 5.2 km/h Distance 3.24 km</desc>
<time>2010-02-28T10:52:57.16</time>
<name>2223</name>
</trkpt>
<trkpt lat="48.936673" lon="8.691900">
<ele>392.0</ele>
<speed>5.1</speed>
<course>354.7</course>
<desc>Speed 5.1 km/h Distance 3.25 km</desc>
<time>2010-02-28T10:52:58.95</time>
<name>2224</name>
</trkpt>
<trkpt lat="48.936687" lon="8.691898">
<ele>392.5</ele>
<speed>5.3</speed>
<course>356.2</course>
<desc>Speed 5.3 km/h Distance 3.25 km</desc>
<time>2010-02-28T10:52:59.95</time>
<name>2225</name>
</trkpt>
<trkpt lat="48.936702" lon="8.691897">
<ele>393.0</ele>
<speed>5.3</speed>
<course>346.5</course>
<desc>Speed 5.3 km/h Distance 3.25 km</desc>
<time>2010-02-28T10:53:00.95</time>
<name>2226</name>
</trkpt>
<trkpt lat="48.936715" lon="8.691892">
<ele>393.0</ele>
<speed>5.4</speed>
<course>352.3</course>
<desc>Speed 5.4 km/h Distance 3.25 km</desc>
<time>2010-02-28T10:53:01.95</time>
<name>2227</name>
</trkpt>
<trkpt lat="48.936732" lon="8.691888">
<ele>393.5</ele>
<speed>5.4</speed>
<course>349.7</course>
<desc>Speed 5.4 km/h Distance 3.25 km</desc>
<time>2010-02-28T10:53:02.95</time>
<name>2228</name>
</trkpt>
<trkpt lat="48.936745" lon="8.691885">
<ele>393.5</ele>
<speed>5.2</speed>
<course>356.2</course>
<desc>Speed 5.2 km/h Distance 3.25 km</desc>
<time>2010-02-28T10:53:03.95</time>
<name>2229</name>
</trkpt>
<trkpt lat="48.936760" lon="8.691883">
<ele>394.0</ele>
<speed>5.4</speed>
<course>354.7</course>
<desc>Speed 5.4 km/h Distance 3.25 km</desc>
<time>2010-02-28T10:53:04.95</time>
<name>2230</name>
</trkpt>
<trkpt lat="48.936773" lon="8.691882">
<ele>394.0</ele>
<speed>5.2</speed>
<course>351.9</course>
<desc>Speed 5.2 km/h Distance 3.26 km</desc>
<time>2010-02-28T10:53:05.95</time>
<name>2231</name>
</trkpt>
<trkpt lat="48.936788" lon="8.691878">
<ele>394.0</ele>
<speed>5.2</speed>
<course>351.0</course>
<desc>Speed 5.2 km/h Distance 3.26 km</desc>
<time>2010-02-28T10:53:06.95</time>
<name>2232</name>
</trkpt>
<trkpt lat="48.936802" lon="8.691875">
<ele>394.0</ele>
<speed>5.1</speed>
<course>343.7</course>
<desc>Speed 5.1 km/h Distance 3.26 km</desc>
<time>2010-02-28T10:53:07.95</time>
<name>2233</name>
</trkpt>
<trkpt lat="48.936817" lon="8.691868">
<ele>394.0</ele>
<speed>5.1</speed>
<course>346.5</course>
<desc>Speed 5.1 km/h Distance 3.26 km</desc>
<time>2010-02-28T10:53:08.95</time>
<name>2234</name>
</trkpt>
<trkpt lat="48.936830" lon="8.691863">
<ele>394.0</ele>
<speed>5.1</speed>
<course>347.8</course>
<desc>Speed 5.1 km/h Distance 3.26 km</desc>
<time>2010-02-28T10:53:09.95</time>
<name>2235</name>
</trkpt>
<trkpt lat="48.936845" lon="8.691858">
<ele>394.0</ele>
<speed>5.3</speed>
<course>351.0</course>
<desc>Speed 5.3 km/h Distance 3.26 km</desc>
<time>2010-02-28T10:53:10.96</time>
<name>2236</name>
</trkpt>
<trkpt lat="48.936858" lon="8.691855">
<ele>394.0</ele>
<speed>5.0</speed>
<course>350.3</course>
<desc>Speed 5.0 km/h Distance 3.27 km</desc>
<time>2010-02-28T10:53:11.95</time>
<name>2237</name>
</trkpt>
<trkpt lat="48.936872" lon="8.691852">
<ele>394.0</ele>
<speed>5.1</speed>
<course>346.5</course>
<desc>Speed 5.1 km/h Distance 3.27 km</desc>
<time>2010-02-28T10:53:12.95</time>
<name>2238</name>
</trkpt>
<trkpt lat="48.936885" lon="8.691847">
<ele>394.0</ele>
<speed>5.3</speed>
<course>350.3</course>
<desc>Speed 5.3 km/h Distance 3.27 km</desc>
<time>2010-02-28T10:53:13.95</time>
<name>2239</name>
</trkpt>
<trkpt lat="48.936898" lon="8.691843">
<ele>394.0</ele>
<speed>5.3</speed>
<course>350.3</course>
<desc>Speed 5.3 km/h Distance 3.27 km</desc>
<time>2010-02-28T10:53:14.95</time>
<name>2240</name>
</trkpt>
<trkpt lat="48.936912" lon="8.691840">
<ele>394.0</ele>
<speed>5.3</speed>
<course>356.2</course>
<desc>Speed 5.3 km/h Distance 3.27 km</desc>
<time>2010-02-28T10:53:15.96</time>
<name>2241</name>
</trkpt>
<trkpt lat="48.936927" lon="8.691838">
<ele>394.0</ele>
<speed>5.3</speed>
<course>356.1</course>
<desc>Speed 5.3 km/h Distance 3.27 km</desc>
<time>2010-02-28T10:53:16.95</time>
<name>2242</name>
</trkpt>
<trkpt lat="48.936940" lon="8.691837">
<ele>394.0</ele>
<speed>5.2</speed>
<course>356.2</course>
<desc>Speed 5.2 km/h Distance 3.28 km</desc>
<time>2010-02-28T10:53:17.94</time>
<name>2243</name>
</trkpt>
<trkpt lat="48.936955" lon="8.691835">
<ele>394.0</ele>
<speed>5.4</speed>
<course>9.7</course>
<desc>Speed 5.4 km/h Distance 3.28 km</desc>
<time>2010-02-28T10:53:18.94</time>
<name>2244</name>
</trkpt>
<trkpt lat="48.936968" lon="8.691838">
<ele>394.0</ele>
<speed>5.4</speed>
<course>9.0</course>
<desc>Speed 5.4 km/h Distance 3.28 km</desc>
<time>2010-02-28T10:53:19.94</time>
<name>2245</name>
</trkpt>
<trkpt lat="48.936982" lon="8.691842">
<ele>394.0</ele>
<speed>5.3</speed>
<course>14.0</course>
<desc>Speed 5.3 km/h Distance 3.28 km</desc>
<time>2010-02-28T10:53:20.94</time>
<name>2246</name>
</trkpt>
<trkpt lat="48.936995" lon="8.691847">
<ele>394.5</ele>
<speed>5.3</speed>
<course>9.0</course>
<desc>Speed 5.3 km/h Distance 3.28 km</desc>
<time>2010-02-28T10:53:21.94</time>
<name>2247</name>
</trkpt>
<trkpt lat="48.937008" lon="8.691850">
<ele>394.5</ele>
<speed>5.4</speed>
<course>11.7</course>
<desc>Speed 5.4 km/h Distance 3.28 km</desc>
<time>2010-02-28T10:53:22.94</time>
<name>2248</name>
</trkpt>
<trkpt lat="48.937023" lon="8.691855">
<ele>395.0</ele>
<speed>5.3</speed>
<course>18.4</course>
<desc>Speed 5.3 km/h Distance 3.28 km</desc>
<time>2010-02-28T10:53:23.94</time>
<name>2249</name>
</trkpt>
<trkpt lat="48.937037" lon="8.691862">
<ele>395.0</ele>
<speed>5.4</speed>
<course>14.4</course>
<desc>Speed 5.4 km/h Distance 3.29 km</desc>
<time>2010-02-28T10:53:24.94</time>
<name>2250</name>
</trkpt>
<trkpt lat="48.937050" lon="8.691867">
<ele>395.0</ele>
<speed>5.4</speed>
<course>14.0</course>
<desc>Speed 5.4 km/h Distance 3.29 km</desc>
<time>2010-02-28T10:53:25.94</time>
<name>2251</name>
</trkpt>
<trkpt lat="48.937063" lon="8.691872">
<ele>395.0</ele>
<speed>5.5</speed>
<course>13.5</course>
<desc>Speed 5.5 km/h Distance 3.29 km</desc>
<time>2010-02-28T10:53:26.94</time>
<name>2252</name>
</trkpt>
<trkpt lat="48.937077" lon="8.691877">
<ele>395.0</ele>
<speed>5.4</speed>
<course>13.5</course>
<desc>Speed 5.4 km/h Distance 3.29 km</desc>
<time>2010-02-28T10:53:27.94</time>
<name>2253</name>
</trkpt>
<trkpt lat="48.937090" lon="8.691882">
<ele>395.5</ele>
<speed>5.5</speed>
<course>7.5</course>
<desc>Speed 5.5 km/h Distance 3.29 km</desc>
<time>2010-02-28T10:53:28.94</time>
<name>2254</name>
</trkpt>
<trkpt lat="48.937105" lon="8.691885">
<ele>395.5</ele>
<speed>5.4</speed>
<course>13.5</course>
<desc>Speed 5.4 km/h Distance 3.29 km</desc>
<time>2010-02-28T10:53:29.94</time>
<name>2255</name>
</trkpt>
<trkpt lat="48.937118" lon="8.691890">
<ele>395.5</ele>
<speed>5.2</speed>
<course>12.6</course>
<desc>Speed 5.2 km/h Distance 3.30 km</desc>
<time>2010-02-28T10:53:30.94</time>
<name>2256</name>
</trkpt>
<trkpt lat="48.937133" lon="8.691895">
<ele>395.5</ele>
<speed>5.7</speed>
<course>13.5</course>
<desc>Speed 5.7 km/h Distance 3.30 km</desc>
<time>2010-02-28T10:53:31.94</time>
<name>2257</name>
</trkpt>
<trkpt lat="48.937147" lon="8.691900">
<ele>395.0</ele>
<speed>5.4</speed>
<course>18.1</course>
<desc>Speed 5.4 km/h Distance 3.30 km</desc>
<time>2010-02-28T10:53:32.94</time>
<name>2258</name>
</trkpt>
<trkpt lat="48.937160" lon="8.691907">
<ele>395.0</ele>
<speed>5.4</speed>
<course>22.1</course>
<desc>Speed 5.4 km/h Distance 3.30 km</desc>
<time>2010-02-28T10:53:33.94</time>
<name>2259</name>
</trkpt>
<trkpt lat="48.937173" lon="8.691915">
<ele>395.0</ele>
<speed>5.5</speed>
<course>13.5</course>
<desc>Speed 5.5 km/h Distance 3.30 km</desc>
<time>2010-02-28T10:53:34.94</time>
<name>2260</name>
</trkpt>
<trkpt lat="48.937187" lon="8.691920">
<ele>395.0</ele>
<speed>5.4</speed>
<course>16.3</course>
<desc>Speed 5.4 km/h Distance 3.30 km</desc>
<time>2010-02-28T10:53:35.94</time>
<name>2261</name>
</trkpt>
<trkpt lat="48.937202" lon="8.691927">
<ele>395.0</ele>
<speed>5.7</speed>
<course>22.3</course>
<desc>Speed 5.7 km/h Distance 3.31 km</desc>
<time>2010-02-28T10:53:36.94</time>
<name>2262</name>
</trkpt>
<trkpt lat="48.937215" lon="8.691935">
<ele>395.0</ele>
<speed>5.6</speed>
<course>16.0</course>
<desc>Speed 5.6 km/h Distance 3.31 km</desc>
<time>2010-02-28T10:53:37.95</time>
<name>2263</name>
</trkpt>
<trkpt lat="48.937230" lon="8.691942">
<ele>395.0</ele>
<speed>5.8</speed>
<course>18.1</course>
<desc>Speed 5.8 km/h Distance 3.31 km</desc>
<time>2010-02-28T10:53:38.94</time>
<name>2264</name>
</trkpt>
<trkpt lat="48.937243" lon="8.691948">
<ele>395.0</ele>
<speed>5.5</speed>
<course>22.3</course>
<desc>Speed 5.5 km/h Distance 3.31 km</desc>
<time>2010-02-28T10:53:39.94</time>
<name>2265</name>
</trkpt>
<trkpt lat="48.937257" lon="8.691957">
<ele>395.0</ele>
<speed>5.5</speed>
<course>18.4</course>
<desc>Speed 5.5 km/h Distance 3.31 km</desc>
<time>2010-02-28T10:53:40.94</time>
<name>2266</name>
</trkpt>
<trkpt lat="48.937270" lon="8.691963">
<ele>395.0</ele>
<speed>5.6</speed>
<course>18.1</course>
<desc>Speed 5.6 km/h Distance 3.31 km</desc>
<time>2010-02-28T10:53:41.94</time>
<name>2267</name>
</trkpt>
<trkpt lat="48.937283" lon="8.691970">
<ele>395.0</ele>
<speed>5.7</speed>
<course>18.8</course>
<desc>Speed 5.7 km/h Distance 3.31 km</desc>
<time>2010-02-28T10:53:42.94</time>
<name>2268</name>
</trkpt>
<trkpt lat="48.937297" lon="8.691977">
<ele>395.0</ele>
<speed>5.5</speed>
<course>20.9</course>
<desc>Speed 5.5 km/h Distance 3.32 km</desc>
<time>2010-02-28T10:53:43.94</time>
<name>2269</name>
</trkpt>
<trkpt lat="48.937308" lon="8.691983">
<ele>395.0</ele>
<speed>5.4</speed>
<course>22.1</course>
<desc>Speed 5.4 km/h Distance 3.32 km</desc>
<time>2010-02-28T10:53:44.94</time>
<name>2270</name>
</trkpt>
<trkpt lat="48.937322" lon="8.691992">
<ele>394.5</ele>
<speed>5.5</speed>
<course>26.0</course>
<desc>Speed 5.5 km/h Distance 3.32 km</desc>
<time>2010-02-28T10:53:45.94</time>
<name>2271</name>
</trkpt>
<trkpt lat="48.937335" lon="8.692002">
<ele>394.5</ele>
<speed>5.7</speed>
<course>18.4</course>
<desc>Speed 5.7 km/h Distance 3.32 km</desc>
<time>2010-02-28T10:53:46.94</time>
<name>2272</name>
</trkpt>
<trkpt lat="48.937348" lon="8.692008">
<ele>394.5</ele>
<speed>5.5</speed>
<course>22.3</course>
<desc>Speed 5.5 km/h Distance 3.32 km</desc>
<time>2010-02-28T10:53:47.93</time>
<name>2273</name>
</trkpt>
<trkpt lat="48.937362" lon="8.692017">
<ele>394.5</ele>
<speed>5.6</speed>
<course>25.2</course>
<desc>Speed 5.6 km/h Distance 3.32 km</desc>
<time>2010-02-28T10:53:48.93</time>
<name>2274</name>
</trkpt>
<trkpt lat="48.937373" lon="8.692025">
<ele>394.5</ele>
<speed>5.6</speed>
<course>22.1</course>
<desc>Speed 5.6 km/h Distance 3.33 km</desc>
<time>2010-02-28T10:53:49.93</time>
<name>2275</name>
</trkpt>
<trkpt lat="48.937387" lon="8.692033">
<ele>394.5</ele>
<speed>5.6</speed>
<course>22.6</course>
<desc>Speed 5.6 km/h Distance 3.33 km</desc>
<time>2010-02-28T10:53:50.93</time>
<name>2276</name>
</trkpt>
<trkpt lat="48.937400" lon="8.692042">
<ele>394.0</ele>
<speed>5.8</speed>
<course>22.6</course>
<desc>Speed 5.8 km/h Distance 3.33 km</desc>
<time>2010-02-28T10:53:51.94</time>
<name>2277</name>
</trkpt>
<trkpt lat="48.937413" lon="8.692050">
<ele>394.0</ele>
<speed>5.5</speed>
<course>25.2</course>
<desc>Speed 5.5 km/h Distance 3.33 km</desc>
<time>2010-02-28T10:53:52.93</time>
<name>2278</name>
</trkpt>
<trkpt lat="48.937425" lon="8.692058">
<ele>394.0</ele>
<speed>5.4</speed>
<course>24.9</course>
<desc>Speed 5.4 km/h Distance 3.33 km</desc>
<time>2010-02-28T10:53:53.94</time>
<name>2279</name>
</trkpt>
<trkpt lat="48.937437" lon="8.692067">
<ele>394.0</ele>
<speed>5.5</speed>
<course>18.4</course>
<desc>Speed 5.5 km/h Distance 3.33 km</desc>
<time>2010-02-28T10:53:54.93</time>
<name>2280</name>
</trkpt>
<trkpt lat="48.937450" lon="8.692073">
<ele>394.0</ele>
<speed>5.4</speed>
<course>25.2</course>
<desc>Speed 5.4 km/h Distance 3.33 km</desc>
<time>2010-02-28T10:53:55.93</time>
<name>2281</name>
</trkpt>
<trkpt lat="48.937462" lon="8.692082">
<ele>394.0</ele>
<speed>5.5</speed>
<course>22.1</course>
<desc>Speed 5.5 km/h Distance 3.34 km</desc>
<time>2010-02-28T10:53:56.94</time>
<name>2282</name>
</trkpt>
<trkpt lat="48.937475" lon="8.692090">
<ele>394.0</ele>
<speed>5.6</speed>
<course>22.1</course>
<desc>Speed 5.6 km/h Distance 3.34 km</desc>
<time>2010-02-28T10:53:57.93</time>
<name>2283</name>
</trkpt>
<trkpt lat="48.937488" lon="8.692098">
<ele>394.0</ele>
<speed>5.5</speed>
<course>25.2</course>
<desc>Speed 5.5 km/h Distance 3.34 km</desc>
<time>2010-02-28T10:53:58.93</time>
<name>2284</name>
</trkpt>
<trkpt lat="48.937500" lon="8.692107">
<ele>393.5</ele>
<speed>5.2</speed>
<course>22.3</course>
<desc>Speed 5.2 km/h Distance 3.34 km</desc>
<time>2010-02-28T10:53:59.93</time>
<name>2285</name>
</trkpt>
<trkpt lat="48.937513" lon="8.692115">
<ele>393.5</ele>
<speed>5.6</speed>
<course>22.3</course>
<desc>Speed 5.6 km/h Distance 3.34 km</desc>
<time>2010-02-28T10:54:00.93</time>
<name>2286</name>
</trkpt>
<trkpt lat="48.937527" lon="8.692123">
<ele>393.5</ele>
<speed>5.4</speed>
<course>20.2</course>
<desc>Speed 5.4 km/h Distance 3.34 km</desc>
<time>2010-02-28T10:54:01.92</time>
<name>2287</name>
</trkpt>
<trkpt lat="48.937538" lon="8.692130">
<ele>393.5</ele>
<speed>5.5</speed>
<course>20.1</course>
<desc>Speed 5.5 km/h Distance 3.35 km</desc>
<time>2010-02-28T10:54:02.93</time>
<name>2288</name>
</trkpt>
<trkpt lat="48.937553" lon="8.692138">
<ele>393.5</ele>
<speed>5.8</speed>
<course>18.1</course>
<desc>Speed 5.8 km/h Distance 3.35 km</desc>
<time>2010-02-28T10:54:03.93</time>
<name>2289</name>
</trkpt>
<trkpt lat="48.937567" lon="8.692145">
<ele>393.5</ele>
<speed>6.0</speed>
<course>19.9</course>
<desc>Speed 6.0 km/h Distance 3.35 km</desc>
<time>2010-02-28T10:54:04.93</time>
<name>2290</name>
</trkpt>
<trkpt lat="48.937582" lon="8.692153">
<ele>393.5</ele>
<speed>6.0</speed>
<course>22.1</course>
<desc>Speed 6.0 km/h Distance 3.35 km</desc>
<time>2010-02-28T10:54:05.93</time>
<name>2291</name>
</trkpt>
<trkpt lat="48.937595" lon="8.692162">
<ele>393.5</ele>
<speed>5.8</speed>
<course>18.1</course>
<desc>Speed 5.8 km/h Distance 3.35 km</desc>
<time>2010-02-28T10:54:06.93</time>
<name>2292</name>
</trkpt>
<trkpt lat="48.937608" lon="8.692168">
<ele>393.5</ele>
<speed>5.9</speed>
<course>22.3</course>
<desc>Speed 5.9 km/h Distance 3.35 km</desc>
<time>2010-02-28T10:54:07.93</time>
<name>2293</name>
</trkpt>
<trkpt lat="48.937622" lon="8.692177">
<ele>393.5</ele>
<speed>5.7</speed>
<course>22.3</course>
<desc>Speed 5.7 km/h Distance 3.36 km</desc>
<time>2010-02-28T10:54:08.92</time>
<name>2294</name>
</trkpt>
<trkpt lat="48.937635" lon="8.692185">
<ele>393.5</ele>
<speed>5.8</speed>
<course>18.1</course>
<desc>Speed 5.8 km/h Distance 3.36 km</desc>
<time>2010-02-28T10:54:09.93</time>
<name>2295</name>
</trkpt>
<trkpt lat="48.937648" lon="8.692192">
<ele>393.5</ele>
<speed>5.5</speed>
<course>13.5</course>
<desc>Speed 5.5 km/h Distance 3.36 km</desc>
<time>2010-02-28T10:54:10.93</time>
<name>2296</name>
</trkpt>
<trkpt lat="48.937662" lon="8.692197">
<ele>393.5</ele>
<speed>5.7</speed>
<course>12.6</course>
<desc>Speed 5.7 km/h Distance 3.36 km</desc>
<time>2010-02-28T10:54:11.92</time>
<name>2297</name>
</trkpt>
<trkpt lat="48.937677" lon="8.692202">
<ele>393.5</ele>
<speed>5.8</speed>
<course>12.6</course>
<desc>Speed 5.8 km/h Distance 3.36 km</desc>
<time>2010-02-28T10:54:12.92</time>
<name>2298</name>
</trkpt>
<trkpt lat="48.937692" lon="8.692207">
<ele>393.0</ele>
<speed>5.9</speed>
<course>16.3</course>
<desc>Speed 5.9 km/h Distance 3.36 km</desc>
<time>2010-02-28T10:54:13.93</time>
<name>2299</name>
</trkpt>
<trkpt lat="48.937707" lon="8.692213">
<ele>393.0</ele>
<speed>5.9</speed>
<course>18.1</course>
<desc>Speed 5.9 km/h Distance 3.37 km</desc>
<time>2010-02-28T10:54:14.92</time>
<name>2300</name>
</trkpt>
<trkpt lat="48.937720" lon="8.692220">
<ele>393.0</ele>
<speed>5.8</speed>
<course>18.1</course>
<desc>Speed 5.8 km/h Distance 3.37 km</desc>
<time>2010-02-28T10:54:15.92</time>
<name>2301</name>
</trkpt>
<trkpt lat="48.937733" lon="8.692227">
<ele>393.0</ele>
<speed>5.8</speed>
<course>19.9</course>
<desc>Speed 5.8 km/h Distance 3.37 km</desc>
<time>2010-02-28T10:54:16.92</time>
<name>2302</name>
</trkpt>
<trkpt lat="48.937748" lon="8.692235">
<ele>393.0</ele>
<speed>5.7</speed>
<course>22.1</course>
<desc>Speed 5.7 km/h Distance 3.37 km</desc>
<time>2010-02-28T10:54:17.92</time>
<name>2303</name>
</trkpt>
<trkpt lat="48.937762" lon="8.692243">
<ele>393.0</ele>
<speed>5.9</speed>
<course>22.3</course>
<desc>Speed 5.9 km/h Distance 3.37 km</desc>
<time>2010-02-28T10:54:18.92</time>
<name>2304</name>
</trkpt>
<trkpt lat="48.937775" lon="8.692252">
<ele>392.5</ele>
<speed>5.8</speed>
<course>20.1</course>
<desc>Speed 5.8 km/h Distance 3.37 km</desc>
<time>2010-02-28T10:54:19.92</time>
<name>2305</name>
</trkpt>
<trkpt lat="48.937790" lon="8.692260">
<ele>392.5</ele>
<speed>5.9</speed>
<course>22.6</course>
<desc>Speed 5.9 km/h Distance 3.38 km</desc>
<time>2010-02-28T10:54:20.92</time>
<name>2306</name>
</trkpt>
<trkpt lat="48.937803" lon="8.692268">
<ele>392.5</ele>
<speed>5.7</speed>
<course>26.4</course>
<desc>Speed 5.7 km/h Distance 3.38 km</desc>
<time>2010-02-28T10:54:21.93</time>
<name>2307</name>
</trkpt>
<trkpt lat="48.937817" lon="8.692278">
<ele>392.5</ele>
<speed>6.1</speed>
<course>20.1</course>
<desc>Speed 6.1 km/h Distance 3.38 km</desc>
<time>2010-02-28T10:54:22.92</time>
<name>2308</name>
</trkpt>
<trkpt lat="48.937832" lon="8.692287">
<ele>392.5</ele>
<speed>6.1</speed>
<course>26.0</course>
<desc>Speed 6.1 km/h Distance 3.38 km</desc>
<time>2010-02-28T10:54:23.92</time>
<name>2309</name>
</trkpt>
<trkpt lat="48.937845" lon="8.692297">
<ele>392.5</ele>
<speed>5.7</speed>
<course>18.8</course>
<desc>Speed 5.7 km/h Distance 3.38 km</desc>
<time>2010-02-28T10:54:24.92</time>
<name>2310</name>
</trkpt>
<trkpt lat="48.937858" lon="8.692303">
<ele>392.5</ele>
<speed>5.6</speed>
<course>20.3</course>
<desc>Speed 5.6 km/h Distance 3.38 km</desc>
<time>2010-02-28T10:54:25.92</time>
<name>2311</name>
</trkpt>
<trkpt lat="48.937873" lon="8.692312">
<ele>392.5</ele>
<speed>5.8</speed>
<course>18.4</course>
<desc>Speed 5.8 km/h Distance 3.39 km</desc>
<time>2010-02-28T10:54:26.92</time>
<name>2312</name>
</trkpt>
<trkpt lat="48.937887" lon="8.692318">
<ele>392.5</ele>
<speed>5.8</speed>
<course>12.2</course>
<desc>Speed 5.8 km/h Distance 3.39 km</desc>
<time>2010-02-28T10:54:27.92</time>
<name>2313</name>
</trkpt>
<trkpt lat="48.937902" lon="8.692323">
<ele>392.5</ele>
<speed>5.9</speed>
<course>11.7</course>
<desc>Speed 5.9 km/h Distance 3.39 km</desc>
<time>2010-02-28T10:54:28.92</time>
<name>2314</name>
</trkpt>
<trkpt lat="48.937917" lon="8.692328">
<ele>392.5</ele>
<speed>5.9</speed>
<course>18.1</course>
<desc>Speed 5.9 km/h Distance 3.39 km</desc>
<time>2010-02-28T10:54:29.91</time>
<name>2315</name>
</trkpt>
<trkpt lat="48.937930" lon="8.692335">
<ele>392.5</ele>
<speed>5.7</speed>
<course>18.1</course>
<desc>Speed 5.7 km/h Distance 3.39 km</desc>
<time>2010-02-28T10:54:30.91</time>
<name>2316</name>
</trkpt>
<trkpt lat="48.937943" lon="8.692342">
<ele>392.5</ele>
<speed>5.7</speed>
<course>16.6</course>
<desc>Speed 5.7 km/h Distance 3.39 km</desc>
<time>2010-02-28T10:54:31.91</time>
<name>2317</name>
</trkpt>
<trkpt lat="48.937958" lon="8.692348">
<ele>392.5</ele>
<speed>5.8</speed>
<course>18.1</course>
<desc>Speed 5.8 km/h Distance 3.40 km</desc>
<time>2010-02-28T10:54:32.91</time>
<name>2318</name>
</trkpt>
<trkpt lat="48.937972" lon="8.692355">
<ele>392.5</ele>
<speed>5.8</speed>
<course>16.3</course>
<desc>Speed 5.8 km/h Distance 3.40 km</desc>
<time>2010-02-28T10:54:33.91</time>
<name>2319</name>
</trkpt>
<trkpt lat="48.937987" lon="8.692362">
<ele>392.5</ele>
<speed>5.9</speed>
<course>18.1</course>
<desc>Speed 5.9 km/h Distance 3.40 km</desc>
<time>2010-02-28T10:54:34.92</time>
<name>2320</name>
</trkpt>
<trkpt lat="48.938000" lon="8.692368">
<ele>392.5</ele>
<speed>5.5</speed>
<course>22.3</course>
<desc>Speed 5.5 km/h Distance 3.40 km</desc>
<time>2010-02-28T10:54:35.91</time>
<name>2321</name>
</trkpt>
<trkpt lat="48.938013" lon="8.692377">
<ele>392.5</ele>
<speed>5.8</speed>
<course>22.1</course>
<desc>Speed 5.8 km/h Distance 3.40 km</desc>
<time>2010-02-28T10:54:36.91</time>
<name>2322</name>
</trkpt>
<trkpt lat="48.938027" lon="8.692385">
<ele>392.5</ele>
<speed>5.7</speed>
<course>18.1</course>
<desc>Speed 5.7 km/h Distance 3.40 km</desc>
<time>2010-02-28T10:54:37.91</time>
<name>2323</name>
</trkpt>
<trkpt lat="48.938040" lon="8.692392">
<ele>392.5</ele>
<speed>5.9</speed>
<course>22.1</course>
<desc>Speed 5.9 km/h Distance 3.40 km</desc>
<time>2010-02-28T10:54:38.92</time>
<name>2324</name>
</trkpt>
<trkpt lat="48.938053" lon="8.692400">
<ele>392.5</ele>
<speed>5.6</speed>
<course>16.0</course>
<desc>Speed 5.6 km/h Distance 3.41 km</desc>
<time>2010-02-28T10:54:39.91</time>
<name>2325</name>
</trkpt>
<trkpt lat="48.938068" lon="8.692407">
<ele>392.5</ele>
<speed>5.6</speed>
<course>22.1</course>
<desc>Speed 5.6 km/h Distance 3.41 km</desc>
<time>2010-02-28T10:54:40.91</time>
<name>2326</name>
</trkpt>
<trkpt lat="48.938082" lon="8.692415">
<ele>392.0</ele>
<speed>5.6</speed>
<course>18.1</course>
<desc>Speed 5.6 km/h Distance 3.41 km</desc>
<time>2010-02-28T10:54:41.91</time>
<name>2327</name>
</trkpt>
<trkpt lat="48.938095" lon="8.692422">
<ele>392.0</ele>
<speed>5.5</speed>
<course>22.3</course>
<desc>Speed 5.5 km/h Distance 3.41 km</desc>
<time>2010-02-28T10:54:42.91</time>
<name>2328</name>
</trkpt>
<trkpt lat="48.938108" lon="8.692430">
<ele>392.0</ele>
<speed>5.6</speed>
<course>18.1</course>
<desc>Speed 5.6 km/h Distance 3.41 km</desc>
<time>2010-02-28T10:54:43.91</time>
<name>2329</name>
</trkpt>
<trkpt lat="48.938122" lon="8.692437">
<ele>392.0</ele>
<speed>5.3</speed>
<course>14.4</course>
<desc>Speed 5.3 km/h Distance 3.41 km</desc>
<time>2010-02-28T10:54:44.91</time>
<name>2330</name>
</trkpt>
<trkpt lat="48.938135" lon="8.692442">
<ele>392.0</ele>
<speed>5.7</speed>
<course>12.2</course>
<desc>Speed 5.7 km/h Distance 3.42 km</desc>
<time>2010-02-28T10:54:45.91</time>
<name>2331</name>
</trkpt>
<trkpt lat="48.938150" lon="8.692447">
<ele>392.0</ele>
<speed>5.7</speed>
<course>13.5</course>
<desc>Speed 5.7 km/h Distance 3.42 km</desc>
<time>2010-02-28T10:54:46.91</time>
<name>2332</name>
</trkpt>
<trkpt lat="48.938163" lon="8.692452">
<ele>392.0</ele>
<speed>5.6</speed>
<course>13.5</course>
<desc>Speed 5.6 km/h Distance 3.42 km</desc>
<time>2010-02-28T10:54:47.91</time>
<name>2333</name>
</trkpt>
<trkpt lat="48.938177" lon="8.692457">
<ele>392.0</ele>
<speed>5.6</speed>
<course>23.8</course>
<desc>Speed 5.6 km/h Distance 3.42 km</desc>
<time>2010-02-28T10:54:48.91</time>
<name>2334</name>
</trkpt>
<trkpt lat="48.938187" lon="8.692463">
<ele>392.0</ele>
<speed>4.1</speed>
<course>22.2</course>
<desc>Speed 4.1 km/h Distance 3.42 km</desc>
<time>2010-02-28T10:54:49.91</time>
<name>2335</name>
</trkpt>
<trkpt lat="48.938192" lon="8.692467">
<ele>392.0</ele>
<speed>1.8</speed>
<course>22.2</course>
<desc>Speed 1.8 km/h Distance 3.42 km</desc>
<time>2010-02-28T10:54:50.91</time>
<name>2336</name>
</trkpt>
<trkpt lat="48.938192" lon="8.692467">
<ele>392.0</ele>
<speed>0.2</speed>
<course>22.2</course>
<desc>Speed 0.2 km/h Distance 3.42 km</desc>
<time>2010-02-28T10:54:51.91</time>
<name>2337</name>
</trkpt>
<trkpt lat="48.938192" lon="8.692467">
<ele>392.0</ele>
<speed>0.1</speed>
<course>12.6</course>
<desc>Speed 0.1 km/h Distance 3.42 km</desc>
<time>2010-02-28T10:54:52.91</time>
<name>2338</name>
</trkpt>
<trkpt lat="48.938193" lon="8.692467">
<ele>392.0</ele>
<speed>0.2</speed>
<course>12.6</course>
<desc>Speed 0.2 km/h Distance 3.42 km</desc>
<time>2010-02-28T10:54:53.91</time>
<name>2339</name>
</trkpt>
<trkpt lat="48.938195" lon="8.692467">
<ele>392.0</ele>
<speed>0.1</speed>
<course>12.6</course>
<desc>Speed 0.1 km/h Distance 3.42 km</desc>
<time>2010-02-28T10:54:54.91</time>
<name>2340</name>
</trkpt>
<trkpt lat="48.938195" lon="8.692467">
<ele>392.5</ele>
<speed>0.2</speed>
<course>12.6</course>
<desc>Speed 0.2 km/h Distance 3.42 km</desc>
<time>2010-02-28T10:54:55.91</time>
<name>2341</name>
</trkpt>
<trkpt lat="48.938195" lon="8.692467">
<ele>392.5</ele>
<speed>0.3</speed>
<course>0.0</course>
<desc>Speed 0.3 km/h Distance 3.42 km</desc>
<time>2010-02-28T10:54:56.91</time>
<name>2342</name>
</trkpt>
<trkpt lat="48.938203" lon="8.692467">
<ele>392.5</ele>
<speed>2.8</speed>
<course>4.4</course>
<desc>Speed 2.8 km/h Distance 3.42 km</desc>
<time>2010-02-28T10:54:57.92</time>
<name>2343</name>
</trkpt>
<trkpt lat="48.938213" lon="8.692468">
<ele>392.5</ele>
<speed>4.5</speed>
<course>13.5</course>
<desc>Speed 4.5 km/h Distance 3.42 km</desc>
<time>2010-02-28T10:54:58.91</time>
<name>2344</name>
</trkpt>
<trkpt lat="48.938227" lon="8.692473">
<ele>393.0</ele>
<speed>4.9</speed>
<course>13.5</course>
<desc>Speed 4.9 km/h Distance 3.43 km</desc>
<time>2010-02-28T10:54:59.91</time>
<name>2345</name>
</trkpt>
<trkpt lat="48.938240" lon="8.692478">
<ele>393.0</ele>
<speed>5.3</speed>
<course>20.6</course>
<desc>Speed 5.3 km/h Distance 3.43 km</desc>
<time>2010-02-28T10:55:00.91</time>
<name>2346</name>
</trkpt>
<trkpt lat="48.938252" lon="8.692485">
<ele>393.0</ele>
<speed>4.9</speed>
<course>7.7</course>
<desc>Speed 4.9 km/h Distance 3.43 km</desc>
<time>2010-02-28T10:55:01.91</time>
<name>2347</name>
</trkpt>
<trkpt lat="48.938260" lon="8.692487">
<ele>393.0</ele>
<speed>3.0</speed>
<course>12.6</course>
<desc>Speed 3.0 km/h Distance 3.43 km</desc>
<time>2010-02-28T10:55:02.91</time>
<name>2348</name>
</trkpt>
<trkpt lat="48.938262" lon="8.692487">
<ele>393.0</ele>
<speed>0.1</speed>
<course>29.2</course>
<desc>Speed 0.1 km/h Distance 3.43 km</desc>
<time>2010-02-28T10:55:03.91</time>
<name>2349</name>
</trkpt>
<trkpt lat="48.938263" lon="8.692488">
<ele>393.0</ele>
<speed>0.8</speed>
<course>12.6</course>
<desc>Speed 0.8 km/h Distance 3.43 km</desc>
<time>2010-02-28T10:55:04.90</time>
<name>2350</name>
</trkpt>
<trkpt lat="48.938273" lon="8.692492">
<ele>393.0</ele>
<speed>3.9</speed>
<course>14.0</course>
<desc>Speed 3.9 km/h Distance 3.43 km</desc>
<time>2010-02-28T10:55:05.90</time>
<name>2351</name>
</trkpt>
<trkpt lat="48.938287" lon="8.692497">
<ele>393.0</ele>
<speed>5.3</speed>
<course>9.0</course>
<desc>Speed 5.3 km/h Distance 3.43 km</desc>
<time>2010-02-28T10:55:06.90</time>
<name>2352</name>
</trkpt>
<trkpt lat="48.938300" lon="8.692500">
<ele>393.0</ele>
<speed>5.7</speed>
<course>12.2</course>
<desc>Speed 5.7 km/h Distance 3.43 km</desc>
<time>2010-02-28T10:55:07.90</time>
<name>2353</name>
</trkpt>
<trkpt lat="48.938315" lon="8.692505">
<ele>393.0</ele>
<speed>5.5</speed>
<course>13.5</course>
<desc>Speed 5.5 km/h Distance 3.44 km</desc>
<time>2010-02-28T10:55:08.90</time>
<name>2354</name>
</trkpt>
<trkpt lat="48.938328" lon="8.692510">
<ele>393.0</ele>
<speed>5.5</speed>
<course>18.1</course>
<desc>Speed 5.5 km/h Distance 3.44 km</desc>
<time>2010-02-28T10:55:09.90</time>
<name>2355</name>
</trkpt>
<trkpt lat="48.938342" lon="8.692517">
<ele>393.0</ele>
<speed>5.6</speed>
<course>16.6</course>
<desc>Speed 5.6 km/h Distance 3.44 km</desc>
<time>2010-02-28T10:55:10.91</time>
<name>2356</name>
</trkpt>
<trkpt lat="48.938357" lon="8.692523">
<ele>393.0</ele>
<speed>5.8</speed>
<course>11.7</course>
<desc>Speed 5.8 km/h Distance 3.44 km</desc>
<time>2010-02-28T10:55:11.90</time>
<name>2357</name>
</trkpt>
<trkpt lat="48.938372" lon="8.692528">
<ele>393.0</ele>
<speed>5.7</speed>
<course>11.7</course>
<desc>Speed 5.7 km/h Distance 3.44 km</desc>
<time>2010-02-28T10:55:12.90</time>
<name>2358</name>
</trkpt>
<trkpt lat="48.938387" lon="8.692533">
<ele>393.0</ele>
<speed>5.7</speed>
<course>9.0</course>
<desc>Speed 5.7 km/h Distance 3.44 km</desc>
<time>2010-02-28T10:55:13.90</time>
<name>2359</name>
</trkpt>
<trkpt lat="48.938400" lon="8.692537">
<ele>393.0</ele>
<speed>5.7</speed>
<course>14.0</course>
<desc>Speed 5.7 km/h Distance 3.45 km</desc>
<time>2010-02-28T10:55:14.90</time>
<name>2360</name>
</trkpt>
<trkpt lat="48.938413" lon="8.692542">
<ele>393.0</ele>
<speed>5.5</speed>
<course>12.6</course>
<desc>Speed 5.5 km/h Distance 3.45 km</desc>
<time>2010-02-28T10:55:15.90</time>
<name>2361</name>
</trkpt>
<trkpt lat="48.938428" lon="8.692547">
<ele>393.0</ele>
<speed>5.7</speed>
<course>12.2</course>
<desc>Speed 5.7 km/h Distance 3.45 km</desc>
<time>2010-02-28T10:55:16.90</time>
<name>2362</name>
</trkpt>
<trkpt lat="48.938443" lon="8.692552">
<ele>393.0</ele>
<speed>5.6</speed>
<course>12.6</course>
<desc>Speed 5.6 km/h Distance 3.45 km</desc>
<time>2010-02-28T10:55:17.90</time>
<name>2363</name>
</trkpt>
<trkpt lat="48.938458" lon="8.692557">
<ele>393.0</ele>
<speed>5.6</speed>
<course>13.5</course>
<desc>Speed 5.6 km/h Distance 3.45 km</desc>
<time>2010-02-28T10:55:18.90</time>
<name>2364</name>
</trkpt>
<trkpt lat="48.938472" lon="8.692562">
<ele>393.0</ele>
<speed>5.4</speed>
<course>7.5</course>
<desc>Speed 5.4 km/h Distance 3.45 km</desc>
<time>2010-02-28T10:55:19.90</time>
<name>2365</name>
</trkpt>
<trkpt lat="48.938487" lon="8.692565">
<ele>393.0</ele>
<speed>5.4</speed>
<course>13.5</course>
<desc>Speed 5.4 km/h Distance 3.46 km</desc>
<time>2010-02-28T10:55:20.90</time>
<name>2366</name>
</trkpt>
<trkpt lat="48.938500" lon="8.692570">
<ele>393.5</ele>
<speed>5.5</speed>
<course>11.7</course>
<desc>Speed 5.5 km/h Distance 3.46 km</desc>
<time>2010-02-28T10:55:21.90</time>
<name>2367</name>
</trkpt>
<trkpt lat="48.938515" lon="8.692575">
<ele>393.5</ele>
<speed>5.7</speed>
<course>9.0</course>
<desc>Speed 5.7 km/h Distance 3.46 km</desc>
<time>2010-02-28T10:55:22.90</time>
<name>2368</name>
</trkpt>
<trkpt lat="48.938528" lon="8.692578">
<ele>393.5</ele>
<speed>5.2</speed>
<course>13.5</course>
<desc>Speed 5.2 km/h Distance 3.46 km</desc>
<time>2010-02-28T10:55:23.90</time>
<name>2369</name>
</trkpt>
<trkpt lat="48.938542" lon="8.692583">
<ele>393.5</ele>
<speed>5.4</speed>
<course>8.8</course>
<desc>Speed 5.4 km/h Distance 3.46 km</desc>
<time>2010-02-28T10:55:24.90</time>
<name>2370</name>
</trkpt>
<trkpt lat="48.938557" lon="8.692587">
<ele>393.5</ele>
<speed>5.4</speed>
<course>9.0</course>
<desc>Speed 5.4 km/h Distance 3.46 km</desc>
<time>2010-02-28T10:55:25.90</time>
<name>2371</name>
</trkpt>
<trkpt lat="48.938570" lon="8.692590">
<ele>393.5</ele>
<speed>5.1</speed>
<course>9.0</course>
<desc>Speed 5.1 km/h Distance 3.47 km</desc>
<time>2010-02-28T10:55:26.90</time>
<name>2372</name>
</trkpt>
<trkpt lat="48.938583" lon="8.692593">
<ele>394.0</ele>
<speed>5.1</speed>
<course>13.5</course>
<desc>Speed 5.1 km/h Distance 3.47 km</desc>
<time>2010-02-28T10:55:27.89</time>
<name>2373</name>
</trkpt>
<trkpt lat="48.938597" lon="8.692598">
<ele>394.0</ele>
<speed>5.3</speed>
<course>13.5</course>
<desc>Speed 5.3 km/h Distance 3.47 km</desc>
<time>2010-02-28T10:55:28.89</time>
<name>2374</name>
</trkpt>
<trkpt lat="48.938610" lon="8.692603">
<ele>394.0</ele>
<speed>5.1</speed>
<course>13.5</course>
<desc>Speed 5.1 km/h Distance 3.47 km</desc>
<time>2010-02-28T10:55:29.90</time>
<name>2375</name>
</trkpt>
<trkpt lat="48.938623" lon="8.692608">
<ele>394.0</ele>
<speed>5.4</speed>
<course>20.9</course>
<desc>Speed 5.4 km/h Distance 3.47 km</desc>
<time>2010-02-28T10:55:30.90</time>
<name>2376</name>
</trkpt>
<trkpt lat="48.938635" lon="8.692615">
<ele>394.0</ele>
<speed>5.2</speed>
<course>13.5</course>
<desc>Speed 5.2 km/h Distance 3.47 km</desc>
<time>2010-02-28T10:55:31.90</time>
<name>2377</name>
</trkpt>
<trkpt lat="48.938648" lon="8.692620">
<ele>394.0</ele>
<speed>5.3</speed>
<course>14.0</course>
<desc>Speed 5.3 km/h Distance 3.47 km</desc>
<time>2010-02-28T10:55:32.89</time>
<name>2378</name>
</trkpt>
<trkpt lat="48.938662" lon="8.692625">
<ele>394.0</ele>
<speed>5.4</speed>
<course>9.7</course>
<desc>Speed 5.4 km/h Distance 3.48 km</desc>
<time>2010-02-28T10:55:33.89</time>
<name>2379</name>
</trkpt>
<trkpt lat="48.938675" lon="8.692628">
<ele>394.0</ele>
<speed>5.2</speed>
<course>8.1</course>
<desc>Speed 5.2 km/h Distance 3.48 km</desc>
<time>2010-02-28T10:55:34.89</time>
<name>2380</name>
</trkpt>
<trkpt lat="48.938690" lon="8.692632">
<ele>394.5</ele>
<speed>5.3</speed>
<course>13.5</course>
<desc>Speed 5.3 km/h Distance 3.48 km</desc>
<time>2010-02-28T10:55:35.89</time>
<name>2381</name>
</trkpt>
<trkpt lat="48.938703" lon="8.692637">
<ele>394.5</ele>
<speed>5.5</speed>
<course>1.9</course>
<desc>Speed 5.5 km/h Distance 3.48 km</desc>
<time>2010-02-28T10:55:36.89</time>
<name>2382</name>
</trkpt>
<trkpt lat="48.938718" lon="8.692638">
<ele>395.0</ele>
<speed>5.5</speed>
<course>8.1</course>
<desc>Speed 5.5 km/h Distance 3.48 km</desc>
<time>2010-02-28T10:55:37.89</time>
<name>2383</name>
</trkpt>
<trkpt lat="48.938733" lon="8.692642">
<ele>395.0</ele>
<speed>5.7</speed>
<course>13.5</course>
<desc>Speed 5.7 km/h Distance 3.48 km</desc>
<time>2010-02-28T10:55:38.89</time>
<name>2384</name>
</trkpt>
<trkpt lat="48.938747" lon="8.692647">
<ele>395.0</ele>
<speed>5.5</speed>
<course>11.7</course>
<desc>Speed 5.5 km/h Distance 3.49 km</desc>
<time>2010-02-28T10:55:39.89</time>
<name>2385</name>
</trkpt>
<trkpt lat="48.938762" lon="8.692652">
<ele>395.0</ele>
<speed>5.3</speed>
<course>18.1</course>
<desc>Speed 5.3 km/h Distance 3.49 km</desc>
<time>2010-02-28T10:55:40.89</time>
<name>2386</name>
</trkpt>
<trkpt lat="48.938775" lon="8.692658">
<ele>395.5</ele>
<speed>5.4</speed>
<course>20.6</course>
<desc>Speed 5.4 km/h Distance 3.49 km</desc>
<time>2010-02-28T10:55:41.89</time>
<name>2387</name>
</trkpt>
<trkpt lat="48.938787" lon="8.692665">
<ele>395.0</ele>
<speed>5.4</speed>
<course>18.1</course>
<desc>Speed 5.4 km/h Distance 3.49 km</desc>
<time>2010-02-28T10:55:42.89</time>
<name>2388</name>
</trkpt>
<trkpt lat="48.938800" lon="8.692672">
<ele>395.0</ele>
<speed>5.3</speed>
<course>13.5</course>
<desc>Speed 5.3 km/h Distance 3.49 km</desc>
<time>2010-02-28T10:55:43.89</time>
<name>2389</name>
</trkpt>
<trkpt lat="48.938813" lon="8.692677">
<ele>395.0</ele>
<speed>5.4</speed>
<course>18.1</course>
<desc>Speed 5.4 km/h Distance 3.49 km</desc>
<time>2010-02-28T10:55:44.89</time>
<name>2390</name>
</trkpt>
<trkpt lat="48.938827" lon="8.692683">
<ele>395.0</ele>
<speed>5.1</speed>
<course>20.6</course>
<desc>Speed 5.1 km/h Distance 3.50 km</desc>
<time>2010-02-28T10:55:45.89</time>
<name>2391</name>
</trkpt>
<trkpt lat="48.938838" lon="8.692690">
<ele>395.0</ele>
<speed>5.1</speed>
<course>13.5</course>
<desc>Speed 5.1 km/h Distance 3.50 km</desc>
<time>2010-02-28T10:55:46.89</time>
<name>2392</name>
</trkpt>
<trkpt lat="48.938852" lon="8.692695">
<ele>395.0</ele>
<speed>5.3</speed>
<course>18.4</course>
<desc>Speed 5.3 km/h Distance 3.50 km</desc>
<time>2010-02-28T10:55:47.89</time>
<name>2393</name>
</trkpt>
<trkpt lat="48.938865" lon="8.692702">
<ele>395.0</ele>
<speed>5.3</speed>
<course>20.9</course>
<desc>Speed 5.3 km/h Distance 3.50 km</desc>
<time>2010-02-28T10:55:48.89</time>
<name>2394</name>
</trkpt>
<trkpt lat="48.938877" lon="8.692708">
<ele>395.0</ele>
<speed>5.1</speed>
<course>18.4</course>
<desc>Speed 5.1 km/h Distance 3.50 km</desc>
<time>2010-02-28T10:55:49.88</time>
<name>2395</name>
</trkpt>
<trkpt lat="48.938890" lon="8.692715">
<ele>395.0</ele>
<speed>5.1</speed>
<course>13.5</course>
<desc>Speed 5.1 km/h Distance 3.50 km</desc>
<time>2010-02-28T10:55:50.89</time>
<name>2396</name>
</trkpt>
<trkpt lat="48.938903" lon="8.692720">
<ele>395.0</ele>
<speed>5.2</speed>
<course>9.0</course>
<desc>Speed 5.2 km/h Distance 3.50 km</desc>
<time>2010-02-28T10:55:51.89</time>
<name>2397</name>
</trkpt>
<trkpt lat="48.938917" lon="8.692723">
<ele>395.0</ele>
<speed>5.2</speed>
<course>14.4</course>
<desc>Speed 5.2 km/h Distance 3.51 km</desc>
<time>2010-02-28T10:55:52.89</time>
<name>2398</name>
</trkpt>
<trkpt lat="48.938930" lon="8.692728">
<ele>395.0</ele>
<speed>5.3</speed>
<course>13.5</course>
<desc>Speed 5.3 km/h Distance 3.51 km</desc>
<time>2010-02-28T10:55:53.89</time>
<name>2399</name>
</trkpt>
<trkpt lat="48.938943" lon="8.692733">
<ele>395.5</ele>
<speed>5.3</speed>
<course>9.0</course>
<desc>Speed 5.3 km/h Distance 3.51 km</desc>
<time>2010-02-28T10:55:54.89</time>
<name>2400</name>
</trkpt>
<trkpt lat="48.938957" lon="8.692737">
<ele>395.5</ele>
<speed>5.4</speed>
<course>3.9</course>
<desc>Speed 5.4 km/h Distance 3.51 km</desc>
<time>2010-02-28T10:55:55.89</time>
<name>2401</name>
</trkpt>
<trkpt lat="48.938970" lon="8.692738">
<ele>395.5</ele>
<speed>5.4</speed>
<course>348.4</course>
<desc>Speed 5.4 km/h Distance 3.51 km</desc>
<time>2010-02-28T10:55:56.89</time>
<name>2402</name>
</trkpt>
<trkpt lat="48.938980" lon="8.692735">
<ele>395.5</ele>
<speed>3.3</speed>
<course>334.8</course>
<desc>Speed 3.3 km/h Distance 3.51 km</desc>
<time>2010-02-28T10:55:57.89</time>
<name>2403</name>
</trkpt>
<trkpt lat="48.938992" lon="8.692727">
<ele>395.0</ele>
<speed>5.1</speed>
<course>349.7</course>
<desc>Speed 5.1 km/h Distance 3.51 km</desc>
<time>2010-02-28T10:55:58.88</time>
<name>2404</name>
</trkpt>
<trkpt lat="48.938998" lon="8.692725">
<ele>395.0</ele>
<speed>2.4</speed>
<course>90.0</course>
<desc>Speed 2.4 km/h Distance 3.51 km</desc>
<time>2010-02-28T10:55:59.88</time>
<name>2405</name>
</trkpt>
<trkpt lat="48.938998" lon="8.692727">
<ele>395.0</ele>
<speed>0.5</speed>
<course>62.6</course>
<desc>Speed 0.5 km/h Distance 3.52 km</desc>
<time>2010-02-28T10:56:00.88</time>
<name>2406</name>
</trkpt>
<trkpt lat="48.939000" lon="8.692732">
<ele>395.5</ele>
<speed>1.8</speed>
<course>22.6</course>
<desc>Speed 1.8 km/h Distance 3.52 km</desc>
<time>2010-02-28T10:56:01.88</time>
<name>2407</name>
</trkpt>
<trkpt lat="48.939013" lon="8.692740">
<ele>395.5</ele>
<speed>4.9</speed>
<course>9.0</course>
<desc>Speed 4.9 km/h Distance 3.52 km</desc>
<time>2010-02-28T10:56:02.88</time>
<name>2408</name>
</trkpt>
<trkpt lat="48.939027" lon="8.692743">
<ele>395.5</ele>
<speed>5.6</speed>
<course>11.2</course>
<desc>Speed 5.6 km/h Distance 3.52 km</desc>
<time>2010-02-28T10:56:03.88</time>
<name>2409</name>
</trkpt>
<trkpt lat="48.939043" lon="8.692748">
<ele>395.5</ele>
<speed>5.8</speed>
<course>12.6</course>
<desc>Speed 5.8 km/h Distance 3.52 km</desc>
<time>2010-02-28T10:56:04.88</time>
<name>2410</name>
</trkpt>
<trkpt lat="48.939058" lon="8.692753">
<ele>396.0</ele>
<speed>5.7</speed>
<course>12.2</course>
<desc>Speed 5.7 km/h Distance 3.52 km</desc>
<time>2010-02-28T10:56:05.88</time>
<name>2411</name>
</trkpt>
<trkpt lat="48.939073" lon="8.692758">
<ele>396.0</ele>
<speed>5.5</speed>
<course>13.5</course>
<desc>Speed 5.5 km/h Distance 3.52 km</desc>
<time>2010-02-28T10:56:06.88</time>
<name>2412</name>
</trkpt>
<trkpt lat="48.939087" lon="8.692763">
<ele>396.0</ele>
<speed>5.8</speed>
<course>22.1</course>
<desc>Speed 5.8 km/h Distance 3.53 km</desc>
<time>2010-02-28T10:56:07.88</time>
<name>2413</name>
</trkpt>
<trkpt lat="48.939100" lon="8.692772">
<ele>396.0</ele>
<speed>5.4</speed>
<course>22.6</course>
<desc>Speed 5.4 km/h Distance 3.53 km</desc>
<time>2010-02-28T10:56:08.88</time>
<name>2414</name>
</trkpt>
<trkpt lat="48.939113" lon="8.692780">
<ele>396.0</ele>
<speed>5.5</speed>
<course>22.3</course>
<desc>Speed 5.5 km/h Distance 3.53 km</desc>
<time>2010-02-28T10:56:09.88</time>
<name>2415</name>
</trkpt>
<trkpt lat="48.939127" lon="8.692788">
<ele>396.0</ele>
<speed>5.3</speed>
<course>22.1</course>
<desc>Speed 5.3 km/h Distance 3.53 km</desc>
<time>2010-02-28T10:56:10.89</time>
<name>2416</name>
</trkpt>
<trkpt lat="48.939140" lon="8.692797">
<ele>396.5</ele>
<speed>5.6</speed>
<course>13.5</course>
<desc>Speed 5.6 km/h Distance 3.53 km</desc>
<time>2010-02-28T10:56:11.88</time>
<name>2417</name>
</trkpt>
<trkpt lat="48.939153" lon="8.692802">
<ele>396.5</ele>
<speed>5.7</speed>
<course>13.5</course>
<desc>Speed 5.7 km/h Distance 3.53 km</desc>
<time>2010-02-28T10:56:12.88</time>
<name>2418</name>
</trkpt>
<trkpt lat="48.939167" lon="8.692807">
<ele>396.5</ele>
<speed>5.3</speed>
<course>3.8</course>
<desc>Speed 5.3 km/h Distance 3.53 km</desc>
<time>2010-02-28T10:56:13.88</time>
<name>2419</name>
</trkpt>
<trkpt lat="48.939182" lon="8.692808">
<ele>396.5</ele>
<speed>5.2</speed>
<course>10.4</course>
<desc>Speed 5.2 km/h Distance 3.54 km</desc>
<time>2010-02-28T10:56:14.88</time>
<name>2420</name>
</trkpt>
<trkpt lat="48.939193" lon="8.692812">
<ele>396.5</ele>
<speed>5.1</speed>
<course>12.2</course>
<desc>Speed 5.1 km/h Distance 3.54 km</desc>
<time>2010-02-28T10:56:15.88</time>
<name>2421</name>
</trkpt>
<trkpt lat="48.939208" lon="8.692817">
<ele>396.0</ele>
<speed>5.4</speed>
<course>9.0</course>
<desc>Speed 5.4 km/h Distance 3.54 km</desc>
<time>2010-02-28T10:56:16.88</time>
<name>2422</name>
</trkpt>
<trkpt lat="48.939222" lon="8.692820">
<ele>396.0</ele>
<speed>5.5</speed>
<course>12.2</course>
<desc>Speed 5.5 km/h Distance 3.54 km</desc>
<time>2010-02-28T10:56:17.88</time>
<name>2423</name>
</trkpt>
<trkpt lat="48.939237" lon="8.692825">
<ele>396.5</ele>
<speed>5.8</speed>
<course>2.8</course>
<desc>Speed 5.8 km/h Distance 3.54 km</desc>
<time>2010-02-28T10:56:18.88</time>
<name>2424</name>
</trkpt>
<trkpt lat="48.939253" lon="8.692827">
<ele>396.5</ele>
<speed>5.8</speed>
<course>9.7</course>
<desc>Speed 5.8 km/h Distance 3.54 km</desc>
<time>2010-02-28T10:56:19.87</time>
<name>2425</name>
</trkpt>
<trkpt lat="48.939267" lon="8.692830">
<ele>396.5</ele>
<speed>5.6</speed>
<course>18.4</course>
<desc>Speed 5.6 km/h Distance 3.55 km</desc>
<time>2010-02-28T10:56:20.89</time>
<name>2426</name>
</trkpt>
<trkpt lat="48.939280" lon="8.692837">
<ele>396.5</ele>
<speed>5.6</speed>
<course>18.1</course>
<desc>Speed 5.6 km/h Distance 3.55 km</desc>
<time>2010-02-28T10:56:21.88</time>
<name>2427</name>
</trkpt>
<trkpt lat="48.939293" lon="8.692843">
<ele>396.5</ele>
<speed>5.2</speed>
<course>7.7</course>
<desc>Speed 5.2 km/h Distance 3.55 km</desc>
<time>2010-02-28T10:56:22.88</time>
<name>2428</name>
</trkpt>
<trkpt lat="48.939310" lon="8.692847">
<ele>396.5</ele>
<speed>5.7</speed>
<course>7.1</course>
<desc>Speed 5.7 km/h Distance 3.55 km</desc>
<time>2010-02-28T10:56:23.88</time>
<name>2429</name>
</trkpt>
<trkpt lat="48.939327" lon="8.692850">
<ele>396.5</ele>
<speed>5.8</speed>
<course>13.5</course>
<desc>Speed 5.8 km/h Distance 3.55 km</desc>
<time>2010-02-28T10:56:24.88</time>
<name>2430</name>
</trkpt>
<trkpt lat="48.939340" lon="8.692855">
<ele>396.5</ele>
<speed>5.3</speed>
<course>20.2</course>
<desc>Speed 5.3 km/h Distance 3.55 km</desc>
<time>2010-02-28T10:56:25.87</time>
<name>2431</name>
</trkpt>
<trkpt lat="48.939352" lon="8.692862">
<ele>396.5</ele>
<speed>5.1</speed>
<course>13.1</course>
<desc>Speed 5.1 km/h Distance 3.56 km</desc>
<time>2010-02-28T10:56:26.87</time>
<name>2432</name>
</trkpt>
<trkpt lat="48.939365" lon="8.692867">
<ele>396.5</ele>
<speed>5.2</speed>
<course>18.1</course>
<desc>Speed 5.2 km/h Distance 3.56 km</desc>
<time>2010-02-28T10:56:27.87</time>
<name>2433</name>
</trkpt>
<trkpt lat="48.939378" lon="8.692873">
<ele>396.5</ele>
<speed>5.2</speed>
<course>8.8</course>
<desc>Speed 5.2 km/h Distance 3.56 km</desc>
<time>2010-02-28T10:56:28.87</time>
<name>2434</name>
</trkpt>
<trkpt lat="48.939393" lon="8.692877">
<ele>396.5</ele>
<speed>5.3</speed>
<course>18.1</course>
<desc>Speed 5.3 km/h Distance 3.56 km</desc>
<time>2010-02-28T10:56:29.87</time>
<name>2435</name>
</trkpt>
<trkpt lat="48.939407" lon="8.692883">
<ele>396.5</ele>
<speed>5.3</speed>
<course>20.6</course>
<desc>Speed 5.3 km/h Distance 3.56 km</desc>
<time>2010-02-28T10:56:30.87</time>
<name>2436</name>
</trkpt>
<trkpt lat="48.939418" lon="8.692890">
<ele>396.5</ele>
<speed>4.9</speed>
<course>10.8</course>
<desc>Speed 4.9 km/h Distance 3.56 km</desc>
<time>2010-02-28T10:56:31.87</time>
<name>2437</name>
</trkpt>
<trkpt lat="48.939435" lon="8.692895">
<ele>396.5</ele>
<speed>6.3</speed>
<course>9.7</course>
<desc>Speed 6.3 km/h Distance 3.57 km</desc>
<time>2010-02-28T10:56:32.88</time>
<name>2438</name>
</trkpt>
<trkpt lat="48.939448" lon="8.692898">
<ele>396.5</ele>
<speed>5.4</speed>
<course>318.7</course>
<desc>Speed 5.4 km/h Distance 3.57 km</desc>
<time>2010-02-28T10:56:33.88</time>
<name>2439</name>
</trkpt>
<trkpt lat="48.939458" lon="8.692885">
<ele>396.5</ele>
<speed>5.3</speed>
<course>8.8</course>
<desc>Speed 5.3 km/h Distance 3.57 km</desc>
<time>2010-02-28T10:56:34.87</time>
<name>2440</name>
</trkpt>
<trkpt lat="48.939473" lon="8.692888">
<ele>396.5</ele>
<speed>5.2</speed>
<course>3.8</course>
<desc>Speed 5.2 km/h Distance 3.57 km</desc>
<time>2010-02-28T10:56:35.87</time>
<name>2441</name>
</trkpt>
<trkpt lat="48.939488" lon="8.692890">
<ele>397.0</ele>
<speed>5.0</speed>
<course>5.0</course>
<desc>Speed 5.0 km/h Distance 3.57 km</desc>
<time>2010-02-28T10:56:36.90</time>
<name>2442</name>
</trkpt>
<trkpt lat="48.939497" lon="8.692892">
<ele>397.0</ele>
<speed>3.1</speed>
<course>150.8</course>
<desc>Speed 3.1 km/h Distance 3.57 km</desc>
<time>2010-02-28T10:56:37.87</time>
<name>2443</name>
</trkpt>
<trkpt lat="48.939495" lon="8.692893">
<ele>397.0</ele>
<speed>0.9</speed>
<course>150.8</course>
<desc>Speed 0.9 km/h Distance 3.57 km</desc>
<time>2010-02-28T10:56:38.87</time>
<name>2444</name>
</trkpt>
<trkpt lat="48.939495" lon="8.692893">
<ele>397.0</ele>
<speed>0.2</speed>
<course>90.0</course>
<desc>Speed 0.2 km/h Distance 3.57 km</desc>
<time>2010-02-28T10:56:39.87</time>
<name>2445</name>
</trkpt>
<trkpt lat="48.939495" lon="8.692895">
<ele>397.0</ele>
<speed>0.2</speed>
<course>90.0</course>
<desc>Speed 0.2 km/h Distance 3.57 km</desc>
<time>2010-02-28T10:56:40.87</time>
<name>2446</name>
</trkpt>
<trkpt lat="48.939495" lon="8.692895">
<ele>397.0</ele>
<speed>0.3</speed>
<course>90.0</course>
<desc>Speed 0.3 km/h Distance 3.57 km</desc>
<time>2010-02-28T10:56:41.88</time>
<name>2447</name>
</trkpt>
<trkpt lat="48.939495" lon="8.692895">
<ele>397.0</ele>
<speed>0.4</speed>
<course>10.3</course>
<desc>Speed 0.4 km/h Distance 3.57 km</desc>
<time>2010-02-28T10:56:42.88</time>
<name>2448</name>
</trkpt>
<trkpt lat="48.939502" lon="8.692897">
<ele>397.0</ele>
<speed>2.1</speed>
<course>25.2</course>
<desc>Speed 2.1 km/h Distance 3.57 km</desc>
<time>2010-02-28T10:56:43.87</time>
<name>2449</name>
</trkpt>
<trkpt lat="48.939513" lon="8.692905">
<ele>396.5</ele>
<speed>5.2</speed>
<course>24.6</course>
<desc>Speed 5.2 km/h Distance 3.58 km</desc>
<time>2010-02-28T10:56:44.87</time>
<name>2450</name>
</trkpt>
<trkpt lat="48.939525" lon="8.692913">
<ele>396.5</ele>
<speed>4.9</speed>
<course>12.6</course>
<desc>Speed 4.9 km/h Distance 3.58 km</desc>
<time>2010-02-28T10:56:45.88</time>
<name>2451</name>
</trkpt>
<trkpt lat="48.939528" lon="8.692915">
<ele>396.5</ele>
<speed>1.7</speed>
<course>12.6</course>
<desc>Speed 1.7 km/h Distance 3.58 km</desc>
<time>2010-02-28T10:56:46.88</time>
<name>2452</name>
</trkpt>
<trkpt lat="48.939530" lon="8.692915">
<ele>396.5</ele>
<speed>0.5</speed>
<course>12.6</course>
<desc>Speed 0.5 km/h Distance 3.58 km</desc>
<time>2010-02-28T10:56:47.88</time>
<name>2453</name>
</trkpt>
<trkpt lat="48.939530" lon="8.692915">
<ele>396.5</ele>
<speed>0.4</speed>
<course>12.6</course>
<desc>Speed 0.4 km/h Distance 3.58 km</desc>
<time>2010-02-28T10:56:48.88</time>
<name>2454</name>
</trkpt>
<trkpt lat="48.939530" lon="8.692915">
<ele>396.5</ele>
<speed>0.1</speed>
<course>270.0</course>
<desc>Speed 0.1 km/h Distance 3.58 km</desc>
<time>2010-02-28T10:56:49.87</time>
<name>2455</name>
</trkpt>
<trkpt lat="48.939530" lon="8.692913">
<ele>396.5</ele>
<speed>0.2</speed>
<course>12.6</course>
<desc>Speed 0.2 km/h Distance 3.58 km</desc>
<time>2010-02-28T10:56:50.87</time>
<name>2456</name>
</trkpt>
<trkpt lat="48.939532" lon="8.692913">
<ele>396.5</ele>
<speed>0.3</speed>
<course>12.6</course>
<desc>Speed 0.3 km/h Distance 3.58 km</desc>
<time>2010-02-28T10:56:51.87</time>
<name>2457</name>
</trkpt>
<trkpt lat="48.939532" lon="8.692913">
<ele>396.5</ele>
<speed>0.1</speed>
<course>12.6</course>
<desc>Speed 0.1 km/h Distance 3.58 km</desc>
<time>2010-02-28T10:56:52.87</time>
<name>2458</name>
</trkpt>
<trkpt lat="48.939532" lon="8.692913">
<ele>396.5</ele>
<speed>0.4</speed>
<course>12.6</course>
<desc>Speed 0.4 km/h Distance 3.58 km</desc>
<time>2010-02-28T10:56:53.87</time>
<name>2459</name>
</trkpt>
<trkpt lat="48.939532" lon="8.692913">
<ele>396.5</ele>
<speed>0.1</speed>
<course>12.6</course>
<desc>Speed 0.1 km/h Distance 3.58 km</desc>
<time>2010-02-28T10:56:54.87</time>
<name>2460</name>
</trkpt>
<trkpt lat="48.939532" lon="8.692913">
<ele>396.5</ele>
<speed>0.0</speed>
<course>12.6</course>
<desc>Speed 0.0 km/h Distance 3.58 km</desc>
<time>2010-02-28T10:56:55.88</time>
<name>2461</name>
</trkpt>
<trkpt lat="48.939532" lon="8.692913">
<ele>396.5</ele>
<speed>0.3</speed>
<course>12.6</course>
<desc>Speed 0.3 km/h Distance 3.58 km</desc>
<time>2010-02-28T10:56:56.86</time>
<name>2462</name>
</trkpt>
<trkpt lat="48.939533" lon="8.692913">
<ele>396.0</ele>
<speed>1.2</speed>
<course>322.8</course>
<desc>Speed 1.2 km/h Distance 3.58 km</desc>
<time>2010-02-28T10:56:57.86</time>
<name>2463</name>
</trkpt>
<trkpt lat="48.939535" lon="8.692912">
<ele>396.0</ele>
<speed>0.8</speed>
<course>142.8</course>
<desc>Speed 0.8 km/h Distance 3.58 km</desc>
<time>2010-02-28T10:56:58.86</time>
<name>2464</name>
</trkpt>
<trkpt lat="48.939533" lon="8.692913">
<ele>396.0</ele>
<speed>0.2</speed>
<course>142.8</course>
<desc>Speed 0.2 km/h Distance 3.58 km</desc>
<time>2010-02-28T10:56:59.87</time>
<name>2465</name>
</trkpt>
<trkpt lat="48.939533" lon="8.692913">
<ele>396.0</ele>
<speed>0.2</speed>
<course>167.4</course>
<desc>Speed 0.2 km/h Distance 3.58 km</desc>
<time>2010-02-28T10:57:00.87</time>
<name>2466</name>
</trkpt>
<trkpt lat="48.939532" lon="8.692913">
<ele>396.0</ele>
<speed>0.2</speed>
<course>167.4</course>
<desc>Speed 0.2 km/h Distance 3.58 km</desc>
<time>2010-02-28T10:57:01.87</time>
<name>2467</name>
</trkpt>
<trkpt lat="48.939532" lon="8.692913">
<ele>396.0</ele>
<speed>0.1</speed>
<course>167.4</course>
<desc>Speed 0.1 km/h Distance 3.58 km</desc>
<time>2010-02-28T10:57:02.87</time>
<name>2468</name>
</trkpt>
<trkpt lat="48.939532" lon="8.692913">
<ele>396.0</ele>
<speed>0.3</speed>
<course>270.0</course>
<desc>Speed 0.3 km/h Distance 3.58 km</desc>
<time>2010-02-28T10:57:03.87</time>
<name>2469</name>
</trkpt>
<trkpt lat="48.939532" lon="8.692912">
<ele>396.0</ele>
<speed>0.4</speed>
<course>12.6</course>
<desc>Speed 0.4 km/h Distance 3.58 km</desc>
<time>2010-02-28T10:57:04.87</time>
<name>2470</name>
</trkpt>
<trkpt lat="48.939535" lon="8.692912">
<ele>396.0</ele>
<speed>1.9</speed>
<course>333.6</course>
<desc>Speed 1.9 km/h Distance 3.58 km</desc>
<time>2010-02-28T10:57:05.87</time>
<name>2471</name>
</trkpt>
<trkpt lat="48.939542" lon="8.692907">
<ele>396.0</ele>
<speed>2.9</speed>
<course>0.0</course>
<desc>Speed 2.9 km/h Distance 3.58 km</desc>
<time>2010-02-28T10:57:06.87</time>
<name>2472</name>
</trkpt>
<trkpt lat="48.939552" lon="8.692907">
<ele>396.0</ele>
<speed>4.3</speed>
<course>4.7</course>
<desc>Speed 4.3 km/h Distance 3.58 km</desc>
<time>2010-02-28T10:57:07.86</time>
<name>2473</name>
</trkpt>
<trkpt lat="48.939563" lon="8.692908">
<ele>396.0</ele>
<speed>4.8</speed>
<course>0.0</course>
<desc>Speed 4.8 km/h Distance 3.58 km</desc>
<time>2010-02-28T10:57:08.86</time>
<name>2474</name>
</trkpt>
<trkpt lat="48.939577" lon="8.692908">
<ele>396.0</ele>
<speed>5.0</speed>
<course>12.2</course>
<desc>Speed 5.0 km/h Distance 3.58 km</desc>
<time>2010-02-28T10:57:09.86</time>
<name>2475</name>
</trkpt>
<trkpt lat="48.939592" lon="8.692913">
<ele>396.0</ele>
<speed>5.8</speed>
<course>16.6</course>
<desc>Speed 5.8 km/h Distance 3.59 km</desc>
<time>2010-02-28T10:57:10.87</time>
<name>2476</name>
</trkpt>
<trkpt lat="48.939607" lon="8.692920">
<ele>396.5</ele>
<speed>5.5</speed>
<course>12.6</course>
<desc>Speed 5.5 km/h Distance 3.59 km</desc>
<time>2010-02-28T10:57:11.86</time>
<name>2477</name>
</trkpt>
<trkpt lat="48.939622" lon="8.692925">
<ele>396.5</ele>
<speed>5.6</speed>
<course>9.0</course>
<desc>Speed 5.6 km/h Distance 3.59 km</desc>
<time>2010-02-28T10:57:12.86</time>
<name>2478</name>
</trkpt>
<trkpt lat="48.939635" lon="8.692928">
<ele>396.5</ele>
<speed>5.6</speed>
<course>18.1</course>
<desc>Speed 5.6 km/h Distance 3.59 km</desc>
<time>2010-02-28T10:57:13.86</time>
<name>2479</name>
</trkpt>
<trkpt lat="48.939648" lon="8.692935">
<ele>396.5</ele>
<speed>5.3</speed>
<course>9.7</course>
<desc>Speed 5.3 km/h Distance 3.59 km</desc>
<time>2010-02-28T10:57:14.86</time>
<name>2480</name>
</trkpt>
<trkpt lat="48.939662" lon="8.692938">
<ele>396.5</ele>
<speed>5.4</speed>
<course>14.0</course>
<desc>Speed 5.4 km/h Distance 3.59 km</desc>
<time>2010-02-28T10:57:15.86</time>
<name>2481</name>
</trkpt>
<trkpt lat="48.939675" lon="8.692943">
<ele>396.5</ele>
<speed>5.5</speed>
<course>16.0</course>
<desc>Speed 5.5 km/h Distance 3.60 km</desc>
<time>2010-02-28T10:57:16.86</time>
<name>2482</name>
</trkpt>
<trkpt lat="48.939690" lon="8.692950">
<ele>396.5</ele>
<speed>5.8</speed>
<course>13.5</course>
<desc>Speed 5.8 km/h Distance 3.60 km</desc>
<time>2010-02-28T10:57:17.86</time>
<name>2483</name>
</trkpt>
<trkpt lat="48.939703" lon="8.692955">
<ele>396.0</ele>
<speed>6.0</speed>
<course>9.0</course>
<desc>Speed 6.0 km/h Distance 3.60 km</desc>
<time>2010-02-28T10:57:18.86</time>
<name>2484</name>
</trkpt>
<trkpt lat="48.939717" lon="8.692958">
<ele>396.0</ele>
<speed>5.6</speed>
<course>14.0</course>
<desc>Speed 5.6 km/h Distance 3.60 km</desc>
<time>2010-02-28T10:57:19.86</time>
<name>2485</name>
</trkpt>
<trkpt lat="48.939730" lon="8.692963">
<ele>396.0</ele>
<speed>5.0</speed>
<course>18.2</course>
<desc>Speed 5.0 km/h Distance 3.60 km</desc>
<time>2010-02-28T10:57:20.86</time>
<name>2486</name>
</trkpt>
<trkpt lat="48.939740" lon="8.692968">
<ele>396.0</ele>
<speed>4.8</speed>
<course>12.2</course>
<desc>Speed 4.8 km/h Distance 3.60 km</desc>
<time>2010-02-28T10:57:21.86</time>
<name>2487</name>
</trkpt>
<trkpt lat="48.939755" lon="8.692973">
<ele>395.5</ele>
<speed>5.5</speed>
<course>13.5</course>
<desc>Speed 5.5 km/h Distance 3.60 km</desc>
<time>2010-02-28T10:57:22.85</time>
<name>2488</name>
</trkpt>
<trkpt lat="48.939768" lon="8.692978">
<ele>395.5</ele>
<speed>5.5</speed>
<course>12.2</course>
<desc>Speed 5.5 km/h Distance 3.61 km</desc>
<time>2010-02-28T10:57:23.85</time>
<name>2489</name>
</trkpt>
<trkpt lat="48.939783" lon="8.692983">
<ele>395.5</ele>
<speed>5.9</speed>
<course>20.1</course>
<desc>Speed 5.9 km/h Distance 3.61 km</desc>
<time>2010-02-28T10:57:24.85</time>
<name>2490</name>
</trkpt>
<trkpt lat="48.939798" lon="8.692992">
<ele>395.5</ele>
<speed>6.3</speed>
<course>9.0</course>
<desc>Speed 6.3 km/h Distance 3.61 km</desc>
<time>2010-02-28T10:57:25.86</time>
<name>2491</name>
</trkpt>
<trkpt lat="48.939812" lon="8.692995">
<ele>395.5</ele>
<speed>5.4</speed>
<course>3.9</course>
<desc>Speed 5.4 km/h Distance 3.61 km</desc>
<time>2010-02-28T10:57:26.85</time>
<name>2492</name>
</trkpt>
<trkpt lat="48.939825" lon="8.692997">
<ele>396.0</ele>
<speed>5.2</speed>
<course>356.2</course>
<desc>Speed 5.2 km/h Distance 3.61 km</desc>
<time>2010-02-28T10:57:27.85</time>
<name>2493</name>
</trkpt>
<trkpt lat="48.939840" lon="8.692995">
<ele>396.0</ele>
<speed>5.6</speed>
<course>0.0</course>
<desc>Speed 5.6 km/h Distance 3.61 km</desc>
<time>2010-02-28T10:57:28.85</time>
<name>2494</name>
</trkpt>
<trkpt lat="48.939855" lon="8.692995">
<ele>396.0</ele>
<speed>5.7</speed>
<course>3.8</course>
<desc>Speed 5.7 km/h Distance 3.62 km</desc>
<time>2010-02-28T10:57:29.85</time>
<name>2495</name>
</trkpt>
<trkpt lat="48.939870" lon="8.692997">
<ele>396.0</ele>
<speed>6.0</speed>
<course>5.0</course>
<desc>Speed 6.0 km/h Distance 3.62 km</desc>
<time>2010-02-28T10:57:30.85</time>
<name>2496</name>
</trkpt>
<trkpt lat="48.939887" lon="8.692998">
<ele>396.0</ele>
<speed>6.0</speed>
<course>5.0</course>
<desc>Speed 6.0 km/h Distance 3.62 km</desc>
<time>2010-02-28T10:57:31.86</time>
<name>2497</name>
</trkpt>
<trkpt lat="48.939902" lon="8.693000">
<ele>396.0</ele>
<speed>5.9</speed>
<course>12.2</course>
<desc>Speed 5.9 km/h Distance 3.62 km</desc>
<time>2010-02-28T10:57:32.85</time>
<name>2498</name>
</trkpt>
<trkpt lat="48.939917" lon="8.693005">
<ele>396.0</ele>
<speed>5.8</speed>
<course>26.2</course>
<desc>Speed 5.8 km/h Distance 3.62 km</desc>
<time>2010-02-28T10:57:33.86</time>
<name>2499</name>
</trkpt>
<trkpt lat="48.939930" lon="8.693015">
<ele>396.0</ele>
<speed>5.7</speed>
<course>22.6</course>
<desc>Speed 5.7 km/h Distance 3.62 km</desc>
<time>2010-02-28T10:57:34.85</time>
<name>2500</name>
</trkpt>
<trkpt lat="48.939943" lon="8.693023">
<ele>395.5</ele>
<speed>5.2</speed>
<course>18.1</course>
<desc>Speed 5.2 km/h Distance 3.63 km</desc>
<time>2010-02-28T10:57:35.85</time>
<name>2501</name>
</trkpt>
<trkpt lat="48.939957" lon="8.693030">
<ele>395.5</ele>
<speed>5.4</speed>
<course>20.2</course>
<desc>Speed 5.4 km/h Distance 3.63 km</desc>
<time>2010-02-28T10:57:36.86</time>
<name>2502</name>
</trkpt>
<trkpt lat="48.939968" lon="8.693037">
<ele>395.5</ele>
<speed>4.9</speed>
<course>18.1</course>
<desc>Speed 4.9 km/h Distance 3.63 km</desc>
<time>2010-02-28T10:57:37.85</time>
<name>2503</name>
</trkpt>
<trkpt lat="48.939982" lon="8.693043">
<ele>395.5</ele>
<speed>5.4</speed>
<course>18.1</course>
<desc>Speed 5.4 km/h Distance 3.63 km</desc>
<time>2010-02-28T10:57:38.85</time>
<name>2504</name>
</trkpt>
<trkpt lat="48.939995" lon="8.693050">
<ele>396.0</ele>
<speed>5.2</speed>
<course>7.5</course>
<desc>Speed 5.2 km/h Distance 3.63 km</desc>
<time>2010-02-28T10:57:39.85</time>
<name>2505</name>
</trkpt>
<trkpt lat="48.940010" lon="8.693053">
<ele>396.0</ele>
<speed>5.6</speed>
<course>0.0</course>
<desc>Speed 5.6 km/h Distance 3.63 km</desc>
<time>2010-02-28T10:57:40.86</time>
<name>2506</name>
</trkpt>
<trkpt lat="48.940027" lon="8.693053">
<ele>396.5</ele>
<speed>6.0</speed>
<course>0.0</course>
<desc>Speed 6.0 km/h Distance 3.64 km</desc>
<time>2010-02-28T10:57:41.88</time>
<name>2507</name>
</trkpt>
<trkpt lat="48.940043" lon="8.693053">
<ele>396.5</ele>
<speed>6.2</speed>
<course>0.0</course>
<desc>Speed 6.2 km/h Distance 3.64 km</desc>
<time>2010-02-28T10:57:42.86</time>
<name>2508</name>
</trkpt>
<trkpt lat="48.940058" lon="8.693053">
<ele>396.5</ele>
<speed>6.0</speed>
<course>0.0</course>
<desc>Speed 6.0 km/h Distance 3.64 km</desc>
<time>2010-02-28T10:57:43.85</time>
<name>2509</name>
</trkpt>
<trkpt lat="48.940075" lon="8.693053">
<ele>396.5</ele>
<speed>6.0</speed>
<course>1.9</course>
<desc>Speed 6.0 km/h Distance 3.64 km</desc>
<time>2010-02-28T10:57:44.85</time>
<name>2510</name>
</trkpt>
<trkpt lat="48.940090" lon="8.693055">
<ele>396.5</ele>
<speed>5.9</speed>
<course>7.1</course>
<desc>Speed 5.9 km/h Distance 3.64 km</desc>
<time>2010-02-28T10:57:45.85</time>
<name>2511</name>
</trkpt>
<trkpt lat="48.940107" lon="8.693058">
<ele>396.5</ele>
<speed>6.1</speed>
<course>11.2</course>
<desc>Speed 6.1 km/h Distance 3.64 km</desc>
<time>2010-02-28T10:57:46.85</time>
<name>2512</name>
</trkpt>
<trkpt lat="48.940123" lon="8.693063">
<ele>396.5</ele>
<speed>5.8</speed>
<course>7.5</course>
<desc>Speed 5.8 km/h Distance 3.65 km</desc>
<time>2010-02-28T10:57:47.86</time>
<name>2513</name>
</trkpt>
<trkpt lat="48.940138" lon="8.693067">
<ele>397.0</ele>
<speed>5.9</speed>
<course>9.0</course>
<desc>Speed 5.9 km/h Distance 3.65 km</desc>
<time>2010-02-28T10:57:48.85</time>
<name>2514</name>
</trkpt>
<trkpt lat="48.940152" lon="8.693070">
<ele>396.5</ele>
<speed>5.8</speed>
<course>8.1</course>
<desc>Speed 5.8 km/h Distance 3.65 km</desc>
<time>2010-02-28T10:57:49.85</time>
<name>2515</name>
</trkpt>
<trkpt lat="48.940167" lon="8.693073">
<ele>396.5</ele>
<speed>5.9</speed>
<course>8.8</course>
<desc>Speed 5.9 km/h Distance 3.65 km</desc>
<time>2010-02-28T10:57:50.85</time>
<name>2516</name>
</trkpt>
<trkpt lat="48.940182" lon="8.693077">
<ele>396.0</ele>
<speed>5.4</speed>
<course>9.7</course>
<desc>Speed 5.4 km/h Distance 3.65 km</desc>
<time>2010-02-28T10:57:51.85</time>
<name>2517</name>
</trkpt>
<trkpt lat="48.940195" lon="8.693080">
<ele>396.0</ele>
<speed>5.6</speed>
<course>14.9</course>
<desc>Speed 5.6 km/h Distance 3.65 km</desc>
<time>2010-02-28T10:57:52.84</time>
<name>2518</name>
</trkpt>
<trkpt lat="48.940212" lon="8.693087">
<ele>395.5</ele>
<speed>6.2</speed>
<course>20.6</course>
<desc>Speed 6.2 km/h Distance 3.66 km</desc>
<time>2010-02-28T10:57:53.84</time>
<name>2519</name>
</trkpt>
<trkpt lat="48.940223" lon="8.693093">
<ele>395.0</ele>
<speed>5.2</speed>
<course>9.7</course>
<desc>Speed 5.2 km/h Distance 3.66 km</desc>
<time>2010-02-28T10:57:54.84</time>
<name>2520</name>
</trkpt>
<trkpt lat="48.940237" lon="8.693097">
<ele>394.5</ele>
<speed>4.7</speed>
<course>20.2</course>
<desc>Speed 4.7 km/h Distance 3.66 km</desc>
<time>2010-02-28T10:57:55.84</time>
<name>2521</name>
</trkpt>
<trkpt lat="48.940248" lon="8.693103">
<ele>394.5</ele>
<speed>4.9</speed>
<course>18.1</course>
<desc>Speed 4.9 km/h Distance 3.66 km</desc>
<time>2010-02-28T10:57:56.84</time>
<name>2522</name>
</trkpt>
<trkpt lat="48.940262" lon="8.693110">
<ele>393.5</ele>
<speed>4.9</speed>
<course>15.5</course>
<desc>Speed 4.9 km/h Distance 3.66 km</desc>
<time>2010-02-28T10:57:57.84</time>
<name>2523</name>
</trkpt>
<trkpt lat="48.940273" lon="8.693115">
<ele>393.5</ele>
<speed>4.6</speed>
<course>16.0</course>
<desc>Speed 4.6 km/h Distance 3.66 km</desc>
<time>2010-02-28T10:57:58.84</time>
<name>2524</name>
</trkpt>
<trkpt lat="48.940288" lon="8.693122">
<ele>393.5</ele>
<speed>5.7</speed>
<course>15.5</course>
<desc>Speed 5.7 km/h Distance 3.67 km</desc>
<time>2010-02-28T10:57:59.85</time>
<name>2525</name>
</trkpt>
<trkpt lat="48.940300" lon="8.693127">
<ele>393.5</ele>
<speed>4.6</speed>
<course>26.4</course>
<desc>Speed 4.6 km/h Distance 3.67 km</desc>
<time>2010-02-28T10:58:00.84</time>
<name>2526</name>
</trkpt>
<trkpt lat="48.940307" lon="8.693132">
<ele>393.0</ele>
<speed>3.3</speed>
<course>13.5</course>
<desc>Speed 3.3 km/h Distance 3.67 km</desc>
<time>2010-02-28T10:58:01.84</time>
<name>2527</name>
</trkpt>
<trkpt lat="48.940320" lon="8.693137">
<ele>392.5</ele>
<speed>5.3</speed>
<course>4.4</course>
<desc>Speed 5.3 km/h Distance 3.67 km</desc>
<time>2010-02-28T10:58:02.84</time>
<name>2528</name>
</trkpt>
<trkpt lat="48.940330" lon="8.693138">
<ele>392.5</ele>
<speed>3.5</speed>
<course>347.4</course>
<desc>Speed 3.5 km/h Distance 3.67 km</desc>
<time>2010-02-28T10:58:03.85</time>
<name>2529</name>
</trkpt>
<trkpt lat="48.940340" lon="8.693135">
<ele>392.5</ele>
<speed>4.5</speed>
<course>330.6</course>
<desc>Speed 4.5 km/h Distance 3.67 km</desc>
<time>2010-02-28T10:58:04.85</time>
<name>2530</name>
</trkpt>
<trkpt lat="48.940352" lon="8.693125">
<ele>392.5</ele>
<speed>4.7</speed>
<course>330.6</course>
<desc>Speed 4.7 km/h Distance 3.67 km</desc>
<time>2010-02-28T10:58:05.84</time>
<name>2531</name>
</trkpt>
<trkpt lat="48.940363" lon="8.693115">
<ele>392.5</ele>
<speed>5.5</speed>
<course>333.8</course>
<desc>Speed 5.5 km/h Distance 3.67 km</desc>
<time>2010-02-28T10:58:06.84</time>
<name>2532</name>
</trkpt>
<trkpt lat="48.940377" lon="8.693105">
<ele>392.5</ele>
<speed>5.5</speed>
<course>334.0</course>
<desc>Speed 5.5 km/h Distance 3.68 km</desc>
<time>2010-02-28T10:58:07.84</time>
<name>2533</name>
</trkpt>
<trkpt lat="48.940390" lon="8.693095">
<ele>393.0</ele>
<speed>5.5</speed>
<course>326.6</course>
<desc>Speed 5.5 km/h Distance 3.68 km</desc>
<time>2010-02-28T10:58:08.84</time>
<name>2534</name>
</trkpt>
<trkpt lat="48.940403" lon="8.693082">
<ele>393.0</ele>
<speed>5.7</speed>
<course>316.7</course>
<desc>Speed 5.7 km/h Distance 3.68 km</desc>
<time>2010-02-28T10:58:09.84</time>
<name>2535</name>
</trkpt>
<trkpt lat="48.940415" lon="8.693065">
<ele>393.5</ele>
<speed>5.8</speed>
<course>312.4</course>
<desc>Speed 5.8 km/h Distance 3.68 km</desc>
<time>2010-02-28T10:58:10.84</time>
<name>2536</name>
</trkpt>
<trkpt lat="48.940425" lon="8.693048">
<ele>393.5</ele>
<speed>6.1</speed>
<course>326.7</course>
<desc>Speed 6.1 km/h Distance 3.68 km</desc>
<time>2010-02-28T10:58:11.84</time>
<name>2537</name>
</trkpt>
<trkpt lat="48.940438" lon="8.693035">
<ele>393.0</ele>
<speed>6.0</speed>
<course>323.1</course>
<desc>Speed 6.0 km/h Distance 3.68 km</desc>
<time>2010-02-28T10:58:12.84</time>
<name>2538</name>
</trkpt>
<trkpt lat="48.940450" lon="8.693022">
<ele>393.0</ele>
<speed>5.2</speed>
<course>319.8</course>
<desc>Speed 5.2 km/h Distance 3.69 km</desc>
<time>2010-02-28T10:58:13.84</time>
<name>2539</name>
</trkpt>
<trkpt lat="48.940462" lon="8.693007">
<ele>393.0</ele>
<speed>5.4</speed>
<course>322.5</course>
<desc>Speed 5.4 km/h Distance 3.69 km</desc>
<time>2010-02-28T10:58:14.83</time>
<name>2540</name>
</trkpt>
<trkpt lat="48.940472" lon="8.692995">
<ele>393.0</ele>
<speed>5.1</speed>
<course>313.4</course>
<desc>Speed 5.1 km/h Distance 3.69 km</desc>
<time>2010-02-28T10:58:15.84</time>
<name>2541</name>
</trkpt>
<trkpt lat="48.940480" lon="8.692982">
<ele>392.5</ele>
<speed>4.9</speed>
<course>312.4</course>
<desc>Speed 4.9 km/h Distance 3.69 km</desc>
<time>2010-02-28T10:58:16.83</time>
<name>2542</name>
</trkpt>
<trkpt lat="48.940490" lon="8.692965">
<ele>392.0</ele>
<speed>6.0</speed>
<course>301.3</course>
<desc>Speed 6.0 km/h Distance 3.69 km</desc>
<time>2010-02-28T10:58:17.84</time>
<name>2543</name>
</trkpt>
<trkpt lat="48.940497" lon="8.692948">
<ele>392.0</ele>
<speed>5.1</speed>
<course>330.2</course>
<desc>Speed 5.1 km/h Distance 3.69 km</desc>
<time>2010-02-28T10:58:18.84</time>
<name>2544</name>
</trkpt>
<trkpt lat="48.940510" lon="8.692937">
<ele>392.0</ele>
<speed>5.9</speed>
<course>322.5</course>
<desc>Speed 5.9 km/h Distance 3.70 km</desc>
<time>2010-02-28T10:58:19.84</time>
<name>2545</name>
</trkpt>
<trkpt lat="48.940520" lon="8.692925">
<ele>392.0</ele>
<speed>5.1</speed>
<course>297.0</course>
<desc>Speed 5.1 km/h Distance 3.70 km</desc>
<time>2010-02-28T10:58:20.84</time>
<name>2546</name>
</trkpt>
<trkpt lat="48.940523" lon="8.692915">
<ele>392.0</ele>
<speed>3.1</speed>
<course>315.5</course>
<desc>Speed 3.1 km/h Distance 3.70 km</desc>
<time>2010-02-28T10:58:21.84</time>
<name>2547</name>
</trkpt>
<trkpt lat="48.940527" lon="8.692910">
<ele>392.0</ele>
<speed>1.8</speed>
<course>238.6</course>
<desc>Speed 1.8 km/h Distance 3.70 km</desc>
<time>2010-02-28T10:58:23.08</time>
<name>2548</name>
</trkpt>
<trkpt lat="48.940523" lon="8.692902">
<ele>392.0</ele>
<speed>2.6</speed>
<course>308.1</course>
<desc>Speed 2.6 km/h Distance 3.70 km</desc>
<time>2010-02-28T10:58:23.84</time>
<name>2549</name>
</trkpt>
<trkpt lat="48.940525" lon="8.692898">
<ele>392.0</ele>
<speed>2.2</speed>
<course>37.2</course>
<desc>Speed 2.2 km/h Distance 3.70 km</desc>
<time>2010-02-28T10:58:24.83</time>
<name>2550</name>
</trkpt>
<trkpt lat="48.940527" lon="8.692900">
<ele>392.0</ele>
<speed>0.9</speed>
<course>53.9</course>
<desc>Speed 0.9 km/h Distance 3.70 km</desc>
<time>2010-02-28T10:58:25.84</time>
<name>2551</name>
</trkpt>
<trkpt lat="48.940528" lon="8.692903">
<ele>392.0</ele>
<speed>1.3</speed>
<course>29.2</course>
<desc>Speed 1.3 km/h Distance 3.70 km</desc>
<time>2010-02-28T10:58:26.83</time>
<name>2552</name>
</trkpt>
<trkpt lat="48.940530" lon="8.692905">
<ele>392.5</ele>
<speed>1.3</speed>
<course>192.6</course>
<desc>Speed 1.3 km/h Distance 3.70 km</desc>
<time>2010-02-28T10:58:27.83</time>
<name>2553</name>
</trkpt>
<trkpt lat="48.940525" lon="8.692903">
<ele>392.5</ele>
<speed>1.7</speed>
<course>198.8</course>
<desc>Speed 1.7 km/h Distance 3.70 km</desc>
<time>2010-02-28T10:58:28.82</time>
<name>2554</name>
</trkpt>
<trkpt lat="48.940522" lon="8.692902">
<ele>392.5</ele>
<speed>0.8</speed>
<course>7.7</course>
<desc>Speed 0.8 km/h Distance 3.70 km</desc>
<time>2010-02-28T10:58:29.87</time>
<name>2555</name>
</trkpt>
<trkpt lat="48.940538" lon="8.692905">
<ele>392.5</ele>
<speed>7.3</speed>
<course>326.8</course>
<desc>Speed 7.3 km/h Distance 3.70 km</desc>
<time>2010-02-28T10:58:30.83</time>
<name>2556</name>
</trkpt>
<trkpt lat="48.940543" lon="8.692900">
<ele>393.0</ele>
<speed>1.7</speed>
<course>290.9</course>
<desc>Speed 1.7 km/h Distance 3.70 km</desc>
<time>2010-02-28T10:58:31.82</time>
<name>2557</name>
</trkpt>
<trkpt lat="48.940545" lon="8.692893">
<ele>393.5</ele>
<speed>0.5</speed>
<course>290.9</course>
<desc>Speed 0.5 km/h Distance 3.70 km</desc>
<time>2010-02-28T10:58:32.82</time>
<name>2558</name>
</trkpt>
<trkpt lat="48.940545" lon="8.692893">
<ele>393.5</ele>
<speed>0.4</speed>
<course>223.5</course>
<desc>Speed 0.4 km/h Distance 3.70 km</desc>
<time>2010-02-28T10:58:33.82</time>
<name>2559</name>
</trkpt>
<trkpt lat="48.940542" lon="8.692888">
<ele>393.5</ele>
<speed>1.2</speed>
<course>40.9</course>
<desc>Speed 1.2 km/h Distance 3.70 km</desc>
<time>2010-02-28T10:58:34.82</time>
<name>2560</name>
</trkpt>
<trkpt lat="48.940547" lon="8.692895">
<ele>393.5</ele>
<speed>3.0</speed>
<course>231.9</course>
<desc>Speed 3.0 km/h Distance 3.70 km</desc>
<time>2010-02-28T10:58:35.82</time>
<name>2561</name>
</trkpt>
<trkpt lat="48.940545" lon="8.692892">
<ele>394.0</ele>
<speed>0.8</speed>
<course>33.7</course>
<desc>Speed 0.8 km/h Distance 3.71 km</desc>
<time>2010-02-28T10:58:36.82</time>
<name>2562</name>
</trkpt>
<trkpt lat="48.940548" lon="8.692895">
<ele>394.0</ele>
<speed>1.1</speed>
<course>202.2</course>
<desc>Speed 1.1 km/h Distance 3.71 km</desc>
<time>2010-02-28T10:58:37.82</time>
<name>2563</name>
</trkpt>
<trkpt lat="48.940543" lon="8.692892">
<ele>394.0</ele>
<speed>1.6</speed>
<course>165.1</course>
<desc>Speed 1.6 km/h Distance 3.71 km</desc>
<time>2010-02-28T10:58:38.82</time>
<name>2564</name>
</trkpt>
<trkpt lat="48.940535" lon="8.692895">
<ele>394.0</ele>
<speed>2.8</speed>
<course>180.0</course>
<desc>Speed 2.8 km/h Distance 3.71 km</desc>
<time>2010-02-28T10:58:39.82</time>
<name>2565</name>
</trkpt>
<trkpt lat="48.940530" lon="8.692895">
<ele>394.0</ele>
<speed>2.8</speed>
<course>161.2</course>
<desc>Speed 2.8 km/h Distance 3.71 km</desc>
<time>2010-02-28T10:58:40.81</time>
<name>2566</name>
</trkpt>
<trkpt lat="48.940527" lon="8.692897">
<ele>394.0</ele>
<speed>2.8</speed>
<course>187.7</course>
<desc>Speed 2.8 km/h Distance 3.71 km</desc>
<time>2010-02-28T10:58:41.83</time>
<name>2567</name>
</trkpt>
<trkpt lat="48.940518" lon="8.692895">
<ele>394.0</ele>
<speed>1.0</speed>
<course>167.4</course>
<desc>Speed 1.0 km/h Distance 3.71 km</desc>
<time>2010-02-28T10:58:42.81</time>
<name>2568</name>
</trkpt>
<trkpt lat="48.940515" lon="8.692895">
<ele>394.0</ele>
<speed>1.0</speed>
<course>235.0</course>
<desc>Speed 1.0 km/h Distance 3.71 km</desc>
<time>2010-02-28T10:58:43.81</time>
<name>2569</name>
</trkpt>
<trkpt lat="48.940458" lon="8.692772">
<ele>394.0</ele>
<speed>3.7</speed>
<course>270.0</course>
<desc>Speed 3.7 km/h Distance 3.72 km</desc>
<time>2010-02-28T10:58:46.81</time>
<name>2570</name>
</trkpt>
<trkpt lat="48.940458" lon="8.692770">
<ele>394.0</ele>
<speed>0.3</speed>
<course>12.6</course>
<desc>Speed 0.3 km/h Distance 3.72 km</desc>
<time>2010-02-28T10:58:47.80</time>
<name>2571</name>
</trkpt>
<trkpt lat="48.940462" lon="8.692770">
<ele>394.5</ele>
<speed>1.6</speed>
<course>330.8</course>
<desc>Speed 1.6 km/h Distance 3.72 km</desc>
<time>2010-02-28T10:58:48.80</time>
<name>2572</name>
</trkpt>
<trkpt lat="48.940463" lon="8.692768">
<ele>394.5</ele>
<speed>0.1</speed>
<course>209.2</course>
<desc>Speed 0.1 km/h Distance 3.72 km</desc>
<time>2010-02-28T10:58:49.80</time>
<name>2573</name>
</trkpt>
<trkpt lat="48.940462" lon="8.692767">
<ele>395.0</ele>
<speed>3.6</speed>
<course>81.8</course>
<desc>Speed 3.6 km/h Distance 3.72 km</desc>
<time>2010-02-28T10:58:50.80</time>
<name>2574</name>
</trkpt>
<trkpt lat="48.940465" lon="8.692802">
<ele>395.0</ele>
<speed>9.9</speed>
<course>57.6</course>
<desc>Speed 9.9 km/h Distance 3.72 km</desc>
<time>2010-02-28T10:58:51.91</time>
<name>2575</name>
</trkpt>
<trkpt lat="48.940473" lon="8.692822">
<ele>395.0</ele>
<speed>0.9</speed>
<course>28.9</course>
<desc>Speed 0.9 km/h Distance 3.73 km</desc>
<time>2010-02-28T10:58:54.76</time>
<name>2576</name>
</trkpt>
<trkpt lat="48.940515" lon="8.692857">
<ele>394.5</ele>
<speed>3.0</speed>
<course>27.9</course>
<desc>Speed 3.0 km/h Distance 3.73 km</desc>
<time>2010-02-28T10:58:56.81</time>
<name>2577</name>
</trkpt>
<trkpt lat="48.940523" lon="8.692863">
<ele>394.5</ele>
<speed>3.0</speed>
<course>237.7</course>
<desc>Speed 3.0 km/h Distance 3.73 km</desc>
<time>2010-02-28T10:58:57.80</time>
<name>2578</name>
</trkpt>
<trkpt lat="48.940515" lon="8.692843">
<ele>394.5</ele>
<speed>3.6</speed>
<course>12.6</course>
<desc>Speed 3.6 km/h Distance 3.73 km</desc>
<time>2010-02-28T10:58:58.80</time>
<name>2579</name>
</trkpt>
<trkpt lat="48.940517" lon="8.692843">
<ele>394.0</ele>
<speed>0.5</speed>
<course>8.1</course>
<desc>Speed 0.5 km/h Distance 3.73 km</desc>
<time>2010-02-28T10:58:59.80</time>
<name>2580</name>
</trkpt>
<trkpt lat="48.940522" lon="8.692843">
<ele>394.5</ele>
<speed>0.5</speed>
<course>322.8</course>
<desc>Speed 0.5 km/h Distance 3.73 km</desc>
<time>2010-02-28T10:59:01.24</time>
<name>2581</name>
</trkpt>
<trkpt lat="48.940523" lon="8.692842">
<ele>394.5</ele>
<speed>0.2</speed>
<course>18.8</course>
<desc>Speed 0.2 km/h Distance 3.73 km</desc>
<time>2010-02-28T10:59:01.80</time>
<name>2582</name>
</trkpt>
<trkpt lat="48.940527" lon="8.692843">
<ele>396.0</ele>
<speed>0.0</speed>
<course>7.4</course>
<desc>Speed 0.0 km/h Distance 3.74 km</desc>
<time>2010-02-28T10:59:03.82</time>
<name>2583</name>
</trkpt>
<trkpt lat="48.940533" lon="8.692845">
<ele>396.0</ele>
<speed>1.3</speed>
<course>327.7</course>
<desc>Speed 1.3 km/h Distance 3.74 km</desc>
<time>2010-02-28T10:59:04.96</time>
<name>2584</name>
</trkpt>
<trkpt lat="48.940538" lon="8.692840">
<ele>397.0</ele>
<speed>2.7</speed>
<course>72.9</course>
<desc>Speed 2.7 km/h Distance 3.74 km</desc>
<time>2010-02-28T10:59:05.83</time>
<name>2585</name>
</trkpt>
<trkpt lat="48.940540" lon="8.692848">
<ele>397.5</ele>
<speed>2.0</speed>
<course>275.6</course>
<desc>Speed 2.0 km/h Distance 3.74 km</desc>
<time>2010-02-28T10:59:06.83</time>
<name>2586</name>
</trkpt>
<trkpt lat="48.940543" lon="8.692797">
<ele>398.5</ele>
<speed>11.8</speed>
<course>283.2</course>
<desc>Speed 11.8 km/h Distance 3.74 km</desc>
<time>2010-02-28T10:59:08.83</time>
<name>2587</name>
</trkpt>
<trkpt lat="48.940547" lon="8.692775">
<ele>398.5</ele>
<speed>5.1</speed>
<course>320.6</course>
<desc>Speed 5.1 km/h Distance 3.74 km</desc>
<time>2010-02-28T10:59:09.83</time>
<name>2588</name>
</trkpt>
<trkpt lat="48.940553" lon="8.692767">
<ele>397.5</ele>
<speed>3.9</speed>
<course>307.3</course>
<desc>Speed 3.9 km/h Distance 3.74 km</desc>
<time>2010-02-28T10:59:10.83</time>
<name>2589</name>
</trkpt>
<trkpt lat="48.940562" lon="8.692750">
<ele>397.5</ele>
<speed>5.1</speed>
<course>48.9</course>
<desc>Speed 5.1 km/h Distance 3.75 km</desc>
<time>2010-02-28T10:59:11.83</time>
<name>2590</name>
</trkpt>
<trkpt lat="48.940653" lon="8.692910">
<ele>398.5</ele>
<speed>6.2</speed>
<course>262.8</course>
<desc>Speed 6.2 km/h Distance 3.76 km</desc>
<time>2010-02-28T10:59:14.83</time>
<name>2591</name>
</trkpt>
<trkpt lat="48.940652" lon="8.692890">
<ele>399.0</ele>
<speed>3.7</speed>
<course>280.8</course>
<desc>Speed 3.7 km/h Distance 3.76 km</desc>
<time>2010-02-28T10:59:15.83</time>
<name>2592</name>
</trkpt>
<trkpt lat="48.940655" lon="8.692863">
<ele>398.5</ele>
<speed>3.7</speed>
<course>315.5</course>
<desc>Speed 3.7 km/h Distance 3.76 km</desc>
<time>2010-02-28T10:59:16.83</time>
<name>2593</name>
</trkpt>
<trkpt lat="48.940665" lon="8.692848">
<ele>398.5</ele>
<speed>4.5</speed>
<course>352.3</course>
<desc>Speed 4.5 km/h Distance 3.77 km</desc>
<time>2010-02-28T10:59:17.83</time>
<name>2594</name>
</trkpt>
<trkpt lat="48.940673" lon="8.692847">
<ele>398.5</ele>
<speed>5.6</speed>
<course>326.8</course>
<desc>Speed 5.6 km/h Distance 3.77 km</desc>
<time>2010-02-28T10:59:18.83</time>
<name>2595</name>
</trkpt>
<trkpt lat="48.940680" lon="8.692840">
<ele>398.5</ele>
<speed>3.7</speed>
<course>339.8</course>
<desc>Speed 3.7 km/h Distance 3.77 km</desc>
<time>2010-02-28T10:59:19.83</time>
<name>2596</name>
</trkpt>
<trkpt lat="48.940692" lon="8.692833">
<ele>398.5</ele>
<speed>4.8</speed>
<course>345.1</course>
<desc>Speed 4.8 km/h Distance 3.77 km</desc>
<time>2010-02-28T10:59:20.83</time>
<name>2597</name>
</trkpt>
<trkpt lat="48.940700" lon="8.692830">
<ele>398.5</ele>
<speed>4.8</speed>
<course>337.9</course>
<desc>Speed 4.8 km/h Distance 3.77 km</desc>
<time>2010-02-28T10:59:21.83</time>
<name>2598</name>
</trkpt>
<trkpt lat="48.940713" lon="8.692822">
<ele>399.5</ele>
<speed>10.2</speed>
<course>320.3</course>
<desc>Speed 10.2 km/h Distance 3.77 km</desc>
<time>2010-02-28T10:59:22.83</time>
<name>2599</name>
</trkpt>
<trkpt lat="48.940720" lon="8.692813">
<ele>399.0</ele>
<speed>2.2</speed>
<course>212.2</course>
<desc>Speed 2.2 km/h Distance 3.77 km</desc>
<time>2010-02-28T10:59:24.83</time>
<name>2600</name>
</trkpt>
<trkpt lat="48.940678" lon="8.692773">
<ele>399.5</ele>
<speed>11.4</speed>
<course>319.6</course>
<desc>Speed 11.4 km/h Distance 3.78 km</desc>
<time>2010-02-28T10:59:26.83</time>
<name>2601</name>
</trkpt>
<trkpt lat="48.940707" lon="8.692737">
<ele>400.5</ele>
<speed>2.6</speed>
<course>337.3</course>
<desc>Speed 2.6 km/h Distance 3.78 km</desc>
<time>2010-02-28T10:59:28.90</time>
<name>2602</name>
</trkpt>
<trkpt lat="48.940725" lon="8.692725">
<ele>401.0</ele>
<speed>1.0</speed>
<course>335.3</course>
<desc>Speed 1.0 km/h Distance 3.78 km</desc>
<time>2010-02-28T10:59:29.90</time>
<name>2603</name>
</trkpt>
<trkpt lat="48.940742" lon="8.692713">
<ele>402.0</ele>
<speed>3.1</speed>
<course>334.8</course>
<desc>Speed 3.1 km/h Distance 3.79 km</desc>
<time>2010-02-28T10:59:30.90</time>
<name>2604</name>
</trkpt>
<trkpt lat="48.940753" lon="8.692705">
<ele>402.0</ele>
<speed>3.0</speed>
<course>336.3</course>
<desc>Speed 3.0 km/h Distance 3.79 km</desc>
<time>2010-02-28T10:59:31.90</time>
<name>2605</name>
</trkpt>
<trkpt lat="48.940768" lon="8.692695">
<ele>402.5</ele>
<speed>4.1</speed>
<course>318.6</course>
<desc>Speed 4.1 km/h Distance 3.79 km</desc>
<time>2010-02-28T10:59:32.90</time>
<name>2606</name>
</trkpt>
<trkpt lat="48.940778" lon="8.692682">
<ele>402.5</ele>
<speed>4.0</speed>
<course>317.4</course>
<desc>Speed 4.0 km/h Distance 3.79 km</desc>
<time>2010-02-28T10:59:33.90</time>
<name>2607</name>
</trkpt>
<trkpt lat="48.940787" lon="8.692670">
<ele>403.0</ele>
<speed>3.4</speed>
<course>310.2</course>
<desc>Speed 3.4 km/h Distance 3.79 km</desc>
<time>2010-02-28T10:59:34.90</time>
<name>2608</name>
</trkpt>
<trkpt lat="48.940795" lon="8.692655">
<ele>403.5</ele>
<speed>3.4</speed>
<course>332.8</course>
<desc>Speed 3.4 km/h Distance 3.79 km</desc>
<time>2010-02-28T10:59:35.90</time>
<name>2609</name>
</trkpt>
<trkpt lat="48.940810" lon="8.692643">
<ele>403.0</ele>
<speed>2.9</speed>
<course>270.0</course>
<desc>Speed 2.9 km/h Distance 3.80 km</desc>
<time>2010-02-28T10:59:36.90</time>
<name>2610</name>
</trkpt>
<trkpt lat="48.940810" lon="8.692637">
<ele>403.0</ele>
<speed>1.9</speed>
<course>233.9</course>
<desc>Speed 1.9 km/h Distance 3.80 km</desc>
<time>2010-02-28T10:59:37.90</time>
<name>2611</name>
</trkpt>
<trkpt lat="48.940808" lon="8.692633">
<ele>403.0</ele>
<speed>0.3</speed>
<course>52.7</course>
<desc>Speed 0.3 km/h Distance 3.80 km</desc>
<time>2010-02-28T10:59:38.90</time>
<name>2612</name>
</trkpt>
<trkpt lat="48.940835" lon="8.692687">
<ele>403.5</ele>
<speed>0.8</speed>
<course>12.6</course>
<desc>Speed 0.8 km/h Distance 3.80 km</desc>
<time>2010-02-28T10:59:40.90</time>
<name>2613</name>
</trkpt>
<trkpt lat="48.940837" lon="8.692687">
<ele>403.5</ele>
<speed>0.1</speed>
<course>307.4</course>
<desc>Speed 0.1 km/h Distance 3.80 km</desc>
<time>2010-02-28T10:59:41.90</time>
<name>2614</name>
</trkpt>
<trkpt lat="48.940842" lon="8.692677">
<ele>403.5</ele>
<speed>2.9</speed>
<course>322.5</course>
<desc>Speed 2.9 km/h Distance 3.80 km</desc>
<time>2010-02-28T10:59:42.90</time>
<name>2615</name>
</trkpt>
<trkpt lat="48.940852" lon="8.692665">
<ele>404.0</ele>
<speed>4.2</speed>
<course>333.0</course>
<desc>Speed 4.2 km/h Distance 3.80 km</desc>
<time>2010-02-28T10:59:43.90</time>
<name>2616</name>
</trkpt>
<trkpt lat="48.940867" lon="8.692653">
<ele>404.0</ele>
<speed>4.9</speed>
<course>333.8</course>
<desc>Speed 4.9 km/h Distance 3.81 km</desc>
<time>2010-02-28T10:59:44.90</time>
<name>2617</name>
</trkpt>
<trkpt lat="48.940880" lon="8.692643">
<ele>404.0</ele>
<speed>3.6</speed>
<course>332.8</course>
<desc>Speed 3.6 km/h Distance 3.81 km</desc>
<time>2010-02-28T10:59:45.90</time>
<name>2618</name>
</trkpt>
<trkpt lat="48.940895" lon="8.692632">
<ele>403.5</ele>
<speed>3.5</speed>
<course>326.6</course>
<desc>Speed 3.5 km/h Distance 3.81 km</desc>
<time>2010-02-28T10:59:46.90</time>
<name>2619</name>
</trkpt>
<trkpt lat="48.940907" lon="8.692620">
<ele>403.5</ele>
<speed>4.4</speed>
<course>333.8</course>
<desc>Speed 4.4 km/h Distance 3.81 km</desc>
<time>2010-02-28T10:59:47.90</time>
<name>2620</name>
</trkpt>
<trkpt lat="48.940920" lon="8.692610">
<ele>403.5</ele>
<speed>4.5</speed>
<course>335.3</course>
<desc>Speed 4.5 km/h Distance 3.81 km</desc>
<time>2010-02-28T10:59:48.90</time>
<name>2621</name>
</trkpt>
<trkpt lat="48.940937" lon="8.692598">
<ele>403.0</ele>
<speed>4.6</speed>
<course>326.6</course>
<desc>Speed 4.6 km/h Distance 3.81 km</desc>
<time>2010-02-28T10:59:49.90</time>
<name>2622</name>
</trkpt>
<trkpt lat="48.940950" lon="8.692585">
<ele>403.0</ele>
<speed>4.7</speed>
<course>316.5</course>
<desc>Speed 4.7 km/h Distance 3.82 km</desc>
<time>2010-02-28T10:59:50.90</time>
<name>2623</name>
</trkpt>
<trkpt lat="48.940965" lon="8.692563">
<ele>402.0</ele>
<speed>4.8</speed>
<course>314.1</course>
<desc>Speed 4.8 km/h Distance 3.82 km</desc>
<time>2010-02-28T10:59:51.90</time>
<name>2624</name>
</trkpt>
<trkpt lat="48.940977" lon="8.692545">
<ele>402.5</ele>
<speed>4.6</speed>
<course>305.1</course>
<desc>Speed 4.6 km/h Distance 3.82 km</desc>
<time>2010-02-28T10:59:52.90</time>
<name>2625</name>
</trkpt>
<trkpt lat="48.940987" lon="8.692523">
<ele>402.5</ele>
<speed>4.7</speed>
<course>330.6</course>
<desc>Speed 4.7 km/h Distance 3.82 km</desc>
<time>2010-02-28T10:59:53.90</time>
<name>2626</name>
</trkpt>
<trkpt lat="48.940998" lon="8.692513">
<ele>402.0</ele>
<speed>5.3</speed>
<course>316.7</course>
<desc>Speed 5.3 km/h Distance 3.82 km</desc>
<time>2010-02-28T10:59:54.90</time>
<name>2627</name>
</trkpt>
<trkpt lat="48.941010" lon="8.692497">
<ele>402.0</ele>
<speed>4.7</speed>
<course>304.6</course>
<desc>Speed 4.7 km/h Distance 3.83 km</desc>
<time>2010-02-28T10:59:55.90</time>
<name>2628</name>
</trkpt>
<trkpt lat="48.941018" lon="8.692478">
<ele>402.0</ele>
<speed>4.5</speed>
<course>312.4</course>
<desc>Speed 4.5 km/h Distance 3.83 km</desc>
<time>2010-02-28T10:59:56.90</time>
<name>2629</name>
</trkpt>
<trkpt lat="48.941028" lon="8.692462">
<ele>402.5</ele>
<speed>4.6</speed>
<course>318.6</course>
<desc>Speed 4.6 km/h Distance 3.83 km</desc>
<time>2010-02-28T10:59:57.90</time>
<name>2630</name>
</trkpt>
<trkpt lat="48.941038" lon="8.692448">
<ele>402.5</ele>
<speed>4.0</speed>
<course>307.2</course>
<desc>Speed 4.0 km/h Distance 3.83 km</desc>
<time>2010-02-28T10:59:58.90</time>
<name>2631</name>
</trkpt>
<trkpt lat="48.941043" lon="8.692438">
<ele>402.0</ele>
<speed>3.1</speed>
<course>303.1</course>
<desc>Speed 3.1 km/h Distance 3.83 km</desc>
<time>2010-02-28T10:59:59.90</time>
<name>2632</name>
</trkpt>
<trkpt lat="48.941048" lon="8.692427">
<ele>402.0</ele>
<speed>2.9</speed>
<course>318.7</course>
<desc>Speed 2.9 km/h Distance 3.83 km</desc>
<time>2010-02-28T11:00:00.90</time>
<name>2633</name>
</trkpt>
<trkpt lat="48.941058" lon="8.692413">
<ele>402.0</ele>
<speed>4.6</speed>
<course>314.1</course>
<desc>Speed 4.6 km/h Distance 3.83 km</desc>
<time>2010-02-28T11:00:01.90</time>
<name>2634</name>
</trkpt>
<trkpt lat="48.941070" lon="8.692395">
<ele>402.0</ele>
<speed>5.3</speed>
<course>326.6</course>
<desc>Speed 5.3 km/h Distance 3.84 km</desc>
<time>2010-02-28T11:00:02.90</time>
<name>2635</name>
</trkpt>
<trkpt lat="48.941083" lon="8.692382">
<ele>401.5</ele>
<speed>4.9</speed>
<course>334.0</course>
<desc>Speed 4.9 km/h Distance 3.84 km</desc>
<time>2010-02-28T11:00:03.90</time>
<name>2636</name>
</trkpt>
<trkpt lat="48.941097" lon="8.692372">
<ele>401.5</ele>
<speed>5.1</speed>
<course>340.4</course>
<desc>Speed 5.1 km/h Distance 3.84 km</desc>
<time>2010-02-28T11:00:04.90</time>
<name>2637</name>
</trkpt>
<trkpt lat="48.941112" lon="8.692363">
<ele>402.0</ele>
<speed>4.9</speed>
<course>330.2</course>
<desc>Speed 4.9 km/h Distance 3.84 km</desc>
<time>2010-02-28T11:00:05.90</time>
<name>2638</name>
</trkpt>
<trkpt lat="48.941125" lon="8.692352">
<ele>402.0</ele>
<speed>4.8</speed>
<course>314.1</course>
<desc>Speed 4.8 km/h Distance 3.84 km</desc>
<time>2010-02-28T11:00:06.90</time>
<name>2639</name>
</trkpt>
<trkpt lat="48.941137" lon="8.692333">
<ele>402.0</ele>
<speed>4.7</speed>
<course>323.1</course>
<desc>Speed 4.7 km/h Distance 3.84 km</desc>
<time>2010-02-28T11:00:07.90</time>
<name>2640</name>
</trkpt>
<trkpt lat="48.941148" lon="8.692320">
<ele>401.5</ele>
<speed>5.2</speed>
<course>326.7</course>
<desc>Speed 5.2 km/h Distance 3.85 km</desc>
<time>2010-02-28T11:00:08.90</time>
<name>2641</name>
</trkpt>
<trkpt lat="48.941165" lon="8.692303">
<ele>401.5</ele>
<speed>5.4</speed>
<course>316.7</course>
<desc>Speed 5.4 km/h Distance 3.85 km</desc>
<time>2010-02-28T11:00:09.90</time>
<name>2642</name>
</trkpt>
<trkpt lat="48.941177" lon="8.692287">
<ele>401.0</ele>
<speed>4.9</speed>
<course>326.7</course>
<desc>Speed 4.9 km/h Distance 3.85 km</desc>
<time>2010-02-28T11:00:10.90</time>
<name>2643</name>
</trkpt>
<trkpt lat="48.941188" lon="8.692275">
<ele>401.0</ele>
<speed>4.6</speed>
<course>323.5</course>
<desc>Speed 4.6 km/h Distance 3.85 km</desc>
<time>2010-02-28T11:00:11.90</time>
<name>2644</name>
</trkpt>
<trkpt lat="48.941202" lon="8.692260">
<ele>401.0</ele>
<speed>4.7</speed>
<course>319.8</course>
<desc>Speed 4.7 km/h Distance 3.85 km</desc>
<time>2010-02-28T11:00:12.90</time>
<name>2645</name>
</trkpt>
<trkpt lat="48.941213" lon="8.692245">
<ele>401.5</ele>
<speed>5.5</speed>
<course>336.3</course>
<desc>Speed 5.5 km/h Distance 3.86 km</desc>
<time>2010-02-28T11:00:13.90</time>
<name>2646</name>
</trkpt>
<trkpt lat="48.941228" lon="8.692235">
<ele>401.5</ele>
<speed>5.0</speed>
<course>330.2</course>
<desc>Speed 5.0 km/h Distance 3.86 km</desc>
<time>2010-02-28T11:00:14.90</time>
<name>2647</name>
</trkpt>
<trkpt lat="48.941242" lon="8.692223">
<ele>401.5</ele>
<speed>5.6</speed>
<course>304.7</course>
<desc>Speed 5.6 km/h Distance 3.86 km</desc>
<time>2010-02-28T11:00:15.90</time>
<name>2648</name>
</trkpt>
<trkpt lat="48.941250" lon="8.692205">
<ele>401.5</ele>
<speed>5.8</speed>
<course>326.6</course>
<desc>Speed 5.8 km/h Distance 3.86 km</desc>
<time>2010-02-28T11:00:16.90</time>
<name>2649</name>
</trkpt>
<trkpt lat="48.941262" lon="8.692193">
<ele>402.0</ele>
<speed>5.0</speed>
<course>312.4</course>
<desc>Speed 5.0 km/h Distance 3.86 km</desc>
<time>2010-02-28T11:00:17.90</time>
<name>2650</name>
</trkpt>
<trkpt lat="48.941272" lon="8.692177">
<ele>402.0</ele>
<speed>5.4</speed>
<course>312.5</course>
<desc>Speed 5.4 km/h Distance 3.86 km</desc>
<time>2010-02-28T11:00:18.90</time>
<name>2651</name>
</trkpt>
<trkpt lat="48.941282" lon="8.692160">
<ele>402.0</ele>
<speed>5.5</speed>
<course>304.7</course>
<desc>Speed 5.5 km/h Distance 3.87 km</desc>
<time>2010-02-28T11:00:19.90</time>
<name>2652</name>
</trkpt>
<trkpt lat="48.941290" lon="8.692142">
<ele>402.0</ele>
<speed>5.8</speed>
<course>334.0</course>
<desc>Speed 5.8 km/h Distance 3.87 km</desc>
<time>2010-02-28T11:00:20.90</time>
<name>2653</name>
</trkpt>
<trkpt lat="48.941303" lon="8.692132">
<ele>402.5</ele>
<speed>6.0</speed>
<course>340.1</course>
<desc>Speed 6.0 km/h Distance 3.87 km</desc>
<time>2010-02-28T11:00:21.90</time>
<name>2654</name>
</trkpt>
<trkpt lat="48.941318" lon="8.692123">
<ele>402.5</ele>
<speed>5.3</speed>
<course>322.5</course>
<desc>Speed 5.3 km/h Distance 3.87 km</desc>
<time>2010-02-28T11:00:22.90</time>
<name>2655</name>
</trkpt>
<trkpt lat="48.941328" lon="8.692112">
<ele>402.5</ele>
<speed>4.9</speed>
<course>326.7</course>
<desc>Speed 4.9 km/h Distance 3.87 km</desc>
<time>2010-02-28T11:00:23.90</time>
<name>2656</name>
</trkpt>
<trkpt lat="48.941340" lon="8.692100">
<ele>403.0</ele>
<speed>5.4</speed>
<course>337.4</course>
<desc>Speed 5.4 km/h Distance 3.87 km</desc>
<time>2010-02-28T11:00:24.90</time>
<name>2657</name>
</trkpt>
<trkpt lat="48.941353" lon="8.692092">
<ele>403.0</ele>
<speed>5.2</speed>
<course>326.6</course>
<desc>Speed 5.2 km/h Distance 3.87 km</desc>
<time>2010-02-28T11:00:25.90</time>
<name>2658</name>
</trkpt>
<trkpt lat="48.941365" lon="8.692080">
<ele>403.0</ele>
<speed>5.3</speed>
<course>326.7</course>
<desc>Speed 5.3 km/h Distance 3.88 km</desc>
<time>2010-02-28T11:00:26.90</time>
<name>2659</name>
</trkpt>
<trkpt lat="48.941377" lon="8.692068">
<ele>403.0</ele>
<speed>5.3</speed>
<course>278.7</course>
<desc>Speed 5.3 km/h Distance 3.88 km</desc>
<time>2010-02-28T11:00:27.90</time>
<name>2660</name>
</trkpt>
<trkpt lat="48.941380" lon="8.692035">
<ele>403.0</ele>
<speed>9.2</speed>
<course>352.9</course>
<desc>Speed 9.2 km/h Distance 3.88 km</desc>
<time>2010-02-28T11:00:28.90</time>
<name>2661</name>
</trkpt>
<trkpt lat="48.941397" lon="8.692032">
<ele>403.5</ele>
<speed>6.2</speed>
<course>333.8</course>
<desc>Speed 6.2 km/h Distance 3.88 km</desc>
<time>2010-02-28T11:00:29.90</time>
<name>2662</name>
</trkpt>
<trkpt lat="48.941410" lon="8.692022">
<ele>403.5</ele>
<speed>5.3</speed>
<course>326.6</course>
<desc>Speed 5.3 km/h Distance 3.88 km</desc>
<time>2010-02-28T11:00:30.90</time>
<name>2663</name>
</trkpt>
<trkpt lat="48.941422" lon="8.692010">
<ele>403.0</ele>
<speed>5.4</speed>
<course>330.2</course>
<desc>Speed 5.4 km/h Distance 3.89 km</desc>
<time>2010-02-28T11:00:31.90</time>
<name>2664</name>
</trkpt>
<trkpt lat="48.941435" lon="8.691998">
<ele>403.0</ele>
<speed>5.5</speed>
<course>330.2</course>
<desc>Speed 5.5 km/h Distance 3.89 km</desc>
<time>2010-02-28T11:00:32.90</time>
<name>2665</name>
</trkpt>
<trkpt lat="48.941448" lon="8.691987">
<ele>403.0</ele>
<speed>5.6</speed>
<course>319.7</course>
<desc>Speed 5.6 km/h Distance 3.89 km</desc>
<time>2010-02-28T11:00:33.90</time>
<name>2666</name>
</trkpt>
<trkpt lat="48.941460" lon="8.691972">
<ele>403.5</ele>
<speed>5.8</speed>
<course>316.7</course>
<desc>Speed 5.8 km/h Distance 3.89 km</desc>
<time>2010-02-28T11:00:34.90</time>
<name>2667</name>
</trkpt>
<trkpt lat="48.941472" lon="8.691955">
<ele>403.5</ele>
<speed>5.5</speed>
<course>316.8</course>
<desc>Speed 5.5 km/h Distance 3.89 km</desc>
<time>2010-02-28T11:00:35.90</time>
<name>2668</name>
</trkpt>
<trkpt lat="48.941483" lon="8.691938">
<ele>403.5</ele>
<speed>5.5</speed>
<course>326.6</course>
<desc>Speed 5.5 km/h Distance 3.89 km</desc>
<time>2010-02-28T11:00:36.90</time>
<name>2669</name>
</trkpt>
<trkpt lat="48.941497" lon="8.691925">
<ele>403.5</ele>
<speed>5.8</speed>
<course>309.7</course>
<desc>Speed 5.8 km/h Distance 3.90 km</desc>
<time>2010-02-28T11:00:37.90</time>
<name>2670</name>
</trkpt>
<trkpt lat="48.941507" lon="8.691907">
<ele>403.5</ele>
<speed>5.7</speed>
<course>314.1</course>
<desc>Speed 5.7 km/h Distance 3.90 km</desc>
<time>2010-02-28T11:00:38.90</time>
<name>2671</name>
</trkpt>
<trkpt lat="48.941518" lon="8.691888">
<ele>403.5</ele>
<speed>5.9</speed>
<course>307.3</course>
<desc>Speed 5.9 km/h Distance 3.90 km</desc>
<time>2010-02-28T11:00:39.90</time>
<name>2672</name>
</trkpt>
<trkpt lat="48.941528" lon="8.691868">
<ele>403.5</ele>
<speed>5.6</speed>
<course>316.7</course>
<desc>Speed 5.6 km/h Distance 3.90 km</desc>
<time>2010-02-28T11:00:40.90</time>
<name>2673</name>
</trkpt>
<trkpt lat="48.941540" lon="8.691852">
<ele>403.5</ele>
<speed>5.6</speed>
<course>326.6</course>
<desc>Speed 5.6 km/h Distance 3.90 km</desc>
<time>2010-02-28T11:00:41.90</time>
<name>2674</name>
</trkpt>
<trkpt lat="48.941553" lon="8.691838">
<ele>403.5</ele>
<speed>5.8</speed>
<course>323.1</course>
<desc>Speed 5.8 km/h Distance 3.90 km</desc>
<time>2010-02-28T11:00:42.90</time>
<name>2675</name>
</trkpt>
<trkpt lat="48.941565" lon="8.691825">
<ele>404.0</ele>
<speed>5.4</speed>
<course>323.1</course>
<desc>Speed 5.4 km/h Distance 3.91 km</desc>
<time>2010-02-28T11:00:43.90</time>
<name>2676</name>
</trkpt>
<trkpt lat="48.941577" lon="8.691812">
<ele>404.0</ele>
<speed>5.5</speed>
<course>330.2</course>
<desc>Speed 5.5 km/h Distance 3.91 km</desc>
<time>2010-02-28T11:00:44.90</time>
<name>2677</name>
</trkpt>
<trkpt lat="48.941590" lon="8.691800">
<ele>404.0</ele>
<speed>5.6</speed>
<course>339.9</course>
<desc>Speed 5.6 km/h Distance 3.91 km</desc>
<time>2010-02-28T11:00:45.90</time>
<name>2678</name>
</trkpt>
<trkpt lat="48.941605" lon="8.691792">
<ele>404.0</ele>
<speed>6.0</speed>
<course>337.7</course>
<desc>Speed 6.0 km/h Distance 3.91 km</desc>
<time>2010-02-28T11:00:46.90</time>
<name>2679</name>
</trkpt>
<trkpt lat="48.941618" lon="8.691783">
<ele>404.0</ele>
<speed>5.3</speed>
<course>330.6</course>
<desc>Speed 5.3 km/h Distance 3.91 km</desc>
<time>2010-02-28T11:00:47.90</time>
<name>2680</name>
</trkpt>
<trkpt lat="48.941630" lon="8.691773">
<ele>404.0</ele>
<speed>5.5</speed>
<course>333.6</course>
<desc>Speed 5.5 km/h Distance 3.91 km</desc>
<time>2010-02-28T11:00:48.90</time>
<name>2681</name>
</trkpt>
<trkpt lat="48.941643" lon="8.691763">
<ele>404.0</ele>
<speed>5.5</speed>
<course>307.3</course>
<desc>Speed 5.5 km/h Distance 3.92 km</desc>
<time>2010-02-28T11:00:49.90</time>
<name>2682</name>
</trkpt>
<trkpt lat="48.941653" lon="8.691743">
<ele>404.0</ele>
<speed>6.3</speed>
<course>25.5</course>
<desc>Speed 6.3 km/h Distance 3.92 km</desc>
<time>2010-02-28T11:00:50.90</time>
<name>2683</name>
</trkpt>
<trkpt lat="48.941672" lon="8.691757">
<ele>404.0</ele>
<speed>7.6</speed>
<course>322.7</course>
<desc>Speed 7.6 km/h Distance 3.92 km</desc>
<time>2010-02-28T11:00:51.90</time>
<name>2684</name>
</trkpt>
<trkpt lat="48.941682" lon="8.691745">
<ele>404.0</ele>
<speed>4.9</speed>
<course>330.6</course>
<desc>Speed 4.9 km/h Distance 3.92 km</desc>
<time>2010-02-28T11:00:52.90</time>
<name>2685</name>
</trkpt>
<trkpt lat="48.941693" lon="8.691735">
<ele>404.0</ele>
<speed>5.0</speed>
<course>330.6</course>
<desc>Speed 5.0 km/h Distance 3.92 km</desc>
<time>2010-02-28T11:00:53.90</time>
<name>2686</name>
</trkpt>
<trkpt lat="48.941705" lon="8.691725">
<ele>404.0</ele>
<speed>5.0</speed>
<course>310.2</course>
<desc>Speed 5.0 km/h Distance 3.92 km</desc>
<time>2010-02-28T11:00:54.90</time>
<name>2687</name>
</trkpt>
<trkpt lat="48.941713" lon="8.691710">
<ele>404.0</ele>
<speed>4.8</speed>
<course>346.5</course>
<desc>Speed 4.8 km/h Distance 3.93 km</desc>
<time>2010-02-28T11:00:55.90</time>
<name>2688</name>
</trkpt>
<trkpt lat="48.941727" lon="8.691705">
<ele>404.0</ele>
<speed>5.0</speed>
<course>4.4</course>
<desc>Speed 5.0 km/h Distance 3.93 km</desc>
<time>2010-02-28T11:00:56.90</time>
<name>2689</name>
</trkpt>
<trkpt lat="48.941737" lon="8.691705">
<ele>404.0</ele>
<speed>3.2</speed>
<course>37.2</course>
<desc>Speed 3.2 km/h Distance 3.93 km</desc>
<time>2010-02-28T11:00:57.90</time>
<name>2690</name>
</trkpt>
<trkpt lat="48.941738" lon="8.691707">
<ele>404.0</ele>
<speed>0.7</speed>
<course>197.5</course>
<desc>Speed 0.7 km/h Distance 3.93 km</desc>
<time>2010-02-28T11:00:58.90</time>
<name>2691</name>
</trkpt>
<trkpt lat="48.941732" lon="8.691703">
<ele>404.0</ele>
<speed>2.1</speed>
<course>224.5</course>
<desc>Speed 2.1 km/h Distance 3.93 km</desc>
<time>2010-02-28T11:00:59.90</time>
<name>2692</name>
</trkpt>
<trkpt lat="48.941728" lon="8.691698">
<ele>404.5</ele>
<speed>1.3</speed>
<course>213.2</course>
<desc>Speed 1.3 km/h Distance 3.93 km</desc>
<time>2010-02-28T11:01:00.90</time>
<name>2693</name>
</trkpt>
<trkpt lat="48.941723" lon="8.691693">
<ele>404.5</ele>
<speed>1.2</speed>
<course>231.9</course>
<desc>Speed 1.2 km/h Distance 3.93 km</desc>
<time>2010-02-28T11:01:01.90</time>
<name>2694</name>
</trkpt>
<trkpt lat="48.941722" lon="8.691690">
<ele>405.0</ele>
<speed>0.6</speed>
<course>307.4</course>
<desc>Speed 0.6 km/h Distance 3.93 km</desc>
<time>2010-02-28T11:01:02.90</time>
<name>2695</name>
</trkpt>
<trkpt lat="48.941727" lon="8.691680">
<ele>405.0</ele>
<speed>3.3</speed>
<course>322.3</course>
<desc>Speed 3.3 km/h Distance 3.93 km</desc>
<time>2010-02-28T11:01:03.90</time>
<name>2696</name>
</trkpt>
<trkpt lat="48.941737" lon="8.691668">
<ele>405.0</ele>
<speed>5.0</speed>
<course>319.7</course>
<desc>Speed 5.0 km/h Distance 3.93 km</desc>
<time>2010-02-28T11:01:04.90</time>
<name>2697</name>
</trkpt>
<trkpt lat="48.941748" lon="8.691653">
<ele>405.0</ele>
<speed>4.5</speed>
<course>330.6</course>
<desc>Speed 4.5 km/h Distance 3.94 km</desc>
<time>2010-02-28T11:01:05.90</time>
<name>2698</name>
</trkpt>
<trkpt lat="48.941760" lon="8.691643">
<ele>405.0</ele>
<speed>3.6</speed>
<course>323.5</course>
<desc>Speed 3.6 km/h Distance 3.94 km</desc>
<time>2010-02-28T11:01:06.90</time>
<name>2699</name>
</trkpt>
<trkpt lat="48.941773" lon="8.691628">
<ele>405.0</ele>
<speed>5.7</speed>
<course>318.0</course>
<desc>Speed 5.7 km/h Distance 3.94 km</desc>
<time>2010-02-28T11:01:07.90</time>
<name>2700</name>
</trkpt>
<trkpt lat="48.941787" lon="8.691610">
<ele>405.5</ele>
<speed>5.8</speed>
<course>338.5</course>
<desc>Speed 5.8 km/h Distance 3.94 km</desc>
<time>2010-02-28T11:01:08.90</time>
<name>2701</name>
</trkpt>
<trkpt lat="48.941803" lon="8.691600">
<ele>405.5</ele>
<speed>6.1</speed>
<course>330.6</course>
<desc>Speed 6.1 km/h Distance 3.94 km</desc>
<time>2010-02-28T11:01:09.90</time>
<name>2702</name>
</trkpt>
<trkpt lat="48.941815" lon="8.691590">
<ele>405.5</ele>
<speed>4.2</speed>
<course>322.5</course>
<desc>Speed 4.2 km/h Distance 3.94 km</desc>
<time>2010-02-28T11:01:10.90</time>
<name>2703</name>
</trkpt>
<trkpt lat="48.941825" lon="8.691578">
<ele>405.5</ele>
<speed>4.8</speed>
<course>127.3</course>
<desc>Speed 4.8 km/h Distance 3.95 km</desc>
<time>2010-02-28T11:01:11.90</time>
<name>2704</name>
</trkpt>
<trkpt lat="48.941817" lon="8.691595">
<ele>405.5</ele>
<speed>6.8</speed>
<course>311.6</course>
<desc>Speed 6.8 km/h Distance 3.95 km</desc>
<time>2010-02-28T11:01:12.90</time>
<name>2705</name>
</trkpt>
<trkpt lat="48.941828" lon="8.691575">
<ele>405.5</ele>
<speed>6.8</speed>
<course>345.1</course>
<desc>Speed 6.8 km/h Distance 3.95 km</desc>
<time>2010-02-28T11:01:13.90</time>
<name>2706</name>
</trkpt>
<trkpt lat="48.941837" lon="8.691572">
<ele>405.5</ele>
<speed>3.3</speed>
<course>303.3</course>
<desc>Speed 3.3 km/h Distance 3.95 km</desc>
<time>2010-02-28T11:01:14.90</time>
<name>2707</name>
</trkpt>
<trkpt lat="48.941842" lon="8.691560">
<ele>405.5</ele>
<speed>2.7</speed>
<course>321.9</course>
<desc>Speed 2.7 km/h Distance 3.95 km</desc>
<time>2010-02-28T11:01:15.90</time>
<name>2708</name>
</trkpt>
<trkpt lat="48.941850" lon="8.691550">
<ele>405.5</ele>
<speed>2.6</speed>
<course>304.1</course>
<desc>Speed 2.6 km/h Distance 3.95 km</desc>
<time>2010-02-28T11:01:16.90</time>
<name>2709</name>
</trkpt>
<trkpt lat="48.941857" lon="8.691535">
<ele>405.5</ele>
<speed>3.0</speed>
<course>270.0</course>
<desc>Speed 3.0 km/h Distance 3.95 km</desc>
<time>2010-02-28T11:01:17.90</time>
<name>2710</name>
</trkpt>
<trkpt lat="48.941857" lon="8.691523">
<ele>405.5</ele>
<speed>3.0</speed>
<course>255.8</course>
<desc>Speed 3.0 km/h Distance 3.95 km</desc>
<time>2010-02-28T11:01:18.90</time>
<name>2711</name>
</trkpt>
<trkpt lat="48.941855" lon="8.691513">
<ele>405.5</ele>
<speed>3.0</speed>
<course>7.4</course>
<desc>Speed 3.0 km/h Distance 3.96 km</desc>
<time>2010-02-28T11:01:19.90</time>
<name>2712</name>
</trkpt>
<trkpt lat="48.941862" lon="8.691515">
<ele>405.5</ele>
<speed>2.7</speed>
<course>0.0</course>
<desc>Speed 2.7 km/h Distance 3.96 km</desc>
<time>2010-02-28T11:01:20.90</time>
<name>2713</name>
</trkpt>
<trkpt lat="48.941867" lon="8.691515">
<ele>405.5</ele>
<speed>2.1</speed>
<course>22.2</course>
<desc>Speed 2.1 km/h Distance 3.96 km</desc>
<time>2010-02-28T11:01:21.90</time>
<name>2714</name>
</trkpt>
<trkpt lat="48.941872" lon="8.691518">
<ele>405.5</ele>
<speed>3.9</speed>
<course>330.6</course>
<desc>Speed 3.9 km/h Distance 3.96 km</desc>
<time>2010-02-28T11:01:22.90</time>
<name>2715</name>
</trkpt>
<trkpt lat="48.941883" lon="8.691508">
<ele>405.5</ele>
<speed>2.0</speed>
<course>332.1</course>
<desc>Speed 2.0 km/h Distance 3.96 km</desc>
<time>2010-02-28T11:01:23.90</time>
<name>2716</name>
</trkpt>
<trkpt lat="48.941892" lon="8.691502">
<ele>406.0</ele>
<speed>2.6</speed>
<course>1.2</course>
<desc>Speed 2.6 km/h Distance 3.96 km</desc>
<time>2010-02-28T11:01:24.90</time>
<name>2717</name>
</trkpt>
<trkpt lat="48.941905" lon="8.691502">
<ele>406.0</ele>
<speed>4.2</speed>
<course>326.3</course>
<desc>Speed 4.2 km/h Distance 3.96 km</desc>
<time>2010-02-28T11:01:25.90</time>
<name>2718</name>
</trkpt>
<trkpt lat="48.941912" lon="8.691495">
<ele>406.0</ele>
<speed>3.0</speed>
<course>334.8</course>
<desc>Speed 3.0 km/h Distance 3.96 km</desc>
<time>2010-02-28T11:01:26.90</time>
<name>2719</name>
</trkpt>
<trkpt lat="48.941923" lon="8.691487">
<ele>406.0</ele>
<speed>4.3</speed>
<course>320.6</course>
<desc>Speed 4.3 km/h Distance 3.96 km</desc>
<time>2010-02-28T11:01:27.90</time>
<name>2720</name>
</trkpt>
<trkpt lat="48.941937" lon="8.691470">
<ele>406.0</ele>
<speed>3.3</speed>
<course>318.8</course>
<desc>Speed 3.3 km/h Distance 3.97 km</desc>
<time>2010-02-28T11:01:28.90</time>
<name>2721</name>
</trkpt>
<trkpt lat="48.941952" lon="8.691450">
<ele>406.0</ele>
<speed>4.0</speed>
<course>317.4</course>
<desc>Speed 4.0 km/h Distance 3.97 km</desc>
<time>2010-02-28T11:01:29.90</time>
<name>2722</name>
</trkpt>
<trkpt lat="48.941968" lon="8.691427">
<ele>406.0</ele>
<speed>4.0</speed>
<course>315.3</course>
<desc>Speed 4.0 km/h Distance 3.97 km</desc>
<time>2010-02-28T11:01:30.90</time>
<name>2723</name>
</trkpt>
<trkpt lat="48.941982" lon="8.691407">
<ele>406.5</ele>
<speed>4.6</speed>
<course>305.0</course>
<desc>Speed 4.6 km/h Distance 3.97 km</desc>
<time>2010-02-28T11:01:31.90</time>
<name>2724</name>
</trkpt>
<trkpt lat="48.941992" lon="8.691385">
<ele>406.5</ele>
<speed>3.7</speed>
<course>303.7</course>
<desc>Speed 3.7 km/h Distance 3.97 km</desc>
<time>2010-02-28T11:01:32.90</time>
<name>2725</name>
</trkpt>
<trkpt lat="48.942003" lon="8.691358">
<ele>406.5</ele>
<speed>4.9</speed>
<course>310.2</course>
<desc>Speed 4.9 km/h Distance 3.98 km</desc>
<time>2010-02-28T11:01:33.90</time>
<name>2726</name>
</trkpt>
<trkpt lat="48.942012" lon="8.691343">
<ele>406.5</ele>
<speed>4.0</speed>
<course>319.8</course>
<desc>Speed 4.0 km/h Distance 3.98 km</desc>
<time>2010-02-28T11:01:34.90</time>
<name>2727</name>
</trkpt>
<trkpt lat="48.942023" lon="8.691328">
<ele>406.5</ele>
<speed>4.5</speed>
<course>326.8</course>
<desc>Speed 4.5 km/h Distance 3.98 km</desc>
<time>2010-02-28T11:01:35.90</time>
<name>2728</name>
</trkpt>
<trkpt lat="48.942037" lon="8.691315">
<ele>406.5</ele>
<speed>3.9</speed>
<course>326.6</course>
<desc>Speed 3.9 km/h Distance 3.98 km</desc>
<time>2010-02-28T11:01:36.90</time>
<name>2729</name>
</trkpt>
<trkpt lat="48.942050" lon="8.691302">
<ele>407.0</ele>
<speed>4.4</speed>
<course>310.3</course>
<desc>Speed 4.4 km/h Distance 3.98 km</desc>
<time>2010-02-28T11:01:37.90</time>
<name>2730</name>
</trkpt>
<trkpt lat="48.942058" lon="8.691287">
<ele>407.0</ele>
<speed>3.4</speed>
<course>338.5</course>
<desc>Speed 3.4 km/h Distance 3.98 km</desc>
<time>2010-02-28T11:01:38.90</time>
<name>2731</name>
</trkpt>
<trkpt lat="48.942067" lon="8.691282">
<ele>407.0</ele>
<speed>3.4</speed>
<course>320.3</course>
<desc>Speed 3.4 km/h Distance 3.99 km</desc>
<time>2010-02-28T11:01:39.90</time>
<name>2732</name>
</trkpt>
<trkpt lat="48.942073" lon="8.691273">
<ele>407.0</ele>
<speed>2.7</speed>
<course>326.8</course>
<desc>Speed 2.7 km/h Distance 3.99 km</desc>
<time>2010-02-28T11:01:40.90</time>
<name>2733</name>
</trkpt>
<trkpt lat="48.942078" lon="8.691268">
<ele>407.0</ele>
<speed>2.4</speed>
<course>320.6</course>
<desc>Speed 2.4 km/h Distance 3.99 km</desc>
<time>2010-02-28T11:01:41.90</time>
<name>2734</name>
</trkpt>
<trkpt lat="48.942085" lon="8.691260">
<ele>407.0</ele>
<speed>2.9</speed>
<course>312.4</course>
<desc>Speed 2.9 km/h Distance 3.99 km</desc>
<time>2010-02-28T11:01:42.90</time>
<name>2735</name>
</trkpt>
<trkpt lat="48.942095" lon="8.691243">
<ele>407.0</ele>
<speed>4.3</speed>
<course>307.3</course>
<desc>Speed 4.3 km/h Distance 3.99 km</desc>
<time>2010-02-28T11:01:43.90</time>
<name>2736</name>
</trkpt>
<trkpt lat="48.942102" lon="8.691230">
<ele>407.0</ele>
<speed>4.0</speed>
<course>317.5</course>
<desc>Speed 4.0 km/h Distance 3.99 km</desc>
<time>2010-02-28T11:01:44.90</time>
<name>2737</name>
</trkpt>
<trkpt lat="48.942110" lon="8.691218">
<ele>407.0</ele>
<speed>3.7</speed>
<course>307.3</course>
<desc>Speed 3.7 km/h Distance 3.99 km</desc>
<time>2010-02-28T11:01:45.90</time>
<name>2738</name>
</trkpt>
<trkpt lat="48.942117" lon="8.691205">
<ele>407.0</ele>
<speed>4.0</speed>
<course>307.3</course>
<desc>Speed 4.0 km/h Distance 3.99 km</desc>
<time>2010-02-28T11:01:46.90</time>
<name>2739</name>
</trkpt>
<trkpt lat="48.942127" lon="8.691185">
<ele>407.0</ele>
<speed>4.9</speed>
<course>304.1</course>
<desc>Speed 4.9 km/h Distance 4.00 km</desc>
<time>2010-02-28T11:01:47.90</time>
<name>2740</name>
</trkpt>
<trkpt lat="48.942133" lon="8.691170">
<ele>407.0</ele>
<speed>3.8</speed>
<course>299.7</course>
<desc>Speed 3.8 km/h Distance 4.00 km</desc>
<time>2010-02-28T11:01:48.90</time>
<name>2741</name>
</trkpt>
<trkpt lat="48.942138" lon="8.691157">
<ele>407.0</ele>
<speed>3.6</speed>
<course>315.4</course>
<desc>Speed 3.6 km/h Distance 4.00 km</desc>
<time>2010-02-28T11:01:49.90</time>
<name>2742</name>
</trkpt>
<trkpt lat="48.942152" lon="8.691137">
<ele>407.0</ele>
<speed>7.1</speed>
<course>301.3</course>
<desc>Speed 7.1 km/h Distance 4.00 km</desc>
<time>2010-02-28T11:01:50.90</time>
<name>2743</name>
</trkpt>
<trkpt lat="48.942158" lon="8.691120">
<ele>406.5</ele>
<speed>4.2</speed>
<course>310.3</course>
<desc>Speed 4.2 km/h Distance 4.00 km</desc>
<time>2010-02-28T11:01:51.90</time>
<name>2744</name>
</trkpt>
<trkpt lat="48.942167" lon="8.691105">
<ele>406.5</ele>
<speed>4.2</speed>
<course>304.7</course>
<desc>Speed 4.2 km/h Distance 4.00 km</desc>
<time>2010-02-28T11:01:52.90</time>
<name>2745</name>
</trkpt>
<trkpt lat="48.942175" lon="8.691087">
<ele>406.5</ele>
<speed>4.9</speed>
<course>313.6</course>
<desc>Speed 4.9 km/h Distance 4.00 km</desc>
<time>2010-02-28T11:01:53.90</time>
<name>2746</name>
</trkpt>
<trkpt lat="48.942183" lon="8.691073">
<ele>406.5</ele>
<speed>4.3</speed>
<course>312.4</course>
<desc>Speed 4.3 km/h Distance 4.01 km</desc>
<time>2010-02-28T11:01:54.90</time>
<name>2747</name>
</trkpt>
<trkpt lat="48.942193" lon="8.691057">
<ele>406.5</ele>
<speed>4.5</speed>
<course>310.3</course>
<desc>Speed 4.5 km/h Distance 4.01 km</desc>
<time>2010-02-28T11:01:55.90</time>
<name>2748</name>
</trkpt>
<trkpt lat="48.942202" lon="8.691042">
<ele>406.5</ele>
<speed>4.5</speed>
<course>304.7</course>
<desc>Speed 4.5 km/h Distance 4.01 km</desc>
<time>2010-02-28T11:01:56.90</time>
<name>2749</name>
</trkpt>
<trkpt lat="48.942210" lon="8.691023">
<ele>406.5</ele>
<speed>5.0</speed>
<course>299.7</course>
<desc>Speed 5.0 km/h Distance 4.01 km</desc>
<time>2010-02-28T11:01:57.90</time>
<name>2750</name>
</trkpt>
<trkpt lat="48.942215" lon="8.691010">
<ele>407.0</ele>
<speed>3.3</speed>
<course>302.4</course>
<desc>Speed 3.3 km/h Distance 4.01 km</desc>
<time>2010-02-28T11:01:58.90</time>
<name>2751</name>
</trkpt>
<trkpt lat="48.942223" lon="8.690990">
<ele>407.0</ele>
<speed>4.4</speed>
<course>295.1</course>
<desc>Speed 4.4 km/h Distance 4.01 km</desc>
<time>2010-02-28T11:01:59.90</time>
<name>2752</name>
</trkpt>
<trkpt lat="48.942230" lon="8.690968">
<ele>407.0</ele>
<speed>3.9</speed>
<course>301.3</course>
<desc>Speed 3.9 km/h Distance 4.02 km</desc>
<time>2010-02-28T11:02:00.90</time>
<name>2753</name>
</trkpt>
<trkpt lat="48.942237" lon="8.690952">
<ele>407.0</ele>
<speed>4.1</speed>
<course>315.5</course>
<desc>Speed 4.1 km/h Distance 4.02 km</desc>
<time>2010-02-28T11:02:01.90</time>
<name>2754</name>
</trkpt>
<trkpt lat="48.942243" lon="8.690942">
<ele>407.0</ele>
<speed>3.9</speed>
<course>335.1</course>
<desc>Speed 3.9 km/h Distance 4.02 km</desc>
<time>2010-02-28T11:02:02.90</time>
<name>2755</name>
</trkpt>
<trkpt lat="48.942255" lon="8.690933">
<ele>406.5</ele>
<speed>3.9</speed>
<course>313.6</course>
<desc>Speed 3.9 km/h Distance 4.02 km</desc>
<time>2010-02-28T11:02:03.90</time>
<name>2756</name>
</trkpt>
<trkpt lat="48.942263" lon="8.690920">
<ele>406.5</ele>
<speed>3.7</speed>
<course>312.4</course>
<desc>Speed 3.7 km/h Distance 4.02 km</desc>
<time>2010-02-28T11:02:04.90</time>
<name>2757</name>
</trkpt>
<trkpt lat="48.942273" lon="8.690903">
<ele>407.0</ele>
<speed>4.3</speed>
<course>307.3</course>
<desc>Speed 4.3 km/h Distance 4.02 km</desc>
<time>2010-02-28T11:02:05.90</time>
<name>2758</name>
</trkpt>
<trkpt lat="48.942282" lon="8.690887">
<ele>407.0</ele>
<speed>3.5</speed>
<course>259.2</course>
<desc>Speed 3.5 km/h Distance 4.02 km</desc>
<time>2010-02-28T11:02:06.90</time>
<name>2759</name>
</trkpt>
<trkpt lat="48.942278" lon="8.690860">
<ele>408.0</ele>
<speed>7.0</speed>
<course>270.0</course>
<desc>Speed 7.0 km/h Distance 4.03 km</desc>
<time>2010-02-28T11:02:07.90</time>
<name>2760</name>
</trkpt>
<trkpt lat="48.942278" lon="8.690840">
<ele>408.5</ele>
<speed>4.8</speed>
<course>283.2</course>
<desc>Speed 4.8 km/h Distance 4.03 km</desc>
<time>2010-02-28T11:02:08.90</time>
<name>2761</name>
</trkpt>
<trkpt lat="48.942282" lon="8.690818">
<ele>408.0</ele>
<speed>4.6</speed>
<course>290.8</course>
<desc>Speed 4.6 km/h Distance 4.03 km</desc>
<time>2010-02-28T11:02:09.90</time>
<name>2762</name>
</trkpt>
<trkpt lat="48.942287" lon="8.690798">
<ele>408.5</ele>
<speed>4.4</speed>
<course>292.6</course>
<desc>Speed 4.4 km/h Distance 4.03 km</desc>
<time>2010-02-28T11:02:10.90</time>
<name>2763</name>
</trkpt>
<trkpt lat="48.942292" lon="8.690780">
<ele>408.0</ele>
<speed>4.1</speed>
<course>294.5</course>
<desc>Speed 4.1 km/h Distance 4.03 km</desc>
<time>2010-02-28T11:02:11.90</time>
<name>2764</name>
</trkpt>
<trkpt lat="48.942297" lon="8.690763">
<ele>407.5</ele>
<speed>4.5</speed>
<course>304.1</course>
<desc>Speed 4.5 km/h Distance 4.03 km</desc>
<time>2010-02-28T11:02:12.90</time>
<name>2765</name>
</trkpt>
<trkpt lat="48.942303" lon="8.690748">
<ele>407.5</ele>
<speed>4.6</speed>
<course>299.0</course>
<desc>Speed 4.6 km/h Distance 4.03 km</desc>
<time>2010-02-28T11:02:13.90</time>
<name>2766</name>
</trkpt>
<trkpt lat="48.942310" lon="8.690730">
<ele>408.0</ele>
<speed>4.5</speed>
<course>292.6</course>
<desc>Speed 4.5 km/h Distance 4.04 km</desc>
<time>2010-02-28T11:02:14.90</time>
<name>2767</name>
</trkpt>
<trkpt lat="48.942315" lon="8.690712">
<ele>407.5</ele>
<speed>4.6</speed>
<course>304.0</course>
<desc>Speed 4.6 km/h Distance 4.04 km</desc>
<time>2010-02-28T11:02:15.90</time>
<name>2768</name>
</trkpt>
<trkpt lat="48.942322" lon="8.690697">
<ele>407.0</ele>
<speed>4.0</speed>
<course>277.2</course>
<desc>Speed 4.0 km/h Distance 4.04 km</desc>
<time>2010-02-28T11:02:16.90</time>
<name>2769</name>
</trkpt>
<trkpt lat="48.942323" lon="8.690677">
<ele>407.0</ele>
<speed>5.3</speed>
<course>270.0</course>
<desc>Speed 5.3 km/h Distance 4.04 km</desc>
<time>2010-02-28T11:02:17.90</time>
<name>2770</name>
</trkpt>
<trkpt lat="48.942323" lon="8.690662">
<ele>406.5</ele>
<speed>4.2</speed>
<course>270.0</course>
<desc>Speed 4.2 km/h Distance 4.04 km</desc>
<time>2010-02-28T11:02:18.90</time>
<name>2771</name>
</trkpt>
<trkpt lat="48.942323" lon="8.690645">
<ele>406.0</ele>
<speed>4.8</speed>
<course>253.1</course>
<desc>Speed 4.8 km/h Distance 4.04 km</desc>
<time>2010-02-28T11:02:19.90</time>
<name>2772</name>
</trkpt>
<trkpt lat="48.942318" lon="8.690620">
<ele>406.5</ele>
<speed>4.8</speed>
<course>245.9</course>
<desc>Speed 4.8 km/h Distance 4.04 km</desc>
<time>2010-02-28T11:02:20.90</time>
<name>2773</name>
</trkpt>
<trkpt lat="48.942310" lon="8.690592">
<ele>406.5</ele>
<speed>5.9</speed>
<course>240.3</course>
<desc>Speed 5.9 km/h Distance 4.05 km</desc>
<time>2010-02-28T11:02:21.90</time>
<name>2774</name>
</trkpt>
<trkpt lat="48.942275" lon="8.690498">
<ele>408.5</ele>
<speed>5.1</speed>
<course>251.9</course>
<desc>Speed 5.1 km/h Distance 4.05 km</desc>
<time>2010-02-28T11:02:23.90</time>
<name>2775</name>
</trkpt>
<trkpt lat="48.942270" lon="8.690475">
<ele>408.5</ele>
<speed>5.0</speed>
<course>244.9</course>
<desc>Speed 5.0 km/h Distance 4.06 km</desc>
<time>2010-02-28T11:02:24.90</time>
<name>2776</name>
</trkpt>
<trkpt lat="48.942263" lon="8.690453">
<ele>408.5</ele>
<speed>5.3</speed>
<course>247.9</course>
<desc>Speed 5.3 km/h Distance 4.06 km</desc>
<time>2010-02-28T11:02:25.90</time>
<name>2777</name>
</trkpt>
<trkpt lat="48.942257" lon="8.690428">
<ele>408.5</ele>
<speed>5.6</speed>
<course>258.5</course>
<desc>Speed 5.6 km/h Distance 4.06 km</desc>
<time>2010-02-28T11:02:26.90</time>
<name>2778</name>
</trkpt>
<trkpt lat="48.942253" lon="8.690403">
<ele>409.0</ele>
<speed>5.3</speed>
<course>253.1</course>
<desc>Speed 5.3 km/h Distance 4.06 km</desc>
<time>2010-02-28T11:02:27.90</time>
<name>2779</name>
</trkpt>
<trkpt lat="48.942248" lon="8.690378">
<ele>409.5</ele>
<speed>5.2</speed>
<course>263.8</course>
<desc>Speed 5.2 km/h Distance 4.06 km</desc>
<time>2010-02-28T11:02:28.90</time>
<name>2780</name>
</trkpt>
<trkpt lat="48.942247" lon="8.690355">
<ele>410.0</ele>
<speed>5.0</speed>
<course>250.7</course>
<desc>Speed 5.0 km/h Distance 4.07 km</desc>
<time>2010-02-28T11:02:29.90</time>
<name>2781</name>
</trkpt>
<trkpt lat="48.942242" lon="8.690333">
<ele>410.0</ele>
<speed>5.1</speed>
<course>256.8</course>
<desc>Speed 5.1 km/h Distance 4.07 km</desc>
<time>2010-02-28T11:02:30.90</time>
<name>2782</name>
</trkpt>
<trkpt lat="48.942238" lon="8.690312">
<ele>410.0</ele>
<speed>5.3</speed>
<course>257.7</course>
<desc>Speed 5.3 km/h Distance 4.07 km</desc>
<time>2010-02-28T11:02:31.90</time>
<name>2783</name>
</trkpt>
<trkpt lat="48.942235" lon="8.690288">
<ele>410.0</ele>
<speed>5.4</speed>
<course>263.8</course>
<desc>Speed 5.4 km/h Distance 4.07 km</desc>
<time>2010-02-28T11:02:32.90</time>
<name>2784</name>
</trkpt>
<trkpt lat="48.942233" lon="8.690265">
<ele>410.0</ele>
<speed>5.3</speed>
<course>263.8</course>
<desc>Speed 5.3 km/h Distance 4.07 km</desc>
<time>2010-02-28T11:02:33.90</time>
<name>2785</name>
</trkpt>
<trkpt lat="48.942232" lon="8.690242">
<ele>410.0</ele>
<speed>5.5</speed>
<course>270.0</course>
<desc>Speed 5.5 km/h Distance 4.07 km</desc>
<time>2010-02-28T11:02:34.90</time>
<name>2786</name>
</trkpt>
<trkpt lat="48.942232" lon="8.690220">
<ele>410.5</ele>
<speed>5.1</speed>
<course>260.4</course>
<desc>Speed 5.1 km/h Distance 4.08 km</desc>
<time>2010-02-28T11:02:35.90</time>
<name>2787</name>
</trkpt>
<trkpt lat="48.942230" lon="8.690205">
<ele>410.0</ele>
<speed>3.7</speed>
<course>250.7</course>
<desc>Speed 3.7 km/h Distance 4.08 km</desc>
<time>2010-02-28T11:02:36.90</time>
<name>2788</name>
</trkpt>
<trkpt lat="48.942225" lon="8.690183">
<ele>410.5</ele>
<speed>6.6</speed>
<course>255.8</course>
<desc>Speed 6.6 km/h Distance 4.08 km</desc>
<time>2010-02-28T11:02:37.90</time>
<name>2789</name>
</trkpt>
<trkpt lat="48.942222" lon="8.690163">
<ele>410.5</ele>
<speed>5.4</speed>
<course>262.8</course>
<desc>Speed 5.4 km/h Distance 4.08 km</desc>
<time>2010-02-28T11:02:38.90</time>
<name>2790</name>
</trkpt>
<trkpt lat="48.942220" lon="8.690143">
<ele>410.0</ele>
<speed>5.3</speed>
<course>262.1</course>
<desc>Speed 5.3 km/h Distance 4.08 km</desc>
<time>2010-02-28T11:02:39.90</time>
<name>2791</name>
</trkpt>
<trkpt lat="48.942218" lon="8.690125">
<ele>410.0</ele>
<speed>4.7</speed>
<course>270.0</course>
<desc>Speed 4.7 km/h Distance 4.08 km</desc>
<time>2010-02-28T11:02:40.90</time>
<name>2792</name>
</trkpt>
<trkpt lat="48.942218" lon="8.690108">
<ele>410.0</ele>
<speed>4.2</speed>
<course>254.5</course>
<desc>Speed 4.2 km/h Distance 4.08 km</desc>
<time>2010-02-28T11:02:41.90</time>
<name>2793</name>
</trkpt>
<trkpt lat="48.942215" lon="8.690090">
<ele>410.0</ele>
<speed>4.7</speed>
<course>247.5</course>
<desc>Speed 4.7 km/h Distance 4.09 km</desc>
<time>2010-02-28T11:02:42.90</time>
<name>2794</name>
</trkpt>
<trkpt lat="48.942210" lon="8.690072">
<ele>410.0</ele>
<speed>5.2</speed>
<course>255.8</course>
<desc>Speed 5.2 km/h Distance 4.09 km</desc>
<time>2010-02-28T11:02:43.90</time>
<name>2795</name>
</trkpt>
<trkpt lat="48.942207" lon="8.690052">
<ele>410.5</ele>
<speed>5.3</speed>
<course>262.1</course>
<desc>Speed 5.3 km/h Distance 4.09 km</desc>
<time>2010-02-28T11:02:44.90</time>
<name>2796</name>
</trkpt>
<trkpt lat="48.942205" lon="8.690033">
<ele>410.0</ele>
<speed>5.1</speed>
<course>254.5</course>
<desc>Speed 5.1 km/h Distance 4.09 km</desc>
<time>2010-02-28T11:02:45.90</time>
<name>2797</name>
</trkpt>
<trkpt lat="48.942202" lon="8.690015">
<ele>410.0</ele>
<speed>5.1</speed>
<course>245.4</course>
<desc>Speed 5.1 km/h Distance 4.09 km</desc>
<time>2010-02-28T11:02:46.90</time>
<name>2798</name>
</trkpt>
<trkpt lat="48.942197" lon="8.689998">
<ele>410.0</ele>
<speed>5.0</speed>
<course>270.0</course>
<desc>Speed 5.0 km/h Distance 4.09 km</desc>
<time>2010-02-28T11:02:47.90</time>
<name>2799</name>
</trkpt>
<trkpt lat="48.942197" lon="8.689978">
<ele>409.5</ele>
<speed>5.5</speed>
<course>270.0</course>
<desc>Speed 5.5 km/h Distance 4.09 km</desc>
<time>2010-02-28T11:02:48.90</time>
<name>2800</name>
</trkpt>
<trkpt lat="48.942197" lon="8.689960">
<ele>409.5</ele>
<speed>5.0</speed>
<course>270.0</course>
<desc>Speed 5.0 km/h Distance 4.10 km</desc>
<time>2010-02-28T11:02:49.90</time>
<name>2801</name>
</trkpt>
<trkpt lat="48.942197" lon="8.689940">
<ele>409.5</ele>
<speed>4.8</speed>
<course>261.3</course>
<desc>Speed 4.8 km/h Distance 4.10 km</desc>
<time>2010-02-28T11:02:50.90</time>
<name>2802</name>
</trkpt>
<trkpt lat="48.942195" lon="8.689923">
<ele>409.5</ele>
<speed>4.7</speed>
<course>263.3</course>
<desc>Speed 4.7 km/h Distance 4.10 km</desc>
<time>2010-02-28T11:02:51.90</time>
<name>2803</name>
</trkpt>
<trkpt lat="48.942193" lon="8.689902">
<ele>409.0</ele>
<speed>5.4</speed>
<course>262.8</course>
<desc>Speed 5.4 km/h Distance 4.10 km</desc>
<time>2010-02-28T11:02:52.90</time>
<name>2804</name>
</trkpt>
<trkpt lat="48.942192" lon="8.689882">
<ele>408.5</ele>
<speed>5.1</speed>
<course>270.0</course>
<desc>Speed 5.1 km/h Distance 4.10 km</desc>
<time>2010-02-28T11:02:53.90</time>
<name>2805</name>
</trkpt>
<trkpt lat="48.942192" lon="8.689863">
<ele>408.5</ele>
<speed>5.1</speed>
<course>270.0</course>
<desc>Speed 5.1 km/h Distance 4.10 km</desc>
<time>2010-02-28T11:02:54.90</time>
<name>2806</name>
</trkpt>
<trkpt lat="48.942192" lon="8.689842">
<ele>408.5</ele>
<speed>5.6</speed>
<course>276.7</course>
<desc>Speed 5.6 km/h Distance 4.10 km</desc>
<time>2010-02-28T11:02:55.90</time>
<name>2807</name>
</trkpt>
<trkpt lat="48.942193" lon="8.689820">
<ele>408.5</ele>
<speed>5.4</speed>
<course>270.0</course>
<desc>Speed 5.4 km/h Distance 4.11 km</desc>
<time>2010-02-28T11:02:56.90</time>
<name>2808</name>
</trkpt>
<trkpt lat="48.942193" lon="8.689795">
<ele>408.0</ele>
<speed>5.4</speed>
<course>275.8</course>
<desc>Speed 5.4 km/h Distance 4.11 km</desc>
<time>2010-02-28T11:02:57.90</time>
<name>2809</name>
</trkpt>
<trkpt lat="48.942195" lon="8.689770">
<ele>408.0</ele>
<speed>5.3</speed>
<course>257.1</course>
<desc>Speed 5.3 km/h Distance 4.11 km</desc>
<time>2010-02-28T11:02:58.90</time>
<name>2810</name>
</trkpt>
<trkpt lat="48.942190" lon="8.689737">
<ele>408.0</ele>
<speed>8.3</speed>
<course>275.8</course>
<desc>Speed 8.3 km/h Distance 4.11 km</desc>
<time>2010-02-28T11:02:59.90</time>
<name>2811</name>
</trkpt>
<trkpt lat="48.942192" lon="8.689712">
<ele>407.5</ele>
<speed>5.6</speed>
<course>277.2</course>
<desc>Speed 5.6 km/h Distance 4.11 km</desc>
<time>2010-02-28T11:03:00.90</time>
<name>2812</name>
</trkpt>
<trkpt lat="48.942193" lon="8.689692">
<ele>407.5</ele>
<speed>5.0</speed>
<course>277.9</course>
<desc>Speed 5.0 km/h Distance 4.11 km</desc>
<time>2010-02-28T11:03:01.90</time>
<name>2813</name>
</trkpt>
<trkpt lat="48.942195" lon="8.689673">
<ele>407.5</ele>
<speed>5.1</speed>
<course>270.0</course>
<desc>Speed 5.1 km/h Distance 4.12 km</desc>
<time>2010-02-28T11:03:02.90</time>
<name>2814</name>
</trkpt>
<trkpt lat="48.942195" lon="8.689655">
<ele>407.5</ele>
<speed>4.9</speed>
<course>278.7</course>
<desc>Speed 4.9 km/h Distance 4.12 km</desc>
<time>2010-02-28T11:03:03.90</time>
<name>2815</name>
</trkpt>
<trkpt lat="48.942197" lon="8.689638">
<ele>407.5</ele>
<speed>4.4</speed>
<course>270.0</course>
<desc>Speed 4.4 km/h Distance 4.12 km</desc>
<time>2010-02-28T11:03:04.90</time>
<name>2816</name>
</trkpt>
<trkpt lat="48.942197" lon="8.689620">
<ele>407.5</ele>
<speed>4.2</speed>
<course>277.9</course>
<desc>Speed 4.2 km/h Distance 4.12 km</desc>
<time>2010-02-28T11:03:05.90</time>
<name>2817</name>
</trkpt>
<trkpt lat="48.942198" lon="8.689602">
<ele>407.5</ele>
<speed>4.7</speed>
<course>277.2</course>
<desc>Speed 4.7 km/h Distance 4.12 km</desc>
<time>2010-02-28T11:03:06.90</time>
<name>2818</name>
</trkpt>
<trkpt lat="48.942200" lon="8.689582">
<ele>407.0</ele>
<speed>4.7</speed>
<course>284.2</course>
<desc>Speed 4.7 km/h Distance 4.12 km</desc>
<time>2010-02-28T11:03:07.90</time>
<name>2819</name>
</trkpt>
<trkpt lat="48.942203" lon="8.689562">
<ele>407.0</ele>
<speed>4.6</speed>
<course>290.8</course>
<desc>Speed 4.6 km/h Distance 4.12 km</desc>
<time>2010-02-28T11:03:08.90</time>
<name>2820</name>
</trkpt>
<trkpt lat="48.942208" lon="8.689542">
<ele>407.0</ele>
<speed>5.1</speed>
<course>296.9</course>
<desc>Speed 5.1 km/h Distance 4.13 km</desc>
<time>2010-02-28T11:03:09.90</time>
<name>2821</name>
</trkpt>
<trkpt lat="48.942215" lon="8.689522">
<ele>406.5</ele>
<speed>4.6</speed>
<course>282.3</course>
<desc>Speed 4.6 km/h Distance 4.13 km</desc>
<time>2010-02-28T11:03:10.90</time>
<name>2822</name>
</trkpt>
<trkpt lat="48.942218" lon="8.689498">
<ele>406.5</ele>
<speed>5.1</speed>
<course>285.5</course>
<desc>Speed 5.1 km/h Distance 4.13 km</desc>
<time>2010-02-28T11:03:11.90</time>
<name>2823</name>
</trkpt>
<trkpt lat="48.942222" lon="8.689480">
<ele>407.0</ele>
<speed>4.5</speed>
<course>304.7</course>
<desc>Speed 4.5 km/h Distance 4.13 km</desc>
<time>2010-02-28T11:03:12.90</time>
<name>2824</name>
</trkpt>
<trkpt lat="48.942230" lon="8.689462">
<ele>406.5</ele>
<speed>4.5</speed>
<course>294.5</course>
<desc>Speed 4.5 km/h Distance 4.13 km</desc>
<time>2010-02-28T11:03:13.90</time>
<name>2825</name>
</trkpt>
<trkpt lat="48.942235" lon="8.689445">
<ele>406.5</ele>
<speed>4.6</speed>
<course>270.0</course>
<desc>Speed 4.6 km/h Distance 4.13 km</desc>
<time>2010-02-28T11:03:14.90</time>
<name>2826</name>
</trkpt>
<trkpt lat="48.942235" lon="8.689425">
<ele>406.5</ele>
<speed>4.8</speed>
<course>263.3</course>
<desc>Speed 4.8 km/h Distance 4.14 km</desc>
<time>2010-02-28T11:03:15.90</time>
<name>2827</name>
</trkpt>
<trkpt lat="48.942233" lon="8.689403">
<ele>406.5</ele>
<speed>5.5</speed>
<course>256.8</course>
<desc>Speed 5.5 km/h Distance 4.14 km</desc>
<time>2010-02-28T11:03:16.90</time>
<name>2828</name>
</trkpt>
<trkpt lat="48.942230" lon="8.689382">
<ele>406.5</ele>
<speed>5.3</speed>
<course>254.5</course>
<desc>Speed 5.3 km/h Distance 4.14 km</desc>
<time>2010-02-28T11:03:17.90</time>
<name>2829</name>
</trkpt>
<trkpt lat="48.942227" lon="8.689363">
<ele>406.5</ele>
<speed>4.8</speed>
<course>262.1</course>
<desc>Speed 4.8 km/h Distance 4.14 km</desc>
<time>2010-02-28T11:03:18.90</time>
<name>2830</name>
</trkpt>
<trkpt lat="48.942225" lon="8.689345">
<ele>406.5</ele>
<speed>4.5</speed>
<course>246.5</course>
<desc>Speed 4.5 km/h Distance 4.14 km</desc>
<time>2010-02-28T11:03:19.90</time>
<name>2831</name>
</trkpt>
<trkpt lat="48.942222" lon="8.689333">
<ele>406.5</ele>
<speed>3.5</speed>
<course>270.0</course>
<desc>Speed 3.5 km/h Distance 4.14 km</desc>
<time>2010-02-28T11:03:20.90</time>
<name>2832</name>
</trkpt>
<trkpt lat="48.942222" lon="8.689328">
<ele>406.0</ele>
<speed>1.3</speed>
<course>270.0</course>
<desc>Speed 1.3 km/h Distance 4.14 km</desc>
<time>2010-02-28T11:03:21.90</time>
<name>2833</name>
</trkpt>
<trkpt lat="48.942222" lon="8.689318">
<ele>405.5</ele>
<speed>3.3</speed>
<course>260.4</course>
<desc>Speed 3.3 km/h Distance 4.14 km</desc>
<time>2010-02-28T11:03:22.90</time>
<name>2834</name>
</trkpt>
<trkpt lat="48.942220" lon="8.689303">
<ele>405.5</ele>
<speed>4.9</speed>
<course>262.8</course>
<desc>Speed 4.9 km/h Distance 4.14 km</desc>
<time>2010-02-28T11:03:23.90</time>
<name>2835</name>
</trkpt>
<trkpt lat="48.942218" lon="8.689283">
<ele>405.0</ele>
<speed>5.7</speed>
<course>262.8</course>
<desc>Speed 5.7 km/h Distance 4.15 km</desc>
<time>2010-02-28T11:03:24.90</time>
<name>2836</name>
</trkpt>
<trkpt lat="48.942217" lon="8.689263">
<ele>405.0</ele>
<speed>5.7</speed>
<course>255.8</course>
<desc>Speed 5.7 km/h Distance 4.15 km</desc>
<time>2010-02-28T11:03:25.90</time>
<name>2837</name>
</trkpt>
<trkpt lat="48.942213" lon="8.689243">
<ele>405.0</ele>
<speed>5.5</speed>
<course>262.8</course>
<desc>Speed 5.5 km/h Distance 4.15 km</desc>
<time>2010-02-28T11:03:26.90</time>
<name>2838</name>
</trkpt>
<trkpt lat="48.942212" lon="8.689223">
<ele>405.0</ele>
<speed>5.6</speed>
<course>253.1</course>
<desc>Speed 5.6 km/h Distance 4.15 km</desc>
<time>2010-02-28T11:03:27.90</time>
<name>2839</name>
</trkpt>
<trkpt lat="48.942208" lon="8.689207">
<ele>405.0</ele>
<speed>5.4</speed>
<course>245.4</course>
<desc>Speed 5.4 km/h Distance 4.15 km</desc>
<time>2010-02-28T11:03:28.90</time>
<name>2840</name>
</trkpt>
<trkpt lat="48.942203" lon="8.689190">
<ele>405.0</ele>
<speed>5.2</speed>
<course>238.6</course>
<desc>Speed 5.2 km/h Distance 4.15 km</desc>
<time>2010-02-28T11:03:29.90</time>
<name>2841</name>
</trkpt>
<trkpt lat="48.942197" lon="8.689173">
<ele>405.0</ele>
<speed>5.3</speed>
<course>254.5</course>
<desc>Speed 5.3 km/h Distance 4.15 km</desc>
<time>2010-02-28T11:03:30.90</time>
<name>2842</name>
</trkpt>
<trkpt lat="48.942193" lon="8.689155">
<ele>404.5</ele>
<speed>5.3</speed>
<course>251.3</course>
<desc>Speed 5.3 km/h Distance 4.16 km</desc>
<time>2010-02-28T11:03:31.90</time>
<name>2843</name>
</trkpt>
<trkpt lat="48.942190" lon="8.689140">
<ele>405.0</ele>
<speed>5.0</speed>
<course>241.0</course>
<desc>Speed 5.0 km/h Distance 4.16 km</desc>
<time>2010-02-28T11:03:32.90</time>
<name>2844</name>
</trkpt>
<trkpt lat="48.942183" lon="8.689122">
<ele>405.0</ele>
<speed>5.5</speed>
<course>249.2</course>
<desc>Speed 5.5 km/h Distance 4.16 km</desc>
<time>2010-02-28T11:03:33.90</time>
<name>2845</name>
</trkpt>
<trkpt lat="48.942178" lon="8.689102">
<ele>405.0</ele>
<speed>5.8</speed>
<course>249.2</course>
<desc>Speed 5.8 km/h Distance 4.16 km</desc>
<time>2010-02-28T11:03:34.90</time>
<name>2846</name>
</trkpt>
<trkpt lat="48.942173" lon="8.689082">
<ele>405.0</ele>
<speed>5.9</speed>
<course>254.6</course>
<desc>Speed 5.9 km/h Distance 4.16 km</desc>
<time>2010-02-28T11:03:35.90</time>
<name>2847</name>
</trkpt>
<trkpt lat="48.942170" lon="8.689063">
<ele>404.5</ele>
<speed>4.9</speed>
<course>240.3</course>
<desc>Speed 4.9 km/h Distance 4.16 km</desc>
<time>2010-02-28T11:03:36.90</time>
<name>2848</name>
</trkpt>
<trkpt lat="48.942165" lon="8.689050">
<ele>404.5</ele>
<speed>4.2</speed>
<course>238.7</course>
<desc>Speed 4.2 km/h Distance 4.16 km</desc>
<time>2010-02-28T11:03:37.90</time>
<name>2849</name>
</trkpt>
<trkpt lat="48.942158" lon="8.689033">
<ele>404.5</ele>
<speed>4.8</speed>
<course>238.7</course>
<desc>Speed 4.8 km/h Distance 4.17 km</desc>
<time>2010-02-28T11:03:38.90</time>
<name>2850</name>
</trkpt>
<trkpt lat="48.942152" lon="8.689017">
<ele>404.5</ele>
<speed>5.4</speed>
<course>244.9</course>
<desc>Speed 5.4 km/h Distance 4.17 km</desc>
<time>2010-02-28T11:03:39.90</time>
<name>2851</name>
</trkpt>
<trkpt lat="48.942145" lon="8.688995">
<ele>404.5</ele>
<speed>6.1</speed>
<course>249.2</course>
<desc>Speed 6.1 km/h Distance 4.17 km</desc>
<time>2010-02-28T11:03:40.90</time>
<name>2852</name>
</trkpt>
<trkpt lat="48.942140" lon="8.688975">
<ele>404.5</ele>
<speed>5.5</speed>
<course>251.3</course>
<desc>Speed 5.5 km/h Distance 4.17 km</desc>
<time>2010-02-28T11:03:41.90</time>
<name>2853</name>
</trkpt>
<trkpt lat="48.942137" lon="8.688960">
<ele>404.5</ele>
<speed>4.0</speed>
<course>229.8</course>
<desc>Speed 4.0 km/h Distance 4.17 km</desc>
<time>2010-02-28T11:03:42.90</time>
<name>2854</name>
</trkpt>
<trkpt lat="48.942128" lon="8.688945">
<ele>404.5</ele>
<speed>4.8</speed>
<course>241.0</course>
<desc>Speed 4.8 km/h Distance 4.17 km</desc>
<time>2010-02-28T11:03:43.90</time>
<name>2855</name>
</trkpt>
<trkpt lat="48.942122" lon="8.688927">
<ele>404.5</ele>
<speed>5.2</speed>
<course>243.1</course>
<desc>Speed 5.2 km/h Distance 4.17 km</desc>
<time>2010-02-28T11:03:44.90</time>
<name>2856</name>
</trkpt>
<trkpt lat="48.942115" lon="8.688907">
<ele>404.5</ele>
<speed>5.6</speed>
<course>249.2</course>
<desc>Speed 5.6 km/h Distance 4.18 km</desc>
<time>2010-02-28T11:03:45.90</time>
<name>2857</name>
</trkpt>
<trkpt lat="48.942110" lon="8.688887">
<ele>404.5</ele>
<speed>5.5</speed>
<course>249.2</course>
<desc>Speed 5.5 km/h Distance 4.18 km</desc>
<time>2010-02-28T11:03:46.90</time>
<name>2858</name>
</trkpt>
<trkpt lat="48.942105" lon="8.688867">
<ele>404.5</ele>
<speed>5.0</speed>
<course>240.3</course>
<desc>Speed 5.0 km/h Distance 4.18 km</desc>
<time>2010-02-28T11:03:47.90</time>
<name>2859</name>
</trkpt>
<trkpt lat="48.942100" lon="8.688853">
<ele>404.5</ele>
<speed>4.1</speed>
<course>245.5</course>
<desc>Speed 4.1 km/h Distance 4.18 km</desc>
<time>2010-02-28T11:03:48.90</time>
<name>2860</name>
</trkpt>
<trkpt lat="48.942095" lon="8.688837">
<ele>404.0</ele>
<speed>4.6</speed>
<course>245.5</course>
<desc>Speed 4.6 km/h Distance 4.18 km</desc>
<time>2010-02-28T11:03:49.90</time>
<name>2861</name>
</trkpt>
<trkpt lat="48.942090" lon="8.688820">
<ele>404.0</ele>
<speed>4.9</speed>
<course>245.4</course>
<desc>Speed 4.9 km/h Distance 4.18 km</desc>
<time>2010-02-28T11:03:50.90</time>
<name>2862</name>
</trkpt>
<trkpt lat="48.942085" lon="8.688803">
<ele>404.0</ele>
<speed>4.6</speed>
<course>232.7</course>
<desc>Speed 4.6 km/h Distance 4.18 km</desc>
<time>2010-02-28T11:03:51.90</time>
<name>2863</name>
</trkpt>
<trkpt lat="48.942078" lon="8.688790">
<ele>404.0</ele>
<speed>4.6</speed>
<course>243.1</course>
<desc>Speed 4.6 km/h Distance 4.19 km</desc>
<time>2010-02-28T11:03:52.90</time>
<name>2864</name>
</trkpt>
<trkpt lat="48.942073" lon="8.688775">
<ele>404.0</ele>
<speed>4.9</speed>
<course>238.7</course>
<desc>Speed 4.9 km/h Distance 4.19 km</desc>
<time>2010-02-28T11:03:53.90</time>
<name>2865</name>
</trkpt>
<trkpt lat="48.942067" lon="8.688758">
<ele>404.0</ele>
<speed>5.3</speed>
<course>243.1</course>
<desc>Speed 5.3 km/h Distance 4.19 km</desc>
<time>2010-02-28T11:03:54.90</time>
<name>2866</name>
</trkpt>
<trkpt lat="48.942062" lon="8.688743">
<ele>404.0</ele>
<speed>4.8</speed>
<course>243.1</course>
<desc>Speed 4.8 km/h Distance 4.19 km</desc>
<time>2010-02-28T11:03:55.90</time>
<name>2867</name>
</trkpt>
<trkpt lat="48.942057" lon="8.688728">
<ele>404.0</ele>
<speed>4.8</speed>
<course>243.1</course>
<desc>Speed 4.8 km/h Distance 4.19 km</desc>
<time>2010-02-28T11:03:56.90</time>
<name>2868</name>
</trkpt>
<trkpt lat="48.942050" lon="8.688708">
<ele>404.0</ele>
<speed>5.4</speed>
<course>253.1</course>
<desc>Speed 5.4 km/h Distance 4.19 km</desc>
<time>2010-02-28T11:03:57.90</time>
<name>2869</name>
</trkpt>
<trkpt lat="48.942047" lon="8.688692">
<ele>404.0</ele>
<speed>4.6</speed>
<course>259.3</course>
<desc>Speed 4.6 km/h Distance 4.19 km</desc>
<time>2010-02-28T11:03:58.90</time>
<name>2870</name>
</trkpt>
<trkpt lat="48.942045" lon="8.688678">
<ele>404.0</ele>
<speed>3.7</speed>
<course>224.5</course>
<desc>Speed 3.7 km/h Distance 4.19 km</desc>
<time>2010-02-28T11:03:59.90</time>
<name>2871</name>
</trkpt>
<trkpt lat="48.942038" lon="8.688668">
<ele>404.5</ele>
<speed>3.3</speed>
<course>235.9</course>
<desc>Speed 3.3 km/h Distance 4.20 km</desc>
<time>2010-02-28T11:04:00.90</time>
<name>2872</name>
</trkpt>
<trkpt lat="48.942032" lon="8.688653">
<ele>404.5</ele>
<speed>5.5</speed>
<course>235.9</course>
<desc>Speed 5.5 km/h Distance 4.20 km</desc>
<time>2010-02-28T11:04:01.90</time>
<name>2873</name>
</trkpt>
<trkpt lat="48.942025" lon="8.688638">
<ele>404.5</ele>
<speed>5.1</speed>
<course>241.0</course>
<desc>Speed 5.1 km/h Distance 4.20 km</desc>
<time>2010-02-28T11:04:02.90</time>
<name>2874</name>
</trkpt>
<trkpt lat="48.942018" lon="8.688620">
<ele>404.5</ele>
<speed>5.1</speed>
<course>245.5</course>
<desc>Speed 5.1 km/h Distance 4.20 km</desc>
<time>2010-02-28T11:04:03.90</time>
<name>2875</name>
</trkpt>
<trkpt lat="48.942013" lon="8.688603">
<ele>404.5</ele>
<speed>4.9</speed>
<course>232.7</course>
<desc>Speed 4.9 km/h Distance 4.20 km</desc>
<time>2010-02-28T11:04:04.90</time>
<name>2876</name>
</trkpt>
<trkpt lat="48.942005" lon="8.688587">
<ele>404.5</ele>
<speed>5.6</speed>
<course>238.7</course>
<desc>Speed 5.6 km/h Distance 4.20 km</desc>
<time>2010-02-28T11:04:05.90</time>
<name>2877</name>
</trkpt>
<trkpt lat="48.941998" lon="8.688570">
<ele>404.5</ele>
<speed>5.8</speed>
<course>232.7</course>
<desc>Speed 5.8 km/h Distance 4.20 km</desc>
<time>2010-02-28T11:04:06.90</time>
<name>2878</name>
</trkpt>
<trkpt lat="48.941990" lon="8.688553">
<ele>404.5</ele>
<speed>5.7</speed>
<course>238.7</course>
<desc>Speed 5.7 km/h Distance 4.21 km</desc>
<time>2010-02-28T11:04:07.90</time>
<name>2879</name>
</trkpt>
<trkpt lat="48.941983" lon="8.688537">
<ele>404.5</ele>
<speed>5.6</speed>
<course>229.7</course>
<desc>Speed 5.6 km/h Distance 4.21 km</desc>
<time>2010-02-28T11:04:08.90</time>
<name>2880</name>
</trkpt>
<trkpt lat="48.941975" lon="8.688522">
<ele>404.5</ele>
<speed>5.3</speed>
<course>235.9</course>
<desc>Speed 5.3 km/h Distance 4.21 km</desc>
<time>2010-02-28T11:04:09.90</time>
<name>2881</name>
</trkpt>
<trkpt lat="48.941968" lon="8.688507">
<ele>404.0</ele>
<speed>5.3</speed>
<course>245.5</course>
<desc>Speed 5.3 km/h Distance 4.21 km</desc>
<time>2010-02-28T11:04:10.90</time>
<name>2882</name>
</trkpt>
<trkpt lat="48.941963" lon="8.688490">
<ele>404.0</ele>
<speed>5.0</speed>
<course>246.5</course>
<desc>Speed 5.0 km/h Distance 4.21 km</desc>
<time>2010-02-28T11:04:11.90</time>
<name>2883</name>
</trkpt>
<trkpt lat="48.941960" lon="8.688478">
<ele>404.0</ele>
<speed>3.6</speed>
<course>238.9</course>
<desc>Speed 3.6 km/h Distance 4.21 km</desc>
<time>2010-02-28T11:04:12.90</time>
<name>2884</name>
</trkpt>
<trkpt lat="48.941957" lon="8.688470">
<ele>404.0</ele>
<speed>2.9</speed>
<course>245.5</course>
<desc>Speed 2.9 km/h Distance 4.21 km</desc>
<time>2010-02-28T11:04:13.90</time>
<name>2885</name>
</trkpt>
<trkpt lat="48.941952" lon="8.688453">
<ele>403.5</ele>
<speed>5.2</speed>
<course>243.1</course>
<desc>Speed 5.2 km/h Distance 4.21 km</desc>
<time>2010-02-28T11:04:14.90</time>
<name>2886</name>
</trkpt>
<trkpt lat="48.941945" lon="8.688433">
<ele>403.5</ele>
<speed>5.6</speed>
<course>249.3</course>
<desc>Speed 5.6 km/h Distance 4.22 km</desc>
<time>2010-02-28T11:04:15.90</time>
<name>2887</name>
</trkpt>
<trkpt lat="48.941942" lon="8.688420">
<ele>403.0</ele>
<speed>4.1</speed>
<course>236.0</course>
<desc>Speed 4.1 km/h Distance 4.22 km</desc>
<time>2010-02-28T11:04:16.90</time>
<name>2888</name>
</trkpt>
<trkpt lat="48.941935" lon="8.688405">
<ele>403.0</ele>
<speed>4.7</speed>
<course>247.5</course>
<desc>Speed 4.7 km/h Distance 4.22 km</desc>
<time>2010-02-28T11:04:17.90</time>
<name>2889</name>
</trkpt>
<trkpt lat="48.941930" lon="8.688387">
<ele>402.5</ele>
<speed>5.5</speed>
<course>247.5</course>
<desc>Speed 5.5 km/h Distance 4.22 km</desc>
<time>2010-02-28T11:04:18.90</time>
<name>2890</name>
</trkpt>
<trkpt lat="48.941925" lon="8.688368">
<ele>402.5</ele>
<speed>5.1</speed>
<course>246.4</course>
<desc>Speed 5.1 km/h Distance 4.22 km</desc>
<time>2010-02-28T11:04:19.90</time>
<name>2891</name>
</trkpt>
<trkpt lat="48.941922" lon="8.688357">
<ele>402.5</ele>
<speed>3.9</speed>
<course>238.6</course>
<desc>Speed 3.9 km/h Distance 4.22 km</desc>
<time>2010-02-28T11:04:20.90</time>
<name>2892</name>
</trkpt>
<trkpt lat="48.941915" lon="8.688340">
<ele>402.5</ele>
<speed>5.2</speed>
<course>241.0</course>
<desc>Speed 5.2 km/h Distance 4.22 km</desc>
<time>2010-02-28T11:04:21.90</time>
<name>2893</name>
</trkpt>
<trkpt lat="48.941908" lon="8.688322">
<ele>402.0</ele>
<speed>5.8</speed>
<course>249.2</course>
<desc>Speed 5.8 km/h Distance 4.22 km</desc>
<time>2010-02-28T11:04:22.90</time>
<name>2894</name>
</trkpt>
<trkpt lat="48.941903" lon="8.688302">
<ele>401.5</ele>
<speed>5.6</speed>
<course>241.0</course>
<desc>Speed 5.6 km/h Distance 4.23 km</desc>
<time>2010-02-28T11:04:23.90</time>
<name>2895</name>
</trkpt>
<trkpt lat="48.941897" lon="8.688283">
<ele>401.5</ele>
<speed>5.3</speed>
<course>240.3</course>
<desc>Speed 5.3 km/h Distance 4.23 km</desc>
<time>2010-02-28T11:04:24.90</time>
<name>2896</name>
</trkpt>
<trkpt lat="48.941892" lon="8.688270">
<ele>401.5</ele>
<speed>4.4</speed>
<course>232.4</course>
<desc>Speed 4.4 km/h Distance 4.23 km</desc>
<time>2010-02-28T11:04:25.90</time>
<name>2897</name>
</trkpt>
<trkpt lat="48.941887" lon="8.688260">
<ele>401.5</ele>
<speed>3.0</speed>
<course>232.4</course>
<desc>Speed 3.0 km/h Distance 4.23 km</desc>
<time>2010-02-28T11:04:26.90</time>
<name>2898</name>
</trkpt>
<trkpt lat="48.941887" lon="8.688260">
<ele>401.5</ele>
<speed>0.5</speed>
<course>232.4</course>
<desc>Speed 0.5 km/h Distance 4.23 km</desc>
<time>2010-02-28T11:04:27.90</time>
<name>2899</name>
</trkpt>
<trkpt lat="48.941887" lon="8.688260">
<ele>401.5</ele>
<speed>0.1</speed>
<course>236.9</course>
<desc>Speed 0.1 km/h Distance 4.23 km</desc>
<time>2010-02-28T11:04:28.90</time>
<name>2900</name>
</trkpt>
<trkpt lat="48.941882" lon="8.688248">
<ele>401.5</ele>
<speed>3.0</speed>
<course>297.4</course>
<desc>Speed 3.0 km/h Distance 4.23 km</desc>
<time>2010-02-28T11:04:29.90</time>
<name>2901</name>
</trkpt>
<trkpt lat="48.941883" lon="8.688243">
<ele>401.5</ele>
<speed>1.4</speed>
<course>297.4</course>
<desc>Speed 1.4 km/h Distance 4.23 km</desc>
<time>2010-02-28T11:04:30.90</time>
<name>2902</name>
</trkpt>
<trkpt lat="48.941883" lon="8.688243">
<ele>401.5</ele>
<speed>0.1</speed>
<course>0.0</course>
<desc>Speed 0.1 km/h Distance 4.23 km</desc>
<time>2010-02-28T11:04:31.90</time>
<name>2903</name>
</trkpt>
<trkpt lat="48.941885" lon="8.688243">
<ele>401.5</ele>
<speed>0.3</speed>
<course>224.5</course>
<desc>Speed 0.3 km/h Distance 4.23 km</desc>
<time>2010-02-28T11:04:32.90</time>
<name>2904</name>
</trkpt>
<trkpt lat="48.941882" lon="8.688238">
<ele>401.5</ele>
<speed>2.0</speed>
<course>232.6</course>
<desc>Speed 2.0 km/h Distance 4.23 km</desc>
<time>2010-02-28T11:04:33.90</time>
<name>2905</name>
</trkpt>
<trkpt lat="48.941877" lon="8.688228">
<ele>401.5</ele>
<speed>3.3</speed>
<course>247.4</course>
<desc>Speed 3.3 km/h Distance 4.23 km</desc>
<time>2010-02-28T11:04:34.90</time>
<name>2906</name>
</trkpt>
<trkpt lat="48.941872" lon="8.688210">
<ele>401.5</ele>
<speed>5.1</speed>
<course>255.8</course>
<desc>Speed 5.1 km/h Distance 4.23 km</desc>
<time>2010-02-28T11:04:35.90</time>
<name>2907</name>
</trkpt>
<trkpt lat="48.941868" lon="8.688190">
<ele>401.5</ele>
<speed>5.5</speed>
<course>249.2</course>
<desc>Speed 5.5 km/h Distance 4.24 km</desc>
<time>2010-02-28T11:04:36.90</time>
<name>2908</name>
</trkpt>
<trkpt lat="48.941863" lon="8.688170">
<ele>401.5</ele>
<speed>5.6</speed>
<course>247.4</course>
<desc>Speed 5.6 km/h Distance 4.24 km</desc>
<time>2010-02-28T11:04:37.90</time>
<name>2909</name>
</trkpt>
<trkpt lat="48.941858" lon="8.688152">
<ele>401.5</ele>
<speed>5.5</speed>
<course>240.9</course>
<desc>Speed 5.5 km/h Distance 4.24 km</desc>
<time>2010-02-28T11:04:38.90</time>
<name>2910</name>
</trkpt>
<trkpt lat="48.941852" lon="8.688133">
<ele>402.0</ele>
<speed>5.4</speed>
<course>249.2</course>
<desc>Speed 5.4 km/h Distance 4.24 km</desc>
<time>2010-02-28T11:04:39.90</time>
<name>2911</name>
</trkpt>
<trkpt lat="48.941847" lon="8.688113">
<ele>402.0</ele>
<speed>5.6</speed>
<course>241.0</course>
<desc>Speed 5.6 km/h Distance 4.24 km</desc>
<time>2010-02-28T11:04:40.90</time>
<name>2912</name>
</trkpt>
<trkpt lat="48.941840" lon="8.688095">
<ele>402.0</ele>
<speed>5.9</speed>
<course>238.7</course>
<desc>Speed 5.9 km/h Distance 4.24 km</desc>
<time>2010-02-28T11:04:41.90</time>
<name>2913</name>
</trkpt>
<trkpt lat="48.941833" lon="8.688078">
<ele>402.0</ele>
<speed>5.3</speed>
<course>229.8</course>
<desc>Speed 5.3 km/h Distance 4.25 km</desc>
<time>2010-02-28T11:04:42.90</time>
<name>2914</name>
</trkpt>
<trkpt lat="48.941825" lon="8.688063">
<ele>402.5</ele>
<speed>5.3</speed>
<course>244.9</course>
<desc>Speed 5.3 km/h Distance 4.25 km</desc>
<time>2010-02-28T11:04:43.90</time>
<name>2915</name>
</trkpt>
<trkpt lat="48.941818" lon="8.688042">
<ele>402.0</ele>
<speed>6.1</speed>
<course>250.6</course>
<desc>Speed 6.1 km/h Distance 4.25 km</desc>
<time>2010-02-28T11:04:44.90</time>
<name>2916</name>
</trkpt>
<trkpt lat="48.941813" lon="8.688020">
<ele>402.0</ele>
<speed>5.9</speed>
<course>245.5</course>
<desc>Speed 5.9 km/h Distance 4.25 km</desc>
<time>2010-02-28T11:04:45.90</time>
<name>2917</name>
</trkpt>
<trkpt lat="48.941808" lon="8.688003">
<ele>402.0</ele>
<speed>5.1</speed>
<course>249.3</course>
<desc>Speed 5.1 km/h Distance 4.25 km</desc>
<time>2010-02-28T11:04:46.90</time>
<name>2918</name>
</trkpt>
<trkpt lat="48.941805" lon="8.687990">
<ele>402.0</ele>
<speed>3.7</speed>
<course>270.0</course>
<desc>Speed 3.7 km/h Distance 4.25 km</desc>
<time>2010-02-28T11:04:47.90</time>
<name>2919</name>
</trkpt>
<trkpt lat="48.941805" lon="8.687983">
<ele>402.0</ele>
<speed>1.7</speed>
<course>253.3</course>
<desc>Speed 1.7 km/h Distance 4.25 km</desc>
<time>2010-02-28T11:04:48.90</time>
<name>2920</name>
</trkpt>
<trkpt lat="48.941803" lon="8.687975">
<ele>402.0</ele>
<speed>2.4</speed>
<course>238.9</course>
<desc>Speed 2.4 km/h Distance 4.25 km</desc>
<time>2010-02-28T11:04:49.90</time>
<name>2921</name>
</trkpt>
<trkpt lat="48.941800" lon="8.687967">
<ele>402.0</ele>
<speed>2.2</speed>
<course>232.7</course>
<desc>Speed 2.2 km/h Distance 4.25 km</desc>
<time>2010-02-28T11:04:50.90</time>
<name>2922</name>
</trkpt>
<trkpt lat="48.941793" lon="8.687953">
<ele>402.0</ele>
<speed>4.2</speed>
<course>241.0</course>
<desc>Speed 4.2 km/h Distance 4.26 km</desc>
<time>2010-02-28T11:04:51.90</time>
<name>2923</name>
</trkpt>
<trkpt lat="48.941787" lon="8.687935">
<ele>402.0</ele>
<speed>5.4</speed>
<course>238.6</course>
<desc>Speed 5.4 km/h Distance 4.26 km</desc>
<time>2010-02-28T11:04:52.90</time>
<name>2924</name>
</trkpt>
<trkpt lat="48.941780" lon="8.687918">
<ele>402.0</ele>
<speed>5.1</speed>
<course>247.5</course>
<desc>Speed 5.1 km/h Distance 4.26 km</desc>
<time>2010-02-28T11:04:53.90</time>
<name>2925</name>
</trkpt>
<trkpt lat="48.941775" lon="8.687900">
<ele>402.0</ele>
<speed>5.1</speed>
<course>226.4</course>
<desc>Speed 5.1 km/h Distance 4.26 km</desc>
<time>2010-02-28T11:04:54.90</time>
<name>2926</name>
</trkpt>
<trkpt lat="48.941767" lon="8.687887">
<ele>402.0</ele>
<speed>5.2</speed>
<course>213.2</course>
<desc>Speed 5.2 km/h Distance 4.26 km</desc>
<time>2010-02-28T11:04:55.90</time>
<name>2927</name>
</trkpt>
<trkpt lat="48.941758" lon="8.687878">
<ele>402.0</ele>
<speed>3.8</speed>
<course>243.1</course>
<desc>Speed 3.8 km/h Distance 4.26 km</desc>
<time>2010-02-28T11:04:56.90</time>
<name>2928</name>
</trkpt>
<trkpt lat="48.941753" lon="8.687863">
<ele>402.0</ele>
<speed>4.6</speed>
<course>247.4</course>
<desc>Speed 4.6 km/h Distance 4.26 km</desc>
<time>2010-02-28T11:04:57.90</time>
<name>2929</name>
</trkpt>
<trkpt lat="48.941748" lon="8.687845">
<ele>402.0</ele>
<speed>5.2</speed>
<course>249.2</course>
<desc>Speed 5.2 km/h Distance 4.27 km</desc>
<time>2010-02-28T11:04:58.90</time>
<name>2930</name>
</trkpt>
<trkpt lat="48.941743" lon="8.687825">
<ele>402.0</ele>
<speed>5.3</speed>
<course>243.2</course>
<desc>Speed 5.3 km/h Distance 4.27 km</desc>
<time>2010-02-28T11:04:59.90</time>
<name>2931</name>
</trkpt>
<trkpt lat="48.941737" lon="8.687805">
<ele>402.0</ele>
<speed>5.5</speed>
<course>243.1</course>
<desc>Speed 5.5 km/h Distance 4.27 km</desc>
<time>2010-02-28T11:05:00.90</time>
<name>2932</name>
</trkpt>
<trkpt lat="48.941730" lon="8.687785">
<ele>401.5</ele>
<speed>5.7</speed>
<course>243.1</course>
<desc>Speed 5.7 km/h Distance 4.27 km</desc>
<time>2010-02-28T11:05:01.90</time>
<name>2933</name>
</trkpt>
<trkpt lat="48.941723" lon="8.687765">
<ele>401.5</ele>
<speed>6.0</speed>
<course>243.1</course>
<desc>Speed 6.0 km/h Distance 4.27 km</desc>
<time>2010-02-28T11:05:02.90</time>
<name>2934</name>
</trkpt>
<trkpt lat="48.941717" lon="8.687745">
<ele>401.5</ele>
<speed>5.6</speed>
<course>260.4</course>
<desc>Speed 5.6 km/h Distance 4.27 km</desc>
<time>2010-02-28T11:05:03.90</time>
<name>2935</name>
</trkpt>
<trkpt lat="48.941715" lon="8.687730">
<ele>401.5</ele>
<speed>3.9</speed>
<course>260.4</course>
<desc>Speed 3.9 km/h Distance 4.27 km</desc>
<time>2010-02-28T11:05:04.90</time>
<name>2936</name>
</trkpt>
<trkpt lat="48.941715" lon="8.687730">
<ele>401.0</ele>
<speed>0.6</speed>
<course>243.0</course>
<desc>Speed 0.6 km/h Distance 4.27 km</desc>
<time>2010-02-28T11:05:05.90</time>
<name>2937</name>
</trkpt>
<trkpt lat="48.941712" lon="8.687720">
<ele>401.0</ele>
<speed>3.0</speed>
<course>247.5</course>
<desc>Speed 3.0 km/h Distance 4.28 km</desc>
<time>2010-02-28T11:05:06.90</time>
<name>2938</name>
</trkpt>
<trkpt lat="48.941707" lon="8.687702">
<ele>401.0</ele>
<speed>5.0</speed>
<course>256.8</course>
<desc>Speed 5.0 km/h Distance 4.28 km</desc>
<time>2010-02-28T11:05:07.90</time>
<name>2939</name>
</trkpt>
<trkpt lat="48.941703" lon="8.687680">
<ele>401.0</ele>
<speed>5.5</speed>
<course>249.1</course>
<desc>Speed 5.5 km/h Distance 4.28 km</desc>
<time>2010-02-28T11:05:08.90</time>
<name>2940</name>
</trkpt>
<trkpt lat="48.941698" lon="8.687660">
<ele>400.5</ele>
<speed>5.2</speed>
<course>249.2</course>
<desc>Speed 5.2 km/h Distance 4.28 km</desc>
<time>2010-02-28T11:05:09.90</time>
<name>2941</name>
</trkpt>
<trkpt lat="48.941693" lon="8.687640">
<ele>400.5</ele>
<speed>5.1</speed>
<course>254.5</course>
<desc>Speed 5.1 km/h Distance 4.28 km</desc>
<time>2010-02-28T11:05:10.90</time>
<name>2942</name>
</trkpt>
<trkpt lat="48.941690" lon="8.687622">
<ele>400.5</ele>
<speed>5.0</speed>
<course>243.1</course>
<desc>Speed 5.0 km/h Distance 4.28 km</desc>
<time>2010-02-28T11:05:11.90</time>
<name>2943</name>
</trkpt>
<trkpt lat="48.941683" lon="8.687602">
<ele>400.0</ele>
<speed>5.6</speed>
<course>235.3</course>
<desc>Speed 5.6 km/h Distance 4.28 km</desc>
<time>2010-02-28T11:05:12.90</time>
<name>2944</name>
</trkpt>
<trkpt lat="48.941675" lon="8.687583">
<ele>400.0</ele>
<speed>6.0</speed>
<course>237.6</course>
<desc>Speed 6.0 km/h Distance 4.29 km</desc>
<time>2010-02-28T11:05:13.90</time>
<name>2945</name>
</trkpt>
<trkpt lat="48.941667" lon="8.687563">
<ele>400.0</ele>
<speed>5.6</speed>
<course>241.0</course>
<desc>Speed 5.6 km/h Distance 4.29 km</desc>
<time>2010-02-28T11:05:14.90</time>
<name>2946</name>
</trkpt>
<trkpt lat="48.941660" lon="8.687545">
<ele>400.0</ele>
<speed>5.7</speed>
<course>247.5</course>
<desc>Speed 5.7 km/h Distance 4.29 km</desc>
<time>2010-02-28T11:05:15.90</time>
<name>2947</name>
</trkpt>
<trkpt lat="48.941655" lon="8.687527">
<ele>400.0</ele>
<speed>5.1</speed>
<course>235.9</course>
<desc>Speed 5.1 km/h Distance 4.29 km</desc>
<time>2010-02-28T11:05:16.90</time>
<name>2948</name>
</trkpt>
<trkpt lat="48.941648" lon="8.687512">
<ele>400.0</ele>
<speed>4.5</speed>
<course>245.4</course>
<desc>Speed 4.5 km/h Distance 4.29 km</desc>
<time>2010-02-28T11:05:17.90</time>
<name>2949</name>
</trkpt>
<trkpt lat="48.941643" lon="8.687495">
<ele>399.5</ele>
<speed>4.5</speed>
<course>253.1</course>
<desc>Speed 4.5 km/h Distance 4.29 km</desc>
<time>2010-02-28T11:05:18.90</time>
<name>2950</name>
</trkpt>
<trkpt lat="48.941640" lon="8.687478">
<ele>399.5</ele>
<speed>4.7</speed>
<course>247.5</course>
<desc>Speed 4.7 km/h Distance 4.29 km</desc>
<time>2010-02-28T11:05:19.90</time>
<name>2951</name>
</trkpt>
<trkpt lat="48.941635" lon="8.687460">
<ele>399.5</ele>
<speed>4.8</speed>
<course>241.0</course>
<desc>Speed 4.8 km/h Distance 4.30 km</desc>
<time>2010-02-28T11:05:20.90</time>
<name>2952</name>
</trkpt>
<trkpt lat="48.941628" lon="8.687442">
<ele>399.5</ele>
<speed>5.3</speed>
<course>232.7</course>
<desc>Speed 5.3 km/h Distance 4.30 km</desc>
<time>2010-02-28T11:05:21.90</time>
<name>2953</name>
</trkpt>
<trkpt lat="48.941620" lon="8.687425">
<ele>399.0</ele>
<speed>5.6</speed>
<course>237.6</course>
<desc>Speed 5.6 km/h Distance 4.30 km</desc>
<time>2010-02-28T11:05:22.90</time>
<name>2954</name>
</trkpt>
<trkpt lat="48.941612" lon="8.687405">
<ele>399.0</ele>
<speed>5.8</speed>
<course>238.7</course>
<desc>Speed 5.8 km/h Distance 4.30 km</desc>
<time>2010-02-28T11:05:23.90</time>
<name>2955</name>
</trkpt>
<trkpt lat="48.941605" lon="8.687388">
<ele>399.0</ele>
<speed>5.4</speed>
<course>229.7</course>
<desc>Speed 5.4 km/h Distance 4.30 km</desc>
<time>2010-02-28T11:05:24.90</time>
<name>2956</name>
</trkpt>
<trkpt lat="48.941597" lon="8.687373">
<ele>399.0</ele>
<speed>5.0</speed>
<course>232.7</course>
<desc>Speed 5.0 km/h Distance 4.30 km</desc>
<time>2010-02-28T11:05:25.90</time>
<name>2957</name>
</trkpt>
<trkpt lat="48.941588" lon="8.687357">
<ele>399.0</ele>
<speed>5.1</speed>
<course>235.3</course>
<desc>Speed 5.1 km/h Distance 4.31 km</desc>
<time>2010-02-28T11:05:26.90</time>
<name>2958</name>
</trkpt>
<trkpt lat="48.941580" lon="8.687338">
<ele>398.5</ele>
<speed>5.8</speed>
<course>227.6</course>
<desc>Speed 5.8 km/h Distance 4.31 km</desc>
<time>2010-02-28T11:05:27.90</time>
<name>2959</name>
</trkpt>
<trkpt lat="48.941570" lon="8.687322">
<ele>398.5</ele>
<speed>5.7</speed>
<course>224.5</course>
<desc>Speed 5.7 km/h Distance 4.31 km</desc>
<time>2010-02-28T11:05:28.90</time>
<name>2960</name>
</trkpt>
<trkpt lat="48.941560" lon="8.687307">
<ele>398.5</ele>
<speed>5.8</speed>
<course>216.9</course>
<desc>Speed 5.8 km/h Distance 4.31 km</desc>
<time>2010-02-28T11:05:29.90</time>
<name>2961</name>
</trkpt>
<trkpt lat="48.941548" lon="8.687293">
<ele>398.5</ele>
<speed>5.7</speed>
<course>216.9</course>
<desc>Speed 5.7 km/h Distance 4.31 km</desc>
<time>2010-02-28T11:05:30.90</time>
<name>2962</name>
</trkpt>
<trkpt lat="48.941537" lon="8.687280">
<ele>398.5</ele>
<speed>5.7</speed>
<course>216.9</course>
<desc>Speed 5.7 km/h Distance 4.31 km</desc>
<time>2010-02-28T11:05:31.90</time>
<name>2963</name>
</trkpt>
<trkpt lat="48.941525" lon="8.687267">
<ele>398.5</ele>
<speed>5.6</speed>
<course>216.9</course>
<desc>Speed 5.6 km/h Distance 4.31 km</desc>
<time>2010-02-28T11:05:32.90</time>
<name>2964</name>
</trkpt>
<trkpt lat="48.941513" lon="8.687253">
<ele>398.5</ele>
<speed>5.6</speed>
<course>216.9</course>
<desc>Speed 5.6 km/h Distance 4.32 km</desc>
<time>2010-02-28T11:05:33.90</time>
<name>2965</name>
</trkpt>
<trkpt lat="48.941502" lon="8.687240">
<ele>398.5</ele>
<speed>5.5</speed>
<course>224.5</course>
<desc>Speed 5.5 km/h Distance 4.32 km</desc>
<time>2010-02-28T11:05:34.90</time>
<name>2966</name>
</trkpt>
<trkpt lat="48.941492" lon="8.687225">
<ele>398.5</ele>
<speed>5.5</speed>
<course>221.2</course>
<desc>Speed 5.5 km/h Distance 4.32 km</desc>
<time>2010-02-28T11:05:35.90</time>
<name>2967</name>
</trkpt>
<trkpt lat="48.941482" lon="8.687212">
<ele>398.0</ele>
<speed>5.5</speed>
<course>213.3</course>
<desc>Speed 5.5 km/h Distance 4.32 km</desc>
<time>2010-02-28T11:05:36.90</time>
<name>2968</name>
</trkpt>
<trkpt lat="48.941470" lon="8.687200">
<ele>398.0</ele>
<speed>5.6</speed>
<course>209.4</course>
<desc>Speed 5.6 km/h Distance 4.32 km</desc>
<time>2010-02-28T11:05:37.90</time>
<name>2969</name>
</trkpt>
<trkpt lat="48.941458" lon="8.687190">
<ele>398.0</ele>
<speed>5.7</speed>
<course>220.2</course>
<desc>Speed 5.7 km/h Distance 4.32 km</desc>
<time>2010-02-28T11:05:38.90</time>
<name>2970</name>
</trkpt>
<trkpt lat="48.941447" lon="8.687175">
<ele>398.0</ele>
<speed>6.1</speed>
<course>213.3</course>
<desc>Speed 6.1 km/h Distance 4.33 km</desc>
<time>2010-02-28T11:05:39.90</time>
<name>2971</name>
</trkpt>
<trkpt lat="48.941433" lon="8.687162">
<ele>398.0</ele>
<speed>5.9</speed>
<course>221.2</course>
<desc>Speed 5.9 km/h Distance 4.33 km</desc>
<time>2010-02-28T11:05:40.90</time>
<name>2972</name>
</trkpt>
<trkpt lat="48.941423" lon="8.687148">
<ele>398.0</ele>
<speed>5.6</speed>
<course>216.8</course>
<desc>Speed 5.6 km/h Distance 4.33 km</desc>
<time>2010-02-28T11:05:41.90</time>
<name>2973</name>
</trkpt>
<trkpt lat="48.941412" lon="8.687135">
<ele>398.0</ele>
<speed>5.7</speed>
<course>221.3</course>
<desc>Speed 5.7 km/h Distance 4.33 km</desc>
<time>2010-02-28T11:05:42.90</time>
<name>2974</name>
</trkpt>
<trkpt lat="48.941402" lon="8.687122">
<ele>398.0</ele>
<speed>5.9</speed>
<course>220.2</course>
<desc>Speed 5.9 km/h Distance 4.33 km</desc>
<time>2010-02-28T11:05:43.90</time>
<name>2975</name>
</trkpt>
<trkpt lat="48.941390" lon="8.687107">
<ele>397.5</ele>
<speed>5.8</speed>
<course>227.6</course>
<desc>Speed 5.8 km/h Distance 4.33 km</desc>
<time>2010-02-28T11:05:44.90</time>
<name>2976</name>
</trkpt>
<trkpt lat="48.941380" lon="8.687090">
<ele>397.5</ele>
<speed>5.8</speed>
<course>221.2</course>
<desc>Speed 5.8 km/h Distance 4.34 km</desc>
<time>2010-02-28T11:05:45.90</time>
<name>2977</name>
</trkpt>
<trkpt lat="48.941370" lon="8.687077">
<ele>397.5</ele>
<speed>5.7</speed>
<course>206.4</course>
<desc>Speed 5.7 km/h Distance 4.34 km</desc>
<time>2010-02-28T11:05:46.90</time>
<name>2978</name>
</trkpt>
<trkpt lat="48.941357" lon="8.687067">
<ele>397.5</ele>
<speed>5.7</speed>
<course>213.4</course>
<desc>Speed 5.7 km/h Distance 4.34 km</desc>
<time>2010-02-28T11:05:47.90</time>
<name>2979</name>
</trkpt>
<trkpt lat="48.941345" lon="8.687055">
<ele>397.5</ele>
<speed>5.8</speed>
<course>206.2</course>
<desc>Speed 5.8 km/h Distance 4.34 km</desc>
<time>2010-02-28T11:05:48.90</time>
<name>2980</name>
</trkpt>
<trkpt lat="48.941332" lon="8.687045">
<ele>397.5</ele>
<speed>6.0</speed>
<course>206.0</course>
<desc>Speed 6.0 km/h Distance 4.34 km</desc>
<time>2010-02-28T11:05:49.90</time>
<name>2981</name>
</trkpt>
<trkpt lat="48.941318" lon="8.687035">
<ele>397.5</ele>
<speed>5.7</speed>
<course>226.5</course>
<desc>Speed 5.7 km/h Distance 4.34 km</desc>
<time>2010-02-28T11:05:50.90</time>
<name>2982</name>
</trkpt>
<trkpt lat="48.941310" lon="8.687022">
<ele>398.0</ele>
<speed>5.1</speed>
<course>217.5</course>
<desc>Speed 5.1 km/h Distance 4.35 km</desc>
<time>2010-02-28T11:05:51.90</time>
<name>2983</name>
</trkpt>
<trkpt lat="48.941300" lon="8.687010">
<ele>398.0</ele>
<speed>5.3</speed>
<course>217.5</course>
<desc>Speed 5.3 km/h Distance 4.35 km</desc>
<time>2010-02-28T11:05:52.90</time>
<name>2984</name>
</trkpt>
<trkpt lat="48.941290" lon="8.686998">
<ele>398.5</ele>
<speed>5.1</speed>
<course>213.2</course>
<desc>Speed 5.1 km/h Distance 4.35 km</desc>
<time>2010-02-28T11:05:53.90</time>
<name>2985</name>
</trkpt>
<trkpt lat="48.941280" lon="8.686988">
<ele>399.0</ele>
<speed>5.0</speed>
<course>226.4</course>
<desc>Speed 5.0 km/h Distance 4.35 km</desc>
<time>2010-02-28T11:05:54.90</time>
<name>2986</name>
</trkpt>
<trkpt lat="48.941272" lon="8.686975">
<ele>399.0</ele>
<speed>5.1</speed>
<course>221.3</course>
<desc>Speed 5.1 km/h Distance 4.35 km</desc>
<time>2010-02-28T11:05:55.90</time>
<name>2987</name>
</trkpt>
<trkpt lat="48.941262" lon="8.686962">
<ele>399.0</ele>
<speed>5.3</speed>
<course>217.5</course>
<desc>Speed 5.3 km/h Distance 4.35 km</desc>
<time>2010-02-28T11:05:56.90</time>
<name>2988</name>
</trkpt>
<trkpt lat="48.941252" lon="8.686950">
<ele>399.5</ele>
<speed>5.3</speed>
<course>213.1</course>
<desc>Speed 5.3 km/h Distance 4.35 km</desc>
<time>2010-02-28T11:05:57.90</time>
<name>2989</name>
</trkpt>
<trkpt lat="48.941240" lon="8.686938">
<ele>399.5</ele>
<speed>5.4</speed>
<course>209.4</course>
<desc>Speed 5.4 km/h Distance 4.35 km</desc>
<time>2010-02-28T11:05:58.90</time>
<name>2990</name>
</trkpt>
<trkpt lat="48.941228" lon="8.686928">
<ele>400.0</ele>
<speed>5.7</speed>
<course>217.5</course>
<desc>Speed 5.7 km/h Distance 4.36 km</desc>
<time>2010-02-28T11:05:59.90</time>
<name>2991</name>
</trkpt>
<trkpt lat="48.941218" lon="8.686917">
<ele>400.0</ele>
<speed>5.3</speed>
<course>221.2</course>
<desc>Speed 5.3 km/h Distance 4.36 km</desc>
<time>2010-02-28T11:06:00.90</time>
<name>2992</name>
</trkpt>
<trkpt lat="48.941208" lon="8.686903">
<ele>400.0</ele>
<speed>5.6</speed>
<course>217.5</course>
<desc>Speed 5.6 km/h Distance 4.36 km</desc>
<time>2010-02-28T11:06:01.90</time>
<name>2993</name>
</trkpt>
<trkpt lat="48.941198" lon="8.686892">
<ele>400.5</ele>
<speed>5.3</speed>
<course>209.4</course>
<desc>Speed 5.3 km/h Distance 4.36 km</desc>
<time>2010-02-28T11:06:02.90</time>
<name>2994</name>
</trkpt>
<trkpt lat="48.941187" lon="8.686882">
<ele>400.5</ele>
<speed>5.4</speed>
<course>213.1</course>
<desc>Speed 5.4 km/h Distance 4.36 km</desc>
<time>2010-02-28T11:06:03.90</time>
<name>2995</name>
</trkpt>
<trkpt lat="48.941175" lon="8.686870">
<ele>401.0</ele>
<speed>5.5</speed>
<course>204.9</course>
<desc>Speed 5.5 km/h Distance 4.36 km</desc>
<time>2010-02-28T11:06:04.90</time>
<name>2996</name>
</trkpt>
<trkpt lat="48.941163" lon="8.686862">
<ele>401.5</ele>
<speed>5.9</speed>
<course>213.4</course>
<desc>Speed 5.9 km/h Distance 4.37 km</desc>
<time>2010-02-28T11:06:05.90</time>
<name>2997</name>
</trkpt>
<trkpt lat="48.941152" lon="8.686850">
<ele>401.5</ele>
<speed>5.6</speed>
<course>224.5</course>
<desc>Speed 5.6 km/h Distance 4.37 km</desc>
<time>2010-02-28T11:06:06.90</time>
<name>2998</name>
</trkpt>
<trkpt lat="48.941142" lon="8.686835">
<ele>402.0</ele>
<speed>5.6</speed>
<course>216.9</course>
<desc>Speed 5.6 km/h Distance 4.37 km</desc>
<time>2010-02-28T11:06:07.90</time>
<name>2999</name>
</trkpt>
<trkpt lat="48.941130" lon="8.686822">
<ele>402.0</ele>
<speed>5.4</speed>
<course>221.2</course>
<desc>Speed 5.4 km/h Distance 4.37 km</desc>
<time>2010-02-28T11:06:08.90</time>
<name>3000</name>
</trkpt>
<trkpt lat="48.941120" lon="8.686808">
<ele>402.0</ele>
<speed>5.0</speed>
<course>217.9</course>
<desc>Speed 5.0 km/h Distance 4.37 km</desc>
<time>2010-02-28T11:06:09.90</time>
<name>3001</name>
</trkpt>
<trkpt lat="48.941112" lon="8.686798">
<ele>402.0</ele>
<speed>4.7</speed>
<course>208.6</course>
<desc>Speed 4.7 km/h Distance 4.37 km</desc>
<time>2010-02-28T11:06:10.90</time>
<name>3002</name>
</trkpt>
<trkpt lat="48.941102" lon="8.686790">
<ele>403.0</ele>
<speed>4.5</speed>
<course>233.0</course>
<desc>Speed 4.5 km/h Distance 4.37 km</desc>
<time>2010-02-28T11:06:11.90</time>
<name>3003</name>
</trkpt>
<trkpt lat="48.941095" lon="8.686777">
<ele>403.0</ele>
<speed>4.6</speed>
<course>236.1</course>
<desc>Speed 4.6 km/h Distance 4.38 km</desc>
<time>2010-02-28T11:06:12.90</time>
<name>3004</name>
</trkpt>
<trkpt lat="48.941088" lon="8.686762">
<ele>403.0</ele>
<speed>4.7</speed>
<course>224.6</course>
<desc>Speed 4.7 km/h Distance 4.38 km</desc>
<time>2010-02-28T11:06:13.90</time>
<name>3005</name>
</trkpt>
<trkpt lat="48.941078" lon="8.686747">
<ele>403.0</ele>
<speed>5.2</speed>
<course>241.1</course>
<desc>Speed 5.2 km/h Distance 4.38 km</desc>
<time>2010-02-28T11:06:14.90</time>
<name>3006</name>
</trkpt>
<trkpt lat="48.941072" lon="8.686728">
<ele>402.5</ele>
<speed>5.1</speed>
<course>221.3</course>
<desc>Speed 5.1 km/h Distance 4.38 km</desc>
<time>2010-02-28T11:06:15.90</time>
<name>3007</name>
</trkpt>
<trkpt lat="48.941062" lon="8.686715">
<ele>403.0</ele>
<speed>5.1</speed>
<course>226.6</course>
<desc>Speed 5.1 km/h Distance 4.38 km</desc>
<time>2010-02-28T11:06:16.90</time>
<name>3008</name>
</trkpt>
<trkpt lat="48.941053" lon="8.686702">
<ele>403.0</ele>
<speed>4.8</speed>
<course>238.7</course>
<desc>Speed 4.8 km/h Distance 4.38 km</desc>
<time>2010-02-28T11:06:17.90</time>
<name>3009</name>
</trkpt>
<trkpt lat="48.941047" lon="8.686685">
<ele>403.0</ele>
<speed>5.0</speed>
<course>245.5</course>
<desc>Speed 5.0 km/h Distance 4.38 km</desc>
<time>2010-02-28T11:06:18.90</time>
<name>3010</name>
</trkpt>
<trkpt lat="48.941042" lon="8.686668">
<ele>403.0</ele>
<speed>5.0</speed>
<course>247.5</course>
<desc>Speed 5.0 km/h Distance 4.39 km</desc>
<time>2010-02-28T11:06:19.90</time>
<name>3011</name>
</trkpt>
<trkpt lat="48.941037" lon="8.686650">
<ele>403.0</ele>
<speed>5.0</speed>
<course>229.9</course>
<desc>Speed 5.0 km/h Distance 4.39 km</desc>
<time>2010-02-28T11:06:20.90</time>
<name>3012</name>
</trkpt>
<trkpt lat="48.941028" lon="8.686635">
<ele>403.0</ele>
<speed>5.0</speed>
<course>254.5</course>
<desc>Speed 5.0 km/h Distance 4.39 km</desc>
<time>2010-02-28T11:06:21.90</time>
<name>3013</name>
</trkpt>
<trkpt lat="48.941025" lon="8.686617">
<ele>403.0</ele>
<speed>5.0</speed>
<course>243.1</course>
<desc>Speed 5.0 km/h Distance 4.39 km</desc>
<time>2010-02-28T11:06:22.90</time>
<name>3014</name>
</trkpt>
<trkpt lat="48.941020" lon="8.686602">
<ele>403.0</ele>
<speed>4.5</speed>
<course>235.3</course>
<desc>Speed 4.5 km/h Distance 4.39 km</desc>
<time>2010-02-28T11:06:23.90</time>
<name>3015</name>
</trkpt>
<trkpt lat="48.941012" lon="8.686583">
<ele>403.0</ele>
<speed>5.5</speed>
<course>238.6</course>
<desc>Speed 5.5 km/h Distance 4.39 km</desc>
<time>2010-02-28T11:06:24.90</time>
<name>3016</name>
</trkpt>
<trkpt lat="48.941005" lon="8.686567">
<ele>403.0</ele>
<speed>5.1</speed>
<course>245.5</course>
<desc>Speed 5.1 km/h Distance 4.39 km</desc>
<time>2010-02-28T11:06:25.90</time>
<name>3017</name>
</trkpt>
<trkpt lat="48.941000" lon="8.686550">
<ele>403.0</ele>
<speed>4.5</speed>
<course>256.8</course>
<desc>Speed 4.5 km/h Distance 4.40 km</desc>
<time>2010-02-28T11:06:26.90</time>
<name>3018</name>
</trkpt>
<trkpt lat="48.940997" lon="8.686528">
<ele>402.5</ele>
<speed>5.7</speed>
<course>263.3</course>
<desc>Speed 5.7 km/h Distance 4.40 km</desc>
<time>2010-02-28T11:06:27.90</time>
<name>3019</name>
</trkpt>
<trkpt lat="48.940995" lon="8.686507">
<ele>402.0</ele>
<speed>5.6</speed>
<course>235.3</course>
<desc>Speed 5.6 km/h Distance 4.40 km</desc>
<time>2010-02-28T11:06:28.90</time>
<name>3020</name>
</trkpt>
<trkpt lat="48.940987" lon="8.686488">
<ele>402.0</ele>
<speed>5.4</speed>
<course>254.5</course>
<desc>Speed 5.4 km/h Distance 4.40 km</desc>
<time>2010-02-28T11:06:29.90</time>
<name>3021</name>
</trkpt>
<trkpt lat="48.940983" lon="8.686470">
<ele>402.5</ele>
<speed>4.6</speed>
<course>243.0</course>
<desc>Speed 4.6 km/h Distance 4.40 km</desc>
<time>2010-02-28T11:06:30.90</time>
<name>3022</name>
</trkpt>
<trkpt lat="48.940980" lon="8.686460">
<ele>402.5</ele>
<speed>3.2</speed>
<course>270.0</course>
<desc>Speed 3.2 km/h Distance 4.40 km</desc>
<time>2010-02-28T11:06:31.90</time>
<name>3023</name>
</trkpt>
<trkpt lat="48.940980" lon="8.686447">
<ele>402.5</ele>
<speed>2.7</speed>
<course>243.0</course>
<desc>Speed 2.7 km/h Distance 4.40 km</desc>
<time>2010-02-28T11:06:32.90</time>
<name>3024</name>
</trkpt>
<trkpt lat="48.940977" lon="8.686437">
<ele>402.0</ele>
<speed>2.7</speed>
<course>201.5</course>
<desc>Speed 2.7 km/h Distance 4.40 km</desc>
<time>2010-02-28T11:06:33.90</time>
<name>3025</name>
</trkpt>
<trkpt lat="48.940968" lon="8.686432">
<ele>402.5</ele>
<speed>3.2</speed>
<course>192.6</course>
<desc>Speed 3.2 km/h Distance 4.40 km</desc>
<time>2010-02-28T11:06:34.90</time>
<name>3026</name>
</trkpt>
<trkpt lat="48.940958" lon="8.686428">
<ele>402.5</ele>
<speed>4.2</speed>
<course>175.6</course>
<desc>Speed 4.2 km/h Distance 4.41 km</desc>
<time>2010-02-28T11:06:35.90</time>
<name>3027</name>
</trkpt>
<trkpt lat="48.940948" lon="8.686428">
<ele>402.5</ele>
<speed>4.2</speed>
<course>168.8</course>
<desc>Speed 4.2 km/h Distance 4.41 km</desc>
<time>2010-02-28T11:06:36.90</time>
<name>3028</name>
</trkpt>
<trkpt lat="48.940937" lon="8.686432">
<ele>402.5</ele>
<speed>4.8</speed>
<course>165.1</course>
<desc>Speed 4.8 km/h Distance 4.41 km</desc>
<time>2010-02-28T11:06:37.90</time>
<name>3029</name>
</trkpt>
<trkpt lat="48.940928" lon="8.686435">
<ele>402.0</ele>
<speed>3.7</speed>
<course>130.9</course>
<desc>Speed 3.7 km/h Distance 4.41 km</desc>
<time>2010-02-28T11:06:38.90</time>
<name>3030</name>
</trkpt>
<trkpt lat="48.940922" lon="8.686447">
<ele>402.0</ele>
<speed>4.8</speed>
<course>147.1</course>
<desc>Speed 4.8 km/h Distance 4.41 km</desc>
<time>2010-02-28T11:06:39.90</time>
<name>3031</name>
</trkpt>
<trkpt lat="48.940913" lon="8.686455">
<ele>401.5</ele>
<speed>4.6</speed>
<course>164.5</course>
<desc>Speed 4.6 km/h Distance 4.41 km</desc>
<time>2010-02-28T11:06:40.90</time>
<name>3032</name>
</trkpt>
<trkpt lat="48.940902" lon="8.686460">
<ele>401.5</ele>
<speed>4.8</speed>
<course>146.8</course>
<desc>Speed 4.8 km/h Distance 4.41 km</desc>
<time>2010-02-28T11:06:41.90</time>
<name>3033</name>
</trkpt>
<trkpt lat="48.940892" lon="8.686470">
<ele>401.0</ele>
<speed>5.5</speed>
<course>146.3</course>
<desc>Speed 5.5 km/h Distance 4.41 km</desc>
<time>2010-02-28T11:06:42.90</time>
<name>3034</name>
</trkpt>
<trkpt lat="48.940885" lon="8.686477">
<ele>400.5</ele>
<speed>3.6</speed>
<course>131.1</course>
<desc>Speed 3.6 km/h Distance 4.42 km</desc>
<time>2010-02-28T11:06:43.90</time>
<name>3035</name>
</trkpt>
<trkpt lat="48.940878" lon="8.686488">
<ele>400.0</ele>
<speed>4.6</speed>
<course>127.4</course>
<desc>Speed 4.6 km/h Distance 4.42 km</desc>
<time>2010-02-28T11:06:44.90</time>
<name>3036</name>
</trkpt>
<trkpt lat="48.940873" lon="8.686498">
<ele>400.0</ele>
<speed>4.8</speed>
<course>114.6</course>
<desc>Speed 4.8 km/h Distance 4.42 km</desc>
<time>2010-02-28T11:06:45.90</time>
<name>3037</name>
</trkpt>
<trkpt lat="48.940868" lon="8.686515">
<ele>400.5</ele>
<speed>5.0</speed>
<course>124.0</course>
<desc>Speed 5.0 km/h Distance 4.42 km</desc>
<time>2010-02-28T11:06:46.90</time>
<name>3038</name>
</trkpt>
<trkpt lat="48.940862" lon="8.686530">
<ele>400.5</ele>
<speed>4.8</speed>
<course>137.2</course>
<desc>Speed 4.8 km/h Distance 4.42 km</desc>
<time>2010-02-28T11:06:47.90</time>
<name>3039</name>
</trkpt>
<trkpt lat="48.940853" lon="8.686542">
<ele>400.5</ele>
<speed>4.8</speed>
<course>119.7</course>
<desc>Speed 4.8 km/h Distance 4.42 km</desc>
<time>2010-02-28T11:06:48.90</time>
<name>3040</name>
</trkpt>
<trkpt lat="48.940848" lon="8.686555">
<ele>400.5</ele>
<speed>4.8</speed>
<course>116.9</course>
<desc>Speed 4.8 km/h Distance 4.42 km</desc>
<time>2010-02-28T11:06:49.90</time>
<name>3041</name>
</trkpt>
<trkpt lat="48.940843" lon="8.686570">
<ele>401.0</ele>
<speed>4.9</speed>
<course>121.3</course>
<desc>Speed 4.9 km/h Distance 4.42 km</desc>
<time>2010-02-28T11:06:50.90</time>
<name>3042</name>
</trkpt>
<trkpt lat="48.940837" lon="8.686587">
<ele>401.0</ele>
<speed>5.3</speed>
<course>108.7</course>
<desc>Speed 5.3 km/h Distance 4.43 km</desc>
<time>2010-02-28T11:06:51.90</time>
<name>3043</name>
</trkpt>
<trkpt lat="48.940833" lon="8.686602">
<ele>401.0</ele>
<speed>4.8</speed>
<course>108.7</course>
<desc>Speed 4.8 km/h Distance 4.43 km</desc>
<time>2010-02-28T11:06:52.90</time>
<name>3044</name>
</trkpt>
<trkpt lat="48.940830" lon="8.686617">
<ele>401.0</ele>
<speed>4.6</speed>
<course>90.0</course>
<desc>Speed 4.6 km/h Distance 4.43 km</desc>
<time>2010-02-28T11:06:53.90</time>
<name>3045</name>
</trkpt>
<trkpt lat="48.940830" lon="8.686635">
<ele>401.0</ele>
<speed>5.3</speed>
<course>97.9</course>
<desc>Speed 5.3 km/h Distance 4.43 km</desc>
<time>2010-02-28T11:06:54.90</time>
<name>3046</name>
</trkpt>
<trkpt lat="48.940828" lon="8.686653">
<ele>401.0</ele>
<speed>5.2</speed>
<course>90.0</course>
<desc>Speed 5.2 km/h Distance 4.43 km</desc>
<time>2010-02-28T11:06:55.90</time>
<name>3047</name>
</trkpt>
<trkpt lat="48.940828" lon="8.686670">
<ele>400.5</ele>
<speed>4.9</speed>
<course>90.0</course>
<desc>Speed 4.9 km/h Distance 4.43 km</desc>
<time>2010-02-28T11:06:56.90</time>
<name>3048</name>
</trkpt>
<trkpt lat="48.940828" lon="8.686688">
<ele>400.5</ele>
<speed>5.3</speed>
<course>90.0</course>
<desc>Speed 5.3 km/h Distance 4.43 km</desc>
<time>2010-02-28T11:06:57.90</time>
<name>3049</name>
</trkpt>
<trkpt lat="48.940828" lon="8.686707">
<ele>400.5</ele>
<speed>5.2</speed>
<course>97.9</course>
<desc>Speed 5.2 km/h Distance 4.43 km</desc>
<time>2010-02-28T11:06:58.90</time>
<name>3050</name>
</trkpt>
<trkpt lat="48.940827" lon="8.686725">
<ele>400.5</ele>
<speed>5.0</speed>
<course>97.2</course>
<desc>Speed 5.0 km/h Distance 4.44 km</desc>
<time>2010-02-28T11:06:59.90</time>
<name>3051</name>
</trkpt>
<trkpt lat="48.940825" lon="8.686745">
<ele>400.5</ele>
<speed>5.1</speed>
<course>105.5</course>
<desc>Speed 5.1 km/h Distance 4.44 km</desc>
<time>2010-02-28T11:07:00.90</time>
<name>3052</name>
</trkpt>
<trkpt lat="48.940822" lon="8.686763">
<ele>400.5</ele>
<speed>4.9</speed>
<course>97.9</course>
<desc>Speed 4.9 km/h Distance 4.44 km</desc>
<time>2010-02-28T11:07:01.90</time>
<name>3053</name>
</trkpt>
<trkpt lat="48.940820" lon="8.686782">
<ele>400.5</ele>
<speed>4.9</speed>
<course>97.9</course>
<desc>Speed 4.9 km/h Distance 4.44 km</desc>
<time>2010-02-28T11:07:02.90</time>
<name>3054</name>
</trkpt>
<trkpt lat="48.940818" lon="8.686800">
<ele>400.5</ele>
<speed>5.1</speed>
<course>104.2</course>
<desc>Speed 5.1 km/h Distance 4.44 km</desc>
<time>2010-02-28T11:07:03.90</time>
<name>3055</name>
</trkpt>
<trkpt lat="48.940815" lon="8.686820">
<ele>401.0</ele>
<speed>5.2</speed>
<course>106.9</course>
<desc>Speed 5.2 km/h Distance 4.44 km</desc>
<time>2010-02-28T11:07:04.90</time>
<name>3056</name>
</trkpt>
<trkpt lat="48.940812" lon="8.686837">
<ele>401.0</ele>
<speed>4.5</speed>
<course>110.8</course>
<desc>Speed 4.5 km/h Distance 4.44 km</desc>
<time>2010-02-28T11:07:05.90</time>
<name>3057</name>
</trkpt>
<trkpt lat="48.940808" lon="8.686850">
<ele>401.0</ele>
<speed>3.4</speed>
<course>146.3</course>
<desc>Speed 3.4 km/h Distance 4.44 km</desc>
<time>2010-02-28T11:07:06.90</time>
<name>3058</name>
</trkpt>
<trkpt lat="48.940802" lon="8.686857">
<ele>401.0</ele>
<speed>2.8</speed>
<course>113.5</course>
<desc>Speed 2.8 km/h Distance 4.45 km</desc>
<time>2010-02-28T11:07:07.90</time>
<name>3059</name>
</trkpt>
<trkpt lat="48.940798" lon="8.686868">
<ele>401.0</ele>
<speed>2.9</speed>
<course>79.2</course>
<desc>Speed 2.9 km/h Distance 4.45 km</desc>
<time>2010-02-28T11:07:08.90</time>
<name>3060</name>
</trkpt>
<trkpt lat="48.940800" lon="8.686882">
<ele>401.0</ele>
<speed>3.3</speed>
<course>53.0</course>
<desc>Speed 3.3 km/h Distance 4.45 km</desc>
<time>2010-02-28T11:07:09.90</time>
<name>3061</name>
</trkpt>
<trkpt lat="48.940803" lon="8.686888">
<ele>401.0</ele>
<speed>1.9</speed>
<course>63.0</course>
<desc>Speed 1.9 km/h Distance 4.45 km</desc>
<time>2010-02-28T11:07:10.90</time>
<name>3062</name>
</trkpt>
<trkpt lat="48.940807" lon="8.686898">
<ele>401.5</ele>
<speed>2.4</speed>
<course>97.2</course>
<desc>Speed 2.4 km/h Distance 4.45 km</desc>
<time>2010-02-28T11:07:11.90</time>
<name>3063</name>
</trkpt>
<trkpt lat="48.940805" lon="8.686918">
<ele>401.5</ele>
<speed>5.0</speed>
<course>103.2</course>
<desc>Speed 5.0 km/h Distance 4.45 km</desc>
<time>2010-02-28T11:07:12.90</time>
<name>3064</name>
</trkpt>
<trkpt lat="48.940802" lon="8.686940">
<ele>401.0</ele>
<speed>5.7</speed>
<course>104.2</course>
<desc>Speed 5.7 km/h Distance 4.45 km</desc>
<time>2010-02-28T11:07:13.90</time>
<name>3065</name>
</trkpt>
<trkpt lat="48.940798" lon="8.686960">
<ele>401.0</ele>
<speed>5.1</speed>
<course>90.0</course>
<desc>Speed 5.1 km/h Distance 4.45 km</desc>
<time>2010-02-28T11:07:14.90</time>
<name>3066</name>
</trkpt>
<trkpt lat="48.940798" lon="8.686980">
<ele>401.0</ele>
<speed>5.0</speed>
<course>97.2</course>
<desc>Speed 5.0 km/h Distance 4.45 km</desc>
<time>2010-02-28T11:07:15.90</time>
<name>3067</name>
</trkpt>
<trkpt lat="48.940797" lon="8.687000">
<ele>400.5</ele>
<speed>5.4</speed>
<course>90.0</course>
<desc>Speed 5.4 km/h Distance 4.46 km</desc>
<time>2010-02-28T11:07:16.90</time>
<name>3068</name>
</trkpt>
<trkpt lat="48.940797" lon="8.687022">
<ele>400.5</ele>
<speed>5.5</speed>
<course>96.7</course>
<desc>Speed 5.5 km/h Distance 4.46 km</desc>
<time>2010-02-28T11:07:17.90</time>
<name>3069</name>
</trkpt>
<trkpt lat="48.940795" lon="8.687043">
<ele>400.5</ele>
<speed>5.3</speed>
<course>104.2</course>
<desc>Speed 5.3 km/h Distance 4.46 km</desc>
<time>2010-02-28T11:07:18.90</time>
<name>3070</name>
</trkpt>
<trkpt lat="48.940792" lon="8.687063">
<ele>400.5</ele>
<speed>5.1</speed>
<course>90.0</course>
<desc>Speed 5.1 km/h Distance 4.46 km</desc>
<time>2010-02-28T11:07:19.90</time>
<name>3071</name>
</trkpt>
<trkpt lat="48.940792" lon="8.687087">
<ele>400.0</ele>
<speed>5.5</speed>
<course>96.7</course>
<desc>Speed 5.5 km/h Distance 4.46 km</desc>
<time>2010-02-28T11:07:20.90</time>
<name>3072</name>
</trkpt>
<trkpt lat="48.940790" lon="8.687108">
<ele>400.0</ele>
<speed>5.4</speed>
<course>97.2</course>
<desc>Speed 5.4 km/h Distance 4.46 km</desc>
<time>2010-02-28T11:07:21.90</time>
<name>3073</name>
</trkpt>
<trkpt lat="48.940788" lon="8.687128">
<ele>400.0</ele>
<speed>5.4</speed>
<course>96.7</course>
<desc>Speed 5.4 km/h Distance 4.47 km</desc>
<time>2010-02-28T11:07:22.90</time>
<name>3074</name>
</trkpt>
<trkpt lat="48.940787" lon="8.687150">
<ele>399.5</ele>
<speed>5.4</speed>
<course>97.2</course>
<desc>Speed 5.4 km/h Distance 4.47 km</desc>
<time>2010-02-28T11:07:23.90</time>
<name>3075</name>
</trkpt>
<trkpt lat="48.940785" lon="8.687170">
<ele>399.5</ele>
<speed>5.1</speed>
<course>97.2</course>
<desc>Speed 5.1 km/h Distance 4.47 km</desc>
<time>2010-02-28T11:07:24.90</time>
<name>3076</name>
</trkpt>
<trkpt lat="48.940783" lon="8.687190">
<ele>399.0</ele>
<speed>5.3</speed>
<course>96.7</course>
<desc>Speed 5.3 km/h Distance 4.47 km</desc>
<time>2010-02-28T11:07:25.90</time>
<name>3077</name>
</trkpt>
<trkpt lat="48.940782" lon="8.687212">
<ele>399.0</ele>
<speed>5.5</speed>
<course>96.7</course>
<desc>Speed 5.5 km/h Distance 4.47 km</desc>
<time>2010-02-28T11:07:26.90</time>
<name>3078</name>
</trkpt>
<trkpt lat="48.940780" lon="8.687233">
<ele>398.5</ele>
<speed>5.2</speed>
<course>90.0</course>
<desc>Speed 5.2 km/h Distance 4.47 km</desc>
<time>2010-02-28T11:07:27.90</time>
<name>3079</name>
</trkpt>
<trkpt lat="48.940780" lon="8.687255">
<ele>398.5</ele>
<speed>5.7</speed>
<course>90.0</course>
<desc>Speed 5.7 km/h Distance 4.48 km</desc>
<time>2010-02-28T11:07:28.90</time>
<name>3080</name>
</trkpt>
<trkpt lat="48.940780" lon="8.687277">
<ele>398.0</ele>
<speed>5.5</speed>
<course>96.7</course>
<desc>Speed 5.5 km/h Distance 4.48 km</desc>
<time>2010-02-28T11:07:29.90</time>
<name>3081</name>
</trkpt>
<trkpt lat="48.940778" lon="8.687298">
<ele>398.0</ele>
<speed>5.5</speed>
<course>109.4</course>
<desc>Speed 5.5 km/h Distance 4.48 km</desc>
<time>2010-02-28T11:07:30.90</time>
<name>3082</name>
</trkpt>
<trkpt lat="48.940773" lon="8.687320">
<ele>397.5</ele>
<speed>6.0</speed>
<course>115.1</course>
<desc>Speed 6.0 km/h Distance 4.48 km</desc>
<time>2010-02-28T11:07:31.90</time>
<name>3083</name>
</trkpt>
<trkpt lat="48.940767" lon="8.687342">
<ele>397.5</ele>
<speed>6.0</speed>
<course>109.4</course>
<desc>Speed 6.0 km/h Distance 4.48 km</desc>
<time>2010-02-28T11:07:32.90</time>
<name>3084</name>
</trkpt>
<trkpt lat="48.940762" lon="8.687363">
<ele>397.0</ele>
<speed>5.8</speed>
<course>103.2</course>
<desc>Speed 5.8 km/h Distance 4.48 km</desc>
<time>2010-02-28T11:07:33.90</time>
<name>3085</name>
</trkpt>
<trkpt lat="48.940758" lon="8.687385">
<ele>397.0</ele>
<speed>6.0</speed>
<course>96.7</course>
<desc>Speed 6.0 km/h Distance 4.49 km</desc>
<time>2010-02-28T11:07:34.90</time>
<name>3086</name>
</trkpt>
<trkpt lat="48.940757" lon="8.687407">
<ele>396.5</ele>
<speed>5.8</speed>
<course>96.7</course>
<desc>Speed 5.8 km/h Distance 4.49 km</desc>
<time>2010-02-28T11:07:35.90</time>
<name>3087</name>
</trkpt>
<trkpt lat="48.940755" lon="8.687428">
<ele>396.5</ele>
<speed>5.7</speed>
<course>96.7</course>
<desc>Speed 5.7 km/h Distance 4.49 km</desc>
<time>2010-02-28T11:07:36.90</time>
<name>3088</name>
</trkpt>
<trkpt lat="48.940753" lon="8.687450">
<ele>396.0</ele>
<speed>5.8</speed>
<course>96.2</course>
<desc>Speed 5.8 km/h Distance 4.49 km</desc>
<time>2010-02-28T11:07:37.90</time>
<name>3089</name>
</trkpt>
<trkpt lat="48.940752" lon="8.687473">
<ele>396.0</ele>
<speed>6.1</speed>
<course>95.8</course>
<desc>Speed 6.1 km/h Distance 4.49 km</desc>
<time>2010-02-28T11:07:38.90</time>
<name>3090</name>
</trkpt>
<trkpt lat="48.940750" lon="8.687498">
<ele>396.0</ele>
<speed>6.4</speed>
<course>97.2</course>
<desc>Speed 6.4 km/h Distance 4.49 km</desc>
<time>2010-02-28T11:07:39.90</time>
<name>3091</name>
</trkpt>
<trkpt lat="48.940748" lon="8.687518">
<ele>396.0</ele>
<speed>5.7</speed>
<course>102.3</course>
<desc>Speed 5.7 km/h Distance 4.49 km</desc>
<time>2010-02-28T11:07:40.90</time>
<name>3092</name>
</trkpt>
<trkpt lat="48.940745" lon="8.687542">
<ele>395.5</ele>
<speed>6.0</speed>
<course>96.2</course>
<desc>Speed 6.0 km/h Distance 4.50 km</desc>
<time>2010-02-28T11:07:41.90</time>
<name>3093</name>
</trkpt>
<trkpt lat="48.940743" lon="8.687565">
<ele>395.5</ele>
<speed>5.8</speed>
<course>96.7</course>
<desc>Speed 5.8 km/h Distance 4.50 km</desc>
<time>2010-02-28T11:07:42.90</time>
<name>3094</name>
</trkpt>
<trkpt lat="48.940742" lon="8.687587">
<ele>395.5</ele>
<speed>5.9</speed>
<course>96.7</course>
<desc>Speed 5.9 km/h Distance 4.50 km</desc>
<time>2010-02-28T11:07:43.90</time>
<name>3095</name>
</trkpt>
<trkpt lat="48.940740" lon="8.687608">
<ele>395.0</ele>
<speed>6.0</speed>
<course>102.3</course>
<desc>Speed 6.0 km/h Distance 4.50 km</desc>
<time>2010-02-28T11:07:44.90</time>
<name>3096</name>
</trkpt>
<trkpt lat="48.940737" lon="8.687632">
<ele>395.0</ele>
<speed>6.2</speed>
<course>96.2</course>
<desc>Speed 6.2 km/h Distance 4.50 km</desc>
<time>2010-02-28T11:07:45.90</time>
<name>3097</name>
</trkpt>
<trkpt lat="48.940735" lon="8.687655">
<ele>394.5</ele>
<speed>6.2</speed>
<course>96.7</course>
<desc>Speed 6.2 km/h Distance 4.51 km</desc>
<time>2010-02-28T11:07:46.90</time>
<name>3098</name>
</trkpt>
<trkpt lat="48.940733" lon="8.687677">
<ele>394.5</ele>
<speed>6.0</speed>
<course>96.2</course>
<desc>Speed 6.0 km/h Distance 4.51 km</desc>
<time>2010-02-28T11:07:47.90</time>
<name>3099</name>
</trkpt>
<trkpt lat="48.940732" lon="8.687700">
<ele>394.5</ele>
<speed>6.3</speed>
<course>90.0</course>
<desc>Speed 6.3 km/h Distance 4.51 km</desc>
<time>2010-02-28T11:07:48.90</time>
<name>3100</name>
</trkpt>
<trkpt lat="48.940732" lon="8.687723">
<ele>394.0</ele>
<speed>5.9</speed>
<course>83.3</course>
<desc>Speed 5.9 km/h Distance 4.51 km</desc>
<time>2010-02-28T11:07:49.90</time>
<name>3101</name>
</trkpt>
<trkpt lat="48.940733" lon="8.687745">
<ele>394.0</ele>
<speed>5.8</speed>
<course>96.7</course>
<desc>Speed 5.8 km/h Distance 4.51 km</desc>
<time>2010-02-28T11:07:50.90</time>
<name>3102</name>
</trkpt>
<trkpt lat="48.940732" lon="8.687767">
<ele>393.5</ele>
<speed>5.9</speed>
<course>90.0</course>
<desc>Speed 5.9 km/h Distance 4.51 km</desc>
<time>2010-02-28T11:07:51.90</time>
<name>3103</name>
</trkpt>
<trkpt lat="48.940732" lon="8.687788">
<ele>393.5</ele>
<speed>5.9</speed>
<course>96.7</course>
<desc>Speed 5.9 km/h Distance 4.51 km</desc>
<time>2010-02-28T11:07:52.90</time>
<name>3104</name>
</trkpt>
<trkpt lat="48.940730" lon="8.687810">
<ele>393.5</ele>
<speed>5.7</speed>
<course>83.3</course>
<desc>Speed 5.7 km/h Distance 4.52 km</desc>
<time>2010-02-28T11:07:53.90</time>
<name>3105</name>
</trkpt>
<trkpt lat="48.940732" lon="8.687832">
<ele>393.5</ele>
<speed>5.8</speed>
<course>96.7</course>
<desc>Speed 5.8 km/h Distance 4.52 km</desc>
<time>2010-02-28T11:07:54.90</time>
<name>3106</name>
</trkpt>
<trkpt lat="48.940730" lon="8.687853">
<ele>393.0</ele>
<speed>6.0</speed>
<course>90.0</course>
<desc>Speed 6.0 km/h Distance 4.52 km</desc>
<time>2010-02-28T11:07:55.90</time>
<name>3107</name>
</trkpt>
<trkpt lat="48.940730" lon="8.687875">
<ele>393.0</ele>
<speed>5.9</speed>
<course>96.2</course>
<desc>Speed 5.9 km/h Distance 4.52 km</desc>
<time>2010-02-28T11:07:56.90</time>
<name>3108</name>
</trkpt>
<trkpt lat="48.940728" lon="8.687898">
<ele>392.5</ele>
<speed>6.0</speed>
<course>96.2</course>
<desc>Speed 6.0 km/h Distance 4.52 km</desc>
<time>2010-02-28T11:07:57.90</time>
<name>3109</name>
</trkpt>
<trkpt lat="48.940727" lon="8.687922">
<ele>392.5</ele>
<speed>6.3</speed>
<course>96.7</course>
<desc>Speed 6.3 km/h Distance 4.52 km</desc>
<time>2010-02-28T11:07:58.90</time>
<name>3110</name>
</trkpt>
<trkpt lat="48.940725" lon="8.687943">
<ele>392.5</ele>
<speed>5.9</speed>
<course>83.8</course>
<desc>Speed 5.9 km/h Distance 4.53 km</desc>
<time>2010-02-28T11:07:59.90</time>
<name>3111</name>
</trkpt>
<trkpt lat="48.940727" lon="8.687967">
<ele>392.5</ele>
<speed>5.9</speed>
<course>90.0</course>
<desc>Speed 5.9 km/h Distance 4.53 km</desc>
<time>2010-02-28T11:08:00.90</time>
<name>3112</name>
</trkpt>
<trkpt lat="48.940727" lon="8.687990">
<ele>392.5</ele>
<speed>6.2</speed>
<course>90.0</course>
<desc>Speed 6.2 km/h Distance 4.53 km</desc>
<time>2010-02-28T11:08:01.90</time>
<name>3113</name>
</trkpt>
<trkpt lat="48.940727" lon="8.688013">
<ele>392.5</ele>
<speed>6.3</speed>
<course>90.0</course>
<desc>Speed 6.3 km/h Distance 4.53 km</desc>
<time>2010-02-28T11:08:02.90</time>
<name>3114</name>
</trkpt>
<trkpt lat="48.940727" lon="8.688037">
<ele>392.0</ele>
<speed>6.2</speed>
<course>96.2</course>
<desc>Speed 6.2 km/h Distance 4.53 km</desc>
<time>2010-02-28T11:08:03.90</time>
<name>3115</name>
</trkpt>
<trkpt lat="48.940725" lon="8.688060">
<ele>392.0</ele>
<speed>6.1</speed>
<course>90.0</course>
<desc>Speed 6.1 km/h Distance 4.53 km</desc>
<time>2010-02-28T11:08:04.90</time>
<name>3116</name>
</trkpt>
<trkpt lat="48.940725" lon="8.688085">
<ele>392.0</ele>
<speed>6.0</speed>
<course>96.2</course>
<desc>Speed 6.0 km/h Distance 4.54 km</desc>
<time>2010-02-28T11:08:05.90</time>
<name>3117</name>
</trkpt>
<trkpt lat="48.940723" lon="8.688108">
<ele>391.5</ele>
<speed>6.0</speed>
<course>90.0</course>
<desc>Speed 6.0 km/h Distance 4.54 km</desc>
<time>2010-02-28T11:08:06.90</time>
<name>3118</name>
</trkpt>
<trkpt lat="48.940723" lon="8.688132">
<ele>391.5</ele>
<speed>6.2</speed>
<course>90.0</course>
<desc>Speed 6.2 km/h Distance 4.54 km</desc>
<time>2010-02-28T11:08:07.90</time>
<name>3119</name>
</trkpt>
<trkpt lat="48.940723" lon="8.688157">
<ele>391.5</ele>
<speed>6.1</speed>
<course>95.8</course>
<desc>Speed 6.1 km/h Distance 4.54 km</desc>
<time>2010-02-28T11:08:08.90</time>
<name>3120</name>
</trkpt>
<trkpt lat="48.940722" lon="8.688182">
<ele>391.5</ele>
<speed>6.2</speed>
<course>96.2</course>
<desc>Speed 6.2 km/h Distance 4.54 km</desc>
<time>2010-02-28T11:08:09.90</time>
<name>3121</name>
</trkpt>
<trkpt lat="48.940720" lon="8.688205">
<ele>391.5</ele>
<speed>6.2</speed>
<course>90.0</course>
<desc>Speed 6.2 km/h Distance 4.55 km</desc>
<time>2010-02-28T11:08:10.90</time>
<name>3122</name>
</trkpt>
<trkpt lat="48.940720" lon="8.688228">
<ele>391.5</ele>
<speed>5.9</speed>
<course>90.0</course>
<desc>Speed 5.9 km/h Distance 4.55 km</desc>
<time>2010-02-28T11:08:11.90</time>
<name>3123</name>
</trkpt>
<trkpt lat="48.940720" lon="8.688250">
<ele>391.0</ele>
<speed>5.8</speed>
<course>96.2</course>
<desc>Speed 5.8 km/h Distance 4.55 km</desc>
<time>2010-02-28T11:08:12.90</time>
<name>3124</name>
</trkpt>
<trkpt lat="48.940718" lon="8.688273">
<ele>391.0</ele>
<speed>6.0</speed>
<course>90.0</course>
<desc>Speed 6.0 km/h Distance 4.55 km</desc>
<time>2010-02-28T11:08:13.90</time>
<name>3125</name>
</trkpt>
<trkpt lat="48.940718" lon="8.688298">
<ele>391.0</ele>
<speed>6.0</speed>
<course>96.7</course>
<desc>Speed 6.0 km/h Distance 4.55 km</desc>
<time>2010-02-28T11:08:14.90</time>
<name>3126</name>
</trkpt>
<trkpt lat="48.940717" lon="8.688320">
<ele>391.0</ele>
<speed>6.0</speed>
<course>90.0</course>
<desc>Speed 6.0 km/h Distance 4.55 km</desc>
<time>2010-02-28T11:08:15.90</time>
<name>3127</name>
</trkpt>
<trkpt lat="48.940717" lon="8.688343">
<ele>391.0</ele>
<speed>5.7</speed>
<course>97.2</course>
<desc>Speed 5.7 km/h Distance 4.56 km</desc>
<time>2010-02-28T11:08:16.90</time>
<name>3128</name>
</trkpt>
<trkpt lat="48.940715" lon="8.688363">
<ele>391.0</ele>
<speed>5.6</speed>
<course>96.2</course>
<desc>Speed 5.6 km/h Distance 4.56 km</desc>
<time>2010-02-28T11:08:17.90</time>
<name>3129</name>
</trkpt>
<trkpt lat="48.940713" lon="8.688387">
<ele>391.0</ele>
<speed>5.7</speed>
<course>103.2</course>
<desc>Speed 5.7 km/h Distance 4.56 km</desc>
<time>2010-02-28T11:08:18.90</time>
<name>3130</name>
</trkpt>
<trkpt lat="48.940710" lon="8.688408">
<ele>391.0</ele>
<speed>5.9</speed>
<course>90.0</course>
<desc>Speed 5.9 km/h Distance 4.56 km</desc>
<time>2010-02-28T11:08:19.90</time>
<name>3131</name>
</trkpt>
<trkpt lat="48.940710" lon="8.688432">
<ele>391.0</ele>
<speed>6.0</speed>
<course>103.2</course>
<desc>Speed 6.0 km/h Distance 4.56 km</desc>
<time>2010-02-28T11:08:20.90</time>
<name>3132</name>
</trkpt>
<trkpt lat="48.940707" lon="8.688453">
<ele>391.0</ele>
<speed>5.7</speed>
<course>96.7</course>
<desc>Speed 5.7 km/h Distance 4.56 km</desc>
<time>2010-02-28T11:08:21.90</time>
<name>3133</name>
</trkpt>
<trkpt lat="48.940705" lon="8.688475">
<ele>391.0</ele>
<speed>5.8</speed>
<course>90.0</course>
<desc>Speed 5.8 km/h Distance 4.57 km</desc>
<time>2010-02-28T11:08:22.90</time>
<name>3134</name>
</trkpt>
<trkpt lat="48.940705" lon="8.688498">
<ele>391.0</ele>
<speed>5.9</speed>
<course>96.2</course>
<desc>Speed 5.9 km/h Distance 4.57 km</desc>
<time>2010-02-28T11:08:23.90</time>
<name>3135</name>
</trkpt>
<trkpt lat="48.940703" lon="8.688522">
<ele>391.0</ele>
<speed>6.0</speed>
<course>90.0</course>
<desc>Speed 6.0 km/h Distance 4.57 km</desc>
<time>2010-02-28T11:08:24.90</time>
<name>3136</name>
</trkpt>
<trkpt lat="48.940703" lon="8.688543">
<ele>391.0</ele>
<speed>5.7</speed>
<course>96.2</course>
<desc>Speed 5.7 km/h Distance 4.57 km</desc>
<time>2010-02-28T11:08:25.90</time>
<name>3137</name>
</trkpt>
<trkpt lat="48.940702" lon="8.688567">
<ele>391.0</ele>
<speed>5.9</speed>
<course>96.7</course>
<desc>Speed 5.9 km/h Distance 4.57 km</desc>
<time>2010-02-28T11:08:26.90</time>
<name>3138</name>
</trkpt>
<trkpt lat="48.940700" lon="8.688588">
<ele>391.0</ele>
<speed>5.7</speed>
<course>96.2</course>
<desc>Speed 5.7 km/h Distance 4.57 km</desc>
<time>2010-02-28T11:08:27.90</time>
<name>3139</name>
</trkpt>
<trkpt lat="48.940698" lon="8.688612">
<ele>391.0</ele>
<speed>6.0</speed>
<course>96.2</course>
<desc>Speed 6.0 km/h Distance 4.58 km</desc>
<time>2010-02-28T11:08:28.90</time>
<name>3140</name>
</trkpt>
<trkpt lat="48.940697" lon="8.688635">
<ele>391.0</ele>
<speed>5.8</speed>
<course>96.7</course>
<desc>Speed 5.8 km/h Distance 4.58 km</desc>
<time>2010-02-28T11:08:29.90</time>
<name>3141</name>
</trkpt>
<trkpt lat="48.940695" lon="8.688657">
<ele>391.0</ele>
<speed>5.6</speed>
<course>96.2</course>
<desc>Speed 5.6 km/h Distance 4.58 km</desc>
<time>2010-02-28T11:08:30.90</time>
<name>3142</name>
</trkpt>
<trkpt lat="48.940693" lon="8.688680">
<ele>391.0</ele>
<speed>5.6</speed>
<course>96.7</course>
<desc>Speed 5.6 km/h Distance 4.58 km</desc>
<time>2010-02-28T11:08:31.90</time>
<name>3143</name>
</trkpt>
<trkpt lat="48.940692" lon="8.688702">
<ele>391.0</ele>
<speed>5.7</speed>
<course>96.7</course>
<desc>Speed 5.7 km/h Distance 4.58 km</desc>
<time>2010-02-28T11:08:32.90</time>
<name>3144</name>
</trkpt>
<trkpt lat="48.940690" lon="8.688723">
<ele>391.0</ele>
<speed>5.8</speed>
<course>96.7</course>
<desc>Speed 5.8 km/h Distance 4.58 km</desc>
<time>2010-02-28T11:08:33.90</time>
<name>3145</name>
</trkpt>
<trkpt lat="48.940688" lon="8.688745">
<ele>391.0</ele>
<speed>5.7</speed>
<course>97.2</course>
<desc>Speed 5.7 km/h Distance 4.59 km</desc>
<time>2010-02-28T11:08:34.90</time>
<name>3146</name>
</trkpt>
<trkpt lat="48.940687" lon="8.688765">
<ele>391.0</ele>
<speed>5.4</speed>
<course>104.2</course>
<desc>Speed 5.4 km/h Distance 4.59 km</desc>
<time>2010-02-28T11:08:35.90</time>
<name>3147</name>
</trkpt>
<trkpt lat="48.940683" lon="8.688785">
<ele>391.0</ele>
<speed>5.5</speed>
<course>98.7</course>
<desc>Speed 5.5 km/h Distance 4.59 km</desc>
<time>2010-02-28T11:08:36.90</time>
<name>3148</name>
</trkpt>
<trkpt lat="48.940682" lon="8.688802">
<ele>391.0</ele>
<speed>4.4</speed>
<course>128.1</course>
<desc>Speed 4.4 km/h Distance 4.59 km</desc>
<time>2010-02-28T11:08:37.90</time>
<name>3149</name>
</trkpt>
<trkpt lat="48.940680" lon="8.688805">
<ele>390.5</ele>
<speed>1.4</speed>
<course>128.1</course>
<desc>Speed 1.4 km/h Distance 4.59 km</desc>
<time>2010-02-28T11:08:38.90</time>
<name>3150</name>
</trkpt>
<trkpt lat="48.940680" lon="8.688805">
<ele>390.5</ele>
<speed>0.2</speed>
<course>128.1</course>
<desc>Speed 0.2 km/h Distance 4.59 km</desc>
<time>2010-02-28T11:08:39.90</time>
<name>3151</name>
</trkpt>
<trkpt lat="48.940680" lon="8.688805">
<ele>390.5</ele>
<speed>0.2</speed>
<course>128.1</course>
<desc>Speed 0.2 km/h Distance 4.59 km</desc>
<time>2010-02-28T11:08:40.90</time>
<name>3152</name>
</trkpt>
<trkpt lat="48.940680" lon="8.688807">
<ele>390.5</ele>
<speed>0.1</speed>
<course>330.8</course>
<desc>Speed 0.1 km/h Distance 4.59 km</desc>
<time>2010-02-28T11:08:41.90</time>
<name>3153</name>
</trkpt>
<trkpt lat="48.940682" lon="8.688805">
<ele>390.5</ele>
<speed>0.1</speed>
<course>167.4</course>
<desc>Speed 0.1 km/h Distance 4.59 km</desc>
<time>2010-02-28T11:08:42.90</time>
<name>3154</name>
</trkpt>
<trkpt lat="48.940680" lon="8.688805">
<ele>390.5</ele>
<speed>0.2</speed>
<course>167.4</course>
<desc>Speed 0.2 km/h Distance 4.59 km</desc>
<time>2010-02-28T11:08:43.90</time>
<name>3155</name>
</trkpt>
<trkpt lat="48.940680" lon="8.688805">
<ele>390.5</ele>
<speed>0.3</speed>
<course>167.4</course>
<desc>Speed 0.3 km/h Distance 4.59 km</desc>
<time>2010-02-28T11:08:44.90</time>
<name>3156</name>
</trkpt>
<trkpt lat="48.940680" lon="8.688805">
<ele>391.0</ele>
<speed>0.1</speed>
<course>167.4</course>
<desc>Speed 0.1 km/h Distance 4.59 km</desc>
<time>2010-02-28T11:08:45.90</time>
<name>3157</name>
</trkpt>
<trkpt lat="48.940680" lon="8.688805">
<ele>391.0</ele>
<speed>0.1</speed>
<course>167.4</course>
<desc>Speed 0.1 km/h Distance 4.59 km</desc>
<time>2010-02-28T11:08:46.90</time>
<name>3158</name>
</trkpt>
<trkpt lat="48.940680" lon="8.688803">
<ele>391.0</ele>
<speed>0.3</speed>
<course>167.4</course>
<desc>Speed 0.3 km/h Distance 4.59 km</desc>
<time>2010-02-28T11:08:47.90</time>
<name>3159</name>
</trkpt>
<trkpt lat="48.940680" lon="8.688803">
<ele>391.0</ele>
<speed>0.1</speed>
<course>167.4</course>
<desc>Speed 0.1 km/h Distance 4.59 km</desc>
<time>2010-02-28T11:08:48.90</time>
<name>3160</name>
</trkpt>
<trkpt lat="48.940680" lon="8.688803">
<ele>391.0</ele>
<speed>0.3</speed>
<course>12.6</course>
<desc>Speed 0.3 km/h Distance 4.59 km</desc>
<time>2010-02-28T11:08:49.90</time>
<name>3161</name>
</trkpt>
<trkpt lat="48.940682" lon="8.688803">
<ele>391.0</ele>
<speed>0.2</speed>
<course>12.6</course>
<desc>Speed 0.2 km/h Distance 4.59 km</desc>
<time>2010-02-28T11:08:50.90</time>
<name>3162</name>
</trkpt>
<trkpt lat="48.940682" lon="8.688803">
<ele>391.0</ele>
<speed>0.6</speed>
<course>102.3</course>
<desc>Speed 0.6 km/h Distance 4.59 km</desc>
<time>2010-02-28T11:08:51.90</time>
<name>3163</name>
</trkpt>
<trkpt lat="48.940680" lon="8.688815">
<ele>391.0</ele>
<speed>3.6</speed>
<course>97.9</course>
<desc>Speed 3.6 km/h Distance 4.59 km</desc>
<time>2010-02-28T11:08:52.90</time>
<name>3164</name>
</trkpt>
<trkpt lat="48.940678" lon="8.688833">
<ele>391.0</ele>
<speed>4.6</speed>
<course>80.4</course>
<desc>Speed 4.6 km/h Distance 4.59 km</desc>
<time>2010-02-28T11:08:53.90</time>
<name>3165</name>
</trkpt>
<trkpt lat="48.940680" lon="8.688848">
<ele>391.0</ele>
<speed>4.2</speed>
<course>90.0</course>
<desc>Speed 4.2 km/h Distance 4.59 km</desc>
<time>2010-02-28T11:08:54.90</time>
<name>3166</name>
</trkpt>
<trkpt lat="48.940680" lon="8.688858">
<ele>391.5</ele>
<speed>2.7</speed>
<course>29.2</course>
<desc>Speed 2.7 km/h Distance 4.59 km</desc>
<time>2010-02-28T11:08:55.90</time>
<name>3167</name>
</trkpt>
<trkpt lat="48.940682" lon="8.688860">
<ele>392.0</ele>
<speed>1.2</speed>
<course>102.3</course>
<desc>Speed 1.2 km/h Distance 4.59 km</desc>
<time>2010-02-28T11:08:56.90</time>
<name>3168</name>
</trkpt>
<trkpt lat="48.940680" lon="8.688872">
<ele>392.0</ele>
<speed>3.1</speed>
<course>90.0</course>
<desc>Speed 3.1 km/h Distance 4.60 km</desc>
<time>2010-02-28T11:08:57.90</time>
<name>3169</name>
</trkpt>
<trkpt lat="48.940680" lon="8.688887">
<ele>392.0</ele>
<speed>3.7</speed>
<course>90.0</course>
<desc>Speed 3.7 km/h Distance 4.60 km</desc>
<time>2010-02-28T11:08:58.90</time>
<name>3170</name>
</trkpt>
<trkpt lat="48.940680" lon="8.688902">
<ele>392.0</ele>
<speed>4.2</speed>
<course>90.0</course>
<desc>Speed 4.2 km/h Distance 4.60 km</desc>
<time>2010-02-28T11:08:59.90</time>
<name>3171</name>
</trkpt>
<trkpt lat="48.940680" lon="8.688917">
<ele>392.0</ele>
<speed>3.8</speed>
<course>90.0</course>
<desc>Speed 3.8 km/h Distance 4.60 km</desc>
<time>2010-02-28T11:09:00.90</time>
<name>3172</name>
</trkpt>
<trkpt lat="48.940680" lon="8.688927">
<ele>392.0</ele>
<speed>2.4</speed>
<course>90.0</course>
<desc>Speed 2.4 km/h Distance 4.60 km</desc>
<time>2010-02-28T11:09:01.90</time>
<name>3173</name>
</trkpt>
<trkpt lat="48.940680" lon="8.688927">
<ele>392.0</ele>
<speed>0.5</speed>
<course>12.6</course>
<desc>Speed 0.5 km/h Distance 4.60 km</desc>
<time>2010-02-28T11:09:02.90</time>
<name>3174</name>
</trkpt>
<trkpt lat="48.940682" lon="8.688927">
<ele>392.0</ele>
<speed>0.2</speed>
<course>12.6</course>
<desc>Speed 0.2 km/h Distance 4.60 km</desc>
<time>2010-02-28T11:09:03.90</time>
<name>3175</name>
</trkpt>
<trkpt lat="48.940682" lon="8.688927">
<ele>392.0</ele>
<speed>0.2</speed>
<course>12.6</course>
<desc>Speed 0.2 km/h Distance 4.60 km</desc>
<time>2010-02-28T11:09:04.90</time>
<name>3176</name>
</trkpt>
<trkpt lat="48.940682" lon="8.688927">
<ele>392.0</ele>
<speed>0.1</speed>
<course>12.6</course>
<desc>Speed 0.1 km/h Distance 4.60 km</desc>
<time>2010-02-28T11:09:05.90</time>
<name>3177</name>
</trkpt>
<trkpt lat="48.940682" lon="8.688927">
<ele>392.0</ele>
<speed>0.1</speed>
<course>12.6</course>
<desc>Speed 0.1 km/h Distance 4.60 km</desc>
<time>2010-02-28T11:09:06.90</time>
<name>3178</name>
</trkpt>
<trkpt lat="48.940682" lon="8.688927">
<ele>392.0</ele>
<speed>0.1</speed>
<course>12.6</course>
<desc>Speed 0.1 km/h Distance 4.60 km</desc>
<time>2010-02-28T11:09:07.90</time>
<name>3179</name>
</trkpt>
<trkpt lat="48.940683" lon="8.688927">
<ele>392.0</ele>
<speed>0.2</speed>
<course>12.6</course>
<desc>Speed 0.2 km/h Distance 4.60 km</desc>
<time>2010-02-28T11:09:08.90</time>
<name>3180</name>
</trkpt>
<trkpt lat="48.940683" lon="8.688927">
<ele>392.0</ele>
<speed>0.2</speed>
<course>12.6</course>
<desc>Speed 0.2 km/h Distance 4.60 km</desc>
<time>2010-02-28T11:09:09.90</time>
<name>3181</name>
</trkpt>
<trkpt lat="48.940683" lon="8.688927">
<ele>392.0</ele>
<speed>0.2</speed>
<course>72.9</course>
<desc>Speed 0.2 km/h Distance 4.60 km</desc>
<time>2010-02-28T11:09:10.90</time>
<name>3182</name>
</trkpt>
<trkpt lat="48.940685" lon="8.688935">
<ele>392.0</ele>
<speed>2.2</speed>
<course>90.0</course>
<desc>Speed 2.2 km/h Distance 4.60 km</desc>
<time>2010-02-28T11:09:11.90</time>
<name>3183</name>
</trkpt>
<trkpt lat="48.940685" lon="8.688948">
<ele>392.0</ele>
<speed>3.3</speed>
<course>90.0</course>
<desc>Speed 3.3 km/h Distance 4.60 km</desc>
<time>2010-02-28T11:09:12.90</time>
<name>3184</name>
</trkpt>
<trkpt lat="48.940685" lon="8.688957">
<ele>392.0</ele>
<speed>2.5</speed>
<course>37.2</course>
<desc>Speed 2.5 km/h Distance 4.60 km</desc>
<time>2010-02-28T11:09:13.90</time>
<name>3185</name>
</trkpt>
<trkpt lat="48.940687" lon="8.688958">
<ele>392.0</ele>
<speed>0.6</speed>
<course>12.6</course>
<desc>Speed 0.6 km/h Distance 4.60 km</desc>
<time>2010-02-28T11:09:14.90</time>
<name>3186</name>
</trkpt>
<trkpt lat="48.940688" lon="8.688958">
<ele>392.5</ele>
<speed>0.2</speed>
<course>12.6</course>
<desc>Speed 0.2 km/h Distance 4.60 km</desc>
<time>2010-02-28T11:09:15.90</time>
<name>3187</name>
</trkpt>
<trkpt lat="48.940688" lon="8.688958">
<ele>392.5</ele>
<speed>0.1</speed>
<course>75.8</course>
<desc>Speed 0.1 km/h Distance 4.60 km</desc>
<time>2010-02-28T11:09:16.90</time>
<name>3188</name>
</trkpt>
<trkpt lat="48.940690" lon="8.688968">
<ele>392.5</ele>
<speed>1.9</speed>
<course>99.6</course>
<desc>Speed 1.9 km/h Distance 4.60 km</desc>
<time>2010-02-28T11:09:17.90</time>
<name>3189</name>
</trkpt>
<trkpt lat="48.940688" lon="8.688983">
<ele>392.5</ele>
<speed>4.1</speed>
<course>97.9</course>
<desc>Speed 4.1 km/h Distance 4.60 km</desc>
<time>2010-02-28T11:09:18.90</time>
<name>3190</name>
</trkpt>
<trkpt lat="48.940687" lon="8.689002">
<ele>392.5</ele>
<speed>4.9</speed>
<course>96.7</course>
<desc>Speed 4.9 km/h Distance 4.61 km</desc>
<time>2010-02-28T11:09:19.90</time>
<name>3191</name>
</trkpt>
<trkpt lat="48.940685" lon="8.689023">
<ele>392.5</ele>
<speed>5.1</speed>
<course>97.9</course>
<desc>Speed 5.1 km/h Distance 4.61 km</desc>
<time>2010-02-28T11:09:20.90</time>
<name>3192</name>
</trkpt>
<trkpt lat="48.940683" lon="8.689042">
<ele>392.5</ele>
<speed>5.0</speed>
<course>97.2</course>
<desc>Speed 5.0 km/h Distance 4.61 km</desc>
<time>2010-02-28T11:09:21.90</time>
<name>3193</name>
</trkpt>
<trkpt lat="48.940682" lon="8.689062">
<ele>392.5</ele>
<speed>4.9</speed>
<course>83.3</course>
<desc>Speed 4.9 km/h Distance 4.61 km</desc>
<time>2010-02-28T11:09:22.90</time>
<name>3194</name>
</trkpt>
<trkpt lat="48.940683" lon="8.689083">
<ele>392.5</ele>
<speed>5.5</speed>
<course>96.2</course>
<desc>Speed 5.5 km/h Distance 4.61 km</desc>
<time>2010-02-28T11:09:23.90</time>
<name>3195</name>
</trkpt>
<trkpt lat="48.940682" lon="8.689107">
<ele>392.5</ele>
<speed>5.9</speed>
<course>96.2</course>
<desc>Speed 5.9 km/h Distance 4.61 km</desc>
<time>2010-02-28T11:09:24.90</time>
<name>3196</name>
</trkpt>
<trkpt lat="48.940680" lon="8.689130">
<ele>392.5</ele>
<speed>5.6</speed>
<course>96.7</course>
<desc>Speed 5.6 km/h Distance 4.62 km</desc>
<time>2010-02-28T11:09:25.90</time>
<name>3197</name>
</trkpt>
<trkpt lat="48.940678" lon="8.689152">
<ele>392.0</ele>
<speed>5.7</speed>
<course>24.5</course>
<desc>Speed 5.7 km/h Distance 4.62 km</desc>
<time>2010-02-28T11:09:26.90</time>
<name>3198</name>
</trkpt>
<trkpt lat="48.940700" lon="8.689167">
<ele>394.0</ele>
<speed>8.9</speed>
<course>108.1</course>
<desc>Speed 8.9 km/h Distance 4.62 km</desc>
<time>2010-02-28T11:09:27.90</time>
<name>3199</name>
</trkpt>
<trkpt lat="48.940695" lon="8.689190">
<ele>393.5</ele>
<speed>5.8</speed>
<course>127.3</course>
<desc>Speed 5.8 km/h Distance 4.62 km</desc>
<time>2010-02-28T11:09:28.90</time>
<name>3200</name>
</trkpt>
<trkpt lat="48.940687" lon="8.689207">
<ele>393.5</ele>
<speed>5.2</speed>
<course>138.6</course>
<desc>Speed 5.2 km/h Distance 4.62 km</desc>
<time>2010-02-28T11:09:29.90</time>
<name>3201</name>
</trkpt>
<trkpt lat="48.940677" lon="8.689220">
<ele>393.5</ele>
<speed>5.3</speed>
<course>171.0</course>
<desc>Speed 5.3 km/h Distance 4.62 km</desc>
<time>2010-02-28T11:09:30.90</time>
<name>3202</name>
</trkpt>
<trkpt lat="48.940663" lon="8.689223">
<ele>393.5</ele>
<speed>5.7</speed>
<course>171.0</course>
<desc>Speed 5.7 km/h Distance 4.63 km</desc>
<time>2010-02-28T11:09:31.90</time>
<name>3203</name>
</trkpt>
<trkpt lat="48.940650" lon="8.689227">
<ele>393.0</ele>
<speed>5.7</speed>
<course>180.0</course>
<desc>Speed 5.7 km/h Distance 4.63 km</desc>
<time>2010-02-28T11:09:32.90</time>
<name>3204</name>
</trkpt>
<trkpt lat="48.940635" lon="8.689227">
<ele>393.0</ele>
<speed>6.0</speed>
<course>180.0</course>
<desc>Speed 6.0 km/h Distance 4.63 km</desc>
<time>2010-02-28T11:09:33.90</time>
<name>3205</name>
</trkpt>
<trkpt lat="48.940618" lon="8.689227">
<ele>393.0</ele>
<speed>6.0</speed>
<course>189.0</course>
<desc>Speed 6.0 km/h Distance 4.63 km</desc>
<time>2010-02-28T11:09:34.90</time>
<name>3206</name>
</trkpt>
<trkpt lat="48.940605" lon="8.689223">
<ele>393.0</ele>
<speed>5.3</speed>
<course>193.5</course>
<desc>Speed 5.3 km/h Distance 4.63 km</desc>
<time>2010-02-28T11:09:35.90</time>
<name>3207</name>
</trkpt>
<trkpt lat="48.940592" lon="8.689218">
<ele>393.0</ele>
<speed>5.8</speed>
<course>194.9</course>
<desc>Speed 5.8 km/h Distance 4.63 km</desc>
<time>2010-02-28T11:09:36.90</time>
<name>3208</name>
</trkpt>
<trkpt lat="48.940575" lon="8.689212">
<ele>392.5</ele>
<speed>6.2</speed>
<course>196.6</course>
<desc>Speed 6.2 km/h Distance 4.64 km</desc>
<time>2010-02-28T11:09:37.90</time>
<name>3209</name>
</trkpt>
<trkpt lat="48.940560" lon="8.689205">
<ele>392.0</ele>
<speed>6.0</speed>
<course>190.8</course>
<desc>Speed 6.0 km/h Distance 4.64 km</desc>
<time>2010-02-28T11:09:38.90</time>
<name>3210</name>
</trkpt>
<trkpt lat="48.940543" lon="8.689200">
<ele>391.0</ele>
<speed>5.9</speed>
<course>196.3</course>
<desc>Speed 5.9 km/h Distance 4.64 km</desc>
<time>2010-02-28T11:09:39.90</time>
<name>3211</name>
</trkpt>
<trkpt lat="48.940528" lon="8.689193">
<ele>391.0</ele>
<speed>5.7</speed>
<course>189.7</course>
<desc>Speed 5.7 km/h Distance 4.64 km</desc>
<time>2010-02-28T11:09:40.90</time>
<name>3212</name>
</trkpt>
<trkpt lat="48.940515" lon="8.689190">
<ele>390.5</ele>
<speed>5.8</speed>
<course>199.9</course>
<desc>Speed 5.8 km/h Distance 4.64 km</desc>
<time>2010-02-28T11:09:41.90</time>
<name>3213</name>
</trkpt>
<trkpt lat="48.940500" lon="8.689182">
<ele>390.5</ele>
<speed>6.1</speed>
<course>196.6</course>
<desc>Speed 6.1 km/h Distance 4.64 km</desc>
<time>2010-02-28T11:09:42.90</time>
<name>3214</name>
</trkpt>
<trkpt lat="48.940485" lon="8.689175">
<ele>390.0</ele>
<speed>5.9</speed>
<course>196.6</course>
<desc>Speed 5.9 km/h Distance 4.65 km</desc>
<time>2010-02-28T11:09:43.90</time>
<name>3215</name>
</trkpt>
<trkpt lat="48.940470" lon="8.689168">
<ele>390.0</ele>
<speed>5.8</speed>
<course>192.6</course>
<desc>Speed 5.8 km/h Distance 4.65 km</desc>
<time>2010-02-28T11:09:44.90</time>
<name>3216</name>
</trkpt>
<trkpt lat="48.940455" lon="8.689163">
<ele>389.5</ele>
<speed>5.8</speed>
<course>196.6</course>
<desc>Speed 5.8 km/h Distance 4.65 km</desc>
<time>2010-02-28T11:09:45.90</time>
<name>3217</name>
</trkpt>
<trkpt lat="48.940440" lon="8.689157">
<ele>389.0</ele>
<speed>5.9</speed>
<course>192.6</course>
<desc>Speed 5.9 km/h Distance 4.65 km</desc>
<time>2010-02-28T11:09:46.90</time>
<name>3218</name>
</trkpt>
<trkpt lat="48.940425" lon="8.689152">
<ele>388.5</ele>
<speed>5.8</speed>
<course>203.7</course>
<desc>Speed 5.8 km/h Distance 4.65 km</desc>
<time>2010-02-28T11:09:47.90</time>
<name>3219</name>
</trkpt>
<trkpt lat="48.940410" lon="8.689142">
<ele>388.5</ele>
<speed>6.0</speed>
<course>191.7</course>
<desc>Speed 6.0 km/h Distance 4.66 km</desc>
<time>2010-02-28T11:09:48.90</time>
<name>3220</name>
</trkpt>
<trkpt lat="48.940395" lon="8.689137">
<ele>388.5</ele>
<speed>5.7</speed>
<course>191.7</course>
<desc>Speed 5.7 km/h Distance 4.66 km</desc>
<time>2010-02-28T11:09:49.90</time>
<name>3221</name>
</trkpt>
<trkpt lat="48.940380" lon="8.689132">
<ele>388.0</ele>
<speed>6.0</speed>
<course>192.2</course>
<desc>Speed 6.0 km/h Distance 4.66 km</desc>
<time>2010-02-28T11:09:50.90</time>
<name>3222</name>
</trkpt>
<trkpt lat="48.940365" lon="8.689127">
<ele>388.0</ele>
<speed>5.8</speed>
<course>196.3</course>
<desc>Speed 5.8 km/h Distance 4.66 km</desc>
<time>2010-02-28T11:09:51.90</time>
<name>3223</name>
</trkpt>
<trkpt lat="48.940350" lon="8.689120">
<ele>388.0</ele>
<speed>5.9</speed>
<course>202.1</course>
<desc>Speed 5.9 km/h Distance 4.66 km</desc>
<time>2010-02-28T11:09:52.90</time>
<name>3224</name>
</trkpt>
<trkpt lat="48.940337" lon="8.689112">
<ele>387.5</ele>
<speed>5.7</speed>
<course>202.1</course>
<desc>Speed 5.7 km/h Distance 4.66 km</desc>
<time>2010-02-28T11:09:53.90</time>
<name>3225</name>
</trkpt>
<trkpt lat="48.940323" lon="8.689103">
<ele>387.5</ele>
<speed>5.9</speed>
<course>196.0</course>
<desc>Speed 5.9 km/h Distance 4.67 km</desc>
<time>2010-02-28T11:09:54.90</time>
<name>3226</name>
</trkpt>
<trkpt lat="48.940308" lon="8.689097">
<ele>387.0</ele>
<speed>5.8</speed>
<course>198.1</course>
<desc>Speed 5.8 km/h Distance 4.67 km</desc>
<time>2010-02-28T11:09:55.90</time>
<name>3227</name>
</trkpt>
<trkpt lat="48.940295" lon="8.689090">
<ele>387.0</ele>
<speed>5.8</speed>
<course>202.3</course>
<desc>Speed 5.8 km/h Distance 4.67 km</desc>
<time>2010-02-28T11:09:56.90</time>
<name>3228</name>
</trkpt>
<trkpt lat="48.940282" lon="8.689082">
<ele>387.0</ele>
<speed>5.8</speed>
<course>192.6</course>
<desc>Speed 5.8 km/h Distance 4.67 km</desc>
<time>2010-02-28T11:09:57.90</time>
<name>3229</name>
</trkpt>
<trkpt lat="48.940267" lon="8.689077">
<ele>386.5</ele>
<speed>5.6</speed>
<course>198.1</course>
<desc>Speed 5.6 km/h Distance 4.67 km</desc>
<time>2010-02-28T11:09:58.90</time>
<name>3230</name>
</trkpt>
<trkpt lat="48.940253" lon="8.689070">
<ele>386.5</ele>
<speed>5.9</speed>
<course>192.6</course>
<desc>Speed 5.9 km/h Distance 4.67 km</desc>
<time>2010-02-28T11:09:59.90</time>
<name>3231</name>
</trkpt>
<trkpt lat="48.940238" lon="8.689065">
<ele>386.0</ele>
<speed>5.9</speed>
<course>196.6</course>
<desc>Speed 5.9 km/h Distance 4.68 km</desc>
<time>2010-02-28T11:10:00.90</time>
<name>3232</name>
</trkpt>
<trkpt lat="48.940223" lon="8.689058">
<ele>386.0</ele>
<speed>5.9</speed>
<course>202.6</course>
<desc>Speed 5.9 km/h Distance 4.68 km</desc>
<time>2010-02-28T11:10:01.90</time>
<name>3233</name>
</trkpt>
<trkpt lat="48.940210" lon="8.689050">
<ele>386.0</ele>
<speed>5.8</speed>
<course>194.0</course>
<desc>Speed 5.8 km/h Distance 4.68 km</desc>
<time>2010-02-28T11:10:02.90</time>
<name>3234</name>
</trkpt>
<trkpt lat="48.940197" lon="8.689045">
<ele>386.0</ele>
<speed>5.8</speed>
<course>196.6</course>
<desc>Speed 5.8 km/h Distance 4.68 km</desc>
<time>2010-02-28T11:10:03.90</time>
<name>3235</name>
</trkpt>
<trkpt lat="48.940182" lon="8.689038">
<ele>385.5</ele>
<speed>5.9</speed>
<course>194.0</course>
<desc>Speed 5.9 km/h Distance 4.68 km</desc>
<time>2010-02-28T11:10:04.90</time>
<name>3236</name>
</trkpt>
<trkpt lat="48.940168" lon="8.689033">
<ele>385.5</ele>
<speed>5.8</speed>
<course>193.5</course>
<desc>Speed 5.8 km/h Distance 4.68 km</desc>
<time>2010-02-28T11:10:05.90</time>
<name>3237</name>
</trkpt>
<trkpt lat="48.940155" lon="8.689028">
<ele>385.5</ele>
<speed>5.8</speed>
<course>196.6</course>
<desc>Speed 5.8 km/h Distance 4.68 km</desc>
<time>2010-02-28T11:10:06.90</time>
<name>3238</name>
</trkpt>
<trkpt lat="48.940140" lon="8.689022">
<ele>385.5</ele>
<speed>5.9</speed>
<course>202.6</course>
<desc>Speed 5.9 km/h Distance 4.69 km</desc>
<time>2010-02-28T11:10:07.90</time>
<name>3239</name>
</trkpt>
<trkpt lat="48.940127" lon="8.689013">
<ele>385.5</ele>
<speed>5.8</speed>
<course>202.3</course>
<desc>Speed 5.8 km/h Distance 4.69 km</desc>
<time>2010-02-28T11:10:08.90</time>
<name>3240</name>
</trkpt>
<trkpt lat="48.940113" lon="8.689005">
<ele>385.0</ele>
<speed>5.7</speed>
<course>193.5</course>
<desc>Speed 5.7 km/h Distance 4.69 km</desc>
<time>2010-02-28T11:10:09.90</time>
<name>3241</name>
</trkpt>
<trkpt lat="48.940100" lon="8.689000">
<ele>385.0</ele>
<speed>5.8</speed>
<course>200.1</course>
<desc>Speed 5.8 km/h Distance 4.69 km</desc>
<time>2010-02-28T11:10:10.90</time>
<name>3242</name>
</trkpt>
<trkpt lat="48.940085" lon="8.688992">
<ele>385.0</ele>
<speed>5.8</speed>
<course>205.2</course>
<desc>Speed 5.8 km/h Distance 4.69 km</desc>
<time>2010-02-28T11:10:11.90</time>
<name>3243</name>
</trkpt>
<trkpt lat="48.940073" lon="8.688983">
<ele>385.0</ele>
<speed>5.6</speed>
<course>198.8</course>
<desc>Speed 5.6 km/h Distance 4.69 km</desc>
<time>2010-02-28T11:10:12.90</time>
<name>3244</name>
</trkpt>
<trkpt lat="48.940060" lon="8.688977">
<ele>384.5</ele>
<speed>5.3</speed>
<course>198.2</course>
<desc>Speed 5.3 km/h Distance 4.70 km</desc>
<time>2010-02-28T11:10:13.90</time>
<name>3245</name>
</trkpt>
<trkpt lat="48.940050" lon="8.688972">
<ele>384.5</ele>
<speed>4.5</speed>
<course>178.8</course>
<desc>Speed 4.5 km/h Distance 4.70 km</desc>
<time>2010-02-28T11:10:14.90</time>
<name>3246</name>
</trkpt>
<trkpt lat="48.940043" lon="8.688972">
<ele>384.5</ele>
<speed>3.0</speed>
<course>192.6</course>
<desc>Speed 3.0 km/h Distance 4.70 km</desc>
<time>2010-02-28T11:10:15.90</time>
<name>3247</name>
</trkpt>
<trkpt lat="48.940038" lon="8.688970">
<ele>384.5</ele>
<speed>1.7</speed>
<course>192.6</course>
<desc>Speed 1.7 km/h Distance 4.70 km</desc>
<time>2010-02-28T11:10:16.90</time>
<name>3248</name>
</trkpt>
<trkpt lat="48.940038" lon="8.688968">
<ele>384.5</ele>
<speed>0.6</speed>
<course>192.6</course>
<desc>Speed 0.6 km/h Distance 4.70 km</desc>
<time>2010-02-28T11:10:17.90</time>
<name>3249</name>
</trkpt>
<trkpt lat="48.940038" lon="8.688968">
<ele>384.5</ele>
<speed>0.3</speed>
<course>192.6</course>
<desc>Speed 0.3 km/h Distance 4.70 km</desc>
<time>2010-02-28T11:10:18.90</time>
<name>3250</name>
</trkpt>
<trkpt lat="48.940038" lon="8.688968">
<ele>384.5</ele>
<speed>0.3</speed>
<course>192.6</course>
<desc>Speed 0.3 km/h Distance 4.70 km</desc>
<time>2010-02-28T11:10:19.90</time>
<name>3251</name>
</trkpt>
<trkpt lat="48.940038" lon="8.688968">
<ele>384.5</ele>
<speed>0.4</speed>
<course>192.6</course>
<desc>Speed 0.4 km/h Distance 4.70 km</desc>
<time>2010-02-28T11:10:20.90</time>
<name>3252</name>
</trkpt>
<trkpt lat="48.940038" lon="8.688968">
<ele>384.5</ele>
<speed>0.5</speed>
<course>192.6</course>
<desc>Speed 0.5 km/h Distance 4.70 km</desc>
<time>2010-02-28T11:10:21.90</time>
<name>3253</name>
</trkpt>
<trkpt lat="48.940038" lon="8.688968">
<ele>384.5</ele>
<speed>0.3</speed>
<course>192.6</course>
<desc>Speed 0.3 km/h Distance 4.70 km</desc>
<time>2010-02-28T11:10:22.90</time>
<name>3254</name>
</trkpt>
<trkpt lat="48.940038" lon="8.688968">
<ele>384.5</ele>
<speed>0.2</speed>
<course>192.6</course>
<desc>Speed 0.2 km/h Distance 4.70 km</desc>
<time>2010-02-28T11:10:23.90</time>
<name>3255</name>
</trkpt>
<trkpt lat="48.940038" lon="8.688968">
<ele>384.5</ele>
<speed>0.0</speed>
<course>0.0</course>
<desc>Speed 0.0 km/h Distance 4.70 km</desc>
<time>2010-02-28T11:10:24.90</time>
<name>3256</name>
</trkpt>
<trkpt lat="48.940040" lon="8.688968">
<ele>384.5</ele>
<speed>0.2</speed>
<course>0.0</course>
<desc>Speed 0.2 km/h Distance 4.70 km</desc>
<time>2010-02-28T11:10:25.90</time>
<name>3257</name>
</trkpt>
<trkpt lat="48.940040" lon="8.688968">
<ele>384.5</ele>
<speed>0.1</speed>
<course>0.0</course>
<desc>Speed 0.1 km/h Distance 4.70 km</desc>
<time>2010-02-28T11:10:26.90</time>
<name>3258</name>
</trkpt>
<trkpt lat="48.940040" lon="8.688968">
<ele>384.5</ele>
<speed>0.2</speed>
<course>0.0</course>
<desc>Speed 0.2 km/h Distance 4.70 km</desc>
<time>2010-02-28T11:10:27.90</time>
<name>3259</name>
</trkpt>
<trkpt lat="48.940040" lon="8.688968">
<ele>384.5</ele>
<speed>0.2</speed>
<course>0.0</course>
<desc>Speed 0.2 km/h Distance 4.70 km</desc>
<time>2010-02-28T11:10:28.90</time>
<name>3260</name>
</trkpt>
<trkpt lat="48.940040" lon="8.688968">
<ele>384.5</ele>
<speed>0.1</speed>
<course>0.0</course>
<desc>Speed 0.1 km/h Distance 4.70 km</desc>
<time>2010-02-28T11:10:29.90</time>
<name>3261</name>
</trkpt>
<trkpt lat="48.940040" lon="8.688968">
<ele>384.5</ele>
<speed>0.3</speed>
<course>0.0</course>
<desc>Speed 0.3 km/h Distance 4.70 km</desc>
<time>2010-02-28T11:10:30.90</time>
<name>3262</name>
</trkpt>
<trkpt lat="48.940040" lon="8.688967">
<ele>384.5</ele>
<speed>0.1</speed>
<course>0.0</course>
<desc>Speed 0.1 km/h Distance 4.70 km</desc>
<time>2010-02-28T11:10:31.90</time>
<name>3263</name>
</trkpt>
<trkpt lat="48.940040" lon="8.688967">
<ele>384.5</ele>
<speed>0.1</speed>
<course>0.0</course>
<desc>Speed 0.1 km/h Distance 4.70 km</desc>
<time>2010-02-28T11:10:32.90</time>
<name>3264</name>
</trkpt>
<trkpt lat="48.940040" lon="8.688967">
<ele>384.5</ele>
<speed>0.1</speed>
<course>0.0</course>
<desc>Speed 0.1 km/h Distance 4.70 km</desc>
<time>2010-02-28T11:10:33.90</time>
<name>3265</name>
</trkpt>
<trkpt lat="48.940040" lon="8.688967">
<ele>384.5</ele>
<speed>0.1</speed>
<course>0.0</course>
<desc>Speed 0.1 km/h Distance 4.70 km</desc>
<time>2010-02-28T11:10:34.90</time>
<name>3266</name>
</trkpt>
<trkpt lat="48.940040" lon="8.688967">
<ele>384.5</ele>
<speed>0.1</speed>
<course>0.0</course>
<desc>Speed 0.1 km/h Distance 4.70 km</desc>
<time>2010-02-28T11:10:35.90</time>
<name>3267</name>
</trkpt>
<trkpt lat="48.940040" lon="8.688967">
<ele>384.5</ele>
<speed>0.2</speed>
<course>0.0</course>
<desc>Speed 0.2 km/h Distance 4.70 km</desc>
<time>2010-02-28T11:10:36.90</time>
<name>3268</name>
</trkpt>
<trkpt lat="48.940040" lon="8.688967">
<ele>384.5</ele>
<speed>0.2</speed>
<course>0.0</course>
<desc>Speed 0.2 km/h Distance 4.70 km</desc>
<time>2010-02-28T11:10:37.90</time>
<name>3269</name>
</trkpt>
<trkpt lat="48.940040" lon="8.688967">
<ele>384.5</ele>
<speed>0.2</speed>
<course>0.0</course>
<desc>Speed 0.2 km/h Distance 4.70 km</desc>
<time>2010-02-28T11:10:38.90</time>
<name>3270</name>
</trkpt>
<trkpt lat="48.940040" lon="8.688967">
<ele>384.5</ele>
<speed>0.1</speed>
<course>0.0</course>
<desc>Speed 0.1 km/h Distance 4.70 km</desc>
<time>2010-02-28T11:10:39.90</time>
<name>3271</name>
</trkpt>
<trkpt lat="48.940040" lon="8.688967">
<ele>384.5</ele>
<speed>0.2</speed>
<course>0.0</course>
<desc>Speed 0.2 km/h Distance 4.70 km</desc>
<time>2010-02-28T11:10:40.90</time>
<name>3272</name>
</trkpt>
<trkpt lat="48.940040" lon="8.688967">
<ele>384.5</ele>
<speed>0.2</speed>
<course>0.0</course>
<desc>Speed 0.2 km/h Distance 4.70 km</desc>
<time>2010-02-28T11:10:41.90</time>
<name>3273</name>
</trkpt>
<trkpt lat="48.940040" lon="8.688967">
<ele>384.5</ele>
<speed>0.1</speed>
<course>0.0</course>
<desc>Speed 0.1 km/h Distance 4.70 km</desc>
<time>2010-02-28T11:10:42.90</time>
<name>3274</name>
</trkpt>
<trkpt lat="48.940040" lon="8.688967">
<ele>384.5</ele>
<speed>0.1</speed>
<course>0.0</course>
<desc>Speed 0.1 km/h Distance 4.70 km</desc>
<time>2010-02-28T11:10:43.90</time>
<name>3275</name>
</trkpt>
<trkpt lat="48.940040" lon="8.688967">
<ele>384.5</ele>
<speed>0.1</speed>
<course>0.0</course>
<desc>Speed 0.1 km/h Distance 4.70 km</desc>
<time>2010-02-28T11:10:44.90</time>
<name>3276</name>
</trkpt>
<trkpt lat="48.940040" lon="8.688967">
<ele>384.5</ele>
<speed>0.2</speed>
<course>0.0</course>
<desc>Speed 0.2 km/h Distance 4.70 km</desc>
<time>2010-02-28T11:10:45.90</time>
<name>3277</name>
</trkpt>
<trkpt lat="48.940040" lon="8.688967">
<ele>384.5</ele>
<speed>0.3</speed>
<course>0.0</course>
<desc>Speed 0.3 km/h Distance 4.70 km</desc>
<time>2010-02-28T11:10:46.90</time>
<name>3278</name>
</trkpt>
<trkpt lat="48.940040" lon="8.688967">
<ele>384.5</ele>
<speed>0.4</speed>
<course>180.0</course>
<desc>Speed 0.4 km/h Distance 4.70 km</desc>
<time>2010-02-28T11:10:47.90</time>
<name>3279</name>
</trkpt>
<trkpt lat="48.940038" lon="8.688967">
<ele>385.0</ele>
<speed>0.9</speed>
<course>180.0</course>
<desc>Speed 0.9 km/h Distance 4.70 km</desc>
<time>2010-02-28T11:10:48.90</time>
<name>3280</name>
</trkpt>
<trkpt lat="48.940038" lon="8.688967">
<ele>385.0</ele>
<speed>0.3</speed>
<course>167.4</course>
<desc>Speed 0.3 km/h Distance 4.70 km</desc>
<time>2010-02-28T11:10:49.90</time>
<name>3281</name>
</trkpt>
<trkpt lat="48.940037" lon="8.688967">
<ele>384.5</ele>
<speed>0.1</speed>
<course>167.4</course>
<desc>Speed 0.1 km/h Distance 4.70 km</desc>
<time>2010-02-28T11:10:50.90</time>
<name>3282</name>
</trkpt>
<trkpt lat="48.940037" lon="8.688967">
<ele>384.5</ele>
<speed>0.2</speed>
<course>167.4</course>
<desc>Speed 0.2 km/h Distance 4.70 km</desc>
<time>2010-02-28T11:10:51.90</time>
<name>3283</name>
</trkpt>
<trkpt lat="48.940037" lon="8.688967">
<ele>384.5</ele>
<speed>0.4</speed>
<course>12.6</course>
<desc>Speed 0.4 km/h Distance 4.70 km</desc>
<time>2010-02-28T11:10:52.90</time>
<name>3284</name>
</trkpt>
<trkpt lat="48.940038" lon="8.688967">
<ele>384.5</ele>
<speed>0.3</speed>
<course>12.6</course>
<desc>Speed 0.3 km/h Distance 4.70 km</desc>
<time>2010-02-28T11:10:53.90</time>
<name>3285</name>
</trkpt>
<trkpt lat="48.940038" lon="8.688967">
<ele>384.5</ele>
<speed>0.1</speed>
<course>167.4</course>
<desc>Speed 0.1 km/h Distance 4.70 km</desc>
<time>2010-02-28T11:10:54.90</time>
<name>3286</name>
</trkpt>
<trkpt lat="48.940037" lon="8.688967">
<ele>384.5</ele>
<speed>0.2</speed>
<course>167.4</course>
<desc>Speed 0.2 km/h Distance 4.70 km</desc>
<time>2010-02-28T11:10:55.90</time>
<name>3287</name>
</trkpt>
<trkpt lat="48.940037" lon="8.688967">
<ele>384.5</ele>
<speed>0.1</speed>
<course>12.6</course>
<desc>Speed 0.1 km/h Distance 4.70 km</desc>
<time>2010-02-28T11:10:56.90</time>
<name>3288</name>
</trkpt>
<trkpt lat="48.940038" lon="8.688967">
<ele>384.5</ele>
<speed>0.1</speed>
<course>12.6</course>
<desc>Speed 0.1 km/h Distance 4.70 km</desc>
<time>2010-02-28T11:10:57.90</time>
<name>3289</name>
</trkpt>
<trkpt lat="48.940038" lon="8.688967">
<ele>384.5</ele>
<speed>0.2</speed>
<course>12.6</course>
<desc>Speed 0.2 km/h Distance 4.70 km</desc>
<time>2010-02-28T11:10:58.90</time>
<name>3290</name>
</trkpt>
<trkpt lat="48.940038" lon="8.688967">
<ele>384.0</ele>
<speed>0.1</speed>
<course>12.6</course>
<desc>Speed 0.1 km/h Distance 4.70 km</desc>
<time>2010-02-28T11:10:59.90</time>
<name>3291</name>
</trkpt>
<trkpt lat="48.940038" lon="8.688967">
<ele>384.0</ele>
<speed>0.3</speed>
<course>12.6</course>
<desc>Speed 0.3 km/h Distance 4.70 km</desc>
<time>2010-02-28T11:11:00.90</time>
<name>3292</name>
</trkpt>
<trkpt lat="48.940038" lon="8.688967">
<ele>384.0</ele>
<speed>0.2</speed>
<course>12.6</course>
<desc>Speed 0.2 km/h Distance 4.70 km</desc>
<time>2010-02-28T11:11:01.90</time>
<name>3293</name>
</trkpt>
<trkpt lat="48.940038" lon="8.688967">
<ele>384.0</ele>
<speed>0.2</speed>
<course>12.6</course>
<desc>Speed 0.2 km/h Distance 4.70 km</desc>
<time>2010-02-28T11:11:02.90</time>
<name>3294</name>
</trkpt>
<trkpt lat="48.940038" lon="8.688967">
<ele>384.0</ele>
<speed>0.2</speed>
<course>12.6</course>
<desc>Speed 0.2 km/h Distance 4.70 km</desc>
<time>2010-02-28T11:11:03.90</time>
<name>3295</name>
</trkpt>
<trkpt lat="48.940038" lon="8.688967">
<ele>384.0</ele>
<speed>0.2</speed>
<course>12.6</course>
<desc>Speed 0.2 km/h Distance 4.70 km</desc>
<time>2010-02-28T11:11:04.90</time>
<name>3296</name>
</trkpt>
<trkpt lat="48.940038" lon="8.688967">
<ele>384.0</ele>
<speed>0.2</speed>
<course>12.6</course>
<desc>Speed 0.2 km/h Distance 4.70 km</desc>
<time>2010-02-28T11:11:05.90</time>
<name>3297</name>
</trkpt>
<trkpt lat="48.940038" lon="8.688967">
<ele>384.0</ele>
<speed>0.2</speed>
<course>12.6</course>
<desc>Speed 0.2 km/h Distance 4.70 km</desc>
<time>2010-02-28T11:11:06.90</time>
<name>3298</name>
</trkpt>
<trkpt lat="48.940038" lon="8.688967">
<ele>384.0</ele>
<speed>0.1</speed>
<course>12.6</course>
<desc>Speed 0.1 km/h Distance 4.70 km</desc>
<time>2010-02-28T11:11:07.90</time>
<name>3299</name>
</trkpt>
<trkpt lat="48.940038" lon="8.688967">
<ele>384.0</ele>
<speed>0.2</speed>
<course>12.6</course>
<desc>Speed 0.2 km/h Distance 4.70 km</desc>
<time>2010-02-28T11:11:08.90</time>
<name>3300</name>
</trkpt>
<trkpt lat="48.940038" lon="8.688967">
<ele>384.0</ele>
<speed>0.2</speed>
<course>12.6</course>
<desc>Speed 0.2 km/h Distance 4.70 km</desc>
<time>2010-02-28T11:11:09.90</time>
<name>3301</name>
</trkpt>
<trkpt lat="48.940038" lon="8.688967">
<ele>384.0</ele>
<speed>0.3</speed>
<course>12.6</course>
<desc>Speed 0.3 km/h Distance 4.70 km</desc>
<time>2010-02-28T11:11:10.90</time>
<name>3302</name>
</trkpt>
<trkpt lat="48.940038" lon="8.688967">
<ele>384.0</ele>
<speed>0.1</speed>
<course>12.6</course>
<desc>Speed 0.1 km/h Distance 4.70 km</desc>
<time>2010-02-28T11:11:11.90</time>
<name>3303</name>
</trkpt>
<trkpt lat="48.940038" lon="8.688967">
<ele>384.0</ele>
<speed>0.1</speed>
<course>12.6</course>
<desc>Speed 0.1 km/h Distance 4.70 km</desc>
<time>2010-02-28T11:11:12.90</time>
<name>3304</name>
</trkpt>
<trkpt lat="48.940038" lon="8.688967">
<ele>384.0</ele>
<speed>0.3</speed>
<course>12.6</course>
<desc>Speed 0.3 km/h Distance 4.70 km</desc>
<time>2010-02-28T11:11:13.90</time>
<name>3305</name>
</trkpt>
<trkpt lat="48.940038" lon="8.688967">
<ele>384.0</ele>
<speed>0.1</speed>
<course>12.6</course>
<desc>Speed 0.1 km/h Distance 4.70 km</desc>
<time>2010-02-28T11:11:14.90</time>
<name>3306</name>
</trkpt>
<trkpt lat="48.940038" lon="8.688967">
<ele>384.0</ele>
<speed>0.1</speed>
<course>12.6</course>
<desc>Speed 0.1 km/h Distance 4.70 km</desc>
<time>2010-02-28T11:11:15.90</time>
<name>3307</name>
</trkpt>
<trkpt lat="48.940038" lon="8.688967">
<ele>384.0</ele>
<speed>0.2</speed>
<course>12.6</course>
<desc>Speed 0.2 km/h Distance 4.70 km</desc>
<time>2010-02-28T11:11:16.90</time>
<name>3308</name>
</trkpt>
<trkpt lat="48.940038" lon="8.688967">
<ele>384.0</ele>
<speed>0.3</speed>
<course>12.6</course>
<desc>Speed 0.3 km/h Distance 4.70 km</desc>
<time>2010-02-28T11:11:17.90</time>
<name>3309</name>
</trkpt>
<trkpt lat="48.940038" lon="8.688967">
<ele>384.0</ele>
<speed>0.1</speed>
<course>12.6</course>
<desc>Speed 0.1 km/h Distance 4.70 km</desc>
<time>2010-02-28T11:11:18.90</time>
<name>3310</name>
</trkpt>
<trkpt lat="48.940038" lon="8.688967">
<ele>384.0</ele>
<speed>0.1</speed>
<course>12.6</course>
<desc>Speed 0.1 km/h Distance 4.70 km</desc>
<time>2010-02-28T11:11:19.90</time>
<name>3311</name>
</trkpt>
<trkpt lat="48.940038" lon="8.688967">
<ele>384.0</ele>
<speed>0.2</speed>
<course>12.6</course>
<desc>Speed 0.2 km/h Distance 4.70 km</desc>
<time>2010-02-28T11:11:20.90</time>
<name>3312</name>
</trkpt>
<trkpt lat="48.940038" lon="8.688967">
<ele>384.0</ele>
<speed>0.3</speed>
<course>12.6</course>
<desc>Speed 0.3 km/h Distance 4.70 km</desc>
<time>2010-02-28T11:11:21.90</time>
<name>3313</name>
</trkpt>
<trkpt lat="48.940038" lon="8.688967">
<ele>384.0</ele>
<speed>0.2</speed>
<course>12.6</course>
<desc>Speed 0.2 km/h Distance 4.70 km</desc>
<time>2010-02-28T11:11:22.90</time>
<name>3314</name>
</trkpt>
<trkpt lat="48.940038" lon="8.688967">
<ele>384.0</ele>
<speed>0.1</speed>
<course>150.8</course>
<desc>Speed 0.1 km/h Distance 4.70 km</desc>
<time>2010-02-28T11:11:23.90</time>
<name>3315</name>
</trkpt>
<trkpt lat="48.940037" lon="8.688968">
<ele>384.0</ele>
<speed>0.9</speed>
<course>90.0</course>
<desc>Speed 0.9 km/h Distance 4.70 km</desc>
<time>2010-02-28T11:11:24.90</time>
<name>3316</name>
</trkpt>
<trkpt lat="48.940037" lon="8.688972">
<ele>384.0</ele>
<speed>1.2</speed>
<course>224.5</course>
<desc>Speed 1.2 km/h Distance 4.70 km</desc>
<time>2010-02-28T11:11:25.90</time>
<name>3317</name>
</trkpt>
<trkpt lat="48.940033" lon="8.688967">
<ele>384.0</ele>
<speed>2.2</speed>
<course>207.9</course>
<desc>Speed 2.2 km/h Distance 4.70 km</desc>
<time>2010-02-28T11:11:26.90</time>
<name>3318</name>
</trkpt>
<trkpt lat="48.940025" lon="8.688960">
<ele>384.0</ele>
<speed>3.9</speed>
<course>172.6</course>
<desc>Speed 3.9 km/h Distance 4.70 km</desc>
<time>2010-02-28T11:11:27.90</time>
<name>3319</name>
</trkpt>
<trkpt lat="48.940018" lon="8.688960">
<ele>384.0</ele>
<speed>3.4</speed>
<course>196.0</course>
<desc>Speed 3.4 km/h Distance 4.70 km</desc>
<time>2010-02-28T11:11:28.90</time>
<name>3320</name>
</trkpt>
<trkpt lat="48.940007" lon="8.688955">
<ele>384.0</ele>
<speed>5.1</speed>
<course>204.9</course>
<desc>Speed 5.1 km/h Distance 4.70 km</desc>
<time>2010-02-28T11:11:29.90</time>
<name>3321</name>
</trkpt>
<trkpt lat="48.939995" lon="8.688947">
<ele>384.0</ele>
<speed>5.6</speed>
<course>193.5</course>
<desc>Speed 5.6 km/h Distance 4.71 km</desc>
<time>2010-02-28T11:11:30.90</time>
<name>3322</name>
</trkpt>
<trkpt lat="48.939982" lon="8.688942">
<ele>384.0</ele>
<speed>5.5</speed>
<course>205.2</course>
<desc>Speed 5.5 km/h Distance 4.71 km</desc>
<time>2010-02-28T11:11:31.90</time>
<name>3323</name>
</trkpt>
<trkpt lat="48.939970" lon="8.688933">
<ele>384.0</ele>
<speed>5.5</speed>
<course>198.1</course>
<desc>Speed 5.5 km/h Distance 4.71 km</desc>
<time>2010-02-28T11:11:32.90</time>
<name>3324</name>
</trkpt>
<trkpt lat="48.939957" lon="8.688927">
<ele>383.5</ele>
<speed>5.6</speed>
<course>198.1</course>
<desc>Speed 5.6 km/h Distance 4.71 km</desc>
<time>2010-02-28T11:11:33.90</time>
<name>3325</name>
</trkpt>
<trkpt lat="48.939943" lon="8.688920">
<ele>383.5</ele>
<speed>5.8</speed>
<course>188.8</course>
<desc>Speed 5.8 km/h Distance 4.71 km</desc>
<time>2010-02-28T11:11:34.90</time>
<name>3326</name>
</trkpt>
<trkpt lat="48.939928" lon="8.688917">
<ele>384.0</ele>
<speed>6.0</speed>
<course>192.2</course>
<desc>Speed 6.0 km/h Distance 4.71 km</desc>
<time>2010-02-28T11:11:35.90</time>
<name>3327</name>
</trkpt>
<trkpt lat="48.939913" lon="8.688912">
<ele>384.0</ele>
<speed>5.9</speed>
<course>198.1</course>
<desc>Speed 5.9 km/h Distance 4.71 km</desc>
<time>2010-02-28T11:11:36.90</time>
<name>3328</name>
</trkpt>
<trkpt lat="48.939900" lon="8.688905">
<ele>384.0</ele>
<speed>5.9</speed>
<course>193.5</course>
<desc>Speed 5.9 km/h Distance 4.72 km</desc>
<time>2010-02-28T11:11:37.90</time>
<name>3329</name>
</trkpt>
<trkpt lat="48.939887" lon="8.688900">
<ele>384.0</ele>
<speed>5.8</speed>
<course>200.1</course>
<desc>Speed 5.8 km/h Distance 4.72 km</desc>
<time>2010-02-28T11:11:38.90</time>
<name>3330</name>
</trkpt>
<trkpt lat="48.939872" lon="8.688892">
<ele>384.0</ele>
<speed>5.8</speed>
<course>199.9</course>
<desc>Speed 5.8 km/h Distance 4.72 km</desc>
<time>2010-02-28T11:11:39.90</time>
<name>3331</name>
</trkpt>
<trkpt lat="48.939857" lon="8.688883">
<ele>384.0</ele>
<speed>6.0</speed>
<course>202.1</course>
<desc>Speed 6.0 km/h Distance 4.72 km</desc>
<time>2010-02-28T11:11:40.90</time>
<name>3332</name>
</trkpt>
<trkpt lat="48.939843" lon="8.688875">
<ele>384.0</ele>
<speed>5.9</speed>
<course>198.1</course>
<desc>Speed 5.9 km/h Distance 4.72 km</desc>
<time>2010-02-28T11:11:41.90</time>
<name>3333</name>
</trkpt>
<trkpt lat="48.939830" lon="8.688868">
<ele>384.0</ele>
<speed>5.8</speed>
<course>191.2</course>
<desc>Speed 5.8 km/h Distance 4.72 km</desc>
<time>2010-02-28T11:11:42.90</time>
<name>3334</name>
</trkpt>
<trkpt lat="48.939813" lon="8.688863">
<ele>384.0</ele>
<speed>5.9</speed>
<course>202.1</course>
<desc>Speed 5.9 km/h Distance 4.73 km</desc>
<time>2010-02-28T11:11:43.90</time>
<name>3335</name>
</trkpt>
<trkpt lat="48.939800" lon="8.688855">
<ele>383.5</ele>
<speed>6.1</speed>
<course>200.1</course>
<desc>Speed 6.1 km/h Distance 4.73 km</desc>
<time>2010-02-28T11:11:44.90</time>
<name>3336</name>
</trkpt>
<trkpt lat="48.939785" lon="8.688847">
<ele>383.5</ele>
<speed>5.9</speed>
<course>206.4</course>
<desc>Speed 5.9 km/h Distance 4.73 km</desc>
<time>2010-02-28T11:11:45.90</time>
<name>3337</name>
</trkpt>
<trkpt lat="48.939772" lon="8.688837">
<ele>383.0</ele>
<speed>5.9</speed>
<course>203.7</course>
<desc>Speed 5.9 km/h Distance 4.73 km</desc>
<time>2010-02-28T11:11:46.90</time>
<name>3338</name>
</trkpt>
<trkpt lat="48.939757" lon="8.688827">
<ele>383.0</ele>
<speed>6.1</speed>
<course>209.8</course>
<desc>Speed 6.1 km/h Distance 4.73 km</desc>
<time>2010-02-28T11:11:47.90</time>
<name>3339</name>
</trkpt>
<trkpt lat="48.939743" lon="8.688815">
<ele>383.0</ele>
<speed>6.0</speed>
<course>206.4</course>
<desc>Speed 6.0 km/h Distance 4.74 km</desc>
<time>2010-02-28T11:11:48.90</time>
<name>3340</name>
</trkpt>
<trkpt lat="48.939730" lon="8.688805">
<ele>382.5</ele>
<speed>6.2</speed>
<course>210.0</course>
<desc>Speed 6.2 km/h Distance 4.74 km</desc>
<time>2010-02-28T11:11:49.90</time>
<name>3341</name>
</trkpt>
<trkpt lat="48.939717" lon="8.688793">
<ele>382.5</ele>
<speed>5.9</speed>
<course>206.2</course>
<desc>Speed 5.9 km/h Distance 4.74 km</desc>
<time>2010-02-28T11:11:50.90</time>
<name>3342</name>
</trkpt>
<trkpt lat="48.939703" lon="8.688783">
<ele>382.5</ele>
<speed>5.9</speed>
<course>193.5</course>
<desc>Speed 5.9 km/h Distance 4.74 km</desc>
<time>2010-02-28T11:11:51.90</time>
<name>3343</name>
</trkpt>
<trkpt lat="48.939690" lon="8.688778">
<ele>382.5</ele>
<speed>5.9</speed>
<course>198.1</course>
<desc>Speed 5.9 km/h Distance 4.74 km</desc>
<time>2010-02-28T11:11:52.90</time>
<name>3344</name>
</trkpt>
<trkpt lat="48.939677" lon="8.688772">
<ele>382.0</ele>
<speed>5.9</speed>
<course>196.6</course>
<desc>Speed 5.9 km/h Distance 4.74 km</desc>
<time>2010-02-28T11:11:53.90</time>
<name>3345</name>
</trkpt>
<trkpt lat="48.939662" lon="8.688765">
<ele>382.0</ele>
<speed>6.0</speed>
<course>206.4</course>
<desc>Speed 6.0 km/h Distance 4.74 km</desc>
<time>2010-02-28T11:11:54.90</time>
<name>3346</name>
</trkpt>
<trkpt lat="48.939648" lon="8.688755">
<ele>382.0</ele>
<speed>6.1</speed>
<course>198.1</course>
<desc>Speed 6.1 km/h Distance 4.75 km</desc>
<time>2010-02-28T11:11:55.90</time>
<name>3347</name>
</trkpt>
<trkpt lat="48.939635" lon="8.688748">
<ele>382.0</ele>
<speed>5.8</speed>
<course>196.6</course>
<desc>Speed 5.8 km/h Distance 4.75 km</desc>
<time>2010-02-28T11:11:56.90</time>
<name>3348</name>
</trkpt>
<trkpt lat="48.939620" lon="8.688742">
<ele>381.5</ele>
<speed>6.0</speed>
<course>202.6</course>
<desc>Speed 6.0 km/h Distance 4.75 km</desc>
<time>2010-02-28T11:11:57.90</time>
<name>3349</name>
</trkpt>
<trkpt lat="48.939607" lon="8.688733">
<ele>381.5</ele>
<speed>5.9</speed>
<course>196.6</course>
<desc>Speed 5.9 km/h Distance 4.75 km</desc>
<time>2010-02-28T11:11:58.90</time>
<name>3350</name>
</trkpt>
<trkpt lat="48.939592" lon="8.688727">
<ele>381.5</ele>
<speed>6.2</speed>
<course>202.6</course>
<desc>Speed 6.2 km/h Distance 4.75 km</desc>
<time>2010-02-28T11:11:59.90</time>
<name>3351</name>
</trkpt>
<trkpt lat="48.939578" lon="8.688718">
<ele>381.5</ele>
<speed>6.0</speed>
<course>200.1</course>
<desc>Speed 6.0 km/h Distance 4.75 km</desc>
<time>2010-02-28T11:12:00.90</time>
<name>3352</name>
</trkpt>
<trkpt lat="48.939563" lon="8.688710">
<ele>381.5</ele>
<speed>6.0</speed>
<course>202.1</course>
<desc>Speed 6.0 km/h Distance 4.76 km</desc>
<time>2010-02-28T11:12:01.90</time>
<name>3353</name>
</trkpt>
<trkpt lat="48.939550" lon="8.688702">
<ele>381.5</ele>
<speed>5.9</speed>
<course>196.3</course>
<desc>Speed 5.9 km/h Distance 4.76 km</desc>
<time>2010-02-28T11:12:02.90</time>
<name>3354</name>
</trkpt>
<trkpt lat="48.939535" lon="8.688695">
<ele>381.5</ele>
<speed>6.0</speed>
<course>189.0</course>
<desc>Speed 6.0 km/h Distance 4.76 km</desc>
<time>2010-02-28T11:12:03.90</time>
<name>3355</name>
</trkpt>
<trkpt lat="48.939522" lon="8.688692">
<ele>381.5</ele>
<speed>5.6</speed>
<course>198.1</course>
<desc>Speed 5.6 km/h Distance 4.76 km</desc>
<time>2010-02-28T11:12:04.90</time>
<name>3356</name>
</trkpt>
<trkpt lat="48.939508" lon="8.688685">
<ele>381.5</ele>
<speed>6.0</speed>
<course>196.3</course>
<desc>Speed 6.0 km/h Distance 4.76 km</desc>
<time>2010-02-28T11:12:05.90</time>
<name>3357</name>
</trkpt>
<trkpt lat="48.939493" lon="8.688678">
<ele>381.5</ele>
<speed>6.3</speed>
<course>202.6</course>
<desc>Speed 6.3 km/h Distance 4.76 km</desc>
<time>2010-02-28T11:12:06.90</time>
<name>3358</name>
</trkpt>
<trkpt lat="48.939480" lon="8.688670">
<ele>381.5</ele>
<speed>6.0</speed>
<course>200.1</course>
<desc>Speed 6.0 km/h Distance 4.77 km</desc>
<time>2010-02-28T11:12:07.90</time>
<name>3359</name>
</trkpt>
<trkpt lat="48.939465" lon="8.688662">
<ele>381.5</ele>
<speed>6.1</speed>
<course>192.6</course>
<desc>Speed 6.1 km/h Distance 4.77 km</desc>
<time>2010-02-28T11:12:08.90</time>
<name>3360</name>
</trkpt>
<trkpt lat="48.939450" lon="8.688657">
<ele>381.5</ele>
<speed>6.3</speed>
<course>200.1</course>
<desc>Speed 6.3 km/h Distance 4.77 km</desc>
<time>2010-02-28T11:12:09.90</time>
<name>3361</name>
</trkpt>
<trkpt lat="48.939435" lon="8.688648">
<ele>381.5</ele>
<speed>6.1</speed>
<course>196.3</course>
<desc>Speed 6.1 km/h Distance 4.77 km</desc>
<time>2010-02-28T11:12:10.90</time>
<name>3362</name>
</trkpt>
<trkpt lat="48.939420" lon="8.688642">
<ele>381.0</ele>
<speed>6.2</speed>
<course>202.1</course>
<desc>Speed 6.2 km/h Distance 4.77 km</desc>
<time>2010-02-28T11:12:11.90</time>
<name>3363</name>
</trkpt>
<trkpt lat="48.939407" lon="8.688633">
<ele>381.0</ele>
<speed>6.4</speed>
<course>196.0</course>
<desc>Speed 6.4 km/h Distance 4.77 km</desc>
<time>2010-02-28T11:12:12.90</time>
<name>3364</name>
</trkpt>
<trkpt lat="48.939392" lon="8.688627">
<ele>381.0</ele>
<speed>6.3</speed>
<course>198.1</course>
<desc>Speed 6.3 km/h Distance 4.78 km</desc>
<time>2010-02-28T11:12:13.90</time>
<name>3365</name>
</trkpt>
<trkpt lat="48.939375" lon="8.688618">
<ele>381.0</ele>
<speed>6.4</speed>
<course>196.3</course>
<desc>Speed 6.4 km/h Distance 4.78 km</desc>
<time>2010-02-28T11:12:14.90</time>
<name>3366</name>
</trkpt>
<trkpt lat="48.939360" lon="8.688612">
<ele>380.5</ele>
<speed>6.3</speed>
<course>200.1</course>
<desc>Speed 6.3 km/h Distance 4.78 km</desc>
<time>2010-02-28T11:12:15.90</time>
<name>3367</name>
</trkpt>
<trkpt lat="48.939345" lon="8.688603">
<ele>380.5</ele>
<speed>6.3</speed>
<course>202.3</course>
<desc>Speed 6.3 km/h Distance 4.78 km</desc>
<time>2010-02-28T11:12:16.90</time>
<name>3368</name>
</trkpt>
<trkpt lat="48.939332" lon="8.688595">
<ele>380.5</ele>
<speed>6.2</speed>
<course>196.0</course>
<desc>Speed 6.2 km/h Distance 4.78 km</desc>
<time>2010-02-28T11:12:17.90</time>
<name>3369</name>
</trkpt>
<trkpt lat="48.939317" lon="8.688588">
<ele>380.5</ele>
<speed>6.2</speed>
<course>196.3</course>
<desc>Speed 6.2 km/h Distance 4.79 km</desc>
<time>2010-02-28T11:12:18.90</time>
<name>3370</name>
</trkpt>
<trkpt lat="48.939302" lon="8.688582">
<ele>380.5</ele>
<speed>5.9</speed>
<course>198.1</course>
<desc>Speed 5.9 km/h Distance 4.79 km</desc>
<time>2010-02-28T11:12:19.90</time>
<name>3371</name>
</trkpt>
<trkpt lat="48.939288" lon="8.688575">
<ele>380.5</ele>
<speed>6.3</speed>
<course>203.7</course>
<desc>Speed 6.3 km/h Distance 4.79 km</desc>
<time>2010-02-28T11:12:20.90</time>
<name>3372</name>
</trkpt>
<trkpt lat="48.939273" lon="8.688565">
<ele>380.5</ele>
<speed>6.1</speed>
<course>198.1</course>
<desc>Speed 6.1 km/h Distance 4.79 km</desc>
<time>2010-02-28T11:12:21.90</time>
<name>3373</name>
</trkpt>
<trkpt lat="48.939260" lon="8.688558">
<ele>380.5</ele>
<speed>5.9</speed>
<course>196.6</course>
<desc>Speed 5.9 km/h Distance 4.79 km</desc>
<time>2010-02-28T11:12:22.90</time>
<name>3374</name>
</trkpt>
<trkpt lat="48.939245" lon="8.688552">
<ele>380.5</ele>
<speed>6.1</speed>
<course>194.0</course>
<desc>Speed 6.1 km/h Distance 4.79 km</desc>
<time>2010-02-28T11:12:23.90</time>
<name>3375</name>
</trkpt>
<trkpt lat="48.939232" lon="8.688547">
<ele>380.5</ele>
<speed>6.0</speed>
<course>192.2</course>
<desc>Speed 6.0 km/h Distance 4.80 km</desc>
<time>2010-02-28T11:12:24.90</time>
<name>3376</name>
</trkpt>
<trkpt lat="48.939217" lon="8.688542">
<ele>380.5</ele>
<speed>5.9</speed>
<course>202.3</course>
<desc>Speed 5.9 km/h Distance 4.80 km</desc>
<time>2010-02-28T11:12:25.90</time>
<name>3377</name>
</trkpt>
<trkpt lat="48.939203" lon="8.688533">
<ele>380.5</ele>
<speed>6.2</speed>
<course>199.9</course>
<desc>Speed 6.2 km/h Distance 4.80 km</desc>
<time>2010-02-28T11:12:26.90</time>
<name>3378</name>
</trkpt>
<trkpt lat="48.939188" lon="8.688525">
<ele>380.5</ele>
<speed>6.3</speed>
<course>198.8</course>
<desc>Speed 6.3 km/h Distance 4.80 km</desc>
<time>2010-02-28T11:12:27.90</time>
<name>3379</name>
</trkpt>
<trkpt lat="48.939175" lon="8.688518">
<ele>380.5</ele>
<speed>6.0</speed>
<course>196.6</course>
<desc>Speed 6.0 km/h Distance 4.80 km</desc>
<time>2010-02-28T11:12:28.90</time>
<name>3380</name>
</trkpt>
<trkpt lat="48.939160" lon="8.688512">
<ele>380.5</ele>
<speed>6.2</speed>
<course>202.3</course>
<desc>Speed 6.2 km/h Distance 4.80 km</desc>
<time>2010-02-28T11:12:29.90</time>
<name>3381</name>
</trkpt>
<trkpt lat="48.939147" lon="8.688503">
<ele>380.5</ele>
<speed>6.2</speed>
<course>200.1</course>
<desc>Speed 6.2 km/h Distance 4.81 km</desc>
<time>2010-02-28T11:12:30.90</time>
<name>3382</name>
</trkpt>
<trkpt lat="48.939132" lon="8.688495">
<ele>380.5</ele>
<speed>6.3</speed>
<course>202.6</course>
<desc>Speed 6.3 km/h Distance 4.81 km</desc>
<time>2010-02-28T11:12:31.90</time>
<name>3383</name>
</trkpt>
<trkpt lat="48.939118" lon="8.688487">
<ele>380.5</ele>
<speed>6.2</speed>
<course>200.1</course>
<desc>Speed 6.2 km/h Distance 4.81 km</desc>
<time>2010-02-28T11:12:32.90</time>
<name>3384</name>
</trkpt>
<trkpt lat="48.939103" lon="8.688478">
<ele>380.5</ele>
<speed>6.2</speed>
<course>191.7</course>
<desc>Speed 6.2 km/h Distance 4.81 km</desc>
<time>2010-02-28T11:12:33.90</time>
<name>3385</name>
</trkpt>
<trkpt lat="48.939088" lon="8.688473">
<ele>380.5</ele>
<speed>6.2</speed>
<course>202.3</course>
<desc>Speed 6.2 km/h Distance 4.81 km</desc>
<time>2010-02-28T11:12:34.90</time>
<name>3386</name>
</trkpt>
<trkpt lat="48.939075" lon="8.688465">
<ele>380.5</ele>
<speed>6.0</speed>
<course>209.8</course>
<desc>Speed 6.0 km/h Distance 4.81 km</desc>
<time>2010-02-28T11:12:35.90</time>
<name>3387</name>
</trkpt>
<trkpt lat="48.939062" lon="8.688453">
<ele>380.5</ele>
<speed>6.2</speed>
<course>198.1</course>
<desc>Speed 6.2 km/h Distance 4.82 km</desc>
<time>2010-02-28T11:12:36.90</time>
<name>3388</name>
</trkpt>
<trkpt lat="48.939048" lon="8.688447">
<ele>380.5</ele>
<speed>5.5</speed>
<course>176.2</course>
<desc>Speed 5.5 km/h Distance 4.82 km</desc>
<time>2010-02-28T11:12:37.90</time>
<name>3389</name>
</trkpt>
<trkpt lat="48.939033" lon="8.688447">
<ele>380.0</ele>
<speed>5.9</speed>
<course>198.4</course>
<desc>Speed 5.9 km/h Distance 4.82 km</desc>
<time>2010-02-28T11:12:38.90</time>
<name>3390</name>
</trkpt>
<trkpt lat="48.939020" lon="8.688440">
<ele>380.0</ele>
<speed>5.4</speed>
<course>206.2</course>
<desc>Speed 5.4 km/h Distance 4.82 km</desc>
<time>2010-02-28T11:12:39.90</time>
<name>3391</name>
</trkpt>
<trkpt lat="48.939007" lon="8.688430">
<ele>380.0</ele>
<speed>5.8</speed>
<course>206.0</course>
<desc>Speed 5.8 km/h Distance 4.82 km</desc>
<time>2010-02-28T11:12:40.90</time>
<name>3392</name>
</trkpt>
<trkpt lat="48.938993" lon="8.688420">
<ele>380.0</ele>
<speed>6.3</speed>
<course>200.1</course>
<desc>Speed 6.3 km/h Distance 4.82 km</desc>
<time>2010-02-28T11:12:41.90</time>
<name>3393</name>
</trkpt>
<trkpt lat="48.938978" lon="8.688412">
<ele>379.5</ele>
<speed>6.1</speed>
<course>206.2</course>
<desc>Speed 6.1 km/h Distance 4.83 km</desc>
<time>2010-02-28T11:12:42.90</time>
<name>3394</name>
</trkpt>
<trkpt lat="48.938965" lon="8.688402">
<ele>379.5</ele>
<speed>5.8</speed>
<course>209.8</course>
<desc>Speed 5.8 km/h Distance 4.83 km</desc>
<time>2010-02-28T11:12:43.90</time>
<name>3395</name>
</trkpt>
<trkpt lat="48.938952" lon="8.688390">
<ele>379.5</ele>
<speed>5.9</speed>
<course>202.1</course>
<desc>Speed 5.9 km/h Distance 4.83 km</desc>
<time>2010-02-28T11:12:44.90</time>
<name>3396</name>
</trkpt>
<trkpt lat="48.938938" lon="8.688382">
<ele>379.0</ele>
<speed>5.7</speed>
<course>206.2</course>
<desc>Speed 5.7 km/h Distance 4.83 km</desc>
<time>2010-02-28T11:12:45.90</time>
<name>3397</name>
</trkpt>
<trkpt lat="48.938925" lon="8.688372">
<ele>379.0</ele>
<speed>5.8</speed>
<course>202.1</course>
<desc>Speed 5.8 km/h Distance 4.83 km</desc>
<time>2010-02-28T11:12:46.90</time>
<name>3398</name>
</trkpt>
<trkpt lat="48.938912" lon="8.688363">
<ele>379.0</ele>
<speed>6.0</speed>
<course>206.2</course>
<desc>Speed 6.0 km/h Distance 4.83 km</desc>
<time>2010-02-28T11:12:47.90</time>
<name>3399</name>
</trkpt>
<trkpt lat="48.938898" lon="8.688353">
<ele>379.0</ele>
<speed>5.8</speed>
<course>206.4</course>
<desc>Speed 5.8 km/h Distance 4.84 km</desc>
<time>2010-02-28T11:12:48.90</time>
<name>3400</name>
</trkpt>
<trkpt lat="48.938885" lon="8.688343">
<ele>379.0</ele>
<speed>5.9</speed>
<course>202.6</course>
<desc>Speed 5.9 km/h Distance 4.84 km</desc>
<time>2010-02-28T11:12:49.90</time>
<name>3401</name>
</trkpt>
<trkpt lat="48.938872" lon="8.688335">
<ele>379.0</ele>
<speed>6.0</speed>
<course>202.3</course>
<desc>Speed 6.0 km/h Distance 4.84 km</desc>
<time>2010-02-28T11:12:50.90</time>
<name>3402</name>
</trkpt>
<trkpt lat="48.938858" lon="8.688327">
<ele>379.0</ele>
<speed>5.7</speed>
<course>213.1</course>
<desc>Speed 5.7 km/h Distance 4.84 km</desc>
<time>2010-02-28T11:12:51.90</time>
<name>3403</name>
</trkpt>
<trkpt lat="48.938847" lon="8.688315">
<ele>379.0</ele>
<speed>5.7</speed>
<course>206.0</course>
<desc>Speed 5.7 km/h Distance 4.84 km</desc>
<time>2010-02-28T11:12:52.90</time>
<name>3404</name>
</trkpt>
<trkpt lat="48.938833" lon="8.688305">
<ele>378.5</ele>
<speed>6.0</speed>
<course>209.4</course>
<desc>Speed 6.0 km/h Distance 4.84 km</desc>
<time>2010-02-28T11:12:53.90</time>
<name>3405</name>
</trkpt>
<trkpt lat="48.938822" lon="8.688295">
<ele>378.5</ele>
<speed>5.8</speed>
<course>213.1</course>
<desc>Speed 5.8 km/h Distance 4.85 km</desc>
<time>2010-02-28T11:12:54.90</time>
<name>3406</name>
</trkpt>
<trkpt lat="48.938810" lon="8.688283">
<ele>378.5</ele>
<speed>5.8</speed>
<course>206.0</course>
<desc>Speed 5.8 km/h Distance 4.85 km</desc>
<time>2010-02-28T11:12:55.90</time>
<name>3407</name>
</trkpt>
<trkpt lat="48.938797" lon="8.688273">
<ele>378.5</ele>
<speed>5.8</speed>
<course>206.2</course>
<desc>Speed 5.8 km/h Distance 4.85 km</desc>
<time>2010-02-28T11:12:56.90</time>
<name>3408</name>
</trkpt>
<trkpt lat="48.938783" lon="8.688263">
<ele>378.5</ele>
<speed>6.0</speed>
<course>206.0</course>
<desc>Speed 6.0 km/h Distance 4.85 km</desc>
<time>2010-02-28T11:12:57.90</time>
<name>3409</name>
</trkpt>
<trkpt lat="48.938770" lon="8.688253">
<ele>378.5</ele>
<speed>6.1</speed>
<course>209.4</course>
<desc>Speed 6.1 km/h Distance 4.85 km</desc>
<time>2010-02-28T11:12:58.90</time>
<name>3410</name>
</trkpt>
<trkpt lat="48.938758" lon="8.688243">
<ele>378.5</ele>
<speed>5.6</speed>
<course>202.3</course>
<desc>Speed 5.6 km/h Distance 4.85 km</desc>
<time>2010-02-28T11:12:59.90</time>
<name>3411</name>
</trkpt>
<trkpt lat="48.938745" lon="8.688235">
<ele>378.5</ele>
<speed>5.6</speed>
<course>205.2</course>
<desc>Speed 5.6 km/h Distance 4.85 km</desc>
<time>2010-02-28T11:13:00.90</time>
<name>3412</name>
</trkpt>
<trkpt lat="48.938733" lon="8.688227">
<ele>378.5</ele>
<speed>5.5</speed>
<course>206.2</course>
<desc>Speed 5.5 km/h Distance 4.86 km</desc>
<time>2010-02-28T11:13:01.90</time>
<name>3413</name>
</trkpt>
<trkpt lat="48.938720" lon="8.688217">
<ele>378.5</ele>
<speed>5.6</speed>
<course>205.2</course>
<desc>Speed 5.6 km/h Distance 4.86 km</desc>
<time>2010-02-28T11:13:02.90</time>
<name>3414</name>
</trkpt>
<trkpt lat="48.938708" lon="8.688208">
<ele>378.5</ele>
<speed>5.5</speed>
<course>202.6</course>
<desc>Speed 5.5 km/h Distance 4.86 km</desc>
<time>2010-02-28T11:13:03.90</time>
<name>3415</name>
</trkpt>
<trkpt lat="48.938695" lon="8.688200">
<ele>378.5</ele>
<speed>5.9</speed>
<course>206.4</course>
<desc>Speed 5.9 km/h Distance 4.86 km</desc>
<time>2010-02-28T11:13:04.90</time>
<name>3416</name>
</trkpt>
<trkpt lat="48.938682" lon="8.688190">
<ele>378.5</ele>
<speed>5.7</speed>
<course>202.3</course>
<desc>Speed 5.7 km/h Distance 4.86 km</desc>
<time>2010-02-28T11:13:05.90</time>
<name>3417</name>
</trkpt>
<trkpt lat="48.938668" lon="8.688182">
<ele>378.5</ele>
<speed>5.8</speed>
<course>205.2</course>
<desc>Speed 5.8 km/h Distance 4.86 km</desc>
<time>2010-02-28T11:13:06.90</time>
<name>3418</name>
</trkpt>
<trkpt lat="48.938657" lon="8.688173">
<ele>378.5</ele>
<speed>5.7</speed>
<course>206.0</course>
<desc>Speed 5.7 km/h Distance 4.87 km</desc>
<time>2010-02-28T11:13:07.90</time>
<name>3419</name>
</trkpt>
<trkpt lat="48.938643" lon="8.688163">
<ele>378.5</ele>
<speed>5.9</speed>
<course>206.0</course>
<desc>Speed 5.9 km/h Distance 4.87 km</desc>
<time>2010-02-28T11:13:08.90</time>
<name>3420</name>
</trkpt>
<trkpt lat="48.938630" lon="8.688153">
<ele>378.5</ele>
<speed>5.9</speed>
<course>202.6</course>
<desc>Speed 5.9 km/h Distance 4.87 km</desc>
<time>2010-02-28T11:13:09.90</time>
<name>3421</name>
</trkpt>
<trkpt lat="48.938617" lon="8.688145">
<ele>378.5</ele>
<speed>5.7</speed>
<course>209.4</course>
<desc>Speed 5.7 km/h Distance 4.87 km</desc>
<time>2010-02-28T11:13:10.90</time>
<name>3422</name>
</trkpt>
<trkpt lat="48.938605" lon="8.688135">
<ele>378.5</ele>
<speed>5.5</speed>
<course>209.4</course>
<desc>Speed 5.5 km/h Distance 4.87 km</desc>
<time>2010-02-28T11:13:11.90</time>
<name>3423</name>
</trkpt>
<trkpt lat="48.938593" lon="8.688125">
<ele>378.5</ele>
<speed>5.6</speed>
<course>206.2</course>
<desc>Speed 5.6 km/h Distance 4.87 km</desc>
<time>2010-02-28T11:13:12.90</time>
<name>3424</name>
</trkpt>
<trkpt lat="48.938580" lon="8.688115">
<ele>378.0</ele>
<speed>5.8</speed>
<course>202.1</course>
<desc>Speed 5.8 km/h Distance 4.87 km</desc>
<time>2010-02-28T11:13:13.90</time>
<name>3425</name>
</trkpt>
<trkpt lat="48.938567" lon="8.688107">
<ele>378.0</ele>
<speed>5.8</speed>
<course>206.0</course>
<desc>Speed 5.8 km/h Distance 4.88 km</desc>
<time>2010-02-28T11:13:14.90</time>
<name>3426</name>
</trkpt>
<trkpt lat="48.938553" lon="8.688097">
<ele>378.0</ele>
<speed>5.7</speed>
<course>202.1</course>
<desc>Speed 5.7 km/h Distance 4.88 km</desc>
<time>2010-02-28T11:13:15.90</time>
<name>3427</name>
</trkpt>
<trkpt lat="48.938540" lon="8.688088">
<ele>378.0</ele>
<speed>5.8</speed>
<course>206.0</course>
<desc>Speed 5.8 km/h Distance 4.88 km</desc>
<time>2010-02-28T11:13:16.90</time>
<name>3428</name>
</trkpt>
<trkpt lat="48.938527" lon="8.688078">
<ele>378.0</ele>
<speed>6.0</speed>
<course>206.2</course>
<desc>Speed 6.0 km/h Distance 4.88 km</desc>
<time>2010-02-28T11:13:17.90</time>
<name>3429</name>
</trkpt>
<trkpt lat="48.938513" lon="8.688068">
<ele>378.0</ele>
<speed>5.9</speed>
<course>206.0</course>
<desc>Speed 5.9 km/h Distance 4.88 km</desc>
<time>2010-02-28T11:13:18.90</time>
<name>3430</name>
</trkpt>
<trkpt lat="48.938500" lon="8.688058">
<ele>378.0</ele>
<speed>5.9</speed>
<course>205.2</course>
<desc>Speed 5.9 km/h Distance 4.88 km</desc>
<time>2010-02-28T11:13:19.90</time>
<name>3431</name>
</trkpt>
<trkpt lat="48.938488" lon="8.688050">
<ele>378.0</ele>
<speed>5.8</speed>
<course>206.0</course>
<desc>Speed 5.8 km/h Distance 4.89 km</desc>
<time>2010-02-28T11:13:20.90</time>
<name>3432</name>
</trkpt>
<trkpt lat="48.938475" lon="8.688040">
<ele>377.5</ele>
<speed>5.8</speed>
<course>206.2</course>
<desc>Speed 5.8 km/h Distance 4.89 km</desc>
<time>2010-02-28T11:13:21.90</time>
<name>3433</name>
</trkpt>
<trkpt lat="48.938462" lon="8.688030">
<ele>377.5</ele>
<speed>5.7</speed>
<course>202.3</course>
<desc>Speed 5.7 km/h Distance 4.89 km</desc>
<time>2010-02-28T11:13:22.90</time>
<name>3434</name>
</trkpt>
<trkpt lat="48.938448" lon="8.688022">
<ele>377.5</ele>
<speed>5.8</speed>
<course>209.4</course>
<desc>Speed 5.8 km/h Distance 4.89 km</desc>
<time>2010-02-28T11:13:23.90</time>
<name>3435</name>
</trkpt>
<trkpt lat="48.938437" lon="8.688012">
<ele>377.0</ele>
<speed>5.7</speed>
<course>202.1</course>
<desc>Speed 5.7 km/h Distance 4.89 km</desc>
<time>2010-02-28T11:13:24.90</time>
<name>3436</name>
</trkpt>
<trkpt lat="48.938423" lon="8.688003">
<ele>377.0</ele>
<speed>5.8</speed>
<course>206.0</course>
<desc>Speed 5.8 km/h Distance 4.89 km</desc>
<time>2010-02-28T11:13:25.90</time>
<name>3437</name>
</trkpt>
<trkpt lat="48.938410" lon="8.687993">
<ele>377.0</ele>
<speed>5.8</speed>
<course>202.3</course>
<desc>Speed 5.8 km/h Distance 4.90 km</desc>
<time>2010-02-28T11:13:26.90</time>
<name>3438</name>
</trkpt>
<trkpt lat="48.938397" lon="8.687985">
<ele>377.0</ele>
<speed>5.8</speed>
<course>206.4</course>
<desc>Speed 5.8 km/h Distance 4.90 km</desc>
<time>2010-02-28T11:13:27.90</time>
<name>3439</name>
</trkpt>
<trkpt lat="48.938383" lon="8.687975">
<ele>377.0</ele>
<speed>6.0</speed>
<course>202.6</course>
<desc>Speed 6.0 km/h Distance 4.90 km</desc>
<time>2010-02-28T11:13:28.90</time>
<name>3440</name>
</trkpt>
<trkpt lat="48.938370" lon="8.687967">
<ele>377.0</ele>
<speed>5.8</speed>
<course>206.0</course>
<desc>Speed 5.8 km/h Distance 4.90 km</desc>
<time>2010-02-28T11:13:29.90</time>
<name>3441</name>
</trkpt>
<trkpt lat="48.938357" lon="8.687957">
<ele>377.0</ele>
<speed>5.6</speed>
<course>202.1</course>
<desc>Speed 5.6 km/h Distance 4.90 km</desc>
<time>2010-02-28T11:13:30.90</time>
<name>3442</name>
</trkpt>
<trkpt lat="48.938343" lon="8.687948">
<ele>376.5</ele>
<speed>5.7</speed>
<course>206.4</course>
<desc>Speed 5.7 km/h Distance 4.90 km</desc>
<time>2010-02-28T11:13:31.90</time>
<name>3443</name>
</trkpt>
<trkpt lat="48.938330" lon="8.687938">
<ele>376.5</ele>
<speed>5.8</speed>
<course>202.1</course>
<desc>Speed 5.8 km/h Distance 4.91 km</desc>
<time>2010-02-28T11:13:32.90</time>
<name>3444</name>
</trkpt>
<trkpt lat="48.938317" lon="8.687930">
<ele>376.5</ele>
<speed>5.8</speed>
<course>206.2</course>
<desc>Speed 5.8 km/h Distance 4.91 km</desc>
<time>2010-02-28T11:13:33.90</time>
<name>3445</name>
</trkpt>
<trkpt lat="48.938303" lon="8.687920">
<ele>376.5</ele>
<speed>5.7</speed>
<course>209.2</course>
<desc>Speed 5.7 km/h Distance 4.91 km</desc>
<time>2010-02-28T11:13:34.90</time>
<name>3446</name>
</trkpt>
<trkpt lat="48.938292" lon="8.687910">
<ele>376.5</ele>
<speed>5.6</speed>
<course>202.1</course>
<desc>Speed 5.6 km/h Distance 4.91 km</desc>
<time>2010-02-28T11:13:35.90</time>
<name>3447</name>
</trkpt>
<trkpt lat="48.938278" lon="8.687902">
<ele>376.0</ele>
<speed>5.8</speed>
<course>206.0</course>
<desc>Speed 5.8 km/h Distance 4.91 km</desc>
<time>2010-02-28T11:13:36.90</time>
<name>3448</name>
</trkpt>
<trkpt lat="48.938265" lon="8.687892">
<ele>376.0</ele>
<speed>5.6</speed>
<course>213.4</course>
<desc>Speed 5.6 km/h Distance 4.91 km</desc>
<time>2010-02-28T11:13:37.90</time>
<name>3449</name>
</trkpt>
<trkpt lat="48.938253" lon="8.687880">
<ele>376.0</ele>
<speed>5.8</speed>
<course>203.7</course>
<desc>Speed 5.8 km/h Distance 4.92 km</desc>
<time>2010-02-28T11:13:38.90</time>
<name>3450</name>
</trkpt>
<trkpt lat="48.938238" lon="8.687870">
<ele>376.0</ele>
<speed>6.1</speed>
<course>209.6</course>
<desc>Speed 6.1 km/h Distance 4.92 km</desc>
<time>2010-02-28T11:13:39.90</time>
<name>3451</name>
</trkpt>
<trkpt lat="48.938227" lon="8.687860">
<ele>376.0</ele>
<speed>5.8</speed>
<course>200.1</course>
<desc>Speed 5.8 km/h Distance 4.92 km</desc>
<time>2010-02-28T11:13:40.90</time>
<name>3452</name>
</trkpt>
<trkpt lat="48.938212" lon="8.687852">
<ele>376.0</ele>
<speed>5.9</speed>
<course>205.2</course>
<desc>Speed 5.9 km/h Distance 4.92 km</desc>
<time>2010-02-28T11:13:41.90</time>
<name>3453</name>
</trkpt>
<trkpt lat="48.938200" lon="8.687843">
<ele>376.0</ele>
<speed>5.8</speed>
<course>213.3</course>
<desc>Speed 5.8 km/h Distance 4.92 km</desc>
<time>2010-02-28T11:13:42.90</time>
<name>3454</name>
</trkpt>
<trkpt lat="48.938187" lon="8.687830">
<ele>376.0</ele>
<speed>5.9</speed>
<course>204.9</course>
<desc>Speed 5.9 km/h Distance 4.92 km</desc>
<time>2010-02-28T11:13:43.90</time>
<name>3455</name>
</trkpt>
<trkpt lat="48.938175" lon="8.687822">
<ele>375.5</ele>
<speed>5.6</speed>
<course>206.0</course>
<desc>Speed 5.6 km/h Distance 4.92 km</desc>
<time>2010-02-28T11:13:44.90</time>
<name>3456</name>
</trkpt>
<trkpt lat="48.938162" lon="8.687812">
<ele>375.5</ele>
<speed>5.7</speed>
<course>209.4</course>
<desc>Speed 5.7 km/h Distance 4.93 km</desc>
<time>2010-02-28T11:13:45.90</time>
<name>3457</name>
</trkpt>
<trkpt lat="48.938150" lon="8.687802">
<ele>375.5</ele>
<speed>5.7</speed>
<course>206.2</course>
<desc>Speed 5.7 km/h Distance 4.93 km</desc>
<time>2010-02-28T11:13:46.90</time>
<name>3458</name>
</trkpt>
<trkpt lat="48.938137" lon="8.687792">
<ele>375.0</ele>
<speed>5.6</speed>
<course>209.4</course>
<desc>Speed 5.6 km/h Distance 4.93 km</desc>
<time>2010-02-28T11:13:47.90</time>
<name>3459</name>
</trkpt>
<trkpt lat="48.938125" lon="8.687782">
<ele>375.0</ele>
<speed>5.8</speed>
<course>202.3</course>
<desc>Speed 5.8 km/h Distance 4.93 km</desc>
<time>2010-02-28T11:13:48.90</time>
<name>3460</name>
</trkpt>
<trkpt lat="48.938112" lon="8.687773">
<ele>375.0</ele>
<speed>5.8</speed>
<course>206.2</course>
<desc>Speed 5.8 km/h Distance 4.93 km</desc>
<time>2010-02-28T11:13:49.90</time>
<name>3461</name>
</trkpt>
<trkpt lat="48.938098" lon="8.687763">
<ele>374.5</ele>
<speed>5.8</speed>
<course>202.1</course>
<desc>Speed 5.8 km/h Distance 4.93 km</desc>
<time>2010-02-28T11:13:50.90</time>
<name>3462</name>
</trkpt>
<trkpt lat="48.938085" lon="8.687755">
<ele>374.5</ele>
<speed>5.6</speed>
<course>202.3</course>
<desc>Speed 5.6 km/h Distance 4.94 km</desc>
<time>2010-02-28T11:13:51.90</time>
<name>3463</name>
</trkpt>
<trkpt lat="48.938072" lon="8.687747">
<ele>374.5</ele>
<speed>5.9</speed>
<course>205.2</course>
<desc>Speed 5.9 km/h Distance 4.94 km</desc>
<time>2010-02-28T11:13:52.90</time>
<name>3464</name>
</trkpt>
<trkpt lat="48.938060" lon="8.687738">
<ele>374.5</ele>
<speed>5.4</speed>
<course>206.0</course>
<desc>Speed 5.4 km/h Distance 4.94 km</desc>
<time>2010-02-28T11:13:53.90</time>
<name>3465</name>
</trkpt>
<trkpt lat="48.938047" lon="8.687728">
<ele>374.5</ele>
<speed>5.8</speed>
<course>202.3</course>
<desc>Speed 5.8 km/h Distance 4.94 km</desc>
<time>2010-02-28T11:13:54.90</time>
<name>3466</name>
</trkpt>
<trkpt lat="48.938033" lon="8.687720">
<ele>374.5</ele>
<speed>5.7</speed>
<course>209.6</course>
<desc>Speed 5.7 km/h Distance 4.94 km</desc>
<time>2010-02-28T11:13:55.90</time>
<name>3467</name>
</trkpt>
<trkpt lat="48.938022" lon="8.687710">
<ele>374.5</ele>
<speed>5.7</speed>
<course>206.4</course>
<desc>Speed 5.7 km/h Distance 4.94 km</desc>
<time>2010-02-28T11:13:56.90</time>
<name>3468</name>
</trkpt>
<trkpt lat="48.938008" lon="8.687700">
<ele>374.5</ele>
<speed>5.7</speed>
<course>209.4</course>
<desc>Speed 5.7 km/h Distance 4.95 km</desc>
<time>2010-02-28T11:13:57.90</time>
<name>3469</name>
</trkpt>
<trkpt lat="48.937997" lon="8.687690">
<ele>374.5</ele>
<speed>5.6</speed>
<course>204.6</course>
<desc>Speed 5.6 km/h Distance 4.95 km</desc>
<time>2010-02-28T11:13:58.90</time>
<name>3470</name>
</trkpt>
<trkpt lat="48.937985" lon="8.687682">
<ele>374.5</ele>
<speed>5.7</speed>
<course>206.0</course>
<desc>Speed 5.7 km/h Distance 4.95 km</desc>
<time>2010-02-28T11:13:59.90</time>
<name>3471</name>
</trkpt>
<trkpt lat="48.937972" lon="8.687672">
<ele>374.5</ele>
<speed>5.5</speed>
<course>200.2</course>
<desc>Speed 5.5 km/h Distance 4.95 km</desc>
<time>2010-02-28T11:14:00.90</time>
<name>3472</name>
</trkpt>
<trkpt lat="48.937960" lon="8.687665">
<ele>374.5</ele>
<speed>5.5</speed>
<course>205.2</course>
<desc>Speed 5.5 km/h Distance 4.95 km</desc>
<time>2010-02-28T11:14:01.90</time>
<name>3473</name>
</trkpt>
<trkpt lat="48.937948" lon="8.687657">
<ele>374.5</ele>
<speed>5.5</speed>
<course>202.3</course>
<desc>Speed 5.5 km/h Distance 4.95 km</desc>
<time>2010-02-28T11:14:02.90</time>
<name>3474</name>
</trkpt>
<trkpt lat="48.937935" lon="8.687648">
<ele>374.5</ele>
<speed>5.5</speed>
<course>209.4</course>
<desc>Speed 5.5 km/h Distance 4.95 km</desc>
<time>2010-02-28T11:14:03.90</time>
<name>3475</name>
</trkpt>
<trkpt lat="48.937923" lon="8.687638">
<ele>374.5</ele>
<speed>5.7</speed>
<course>209.4</course>
<desc>Speed 5.7 km/h Distance 4.96 km</desc>
<time>2010-02-28T11:14:04.90</time>
<name>3476</name>
</trkpt>
<trkpt lat="48.937912" lon="8.687628">
<ele>374.5</ele>
<speed>5.6</speed>
<course>202.3</course>
<desc>Speed 5.6 km/h Distance 4.96 km</desc>
<time>2010-02-28T11:14:05.90</time>
<name>3477</name>
</trkpt>
<trkpt lat="48.937898" lon="8.687620">
<ele>375.0</ele>
<speed>5.5</speed>
<course>200.9</course>
<desc>Speed 5.5 km/h Distance 4.96 km</desc>
<time>2010-02-28T11:14:06.90</time>
<name>3478</name>
</trkpt>
<trkpt lat="48.937887" lon="8.687613">
<ele>375.0</ele>
<speed>5.4</speed>
<course>209.4</course>
<desc>Speed 5.4 km/h Distance 4.96 km</desc>
<time>2010-02-28T11:14:07.90</time>
<name>3479</name>
</trkpt>
<trkpt lat="48.937875" lon="8.687603">
<ele>374.5</ele>
<speed>5.7</speed>
<course>206.0</course>
<desc>Speed 5.7 km/h Distance 4.96 km</desc>
<time>2010-02-28T11:14:08.90</time>
<name>3480</name>
</trkpt>
<trkpt lat="48.937862" lon="8.687593">
<ele>374.5</ele>
<speed>5.4</speed>
<course>205.2</course>
<desc>Speed 5.4 km/h Distance 4.96 km</desc>
<time>2010-02-28T11:14:09.90</time>
<name>3481</name>
</trkpt>
<trkpt lat="48.937850" lon="8.687585">
<ele>374.5</ele>
<speed>5.4</speed>
<course>200.9</course>
<desc>Speed 5.4 km/h Distance 4.97 km</desc>
<time>2010-02-28T11:14:10.90</time>
<name>3482</name>
</trkpt>
<trkpt lat="48.937838" lon="8.687578">
<ele>374.5</ele>
<speed>5.4</speed>
<course>202.1</course>
<desc>Speed 5.4 km/h Distance 4.97 km</desc>
<time>2010-02-28T11:14:11.90</time>
<name>3483</name>
</trkpt>
<trkpt lat="48.937825" lon="8.687570">
<ele>374.5</ele>
<speed>5.5</speed>
<course>198.1</course>
<desc>Speed 5.5 km/h Distance 4.97 km</desc>
<time>2010-02-28T11:14:12.90</time>
<name>3484</name>
</trkpt>
<trkpt lat="48.937812" lon="8.687563">
<ele>374.5</ele>
<speed>5.7</speed>
<course>202.1</course>
<desc>Speed 5.7 km/h Distance 4.97 km</desc>
<time>2010-02-28T11:14:13.90</time>
<name>3485</name>
</trkpt>
<trkpt lat="48.937798" lon="8.687555">
<ele>374.0</ele>
<speed>5.7</speed>
<course>202.3</course>
<desc>Speed 5.7 km/h Distance 4.97 km</desc>
<time>2010-02-28T11:14:14.90</time>
<name>3486</name>
</trkpt>
<trkpt lat="48.937785" lon="8.687547">
<ele>374.0</ele>
<speed>5.8</speed>
<course>204.9</course>
<desc>Speed 5.8 km/h Distance 4.97 km</desc>
<time>2010-02-28T11:14:15.90</time>
<name>3487</name>
</trkpt>
<trkpt lat="48.937773" lon="8.687538">
<ele>374.0</ele>
<speed>5.6</speed>
<course>206.0</course>
<desc>Speed 5.6 km/h Distance 4.97 km</desc>
<time>2010-02-28T11:14:16.90</time>
<name>3488</name>
</trkpt>
<trkpt lat="48.937760" lon="8.687528">
<ele>374.0</ele>
<speed>5.6</speed>
<course>209.4</course>
<desc>Speed 5.6 km/h Distance 4.98 km</desc>
<time>2010-02-28T11:14:17.90</time>
<name>3489</name>
</trkpt>
<trkpt lat="48.937748" lon="8.687518">
<ele>374.0</ele>
<speed>5.7</speed>
<course>202.1</course>
<desc>Speed 5.7 km/h Distance 4.98 km</desc>
<time>2010-02-28T11:14:18.90</time>
<name>3490</name>
</trkpt>
<trkpt lat="48.937735" lon="8.687510">
<ele>373.5</ele>
<speed>5.7</speed>
<course>209.4</course>
<desc>Speed 5.7 km/h Distance 4.98 km</desc>
<time>2010-02-28T11:14:19.90</time>
<name>3491</name>
</trkpt>
<trkpt lat="48.937723" lon="8.687500">
<ele>373.5</ele>
<speed>5.6</speed>
<course>205.2</course>
<desc>Speed 5.6 km/h Distance 4.98 km</desc>
<time>2010-02-28T11:14:20.90</time>
<name>3492</name>
</trkpt>
<trkpt lat="48.937712" lon="8.687492">
<ele>373.5</ele>
<speed>5.3</speed>
<course>205.2</course>
<desc>Speed 5.3 km/h Distance 4.98 km</desc>
<time>2010-02-28T11:14:21.90</time>
<name>3493</name>
</trkpt>
<trkpt lat="48.937700" lon="8.687483">
<ele>373.5</ele>
<speed>5.4</speed>
<course>209.4</course>
<desc>Speed 5.4 km/h Distance 4.98 km</desc>
<time>2010-02-28T11:14:22.90</time>
<name>3494</name>
</trkpt>
<trkpt lat="48.937688" lon="8.687473">
<ele>373.5</ele>
<speed>5.6</speed>
<course>213.4</course>
<desc>Speed 5.6 km/h Distance 4.98 km</desc>
<time>2010-02-28T11:14:23.90</time>
<name>3495</name>
</trkpt>
<trkpt lat="48.937677" lon="8.687462">
<ele>373.5</ele>
<speed>5.4</speed>
<course>209.4</course>
<desc>Speed 5.4 km/h Distance 4.99 km</desc>
<time>2010-02-28T11:14:24.90</time>
<name>3496</name>
</trkpt>
<trkpt lat="48.937665" lon="8.687452">
<ele>373.5</ele>
<speed>5.7</speed>
<course>202.3</course>
<desc>Speed 5.7 km/h Distance 4.99 km</desc>
<time>2010-02-28T11:14:25.90</time>
<name>3497</name>
</trkpt>
<trkpt lat="48.937652" lon="8.687443">
<ele>373.0</ele>
<speed>5.8</speed>
<course>206.4</course>
<desc>Speed 5.8 km/h Distance 4.99 km</desc>
<time>2010-02-28T11:14:26.90</time>
<name>3498</name>
</trkpt>
<trkpt lat="48.937638" lon="8.687433">
<ele>373.0</ele>
<speed>5.9</speed>
<course>202.3</course>
<desc>Speed 5.9 km/h Distance 4.99 km</desc>
<time>2010-02-28T11:14:27.90</time>
<name>3499</name>
</trkpt>
<trkpt lat="48.937625" lon="8.687425">
<ele>373.0</ele>
<speed>5.7</speed>
<course>210.0</course>
<desc>Speed 5.7 km/h Distance 4.99 km</desc>
<time>2010-02-28T11:14:28.90</time>
<name>3500</name>
</trkpt>
<trkpt lat="48.937612" lon="8.687413">
<ele>373.0</ele>
<speed>5.7</speed>
<course>205.2</course>
<desc>Speed 5.7 km/h Distance 4.99 km</desc>
<time>2010-02-28T11:14:29.90</time>
<name>3501</name>
</trkpt>
<trkpt lat="48.937600" lon="8.687405">
<ele>373.0</ele>
<speed>5.7</speed>
<course>202.3</course>
<desc>Speed 5.7 km/h Distance 5.00 km</desc>
<time>2010-02-28T11:14:30.90</time>
<name>3502</name>
</trkpt>
<trkpt lat="48.937587" lon="8.687397">
<ele>373.0</ele>
<speed>5.5</speed>
<course>205.2</course>
<desc>Speed 5.5 km/h Distance 5.00 km</desc>
<time>2010-02-28T11:14:31.90</time>
<name>3503</name>
</trkpt>
<trkpt lat="48.937575" lon="8.687388">
<ele>373.0</ele>
<speed>5.7</speed>
<course>206.2</course>
<desc>Speed 5.7 km/h Distance 5.00 km</desc>
<time>2010-02-28T11:14:32.90</time>
<name>3504</name>
</trkpt>
<trkpt lat="48.937562" lon="8.687378">
<ele>372.5</ele>
<speed>5.7</speed>
<course>202.3</course>
<desc>Speed 5.7 km/h Distance 5.00 km</desc>
<time>2010-02-28T11:14:33.90</time>
<name>3505</name>
</trkpt>
<trkpt lat="48.937548" lon="8.687370">
<ele>372.5</ele>
<speed>5.7</speed>
<course>209.4</course>
<desc>Speed 5.7 km/h Distance 5.00 km</desc>
<time>2010-02-28T11:14:34.90</time>
<name>3506</name>
</trkpt>
<trkpt lat="48.937537" lon="8.687360">
<ele>372.5</ele>
<speed>5.7</speed>
<course>206.2</course>
<desc>Speed 5.7 km/h Distance 5.00 km</desc>
<time>2010-02-28T11:14:35.90</time>
<name>3507</name>
</trkpt>
<trkpt lat="48.937523" lon="8.687350">
<ele>372.5</ele>
<speed>5.7</speed>
<course>209.4</course>
<desc>Speed 5.7 km/h Distance 5.01 km</desc>
<time>2010-02-28T11:14:36.90</time>
<name>3508</name>
</trkpt>
<trkpt lat="48.937512" lon="8.687340">
<ele>372.5</ele>
<speed>5.5</speed>
<course>205.2</course>
<desc>Speed 5.5 km/h Distance 5.01 km</desc>
<time>2010-02-28T11:14:37.90</time>
<name>3509</name>
</trkpt>
<trkpt lat="48.937500" lon="8.687332">
<ele>372.5</ele>
<speed>5.7</speed>
<course>209.4</course>
<desc>Speed 5.7 km/h Distance 5.01 km</desc>
<time>2010-02-28T11:14:38.90</time>
<name>3510</name>
</trkpt>
<trkpt lat="48.937488" lon="8.687322">
<ele>372.5</ele>
<speed>5.1</speed>
<course>209.4</course>
<desc>Speed 5.1 km/h Distance 5.01 km</desc>
<time>2010-02-28T11:14:39.90</time>
<name>3511</name>
</trkpt>
<trkpt lat="48.937477" lon="8.687312">
<ele>372.5</ele>
<speed>5.4</speed>
<course>221.3</course>
<desc>Speed 5.4 km/h Distance 5.01 km</desc>
<time>2010-02-28T11:14:40.90</time>
<name>3512</name>
</trkpt>
<trkpt lat="48.937467" lon="8.687298">
<ele>372.0</ele>
<speed>5.3</speed>
<course>221.3</course>
<desc>Speed 5.3 km/h Distance 5.01 km</desc>
<time>2010-02-28T11:14:41.90</time>
<name>3513</name>
</trkpt>
<trkpt lat="48.937457" lon="8.687285">
<ele>372.0</ele>
<speed>5.5</speed>
<course>221.2</course>
<desc>Speed 5.5 km/h Distance 5.01 km</desc>
<time>2010-02-28T11:14:42.90</time>
<name>3514</name>
</trkpt>
<trkpt lat="48.937447" lon="8.687272">
<ele>372.0</ele>
<speed>5.5</speed>
<course>216.9</course>
<desc>Speed 5.5 km/h Distance 5.02 km</desc>
<time>2010-02-28T11:14:43.90</time>
<name>3515</name>
</trkpt>
<trkpt lat="48.937435" lon="8.687258">
<ele>372.0</ele>
<speed>5.5</speed>
<course>224.5</course>
<desc>Speed 5.5 km/h Distance 5.02 km</desc>
<time>2010-02-28T11:14:44.90</time>
<name>3516</name>
</trkpt>
<trkpt lat="48.937425" lon="8.687243">
<ele>372.0</ele>
<speed>5.7</speed>
<course>224.6</course>
<desc>Speed 5.7 km/h Distance 5.02 km</desc>
<time>2010-02-28T11:14:45.90</time>
<name>3517</name>
</trkpt>
<trkpt lat="48.937415" lon="8.687228">
<ele>372.0</ele>
<speed>5.4</speed>
<course>229.9</course>
<desc>Speed 5.4 km/h Distance 5.02 km</desc>
<time>2010-02-28T11:14:46.90</time>
<name>3518</name>
</trkpt>
<trkpt lat="48.937407" lon="8.687213">
<ele>372.0</ele>
<speed>5.5</speed>
<course>224.6</course>
<desc>Speed 5.5 km/h Distance 5.02 km</desc>
<time>2010-02-28T11:14:47.90</time>
<name>3519</name>
</trkpt>
<trkpt lat="48.937397" lon="8.687198">
<ele>372.0</ele>
<speed>5.4</speed>
<course>235.3</course>
<desc>Speed 5.4 km/h Distance 5.02 km</desc>
<time>2010-02-28T11:14:48.90</time>
<name>3520</name>
</trkpt>
<trkpt lat="48.937388" lon="8.687180">
<ele>372.0</ele>
<speed>5.7</speed>
<course>232.7</course>
<desc>Speed 5.7 km/h Distance 5.03 km</desc>
<time>2010-02-28T11:14:49.90</time>
<name>3521</name>
</trkpt>
<trkpt lat="48.937380" lon="8.687163">
<ele>372.0</ele>
<speed>5.8</speed>
<course>216.9</course>
<desc>Speed 5.8 km/h Distance 5.03 km</desc>
<time>2010-02-28T11:14:50.90</time>
<name>3522</name>
</trkpt>
<trkpt lat="48.937368" lon="8.687150">
<ele>372.0</ele>
<speed>5.8</speed>
<course>224.6</course>
<desc>Speed 5.8 km/h Distance 5.03 km</desc>
<time>2010-02-28T11:14:51.90</time>
<name>3523</name>
</trkpt>
<trkpt lat="48.937358" lon="8.687135">
<ele>372.0</ele>
<speed>5.6</speed>
<course>227.7</course>
<desc>Speed 5.6 km/h Distance 5.03 km</desc>
<time>2010-02-28T11:14:52.90</time>
<name>3524</name>
</trkpt>
<trkpt lat="48.937348" lon="8.687118">
<ele>372.0</ele>
<speed>5.8</speed>
<course>227.6</course>
<desc>Speed 5.8 km/h Distance 5.03 km</desc>
<time>2010-02-28T11:14:53.90</time>
<name>3525</name>
</trkpt>
<trkpt lat="48.937338" lon="8.687102">
<ele>372.0</ele>
<speed>5.8</speed>
<course>232.7</course>
<desc>Speed 5.8 km/h Distance 5.03 km</desc>
<time>2010-02-28T11:14:54.90</time>
<name>3526</name>
</trkpt>
<trkpt lat="48.937330" lon="8.687085">
<ele>372.0</ele>
<speed>5.9</speed>
<course>230.3</course>
<desc>Speed 5.9 km/h Distance 5.03 km</desc>
<time>2010-02-28T11:14:55.90</time>
<name>3527</name>
</trkpt>
<trkpt lat="48.937320" lon="8.687067">
<ele>372.0</ele>
<speed>5.9</speed>
<course>227.6</course>
<desc>Speed 5.9 km/h Distance 5.04 km</desc>
<time>2010-02-28T11:14:56.90</time>
<name>3528</name>
</trkpt>
<trkpt lat="48.937310" lon="8.687050">
<ele>372.0</ele>
<speed>5.9</speed>
<course>227.6</course>
<desc>Speed 5.9 km/h Distance 5.04 km</desc>
<time>2010-02-28T11:14:57.91</time>
<name>3529</name>
</trkpt>
<trkpt lat="48.937300" lon="8.687033">
<ele>372.0</ele>
<speed>5.8</speed>
<course>227.6</course>
<desc>Speed 5.8 km/h Distance 5.04 km</desc>
<time>2010-02-28T11:14:58.91</time>
<name>3530</name>
</trkpt>
<trkpt lat="48.937290" lon="8.687017">
<ele>372.0</ele>
<speed>5.8</speed>
<course>216.9</course>
<desc>Speed 5.8 km/h Distance 5.04 km</desc>
<time>2010-02-28T11:14:59.91</time>
<name>3531</name>
</trkpt>
<trkpt lat="48.937278" lon="8.687003">
<ele>372.0</ele>
<speed>5.8</speed>
<course>235.4</course>
<desc>Speed 5.8 km/h Distance 5.04 km</desc>
<time>2010-02-28T11:15:00.91</time>
<name>3532</name>
</trkpt>
<trkpt lat="48.937270" lon="8.686985">
<ele>372.0</ele>
<speed>5.9</speed>
<course>235.3</course>
<desc>Speed 5.9 km/h Distance 5.04 km</desc>
<time>2010-02-28T11:15:01.91</time>
<name>3533</name>
</trkpt>
<trkpt lat="48.937262" lon="8.686967">
<ele>372.0</ele>
<speed>6.0</speed>
<course>235.4</course>
<desc>Speed 6.0 km/h Distance 5.05 km</desc>
<time>2010-02-28T11:15:02.91</time>
<name>3534</name>
</trkpt>
<trkpt lat="48.937253" lon="8.686948">
<ele>372.0</ele>
<speed>5.8</speed>
<course>227.6</course>
<desc>Speed 5.8 km/h Distance 5.05 km</desc>
<time>2010-02-28T11:15:03.91</time>
<name>3535</name>
</trkpt>
<trkpt lat="48.937243" lon="8.686932">
<ele>371.5</ele>
<speed>5.7</speed>
<course>227.6</course>
<desc>Speed 5.7 km/h Distance 5.05 km</desc>
<time>2010-02-28T11:15:04.91</time>
<name>3536</name>
</trkpt>
<trkpt lat="48.937233" lon="8.686915">
<ele>371.5</ele>
<speed>5.8</speed>
<course>241.0</course>
<desc>Speed 5.8 km/h Distance 5.05 km</desc>
<time>2010-02-28T11:15:05.91</time>
<name>3537</name>
</trkpt>
<trkpt lat="48.937227" lon="8.686897">
<ele>371.0</ele>
<speed>5.9</speed>
<course>237.6</course>
<desc>Speed 5.9 km/h Distance 5.05 km</desc>
<time>2010-02-28T11:15:06.91</time>
<name>3538</name>
</trkpt>
<trkpt lat="48.937218" lon="8.686877">
<ele>371.0</ele>
<speed>6.1</speed>
<course>235.3</course>
<desc>Speed 6.1 km/h Distance 5.05 km</desc>
<time>2010-02-28T11:15:07.91</time>
<name>3539</name>
</trkpt>
<trkpt lat="48.937210" lon="8.686858">
<ele>371.0</ele>
<speed>5.9</speed>
<course>249.2</course>
<desc>Speed 5.9 km/h Distance 5.06 km</desc>
<time>2010-02-28T11:15:08.91</time>
<name>3540</name>
</trkpt>
<trkpt lat="48.937205" lon="8.686838">
<ele>371.0</ele>
<speed>5.7</speed>
<course>221.3</course>
<desc>Speed 5.7 km/h Distance 5.06 km</desc>
<time>2010-02-28T11:15:09.91</time>
<name>3541</name>
</trkpt>
<trkpt lat="48.937195" lon="8.686825">
<ele>371.5</ele>
<speed>5.3</speed>
<course>232.7</course>
<desc>Speed 5.3 km/h Distance 5.06 km</desc>
<time>2010-02-28T11:15:10.91</time>
<name>3542</name>
</trkpt>
<trkpt lat="48.937187" lon="8.686808">
<ele>371.5</ele>
<speed>5.7</speed>
<course>229.7</course>
<desc>Speed 5.7 km/h Distance 5.06 km</desc>
<time>2010-02-28T11:15:11.91</time>
<name>3543</name>
</trkpt>
<trkpt lat="48.937178" lon="8.686793">
<ele>371.5</ele>
<speed>5.4</speed>
<course>229.9</course>
<desc>Speed 5.4 km/h Distance 5.06 km</desc>
<time>2010-02-28T11:15:12.91</time>
<name>3544</name>
</trkpt>
<trkpt lat="48.937170" lon="8.686778">
<ele>371.5</ele>
<speed>5.7</speed>
<course>227.6</course>
<desc>Speed 5.7 km/h Distance 5.06 km</desc>
<time>2010-02-28T11:15:13.91</time>
<name>3545</name>
</trkpt>
<trkpt lat="48.937160" lon="8.686762">
<ele>371.5</ele>
<speed>5.6</speed>
<course>229.7</course>
<desc>Speed 5.6 km/h Distance 5.07 km</desc>
<time>2010-02-28T11:15:14.91</time>
<name>3546</name>
</trkpt>
<trkpt lat="48.937152" lon="8.686747">
<ele>371.5</ele>
<speed>5.6</speed>
<course>227.5</course>
<desc>Speed 5.6 km/h Distance 5.07 km</desc>
<time>2010-02-28T11:15:15.91</time>
<name>3547</name>
</trkpt>
<trkpt lat="48.937142" lon="8.686730">
<ele>371.5</ele>
<speed>5.9</speed>
<course>232.7</course>
<desc>Speed 5.9 km/h Distance 5.07 km</desc>
<time>2010-02-28T11:15:16.91</time>
<name>3548</name>
</trkpt>
<trkpt lat="48.937133" lon="8.686713">
<ele>371.5</ele>
<speed>5.7</speed>
<course>229.9</course>
<desc>Speed 5.7 km/h Distance 5.07 km</desc>
<time>2010-02-28T11:15:17.91</time>
<name>3549</name>
</trkpt>
<trkpt lat="48.937125" lon="8.686698">
<ele>371.5</ele>
<speed>5.5</speed>
<course>232.7</course>
<desc>Speed 5.5 km/h Distance 5.07 km</desc>
<time>2010-02-28T11:15:18.91</time>
<name>3550</name>
</trkpt>
<trkpt lat="48.937117" lon="8.686682">
<ele>371.5</ele>
<speed>5.7</speed>
<course>235.3</course>
<desc>Speed 5.7 km/h Distance 5.07 km</desc>
<time>2010-02-28T11:15:19.91</time>
<name>3551</name>
</trkpt>
<trkpt lat="48.937108" lon="8.686663">
<ele>371.5</ele>
<speed>5.5</speed>
<course>229.8</course>
<desc>Speed 5.5 km/h Distance 5.07 km</desc>
<time>2010-02-28T11:15:20.91</time>
<name>3552</name>
</trkpt>
<trkpt lat="48.937100" lon="8.686648">
<ele>371.5</ele>
<speed>5.5</speed>
<course>232.7</course>
<desc>Speed 5.5 km/h Distance 5.08 km</desc>
<time>2010-02-28T11:15:21.91</time>
<name>3553</name>
</trkpt>
<trkpt lat="48.937092" lon="8.686632">
<ele>371.5</ele>
<speed>5.8</speed>
<course>220.2</course>
<desc>Speed 5.8 km/h Distance 5.08 km</desc>
<time>2010-02-28T11:15:22.91</time>
<name>3554</name>
</trkpt>
<trkpt lat="48.937080" lon="8.686617">
<ele>371.5</ele>
<speed>5.9</speed>
<course>229.9</course>
<desc>Speed 5.9 km/h Distance 5.08 km</desc>
<time>2010-02-28T11:15:23.91</time>
<name>3555</name>
</trkpt>
<trkpt lat="48.937072" lon="8.686602">
<ele>371.5</ele>
<speed>5.5</speed>
<course>227.6</course>
<desc>Speed 5.5 km/h Distance 5.08 km</desc>
<time>2010-02-28T11:15:24.91</time>
<name>3556</name>
</trkpt>
<trkpt lat="48.937062" lon="8.686585">
<ele>371.5</ele>
<speed>5.5</speed>
<course>232.7</course>
<desc>Speed 5.5 km/h Distance 5.08 km</desc>
<time>2010-02-28T11:15:25.91</time>
<name>3557</name>
</trkpt>
<trkpt lat="48.937053" lon="8.686568">
<ele>371.5</ele>
<speed>5.5</speed>
<course>229.7</course>
<desc>Speed 5.5 km/h Distance 5.08 km</desc>
<time>2010-02-28T11:15:26.91</time>
<name>3558</name>
</trkpt>
<trkpt lat="48.937045" lon="8.686553">
<ele>371.5</ele>
<speed>5.6</speed>
<course>232.7</course>
<desc>Speed 5.6 km/h Distance 5.09 km</desc>
<time>2010-02-28T11:15:27.91</time>
<name>3559</name>
</trkpt>
<trkpt lat="48.937037" lon="8.686537">
<ele>371.0</ele>
<speed>5.7</speed>
<course>224.6</course>
<desc>Speed 5.7 km/h Distance 5.09 km</desc>
<time>2010-02-28T11:15:28.91</time>
<name>3560</name>
</trkpt>
<trkpt lat="48.937027" lon="8.686522">
<ele>371.0</ele>
<speed>5.5</speed>
<course>229.7</course>
<desc>Speed 5.5 km/h Distance 5.09 km</desc>
<time>2010-02-28T11:15:29.91</time>
<name>3561</name>
</trkpt>
<trkpt lat="48.937018" lon="8.686507">
<ele>371.0</ele>
<speed>5.5</speed>
<course>224.6</course>
<desc>Speed 5.5 km/h Distance 5.09 km</desc>
<time>2010-02-28T11:15:30.91</time>
<name>3562</name>
</trkpt>
<trkpt lat="48.937008" lon="8.686492">
<ele>371.0</ele>
<speed>5.5</speed>
<course>232.7</course>
<desc>Speed 5.5 km/h Distance 5.09 km</desc>
<time>2010-02-28T11:15:31.91</time>
<name>3563</name>
</trkpt>
<trkpt lat="48.937000" lon="8.686475">
<ele>371.5</ele>
<speed>5.7</speed>
<course>224.5</course>
<desc>Speed 5.7 km/h Distance 5.09 km</desc>
<time>2010-02-28T11:15:32.91</time>
<name>3564</name>
</trkpt>
<trkpt lat="48.936990" lon="8.686460">
<ele>371.5</ele>
<speed>5.4</speed>
<course>224.6</course>
<desc>Speed 5.4 km/h Distance 5.09 km</desc>
<time>2010-02-28T11:15:33.91</time>
<name>3565</name>
</trkpt>
<trkpt lat="48.936980" lon="8.686445">
<ele>371.5</ele>
<speed>5.6</speed>
<course>232.7</course>
<desc>Speed 5.6 km/h Distance 5.10 km</desc>
<time>2010-02-28T11:15:34.91</time>
<name>3566</name>
</trkpt>
<trkpt lat="48.936972" lon="8.686428">
<ele>371.0</ele>
<speed>5.7</speed>
<course>224.5</course>
<desc>Speed 5.7 km/h Distance 5.10 km</desc>
<time>2010-02-28T11:15:35.91</time>
<name>3567</name>
</trkpt>
<trkpt lat="48.936962" lon="8.686413">
<ele>371.0</ele>
<speed>5.5</speed>
<course>232.7</course>
<desc>Speed 5.5 km/h Distance 5.10 km</desc>
<time>2010-02-28T11:15:36.91</time>
<name>3568</name>
</trkpt>
<trkpt lat="48.936953" lon="8.686397">
<ele>371.0</ele>
<speed>5.7</speed>
<course>227.6</course>
<desc>Speed 5.7 km/h Distance 5.10 km</desc>
<time>2010-02-28T11:15:37.91</time>
<name>3569</name>
</trkpt>
<trkpt lat="48.936943" lon="8.686380">
<ele>370.5</ele>
<speed>5.8</speed>
<course>232.7</course>
<desc>Speed 5.8 km/h Distance 5.10 km</desc>
<time>2010-02-28T11:15:38.91</time>
<name>3570</name>
</trkpt>
<trkpt lat="48.936935" lon="8.686363">
<ele>370.5</ele>
<speed>5.8</speed>
<course>227.6</course>
<desc>Speed 5.8 km/h Distance 5.10 km</desc>
<time>2010-02-28T11:15:39.91</time>
<name>3571</name>
</trkpt>
<trkpt lat="48.936925" lon="8.686347">
<ele>370.5</ele>
<speed>5.8</speed>
<course>232.7</course>
<desc>Speed 5.8 km/h Distance 5.11 km</desc>
<time>2010-02-28T11:15:40.91</time>
<name>3572</name>
</trkpt>
<trkpt lat="48.936917" lon="8.686330">
<ele>370.5</ele>
<speed>5.6</speed>
<course>232.7</course>
<desc>Speed 5.6 km/h Distance 5.11 km</desc>
<time>2010-02-28T11:15:41.91</time>
<name>3573</name>
</trkpt>
<trkpt lat="48.936908" lon="8.686313">
<ele>370.5</ele>
<speed>5.5</speed>
<course>232.7</course>
<desc>Speed 5.5 km/h Distance 5.11 km</desc>
<time>2010-02-28T11:15:42.91</time>
<name>3574</name>
</trkpt>
<trkpt lat="48.936900" lon="8.686297">
<ele>370.0</ele>
<speed>5.7</speed>
<course>232.7</course>
<desc>Speed 5.7 km/h Distance 5.11 km</desc>
<time>2010-02-28T11:15:43.91</time>
<name>3575</name>
</trkpt>
<trkpt lat="48.936892" lon="8.686280">
<ele>370.0</ele>
<speed>5.6</speed>
<course>232.7</course>
<desc>Speed 5.6 km/h Distance 5.11 km</desc>
<time>2010-02-28T11:15:44.91</time>
<name>3576</name>
</trkpt>
<trkpt lat="48.936883" lon="8.686263">
<ele>370.0</ele>
<speed>5.5</speed>
<course>229.7</course>
<desc>Speed 5.5 km/h Distance 5.11 km</desc>
<time>2010-02-28T11:15:45.91</time>
<name>3577</name>
</trkpt>
<trkpt lat="48.936875" lon="8.686248">
<ele>370.0</ele>
<speed>5.5</speed>
<course>227.4</course>
<desc>Speed 5.5 km/h Distance 5.11 km</desc>
<time>2010-02-28T11:15:46.91</time>
<name>3578</name>
</trkpt>
<trkpt lat="48.936865" lon="8.686232">
<ele>370.0</ele>
<speed>5.4</speed>
<course>229.7</course>
<desc>Speed 5.4 km/h Distance 5.12 km</desc>
<time>2010-02-28T11:15:47.91</time>
<name>3579</name>
</trkpt>
<trkpt lat="48.936857" lon="8.686217">
<ele>370.0</ele>
<speed>5.6</speed>
<course>232.7</course>
<desc>Speed 5.6 km/h Distance 5.12 km</desc>
<time>2010-02-28T11:15:48.91</time>
<name>3580</name>
</trkpt>
<trkpt lat="48.936848" lon="8.686200">
<ele>369.5</ele>
<speed>5.7</speed>
<course>232.7</course>
<desc>Speed 5.7 km/h Distance 5.12 km</desc>
<time>2010-02-28T11:15:49.91</time>
<name>3581</name>
</trkpt>
<trkpt lat="48.936840" lon="8.686183">
<ele>369.5</ele>
<speed>5.7</speed>
<course>227.5</course>
<desc>Speed 5.7 km/h Distance 5.12 km</desc>
<time>2010-02-28T11:15:50.91</time>
<name>3582</name>
</trkpt>
<trkpt lat="48.936830" lon="8.686167">
<ele>369.5</ele>
<speed>5.5</speed>
<course>232.7</course>
<desc>Speed 5.5 km/h Distance 5.12 km</desc>
<time>2010-02-28T11:15:51.91</time>
<name>3583</name>
</trkpt>
<trkpt lat="48.936822" lon="8.686150">
<ele>369.5</ele>
<speed>5.5</speed>
<course>241.0</course>
<desc>Speed 5.5 km/h Distance 5.12 km</desc>
<time>2010-02-28T11:15:52.91</time>
<name>3584</name>
</trkpt>
<trkpt lat="48.936815" lon="8.686132">
<ele>369.5</ele>
<speed>5.5</speed>
<course>232.7</course>
<desc>Speed 5.5 km/h Distance 5.13 km</desc>
<time>2010-02-28T11:15:53.91</time>
<name>3585</name>
</trkpt>
<trkpt lat="48.936807" lon="8.686115">
<ele>369.5</ele>
<speed>5.5</speed>
<course>232.7</course>
<desc>Speed 5.5 km/h Distance 5.13 km</desc>
<time>2010-02-28T11:15:54.91</time>
<name>3586</name>
</trkpt>
<trkpt lat="48.936798" lon="8.686098">
<ele>369.5</ele>
<speed>5.6</speed>
<course>241.1</course>
<desc>Speed 5.6 km/h Distance 5.13 km</desc>
<time>2010-02-28T11:15:55.91</time>
<name>3587</name>
</trkpt>
<trkpt lat="48.936792" lon="8.686080">
<ele>369.5</ele>
<speed>5.4</speed>
<course>241.0</course>
<desc>Speed 5.4 km/h Distance 5.13 km</desc>
<time>2010-02-28T11:15:56.91</time>
<name>3588</name>
</trkpt>
<trkpt lat="48.936785" lon="8.686062">
<ele>369.5</ele>
<speed>5.6</speed>
<course>238.7</course>
<desc>Speed 5.6 km/h Distance 5.13 km</desc>
<time>2010-02-28T11:15:57.91</time>
<name>3589</name>
</trkpt>
<trkpt lat="48.936778" lon="8.686045">
<ele>369.5</ele>
<speed>5.4</speed>
<course>229.9</course>
<desc>Speed 5.4 km/h Distance 5.13 km</desc>
<time>2010-02-28T11:15:58.91</time>
<name>3590</name>
</trkpt>
<trkpt lat="48.936770" lon="8.686030">
<ele>369.5</ele>
<speed>5.3</speed>
<course>226.6</course>
<desc>Speed 5.3 km/h Distance 5.13 km</desc>
<time>2010-02-28T11:15:59.91</time>
<name>3591</name>
</trkpt>
<trkpt lat="48.936762" lon="8.686017">
<ele>370.0</ele>
<speed>4.7</speed>
<course>222.6</course>
<desc>Speed 4.7 km/h Distance 5.14 km</desc>
<time>2010-02-28T11:16:00.91</time>
<name>3592</name>
</trkpt>
<trkpt lat="48.936753" lon="8.686005">
<ele>370.0</ele>
<speed>4.6</speed>
<course>235.9</course>
<desc>Speed 4.6 km/h Distance 5.14 km</desc>
<time>2010-02-28T11:16:01.91</time>
<name>3593</name>
</trkpt>
<trkpt lat="48.936747" lon="8.685990">
<ele>370.0</ele>
<speed>5.0</speed>
<course>247.4</course>
<desc>Speed 5.0 km/h Distance 5.14 km</desc>
<time>2010-02-28T11:16:02.91</time>
<name>3594</name>
</trkpt>
<trkpt lat="48.936742" lon="8.685972">
<ele>370.0</ele>
<speed>5.1</speed>
<course>232.7</course>
<desc>Speed 5.1 km/h Distance 5.14 km</desc>
<time>2010-02-28T11:16:03.91</time>
<name>3595</name>
</trkpt>
<trkpt lat="48.936733" lon="8.685955">
<ele>370.0</ele>
<speed>5.4</speed>
<course>232.7</course>
<desc>Speed 5.4 km/h Distance 5.14 km</desc>
<time>2010-02-28T11:16:04.91</time>
<name>3596</name>
</trkpt>
<trkpt lat="48.936725" lon="8.685938">
<ele>370.0</ele>
<speed>5.6</speed>
<course>226.5</course>
<desc>Speed 5.6 km/h Distance 5.14 km</desc>
<time>2010-02-28T11:16:05.91</time>
<name>3597</name>
</trkpt>
<trkpt lat="48.936717" lon="8.685925">
<ele>370.0</ele>
<speed>5.2</speed>
<course>213.1</course>
<desc>Speed 5.2 km/h Distance 5.14 km</desc>
<time>2010-02-28T11:16:06.91</time>
<name>3598</name>
</trkpt>
<trkpt lat="48.936705" lon="8.685913">
<ele>370.5</ele>
<speed>5.3</speed>
<course>229.7</course>
<desc>Speed 5.3 km/h Distance 5.15 km</desc>
<time>2010-02-28T11:16:07.91</time>
<name>3599</name>
</trkpt>
<trkpt lat="48.936697" lon="8.685898">
<ele>370.5</ele>
<speed>5.4</speed>
<course>227.6</course>
<desc>Speed 5.4 km/h Distance 5.15 km</desc>
<time>2010-02-28T11:16:08.91</time>
<name>3600</name>
</trkpt>
<trkpt lat="48.936687" lon="8.685882">
<ele>370.5</ele>
<speed>5.7</speed>
<course>232.7</course>
<desc>Speed 5.7 km/h Distance 5.15 km</desc>
<time>2010-02-28T11:16:09.91</time>
<name>3601</name>
</trkpt>
<trkpt lat="48.936678" lon="8.685865">
<ele>370.5</ele>
<speed>5.8</speed>
<course>227.6</course>
<desc>Speed 5.8 km/h Distance 5.15 km</desc>
<time>2010-02-28T11:16:10.91</time>
<name>3602</name>
</trkpt>
<trkpt lat="48.936668" lon="8.685848">
<ele>370.5</ele>
<speed>5.6</speed>
<course>229.9</course>
<desc>Speed 5.6 km/h Distance 5.15 km</desc>
<time>2010-02-28T11:16:11.91</time>
<name>3603</name>
</trkpt>
<trkpt lat="48.936660" lon="8.685833">
<ele>370.5</ele>
<speed>5.5</speed>
<course>232.7</course>
<desc>Speed 5.5 km/h Distance 5.15 km</desc>
<time>2010-02-28T11:16:12.91</time>
<name>3604</name>
</trkpt>
<trkpt lat="48.936652" lon="8.685817">
<ele>370.5</ele>
<speed>5.7</speed>
<course>227.6</course>
<desc>Speed 5.7 km/h Distance 5.15 km</desc>
<time>2010-02-28T11:16:13.91</time>
<name>3605</name>
</trkpt>
<trkpt lat="48.936642" lon="8.685800">
<ele>370.5</ele>
<speed>5.7</speed>
<course>232.7</course>
<desc>Speed 5.7 km/h Distance 5.16 km</desc>
<time>2010-02-28T11:16:14.91</time>
<name>3606</name>
</trkpt>
<trkpt lat="48.936633" lon="8.685783">
<ele>370.5</ele>
<speed>5.7</speed>
<course>224.6</course>
<desc>Speed 5.7 km/h Distance 5.16 km</desc>
<time>2010-02-28T11:16:15.91</time>
<name>3607</name>
</trkpt>
<trkpt lat="48.936623" lon="8.685768">
<ele>370.5</ele>
<speed>5.8</speed>
<course>232.7</course>
<desc>Speed 5.8 km/h Distance 5.16 km</desc>
<time>2010-02-28T11:16:16.91</time>
<name>3608</name>
</trkpt>
<trkpt lat="48.936615" lon="8.685752">
<ele>370.5</ele>
<speed>5.8</speed>
<course>227.6</course>
<desc>Speed 5.8 km/h Distance 5.16 km</desc>
<time>2010-02-28T11:16:17.91</time>
<name>3609</name>
</trkpt>
<trkpt lat="48.936605" lon="8.685735">
<ele>370.5</ele>
<speed>5.8</speed>
<course>232.7</course>
<desc>Speed 5.8 km/h Distance 5.16 km</desc>
<time>2010-02-28T11:16:18.91</time>
<name>3610</name>
</trkpt>
<trkpt lat="48.936597" lon="8.685718">
<ele>370.5</ele>
<speed>5.7</speed>
<course>232.7</course>
<desc>Speed 5.7 km/h Distance 5.16 km</desc>
<time>2010-02-28T11:16:19.91</time>
<name>3611</name>
</trkpt>
<trkpt lat="48.936588" lon="8.685702">
<ele>370.5</ele>
<speed>5.6</speed>
<course>227.6</course>
<desc>Speed 5.6 km/h Distance 5.17 km</desc>
<time>2010-02-28T11:16:20.91</time>
<name>3612</name>
</trkpt>
<trkpt lat="48.936578" lon="8.685685">
<ele>370.5</ele>
<speed>5.6</speed>
<course>229.7</course>
<desc>Speed 5.6 km/h Distance 5.17 km</desc>
<time>2010-02-28T11:16:21.91</time>
<name>3613</name>
</trkpt>
<trkpt lat="48.936570" lon="8.685670">
<ele>370.5</ele>
<speed>5.3</speed>
<course>232.7</course>
<desc>Speed 5.3 km/h Distance 5.17 km</desc>
<time>2010-02-28T11:16:22.91</time>
<name>3614</name>
</trkpt>
<trkpt lat="48.936562" lon="8.685653">
<ele>370.5</ele>
<speed>5.4</speed>
<course>224.5</course>
<desc>Speed 5.4 km/h Distance 5.17 km</desc>
<time>2010-02-28T11:16:23.91</time>
<name>3615</name>
</trkpt>
<trkpt lat="48.936552" lon="8.685638">
<ele>370.5</ele>
<speed>5.5</speed>
<course>224.5</course>
<desc>Speed 5.5 km/h Distance 5.17 km</desc>
<time>2010-02-28T11:16:24.91</time>
<name>3616</name>
</trkpt>
<trkpt lat="48.936542" lon="8.685623">
<ele>370.5</ele>
<speed>5.5</speed>
<course>232.7</course>
<desc>Speed 5.5 km/h Distance 5.17 km</desc>
<time>2010-02-28T11:16:25.91</time>
<name>3617</name>
</trkpt>
<trkpt lat="48.936533" lon="8.685607">
<ele>370.5</ele>
<speed>5.7</speed>
<course>238.7</course>
<desc>Speed 5.7 km/h Distance 5.18 km</desc>
<time>2010-02-28T11:16:26.91</time>
<name>3618</name>
</trkpt>
<trkpt lat="48.936527" lon="8.685590">
<ele>370.5</ele>
<speed>5.4</speed>
<course>230.3</course>
<desc>Speed 5.4 km/h Distance 5.18 km</desc>
<time>2010-02-28T11:16:27.91</time>
<name>3619</name>
</trkpt>
<trkpt lat="48.936517" lon="8.685572">
<ele>370.5</ele>
<speed>5.9</speed>
<course>224.6</course>
<desc>Speed 5.9 km/h Distance 5.18 km</desc>
<time>2010-02-28T11:16:28.91</time>
<name>3620</name>
</trkpt>
<trkpt lat="48.936507" lon="8.685557">
<ele>370.5</ele>
<speed>5.5</speed>
<course>232.7</course>
<desc>Speed 5.5 km/h Distance 5.18 km</desc>
<time>2010-02-28T11:16:29.91</time>
<name>3621</name>
</trkpt>
<trkpt lat="48.936498" lon="8.685540">
<ele>370.5</ele>
<speed>5.5</speed>
<course>243.1</course>
<desc>Speed 5.5 km/h Distance 5.18 km</desc>
<time>2010-02-28T11:16:30.91</time>
<name>3622</name>
</trkpt>
<trkpt lat="48.936492" lon="8.685520">
<ele>370.5</ele>
<speed>5.7</speed>
<course>232.7</course>
<desc>Speed 5.7 km/h Distance 5.18 km</desc>
<time>2010-02-28T11:16:31.91</time>
<name>3623</name>
</trkpt>
<trkpt lat="48.936483" lon="8.685503">
<ele>371.0</ele>
<speed>5.5</speed>
<course>235.9</course>
<desc>Speed 5.5 km/h Distance 5.18 km</desc>
<time>2010-02-28T11:16:32.91</time>
<name>3624</name>
</trkpt>
<trkpt lat="48.936477" lon="8.685488">
<ele>371.0</ele>
<speed>5.3</speed>
<course>232.7</course>
<desc>Speed 5.3 km/h Distance 5.19 km</desc>
<time>2010-02-28T11:16:33.91</time>
<name>3625</name>
</trkpt>
<trkpt lat="48.936468" lon="8.685472">
<ele>371.0</ele>
<speed>5.3</speed>
<course>229.8</course>
<desc>Speed 5.3 km/h Distance 5.19 km</desc>
<time>2010-02-28T11:16:34.91</time>
<name>3626</name>
</trkpt>
<trkpt lat="48.936460" lon="8.685457">
<ele>371.0</ele>
<speed>5.3</speed>
<course>224.6</course>
<desc>Speed 5.3 km/h Distance 5.19 km</desc>
<time>2010-02-28T11:16:35.91</time>
<name>3627</name>
</trkpt>
<trkpt lat="48.936450" lon="8.685442">
<ele>371.0</ele>
<speed>5.5</speed>
<course>217.5</course>
<desc>Speed 5.5 km/h Distance 5.19 km</desc>
<time>2010-02-28T11:16:36.91</time>
<name>3628</name>
</trkpt>
<trkpt lat="48.936440" lon="8.685430">
<ele>371.0</ele>
<speed>5.7</speed>
<course>232.7</course>
<desc>Speed 5.7 km/h Distance 5.19 km</desc>
<time>2010-02-28T11:16:37.91</time>
<name>3629</name>
</trkpt>
<trkpt lat="48.936432" lon="8.685413">
<ele>371.0</ele>
<speed>5.4</speed>
<course>241.2</course>
<desc>Speed 5.4 km/h Distance 5.19 km</desc>
<time>2010-02-28T11:16:38.91</time>
<name>3630</name>
</trkpt>
<trkpt lat="48.936425" lon="8.685395">
<ele>371.0</ele>
<speed>5.4</speed>
<course>249.2</course>
<desc>Speed 5.4 km/h Distance 5.19 km</desc>
<time>2010-02-28T11:16:39.91</time>
<name>3631</name>
</trkpt>
<trkpt lat="48.936420" lon="8.685375">
<ele>371.0</ele>
<speed>5.3</speed>
<course>262.1</course>
<desc>Speed 5.3 km/h Distance 5.20 km</desc>
<time>2010-02-28T11:16:40.91</time>
<name>3632</name>
</trkpt>
<trkpt lat="48.936418" lon="8.685357">
<ele>371.0</ele>
<speed>5.2</speed>
<course>262.8</course>
<desc>Speed 5.2 km/h Distance 5.20 km</desc>
<time>2010-02-28T11:16:41.91</time>
<name>3633</name>
</trkpt>
<trkpt lat="48.936417" lon="8.685337">
<ele>371.5</ele>
<speed>5.1</speed>
<course>270.0</course>
<desc>Speed 5.1 km/h Distance 5.20 km</desc>
<time>2010-02-28T11:16:42.91</time>
<name>3634</name>
</trkpt>
<trkpt lat="48.936417" lon="8.685315">
<ele>371.5</ele>
<speed>5.6</speed>
<course>290.8</course>
<desc>Speed 5.6 km/h Distance 5.20 km</desc>
<time>2010-02-28T11:16:43.91</time>
<name>3635</name>
</trkpt>
<trkpt lat="48.936422" lon="8.685295">
<ele>371.5</ele>
<speed>5.5</speed>
<course>292.5</course>
<desc>Speed 5.5 km/h Distance 5.20 km</desc>
<time>2010-02-28T11:16:44.91</time>
<name>3636</name>
</trkpt>
<trkpt lat="48.936427" lon="8.685277">
<ele>371.0</ele>
<speed>5.5</speed>
<course>304.7</course>
<desc>Speed 5.5 km/h Distance 5.20 km</desc>
<time>2010-02-28T11:16:45.91</time>
<name>3637</name>
</trkpt>
<trkpt lat="48.936435" lon="8.685258">
<ele>371.0</ele>
<speed>5.5</speed>
<course>310.1</course>
<desc>Speed 5.5 km/h Distance 5.21 km</desc>
<time>2010-02-28T11:16:46.91</time>
<name>3638</name>
</trkpt>
<trkpt lat="48.936443" lon="8.685243">
<ele>371.0</ele>
<speed>5.5</speed>
<course>315.4</course>
<desc>Speed 5.5 km/h Distance 5.21 km</desc>
<time>2010-02-28T11:16:47.91</time>
<name>3639</name>
</trkpt>
<trkpt lat="48.936453" lon="8.685228">
<ele>371.0</ele>
<speed>5.4</speed>
<course>315.4</course>
<desc>Speed 5.4 km/h Distance 5.21 km</desc>
<time>2010-02-28T11:16:48.91</time>
<name>3640</name>
</trkpt>
<trkpt lat="48.936463" lon="8.685213">
<ele>371.0</ele>
<speed>5.6</speed>
<course>318.8</course>
<desc>Speed 5.6 km/h Distance 5.21 km</desc>
<time>2010-02-28T11:16:49.91</time>
<name>3641</name>
</trkpt>
<trkpt lat="48.936473" lon="8.685200">
<ele>370.5</ele>
<speed>5.7</speed>
<course>323.1</course>
<desc>Speed 5.7 km/h Distance 5.21 km</desc>
<time>2010-02-28T11:16:50.91</time>
<name>3642</name>
</trkpt>
<trkpt lat="48.936485" lon="8.685187">
<ele>370.5</ele>
<speed>5.7</speed>
<course>318.8</course>
<desc>Speed 5.7 km/h Distance 5.21 km</desc>
<time>2010-02-28T11:16:51.91</time>
<name>3643</name>
</trkpt>
<trkpt lat="48.936495" lon="8.685173">
<ele>370.5</ele>
<speed>5.5</speed>
<course>318.7</course>
<desc>Speed 5.5 km/h Distance 5.21 km</desc>
<time>2010-02-28T11:16:52.91</time>
<name>3644</name>
</trkpt>
<trkpt lat="48.936505" lon="8.685160">
<ele>370.0</ele>
<speed>5.5</speed>
<course>323.1</course>
<desc>Speed 5.5 km/h Distance 5.22 km</desc>
<time>2010-02-28T11:16:53.91</time>
<name>3645</name>
</trkpt>
<trkpt lat="48.936517" lon="8.685147">
<ele>370.0</ele>
<speed>5.6</speed>
<course>315.4</course>
<desc>Speed 5.6 km/h Distance 5.22 km</desc>
<time>2010-02-28T11:16:54.91</time>
<name>3646</name>
</trkpt>
<trkpt lat="48.936527" lon="8.685132">
<ele>370.0</ele>
<speed>5.5</speed>
<course>315.5</course>
<desc>Speed 5.5 km/h Distance 5.22 km</desc>
<time>2010-02-28T11:16:55.91</time>
<name>3647</name>
</trkpt>
<trkpt lat="48.936537" lon="8.685117">
<ele>370.0</ele>
<speed>5.7</speed>
<course>315.5</course>
<desc>Speed 5.7 km/h Distance 5.22 km</desc>
<time>2010-02-28T11:16:56.91</time>
<name>3648</name>
</trkpt>
<trkpt lat="48.936547" lon="8.685102">
<ele>370.0</ele>
<speed>5.5</speed>
<course>315.5</course>
<desc>Speed 5.5 km/h Distance 5.22 km</desc>
<time>2010-02-28T11:16:57.91</time>
<name>3649</name>
</trkpt>
<trkpt lat="48.936557" lon="8.685087">
<ele>369.5</ele>
<speed>5.6</speed>
<course>315.4</course>
<desc>Speed 5.6 km/h Distance 5.22 km</desc>
<time>2010-02-28T11:16:58.91</time>
<name>3650</name>
</trkpt>
<trkpt lat="48.936567" lon="8.685072">
<ele>369.5</ele>
<speed>5.8</speed>
<course>312.4</course>
<desc>Speed 5.8 km/h Distance 5.23 km</desc>
<time>2010-02-28T11:16:59.91</time>
<name>3651</name>
</trkpt>
<trkpt lat="48.936577" lon="8.685055">
<ele>369.5</ele>
<speed>5.8</speed>
<course>309.7</course>
<desc>Speed 5.8 km/h Distance 5.23 km</desc>
<time>2010-02-28T11:17:00.91</time>
<name>3652</name>
</trkpt>
<trkpt lat="48.936587" lon="8.685037">
<ele>369.5</ele>
<speed>6.0</speed>
<course>312.5</course>
<desc>Speed 6.0 km/h Distance 5.23 km</desc>
<time>2010-02-28T11:17:01.91</time>
<name>3653</name>
</trkpt>
<trkpt lat="48.936597" lon="8.685020">
<ele>369.5</ele>
<speed>5.7</speed>
<course>315.5</course>
<desc>Speed 5.7 km/h Distance 5.23 km</desc>
<time>2010-02-28T11:17:02.91</time>
<name>3654</name>
</trkpt>
<trkpt lat="48.936607" lon="8.685005">
<ele>369.5</ele>
<speed>5.8</speed>
<course>323.1</course>
<desc>Speed 5.8 km/h Distance 5.23 km</desc>
<time>2010-02-28T11:17:03.91</time>
<name>3655</name>
</trkpt>
<trkpt lat="48.936618" lon="8.684992">
<ele>369.5</ele>
<speed>5.7</speed>
<course>304.6</course>
<desc>Speed 5.7 km/h Distance 5.23 km</desc>
<time>2010-02-28T11:17:04.91</time>
<name>3656</name>
</trkpt>
<trkpt lat="48.936627" lon="8.684973">
<ele>369.0</ele>
<speed>5.8</speed>
<course>304.7</course>
<desc>Speed 5.8 km/h Distance 5.24 km</desc>
<time>2010-02-28T11:17:05.91</time>
<name>3657</name>
</trkpt>
<trkpt lat="48.936635" lon="8.684955">
<ele>369.0</ele>
<speed>5.8</speed>
<course>304.7</course>
<desc>Speed 5.8 km/h Distance 5.24 km</desc>
<time>2010-02-28T11:17:06.91</time>
<name>3658</name>
</trkpt>
<trkpt lat="48.936643" lon="8.684937">
<ele>369.0</ele>
<speed>6.0</speed>
<course>304.7</course>
<desc>Speed 6.0 km/h Distance 5.24 km</desc>
<time>2010-02-28T11:17:07.91</time>
<name>3659</name>
</trkpt>
<trkpt lat="48.936652" lon="8.684918">
<ele>369.0</ele>
<speed>6.0</speed>
<course>302.3</course>
<desc>Speed 6.0 km/h Distance 5.24 km</desc>
<time>2010-02-28T11:17:08.91</time>
<name>3660</name>
</trkpt>
<trkpt lat="48.936660" lon="8.684898">
<ele>369.0</ele>
<speed>5.9</speed>
<course>304.6</course>
<desc>Speed 5.9 km/h Distance 5.24 km</desc>
<time>2010-02-28T11:17:09.91</time>
<name>3661</name>
</trkpt>
<trkpt lat="48.936668" lon="8.684880">
<ele>369.0</ele>
<speed>6.0</speed>
<course>299.0</course>
<desc>Speed 6.0 km/h Distance 5.24 km</desc>
<time>2010-02-28T11:17:10.91</time>
<name>3662</name>
</trkpt>
<trkpt lat="48.936675" lon="8.684862">
<ele>369.0</ele>
<speed>5.9</speed>
<course>304.7</course>
<desc>Speed 5.9 km/h Distance 5.25 km</desc>
<time>2010-02-28T11:17:11.91</time>
<name>3663</name>
</trkpt>
<trkpt lat="48.936683" lon="8.684843">
<ele>369.0</ele>
<speed>5.6</speed>
<course>299.0</course>
<desc>Speed 5.6 km/h Distance 5.25 km</desc>
<time>2010-02-28T11:17:12.91</time>
<name>3664</name>
</trkpt>
<trkpt lat="48.936690" lon="8.684825">
<ele>368.5</ele>
<speed>5.5</speed>
<course>296.9</course>
<desc>Speed 5.5 km/h Distance 5.25 km</desc>
<time>2010-02-28T11:17:13.91</time>
<name>3665</name>
</trkpt>
<trkpt lat="48.936697" lon="8.684805">
<ele>368.5</ele>
<speed>5.6</speed>
<course>292.6</course>
<desc>Speed 5.6 km/h Distance 5.25 km</desc>
<time>2010-02-28T11:17:14.91</time>
<name>3666</name>
</trkpt>
<trkpt lat="48.936702" lon="8.684787">
<ele>368.5</ele>
<speed>5.5</speed>
<course>289.4</course>
<desc>Speed 5.5 km/h Distance 5.25 km</desc>
<time>2010-02-28T11:17:15.91</time>
<name>3667</name>
</trkpt>
<trkpt lat="48.936707" lon="8.684765">
<ele>368.5</ele>
<speed>5.8</speed>
<course>289.4</course>
<desc>Speed 5.8 km/h Distance 5.25 km</desc>
<time>2010-02-28T11:17:16.91</time>
<name>3668</name>
</trkpt>
<trkpt lat="48.936712" lon="8.684743">
<ele>368.5</ele>
<speed>5.9</speed>
<course>290.8</course>
<desc>Speed 5.9 km/h Distance 5.25 km</desc>
<time>2010-02-28T11:17:17.91</time>
<name>3669</name>
</trkpt>
<trkpt lat="48.936717" lon="8.684723">
<ele>368.5</ele>
<speed>5.6</speed>
<course>282.3</course>
<desc>Speed 5.6 km/h Distance 5.26 km</desc>
<time>2010-02-28T11:17:18.91</time>
<name>3670</name>
</trkpt>
<trkpt lat="48.936720" lon="8.684700">
<ele>368.5</ele>
<speed>5.7</speed>
<course>281.5</course>
<desc>Speed 5.7 km/h Distance 5.26 km</desc>
<time>2010-02-28T11:17:19.91</time>
<name>3671</name>
</trkpt>
<trkpt lat="48.936723" lon="8.684675">
<ele>368.5</ele>
<speed>6.2</speed>
<course>282.3</course>
<desc>Speed 6.2 km/h Distance 5.26 km</desc>
<time>2010-02-28T11:17:20.91</time>
<name>3672</name>
</trkpt>
<trkpt lat="48.936727" lon="8.684652">
<ele>368.5</ele>
<speed>6.0</speed>
<course>289.4</course>
<desc>Speed 6.0 km/h Distance 5.26 km</desc>
<time>2010-02-28T11:17:21.91</time>
<name>3673</name>
</trkpt>
<trkpt lat="48.936732" lon="8.684630">
<ele>368.0</ele>
<speed>5.7</speed>
<course>283.2</course>
<desc>Speed 5.7 km/h Distance 5.26 km</desc>
<time>2010-02-28T11:17:22.91</time>
<name>3674</name>
</trkpt>
<trkpt lat="48.936735" lon="8.684608">
<ele>368.0</ele>
<speed>5.8</speed>
<course>275.8</course>
<desc>Speed 5.8 km/h Distance 5.27 km</desc>
<time>2010-02-28T11:17:23.91</time>
<name>3675</name>
</trkpt>
<trkpt lat="48.936737" lon="8.684583">
<ele>368.0</ele>
<speed>5.9</speed>
<course>276.7</course>
<desc>Speed 5.9 km/h Distance 5.27 km</desc>
<time>2010-02-28T11:17:24.91</time>
<name>3676</name>
</trkpt>
<trkpt lat="48.936738" lon="8.684562">
<ele>368.0</ele>
<speed>5.9</speed>
<course>289.4</course>
<desc>Speed 5.9 km/h Distance 5.27 km</desc>
<time>2010-02-28T11:17:25.91</time>
<name>3677</name>
</trkpt>
<trkpt lat="48.936743" lon="8.684540">
<ele>368.0</ele>
<speed>5.4</speed>
<course>284.2</course>
<desc>Speed 5.4 km/h Distance 5.27 km</desc>
<time>2010-02-28T11:17:26.91</time>
<name>3678</name>
</trkpt>
<trkpt lat="48.936747" lon="8.684520">
<ele>368.0</ele>
<speed>5.3</speed>
<course>270.0</course>
<desc>Speed 5.3 km/h Distance 5.27 km</desc>
<time>2010-02-28T11:17:27.91</time>
<name>3679</name>
</trkpt>
<trkpt lat="48.936747" lon="8.684503">
<ele>368.0</ele>
<speed>4.0</speed>
<course>180.0</course>
<desc>Speed 4.0 km/h Distance 5.27 km</desc>
<time>2010-02-28T11:17:28.91</time>
<name>3680</name>
</trkpt>
<trkpt lat="48.936737" lon="8.684503">
<ele>369.0</ele>
<speed>4.4</speed>
<course>270.0</course>
<desc>Speed 4.4 km/h Distance 5.27 km</desc>
<time>2010-02-28T11:17:29.91</time>
<name>3681</name>
</trkpt>
<trkpt lat="48.936737" lon="8.684502">
<ele>369.0</ele>
<speed>0.5</speed>
<course>307.2</course>
<desc>Speed 0.5 km/h Distance 5.27 km</desc>
<time>2010-02-28T11:17:30.91</time>
<name>3682</name>
</trkpt>
<trkpt lat="48.936743" lon="8.684488">
<ele>369.5</ele>
<speed>4.5</speed>
<course>284.2</course>
<desc>Speed 4.5 km/h Distance 5.28 km</desc>
<time>2010-02-28T11:17:31.91</time>
<name>3683</name>
</trkpt>
<trkpt lat="48.936747" lon="8.684468">
<ele>369.5</ele>
<speed>5.0</speed>
<course>270.0</course>
<desc>Speed 5.0 km/h Distance 5.28 km</desc>
<time>2010-02-28T11:17:32.91</time>
<name>3684</name>
</trkpt>
<trkpt lat="48.936747" lon="8.684450">
<ele>369.5</ele>
<speed>4.9</speed>
<course>283.2</course>
<desc>Speed 4.9 km/h Distance 5.28 km</desc>
<time>2010-02-28T11:17:33.91</time>
<name>3685</name>
</trkpt>
<trkpt lat="48.936750" lon="8.684428">
<ele>369.5</ele>
<speed>5.7</speed>
<course>276.2</course>
<desc>Speed 5.7 km/h Distance 5.28 km</desc>
<time>2010-02-28T11:17:34.91</time>
<name>3686</name>
</trkpt>
<trkpt lat="48.936752" lon="8.684405">
<ele>369.5</ele>
<speed>5.9</speed>
<course>276.2</course>
<desc>Speed 5.9 km/h Distance 5.28 km</desc>
<time>2010-02-28T11:17:35.91</time>
<name>3687</name>
</trkpt>
<trkpt lat="48.936753" lon="8.684382">
<ele>369.5</ele>
<speed>5.9</speed>
<course>283.2</course>
<desc>Speed 5.9 km/h Distance 5.28 km</desc>
<time>2010-02-28T11:17:36.91</time>
<name>3688</name>
</trkpt>
<trkpt lat="48.936757" lon="8.684360">
<ele>369.5</ele>
<speed>5.8</speed>
<course>289.3</course>
<desc>Speed 5.8 km/h Distance 5.28 km</desc>
<time>2010-02-28T11:17:37.91</time>
<name>3689</name>
</trkpt>
<trkpt lat="48.936762" lon="8.684338">
<ele>369.5</ele>
<speed>5.8</speed>
<course>283.2</course>
<desc>Speed 5.8 km/h Distance 5.29 km</desc>
<time>2010-02-28T11:17:38.91</time>
<name>3690</name>
</trkpt>
<trkpt lat="48.936765" lon="8.684317">
<ele>369.5</ele>
<speed>5.8</speed>
<course>282.3</course>
<desc>Speed 5.8 km/h Distance 5.29 km</desc>
<time>2010-02-28T11:17:39.91</time>
<name>3691</name>
</trkpt>
<trkpt lat="48.936768" lon="8.684293">
<ele>369.0</ele>
<speed>5.9</speed>
<course>270.0</course>
<desc>Speed 5.9 km/h Distance 5.29 km</desc>
<time>2010-02-28T11:17:40.91</time>
<name>3692</name>
</trkpt>
<trkpt lat="48.936768" lon="8.684270">
<ele>369.0</ele>
<speed>5.9</speed>
<course>275.8</course>
<desc>Speed 5.9 km/h Distance 5.29 km</desc>
<time>2010-02-28T11:17:41.91</time>
<name>3693</name>
</trkpt>
<trkpt lat="48.936770" lon="8.684245">
<ele>369.0</ele>
<speed>6.2</speed>
<course>275.8</course>
<desc>Speed 6.2 km/h Distance 5.29 km</desc>
<time>2010-02-28T11:17:42.91</time>
<name>3694</name>
</trkpt>
<trkpt lat="48.936772" lon="8.684220">
<ele>369.0</ele>
<speed>6.3</speed>
<course>283.2</course>
<desc>Speed 6.3 km/h Distance 5.30 km</desc>
<time>2010-02-28T11:17:43.91</time>
<name>3695</name>
</trkpt>
<trkpt lat="48.936775" lon="8.684198">
<ele>369.0</ele>
<speed>6.0</speed>
<course>283.2</course>
<desc>Speed 6.0 km/h Distance 5.30 km</desc>
<time>2010-02-28T11:17:44.91</time>
<name>3696</name>
</trkpt>
<trkpt lat="48.936778" lon="8.684177">
<ele>369.0</ele>
<speed>5.8</speed>
<course>276.2</course>
<desc>Speed 5.8 km/h Distance 5.30 km</desc>
<time>2010-02-28T11:17:45.91</time>
<name>3697</name>
</trkpt>
<trkpt lat="48.936780" lon="8.684153">
<ele>369.0</ele>
<speed>5.7</speed>
<course>276.7</course>
<desc>Speed 5.7 km/h Distance 5.30 km</desc>
<time>2010-02-28T11:17:46.91</time>
<name>3698</name>
</trkpt>
<trkpt lat="48.936782" lon="8.684132">
<ele>369.0</ele>
<speed>6.1</speed>
<course>276.2</course>
<desc>Speed 6.1 km/h Distance 5.30 km</desc>
<time>2010-02-28T11:17:47.91</time>
<name>3699</name>
</trkpt>
<trkpt lat="48.936783" lon="8.684108">
<ele>369.0</ele>
<speed>6.2</speed>
<course>282.3</course>
<desc>Speed 6.2 km/h Distance 5.30 km</desc>
<time>2010-02-28T11:17:48.91</time>
<name>3700</name>
</trkpt>
<trkpt lat="48.936787" lon="8.684085">
<ele>369.0</ele>
<speed>6.3</speed>
<course>276.7</course>
<desc>Speed 6.3 km/h Distance 5.31 km</desc>
<time>2010-02-28T11:17:49.91</time>
<name>3701</name>
</trkpt>
<trkpt lat="48.936788" lon="8.684063">
<ele>369.0</ele>
<speed>5.7</speed>
<course>282.3</course>
<desc>Speed 5.7 km/h Distance 5.31 km</desc>
<time>2010-02-28T11:17:50.91</time>
<name>3702</name>
</trkpt>
<trkpt lat="48.936792" lon="8.684040">
<ele>368.5</ele>
<speed>6.0</speed>
<course>277.2</course>
<desc>Speed 6.0 km/h Distance 5.31 km</desc>
<time>2010-02-28T11:17:51.91</time>
<name>3703</name>
</trkpt>
<trkpt lat="48.936793" lon="8.684020">
<ele>368.5</ele>
<speed>5.7</speed>
<course>289.4</course>
<desc>Speed 5.7 km/h Distance 5.31 km</desc>
<time>2010-02-28T11:17:52.91</time>
<name>3704</name>
</trkpt>
<trkpt lat="48.936798" lon="8.683998">
<ele>368.5</ele>
<speed>5.8</speed>
<course>295.1</course>
<desc>Speed 5.8 km/h Distance 5.31 km</desc>
<time>2010-02-28T11:17:53.91</time>
<name>3705</name>
</trkpt>
<trkpt lat="48.936805" lon="8.683977">
<ele>368.5</ele>
<speed>6.0</speed>
<course>295.1</course>
<desc>Speed 6.0 km/h Distance 5.31 km</desc>
<time>2010-02-28T11:17:54.91</time>
<name>3706</name>
</trkpt>
<trkpt lat="48.936812" lon="8.683955">
<ele>368.5</ele>
<speed>6.2</speed>
<course>295.1</course>
<desc>Speed 6.2 km/h Distance 5.32 km</desc>
<time>2010-02-28T11:17:55.91</time>
<name>3707</name>
</trkpt>
<trkpt lat="48.936818" lon="8.683933">
<ele>368.5</ele>
<speed>6.0</speed>
<course>290.8</course>
<desc>Speed 6.0 km/h Distance 5.32 km</desc>
<time>2010-02-28T11:17:56.91</time>
<name>3708</name>
</trkpt>
<trkpt lat="48.936823" lon="8.683913">
<ele>368.5</ele>
<speed>5.6</speed>
<course>290.8</course>
<desc>Speed 5.6 km/h Distance 5.32 km</desc>
<time>2010-02-28T11:17:57.91</time>
<name>3709</name>
</trkpt>
<trkpt lat="48.936828" lon="8.683893">
<ele>368.5</ele>
<speed>5.7</speed>
<course>307.3</course>
<desc>Speed 5.7 km/h Distance 5.32 km</desc>
<time>2010-02-28T11:17:58.91</time>
<name>3710</name>
</trkpt>
<trkpt lat="48.936837" lon="8.683877">
<ele>368.5</ele>
<speed>5.7</speed>
<course>326.6</course>
<desc>Speed 5.7 km/h Distance 5.32 km</desc>
<time>2010-02-28T11:17:59.91</time>
<name>3711</name>
</trkpt>
<trkpt lat="48.936850" lon="8.683863">
<ele>368.5</ele>
<speed>5.7</speed>
<course>337.7</course>
<desc>Speed 5.7 km/h Distance 5.32 km</desc>
<time>2010-02-28T11:18:00.91</time>
<name>3712</name>
</trkpt>
<trkpt lat="48.936863" lon="8.683855">
<ele>368.0</ele>
<speed>5.6</speed>
<course>3.8</course>
<desc>Speed 5.6 km/h Distance 5.33 km</desc>
<time>2010-02-28T11:18:01.91</time>
<name>3713</name>
</trkpt>
<trkpt lat="48.936878" lon="8.683857">
<ele>368.0</ele>
<speed>5.5</speed>
<course>3.8</course>
<desc>Speed 5.5 km/h Distance 5.33 km</desc>
<time>2010-02-28T11:18:02.91</time>
<name>3714</name>
</trkpt>
<trkpt lat="48.936893" lon="8.683858">
<ele>368.0</ele>
<speed>6.0</speed>
<course>12.2</course>
<desc>Speed 6.0 km/h Distance 5.33 km</desc>
<time>2010-02-28T11:18:03.91</time>
<name>3715</name>
</trkpt>
<trkpt lat="48.936908" lon="8.683863">
<ele>368.0</ele>
<speed>5.8</speed>
<course>18.1</course>
<desc>Speed 5.8 km/h Distance 5.33 km</desc>
<time>2010-02-28T11:18:04.91</time>
<name>3716</name>
</trkpt>
<trkpt lat="48.936922" lon="8.683870">
<ele>368.0</ele>
<speed>5.6</speed>
<course>29.4</course>
<desc>Speed 5.6 km/h Distance 5.33 km</desc>
<time>2010-02-28T11:18:05.91</time>
<name>3717</name>
</trkpt>
<trkpt lat="48.936933" lon="8.683880">
<ele>368.0</ele>
<speed>5.4</speed>
<course>16.3</course>
<desc>Speed 5.4 km/h Distance 5.33 km</desc>
<time>2010-02-28T11:18:06.91</time>
<name>3718</name>
</trkpt>
<trkpt lat="48.936948" lon="8.683887">
<ele>368.0</ele>
<speed>5.4</speed>
<course>9.7</course>
<desc>Speed 5.4 km/h Distance 5.34 km</desc>
<time>2010-02-28T11:18:07.91</time>
<name>3719</name>
</trkpt>
<trkpt lat="48.936962" lon="8.683890">
<ele>368.0</ele>
<speed>5.8</speed>
<course>12.6</course>
<desc>Speed 5.8 km/h Distance 5.34 km</desc>
<time>2010-02-28T11:18:08.91</time>
<name>3720</name>
</trkpt>
<trkpt lat="48.936977" lon="8.683895">
<ele>368.0</ele>
<speed>5.8</speed>
<course>2.8</course>
<desc>Speed 5.8 km/h Distance 5.34 km</desc>
<time>2010-02-28T11:18:09.91</time>
<name>3721</name>
</trkpt>
<trkpt lat="48.936993" lon="8.683897">
<ele>368.0</ele>
<speed>6.0</speed>
<course>351.0</course>
<desc>Speed 6.0 km/h Distance 5.34 km</desc>
<time>2010-02-28T11:18:10.91</time>
<name>3722</name>
</trkpt>
<trkpt lat="48.937007" lon="8.683893">
<ele>368.0</ele>
<speed>5.9</speed>
<course>343.7</course>
<desc>Speed 5.9 km/h Distance 5.34 km</desc>
<time>2010-02-28T11:18:11.91</time>
<name>3723</name>
</trkpt>
<trkpt lat="48.937022" lon="8.683887">
<ele>368.0</ele>
<speed>5.8</speed>
<course>341.9</course>
<desc>Speed 5.8 km/h Distance 5.34 km</desc>
<time>2010-02-28T11:18:12.91</time>
<name>3724</name>
</trkpt>
<trkpt lat="48.937035" lon="8.683880">
<ele>368.0</ele>
<speed>5.6</speed>
<course>315.5</course>
<desc>Speed 5.6 km/h Distance 5.34 km</desc>
<time>2010-02-28T11:18:13.91</time>
<name>3725</name>
</trkpt>
<trkpt lat="48.937045" lon="8.683865">
<ele>368.0</ele>
<speed>5.6</speed>
<course>326.9</course>
<desc>Speed 5.6 km/h Distance 5.35 km</desc>
<time>2010-02-28T11:18:14.91</time>
<name>3726</name>
</trkpt>
<trkpt lat="48.937057" lon="8.683853">
<ele>368.5</ele>
<speed>5.4</speed>
<course>315.5</course>
<desc>Speed 5.4 km/h Distance 5.35 km</desc>
<time>2010-02-28T11:18:15.91</time>
<name>3727</name>
</trkpt>
<trkpt lat="48.937067" lon="8.683838">
<ele>368.5</ele>
<speed>5.7</speed>
<course>304.7</course>
<desc>Speed 5.7 km/h Distance 5.35 km</desc>
<time>2010-02-28T11:18:16.91</time>
<name>3728</name>
</trkpt>
<trkpt lat="48.937075" lon="8.683820">
<ele>368.5</ele>
<speed>5.6</speed>
<course>301.3</course>
<desc>Speed 5.6 km/h Distance 5.35 km</desc>
<time>2010-02-28T11:18:17.91</time>
<name>3729</name>
</trkpt>
<trkpt lat="48.937082" lon="8.683803">
<ele>368.5</ele>
<speed>5.3</speed>
<course>292.6</course>
<desc>Speed 5.3 km/h Distance 5.35 km</desc>
<time>2010-02-28T11:18:18.91</time>
<name>3730</name>
</trkpt>
<trkpt lat="48.937087" lon="8.683785">
<ele>368.5</ele>
<speed>5.3</speed>
<course>289.4</course>
<desc>Speed 5.3 km/h Distance 5.35 km</desc>
<time>2010-02-28T11:18:19.91</time>
<name>3731</name>
</trkpt>
<trkpt lat="48.937092" lon="8.683763">
<ele>368.5</ele>
<speed>5.8</speed>
<course>290.8</course>
<desc>Speed 5.8 km/h Distance 5.36 km</desc>
<time>2010-02-28T11:18:20.91</time>
<name>3732</name>
</trkpt>
<trkpt lat="48.937097" lon="8.683743">
<ele>368.5</ele>
<speed>5.5</speed>
<course>301.3</course>
<desc>Speed 5.5 km/h Distance 5.36 km</desc>
<time>2010-02-28T11:18:21.91</time>
<name>3733</name>
</trkpt>
<trkpt lat="48.937103" lon="8.683727">
<ele>368.5</ele>
<speed>5.2</speed>
<course>294.6</course>
<desc>Speed 5.2 km/h Distance 5.36 km</desc>
<time>2010-02-28T11:18:22.91</time>
<name>3734</name>
</trkpt>
<trkpt lat="48.937108" lon="8.683710">
<ele>368.5</ele>
<speed>4.9</speed>
<course>286.9</course>
<desc>Speed 4.9 km/h Distance 5.36 km</desc>
<time>2010-02-28T11:18:23.91</time>
<name>3735</name>
</trkpt>
<trkpt lat="48.937112" lon="8.683693">
<ele>368.5</ele>
<speed>4.8</speed>
<course>307.3</course>
<desc>Speed 4.8 km/h Distance 5.36 km</desc>
<time>2010-02-28T11:18:24.91</time>
<name>3736</name>
</trkpt>
<trkpt lat="48.937120" lon="8.683677">
<ele>368.5</ele>
<speed>5.2</speed>
<course>301.3</course>
<desc>Speed 5.2 km/h Distance 5.36 km</desc>
<time>2010-02-28T11:18:25.91</time>
<name>3737</name>
</trkpt>
<trkpt lat="48.937127" lon="8.683660">
<ele>368.5</ele>
<speed>5.4</speed>
<course>298.9</course>
<desc>Speed 5.4 km/h Distance 5.36 km</desc>
<time>2010-02-28T11:18:26.91</time>
<name>3738</name>
</trkpt>
<trkpt lat="48.937133" lon="8.683642">
<ele>368.5</ele>
<speed>5.2</speed>
<course>307.3</course>
<desc>Speed 5.2 km/h Distance 5.37 km</desc>
<time>2010-02-28T11:18:27.91</time>
<name>3739</name>
</trkpt>
<trkpt lat="48.937142" lon="8.683625">
<ele>368.5</ele>
<speed>5.2</speed>
<course>301.3</course>
<desc>Speed 5.2 km/h Distance 5.37 km</desc>
<time>2010-02-28T11:18:28.91</time>
<name>3740</name>
</trkpt>
<trkpt lat="48.937148" lon="8.683608">
<ele>368.5</ele>
<speed>5.3</speed>
<course>301.4</course>
<desc>Speed 5.3 km/h Distance 5.37 km</desc>
<time>2010-02-28T11:18:29.91</time>
<name>3741</name>
</trkpt>
<trkpt lat="48.937155" lon="8.683592">
<ele>368.5</ele>
<speed>5.0</speed>
<course>299.0</course>
<desc>Speed 5.0 km/h Distance 5.37 km</desc>
<time>2010-02-28T11:18:30.91</time>
<name>3742</name>
</trkpt>
<trkpt lat="48.937162" lon="8.683573">
<ele>368.5</ele>
<speed>5.5</speed>
<course>310.3</course>
<desc>Speed 5.5 km/h Distance 5.37 km</desc>
<time>2010-02-28T11:18:31.91</time>
<name>3743</name>
</trkpt>
<trkpt lat="48.937170" lon="8.683558">
<ele>368.5</ele>
<speed>5.4</speed>
<course>299.0</course>
<desc>Speed 5.4 km/h Distance 5.37 km</desc>
<time>2010-02-28T11:18:32.91</time>
<name>3744</name>
</trkpt>
<trkpt lat="48.937177" lon="8.683540">
<ele>369.0</ele>
<speed>5.5</speed>
<course>290.8</course>
<desc>Speed 5.5 km/h Distance 5.37 km</desc>
<time>2010-02-28T11:18:33.91</time>
<name>3745</name>
</trkpt>
<trkpt lat="48.937182" lon="8.683520">
<ele>369.0</ele>
<speed>5.4</speed>
<course>284.2</course>
<desc>Speed 5.4 km/h Distance 5.38 km</desc>
<time>2010-02-28T11:18:34.91</time>
<name>3746</name>
</trkpt>
<trkpt lat="48.937185" lon="8.683500">
<ele>369.5</ele>
<speed>5.5</speed>
<course>323.1</course>
<desc>Speed 5.5 km/h Distance 5.38 km</desc>
<time>2010-02-28T11:18:35.91</time>
<name>3747</name>
</trkpt>
<trkpt lat="48.937197" lon="8.683487">
<ele>369.0</ele>
<speed>5.8</speed>
<course>302.3</course>
<desc>Speed 5.8 km/h Distance 5.38 km</desc>
<time>2010-02-28T11:18:36.91</time>
<name>3748</name>
</trkpt>
<trkpt lat="48.937205" lon="8.683467">
<ele>369.0</ele>
<speed>5.8</speed>
<course>301.4</course>
<desc>Speed 5.8 km/h Distance 5.38 km</desc>
<time>2010-02-28T11:18:37.91</time>
<name>3749</name>
</trkpt>
<trkpt lat="48.937212" lon="8.683450">
<ele>369.0</ele>
<speed>5.4</speed>
<course>299.0</course>
<desc>Speed 5.4 km/h Distance 5.38 km</desc>
<time>2010-02-28T11:18:38.91</time>
<name>3750</name>
</trkpt>
<trkpt lat="48.937218" lon="8.683432">
<ele>369.0</ele>
<speed>5.5</speed>
<course>316.8</course>
<desc>Speed 5.5 km/h Distance 5.38 km</desc>
<time>2010-02-28T11:18:39.91</time>
<name>3751</name>
</trkpt>
<trkpt lat="48.937230" lon="8.683415">
<ele>368.5</ele>
<speed>5.7</speed>
<course>310.3</course>
<desc>Speed 5.7 km/h Distance 5.39 km</desc>
<time>2010-02-28T11:18:40.91</time>
<name>3752</name>
</trkpt>
<trkpt lat="48.937238" lon="8.683400">
<ele>368.5</ele>
<speed>5.2</speed>
<course>307.3</course>
<desc>Speed 5.2 km/h Distance 5.39 km</desc>
<time>2010-02-28T11:18:41.91</time>
<name>3753</name>
</trkpt>
<trkpt lat="48.937247" lon="8.683383">
<ele>368.5</ele>
<speed>5.4</speed>
<course>307.3</course>
<desc>Speed 5.4 km/h Distance 5.39 km</desc>
<time>2010-02-28T11:18:42.91</time>
<name>3754</name>
</trkpt>
<trkpt lat="48.937255" lon="8.683367">
<ele>368.5</ele>
<speed>5.5</speed>
<course>307.3</course>
<desc>Speed 5.5 km/h Distance 5.39 km</desc>
<time>2010-02-28T11:18:43.91</time>
<name>3755</name>
</trkpt>
<trkpt lat="48.937263" lon="8.683350">
<ele>368.5</ele>
<speed>5.5</speed>
<course>307.3</course>
<desc>Speed 5.5 km/h Distance 5.39 km</desc>
<time>2010-02-28T11:18:44.91</time>
<name>3756</name>
</trkpt>
<trkpt lat="48.937270" lon="8.683337">
<ele>368.5</ele>
<speed>4.5</speed>
<course>301.3</course>
<desc>Speed 4.5 km/h Distance 5.39 km</desc>
<time>2010-02-28T11:18:45.91</time>
<name>3757</name>
</trkpt>
<trkpt lat="48.937277" lon="8.683320">
<ele>369.0</ele>
<speed>5.1</speed>
<course>315.5</course>
<desc>Speed 5.1 km/h Distance 5.39 km</desc>
<time>2010-02-28T11:18:46.91</time>
<name>3758</name>
</trkpt>
<trkpt lat="48.937283" lon="8.683310">
<ele>368.5</ele>
<speed>3.8</speed>
<course>294.5</course>
<desc>Speed 3.8 km/h Distance 5.40 km</desc>
<time>2010-02-28T11:18:47.91</time>
<name>3759</name>
</trkpt>
<trkpt lat="48.937288" lon="8.683293">
<ele>368.5</ele>
<speed>5.1</speed>
<course>301.3</course>
<desc>Speed 5.1 km/h Distance 5.40 km</desc>
<time>2010-02-28T11:18:48.91</time>
<name>3760</name>
</trkpt>
<trkpt lat="48.937295" lon="8.683277">
<ele>368.5</ele>
<speed>4.9</speed>
<course>310.9</course>
<desc>Speed 4.9 km/h Distance 5.40 km</desc>
<time>2010-02-28T11:18:49.91</time>
<name>3761</name>
</trkpt>
<trkpt lat="48.937302" lon="8.683265">
<ele>368.0</ele>
<speed>4.1</speed>
<course>326.8</course>
<desc>Speed 4.1 km/h Distance 5.40 km</desc>
<time>2010-02-28T11:18:50.91</time>
<name>3762</name>
</trkpt>
<trkpt lat="48.937312" lon="8.683255">
<ele>367.5</ele>
<speed>4.4</speed>
<course>326.7</course>
<desc>Speed 4.4 km/h Distance 5.40 km</desc>
<time>2010-02-28T11:18:51.91</time>
<name>3763</name>
</trkpt>
<trkpt lat="48.937323" lon="8.683243">
<ele>367.5</ele>
<speed>5.1</speed>
<course>307.3</course>
<desc>Speed 5.1 km/h Distance 5.40 km</desc>
<time>2010-02-28T11:18:52.91</time>
<name>3764</name>
</trkpt>
<trkpt lat="48.937332" lon="8.683227">
<ele>367.0</ele>
<speed>5.8</speed>
<course>314.1</course>
<desc>Speed 5.8 km/h Distance 5.40 km</desc>
<time>2010-02-28T11:18:53.91</time>
<name>3765</name>
</trkpt>
<trkpt lat="48.937343" lon="8.683208">
<ele>367.5</ele>
<speed>6.0</speed>
<course>315.5</course>
<desc>Speed 6.0 km/h Distance 5.41 km</desc>
<time>2010-02-28T11:18:54.91</time>
<name>3766</name>
</trkpt>
<trkpt lat="48.937353" lon="8.683193">
<ele>367.0</ele>
<speed>5.4</speed>
<course>315.5</course>
<desc>Speed 5.4 km/h Distance 5.41 km</desc>
<time>2010-02-28T11:18:55.91</time>
<name>3767</name>
</trkpt>
<trkpt lat="48.937363" lon="8.683178">
<ele>367.0</ele>
<speed>5.5</speed>
<course>312.5</course>
<desc>Speed 5.5 km/h Distance 5.41 km</desc>
<time>2010-02-28T11:18:56.91</time>
<name>3768</name>
</trkpt>
<trkpt lat="48.937373" lon="8.683162">
<ele>367.0</ele>
<speed>5.7</speed>
<course>312.4</course>
<desc>Speed 5.7 km/h Distance 5.41 km</desc>
<time>2010-02-28T11:18:57.91</time>
<name>3769</name>
</trkpt>
<trkpt lat="48.937383" lon="8.683145">
<ele>367.0</ele>
<speed>5.6</speed>
<course>312.4</course>
<desc>Speed 5.6 km/h Distance 5.41 km</desc>
<time>2010-02-28T11:18:58.91</time>
<name>3770</name>
</trkpt>
<trkpt lat="48.937393" lon="8.683128">
<ele>367.0</ele>
<speed>5.9</speed>
<course>309.7</course>
<desc>Speed 5.9 km/h Distance 5.41 km</desc>
<time>2010-02-28T11:18:59.91</time>
<name>3771</name>
</trkpt>
<trkpt lat="48.937403" lon="8.683110">
<ele>367.5</ele>
<speed>5.8</speed>
<course>307.3</course>
<desc>Speed 5.8 km/h Distance 5.42 km</desc>
<time>2010-02-28T11:19:00.91</time>
<name>3772</name>
</trkpt>
<trkpt lat="48.937412" lon="8.683093">
<ele>367.5</ele>
<speed>5.4</speed>
<course>307.3</course>
<desc>Speed 5.4 km/h Distance 5.42 km</desc>
<time>2010-02-28T11:19:01.91</time>
<name>3773</name>
</trkpt>
<trkpt lat="48.937420" lon="8.683077">
<ele>367.5</ele>
<speed>5.7</speed>
<course>299.0</course>
<desc>Speed 5.7 km/h Distance 5.42 km</desc>
<time>2010-02-28T11:19:02.91</time>
<name>3774</name>
</trkpt>
<trkpt lat="48.937427" lon="8.683058">
<ele>367.5</ele>
<speed>5.7</speed>
<course>302.4</course>
<desc>Speed 5.7 km/h Distance 5.42 km</desc>
<time>2010-02-28T11:19:03.91</time>
<name>3775</name>
</trkpt>
<trkpt lat="48.937435" lon="8.683038">
<ele>367.5</ele>
<speed>5.8</speed>
<course>296.9</course>
<desc>Speed 5.8 km/h Distance 5.42 km</desc>
<time>2010-02-28T11:19:04.91</time>
<name>3776</name>
</trkpt>
<trkpt lat="48.937442" lon="8.683018">
<ele>367.5</ele>
<speed>5.8</speed>
<course>300.3</course>
<desc>Speed 5.8 km/h Distance 5.42 km</desc>
<time>2010-02-28T11:19:05.91</time>
<name>3777</name>
</trkpt>
<trkpt lat="48.937450" lon="8.682997">
<ele>368.0</ele>
<speed>5.9</speed>
<course>315.4</course>
<desc>Speed 5.9 km/h Distance 5.43 km</desc>
<time>2010-02-28T11:19:06.91</time>
<name>3778</name>
</trkpt>
<trkpt lat="48.937460" lon="8.682982">
<ele>367.5</ele>
<speed>5.9</speed>
<course>289.4</course>
<desc>Speed 5.9 km/h Distance 5.43 km</desc>
<time>2010-02-28T11:19:07.91</time>
<name>3779</name>
</trkpt>
<trkpt lat="48.937465" lon="8.682960">
<ele>367.5</ele>
<speed>5.8</speed>
<course>289.4</course>
<desc>Speed 5.8 km/h Distance 5.43 km</desc>
<time>2010-02-28T11:19:08.91</time>
<name>3780</name>
</trkpt>
<trkpt lat="48.937470" lon="8.682938">
<ele>367.5</ele>
<speed>5.9</speed>
<course>289.4</course>
<desc>Speed 5.9 km/h Distance 5.43 km</desc>
<time>2010-02-28T11:19:09.91</time>
<name>3781</name>
</trkpt>
<trkpt lat="48.937475" lon="8.682917">
<ele>367.5</ele>
<speed>5.7</speed>
<course>299.0</course>
<desc>Speed 5.7 km/h Distance 5.43 km</desc>
<time>2010-02-28T11:19:10.91</time>
<name>3782</name>
</trkpt>
<trkpt lat="48.937482" lon="8.682898">
<ele>367.5</ele>
<speed>5.6</speed>
<course>300.4</course>
<desc>Speed 5.6 km/h Distance 5.43 km</desc>
<time>2010-02-28T11:19:11.91</time>
<name>3783</name>
</trkpt>
<trkpt lat="48.937490" lon="8.682877">
<ele>367.5</ele>
<speed>5.8</speed>
<course>295.1</course>
<desc>Speed 5.8 km/h Distance 5.44 km</desc>
<time>2010-02-28T11:19:12.91</time>
<name>3784</name>
</trkpt>
<trkpt lat="48.937497" lon="8.682855">
<ele>367.5</ele>
<speed>6.0</speed>
<course>300.4</course>
<desc>Speed 6.0 km/h Distance 5.44 km</desc>
<time>2010-02-28T11:19:13.91</time>
<name>3785</name>
</trkpt>
<trkpt lat="48.937505" lon="8.682833">
<ele>368.0</ele>
<speed>6.0</speed>
<course>304.7</course>
<desc>Speed 6.0 km/h Distance 5.44 km</desc>
<time>2010-02-28T11:19:14.91</time>
<name>3786</name>
</trkpt>
<trkpt lat="48.937513" lon="8.682815">
<ele>367.5</ele>
<speed>5.7</speed>
<course>304.7</course>
<desc>Speed 5.7 km/h Distance 5.44 km</desc>
<time>2010-02-28T11:19:15.91</time>
<name>3787</name>
</trkpt>
<trkpt lat="48.937522" lon="8.682797">
<ele>368.0</ele>
<speed>5.4</speed>
<course>283.2</course>
<desc>Speed 5.4 km/h Distance 5.44 km</desc>
<time>2010-02-28T11:19:16.91</time>
<name>3788</name>
</trkpt>
<trkpt lat="48.937525" lon="8.682775">
<ele>368.0</ele>
<speed>5.6</speed>
<course>304.7</course>
<desc>Speed 5.6 km/h Distance 5.44 km</desc>
<time>2010-02-28T11:19:17.91</time>
<name>3789</name>
</trkpt>
<trkpt lat="48.937533" lon="8.682757">
<ele>368.0</ele>
<speed>5.3</speed>
<course>296.9</course>
<desc>Speed 5.3 km/h Distance 5.45 km</desc>
<time>2010-02-28T11:19:18.91</time>
<name>3790</name>
</trkpt>
<trkpt lat="48.937540" lon="8.682737">
<ele>368.0</ele>
<speed>5.5</speed>
<course>302.4</course>
<desc>Speed 5.5 km/h Distance 5.45 km</desc>
<time>2010-02-28T11:19:19.91</time>
<name>3791</name>
</trkpt>
<trkpt lat="48.937548" lon="8.682717">
<ele>368.0</ele>
<speed>5.7</speed>
<course>299.0</course>
<desc>Speed 5.7 km/h Distance 5.45 km</desc>
<time>2010-02-28T11:19:20.91</time>
<name>3792</name>
</trkpt>
<trkpt lat="48.937555" lon="8.682698">
<ele>368.0</ele>
<speed>5.2</speed>
<course>304.7</course>
<desc>Speed 5.2 km/h Distance 5.45 km</desc>
<time>2010-02-28T11:19:21.91</time>
<name>3793</name>
</trkpt>
<trkpt lat="48.937563" lon="8.682680">
<ele>367.5</ele>
<speed>5.5</speed>
<course>292.6</course>
<desc>Speed 5.5 km/h Distance 5.45 km</desc>
<time>2010-02-28T11:19:22.91</time>
<name>3794</name>
</trkpt>
<trkpt lat="48.937568" lon="8.682662">
<ele>367.5</ele>
<speed>4.7</speed>
<course>294.5</course>
<desc>Speed 4.7 km/h Distance 5.45 km</desc>
<time>2010-02-28T11:19:23.91</time>
<name>3795</name>
</trkpt>
<trkpt lat="48.937573" lon="8.682645">
<ele>368.0</ele>
<speed>4.8</speed>
<course>295.1</course>
<desc>Speed 4.8 km/h Distance 5.45 km</desc>
<time>2010-02-28T11:19:24.91</time>
<name>3796</name>
</trkpt>
<trkpt lat="48.937580" lon="8.682623">
<ele>368.5</ele>
<speed>5.4</speed>
<course>297.9</course>
<desc>Speed 5.4 km/h Distance 5.46 km</desc>
<time>2010-02-28T11:19:25.91</time>
<name>3797</name>
</trkpt>
<trkpt lat="48.937593" lon="8.682585">
<ele>369.0</ele>
<speed>5.3</speed>
<course>304.8</course>
<desc>Speed 5.3 km/h Distance 5.46 km</desc>
<time>2010-02-28T11:19:27.41</time>
<name>3798</name>
</trkpt>
<trkpt lat="48.937602" lon="8.682567">
<ele>369.0</ele>
<speed>5.5</speed>
<course>297.9</course>
<desc>Speed 5.5 km/h Distance 5.46 km</desc>
<time>2010-02-28T11:19:28.91</time>
<name>3799</name>
</trkpt>
<trkpt lat="48.937615" lon="8.682528">
<ele>369.5</ele>
<speed>5.3</speed>
<course>270.0</course>
<desc>Speed 5.3 km/h Distance 5.46 km</desc>
<time>2010-02-28T11:19:30.41</time>
<name>3800</name>
</trkpt>
<trkpt lat="48.937615" lon="8.682507">
<ele>369.5</ele>
<speed>5.4</speed>
<course>299.0</course>
<desc>Speed 5.4 km/h Distance 5.47 km</desc>
<time>2010-02-28T11:19:31.41</time>
<name>3801</name>
</trkpt>
<trkpt lat="48.937622" lon="8.682488">
<ele>368.5</ele>
<speed>5.1</speed>
<course>255.8</course>
<desc>Speed 5.1 km/h Distance 5.47 km</desc>
<time>2010-02-28T11:19:32.41</time>
<name>3802</name>
</trkpt>
<trkpt lat="48.937618" lon="8.682468">
<ele>368.5</ele>
<speed>5.9</speed>
<course>237.7</course>
<desc>Speed 5.9 km/h Distance 5.47 km</desc>
<time>2010-02-28T11:19:33.41</time>
<name>3803</name>
</trkpt>
<trkpt lat="48.937610" lon="8.682448">
<ele>368.5</ele>
<speed>6.0</speed>
<course>229.8</course>
<desc>Speed 6.0 km/h Distance 5.47 km</desc>
<time>2010-02-28T11:19:34.41</time>
<name>3804</name>
</trkpt>
<trkpt lat="48.937602" lon="8.682433">
<ele>369.0</ele>
<speed>5.1</speed>
<course>224.5</course>
<desc>Speed 5.1 km/h Distance 5.47 km</desc>
<time>2010-02-28T11:19:35.41</time>
<name>3805</name>
</trkpt>
<trkpt lat="48.937592" lon="8.682418">
<ele>369.0</ele>
<speed>5.6</speed>
<course>220.2</course>
<desc>Speed 5.6 km/h Distance 5.47 km</desc>
<time>2010-02-28T11:19:36.41</time>
<name>3806</name>
</trkpt>
<trkpt lat="48.937580" lon="8.682403">
<ele>369.0</ele>
<speed>5.7</speed>
<course>220.3</course>
<desc>Speed 5.7 km/h Distance 5.48 km</desc>
<time>2010-02-28T11:19:37.41</time>
<name>3807</name>
</trkpt>
<trkpt lat="48.937568" lon="8.682388">
<ele>369.0</ele>
<speed>6.1</speed>
<course>221.7</course>
<desc>Speed 6.1 km/h Distance 5.48 km</desc>
<time>2010-02-28T11:19:38.91</time>
<name>3808</name>
</trkpt>
<trkpt lat="48.937545" lon="8.682357">
<ele>369.5</ele>
<speed>5.9</speed>
<course>209.4</course>
<desc>Speed 5.9 km/h Distance 5.48 km</desc>
<time>2010-02-28T11:19:40.41</time>
<name>3809</name>
</trkpt>
<trkpt lat="48.937533" lon="8.682347">
<ele>369.5</ele>
<speed>5.8</speed>
<course>200.6</course>
<desc>Speed 5.8 km/h Distance 5.48 km</desc>
<time>2010-02-28T11:19:41.91</time>
<name>3810</name>
</trkpt>
<trkpt lat="48.937510" lon="8.682333">
<ele>369.5</ele>
<speed>4.4</speed>
<course>230.7</course>
<desc>Speed 4.4 km/h Distance 5.49 km</desc>
<time>2010-02-28T11:19:44.42</time>
<name>3811</name>
</trkpt>
<trkpt lat="48.937498" lon="8.682312">
<ele>370.0</ele>
<speed>5.1</speed>
<course>213.1</course>
<desc>Speed 5.1 km/h Distance 5.49 km</desc>
<time>2010-02-28T11:19:46.41</time>
<name>3812</name>
</trkpt>
<trkpt lat="48.937487" lon="8.682300">
<ele>370.0</ele>
<speed>5.7</speed>
<course>215.3</course>
<desc>Speed 5.7 km/h Distance 5.49 km</desc>
<time>2010-02-28T11:19:47.91</time>
<name>3813</name>
</trkpt>
<trkpt lat="48.937465" lon="8.682277">
<ele>370.0</ele>
<speed>5.8</speed>
<course>217.5</course>
<desc>Speed 5.8 km/h Distance 5.49 km</desc>
<time>2010-02-28T11:19:49.40</time>
<name>3814</name>
</trkpt>
<trkpt lat="48.937455" lon="8.682265">
<ele>369.5</ele>
<speed>5.6</speed>
<course>221.3</course>
<desc>Speed 5.6 km/h Distance 5.49 km</desc>
<time>2010-02-28T11:19:50.41</time>
<name>3815</name>
</trkpt>
<trkpt lat="48.937445" lon="8.682252">
<ele>370.0</ele>
<speed>5.7</speed>
<course>209.4</course>
<desc>Speed 5.7 km/h Distance 5.49 km</desc>
<time>2010-02-28T11:19:51.40</time>
<name>3816</name>
</trkpt>
<trkpt lat="48.937433" lon="8.682242">
<ele>370.0</ele>
<speed>5.6</speed>
<course>213.1</course>
<desc>Speed 5.6 km/h Distance 5.50 km</desc>
<time>2010-02-28T11:19:52.40</time>
<name>3817</name>
</trkpt>
<trkpt lat="48.937422" lon="8.682230">
<ele>370.0</ele>
<speed>5.8</speed>
<course>213.3</course>
<desc>Speed 5.8 km/h Distance 5.50 km</desc>
<time>2010-02-28T11:19:53.40</time>
<name>3818</name>
</trkpt>
<trkpt lat="48.937410" lon="8.682218">
<ele>370.0</ele>
<speed>5.7</speed>
<course>213.2</course>
<desc>Speed 5.7 km/h Distance 5.50 km</desc>
<time>2010-02-28T11:19:54.40</time>
<name>3819</name>
</trkpt>
<trkpt lat="48.937400" lon="8.682208">
<ele>370.0</ele>
<speed>5.7</speed>
<course>209.4</course>
<desc>Speed 5.7 km/h Distance 5.50 km</desc>
<time>2010-02-28T11:19:55.40</time>
<name>3820</name>
</trkpt>
<trkpt lat="48.937388" lon="8.682198">
<ele>370.0</ele>
<speed>5.7</speed>
<course>205.2</course>
<desc>Speed 5.7 km/h Distance 5.50 km</desc>
<time>2010-02-28T11:19:56.40</time>
<name>3821</name>
</trkpt>
<trkpt lat="48.937377" lon="8.682190">
<ele>370.0</ele>
<speed>5.3</speed>
<course>208.9</course>
<desc>Speed 5.3 km/h Distance 5.50 km</desc>
<time>2010-02-28T11:19:57.40</time>
<name>3822</name>
</trkpt>
<trkpt lat="48.937367" lon="8.682182">
<ele>370.0</ele>
<speed>5.4</speed>
<course>209.4</course>
<desc>Speed 5.4 km/h Distance 5.50 km</desc>
<time>2010-02-28T11:19:58.40</time>
<name>3823</name>
</trkpt>
<trkpt lat="48.937355" lon="8.682172">
<ele>370.0</ele>
<speed>5.6</speed>
<course>217.3</course>
<desc>Speed 5.6 km/h Distance 5.51 km</desc>
<time>2010-02-28T11:19:59.40</time>
<name>3824</name>
</trkpt>
<trkpt lat="48.937345" lon="8.682160">
<ele>369.5</ele>
<speed>5.8</speed>
<course>213.3</course>
<desc>Speed 5.8 km/h Distance 5.51 km</desc>
<time>2010-02-28T11:20:00.40</time>
<name>3825</name>
</trkpt>
<trkpt lat="48.937333" lon="8.682148">
<ele>369.5</ele>
<speed>5.8</speed>
<course>229.7</course>
<desc>Speed 5.8 km/h Distance 5.51 km</desc>
<time>2010-02-28T11:20:01.40</time>
<name>3826</name>
</trkpt>
<trkpt lat="48.937325" lon="8.682133">
<ele>369.5</ele>
<speed>5.8</speed>
<course>230.3</course>
<desc>Speed 5.8 km/h Distance 5.51 km</desc>
<time>2010-02-28T11:20:02.40</time>
<name>3827</name>
</trkpt>
<trkpt lat="48.937315" lon="8.682115">
<ele>369.5</ele>
<speed>6.0</speed>
<course>256.8</course>
<desc>Speed 6.0 km/h Distance 5.51 km</desc>
<time>2010-02-28T11:20:03.40</time>
<name>3828</name>
</trkpt>
<trkpt lat="48.937312" lon="8.682093">
<ele>369.5</ele>
<speed>5.9</speed>
<course>270.0</course>
<desc>Speed 5.9 km/h Distance 5.51 km</desc>
<time>2010-02-28T11:20:04.40</time>
<name>3829</name>
</trkpt>
<trkpt lat="48.937312" lon="8.682072">
<ele>369.5</ele>
<speed>5.7</speed>
<course>270.0</course>
<desc>Speed 5.7 km/h Distance 5.52 km</desc>
<time>2010-02-28T11:20:05.40</time>
<name>3830</name>
</trkpt>
<trkpt lat="48.937312" lon="8.682048">
<ele>369.5</ele>
<speed>5.7</speed>
<course>270.0</course>
<desc>Speed 5.7 km/h Distance 5.52 km</desc>
<time>2010-02-28T11:20:06.40</time>
<name>3831</name>
</trkpt>
<trkpt lat="48.937312" lon="8.682028">
<ele>369.5</ele>
<speed>5.8</speed>
<course>270.0</course>
<desc>Speed 5.8 km/h Distance 5.52 km</desc>
<time>2010-02-28T11:20:07.41</time>
<name>3832</name>
</trkpt>
<trkpt lat="48.937312" lon="8.682008">
<ele>370.0</ele>
<speed>5.0</speed>
<course>285.4</course>
<desc>Speed 5.0 km/h Distance 5.52 km</desc>
<time>2010-02-28T11:20:08.40</time>
<name>3833</name>
</trkpt>
<trkpt lat="48.937315" lon="8.681990">
<ele>370.0</ele>
<speed>4.6</speed>
<course>286.9</course>
<desc>Speed 4.6 km/h Distance 5.52 km</desc>
<time>2010-02-28T11:20:09.40</time>
<name>3834</name>
</trkpt>
<trkpt lat="48.937318" lon="8.681973">
<ele>370.0</ele>
<speed>4.3</speed>
<course>278.6</course>
<desc>Speed 4.3 km/h Distance 5.52 km</desc>
<time>2010-02-28T11:20:10.40</time>
<name>3835</name>
</trkpt>
<trkpt lat="48.937320" lon="8.681957">
<ele>370.5</ele>
<speed>4.3</speed>
<course>286.9</course>
<desc>Speed 4.3 km/h Distance 5.52 km</desc>
<time>2010-02-28T11:20:11.40</time>
<name>3836</name>
</trkpt>
<trkpt lat="48.937323" lon="8.681940">
<ele>370.5</ele>
<speed>4.2</speed>
<course>290.9</course>
<desc>Speed 4.2 km/h Distance 5.53 km</desc>
<time>2010-02-28T11:20:12.40</time>
<name>3837</name>
</trkpt>
<trkpt lat="48.937327" lon="8.681927">
<ele>370.5</ele>
<speed>3.9</speed>
<course>249.2</course>
<desc>Speed 3.9 km/h Distance 5.53 km</desc>
<time>2010-02-28T11:20:13.40</time>
<name>3838</name>
</trkpt>
<trkpt lat="48.937320" lon="8.681900">
<ele>371.0</ele>
<speed>7.2</speed>
<course>296.9</course>
<desc>Speed 7.2 km/h Distance 5.53 km</desc>
<time>2010-02-28T11:20:14.40</time>
<name>3839</name>
</trkpt>
<trkpt lat="48.937325" lon="8.681885">
<ele>371.0</ele>
<speed>4.5</speed>
<course>337.9</course>
<desc>Speed 4.5 km/h Distance 5.53 km</desc>
<time>2010-02-28T11:20:15.40</time>
<name>3840</name>
</trkpt>
<trkpt lat="48.937338" lon="8.681877">
<ele>370.5</ele>
<speed>5.3</speed>
<course>322.5</course>
<desc>Speed 5.3 km/h Distance 5.53 km</desc>
<time>2010-02-28T11:20:16.39</time>
<name>3841</name>
</trkpt>
<trkpt lat="48.937348" lon="8.681865">
<ele>370.0</ele>
<speed>5.2</speed>
<course>330.6</course>
<desc>Speed 5.2 km/h Distance 5.53 km</desc>
<time>2010-02-28T11:20:17.39</time>
<name>3842</name>
</trkpt>
<trkpt lat="48.937360" lon="8.681855">
<ele>369.5</ele>
<speed>5.0</speed>
<course>285.5</course>
<desc>Speed 5.0 km/h Distance 5.53 km</desc>
<time>2010-02-28T11:20:18.40</time>
<name>3843</name>
</trkpt>
<trkpt lat="48.937363" lon="8.681837">
<ele>369.5</ele>
<speed>5.0</speed>
<course>292.6</course>
<desc>Speed 5.0 km/h Distance 5.54 km</desc>
<time>2010-02-28T11:20:19.39</time>
<name>3844</name>
</trkpt>
<trkpt lat="48.937368" lon="8.681818">
<ele>369.5</ele>
<speed>4.9</speed>
<course>292.5</course>
<desc>Speed 4.9 km/h Distance 5.54 km</desc>
<time>2010-02-28T11:20:20.39</time>
<name>3845</name>
</trkpt>
<trkpt lat="48.937373" lon="8.681800">
<ele>369.5</ele>
<speed>5.1</speed>
<course>296.9</course>
<desc>Speed 5.1 km/h Distance 5.54 km</desc>
<time>2010-02-28T11:20:21.39</time>
<name>3846</name>
</trkpt>
<trkpt lat="48.937380" lon="8.681780">
<ele>369.5</ele>
<speed>5.1</speed>
<course>284.2</course>
<desc>Speed 5.1 km/h Distance 5.54 km</desc>
<time>2010-02-28T11:20:22.40</time>
<name>3847</name>
</trkpt>
<trkpt lat="48.937383" lon="8.681760">
<ele>369.0</ele>
<speed>5.0</speed>
<course>284.2</course>
<desc>Speed 5.0 km/h Distance 5.54 km</desc>
<time>2010-02-28T11:20:23.39</time>
<name>3848</name>
</trkpt>
<trkpt lat="48.937387" lon="8.681740">
<ele>369.0</ele>
<speed>5.0</speed>
<course>277.9</course>
<desc>Speed 5.0 km/h Distance 5.54 km</desc>
<time>2010-02-28T11:20:24.39</time>
<name>3849</name>
</trkpt>
<trkpt lat="48.937388" lon="8.681722">
<ele>369.0</ele>
<speed>4.8</speed>
<course>244.9</course>
<desc>Speed 4.8 km/h Distance 5.54 km</desc>
<time>2010-02-28T11:20:25.39</time>
<name>3850</name>
</trkpt>
<trkpt lat="48.937382" lon="8.681700">
<ele>369.0</ele>
<speed>5.1</speed>
<course>254.5</course>
<desc>Speed 5.1 km/h Distance 5.55 km</desc>
<time>2010-02-28T11:20:26.39</time>
<name>3851</name>
</trkpt>
<trkpt lat="48.937378" lon="8.681682">
<ele>369.5</ele>
<speed>4.6</speed>
<course>253.1</course>
<desc>Speed 4.6 km/h Distance 5.55 km</desc>
<time>2010-02-28T11:20:27.39</time>
<name>3852</name>
</trkpt>
<trkpt lat="48.937375" lon="8.681665">
<ele>369.5</ele>
<speed>4.2</speed>
<course>262.1</course>
<desc>Speed 4.2 km/h Distance 5.55 km</desc>
<time>2010-02-28T11:20:28.39</time>
<name>3853</name>
</trkpt>
<trkpt lat="48.937373" lon="8.681647">
<ele>369.5</ele>
<speed>4.3</speed>
<course>278.7</course>
<desc>Speed 4.3 km/h Distance 5.55 km</desc>
<time>2010-02-28T11:20:29.39</time>
<name>3854</name>
</trkpt>
<trkpt lat="48.937375" lon="8.681630">
<ele>369.5</ele>
<speed>4.2</speed>
<course>245.5</course>
<desc>Speed 4.2 km/h Distance 5.55 km</desc>
<time>2010-02-28T11:20:30.39</time>
<name>3855</name>
</trkpt>
<trkpt lat="48.937370" lon="8.681613">
<ele>370.0</ele>
<speed>4.7</speed>
<course>243.1</course>
<desc>Speed 4.7 km/h Distance 5.55 km</desc>
<time>2010-02-28T11:20:31.39</time>
<name>3856</name>
</trkpt>
<trkpt lat="48.937365" lon="8.681598">
<ele>370.0</ele>
<speed>4.4</speed>
<course>232.8</course>
<desc>Speed 4.4 km/h Distance 5.55 km</desc>
<time>2010-02-28T11:20:32.39</time>
<name>3857</name>
</trkpt>
<trkpt lat="48.937358" lon="8.681585">
<ele>370.0</ele>
<speed>3.9</speed>
<course>229.1</course>
<desc>Speed 3.9 km/h Distance 5.56 km</desc>
<time>2010-02-28T11:20:33.39</time>
<name>3858</name>
</trkpt>
<trkpt lat="48.937352" lon="8.681573">
<ele>370.0</ele>
<speed>3.7</speed>
<course>240.3</course>
<desc>Speed 3.7 km/h Distance 5.56 km</desc>
<time>2010-02-28T11:20:34.39</time>
<name>3859</name>
</trkpt>
<trkpt lat="48.937347" lon="8.681560">
<ele>370.5</ele>
<speed>4.1</speed>
<course>238.7</course>
<desc>Speed 4.1 km/h Distance 5.56 km</desc>
<time>2010-02-28T11:20:35.39</time>
<name>3860</name>
</trkpt>
<trkpt lat="48.937340" lon="8.681543">
<ele>370.5</ele>
<speed>4.2</speed>
<course>232.7</course>
<desc>Speed 4.2 km/h Distance 5.56 km</desc>
<time>2010-02-28T11:20:36.39</time>
<name>3861</name>
</trkpt>
<trkpt lat="48.937333" lon="8.681530">
<ele>370.5</ele>
<speed>4.1</speed>
<course>226.4</course>
<desc>Speed 4.1 km/h Distance 5.56 km</desc>
<time>2010-02-28T11:20:37.39</time>
<name>3862</name>
</trkpt>
<trkpt lat="48.937325" lon="8.681517">
<ele>371.0</ele>
<speed>4.2</speed>
<course>218.1</course>
<desc>Speed 4.2 km/h Distance 5.56 km</desc>
<time>2010-02-28T11:20:38.39</time>
<name>3863</name>
</trkpt>
<trkpt lat="48.937317" lon="8.681507">
<ele>371.0</ele>
<speed>4.3</speed>
<course>222.6</course>
<desc>Speed 4.3 km/h Distance 5.56 km</desc>
<time>2010-02-28T11:20:39.39</time>
<name>3864</name>
</trkpt>
<trkpt lat="48.937308" lon="8.681495">
<ele>371.0</ele>
<speed>4.3</speed>
<course>218.1</course>
<desc>Speed 4.3 km/h Distance 5.56 km</desc>
<time>2010-02-28T11:20:40.39</time>
<name>3865</name>
</trkpt>
<trkpt lat="48.937300" lon="8.681485">
<ele>371.0</ele>
<speed>4.5</speed>
<course>213.2</course>
<desc>Speed 4.5 km/h Distance 5.57 km</desc>
<time>2010-02-28T11:20:41.38</time>
<name>3866</name>
</trkpt>
<trkpt lat="48.937290" lon="8.681475">
<ele>371.0</ele>
<speed>4.7</speed>
<course>213.7</course>
<desc>Speed 4.7 km/h Distance 5.57 km</desc>
<time>2010-02-28T11:20:42.38</time>
<name>3867</name>
</trkpt>
<trkpt lat="48.937280" lon="8.681465">
<ele>371.5</ele>
<speed>4.6</speed>
<course>209.4</course>
<desc>Speed 4.6 km/h Distance 5.57 km</desc>
<time>2010-02-28T11:20:43.39</time>
<name>3868</name>
</trkpt>
<trkpt lat="48.937268" lon="8.681455">
<ele>371.5</ele>
<speed>4.6</speed>
<course>203.4</course>
<desc>Speed 4.6 km/h Distance 5.57 km</desc>
<time>2010-02-28T11:20:44.38</time>
<name>3869</name>
</trkpt>
<trkpt lat="48.937258" lon="8.681448">
<ele>371.5</ele>
<speed>4.4</speed>
<course>203.8</course>
<desc>Speed 4.4 km/h Distance 5.57 km</desc>
<time>2010-02-28T11:20:45.39</time>
<name>3870</name>
</trkpt>
<trkpt lat="48.937248" lon="8.681442">
<ele>371.5</ele>
<speed>4.3</speed>
<course>200.6</course>
<desc>Speed 4.3 km/h Distance 5.57 km</desc>
<time>2010-02-28T11:20:46.39</time>
<name>3871</name>
</trkpt>
<trkpt lat="48.937237" lon="8.681435">
<ele>372.0</ele>
<speed>4.7</speed>
<course>205.2</course>
<desc>Speed 4.7 km/h Distance 5.57 km</desc>
<time>2010-02-28T11:20:47.38</time>
<name>3872</name>
</trkpt>
<trkpt lat="48.937225" lon="8.681427">
<ele>372.0</ele>
<speed>4.6</speed>
<course>203.8</course>
<desc>Speed 4.6 km/h Distance 5.57 km</desc>
<time>2010-02-28T11:20:48.38</time>
<name>3873</name>
</trkpt>
<trkpt lat="48.937215" lon="8.681420">
<ele>372.0</ele>
<speed>4.6</speed>
<course>209.4</course>
<desc>Speed 4.6 km/h Distance 5.58 km</desc>
<time>2010-02-28T11:20:49.38</time>
<name>3874</name>
</trkpt>
<trkpt lat="48.937203" lon="8.681410">
<ele>372.0</ele>
<speed>4.7</speed>
<course>196.0</course>
<desc>Speed 4.7 km/h Distance 5.58 km</desc>
<time>2010-02-28T11:20:50.38</time>
<name>3875</name>
</trkpt>
<trkpt lat="48.937192" lon="8.681405">
<ele>372.5</ele>
<speed>5.0</speed>
<course>200.9</course>
<desc>Speed 5.0 km/h Distance 5.58 km</desc>
<time>2010-02-28T11:20:51.38</time>
<name>3876</name>
</trkpt>
<trkpt lat="48.937180" lon="8.681398">
<ele>372.5</ele>
<speed>4.8</speed>
<course>198.1</course>
<desc>Speed 4.8 km/h Distance 5.58 km</desc>
<time>2010-02-28T11:20:52.38</time>
<name>3877</name>
</trkpt>
<trkpt lat="48.937167" lon="8.681392">
<ele>372.5</ele>
<speed>5.1</speed>
<course>203.8</course>
<desc>Speed 5.1 km/h Distance 5.58 km</desc>
<time>2010-02-28T11:20:53.38</time>
<name>3878</name>
</trkpt>
<trkpt lat="48.937157" lon="8.681385">
<ele>372.5</ele>
<speed>4.8</speed>
<course>198.1</course>
<desc>Speed 4.8 km/h Distance 5.58 km</desc>
<time>2010-02-28T11:20:54.38</time>
<name>3879</name>
</trkpt>
<trkpt lat="48.937143" lon="8.681378">
<ele>373.0</ele>
<speed>5.2</speed>
<course>213.2</course>
<desc>Speed 5.2 km/h Distance 5.58 km</desc>
<time>2010-02-28T11:20:55.38</time>
<name>3880</name>
</trkpt>
<trkpt lat="48.937133" lon="8.681368">
<ele>373.0</ele>
<speed>5.1</speed>
<course>205.2</course>
<desc>Speed 5.1 km/h Distance 5.59 km</desc>
<time>2010-02-28T11:20:56.38</time>
<name>3881</name>
</trkpt>
<trkpt lat="48.937122" lon="8.681360">
<ele>373.0</ele>
<speed>5.1</speed>
<course>202.1</course>
<desc>Speed 5.1 km/h Distance 5.59 km</desc>
<time>2010-02-28T11:20:57.38</time>
<name>3882</name>
</trkpt>
<trkpt lat="48.937108" lon="8.681352">
<ele>373.0</ele>
<speed>5.4</speed>
<course>205.2</course>
<desc>Speed 5.4 km/h Distance 5.59 km</desc>
<time>2010-02-28T11:20:58.38</time>
<name>3883</name>
</trkpt>
<trkpt lat="48.937097" lon="8.681343">
<ele>373.5</ele>
<speed>5.3</speed>
<course>202.6</course>
<desc>Speed 5.3 km/h Distance 5.59 km</desc>
<time>2010-02-28T11:20:59.38</time>
<name>3884</name>
</trkpt>
<trkpt lat="48.937083" lon="8.681335">
<ele>373.5</ele>
<speed>5.2</speed>
<course>200.9</course>
<desc>Speed 5.2 km/h Distance 5.59 km</desc>
<time>2010-02-28T11:21:00.39</time>
<name>3885</name>
</trkpt>
<trkpt lat="48.937072" lon="8.681328">
<ele>373.5</ele>
<speed>5.3</speed>
<course>204.9</course>
<desc>Speed 5.3 km/h Distance 5.59 km</desc>
<time>2010-02-28T11:21:01.39</time>
<name>3886</name>
</trkpt>
<trkpt lat="48.937060" lon="8.681320">
<ele>373.5</ele>
<speed>5.1</speed>
<course>202.6</course>
<desc>Speed 5.1 km/h Distance 5.59 km</desc>
<time>2010-02-28T11:21:02.38</time>
<name>3887</name>
</trkpt>
<trkpt lat="48.937047" lon="8.681312">
<ele>373.5</ele>
<speed>5.4</speed>
<course>205.2</course>
<desc>Speed 5.4 km/h Distance 5.60 km</desc>
<time>2010-02-28T11:21:03.38</time>
<name>3888</name>
</trkpt>
<trkpt lat="48.937035" lon="8.681303">
<ele>373.5</ele>
<speed>5.3</speed>
<course>193.5</course>
<desc>Speed 5.3 km/h Distance 5.60 km</desc>
<time>2010-02-28T11:21:04.40</time>
<name>3889</name>
</trkpt>
<trkpt lat="48.937022" lon="8.681298">
<ele>373.5</ele>
<speed>5.5</speed>
<course>198.1</course>
<desc>Speed 5.5 km/h Distance 5.60 km</desc>
<time>2010-02-28T11:21:05.38</time>
<name>3890</name>
</trkpt>
<trkpt lat="48.937008" lon="8.681292">
<ele>373.5</ele>
<speed>5.2</speed>
<course>200.2</course>
<desc>Speed 5.2 km/h Distance 5.60 km</desc>
<time>2010-02-28T11:21:06.38</time>
<name>3891</name>
</trkpt>
<trkpt lat="48.936997" lon="8.681285">
<ele>373.5</ele>
<speed>5.3</speed>
<course>209.4</course>
<desc>Speed 5.3 km/h Distance 5.60 km</desc>
<time>2010-02-28T11:21:07.38</time>
<name>3892</name>
</trkpt>
<trkpt lat="48.936985" lon="8.681275">
<ele>373.5</ele>
<speed>5.3</speed>
<course>209.4</course>
<desc>Speed 5.3 km/h Distance 5.60 km</desc>
<time>2010-02-28T11:21:08.38</time>
<name>3893</name>
</trkpt>
<trkpt lat="48.936973" lon="8.681265">
<ele>373.5</ele>
<speed>5.3</speed>
<course>205.2</course>
<desc>Speed 5.3 km/h Distance 5.61 km</desc>
<time>2010-02-28T11:21:09.38</time>
<name>3894</name>
</trkpt>
<trkpt lat="48.936962" lon="8.681257">
<ele>373.5</ele>
<speed>5.1</speed>
<course>206.4</course>
<desc>Speed 5.1 km/h Distance 5.61 km</desc>
<time>2010-02-28T11:21:10.38</time>
<name>3895</name>
</trkpt>
<trkpt lat="48.936948" lon="8.681247">
<ele>373.5</ele>
<speed>5.4</speed>
<course>200.9</course>
<desc>Speed 5.4 km/h Distance 5.61 km</desc>
<time>2010-02-28T11:21:11.39</time>
<name>3896</name>
</trkpt>
<trkpt lat="48.936937" lon="8.681240">
<ele>373.5</ele>
<speed>5.0</speed>
<course>213.2</course>
<desc>Speed 5.0 km/h Distance 5.61 km</desc>
<time>2010-02-28T11:21:12.37</time>
<name>3897</name>
</trkpt>
<trkpt lat="48.936927" lon="8.681230">
<ele>373.5</ele>
<speed>5.1</speed>
<course>209.4</course>
<desc>Speed 5.1 km/h Distance 5.61 km</desc>
<time>2010-02-28T11:21:13.37</time>
<name>3898</name>
</trkpt>
<trkpt lat="48.936915" lon="8.681220">
<ele>373.5</ele>
<speed>5.3</speed>
<course>205.2</course>
<desc>Speed 5.3 km/h Distance 5.61 km</desc>
<time>2010-02-28T11:21:14.37</time>
<name>3899</name>
</trkpt>
<trkpt lat="48.936903" lon="8.681212">
<ele>373.5</ele>
<speed>5.3</speed>
<course>202.1</course>
<desc>Speed 5.3 km/h Distance 5.61 km</desc>
<time>2010-02-28T11:21:15.37</time>
<name>3900</name>
</trkpt>
<trkpt lat="48.936890" lon="8.681203">
<ele>373.5</ele>
<speed>5.4</speed>
<course>205.2</course>
<desc>Speed 5.4 km/h Distance 5.62 km</desc>
<time>2010-02-28T11:21:16.37</time>
<name>3901</name>
</trkpt>
<trkpt lat="48.936878" lon="8.681195">
<ele>373.5</ele>
<speed>5.2</speed>
<course>205.2</course>
<desc>Speed 5.2 km/h Distance 5.62 km</desc>
<time>2010-02-28T11:21:17.37</time>
<name>3902</name>
</trkpt>
<trkpt lat="48.936867" lon="8.681187">
<ele>373.5</ele>
<speed>5.1</speed>
<course>200.9</course>
<desc>Speed 5.1 km/h Distance 5.62 km</desc>
<time>2010-02-28T11:21:18.37</time>
<name>3903</name>
</trkpt>
<trkpt lat="48.936855" lon="8.681180">
<ele>373.5</ele>
<speed>4.8</speed>
<course>220.3</course>
<desc>Speed 4.8 km/h Distance 5.62 km</desc>
<time>2010-02-28T11:21:19.37</time>
<name>3904</name>
</trkpt>
<trkpt lat="48.936843" lon="8.681165">
<ele>373.5</ele>
<speed>6.1</speed>
<course>221.3</course>
<desc>Speed 6.1 km/h Distance 5.62 km</desc>
<time>2010-02-28T11:21:20.37</time>
<name>3905</name>
</trkpt>
<trkpt lat="48.936833" lon="8.681152">
<ele>373.5</ele>
<speed>5.1</speed>
<course>208.6</course>
<desc>Speed 5.1 km/h Distance 5.62 km</desc>
<time>2010-02-28T11:21:21.38</time>
<name>3906</name>
</trkpt>
<trkpt lat="48.936823" lon="8.681143">
<ele>373.5</ele>
<speed>5.0</speed>
<course>198.4</course>
<desc>Speed 5.0 km/h Distance 5.62 km</desc>
<time>2010-02-28T11:21:22.37</time>
<name>3907</name>
</trkpt>
<trkpt lat="48.936810" lon="8.681137">
<ele>373.5</ele>
<speed>5.5</speed>
<course>209.4</course>
<desc>Speed 5.5 km/h Distance 5.63 km</desc>
<time>2010-02-28T11:21:23.37</time>
<name>3908</name>
</trkpt>
<trkpt lat="48.936798" lon="8.681127">
<ele>373.5</ele>
<speed>4.8</speed>
<course>205.2</course>
<desc>Speed 4.8 km/h Distance 5.63 km</desc>
<time>2010-02-28T11:21:24.37</time>
<name>3909</name>
</trkpt>
<trkpt lat="48.936787" lon="8.681118">
<ele>373.5</ele>
<speed>5.3</speed>
<course>204.9</course>
<desc>Speed 5.3 km/h Distance 5.63 km</desc>
<time>2010-02-28T11:21:25.37</time>
<name>3910</name>
</trkpt>
<trkpt lat="48.936775" lon="8.681110">
<ele>373.5</ele>
<speed>5.4</speed>
<course>205.2</course>
<desc>Speed 5.4 km/h Distance 5.63 km</desc>
<time>2010-02-28T11:21:26.37</time>
<name>3911</name>
</trkpt>
<trkpt lat="48.936763" lon="8.681102">
<ele>373.5</ele>
<speed>5.0</speed>
<course>200.2</course>
<desc>Speed 5.0 km/h Distance 5.63 km</desc>
<time>2010-02-28T11:21:27.37</time>
<name>3912</name>
</trkpt>
<trkpt lat="48.936752" lon="8.681095">
<ele>373.5</ele>
<speed>5.2</speed>
<course>208.6</course>
<desc>Speed 5.2 km/h Distance 5.63 km</desc>
<time>2010-02-28T11:21:28.37</time>
<name>3913</name>
</trkpt>
<trkpt lat="48.936742" lon="8.681087">
<ele>373.5</ele>
<speed>4.9</speed>
<course>205.2</course>
<desc>Speed 4.9 km/h Distance 5.63 km</desc>
<time>2010-02-28T11:21:29.39</time>
<name>3914</name>
</trkpt>
<trkpt lat="48.936730" lon="8.681078">
<ele>373.5</ele>
<speed>4.9</speed>
<course>200.9</course>
<desc>Speed 4.9 km/h Distance 5.64 km</desc>
<time>2010-02-28T11:21:30.37</time>
<name>3915</name>
</trkpt>
<trkpt lat="48.936718" lon="8.681072">
<ele>374.0</ele>
<speed>4.6</speed>
<course>222.6</course>
<desc>Speed 4.6 km/h Distance 5.64 km</desc>
<time>2010-02-28T11:21:31.37</time>
<name>3916</name>
</trkpt>
<trkpt lat="48.936710" lon="8.681060">
<ele>374.0</ele>
<speed>4.9</speed>
<course>208.9</course>
<desc>Speed 4.9 km/h Distance 5.64 km</desc>
<time>2010-02-28T11:21:32.36</time>
<name>3917</name>
</trkpt>
<trkpt lat="48.936700" lon="8.681052">
<ele>374.0</ele>
<speed>4.9</speed>
<course>226.5</course>
<desc>Speed 4.9 km/h Distance 5.64 km</desc>
<time>2010-02-28T11:21:33.37</time>
<name>3918</name>
</trkpt>
<trkpt lat="48.936692" lon="8.681038">
<ele>374.0</ele>
<speed>4.6</speed>
<course>222.6</course>
<desc>Speed 4.6 km/h Distance 5.64 km</desc>
<time>2010-02-28T11:21:34.36</time>
<name>3919</name>
</trkpt>
<trkpt lat="48.936683" lon="8.681027">
<ele>374.0</ele>
<speed>4.6</speed>
<course>221.2</course>
<desc>Speed 4.6 km/h Distance 5.64 km</desc>
<time>2010-02-28T11:21:35.37</time>
<name>3920</name>
</trkpt>
<trkpt lat="48.936673" lon="8.681013">
<ele>374.0</ele>
<speed>5.0</speed>
<course>218.4</course>
<desc>Speed 5.0 km/h Distance 5.64 km</desc>
<time>2010-02-28T11:21:36.37</time>
<name>3921</name>
</trkpt>
<trkpt lat="48.936665" lon="8.681003">
<ele>374.0</ele>
<speed>4.5</speed>
<course>222.6</course>
<desc>Speed 4.5 km/h Distance 5.64 km</desc>
<time>2010-02-28T11:21:37.36</time>
<name>3922</name>
</trkpt>
<trkpt lat="48.936657" lon="8.680992">
<ele>374.0</ele>
<speed>4.6</speed>
<course>228.9</course>
<desc>Speed 4.6 km/h Distance 5.65 km</desc>
<time>2010-02-28T11:21:38.36</time>
<name>3923</name>
</trkpt>
<trkpt lat="48.936650" lon="8.680980">
<ele>374.0</ele>
<speed>4.1</speed>
<course>209.4</course>
<desc>Speed 4.1 km/h Distance 5.65 km</desc>
<time>2010-02-28T11:21:39.36</time>
<name>3924</name>
</trkpt>
<trkpt lat="48.936638" lon="8.680970">
<ele>374.0</ele>
<speed>5.1</speed>
<course>205.2</course>
<desc>Speed 5.1 km/h Distance 5.65 km</desc>
<time>2010-02-28T11:21:40.37</time>
<name>3925</name>
</trkpt>
<trkpt lat="48.936627" lon="8.680962">
<ele>374.0</ele>
<speed>5.6</speed>
<course>226.6</course>
<desc>Speed 5.6 km/h Distance 5.65 km</desc>
<time>2010-02-28T11:21:41.36</time>
<name>3926</name>
</trkpt>
<trkpt lat="48.936618" lon="8.680948">
<ele>374.0</ele>
<speed>4.9</speed>
<course>224.7</course>
<desc>Speed 4.9 km/h Distance 5.65 km</desc>
<time>2010-02-28T11:21:42.37</time>
<name>3927</name>
</trkpt>
<trkpt lat="48.936608" lon="8.680933">
<ele>374.0</ele>
<speed>5.5</speed>
<course>245.5</course>
<desc>Speed 5.5 km/h Distance 5.65 km</desc>
<time>2010-02-28T11:21:43.36</time>
<name>3928</name>
</trkpt>
<trkpt lat="48.936603" lon="8.680917">
<ele>374.0</ele>
<speed>5.1</speed>
<course>245.5</course>
<desc>Speed 5.1 km/h Distance 5.65 km</desc>
<time>2010-02-28T11:21:44.36</time>
<name>3929</name>
</trkpt>
<trkpt lat="48.936598" lon="8.680900">
<ele>374.0</ele>
<speed>4.8</speed>
<course>245.4</course>
<desc>Speed 4.8 km/h Distance 5.66 km</desc>
<time>2010-02-28T11:21:45.38</time>
<name>3930</name>
</trkpt>
<trkpt lat="48.936593" lon="8.680883">
<ele>374.0</ele>
<speed>5.0</speed>
<course>240.3</course>
<desc>Speed 5.0 km/h Distance 5.66 km</desc>
<time>2010-02-28T11:21:46.36</time>
<name>3931</name>
</trkpt>
<trkpt lat="48.936588" lon="8.680870">
<ele>374.0</ele>
<speed>4.9</speed>
<course>221.2</course>
<desc>Speed 4.9 km/h Distance 5.66 km</desc>
<time>2010-02-28T11:21:47.37</time>
<name>3932</name>
</trkpt>
<trkpt lat="48.936578" lon="8.680857">
<ele>374.0</ele>
<speed>4.8</speed>
<course>222.6</course>
<desc>Speed 4.8 km/h Distance 5.66 km</desc>
<time>2010-02-28T11:21:48.36</time>
<name>3933</name>
</trkpt>
<trkpt lat="48.936570" lon="8.680845">
<ele>374.0</ele>
<speed>4.9</speed>
<course>226.4</course>
<desc>Speed 4.9 km/h Distance 5.66 km</desc>
<time>2010-02-28T11:21:49.36</time>
<name>3934</name>
</trkpt>
<trkpt lat="48.936562" lon="8.680832">
<ele>374.0</ele>
<speed>4.9</speed>
<course>217.5</course>
<desc>Speed 4.9 km/h Distance 5.66 km</desc>
<time>2010-02-28T11:21:50.36</time>
<name>3935</name>
</trkpt>
<trkpt lat="48.936552" lon="8.680820">
<ele>374.0</ele>
<speed>5.0</speed>
<course>213.4</course>
<desc>Speed 5.0 km/h Distance 5.66 km</desc>
<time>2010-02-28T11:21:51.36</time>
<name>3936</name>
</trkpt>
<trkpt lat="48.936540" lon="8.680808">
<ele>374.0</ele>
<speed>5.1</speed>
<course>217.5</course>
<desc>Speed 5.1 km/h Distance 5.67 km</desc>
<time>2010-02-28T11:21:52.36</time>
<name>3937</name>
</trkpt>
<trkpt lat="48.936530" lon="8.680797">
<ele>374.0</ele>
<speed>5.0</speed>
<course>221.2</course>
<desc>Speed 5.0 km/h Distance 5.67 km</desc>
<time>2010-02-28T11:21:53.36</time>
<name>3938</name>
</trkpt>
<trkpt lat="48.936520" lon="8.680783">
<ele>374.0</ele>
<speed>5.2</speed>
<course>226.5</course>
<desc>Speed 5.2 km/h Distance 5.67 km</desc>
<time>2010-02-28T11:21:54.38</time>
<name>3939</name>
</trkpt>
<trkpt lat="48.936512" lon="8.680770">
<ele>374.5</ele>
<speed>5.0</speed>
<course>218.1</course>
<desc>Speed 5.0 km/h Distance 5.67 km</desc>
<time>2010-02-28T11:21:55.36</time>
<name>3940</name>
</trkpt>
<trkpt lat="48.936503" lon="8.680760">
<ele>374.5</ele>
<speed>4.3</speed>
<course>213.4</course>
<desc>Speed 4.3 km/h Distance 5.67 km</desc>
<time>2010-02-28T11:21:56.36</time>
<name>3941</name>
</trkpt>
<trkpt lat="48.936492" lon="8.680748">
<ele>374.5</ele>
<speed>4.8</speed>
<course>217.3</course>
<desc>Speed 4.8 km/h Distance 5.67 km</desc>
<time>2010-02-28T11:21:57.38</time>
<name>3942</name>
</trkpt>
<trkpt lat="48.936482" lon="8.680737">
<ele>374.5</ele>
<speed>4.9</speed>
<course>217.5</course>
<desc>Speed 4.9 km/h Distance 5.67 km</desc>
<time>2010-02-28T11:21:58.36</time>
<name>3943</name>
</trkpt>
<trkpt lat="48.936472" lon="8.680725">
<ele>374.5</ele>
<speed>4.9</speed>
<course>213.7</course>
<desc>Speed 4.9 km/h Distance 5.67 km</desc>
<time>2010-02-28T11:21:59.36</time>
<name>3944</name>
</trkpt>
<trkpt lat="48.936462" lon="8.680715">
<ele>374.5</ele>
<speed>4.9</speed>
<course>213.4</course>
<desc>Speed 4.9 km/h Distance 5.68 km</desc>
<time>2010-02-28T11:22:00.36</time>
<name>3945</name>
</trkpt>
<trkpt lat="48.936450" lon="8.680703">
<ele>374.5</ele>
<speed>5.2</speed>
<course>213.1</course>
<desc>Speed 5.2 km/h Distance 5.68 km</desc>
<time>2010-02-28T11:22:01.36</time>
<name>3946</name>
</trkpt>
<trkpt lat="48.936438" lon="8.680692">
<ele>374.5</ele>
<speed>5.4</speed>
<course>217.5</course>
<desc>Speed 5.4 km/h Distance 5.68 km</desc>
<time>2010-02-28T11:22:02.36</time>
<name>3947</name>
</trkpt>
<trkpt lat="48.936428" lon="8.680680">
<ele>374.5</ele>
<speed>5.3</speed>
<course>213.4</course>
<desc>Speed 5.3 km/h Distance 5.68 km</desc>
<time>2010-02-28T11:22:03.36</time>
<name>3948</name>
</trkpt>
<trkpt lat="48.936417" lon="8.680668">
<ele>374.5</ele>
<speed>5.0</speed>
<course>226.5</course>
<desc>Speed 5.0 km/h Distance 5.68 km</desc>
<time>2010-02-28T11:22:04.36</time>
<name>3949</name>
</trkpt>
<trkpt lat="48.936408" lon="8.680655">
<ele>375.0</ele>
<speed>5.0</speed>
<course>213.3</course>
<desc>Speed 5.0 km/h Distance 5.68 km</desc>
<time>2010-02-28T11:22:05.36</time>
<name>3950</name>
</trkpt>
<trkpt lat="48.936397" lon="8.680643">
<ele>375.0</ele>
<speed>5.1</speed>
<course>221.4</course>
<desc>Speed 5.1 km/h Distance 5.69 km</desc>
<time>2010-02-28T11:22:06.35</time>
<name>3951</name>
</trkpt>
<trkpt lat="48.936387" lon="8.680630">
<ele>375.0</ele>
<speed>5.2</speed>
<course>221.2</course>
<desc>Speed 5.2 km/h Distance 5.69 km</desc>
<time>2010-02-28T11:22:07.35</time>
<name>3952</name>
</trkpt>
<trkpt lat="48.936377" lon="8.680617">
<ele>375.0</ele>
<speed>5.0</speed>
<course>217.2</course>
<desc>Speed 5.0 km/h Distance 5.69 km</desc>
<time>2010-02-28T11:22:08.37</time>
<name>3953</name>
</trkpt>
<trkpt lat="48.936367" lon="8.680605">
<ele>375.0</ele>
<speed>5.1</speed>
<course>221.3</course>
<desc>Speed 5.1 km/h Distance 5.69 km</desc>
<time>2010-02-28T11:22:09.36</time>
<name>3954</name>
</trkpt>
<trkpt lat="48.936357" lon="8.680592">
<ele>375.0</ele>
<speed>5.4</speed>
<course>217.5</course>
<desc>Speed 5.4 km/h Distance 5.69 km</desc>
<time>2010-02-28T11:22:10.35</time>
<name>3955</name>
</trkpt>
<trkpt lat="48.936347" lon="8.680580">
<ele>375.0</ele>
<speed>5.3</speed>
<course>227.6</course>
<desc>Speed 5.3 km/h Distance 5.69 km</desc>
<time>2010-02-28T11:22:11.36</time>
<name>3956</name>
</trkpt>
<trkpt lat="48.936337" lon="8.680563">
<ele>375.0</ele>
<speed>5.7</speed>
<course>226.6</course>
<desc>Speed 5.7 km/h Distance 5.69 km</desc>
<time>2010-02-28T11:22:12.36</time>
<name>3957</name>
</trkpt>
<trkpt lat="48.936328" lon="8.680550">
<ele>375.0</ele>
<speed>5.0</speed>
<course>232.7</course>
<desc>Speed 5.0 km/h Distance 5.70 km</desc>
<time>2010-02-28T11:22:13.36</time>
<name>3958</name>
</trkpt>
<trkpt lat="48.936320" lon="8.680533">
<ele>375.0</ele>
<speed>5.3</speed>
<course>226.4</course>
<desc>Speed 5.3 km/h Distance 5.70 km</desc>
<time>2010-02-28T11:22:14.38</time>
<name>3959</name>
</trkpt>
<trkpt lat="48.936312" lon="8.680520">
<ele>375.0</ele>
<speed>5.1</speed>
<course>232.7</course>
<desc>Speed 5.1 km/h Distance 5.70 km</desc>
<time>2010-02-28T11:22:15.36</time>
<name>3960</name>
</trkpt>
<trkpt lat="48.936303" lon="8.680503">
<ele>375.0</ele>
<speed>5.1</speed>
<course>235.9</course>
<desc>Speed 5.1 km/h Distance 5.70 km</desc>
<time>2010-02-28T11:22:16.35</time>
<name>3961</name>
</trkpt>
<trkpt lat="48.936297" lon="8.680488">
<ele>375.0</ele>
<speed>4.8</speed>
<course>245.5</course>
<desc>Speed 4.8 km/h Distance 5.70 km</desc>
<time>2010-02-28T11:22:17.35</time>
<name>3962</name>
</trkpt>
<trkpt lat="48.936292" lon="8.680472">
<ele>375.0</ele>
<speed>4.8</speed>
<course>270.0</course>
<desc>Speed 4.8 km/h Distance 5.70 km</desc>
<time>2010-02-28T11:22:18.36</time>
<name>3963</name>
</trkpt>
<trkpt lat="48.936292" lon="8.680458">
<ele>375.0</ele>
<speed>3.3</speed>
<course>347.4</course>
<desc>Speed 3.3 km/h Distance 5.70 km</desc>
<time>2010-02-28T11:22:19.35</time>
<name>3964</name>
</trkpt>
<trkpt lat="48.936297" lon="8.680457">
<ele>375.0</ele>
<speed>1.5</speed>
<course>347.4</course>
<desc>Speed 1.5 km/h Distance 5.70 km</desc>
<time>2010-02-28T11:22:20.35</time>
<name>3965</name>
</trkpt>
<trkpt lat="48.936300" lon="8.680455">
<ele>375.0</ele>
<speed>1.5</speed>
<course>167.4</course>
<desc>Speed 1.5 km/h Distance 5.70 km</desc>
<time>2010-02-28T11:22:21.35</time>
<name>3966</name>
</trkpt>
<trkpt lat="48.936298" lon="8.680455">
<ele>375.0</ele>
<speed>0.1</speed>
<course>70.3</course>
<desc>Speed 0.1 km/h Distance 5.70 km</desc>
<time>2010-02-28T11:22:22.36</time>
<name>3967</name>
</trkpt>
<trkpt lat="48.936305" lon="8.680483">
<ele>375.0</ele>
<speed>0.6</speed>
<course>128.1</course>
<desc>Speed 0.6 km/h Distance 5.71 km</desc>
<time>2010-02-28T11:22:24.35</time>
<name>3968</name>
</trkpt>
<trkpt lat="48.936303" lon="8.680487">
<ele>375.0</ele>
<speed>0.3</speed>
<course>128.1</course>
<desc>Speed 0.3 km/h Distance 5.71 km</desc>
<time>2010-02-28T11:22:25.35</time>
<name>3969</name>
</trkpt>
<trkpt lat="48.936302" lon="8.680490">
<ele>375.0</ele>
<speed>0.4</speed>
<course>146.3</course>
<desc>Speed 0.4 km/h Distance 5.71 km</desc>
<time>2010-02-28T11:22:26.35</time>
<name>3970</name>
</trkpt>
<trkpt lat="48.936298" lon="8.680493">
<ele>375.5</ele>
<speed>0.2</speed>
<course>90.0</course>
<desc>Speed 0.2 km/h Distance 5.71 km</desc>
<time>2010-02-28T11:22:27.35</time>
<name>3971</name>
</trkpt>
<trkpt lat="48.936298" lon="8.680498">
<ele>375.5</ele>
<speed>0.4</speed>
<course>90.0</course>
<desc>Speed 0.4 km/h Distance 5.71 km</desc>
<time>2010-02-28T11:22:28.37</time>
<name>3972</name>
</trkpt>
<trkpt lat="48.936298" lon="8.680505">
<ele>375.5</ele>
<speed>0.4</speed>
<course>221.4</course>
<desc>Speed 0.4 km/h Distance 5.71 km</desc>
<time>2010-02-28T11:22:29.36</time>
<name>3973</name>
</trkpt>
<trkpt lat="48.936293" lon="8.680498">
<ele>375.5</ele>
<speed>3.0</speed>
<course>62.6</course>
<desc>Speed 3.0 km/h Distance 5.71 km</desc>
<time>2010-02-28T11:22:30.35</time>
<name>3974</name>
</trkpt>
<trkpt lat="48.936295" lon="8.680503">
<ele>375.5</ele>
<speed>0.4</speed>
<course>180.0</course>
<desc>Speed 0.4 km/h Distance 5.71 km</desc>
<time>2010-02-28T11:22:31.35</time>
<name>3975</name>
</trkpt>
<trkpt lat="48.936285" lon="8.680503">
<ele>376.0</ele>
<speed>1.9</speed>
<course>206.2</course>
<desc>Speed 1.9 km/h Distance 5.71 km</desc>
<time>2010-02-28T11:22:32.35</time>
<name>3976</name>
</trkpt>
<trkpt lat="48.936272" lon="8.680493">
<ele>376.0</ele>
<speed>3.4</speed>
<course>210.4</course>
<desc>Speed 3.4 km/h Distance 5.71 km</desc>
<time>2010-02-28T11:22:33.35</time>
<name>3977</name>
</trkpt>
<trkpt lat="48.936257" lon="8.680480">
<ele>376.0</ele>
<speed>4.8</speed>
<course>210.3</course>
<desc>Speed 4.8 km/h Distance 5.71 km</desc>
<time>2010-02-28T11:22:34.35</time>
<name>3978</name>
</trkpt>
<trkpt lat="48.936242" lon="8.680467">
<ele>376.0</ele>
<speed>4.9</speed>
<course>216.5</course>
<desc>Speed 4.9 km/h Distance 5.72 km</desc>
<time>2010-02-28T11:22:35.38</time>
<name>3979</name>
</trkpt>
<trkpt lat="48.936228" lon="8.680452">
<ele>376.0</ele>
<speed>5.0</speed>
<course>225.9</course>
<desc>Speed 5.0 km/h Distance 5.72 km</desc>
<time>2010-02-28T11:22:36.35</time>
<name>3980</name>
</trkpt>
<trkpt lat="48.936217" lon="8.680433">
<ele>376.0</ele>
<speed>5.0</speed>
<course>219.4</course>
<desc>Speed 5.0 km/h Distance 5.72 km</desc>
<time>2010-02-28T11:22:37.35</time>
<name>3981</name>
</trkpt>
<trkpt lat="48.936203" lon="8.680417">
<ele>376.5</ele>
<speed>5.4</speed>
<course>221.2</course>
<desc>Speed 5.4 km/h Distance 5.72 km</desc>
<time>2010-02-28T11:22:38.35</time>
<name>3982</name>
</trkpt>
<trkpt lat="48.936193" lon="8.680403">
<ele>376.5</ele>
<speed>5.4</speed>
<course>224.5</course>
<desc>Speed 5.4 km/h Distance 5.72 km</desc>
<time>2010-02-28T11:22:39.35</time>
<name>3983</name>
</trkpt>
<trkpt lat="48.936183" lon="8.680388">
<ele>376.5</ele>
<speed>5.3</speed>
<course>216.9</course>
<desc>Speed 5.3 km/h Distance 5.73 km</desc>
<time>2010-02-28T11:22:40.35</time>
<name>3984</name>
</trkpt>
<trkpt lat="48.936172" lon="8.680375">
<ele>376.5</ele>
<speed>5.5</speed>
<course>221.2</course>
<desc>Speed 5.5 km/h Distance 5.73 km</desc>
<time>2010-02-28T11:22:41.35</time>
<name>3985</name>
</trkpt>
<trkpt lat="48.936162" lon="8.680362">
<ele>376.5</ele>
<speed>5.5</speed>
<course>216.9</course>
<desc>Speed 5.5 km/h Distance 5.73 km</desc>
<time>2010-02-28T11:22:42.34</time>
<name>3986</name>
</trkpt>
<trkpt lat="48.936150" lon="8.680348">
<ele>376.5</ele>
<speed>5.2</speed>
<course>222.6</course>
<desc>Speed 5.2 km/h Distance 5.73 km</desc>
<time>2010-02-28T11:22:43.34</time>
<name>3987</name>
</trkpt>
<trkpt lat="48.936142" lon="8.680337">
<ele>376.5</ele>
<speed>5.4</speed>
<course>216.9</course>
<desc>Speed 5.4 km/h Distance 5.73 km</desc>
<time>2010-02-28T11:22:44.34</time>
<name>3988</name>
</trkpt>
<trkpt lat="48.936130" lon="8.680323">
<ele>376.5</ele>
<speed>5.5</speed>
<course>221.2</course>
<desc>Speed 5.5 km/h Distance 5.73 km</desc>
<time>2010-02-28T11:22:45.34</time>
<name>3989</name>
</trkpt>
<trkpt lat="48.936120" lon="8.680310">
<ele>376.5</ele>
<speed>5.3</speed>
<course>221.4</course>
<desc>Speed 5.3 km/h Distance 5.73 km</desc>
<time>2010-02-28T11:22:46.35</time>
<name>3990</name>
</trkpt>
<trkpt lat="48.936110" lon="8.680297">
<ele>376.5</ele>
<speed>5.0</speed>
<course>213.3</course>
<desc>Speed 5.0 km/h Distance 5.74 km</desc>
<time>2010-02-28T11:22:47.35</time>
<name>3991</name>
</trkpt>
<trkpt lat="48.936098" lon="8.680285">
<ele>376.5</ele>
<speed>5.3</speed>
<course>224.5</course>
<desc>Speed 5.3 km/h Distance 5.74 km</desc>
<time>2010-02-28T11:22:48.35</time>
<name>3992</name>
</trkpt>
<trkpt lat="48.936088" lon="8.680270">
<ele>376.5</ele>
<speed>5.4</speed>
<course>217.2</course>
<desc>Speed 5.4 km/h Distance 5.74 km</desc>
<time>2010-02-28T11:22:49.34</time>
<name>3993</name>
</trkpt>
<trkpt lat="48.936077" lon="8.680257">
<ele>376.5</ele>
<speed>5.2</speed>
<course>213.4</course>
<desc>Speed 5.2 km/h Distance 5.74 km</desc>
<time>2010-02-28T11:22:50.35</time>
<name>3994</name>
</trkpt>
<trkpt lat="48.936065" lon="8.680245">
<ele>376.5</ele>
<speed>5.1</speed>
<course>209.2</course>
<desc>Speed 5.1 km/h Distance 5.74 km</desc>
<time>2010-02-28T11:22:51.35</time>
<name>3995</name>
</trkpt>
<trkpt lat="48.936053" lon="8.680235">
<ele>376.5</ele>
<speed>5.5</speed>
<course>216.9</course>
<desc>Speed 5.5 km/h Distance 5.74 km</desc>
<time>2010-02-28T11:22:52.35</time>
<name>3996</name>
</trkpt>
<trkpt lat="48.936042" lon="8.680222">
<ele>376.5</ele>
<speed>5.3</speed>
<course>213.3</course>
<desc>Speed 5.3 km/h Distance 5.75 km</desc>
<time>2010-02-28T11:22:53.34</time>
<name>3997</name>
</trkpt>
<trkpt lat="48.936028" lon="8.680208">
<ele>376.5</ele>
<speed>5.7</speed>
<course>216.9</course>
<desc>Speed 5.7 km/h Distance 5.75 km</desc>
<time>2010-02-28T11:22:54.34</time>
<name>3998</name>
</trkpt>
<trkpt lat="48.936017" lon="8.680195">
<ele>376.5</ele>
<speed>5.8</speed>
<course>216.9</course>
<desc>Speed 5.8 km/h Distance 5.75 km</desc>
<time>2010-02-28T11:22:55.34</time>
<name>3999</name>
</trkpt>
<trkpt lat="48.936005" lon="8.680182">
<ele>376.5</ele>
<speed>5.5</speed>
<course>224.6</course>
<desc>Speed 5.5 km/h Distance 5.75 km</desc>
<time>2010-02-28T11:22:56.34</time>
<name>4000</name>
</trkpt>
<trkpt lat="48.935995" lon="8.680167">
<ele>376.5</ele>
<speed>5.4</speed>
<course>229.7</course>
<desc>Speed 5.4 km/h Distance 5.75 km</desc>
<time>2010-02-28T11:22:57.34</time>
<name>4001</name>
</trkpt>
<trkpt lat="48.935987" lon="8.680152">
<ele>376.0</ele>
<speed>5.3</speed>
<course>239.7</course>
<desc>Speed 5.3 km/h Distance 5.75 km</desc>
<time>2010-02-28T11:22:58.34</time>
<name>4002</name>
</trkpt>
<trkpt lat="48.935978" lon="8.680130">
<ele>376.0</ele>
<speed>5.8</speed>
<course>244.9</course>
<desc>Speed 5.8 km/h Distance 5.76 km</desc>
<time>2010-02-28T11:22:59.33</time>
<name>4003</name>
</trkpt>
<trkpt lat="48.935972" lon="8.680108">
<ele>376.0</ele>
<speed>5.6</speed>
<course>247.4</course>
<desc>Speed 5.6 km/h Distance 5.76 km</desc>
<time>2010-02-28T11:23:00.34</time>
<name>4004</name>
</trkpt>
<trkpt lat="48.935967" lon="8.680090">
<ele>376.0</ele>
<speed>5.4</speed>
<course>243.1</course>
<desc>Speed 5.4 km/h Distance 5.76 km</desc>
<time>2010-02-28T11:23:01.33</time>
<name>4005</name>
</trkpt>
<trkpt lat="48.935960" lon="8.680070">
<ele>376.0</ele>
<speed>5.7</speed>
<course>256.8</course>
<desc>Speed 5.7 km/h Distance 5.76 km</desc>
<time>2010-02-28T11:23:02.33</time>
<name>4006</name>
</trkpt>
<trkpt lat="48.935957" lon="8.680048">
<ele>376.0</ele>
<speed>5.4</speed>
<course>270.0</course>
<desc>Speed 5.4 km/h Distance 5.76 km</desc>
<time>2010-02-28T11:23:03.33</time>
<name>4007</name>
</trkpt>
<trkpt lat="48.935957" lon="8.680030">
<ele>376.0</ele>
<speed>5.1</speed>
<course>270.0</course>
<desc>Speed 5.1 km/h Distance 5.76 km</desc>
<time>2010-02-28T11:23:04.34</time>
<name>4008</name>
</trkpt>
<trkpt lat="48.935957" lon="8.680007">
<ele>376.0</ele>
<speed>5.8</speed>
<course>284.2</course>
<desc>Speed 5.8 km/h Distance 5.76 km</desc>
<time>2010-02-28T11:23:05.33</time>
<name>4009</name>
</trkpt>
<trkpt lat="48.935960" lon="8.679987">
<ele>376.0</ele>
<speed>5.7</speed>
<course>290.8</course>
<desc>Speed 5.7 km/h Distance 5.77 km</desc>
<time>2010-02-28T11:23:06.34</time>
<name>4010</name>
</trkpt>
<trkpt lat="48.935965" lon="8.679967">
<ele>376.0</ele>
<speed>5.1</speed>
<course>277.2</course>
<desc>Speed 5.1 km/h Distance 5.77 km</desc>
<time>2010-02-28T11:23:07.34</time>
<name>4011</name>
</trkpt>
<trkpt lat="48.935967" lon="8.679947">
<ele>376.0</ele>
<speed>5.3</speed>
<course>285.5</course>
<desc>Speed 5.3 km/h Distance 5.77 km</desc>
<time>2010-02-28T11:23:08.34</time>
<name>4012</name>
</trkpt>
<trkpt lat="48.935970" lon="8.679928">
<ele>376.0</ele>
<speed>5.0</speed>
<course>277.9</course>
<desc>Speed 5.0 km/h Distance 5.77 km</desc>
<time>2010-02-28T11:23:09.35</time>
<name>4013</name>
</trkpt>
<trkpt lat="48.935972" lon="8.679910">
<ele>376.0</ele>
<speed>5.0</speed>
<course>277.9</course>
<desc>Speed 5.0 km/h Distance 5.77 km</desc>
<time>2010-02-28T11:23:10.33</time>
<name>4014</name>
</trkpt>
<trkpt lat="48.935973" lon="8.679892">
<ele>376.0</ele>
<speed>5.1</speed>
<course>284.2</course>
<desc>Speed 5.1 km/h Distance 5.77 km</desc>
<time>2010-02-28T11:23:11.35</time>
<name>4015</name>
</trkpt>
<trkpt lat="48.935977" lon="8.679872">
<ele>376.0</ele>
<speed>5.5</speed>
<course>270.0</course>
<desc>Speed 5.5 km/h Distance 5.77 km</desc>
<time>2010-02-28T11:23:12.34</time>
<name>4016</name>
</trkpt>
<trkpt lat="48.935977" lon="8.679852">
<ele>376.0</ele>
<speed>5.3</speed>
<course>277.2</course>
<desc>Speed 5.3 km/h Distance 5.78 km</desc>
<time>2010-02-28T11:23:13.33</time>
<name>4017</name>
</trkpt>
<trkpt lat="48.935978" lon="8.679832">
<ele>376.0</ele>
<speed>5.2</speed>
<course>277.2</course>
<desc>Speed 5.2 km/h Distance 5.78 km</desc>
<time>2010-02-28T11:23:14.34</time>
<name>4018</name>
</trkpt>
<trkpt lat="48.935980" lon="8.679812">
<ele>376.0</ele>
<speed>5.3</speed>
<course>277.2</course>
<desc>Speed 5.3 km/h Distance 5.78 km</desc>
<time>2010-02-28T11:23:15.34</time>
<name>4019</name>
</trkpt>
<trkpt lat="48.935982" lon="8.679792">
<ele>376.0</ele>
<speed>5.0</speed>
<course>277.2</course>
<desc>Speed 5.0 km/h Distance 5.78 km</desc>
<time>2010-02-28T11:23:16.34</time>
<name>4020</name>
</trkpt>
<trkpt lat="48.935983" lon="8.679772">
<ele>376.0</ele>
<speed>5.1</speed>
<course>277.9</course>
<desc>Speed 5.1 km/h Distance 5.78 km</desc>
<time>2010-02-28T11:23:17.34</time>
<name>4021</name>
</trkpt>
<trkpt lat="48.935985" lon="8.679753">
<ele>376.0</ele>
<speed>5.1</speed>
<course>277.2</course>
<desc>Speed 5.1 km/h Distance 5.78 km</desc>
<time>2010-02-28T11:23:18.34</time>
<name>4022</name>
</trkpt>
<trkpt lat="48.935987" lon="8.679733">
<ele>376.0</ele>
<speed>5.1</speed>
<course>285.5</course>
<desc>Speed 5.1 km/h Distance 5.78 km</desc>
<time>2010-02-28T11:23:19.34</time>
<name>4023</name>
</trkpt>
<trkpt lat="48.935990" lon="8.679715">
<ele>376.0</ele>
<speed>5.1</speed>
<course>277.2</course>
<desc>Speed 5.1 km/h Distance 5.79 km</desc>
<time>2010-02-28T11:23:20.33</time>
<name>4024</name>
</trkpt>
<trkpt lat="48.935992" lon="8.679695">
<ele>376.0</ele>
<speed>5.0</speed>
<course>277.2</course>
<desc>Speed 5.0 km/h Distance 5.79 km</desc>
<time>2010-02-28T11:23:21.33</time>
<name>4025</name>
</trkpt>
<trkpt lat="48.935993" lon="8.679675">
<ele>376.0</ele>
<speed>5.3</speed>
<course>270.0</course>
<desc>Speed 5.3 km/h Distance 5.79 km</desc>
<time>2010-02-28T11:23:22.33</time>
<name>4026</name>
</trkpt>
<trkpt lat="48.935993" lon="8.679650">
<ele>376.0</ele>
<speed>5.3</speed>
<course>270.0</course>
<desc>Speed 5.3 km/h Distance 5.79 km</desc>
<time>2010-02-28T11:23:23.33</time>
<name>4027</name>
</trkpt>
<trkpt lat="48.935993" lon="8.679628">
<ele>376.0</ele>
<speed>5.1</speed>
<course>270.0</course>
<desc>Speed 5.1 km/h Distance 5.79 km</desc>
<time>2010-02-28T11:23:24.33</time>
<name>4028</name>
</trkpt>
<trkpt lat="48.935993" lon="8.679613">
<ele>376.5</ele>
<speed>4.7</speed>
<course>270.0</course>
<desc>Speed 4.7 km/h Distance 5.79 km</desc>
<time>2010-02-28T11:23:25.33</time>
<name>4029</name>
</trkpt>
<trkpt lat="48.935993" lon="8.679597">
<ele>376.5</ele>
<speed>4.6</speed>
<course>240.3</course>
<desc>Speed 4.6 km/h Distance 5.79 km</desc>
<time>2010-02-28T11:23:26.33</time>
<name>4030</name>
</trkpt>
<trkpt lat="48.935988" lon="8.679583">
<ele>376.5</ele>
<speed>4.9</speed>
<course>254.5</course>
<desc>Speed 4.9 km/h Distance 5.80 km</desc>
<time>2010-02-28T11:23:27.33</time>
<name>4031</name>
</trkpt>
<trkpt lat="48.935985" lon="8.679565">
<ele>376.5</ele>
<speed>4.9</speed>
<course>249.1</course>
<desc>Speed 4.9 km/h Distance 5.80 km</desc>
<time>2010-02-28T11:23:28.34</time>
<name>4032</name>
</trkpt>
<trkpt lat="48.935982" lon="8.679552">
<ele>377.0</ele>
<speed>3.6</speed>
<course>229.1</course>
<desc>Speed 3.6 km/h Distance 5.80 km</desc>
<time>2010-02-28T11:23:29.34</time>
<name>4033</name>
</trkpt>
<trkpt lat="48.935975" lon="8.679540">
<ele>377.0</ele>
<speed>4.2</speed>
<course>229.1</course>
<desc>Speed 4.2 km/h Distance 5.80 km</desc>
<time>2010-02-28T11:23:30.33</time>
<name>4034</name>
</trkpt>
<trkpt lat="48.935968" lon="8.679528">
<ele>377.0</ele>
<speed>3.9</speed>
<course>243.0</course>
<desc>Speed 3.9 km/h Distance 5.80 km</desc>
<time>2010-02-28T11:23:31.33</time>
<name>4035</name>
</trkpt>
<trkpt lat="48.935965" lon="8.679518">
<ele>377.0</ele>
<speed>2.8</speed>
<course>229.9</course>
<desc>Speed 2.8 km/h Distance 5.80 km</desc>
<time>2010-02-28T11:23:32.33</time>
<name>4036</name>
</trkpt>
<trkpt lat="48.935957" lon="8.679503">
<ele>377.0</ele>
<speed>4.6</speed>
<course>232.8</course>
<desc>Speed 4.6 km/h Distance 5.80 km</desc>
<time>2010-02-28T11:23:33.33</time>
<name>4037</name>
</trkpt>
<trkpt lat="48.935948" lon="8.679487">
<ele>377.0</ele>
<speed>5.0</speed>
<course>241.0</course>
<desc>Speed 5.0 km/h Distance 5.80 km</desc>
<time>2010-02-28T11:23:34.33</time>
<name>4038</name>
</trkpt>
<trkpt lat="48.935942" lon="8.679468">
<ele>377.0</ele>
<speed>4.3</speed>
<course>247.4</course>
<desc>Speed 4.3 km/h Distance 5.81 km</desc>
<time>2010-02-28T11:23:35.33</time>
<name>4039</name>
</trkpt>
<trkpt lat="48.935937" lon="8.679450">
<ele>377.0</ele>
<speed>4.1</speed>
<course>239.6</course>
<desc>Speed 4.1 km/h Distance 5.81 km</desc>
<time>2010-02-28T11:23:36.33</time>
<name>4040</name>
</trkpt>
<trkpt lat="48.935928" lon="8.679428">
<ele>377.0</ele>
<speed>4.4</speed>
<course>232.7</course>
<desc>Speed 4.4 km/h Distance 5.81 km</desc>
<time>2010-02-28T11:23:37.33</time>
<name>4041</name>
</trkpt>
<trkpt lat="48.935920" lon="8.679412">
<ele>377.0</ele>
<speed>4.6</speed>
<course>241.2</course>
<desc>Speed 4.6 km/h Distance 5.81 km</desc>
<time>2010-02-28T11:23:38.33</time>
<name>4042</name>
</trkpt>
<trkpt lat="48.935913" lon="8.679393">
<ele>377.0</ele>
<speed>4.6</speed>
<course>254.5</course>
<desc>Speed 4.6 km/h Distance 5.81 km</desc>
<time>2010-02-28T11:23:39.33</time>
<name>4043</name>
</trkpt>
<trkpt lat="48.935910" lon="8.679375">
<ele>377.0</ele>
<speed>4.5</speed>
<course>279.6</course>
<desc>Speed 4.5 km/h Distance 5.81 km</desc>
<time>2010-02-28T11:23:40.33</time>
<name>4044</name>
</trkpt>
<trkpt lat="48.935912" lon="8.679360">
<ele>377.0</ele>
<speed>4.0</speed>
<course>253.1</course>
<desc>Speed 4.0 km/h Distance 5.81 km</desc>
<time>2010-02-28T11:23:41.33</time>
<name>4045</name>
</trkpt>
<trkpt lat="48.935908" lon="8.679343">
<ele>377.0</ele>
<speed>4.3</speed>
<course>259.3</course>
<desc>Speed 4.3 km/h Distance 5.82 km</desc>
<time>2010-02-28T11:23:42.33</time>
<name>4046</name>
</trkpt>
<trkpt lat="48.935907" lon="8.679330">
<ele>377.0</ele>
<speed>3.9</speed>
<course>319.1</course>
<desc>Speed 3.9 km/h Distance 5.82 km</desc>
<time>2010-02-28T11:23:43.33</time>
<name>4047</name>
</trkpt>
<trkpt lat="48.935912" lon="8.679323">
<ele>378.0</ele>
<speed>4.1</speed>
<course>236.0</course>
<desc>Speed 4.1 km/h Distance 5.82 km</desc>
<time>2010-02-28T11:23:44.33</time>
<name>4048</name>
</trkpt>
<trkpt lat="48.935898" lon="8.679293">
<ele>379.0</ele>
<speed>3.6</speed>
<course>270.0</course>
<desc>Speed 3.6 km/h Distance 5.82 km</desc>
<time>2010-02-28T11:23:45.33</time>
<name>4049</name>
</trkpt>
<trkpt lat="48.935898" lon="8.679280">
<ele>379.5</ele>
<speed>3.0</speed>
<course>218.1</course>
<desc>Speed 3.0 km/h Distance 5.82 km</desc>
<time>2010-02-28T11:23:46.33</time>
<name>4050</name>
</trkpt>
<trkpt lat="48.935890" lon="8.679270">
<ele>379.5</ele>
<speed>0.3</speed>
<course>44.5</course>
<desc>Speed 0.3 km/h Distance 5.82 km</desc>
<time>2010-02-28T11:23:47.33</time>
<name>4051</name>
</trkpt>
<trkpt lat="48.935900" lon="8.679285">
<ele>379.5</ele>
<speed>2.7</speed>
<course>52.7</course>
<desc>Speed 2.7 km/h Distance 5.82 km</desc>
<time>2010-02-28T11:23:48.33</time>
<name>4052</name>
</trkpt>
<trkpt lat="48.935907" lon="8.679298">
<ele>379.0</ele>
<speed>2.9</speed>
<course>33.2</course>
<desc>Speed 2.9 km/h Distance 5.83 km</desc>
<time>2010-02-28T11:23:49.32</time>
<name>4053</name>
</trkpt>
<trkpt lat="48.935915" lon="8.679307">
<ele>378.5</ele>
<speed>2.9</speed>
<course>7.7</course>
<desc>Speed 2.9 km/h Distance 5.83 km</desc>
<time>2010-02-28T11:23:50.32</time>
<name>4054</name>
</trkpt>
<trkpt lat="48.935923" lon="8.679308">
<ele>378.0</ele>
<speed>0.3</speed>
<course>15.5</course>
<desc>Speed 0.3 km/h Distance 5.83 km</desc>
<time>2010-02-28T11:23:51.32</time>
<name>4055</name>
</trkpt>
<trkpt lat="48.935935" lon="8.679313">
<ele>377.5</ele>
<speed>0.9</speed>
<course>25.6</course>
<desc>Speed 0.9 km/h Distance 5.83 km</desc>
<time>2010-02-28T11:23:52.64</time>
<name>4056</name>
</trkpt>
<trkpt lat="48.935942" lon="8.679318">
<ele>377.0</ele>
<speed>0.5</speed>
<course>339.1</course>
<desc>Speed 0.5 km/h Distance 5.83 km</desc>
<time>2010-02-28T11:23:53.32</time>
<name>4057</name>
</trkpt>
<trkpt lat="48.935953" lon="8.679312">
<ele>376.0</ele>
<speed>0.8</speed>
<course>337.0</course>
<desc>Speed 0.8 km/h Distance 5.83 km</desc>
<time>2010-02-28T11:23:54.34</time>
<name>4058</name>
</trkpt>
<trkpt lat="48.935957" lon="8.679310">
<ele>376.0</ele>
<speed>0.3</speed>
<course>296.6</course>
<desc>Speed 0.3 km/h Distance 5.83 km</desc>
<time>2010-02-28T11:23:55.32</time>
<name>4059</name>
</trkpt>
<trkpt lat="48.935958" lon="8.679305">
<ele>376.0</ele>
<speed>1.2</speed>
<course>213.7</course>
<desc>Speed 1.2 km/h Distance 5.83 km</desc>
<time>2010-02-28T11:23:56.31</time>
<name>4060</name>
</trkpt>
<trkpt lat="48.935955" lon="8.679302">
<ele>376.0</ele>
<speed>0.8</speed>
<course>211.9</course>
<desc>Speed 0.8 km/h Distance 5.83 km</desc>
<time>2010-02-28T11:23:57.31</time>
<name>4061</name>
</trkpt>
<trkpt lat="48.935923" lon="8.679272">
<ele>376.0</ele>
<speed>1.4</speed>
<course>53.9</course>
<desc>Speed 1.4 km/h Distance 5.84 km</desc>
<time>2010-02-28T11:23:59.32</time>
<name>4062</name>
</trkpt>
<trkpt lat="48.935925" lon="8.679275">
<ele>376.0</ele>
<speed>1.3</speed>
<course>337.0</course>
<desc>Speed 1.3 km/h Distance 5.84 km</desc>
<time>2010-02-28T11:24:00.32</time>
<name>4063</name>
</trkpt>
<trkpt lat="48.935928" lon="8.679273">
<ele>376.0</ele>
<speed>1.3</speed>
<course>137.4</course>
<desc>Speed 1.3 km/h Distance 5.84 km</desc>
<time>2010-02-28T11:24:01.31</time>
<name>4064</name>
</trkpt>
<trkpt lat="48.935920" lon="8.679285">
<ele>377.0</ele>
<speed>1.8</speed>
<course>167.4</course>
<desc>Speed 1.8 km/h Distance 5.84 km</desc>
<time>2010-02-28T11:24:02.31</time>
<name>4065</name>
</trkpt>
<trkpt lat="48.935918" lon="8.679285">
<ele>377.0</ele>
<speed>0.2</speed>
<course>322.8</course>
<desc>Speed 0.2 km/h Distance 5.84 km</desc>
<time>2010-02-28T11:24:03.32</time>
<name>4066</name>
</trkpt>
<trkpt lat="48.935920" lon="8.679283">
<ele>376.5</ele>
<speed>0.6</speed>
<course>104.2</course>
<desc>Speed 0.6 km/h Distance 5.84 km</desc>
<time>2010-02-28T11:24:04.31</time>
<name>4067</name>
</trkpt>
<trkpt lat="48.935917" lon="8.679303">
<ele>377.0</ele>
<speed>5.1</speed>
<course>128.1</course>
<desc>Speed 5.1 km/h Distance 5.84 km</desc>
<time>2010-02-28T11:24:05.30</time>
<name>4068</name>
</trkpt>
<trkpt lat="48.935915" lon="8.679307">
<ele>377.0</ele>
<speed>0.5</speed>
<course>233.4</course>
<desc>Speed 0.5 km/h Distance 5.84 km</desc>
<time>2010-02-28T11:24:06.30</time>
<name>4069</name>
</trkpt>
<trkpt lat="48.935852" lon="8.679177">
<ele>378.5</ele>
<speed>18.7</speed>
<course>178.8</course>
<desc>Speed 18.7 km/h Distance 5.85 km</desc>
<time>2010-02-28T11:24:09.31</time>
<name>4070</name>
</trkpt>
<trkpt lat="48.935825" lon="8.679177">
<ele>378.5</ele>
<speed>3.4</speed>
<course>184.4</course>
<desc>Speed 3.4 km/h Distance 5.86 km</desc>
<time>2010-02-28T11:24:12.02</time>
<name>4071</name>
</trkpt>
<trkpt lat="48.935795" lon="8.679173">
<ele>378.5</ele>
<speed>8.1</speed>
<course>205.6</course>
<desc>Speed 8.1 km/h Distance 5.86 km</desc>
<time>2010-02-28T11:24:14.07</time>
<name>4072</name>
</trkpt>
<trkpt lat="48.935697" lon="8.679102">
<ele>378.5</ele>
<speed>2.2</speed>
<course>152.1</course>
<desc>Speed 2.2 km/h Distance 5.87 km</desc>
<time>2010-02-28T11:24:16.59</time>
<name>4073</name>
</trkpt>
<trkpt lat="48.935688" lon="8.679108">
<ele>378.5</ele>
<speed>4.3</speed>
<course>156.2</course>
<desc>Speed 4.3 km/h Distance 5.87 km</desc>
<time>2010-02-28T11:24:17.30</time>
<name>4074</name>
</trkpt>
<trkpt lat="48.935678" lon="8.679115">
<ele>378.5</ele>
<speed>4.3</speed>
<course>167.4</course>
<desc>Speed 4.3 km/h Distance 5.87 km</desc>
<time>2010-02-28T11:24:18.30</time>
<name>4075</name>
</trkpt>
<trkpt lat="48.935668" lon="8.679118">
<ele>378.5</ele>
<speed>5.2</speed>
<course>198.8</course>
<desc>Speed 5.2 km/h Distance 5.87 km</desc>
<time>2010-02-28T11:24:19.30</time>
<name>4076</name>
</trkpt>
<trkpt lat="48.935662" lon="8.679115">
<ele>378.5</ele>
<speed>4.2</speed>
<course>184.7</course>
<desc>Speed 4.2 km/h Distance 5.88 km</desc>
<time>2010-02-28T11:24:20.30</time>
<name>4077</name>
</trkpt>
<trkpt lat="48.935650" lon="8.679113">
<ele>378.5</ele>
<speed>4.5</speed>
<course>197.6</course>
<desc>Speed 4.5 km/h Distance 5.88 km</desc>
<time>2010-02-28T11:24:21.32</time>
<name>4078</name>
</trkpt>
<trkpt lat="48.935640" lon="8.679108">
<ele>378.5</ele>
<speed>5.1</speed>
<course>208.6</course>
<desc>Speed 5.1 km/h Distance 5.88 km</desc>
<time>2010-02-28T11:24:22.32</time>
<name>4079</name>
</trkpt>
<trkpt lat="48.935630" lon="8.679100">
<ele>378.5</ele>
<speed>5.3</speed>
<course>224.8</course>
<desc>Speed 5.3 km/h Distance 5.88 km</desc>
<time>2010-02-28T11:24:23.29</time>
<name>4080</name>
</trkpt>
<trkpt lat="48.935623" lon="8.679090">
<ele>378.5</ele>
<speed>5.1</speed>
<course>217.5</course>
<desc>Speed 5.1 km/h Distance 5.88 km</desc>
<time>2010-02-28T11:24:24.32</time>
<name>4081</name>
</trkpt>
<trkpt lat="48.935613" lon="8.679078">
<ele>379.0</ele>
<speed>6.0</speed>
<course>218.4</course>
<desc>Speed 6.0 km/h Distance 5.88 km</desc>
<time>2010-02-28T11:24:25.29</time>
<name>4082</name>
</trkpt>
<trkpt lat="48.935605" lon="8.679068">
<ele>379.0</ele>
<speed>4.9</speed>
<course>224.5</course>
<desc>Speed 4.9 km/h Distance 5.88 km</desc>
<time>2010-02-28T11:24:26.29</time>
<name>4083</name>
</trkpt>
<trkpt lat="48.935602" lon="8.679063">
<ele>379.0</ele>
<speed>4.1</speed>
<course>238.7</course>
<desc>Speed 4.1 km/h Distance 5.88 km</desc>
<time>2010-02-28T11:24:27.29</time>
<name>4084</name>
</trkpt>
<trkpt lat="48.935595" lon="8.679047">
<ele>379.0</ele>
<speed>5.8</speed>
<course>270.0</course>
<desc>Speed 5.8 km/h Distance 5.88 km</desc>
<time>2010-02-28T11:24:28.29</time>
<name>4085</name>
</trkpt>
<trkpt lat="48.935595" lon="8.679035">
<ele>379.0</ele>
<speed>4.9</speed>
<course>270.0</course>
<desc>Speed 4.9 km/h Distance 5.89 km</desc>
<time>2010-02-28T11:24:29.29</time>
<name>4086</name>
</trkpt>
<trkpt lat="48.935595" lon="8.679022">
<ele>379.0</ele>
<speed>5.0</speed>
<course>260.4</course>
<desc>Speed 5.0 km/h Distance 5.89 km</desc>
<time>2010-02-28T11:24:30.29</time>
<name>4087</name>
</trkpt>
<trkpt lat="48.935593" lon="8.679007">
<ele>379.0</ele>
<speed>5.4</speed>
<course>278.6</course>
<desc>Speed 5.4 km/h Distance 5.89 km</desc>
<time>2010-02-28T11:24:31.29</time>
<name>4088</name>
</trkpt>
<trkpt lat="48.935595" lon="8.678990">
<ele>379.0</ele>
<speed>4.9</speed>
<course>307.2</course>
<desc>Speed 4.9 km/h Distance 5.89 km</desc>
<time>2010-02-28T11:24:32.29</time>
<name>4089</name>
</trkpt>
<trkpt lat="48.935602" lon="8.678977">
<ele>379.0</ele>
<speed>4.9</speed>
<course>304.1</course>
<desc>Speed 4.9 km/h Distance 5.89 km</desc>
<time>2010-02-28T11:24:33.29</time>
<name>4090</name>
</trkpt>
<trkpt lat="48.935608" lon="8.678962">
<ele>379.0</ele>
<speed>5.3</speed>
<course>283.2</course>
<desc>Speed 5.3 km/h Distance 5.89 km</desc>
<time>2010-02-28T11:24:34.29</time>
<name>4091</name>
</trkpt>
<trkpt lat="48.935612" lon="8.678940">
<ele>379.0</ele>
<speed>5.4</speed>
<course>260.4</course>
<desc>Speed 5.4 km/h Distance 5.89 km</desc>
<time>2010-02-28T11:24:35.29</time>
<name>4092</name>
</trkpt>
<trkpt lat="48.935610" lon="8.678925">
<ele>379.0</ele>
<speed>4.9</speed>
<course>278.6</course>
<desc>Speed 4.9 km/h Distance 5.89 km</desc>
<time>2010-02-28T11:24:36.29</time>
<name>4093</name>
</trkpt>
<trkpt lat="48.935612" lon="8.678908">
<ele>379.5</ele>
<speed>5.0</speed>
<course>290.8</course>
<desc>Speed 5.0 km/h Distance 5.90 km</desc>
<time>2010-02-28T11:24:37.29</time>
<name>4094</name>
</trkpt>
<trkpt lat="48.935617" lon="8.678888">
<ele>379.5</ele>
<speed>6.0</speed>
<course>277.2</course>
<desc>Speed 6.0 km/h Distance 5.90 km</desc>
<time>2010-02-28T11:24:38.29</time>
<name>4095</name>
</trkpt>
<trkpt lat="48.935618" lon="8.678868">
<ele>379.5</ele>
<speed>5.7</speed>
<course>301.4</course>
<desc>Speed 5.7 km/h Distance 5.90 km</desc>
<time>2010-02-28T11:24:39.29</time>
<name>4096</name>
</trkpt>
<trkpt lat="48.935625" lon="8.678852">
<ele>379.5</ele>
<speed>4.9</speed>
<course>277.9</course>
<desc>Speed 4.9 km/h Distance 5.90 km</desc>
<time>2010-02-28T11:24:40.29</time>
<name>4097</name>
</trkpt>
<trkpt lat="48.935627" lon="8.678833">
<ele>379.5</ele>
<speed>5.6</speed>
<course>304.7</course>
<desc>Speed 5.6 km/h Distance 5.90 km</desc>
<time>2010-02-28T11:24:41.29</time>
<name>4098</name>
</trkpt>
<trkpt lat="48.935635" lon="8.678815">
<ele>379.5</ele>
<speed>5.5</speed>
<course>277.2</course>
<desc>Speed 5.5 km/h Distance 5.90 km</desc>
<time>2010-02-28T11:24:42.29</time>
<name>4099</name>
</trkpt>
<trkpt lat="48.935637" lon="8.678795">
<ele>379.5</ele>
<speed>5.8</speed>
<course>296.9</course>
<desc>Speed 5.8 km/h Distance 5.90 km</desc>
<time>2010-02-28T11:24:43.29</time>
<name>4100</name>
</trkpt>
<trkpt lat="48.935643" lon="8.678775">
<ele>379.5</ele>
<speed>5.5</speed>
<course>313.6</course>
<desc>Speed 5.5 km/h Distance 5.91 km</desc>
<time>2010-02-28T11:24:44.29</time>
<name>4101</name>
</trkpt>
<trkpt lat="48.935652" lon="8.678762">
<ele>379.5</ele>
<speed>4.8</speed>
<course>304.7</course>
<desc>Speed 4.8 km/h Distance 5.91 km</desc>
<time>2010-02-28T11:24:45.29</time>
<name>4102</name>
</trkpt>
<trkpt lat="48.935660" lon="8.678743">
<ele>379.5</ele>
<speed>5.5</speed>
<course>286.9</course>
<desc>Speed 5.5 km/h Distance 5.91 km</desc>
<time>2010-02-28T11:24:46.29</time>
<name>4103</name>
</trkpt>
<trkpt lat="48.935663" lon="8.678727">
<ele>379.5</ele>
<speed>5.5</speed>
<course>270.0</course>
<desc>Speed 5.5 km/h Distance 5.91 km</desc>
<time>2010-02-28T11:24:47.29</time>
<name>4104</name>
</trkpt>
<trkpt lat="48.935663" lon="8.678707">
<ele>379.5</ele>
<speed>5.9</speed>
<course>270.0</course>
<desc>Speed 5.9 km/h Distance 5.91 km</desc>
<time>2010-02-28T11:24:48.29</time>
<name>4105</name>
</trkpt>
<trkpt lat="48.935663" lon="8.678692">
<ele>379.5</ele>
<speed>5.4</speed>
<course>259.3</course>
<desc>Speed 5.4 km/h Distance 5.91 km</desc>
<time>2010-02-28T11:24:49.29</time>
<name>4106</name>
</trkpt>
<trkpt lat="48.935662" lon="8.678678">
<ele>379.5</ele>
<speed>4.7</speed>
<course>238.7</course>
<desc>Speed 4.7 km/h Distance 5.91 km</desc>
<time>2010-02-28T11:24:50.29</time>
<name>4107</name>
</trkpt>
<trkpt lat="48.935655" lon="8.678662">
<ele>379.5</ele>
<speed>6.2</speed>
<course>240.3</course>
<desc>Speed 6.2 km/h Distance 5.92 km</desc>
<time>2010-02-28T11:24:51.29</time>
<name>4108</name>
</trkpt>
<trkpt lat="48.935650" lon="8.678648">
<ele>379.5</ele>
<speed>5.0</speed>
<course>213.2</course>
<desc>Speed 5.0 km/h Distance 5.92 km</desc>
<time>2010-02-28T11:24:52.29</time>
<name>4109</name>
</trkpt>
<trkpt lat="48.935640" lon="8.678638">
<ele>379.5</ele>
<speed>5.0</speed>
<course>216.9</course>
<desc>Speed 5.0 km/h Distance 5.92 km</desc>
<time>2010-02-28T11:24:53.29</time>
<name>4110</name>
</trkpt>
<trkpt lat="48.935628" lon="8.678625">
<ele>379.5</ele>
<speed>6.3</speed>
<course>207.9</course>
<desc>Speed 6.3 km/h Distance 5.92 km</desc>
<time>2010-02-28T11:24:54.29</time>
<name>4111</name>
</trkpt>
<trkpt lat="48.935620" lon="8.678618">
<ele>379.5</ele>
<speed>3.6</speed>
<course>203.8</course>
<desc>Speed 3.6 km/h Distance 5.92 km</desc>
<time>2010-02-28T11:24:55.29</time>
<name>4112</name>
</trkpt>
<trkpt lat="48.935610" lon="8.678612">
<ele>379.5</ele>
<speed>4.9</speed>
<course>208.6</course>
<desc>Speed 4.9 km/h Distance 5.92 km</desc>
<time>2010-02-28T11:24:56.29</time>
<name>4113</name>
</trkpt>
<trkpt lat="48.935600" lon="8.678603">
<ele>379.5</ele>
<speed>4.4</speed>
<course>195.5</course>
<desc>Speed 4.4 km/h Distance 5.92 km</desc>
<time>2010-02-28T11:24:57.29</time>
<name>4114</name>
</trkpt>
<trkpt lat="48.935588" lon="8.678598">
<ele>379.5</ele>
<speed>5.2</speed>
<course>200.2</course>
<desc>Speed 5.2 km/h Distance 5.92 km</desc>
<time>2010-02-28T11:24:58.29</time>
<name>4115</name>
</trkpt>
<trkpt lat="48.935577" lon="8.678592">
<ele>379.5</ele>
<speed>4.9</speed>
<course>196.0</course>
<desc>Speed 4.9 km/h Distance 5.93 km</desc>
<time>2010-02-28T11:24:59.29</time>
<name>4116</name>
</trkpt>
<trkpt lat="48.935565" lon="8.678587">
<ele>379.5</ele>
<speed>4.9</speed>
<course>177.8</course>
<desc>Speed 4.9 km/h Distance 5.93 km</desc>
<time>2010-02-28T11:25:00.29</time>
<name>4117</name>
</trkpt>
<trkpt lat="48.935553" lon="8.678587">
<ele>379.0</ele>
<speed>5.2</speed>
<course>198.2</course>
<desc>Speed 5.2 km/h Distance 5.93 km</desc>
<time>2010-02-28T11:25:01.29</time>
<name>4118</name>
</trkpt>
<trkpt lat="48.935543" lon="8.678582">
<ele>379.0</ele>
<speed>4.6</speed>
<course>198.2</course>
<desc>Speed 4.6 km/h Distance 5.93 km</desc>
<time>2010-02-28T11:25:02.29</time>
<name>4119</name>
</trkpt>
<trkpt lat="48.935533" lon="8.678577">
<ele>379.0</ele>
<speed>4.5</speed>
<course>207.9</course>
<desc>Speed 4.5 km/h Distance 5.93 km</desc>
<time>2010-02-28T11:25:03.29</time>
<name>4120</name>
</trkpt>
<trkpt lat="48.935525" lon="8.678570">
<ele>379.0</ele>
<speed>4.6</speed>
<course>201.5</course>
<desc>Speed 4.6 km/h Distance 5.93 km</desc>
<time>2010-02-28T11:25:04.29</time>
<name>4121</name>
</trkpt>
<trkpt lat="48.935517" lon="8.678565">
<ele>379.0</ele>
<speed>4.8</speed>
<course>219.0</course>
<desc>Speed 4.8 km/h Distance 5.93 km</desc>
<time>2010-02-28T11:25:05.29</time>
<name>4122</name>
</trkpt>
<trkpt lat="48.935510" lon="8.678557">
<ele>379.5</ele>
<speed>3.8</speed>
<course>227.4</course>
<desc>Speed 3.8 km/h Distance 5.93 km</desc>
<time>2010-02-28T11:25:06.29</time>
<name>4123</name>
</trkpt>
<trkpt lat="48.935505" lon="8.678548">
<ele>379.5</ele>
<speed>3.6</speed>
<course>213.5</course>
<desc>Speed 3.6 km/h Distance 5.93 km</desc>
<time>2010-02-28T11:25:07.29</time>
<name>4124</name>
</trkpt>
<trkpt lat="48.935497" lon="8.678540">
<ele>380.0</ele>
<speed>3.7</speed>
<course>282.2</course>
<desc>Speed 3.7 km/h Distance 5.94 km</desc>
<time>2010-02-28T11:25:08.29</time>
<name>4125</name>
</trkpt>
<trkpt lat="48.935498" lon="8.678528">
<ele>380.5</ele>
<speed>3.7</speed>
<course>280.8</course>
<desc>Speed 3.7 km/h Distance 5.94 km</desc>
<time>2010-02-28T11:25:09.29</time>
<name>4126</name>
</trkpt>
<trkpt lat="48.935500" lon="8.678515">
<ele>381.5</ele>
<speed>3.7</speed>
<course>220.9</course>
<desc>Speed 3.7 km/h Distance 5.94 km</desc>
<time>2010-02-28T11:25:10.29</time>
<name>4127</name>
</trkpt>
<trkpt lat="48.935495" lon="8.678508">
<ele>382.0</ele>
<speed>2.7</speed>
<course>212.3</course>
<desc>Speed 2.7 km/h Distance 5.94 km</desc>
<time>2010-02-28T11:25:11.29</time>
<name>4128</name>
</trkpt>
<trkpt lat="48.935490" lon="8.678503">
<ele>382.0</ele>
<speed>2.9</speed>
<course>212.3</course>
<desc>Speed 2.9 km/h Distance 5.94 km</desc>
<time>2010-02-28T11:25:12.29</time>
<name>4129</name>
</trkpt>
<trkpt lat="48.935485" lon="8.678498">
<ele>382.0</ele>
<speed>2.8</speed>
<course>197.5</course>
<desc>Speed 2.8 km/h Distance 5.94 km</desc>
<time>2010-02-28T11:25:13.29</time>
<name>4130</name>
</trkpt>
<trkpt lat="48.935478" lon="8.678495">
<ele>382.5</ele>
<speed>2.4</speed>
<course>270.0</course>
<desc>Speed 2.4 km/h Distance 5.94 km</desc>
<time>2010-02-28T11:25:14.29</time>
<name>4131</name>
</trkpt>
<trkpt lat="48.935478" lon="8.678485">
<ele>383.0</ele>
<speed>2.9</speed>
<course>207.9</course>
<desc>Speed 2.9 km/h Distance 5.94 km</desc>
<time>2010-02-28T11:25:15.29</time>
<name>4132</name>
</trkpt>
<trkpt lat="48.935470" lon="8.678478">
<ele>383.5</ele>
<speed>3.4</speed>
<course>227.1</course>
<desc>Speed 3.4 km/h Distance 5.94 km</desc>
<time>2010-02-28T11:25:16.29</time>
<name>4133</name>
</trkpt>
<trkpt lat="48.935465" lon="8.678470">
<ele>384.0</ele>
<speed>3.4</speed>
<course>223.5</course>
<desc>Speed 3.4 km/h Distance 5.94 km</desc>
<time>2010-02-28T11:25:17.29</time>
<name>4134</name>
</trkpt>
<trkpt lat="48.935462" lon="8.678465">
<ele>384.5</ele>
<speed>2.3</speed>
<course>205.6</course>
<desc>Speed 2.3 km/h Distance 5.94 km</desc>
<time>2010-02-28T11:25:18.29</time>
<name>4135</name>
</trkpt>
<trkpt lat="48.935455" lon="8.678460">
<ele>384.5</ele>
<speed>2.7</speed>
<course>198.8</course>
<desc>Speed 2.7 km/h Distance 5.94 km</desc>
<time>2010-02-28T11:25:19.29</time>
<name>4136</name>
</trkpt>
<trkpt lat="48.935448" lon="8.678457">
<ele>384.5</ele>
<speed>1.7</speed>
<course>138.1</course>
<desc>Speed 1.7 km/h Distance 5.94 km</desc>
<time>2010-02-28T11:25:20.29</time>
<name>4137</name>
</trkpt>
<trkpt lat="48.935443" lon="8.678463">
<ele>384.0</ele>
<speed>3.2</speed>
<course>175.6</course>
<desc>Speed 3.2 km/h Distance 5.95 km</desc>
<time>2010-02-28T11:25:21.29</time>
<name>4138</name>
</trkpt>
<trkpt lat="48.935433" lon="8.678463">
<ele>384.0</ele>
<speed>2.8</speed>
<course>180.0</course>
<desc>Speed 2.8 km/h Distance 5.95 km</desc>
<time>2010-02-28T11:25:22.29</time>
<name>4139</name>
</trkpt>
<trkpt lat="48.935425" lon="8.678463">
<ele>384.0</ele>
<speed>2.4</speed>
<course>175.0</course>
<desc>Speed 2.4 km/h Distance 5.95 km</desc>
<time>2010-02-28T11:25:23.29</time>
<name>4140</name>
</trkpt>
<trkpt lat="48.935417" lon="8.678465">
<ele>384.0</ele>
<speed>2.7</speed>
<course>184.4</course>
<desc>Speed 2.7 km/h Distance 5.95 km</desc>
<time>2010-02-28T11:25:24.29</time>
<name>4141</name>
</trkpt>
<trkpt lat="48.935407" lon="8.678463">
<ele>384.0</ele>
<speed>3.2</speed>
<course>184.4</course>
<desc>Speed 3.2 km/h Distance 5.95 km</desc>
<time>2010-02-28T11:25:25.29</time>
<name>4142</name>
</trkpt>
<trkpt lat="48.935397" lon="8.678462">
<ele>384.0</ele>
<speed>3.3</speed>
<course>187.7</course>
<desc>Speed 3.3 km/h Distance 5.95 km</desc>
<time>2010-02-28T11:25:26.29</time>
<name>4143</name>
</trkpt>
<trkpt lat="48.935388" lon="8.678460">
<ele>384.0</ele>
<speed>3.1</speed>
<course>165.1</course>
<desc>Speed 3.1 km/h Distance 5.95 km</desc>
<time>2010-02-28T11:25:27.29</time>
<name>4144</name>
</trkpt>
<trkpt lat="48.935377" lon="8.678465">
<ele>383.0</ele>
<speed>4.2</speed>
<course>213.2</course>
<desc>Speed 4.2 km/h Distance 5.95 km</desc>
<time>2010-02-28T11:25:28.29</time>
<name>4145</name>
</trkpt>
<trkpt lat="48.935368" lon="8.678457">
<ele>383.5</ele>
<speed>3.7</speed>
<course>183.9</course>
<desc>Speed 3.7 km/h Distance 5.95 km</desc>
<time>2010-02-28T11:25:29.29</time>
<name>4146</name>
</trkpt>
<trkpt lat="48.935355" lon="8.678455">
<ele>383.5</ele>
<speed>3.2</speed>
<course>168.3</course>
<desc>Speed 3.2 km/h Distance 5.96 km</desc>
<time>2010-02-28T11:25:30.29</time>
<name>4147</name>
</trkpt>
<trkpt lat="48.935340" lon="8.678460">
<ele>384.0</ele>
<speed>3.5</speed>
<course>171.9</course>
<desc>Speed 3.5 km/h Distance 5.96 km</desc>
<time>2010-02-28T11:25:31.29</time>
<name>4148</name>
</trkpt>
<trkpt lat="48.935325" lon="8.678463">
<ele>384.0</ele>
<speed>3.2</speed>
<course>201.5</course>
<desc>Speed 3.2 km/h Distance 5.96 km</desc>
<time>2010-02-28T11:25:32.29</time>
<name>4149</name>
</trkpt>
<trkpt lat="48.935317" lon="8.678458">
<ele>384.5</ele>
<speed>3.1</speed>
<course>169.8</course>
<desc>Speed 3.1 km/h Distance 5.96 km</desc>
<time>2010-02-28T11:25:33.29</time>
<name>4150</name>
</trkpt>
<trkpt lat="48.935298" lon="8.678463">
<ele>384.0</ele>
<speed>4.7</speed>
<course>160.3</course>
<desc>Speed 4.7 km/h Distance 5.96 km</desc>
<time>2010-02-28T11:25:34.29</time>
<name>4151</name>
</trkpt>
<trkpt lat="48.935280" lon="8.678473">
<ele>383.0</ele>
<speed>4.8</speed>
<course>169.7</course>
<desc>Speed 4.8 km/h Distance 5.96 km</desc>
<time>2010-02-28T11:25:35.29</time>
<name>4152</name>
</trkpt>
<trkpt lat="48.935273" lon="8.678475">
<ele>383.5</ele>
<speed>2.2</speed>
<course>213.2</course>
<desc>Speed 2.2 km/h Distance 5.96 km</desc>
<time>2010-02-28T11:25:36.29</time>
<name>4153</name>
</trkpt>
<trkpt lat="48.935265" lon="8.678467">
<ele>384.0</ele>
<speed>4.4</speed>
<course>202.2</course>
<desc>Speed 4.4 km/h Distance 5.97 km</desc>
<time>2010-02-28T11:25:37.29</time>
<name>4154</name>
</trkpt>
<trkpt lat="48.935260" lon="8.678463">
<ele>384.0</ele>
<speed>2.4</speed>
<course>208.3</course>
<desc>Speed 2.4 km/h Distance 5.97 km</desc>
<time>2010-02-28T11:25:38.29</time>
<name>4155</name>
</trkpt>
<trkpt lat="48.935242" lon="8.678448">
<ele>386.0</ele>
<speed>8.7</speed>
<course>146.8</course>
<desc>Speed 8.7 km/h Distance 5.97 km</desc>
<time>2010-02-28T11:25:39.29</time>
<name>4156</name>
</trkpt>
<trkpt lat="48.935237" lon="8.678453">
<ele>386.0</ele>
<speed>1.9</speed>
<course>197.6</course>
<desc>Speed 1.9 km/h Distance 5.97 km</desc>
<time>2010-02-28T11:25:40.29</time>
<name>4157</name>
</trkpt>
<trkpt lat="48.935227" lon="8.678448">
<ele>385.5</ele>
<speed>3.9</speed>
<course>194.9</course>
<desc>Speed 3.9 km/h Distance 5.97 km</desc>
<time>2010-02-28T11:25:41.29</time>
<name>4158</name>
</trkpt>
<trkpt lat="48.935215" lon="8.678443">
<ele>385.5</ele>
<speed>4.6</speed>
<course>208.6</course>
<desc>Speed 4.6 km/h Distance 5.97 km</desc>
<time>2010-02-28T11:25:42.29</time>
<name>4159</name>
</trkpt>
<trkpt lat="48.935205" lon="8.678435">
<ele>386.0</ele>
<speed>4.4</speed>
<course>205.2</course>
<desc>Speed 4.4 km/h Distance 5.97 km</desc>
<time>2010-02-28T11:25:43.29</time>
<name>4160</name>
</trkpt>
<trkpt lat="48.935193" lon="8.678427">
<ele>386.0</ele>
<speed>4.4</speed>
<course>200.6</course>
<desc>Speed 4.4 km/h Distance 5.97 km</desc>
<time>2010-02-28T11:25:44.29</time>
<name>4161</name>
</trkpt>
<trkpt lat="48.935182" lon="8.678420">
<ele>386.0</ele>
<speed>4.2</speed>
<course>203.8</course>
<desc>Speed 4.2 km/h Distance 5.98 km</desc>
<time>2010-02-28T11:25:45.29</time>
<name>4162</name>
</trkpt>
<trkpt lat="48.935172" lon="8.678413">
<ele>386.0</ele>
<speed>4.0</speed>
<course>200.9</course>
<desc>Speed 4.0 km/h Distance 5.98 km</desc>
<time>2010-02-28T11:25:46.29</time>
<name>4163</name>
</trkpt>
<trkpt lat="48.935160" lon="8.678407">
<ele>386.0</ele>
<speed>3.6</speed>
<course>191.2</course>
<desc>Speed 3.6 km/h Distance 5.98 km</desc>
<time>2010-02-28T11:25:47.29</time>
<name>4164</name>
</trkpt>
<trkpt lat="48.935148" lon="8.678403">
<ele>386.5</ele>
<speed>4.0</speed>
<course>200.2</course>
<desc>Speed 4.0 km/h Distance 5.98 km</desc>
<time>2010-02-28T11:25:48.29</time>
<name>4165</name>
</trkpt>
<trkpt lat="48.935137" lon="8.678397">
<ele>386.5</ele>
<speed>4.0</speed>
<course>304.7</course>
<desc>Speed 4.0 km/h Distance 5.98 km</desc>
<time>2010-02-28T11:25:49.29</time>
<name>4166</name>
</trkpt>
<trkpt lat="48.935145" lon="8.678378">
<ele>387.5</ele>
<speed>7.8</speed>
<course>157.7</course>
<desc>Speed 7.8 km/h Distance 5.98 km</desc>
<time>2010-02-28T11:25:50.29</time>
<name>4167</name>
</trkpt>
<trkpt lat="48.935132" lon="8.678387">
<ele>389.0</ele>
<speed>6.1</speed>
<course>213.7</course>
<desc>Speed 6.1 km/h Distance 5.98 km</desc>
<time>2010-02-28T11:25:51.29</time>
<name>4168</name>
</trkpt>
<trkpt lat="48.935125" lon="8.678380">
<ele>389.0</ele>
<speed>3.5</speed>
<course>236.9</course>
<desc>Speed 3.5 km/h Distance 5.99 km</desc>
<time>2010-02-28T11:25:52.29</time>
<name>4169</name>
</trkpt>
<trkpt lat="48.935120" lon="8.678368">
<ele>389.5</ele>
<speed>3.3</speed>
<course>207.9</course>
<desc>Speed 3.3 km/h Distance 5.99 km</desc>
<time>2010-02-28T11:25:53.29</time>
<name>4170</name>
</trkpt>
<trkpt lat="48.935112" lon="8.678362">
<ele>389.5</ele>
<speed>4.0</speed>
<course>203.8</course>
<desc>Speed 4.0 km/h Distance 5.99 km</desc>
<time>2010-02-28T11:25:54.29</time>
<name>4171</name>
</trkpt>
<trkpt lat="48.935102" lon="8.678355">
<ele>389.5</ele>
<speed>4.3</speed>
<course>195.5</course>
<desc>Speed 4.3 km/h Distance 5.99 km</desc>
<time>2010-02-28T11:25:55.29</time>
<name>4172</name>
</trkpt>
<trkpt lat="48.935090" lon="8.678350">
<ele>390.0</ele>
<speed>4.2</speed>
<course>196.0</course>
<desc>Speed 4.2 km/h Distance 5.99 km</desc>
<time>2010-02-28T11:25:56.29</time>
<name>4173</name>
</trkpt>
<trkpt lat="48.935075" lon="8.678343">
<ele>390.0</ele>
<speed>5.8</speed>
<course>208.6</course>
<desc>Speed 5.8 km/h Distance 5.99 km</desc>
<time>2010-02-28T11:25:57.29</time>
<name>4174</name>
</trkpt>
<trkpt lat="48.935055" lon="8.678327">
<ele>391.5</ele>
<speed>8.7</speed>
<course>169.8</course>
<desc>Speed 8.7 km/h Distance 5.99 km</desc>
<time>2010-02-28T11:25:58.29</time>
<name>4175</name>
</trkpt>
<trkpt lat="48.935025" lon="8.678335">
<ele>391.0</ele>
<speed>10.6</speed>
<course>198.1</course>
<desc>Speed 10.6 km/h Distance 6.00 km</desc>
<time>2010-02-28T11:25:59.29</time>
<name>4176</name>
</trkpt>
<trkpt lat="48.935012" lon="8.678328">
<ele>391.0</ele>
<speed>4.9</speed>
<course>205.2</course>
<desc>Speed 4.9 km/h Distance 6.00 km</desc>
<time>2010-02-28T11:26:00.29</time>
<name>4177</name>
</trkpt>
<trkpt lat="48.935000" lon="8.678320">
<ele>391.0</ele>
<speed>4.7</speed>
<course>209.4</course>
<desc>Speed 4.7 km/h Distance 6.00 km</desc>
<time>2010-02-28T11:26:01.41</time>
<name>4178</name>
</trkpt>
<trkpt lat="48.934988" lon="8.678310">
<ele>391.5</ele>
<speed>4.8</speed>
<course>206.2</course>
<desc>Speed 4.8 km/h Distance 6.00 km</desc>
<time>2010-02-28T11:26:02.30</time>
<name>4179</name>
</trkpt>
<trkpt lat="48.934975" lon="8.678300">
<ele>391.5</ele>
<speed>4.9</speed>
<course>217.5</course>
<desc>Speed 4.9 km/h Distance 6.00 km</desc>
<time>2010-02-28T11:26:03.30</time>
<name>4180</name>
</trkpt>
<trkpt lat="48.934965" lon="8.678288">
<ele>391.5</ele>
<speed>5.0</speed>
<course>201.5</course>
<desc>Speed 5.0 km/h Distance 6.01 km</desc>
<time>2010-02-28T11:26:04.30</time>
<name>4181</name>
</trkpt>
<trkpt lat="48.934948" lon="8.678278">
<ele>391.0</ele>
<speed>5.8</speed>
<course>209.0</course>
<desc>Speed 5.8 km/h Distance 6.01 km</desc>
<time>2010-02-28T11:26:05.30</time>
<name>4182</name>
</trkpt>
<trkpt lat="48.934937" lon="8.678268">
<ele>391.0</ele>
<speed>5.0</speed>
<course>213.2</course>
<desc>Speed 5.0 km/h Distance 6.01 km</desc>
<time>2010-02-28T11:26:06.30</time>
<name>4183</name>
</trkpt>
<trkpt lat="48.934927" lon="8.678258">
<ele>391.0</ele>
<speed>4.9</speed>
<course>221.4</course>
<desc>Speed 4.9 km/h Distance 6.01 km</desc>
<time>2010-02-28T11:26:07.30</time>
<name>4184</name>
</trkpt>
<trkpt lat="48.934917" lon="8.678245">
<ele>391.5</ele>
<speed>5.1</speed>
<course>221.3</course>
<desc>Speed 5.1 km/h Distance 6.01 km</desc>
<time>2010-02-28T11:26:08.30</time>
<name>4185</name>
</trkpt>
<trkpt lat="48.934907" lon="8.678232">
<ele>391.5</ele>
<speed>5.1</speed>
<course>227.6</course>
<desc>Speed 5.1 km/h Distance 6.01 km</desc>
<time>2010-02-28T11:26:09.30</time>
<name>4186</name>
</trkpt>
<trkpt lat="48.934897" lon="8.678215">
<ele>391.5</ele>
<speed>5.4</speed>
<course>238.7</course>
<desc>Speed 5.4 km/h Distance 6.02 km</desc>
<time>2010-02-28T11:26:10.30</time>
<name>4187</name>
</trkpt>
<trkpt lat="48.934890" lon="8.678198">
<ele>391.5</ele>
<speed>5.3</speed>
<course>238.7</course>
<desc>Speed 5.3 km/h Distance 6.02 km</desc>
<time>2010-02-28T11:26:11.30</time>
<name>4188</name>
</trkpt>
<trkpt lat="48.934883" lon="8.678182">
<ele>391.5</ele>
<speed>5.1</speed>
<course>238.6</course>
<desc>Speed 5.1 km/h Distance 6.02 km</desc>
<time>2010-02-28T11:26:12.30</time>
<name>4189</name>
</trkpt>
<trkpt lat="48.934877" lon="8.678165">
<ele>391.5</ele>
<speed>5.3</speed>
<course>232.7</course>
<desc>Speed 5.3 km/h Distance 6.02 km</desc>
<time>2010-02-28T11:26:13.30</time>
<name>4190</name>
</trkpt>
<trkpt lat="48.934868" lon="8.678148">
<ele>392.0</ele>
<speed>5.5</speed>
<course>241.0</course>
<desc>Speed 5.5 km/h Distance 6.02 km</desc>
<time>2010-02-28T11:26:14.30</time>
<name>4191</name>
</trkpt>
<trkpt lat="48.934862" lon="8.678130">
<ele>391.5</ele>
<speed>5.4</speed>
<course>247.5</course>
<desc>Speed 5.4 km/h Distance 6.02 km</desc>
<time>2010-02-28T11:26:15.30</time>
<name>4192</name>
</trkpt>
<trkpt lat="48.934857" lon="8.678112">
<ele>391.5</ele>
<speed>5.4</speed>
<course>213.3</course>
<desc>Speed 5.4 km/h Distance 6.02 km</desc>
<time>2010-02-28T11:26:16.30</time>
<name>4193</name>
</trkpt>
<trkpt lat="48.934843" lon="8.678098">
<ele>390.5</ele>
<speed>6.4</speed>
<course>254.5</course>
<desc>Speed 6.4 km/h Distance 6.03 km</desc>
<time>2010-02-28T11:26:17.30</time>
<name>4194</name>
</trkpt>
<trkpt lat="48.934840" lon="8.678080">
<ele>391.0</ele>
<speed>5.4</speed>
<course>262.1</course>
<desc>Speed 5.4 km/h Distance 6.03 km</desc>
<time>2010-02-28T11:26:18.30</time>
<name>4195</name>
</trkpt>
<trkpt lat="48.934838" lon="8.678062">
<ele>390.5</ele>
<speed>5.0</speed>
<course>304.1</course>
<desc>Speed 5.0 km/h Distance 6.03 km</desc>
<time>2010-02-28T11:26:19.30</time>
<name>4196</name>
</trkpt>
<trkpt lat="48.934845" lon="8.678047">
<ele>390.5</ele>
<speed>5.0</speed>
<course>235.9</course>
<desc>Speed 5.0 km/h Distance 6.03 km</desc>
<time>2010-02-28T11:26:20.30</time>
<name>4197</name>
</trkpt>
<trkpt lat="48.934838" lon="8.678032">
<ele>390.0</ele>
<speed>4.4</speed>
<course>255.8</course>
<desc>Speed 4.4 km/h Distance 6.03 km</desc>
<time>2010-02-28T11:26:21.30</time>
<name>4198</name>
</trkpt>
<trkpt lat="48.934835" lon="8.678012">
<ele>390.0</ele>
<speed>5.2</speed>
<course>254.5</course>
<desc>Speed 5.2 km/h Distance 6.03 km</desc>
<time>2010-02-28T11:26:22.30</time>
<name>4199</name>
</trkpt>
<trkpt lat="48.934832" lon="8.677993">
<ele>390.0</ele>
<speed>5.1</speed>
<course>253.1</course>
<desc>Speed 5.1 km/h Distance 6.03 km</desc>
<time>2010-02-28T11:26:23.30</time>
<name>4200</name>
</trkpt>
<trkpt lat="48.934828" lon="8.677977">
<ele>390.0</ele>
<speed>4.8</speed>
<course>253.1</course>
<desc>Speed 4.8 km/h Distance 6.04 km</desc>
<time>2010-02-28T11:26:24.30</time>
<name>4201</name>
</trkpt>
<trkpt lat="48.934825" lon="8.677960">
<ele>389.5</ele>
<speed>4.3</speed>
<course>295.4</course>
<desc>Speed 4.3 km/h Distance 6.04 km</desc>
<time>2010-02-28T11:26:25.30</time>
<name>4202</name>
</trkpt>
<trkpt lat="48.934833" lon="8.677933">
<ele>389.5</ele>
<speed>8.3</speed>
<course>236.7</course>
<desc>Speed 8.3 km/h Distance 6.04 km</desc>
<time>2010-02-28T11:26:26.30</time>
<name>4203</name>
</trkpt>
<trkpt lat="48.934828" lon="8.677922">
<ele>388.5</ele>
<speed>3.4</speed>
<course>255.8</course>
<desc>Speed 3.4 km/h Distance 6.04 km</desc>
<time>2010-02-28T11:26:27.30</time>
<name>4204</name>
</trkpt>
<trkpt lat="48.934825" lon="8.677902">
<ele>389.0</ele>
<speed>4.8</speed>
<course>258.5</course>
<desc>Speed 4.8 km/h Distance 6.04 km</desc>
<time>2010-02-28T11:26:28.30</time>
<name>4205</name>
</trkpt>
<trkpt lat="48.934822" lon="8.677877">
<ele>389.0</ele>
<speed>5.5</speed>
<course>255.8</course>
<desc>Speed 5.5 km/h Distance 6.04 km</desc>
<time>2010-02-28T11:26:29.30</time>
<name>4206</name>
</trkpt>
<trkpt lat="48.934818" lon="8.677857">
<ele>389.0</ele>
<speed>5.4</speed>
<course>263.8</course>
<desc>Speed 5.4 km/h Distance 6.04 km</desc>
<time>2010-02-28T11:26:30.30</time>
<name>4207</name>
</trkpt>
<trkpt lat="48.934817" lon="8.677833">
<ele>389.0</ele>
<speed>5.6</speed>
<course>329.7</course>
<desc>Speed 5.6 km/h Distance 6.05 km</desc>
<time>2010-02-28T11:26:31.30</time>
<name>4208</name>
</trkpt>
<trkpt lat="48.934832" lon="8.677820">
<ele>389.0</ele>
<speed>6.9</speed>
<course>263.3</course>
<desc>Speed 6.9 km/h Distance 6.05 km</desc>
<time>2010-02-28T11:26:32.30</time>
<name>4209</name>
</trkpt>
<trkpt lat="48.934830" lon="8.677798">
<ele>389.0</ele>
<speed>5.6</speed>
<course>315.4</course>
<desc>Speed 5.6 km/h Distance 6.05 km</desc>
<time>2010-02-28T11:26:33.30</time>
<name>4210</name>
</trkpt>
<trkpt lat="48.934840" lon="8.677783">
<ele>389.0</ele>
<speed>5.6</speed>
<course>263.3</course>
<desc>Speed 5.6 km/h Distance 6.05 km</desc>
<time>2010-02-28T11:26:34.30</time>
<name>4211</name>
</trkpt>
<trkpt lat="48.934838" lon="8.677762">
<ele>389.0</ele>
<speed>5.5</speed>
<course>296.9</course>
<desc>Speed 5.5 km/h Distance 6.05 km</desc>
<time>2010-02-28T11:26:35.30</time>
<name>4212</name>
</trkpt>
<trkpt lat="48.934843" lon="8.677747">
<ele>389.0</ele>
<speed>4.4</speed>
<course>245.5</course>
<desc>Speed 4.4 km/h Distance 6.05 km</desc>
<time>2010-02-28T11:26:36.30</time>
<name>4213</name>
</trkpt>
<trkpt lat="48.934838" lon="8.677730">
<ele>389.0</ele>
<speed>4.4</speed>
<course>260.4</course>
<desc>Speed 4.4 km/h Distance 6.06 km</desc>
<time>2010-02-28T11:26:37.30</time>
<name>4214</name>
</trkpt>
<trkpt lat="48.934837" lon="8.677715">
<ele>389.0</ele>
<speed>4.4</speed>
<course>263.3</course>
<desc>Speed 4.4 km/h Distance 6.06 km</desc>
<time>2010-02-28T11:26:38.30</time>
<name>4215</name>
</trkpt>
<trkpt lat="48.934835" lon="8.677693">
<ele>389.0</ele>
<speed>5.4</speed>
<course>238.7</course>
<desc>Speed 5.4 km/h Distance 6.06 km</desc>
<time>2010-02-28T11:26:39.30</time>
<name>4216</name>
</trkpt>
<trkpt lat="48.934828" lon="8.677677">
<ele>388.5</ele>
<speed>4.8</speed>
<course>263.3</course>
<desc>Speed 4.8 km/h Distance 6.06 km</desc>
<time>2010-02-28T11:26:40.30</time>
<name>4217</name>
</trkpt>
<trkpt lat="48.934827" lon="8.677655">
<ele>388.5</ele>
<speed>5.8</speed>
<course>232.7</course>
<desc>Speed 5.8 km/h Distance 6.06 km</desc>
<time>2010-02-28T11:26:41.30</time>
<name>4218</name>
</trkpt>
<trkpt lat="48.934818" lon="8.677638">
<ele>388.5</ele>
<speed>5.1</speed>
<course>249.2</course>
<desc>Speed 5.1 km/h Distance 6.06 km</desc>
<time>2010-02-28T11:26:42.30</time>
<name>4219</name>
</trkpt>
<trkpt lat="48.934813" lon="8.677618">
<ele>388.5</ele>
<speed>5.4</speed>
<course>235.9</course>
<desc>Speed 5.4 km/h Distance 6.06 km</desc>
<time>2010-02-28T11:26:43.30</time>
<name>4220</name>
</trkpt>
<trkpt lat="48.934807" lon="8.677603">
<ele>388.0</ele>
<speed>5.0</speed>
<course>245.4</course>
<desc>Speed 5.0 km/h Distance 6.07 km</desc>
<time>2010-02-28T11:26:44.30</time>
<name>4221</name>
</trkpt>
<trkpt lat="48.934802" lon="8.677587">
<ele>388.0</ele>
<speed>5.0</speed>
<course>255.8</course>
<desc>Speed 5.0 km/h Distance 6.07 km</desc>
<time>2010-02-28T11:26:45.30</time>
<name>4222</name>
</trkpt>
<trkpt lat="48.934798" lon="8.677567">
<ele>388.0</ele>
<speed>5.5</speed>
<course>249.2</course>
<desc>Speed 5.5 km/h Distance 6.07 km</desc>
<time>2010-02-28T11:26:46.30</time>
<name>4223</name>
</trkpt>
<trkpt lat="48.934793" lon="8.677547">
<ele>388.0</ele>
<speed>5.4</speed>
<course>249.2</course>
<desc>Speed 5.4 km/h Distance 6.07 km</desc>
<time>2010-02-28T11:26:47.30</time>
<name>4224</name>
</trkpt>
<trkpt lat="48.934788" lon="8.677527">
<ele>388.0</ele>
<speed>5.6</speed>
<course>262.1</course>
<desc>Speed 5.6 km/h Distance 6.07 km</desc>
<time>2010-02-28T11:26:48.30</time>
<name>4225</name>
</trkpt>
<trkpt lat="48.934787" lon="8.677508">
<ele>388.0</ele>
<speed>5.3</speed>
<course>249.2</course>
<desc>Speed 5.3 km/h Distance 6.07 km</desc>
<time>2010-02-28T11:26:49.30</time>
<name>4226</name>
</trkpt>
<trkpt lat="48.934782" lon="8.677488">
<ele>388.5</ele>
<speed>5.4</speed>
<course>243.1</course>
<desc>Speed 5.4 km/h Distance 6.07 km</desc>
<time>2010-02-28T11:26:50.30</time>
<name>4227</name>
</trkpt>
<trkpt lat="48.934775" lon="8.677468">
<ele>388.5</ele>
<speed>5.1</speed>
<course>238.7</course>
<desc>Speed 5.1 km/h Distance 6.08 km</desc>
<time>2010-02-28T11:26:51.30</time>
<name>4228</name>
</trkpt>
<trkpt lat="48.934768" lon="8.677452">
<ele>388.0</ele>
<speed>5.2</speed>
<course>249.2</course>
<desc>Speed 5.2 km/h Distance 6.08 km</desc>
<time>2010-02-28T11:26:52.30</time>
<name>4229</name>
</trkpt>
<trkpt lat="48.934763" lon="8.677432">
<ele>388.0</ele>
<speed>5.5</speed>
<course>263.8</course>
<desc>Speed 5.5 km/h Distance 6.08 km</desc>
<time>2010-02-28T11:26:53.30</time>
<name>4230</name>
</trkpt>
<trkpt lat="48.934762" lon="8.677408">
<ele>388.0</ele>
<speed>5.3</speed>
<course>256.8</course>
<desc>Speed 5.3 km/h Distance 6.08 km</desc>
<time>2010-02-28T11:26:54.30</time>
<name>4231</name>
</trkpt>
<trkpt lat="48.934758" lon="8.677387">
<ele>388.0</ele>
<speed>5.4</speed>
<course>263.8</course>
<desc>Speed 5.4 km/h Distance 6.08 km</desc>
<time>2010-02-28T11:26:55.30</time>
<name>4232</name>
</trkpt>
<trkpt lat="48.934757" lon="8.677363">
<ele>388.0</ele>
<speed>5.5</speed>
<course>276.2</course>
<desc>Speed 5.5 km/h Distance 6.08 km</desc>
<time>2010-02-28T11:26:56.30</time>
<name>4233</name>
</trkpt>
<trkpt lat="48.934758" lon="8.677340">
<ele>388.0</ele>
<speed>5.0</speed>
<course>256.8</course>
<desc>Speed 5.0 km/h Distance 6.09 km</desc>
<time>2010-02-28T11:26:57.30</time>
<name>4234</name>
</trkpt>
<trkpt lat="48.934755" lon="8.677318">
<ele>388.0</ele>
<speed>5.3</speed>
<course>263.8</course>
<desc>Speed 5.3 km/h Distance 6.09 km</desc>
<time>2010-02-28T11:26:58.30</time>
<name>4235</name>
</trkpt>
<trkpt lat="48.934753" lon="8.677295">
<ele>388.0</ele>
<speed>5.0</speed>
<course>190.2</course>
<desc>Speed 5.0 km/h Distance 6.09 km</desc>
<time>2010-02-28T11:26:59.30</time>
<name>4236</name>
</trkpt>
<trkpt lat="48.934735" lon="8.677290">
<ele>386.5</ele>
<speed>7.7</speed>
<course>286.0</course>
<desc>Speed 7.7 km/h Distance 6.09 km</desc>
<time>2010-02-28T11:27:00.30</time>
<name>4237</name>
</trkpt>
<trkpt lat="48.934740" lon="8.677263">
<ele>387.0</ele>
<speed>6.7</speed>
<course>285.5</course>
<desc>Speed 6.7 km/h Distance 6.09 km</desc>
<time>2010-02-28T11:27:01.30</time>
<name>4238</name>
</trkpt>
<trkpt lat="48.934743" lon="8.677245">
<ele>387.0</ele>
<speed>4.7</speed>
<course>270.0</course>
<desc>Speed 4.7 km/h Distance 6.09 km</desc>
<time>2010-02-28T11:27:02.30</time>
<name>4239</name>
</trkpt>
<trkpt lat="48.934743" lon="8.677222">
<ele>387.5</ele>
<speed>5.7</speed>
<course>270.0</course>
<desc>Speed 5.7 km/h Distance 6.10 km</desc>
<time>2010-02-28T11:27:03.30</time>
<name>4240</name>
</trkpt>
<trkpt lat="48.934743" lon="8.677203">
<ele>387.0</ele>
<speed>3.7</speed>
<course>277.2</course>
<desc>Speed 3.7 km/h Distance 6.10 km</desc>
<time>2010-02-28T11:27:04.30</time>
<name>4241</name>
</trkpt>
<trkpt lat="48.934745" lon="8.677183">
<ele>387.0</ele>
<speed>5.1</speed>
<course>277.2</course>
<desc>Speed 5.1 km/h Distance 6.10 km</desc>
<time>2010-02-28T11:27:05.30</time>
<name>4242</name>
</trkpt>
<trkpt lat="48.934747" lon="8.677163">
<ele>387.0</ele>
<speed>5.0</speed>
<course>262.8</course>
<desc>Speed 5.0 km/h Distance 6.10 km</desc>
<time>2010-02-28T11:27:06.30</time>
<name>4243</name>
</trkpt>
<trkpt lat="48.934745" lon="8.677143">
<ele>387.0</ele>
<speed>5.3</speed>
<course>261.3</course>
<desc>Speed 5.3 km/h Distance 6.10 km</desc>
<time>2010-02-28T11:27:07.30</time>
<name>4244</name>
</trkpt>
<trkpt lat="48.934743" lon="8.677127">
<ele>387.0</ele>
<speed>4.5</speed>
<course>262.8</course>
<desc>Speed 4.5 km/h Distance 6.10 km</desc>
<time>2010-02-28T11:27:08.30</time>
<name>4245</name>
</trkpt>
<trkpt lat="48.934742" lon="8.677107">
<ele>386.5</ele>
<speed>5.1</speed>
<course>270.0</course>
<desc>Speed 5.1 km/h Distance 6.10 km</desc>
<time>2010-02-28T11:27:09.30</time>
<name>4246</name>
</trkpt>
<trkpt lat="48.934742" lon="8.677085">
<ele>386.5</ele>
<speed>5.4</speed>
<course>270.0</course>
<desc>Speed 5.4 km/h Distance 6.11 km</desc>
<time>2010-02-28T11:27:10.30</time>
<name>4247</name>
</trkpt>
<trkpt lat="48.934742" lon="8.677063">
<ele>386.5</ele>
<speed>5.2</speed>
<course>283.2</course>
<desc>Speed 5.2 km/h Distance 6.11 km</desc>
<time>2010-02-28T11:27:11.30</time>
<name>4248</name>
</trkpt>
<trkpt lat="48.934745" lon="8.677042">
<ele>386.5</ele>
<speed>5.2</speed>
<course>253.1</course>
<desc>Speed 5.2 km/h Distance 6.11 km</desc>
<time>2010-02-28T11:27:12.30</time>
<name>4249</name>
</trkpt>
<trkpt lat="48.934738" lon="8.677008">
<ele>387.0</ele>
<speed>5.7</speed>
<course>270.0</course>
<desc>Speed 5.7 km/h Distance 6.11 km</desc>
<time>2010-02-28T11:27:13.30</time>
<name>4250</name>
</trkpt>
<trkpt lat="48.934738" lon="8.676985">
<ele>387.0</ele>
<speed>5.7</speed>
<course>249.2</course>
<desc>Speed 5.7 km/h Distance 6.11 km</desc>
<time>2010-02-28T11:27:14.30</time>
<name>4251</name>
</trkpt>
<trkpt lat="48.934733" lon="8.676965">
<ele>387.0</ele>
<speed>5.3</speed>
<course>244.6</course>
<desc>Speed 5.3 km/h Distance 6.12 km</desc>
<time>2010-02-28T11:27:15.30</time>
<name>4252</name>
</trkpt>
<trkpt lat="48.934725" lon="8.676938">
<ele>387.5</ele>
<speed>5.4</speed>
<course>243.1</course>
<desc>Speed 5.4 km/h Distance 6.12 km</desc>
<time>2010-02-28T11:27:16.30</time>
<name>4253</name>
</trkpt>
<trkpt lat="48.934717" lon="8.676913">
<ele>388.0</ele>
<speed>5.5</speed>
<course>253.1</course>
<desc>Speed 5.5 km/h Distance 6.12 km</desc>
<time>2010-02-28T11:27:17.30</time>
<name>4254</name>
</trkpt>
<trkpt lat="48.934712" lon="8.676888">
<ele>388.0</ele>
<speed>5.5</speed>
<course>247.9</course>
<desc>Speed 5.5 km/h Distance 6.12 km</desc>
<time>2010-02-28T11:27:18.30</time>
<name>4255</name>
</trkpt>
<trkpt lat="48.934705" lon="8.676863">
<ele>388.0</ele>
<speed>5.5</speed>
<course>263.3</course>
<desc>Speed 5.5 km/h Distance 6.12 km</desc>
<time>2010-02-28T11:27:19.30</time>
<name>4256</name>
</trkpt>
<trkpt lat="48.934703" lon="8.676842">
<ele>388.0</ele>
<speed>5.5</speed>
<course>256.8</course>
<desc>Speed 5.5 km/h Distance 6.13 km</desc>
<time>2010-02-28T11:27:20.30</time>
<name>4257</name>
</trkpt>
<trkpt lat="48.934700" lon="8.676820">
<ele>388.5</ele>
<speed>5.4</speed>
<course>257.7</course>
<desc>Speed 5.4 km/h Distance 6.13 km</desc>
<time>2010-02-28T11:27:21.30</time>
<name>4258</name>
</trkpt>
<trkpt lat="48.934697" lon="8.676797">
<ele>388.5</ele>
<speed>5.4</speed>
<course>250.6</course>
<desc>Speed 5.4 km/h Distance 6.13 km</desc>
<time>2010-02-28T11:27:22.30</time>
<name>4259</name>
</trkpt>
<trkpt lat="48.934692" lon="8.676775">
<ele>388.0</ele>
<speed>5.4</speed>
<course>246.5</course>
<desc>Speed 5.4 km/h Distance 6.13 km</desc>
<time>2010-02-28T11:27:23.30</time>
<name>4260</name>
</trkpt>
<trkpt lat="48.934685" lon="8.676752">
<ele>388.5</ele>
<speed>5.2</speed>
<course>241.5</course>
<desc>Speed 5.2 km/h Distance 6.13 km</desc>
<time>2010-02-28T11:27:24.30</time>
<name>4261</name>
</trkpt>
<trkpt lat="48.934677" lon="8.676728">
<ele>388.5</ele>
<speed>5.4</speed>
<course>259.2</course>
<desc>Speed 5.4 km/h Distance 6.13 km</desc>
<time>2010-02-28T11:27:25.30</time>
<name>4262</name>
</trkpt>
<trkpt lat="48.934673" lon="8.676702">
<ele>388.5</ele>
<speed>5.6</speed>
<course>241.1</course>
<desc>Speed 5.6 km/h Distance 6.14 km</desc>
<time>2010-02-28T11:27:26.30</time>
<name>4263</name>
</trkpt>
<trkpt lat="48.934667" lon="8.676683">
<ele>388.5</ele>
<speed>5.0</speed>
<course>257.7</course>
<desc>Speed 5.0 km/h Distance 6.14 km</desc>
<time>2010-02-28T11:27:27.30</time>
<name>4264</name>
</trkpt>
<trkpt lat="48.934663" lon="8.676660">
<ele>389.0</ele>
<speed>5.5</speed>
<course>251.9</course>
<desc>Speed 5.5 km/h Distance 6.14 km</desc>
<time>2010-02-28T11:27:28.30</time>
<name>4265</name>
</trkpt>
<trkpt lat="48.934658" lon="8.676637">
<ele>389.0</ele>
<speed>5.7</speed>
<course>256.8</course>
<desc>Speed 5.7 km/h Distance 6.14 km</desc>
<time>2010-02-28T11:27:29.30</time>
<name>4266</name>
</trkpt>
<trkpt lat="48.934655" lon="8.676615">
<ele>388.5</ele>
<speed>5.3</speed>
<course>255.8</course>
<desc>Speed 5.3 km/h Distance 6.14 km</desc>
<time>2010-02-28T11:27:30.30</time>
<name>4267</name>
</trkpt>
<trkpt lat="48.934652" lon="8.676595">
<ele>388.5</ele>
<speed>4.9</speed>
<course>256.8</course>
<desc>Speed 4.9 km/h Distance 6.14 km</desc>
<time>2010-02-28T11:27:31.30</time>
<name>4268</name>
</trkpt>
<trkpt lat="48.934648" lon="8.676573">
<ele>388.5</ele>
<speed>5.3</speed>
<course>270.0</course>
<desc>Speed 5.3 km/h Distance 6.15 km</desc>
<time>2010-02-28T11:27:32.30</time>
<name>4269</name>
</trkpt>
<trkpt lat="48.934648" lon="8.676552">
<ele>388.5</ele>
<speed>5.0</speed>
<course>263.3</course>
<desc>Speed 5.0 km/h Distance 6.15 km</desc>
<time>2010-02-28T11:27:33.30</time>
<name>4270</name>
</trkpt>
<trkpt lat="48.934647" lon="8.676530">
<ele>389.0</ele>
<speed>4.9</speed>
<course>253.0</course>
<desc>Speed 4.9 km/h Distance 6.15 km</desc>
<time>2010-02-28T11:27:34.30</time>
<name>4271</name>
</trkpt>
<trkpt lat="48.934643" lon="8.676513">
<ele>388.5</ele>
<speed>4.6</speed>
<course>254.5</course>
<desc>Speed 4.6 km/h Distance 6.15 km</desc>
<time>2010-02-28T11:27:35.30</time>
<name>4272</name>
</trkpt>
<trkpt lat="48.934640" lon="8.676495">
<ele>388.5</ele>
<speed>5.0</speed>
<course>262.1</course>
<desc>Speed 5.0 km/h Distance 6.15 km</desc>
<time>2010-02-28T11:27:36.30</time>
<name>4273</name>
</trkpt>
<trkpt lat="48.934638" lon="8.676477">
<ele>388.5</ele>
<speed>4.6</speed>
<course>260.4</course>
<desc>Speed 4.6 km/h Distance 6.15 km</desc>
<time>2010-02-28T11:27:37.30</time>
<name>4274</name>
</trkpt>
<trkpt lat="48.934637" lon="8.676462">
<ele>388.0</ele>
<speed>4.0</speed>
<course>270.0</course>
<desc>Speed 4.0 km/h Distance 6.15 km</desc>
<time>2010-02-28T11:27:38.30</time>
<name>4275</name>
</trkpt>
<trkpt lat="48.934637" lon="8.676445">
<ele>387.5</ele>
<speed>3.8</speed>
<course>262.8</course>
<desc>Speed 3.8 km/h Distance 6.16 km</desc>
<time>2010-02-28T11:27:39.30</time>
<name>4276</name>
</trkpt>
<trkpt lat="48.934635" lon="8.676425">
<ele>387.5</ele>
<speed>5.1</speed>
<course>270.0</course>
<desc>Speed 5.1 km/h Distance 6.16 km</desc>
<time>2010-02-28T11:27:40.30</time>
<name>4277</name>
</trkpt>
<trkpt lat="48.934635" lon="8.676405">
<ele>387.5</ele>
<speed>4.5</speed>
<course>263.3</course>
<desc>Speed 4.5 km/h Distance 6.16 km</desc>
<time>2010-02-28T11:27:41.30</time>
<name>4278</name>
</trkpt>
<trkpt lat="48.934633" lon="8.676383">
<ele>388.0</ele>
<speed>5.1</speed>
<course>275.4</course>
<desc>Speed 5.1 km/h Distance 6.16 km</desc>
<time>2010-02-28T11:27:42.30</time>
<name>4279</name>
</trkpt>
<trkpt lat="48.934635" lon="8.676357">
<ele>388.5</ele>
<speed>5.6</speed>
<course>277.2</course>
<desc>Speed 5.6 km/h Distance 6.16 km</desc>
<time>2010-02-28T11:27:43.30</time>
<name>4280</name>
</trkpt>
<trkpt lat="48.934637" lon="8.676337">
<ele>388.5</ele>
<speed>4.0</speed>
<course>276.2</course>
<desc>Speed 4.0 km/h Distance 6.16 km</desc>
<time>2010-02-28T11:27:44.30</time>
<name>4281</name>
</trkpt>
<trkpt lat="48.934638" lon="8.676313">
<ele>387.5</ele>
<speed>6.0</speed>
<course>246.5</course>
<desc>Speed 6.0 km/h Distance 6.17 km</desc>
<time>2010-02-28T11:27:45.30</time>
<name>4282</name>
</trkpt>
<trkpt lat="48.934635" lon="8.676302">
<ele>387.5</ele>
<speed>3.1</speed>
<course>270.0</course>
<desc>Speed 3.1 km/h Distance 6.17 km</desc>
<time>2010-02-28T11:27:46.30</time>
<name>4283</name>
</trkpt>
<trkpt lat="48.934635" lon="8.676285">
<ele>387.5</ele>
<speed>3.9</speed>
<course>276.7</course>
<desc>Speed 3.9 km/h Distance 6.17 km</desc>
<time>2010-02-28T11:27:47.30</time>
<name>4284</name>
</trkpt>
<trkpt lat="48.934637" lon="8.676263">
<ele>387.0</ele>
<speed>5.3</speed>
<course>270.0</course>
<desc>Speed 5.3 km/h Distance 6.17 km</desc>
<time>2010-02-28T11:27:48.30</time>
<name>4285</name>
</trkpt>
<trkpt lat="48.934637" lon="8.676247">
<ele>387.0</ele>
<speed>4.1</speed>
<course>288.7</course>
<desc>Speed 4.1 km/h Distance 6.17 km</desc>
<time>2010-02-28T11:27:49.53</time>
<name>4286</name>
</trkpt>
<trkpt lat="48.934640" lon="8.676232">
<ele>386.0</ele>
<speed>4.4</speed>
<course>307.3</course>
<desc>Speed 4.4 km/h Distance 6.17 km</desc>
<time>2010-02-28T11:27:50.32</time>
<name>4287</name>
</trkpt>
<trkpt lat="48.934650" lon="8.676212">
<ele>386.0</ele>
<speed>6.2</speed>
<course>320.6</course>
<desc>Speed 6.2 km/h Distance 6.17 km</desc>
<time>2010-02-28T11:27:51.32</time>
<name>4288</name>
</trkpt>
<trkpt lat="48.934670" lon="8.676187">
<ele>386.0</ele>
<speed>10.9</speed>
<course>290.8</course>
<desc>Speed 10.9 km/h Distance 6.18 km</desc>
<time>2010-02-28T11:27:52.52</time>
<name>4289</name>
</trkpt>
<trkpt lat="48.934677" lon="8.676160">
<ele>386.5</ele>
<speed>3.2</speed>
<course>301.4</course>
<desc>Speed 3.2 km/h Distance 6.18 km</desc>
<time>2010-02-28T11:27:54.38</time>
<name>4290</name>
</trkpt>
<trkpt lat="48.934680" lon="8.676152">
<ele>386.5</ele>
<speed>3.1</speed>
<course>317.4</course>
<desc>Speed 3.1 km/h Distance 6.18 km</desc>
<time>2010-02-28T11:27:55.49</time>
<name>4291</name>
</trkpt>
<trkpt lat="48.934688" lon="8.676140">
<ele>386.5</ele>
<speed>4.6</speed>
<course>326.7</course>
<desc>Speed 4.6 km/h Distance 6.18 km</desc>
<time>2010-02-28T11:27:56.40</time>
<name>4292</name>
</trkpt>
<trkpt lat="48.934700" lon="8.676128">
<ele>387.0</ele>
<speed>5.6</speed>
<course>290.9</course>
<desc>Speed 5.6 km/h Distance 6.18 km</desc>
<time>2010-02-28T11:27:57.59</time>
<name>4293</name>
</trkpt>
<trkpt lat="48.934702" lon="8.676122">
<ele>387.0</ele>
<speed>1.8</speed>
<course>270.0</course>
<desc>Speed 1.8 km/h Distance 6.18 km</desc>
<time>2010-02-28T11:27:58.46</time>
<name>4294</name>
</trkpt>
<trkpt lat="48.934702" lon="8.676120">
<ele>387.0</ele>
<speed>0.7</speed>
<course>167.4</course>
<desc>Speed 0.7 km/h Distance 6.18 km</desc>
<time>2010-02-28T11:27:59.46</time>
<name>4295</name>
</trkpt>
<trkpt lat="48.934700" lon="8.676120">
<ele>387.0</ele>
<speed>0.3</speed>
<course>167.4</course>
<desc>Speed 0.3 km/h Distance 6.18 km</desc>
<time>2010-02-28T11:28:00.46</time>
<name>4296</name>
</trkpt>
<trkpt lat="48.934700" lon="8.676120">
<ele>387.0</ele>
<speed>0.2</speed>
<course>270.0</course>
<desc>Speed 0.2 km/h Distance 6.18 km</desc>
<time>2010-02-28T11:28:01.46</time>
<name>4297</name>
</trkpt>
<trkpt lat="48.934700" lon="8.676118">
<ele>387.0</ele>
<speed>0.2</speed>
<course>270.0</course>
<desc>Speed 0.2 km/h Distance 6.18 km</desc>
<time>2010-02-28T11:28:02.46</time>
<name>4298</name>
</trkpt>
<trkpt lat="48.934700" lon="8.676117">
<ele>387.0</ele>
<speed>0.1</speed>
<course>270.0</course>
<desc>Speed 0.1 km/h Distance 6.18 km</desc>
<time>2010-02-28T11:28:03.46</time>
<name>4299</name>
</trkpt>
<trkpt lat="48.934700" lon="8.676117">
<ele>387.0</ele>
<speed>0.3</speed>
<course>290.9</course>
<desc>Speed 0.3 km/h Distance 6.18 km</desc>
<time>2010-02-28T11:28:04.46</time>
<name>4300</name>
</trkpt>
<trkpt lat="48.934702" lon="8.676110">
<ele>387.0</ele>
<speed>0.7</speed>
<course>270.0</course>
<desc>Speed 0.7 km/h Distance 6.18 km</desc>
<time>2010-02-28T11:28:05.46</time>
<name>4301</name>
</trkpt>
<trkpt lat="48.934702" lon="8.676108">
<ele>386.5</ele>
<speed>0.6</speed>
<course>308.1</course>
<desc>Speed 0.6 km/h Distance 6.18 km</desc>
<time>2010-02-28T11:28:06.46</time>
<name>4302</name>
</trkpt>
<trkpt lat="48.934703" lon="8.676105">
<ele>386.5</ele>
<speed>0.1</speed>
<course>150.8</course>
<desc>Speed 0.1 km/h Distance 6.18 km</desc>
<time>2010-02-28T11:28:07.46</time>
<name>4303</name>
</trkpt>
<trkpt lat="48.934702" lon="8.676107">
<ele>386.0</ele>
<speed>0.2</speed>
<course>105.5</course>
<desc>Speed 0.2 km/h Distance 6.18 km</desc>
<time>2010-02-28T11:28:08.46</time>
<name>4304</name>
</trkpt>
<trkpt lat="48.934698" lon="8.676125">
<ele>384.5</ele>
<speed>5.2</speed>
<course>308.1</course>
<desc>Speed 5.2 km/h Distance 6.19 km</desc>
<time>2010-02-28T11:28:09.46</time>
<name>4305</name>
</trkpt>
<trkpt lat="48.934700" lon="8.676122">
<ele>383.0</ele>
<speed>1.6</speed>
<course>209.4</course>
<desc>Speed 1.6 km/h Distance 6.19 km</desc>
<time>2010-02-28T11:28:10.97</time>
<name>4306</name>
</trkpt>
<trkpt lat="48.934688" lon="8.676112">
<ele>383.0</ele>
<speed>2.7</speed>
<course>63.1</course>
<desc>Speed 2.7 km/h Distance 6.19 km</desc>
<time>2010-02-28T11:28:12.49</time>
<name>4307</name>
</trkpt>
<trkpt lat="48.934693" lon="8.676127">
<ele>382.5</ele>
<speed>2.7</speed>
<course>90.0</course>
<desc>Speed 2.7 km/h Distance 6.19 km</desc>
<time>2010-02-28T11:28:15.76</time>
<name>4308</name>
</trkpt>
<trkpt lat="48.934693" lon="8.676132">
<ele>383.0</ele>
<speed>2.7</speed>
<course>90.0</course>
<desc>Speed 2.7 km/h Distance 6.19 km</desc>
<time>2010-02-28T11:28:16.52</time>
<name>4309</name>
</trkpt>
<trkpt lat="48.934693" lon="8.676133">
<ele>383.0</ele>
<speed>2.7</speed>
<course>175.7</course>
<desc>Speed 2.7 km/h Distance 6.19 km</desc>
<time>2010-02-28T11:28:17.52</time>
<name>4310</name>
</trkpt>
<trkpt lat="48.934635" lon="8.676140">
<ele>382.5</ele>
<speed>9.7</speed>
<course>159.0</course>
<desc>Speed 9.7 km/h Distance 6.20 km</desc>
<time>2010-02-28T11:28:19.52</time>
<name>4311</name>
</trkpt>
<trkpt lat="48.934615" lon="8.676152">
<ele>382.0</ele>
<speed>4.3</speed>
<course>150.2</course>
<desc>Speed 4.3 km/h Distance 6.20 km</desc>
<time>2010-02-28T11:28:20.52</time>
<name>4312</name>
</trkpt>
<trkpt lat="48.934602" lon="8.676163">
<ele>382.0</ele>
<speed>4.5</speed>
<course>152.4</course>
<desc>Speed 4.5 km/h Distance 6.20 km</desc>
<time>2010-02-28T11:28:21.59</time>
<name>4313</name>
</trkpt>
<trkpt lat="48.934585" lon="8.676177">
<ele>382.0</ele>
<speed>4.0</speed>
<course>147.9</course>
<desc>Speed 4.0 km/h Distance 6.20 km</desc>
<time>2010-02-28T11:28:22.56</time>
<name>4314</name>
</trkpt>
<trkpt lat="48.934548" lon="8.676212">
<ele>382.0</ele>
<speed>4.6</speed>
<course>146.6</course>
<desc>Speed 4.6 km/h Distance 6.21 km</desc>
<time>2010-02-28T11:28:24.55</time>
<name>4315</name>
</trkpt>
<trkpt lat="48.934535" lon="8.676225">
<ele>382.0</ele>
<speed>4.9</speed>
<course>90.0</course>
<desc>Speed 4.9 km/h Distance 6.21 km</desc>
<time>2010-02-28T11:28:25.59</time>
<name>4316</name>
</trkpt>
<trkpt lat="48.934535" lon="8.676253">
<ele>382.0</ele>
<speed>6.3</speed>
<course>137.4</course>
<desc>Speed 6.3 km/h Distance 6.21 km</desc>
<time>2010-02-28T11:28:26.57</time>
<name>4317</name>
</trkpt>
<trkpt lat="48.934518" lon="8.676277">
<ele>382.0</ele>
<speed>4.8</speed>
<course>146.8</course>
<desc>Speed 4.8 km/h Distance 6.21 km</desc>
<time>2010-02-28T11:28:28.57</time>
<name>4318</name>
</trkpt>
<trkpt lat="48.934508" lon="8.676287">
<ele>382.0</ele>
<speed>4.1</speed>
<course>151.4</course>
<desc>Speed 4.1 km/h Distance 6.21 km</desc>
<time>2010-02-28T11:28:29.57</time>
<name>4319</name>
</trkpt>
<trkpt lat="48.934498" lon="8.676295">
<ele>382.0</ele>
<speed>4.2</speed>
<course>146.8</course>
<desc>Speed 4.2 km/h Distance 6.22 km</desc>
<time>2010-02-28T11:28:30.70</time>
<name>4320</name>
</trkpt>
<trkpt lat="48.934488" lon="8.676305">
<ele>382.0</ele>
<speed>3.6</speed>
<course>150.6</course>
<desc>Speed 3.6 km/h Distance 6.22 km</desc>
<time>2010-02-28T11:28:31.60</time>
<name>4321</name>
</trkpt>
<trkpt lat="48.934477" lon="8.676315">
<ele>382.0</ele>
<speed>4.8</speed>
<course>135.4</course>
<desc>Speed 4.8 km/h Distance 6.22 km</desc>
<time>2010-02-28T11:28:32.60</time>
<name>4322</name>
</trkpt>
<trkpt lat="48.934467" lon="8.676330">
<ele>382.0</ele>
<speed>5.4</speed>
<course>150.0</course>
<desc>Speed 5.4 km/h Distance 6.22 km</desc>
<time>2010-02-28T11:28:33.60</time>
<name>4323</name>
</trkpt>
<trkpt lat="48.934453" lon="8.676342">
<ele>382.0</ele>
<speed>4.9</speed>
<course>159.1</course>
<desc>Speed 4.9 km/h Distance 6.22 km</desc>
<time>2010-02-28T11:28:34.60</time>
<name>4324</name>
</trkpt>
<trkpt lat="48.934442" lon="8.676348">
<ele>381.5</ele>
<speed>4.0</speed>
<course>149.1</course>
<desc>Speed 4.0 km/h Distance 6.22 km</desc>
<time>2010-02-28T11:28:35.60</time>
<name>4325</name>
</trkpt>
<trkpt lat="48.934423" lon="8.676365">
<ele>381.5</ele>
<speed>6.8</speed>
<course>132.6</course>
<desc>Speed 6.8 km/h Distance 6.23 km</desc>
<time>2010-02-28T11:28:36.60</time>
<name>4326</name>
</trkpt>
<trkpt lat="48.934418" lon="8.676373">
<ele>381.5</ele>
<speed>3.1</speed>
<course>128.5</course>
<desc>Speed 3.1 km/h Distance 6.23 km</desc>
<time>2010-02-28T11:28:37.60</time>
<name>4327</name>
</trkpt>
<trkpt lat="48.934380" lon="8.676447">
<ele>381.5</ele>
<speed>7.8</speed>
<course>132.9</course>
<desc>Speed 7.8 km/h Distance 6.23 km</desc>
<time>2010-02-28T11:28:39.60</time>
<name>4328</name>
</trkpt>
<trkpt lat="48.934362" lon="8.676477">
<ele>381.5</ele>
<speed>10.5</speed>
<course>153.0</course>
<desc>Speed 10.5 km/h Distance 6.24 km</desc>
<time>2010-02-28T11:28:40.60</time>
<name>4329</name>
</trkpt>
<trkpt lat="48.934347" lon="8.676488">
<ele>381.5</ele>
<speed>5.8</speed>
<course>146.8</course>
<desc>Speed 5.8 km/h Distance 6.24 km</desc>
<time>2010-02-28T11:28:41.60</time>
<name>4330</name>
</trkpt>
<trkpt lat="48.934337" lon="8.676498">
<ele>381.5</ele>
<speed>5.0</speed>
<course>161.8</course>
<desc>Speed 5.0 km/h Distance 6.24 km</desc>
<time>2010-02-28T11:28:42.60</time>
<name>4331</name>
</trkpt>
<trkpt lat="48.934327" lon="8.676503">
<ele>381.5</ele>
<speed>3.9</speed>
<course>146.8</course>
<desc>Speed 3.9 km/h Distance 6.24 km</desc>
<time>2010-02-28T11:28:43.60</time>
<name>4332</name>
</trkpt>
<trkpt lat="48.934318" lon="8.676512">
<ele>381.5</ele>
<speed>4.2</speed>
<course>156.2</course>
<desc>Speed 4.2 km/h Distance 6.24 km</desc>
<time>2010-02-28T11:28:44.60</time>
<name>4333</name>
</trkpt>
<trkpt lat="48.934308" lon="8.676518">
<ele>381.5</ele>
<speed>4.7</speed>
<course>146.2</course>
<desc>Speed 4.7 km/h Distance 6.24 km</desc>
<time>2010-02-28T11:28:45.60</time>
<name>4334</name>
</trkpt>
<trkpt lat="48.934300" lon="8.676527">
<ele>381.5</ele>
<speed>4.6</speed>
<course>157.0</course>
<desc>Speed 4.6 km/h Distance 6.24 km</desc>
<time>2010-02-28T11:28:46.60</time>
<name>4335</name>
</trkpt>
<trkpt lat="48.934297" lon="8.676528">
<ele>381.5</ele>
<speed>1.0</speed>
<course>141.6</course>
<desc>Speed 1.0 km/h Distance 6.24 km</desc>
<time>2010-02-28T11:28:47.60</time>
<name>4336</name>
</trkpt>
<trkpt lat="48.934288" lon="8.676538">
<ele>382.0</ele>
<speed>4.7</speed>
<course>127.2</course>
<desc>Speed 4.7 km/h Distance 6.25 km</desc>
<time>2010-02-28T11:28:48.60</time>
<name>4337</name>
</trkpt>
<trkpt lat="48.934282" lon="8.676552">
<ele>382.0</ele>
<speed>4.6</speed>
<course>132.9</course>
<desc>Speed 4.6 km/h Distance 6.25 km</desc>
<time>2010-02-28T11:28:49.60</time>
<name>4338</name>
</trkpt>
<trkpt lat="48.934277" lon="8.676560">
<ele>382.0</ele>
<speed>3.1</speed>
<course>158.5</course>
<desc>Speed 3.1 km/h Distance 6.25 km</desc>
<time>2010-02-28T11:28:50.60</time>
<name>4339</name>
</trkpt>
<trkpt lat="48.934268" lon="8.676565">
<ele>382.0</ele>
<speed>3.7</speed>
<course>146.8</course>
<desc>Speed 3.7 km/h Distance 6.25 km</desc>
<time>2010-02-28T11:28:51.60</time>
<name>4340</name>
</trkpt>
<trkpt lat="48.934258" lon="8.676575">
<ele>382.0</ele>
<speed>4.9</speed>
<course>141.9</course>
<desc>Speed 4.9 km/h Distance 6.25 km</desc>
<time>2010-02-28T11:28:52.60</time>
<name>4341</name>
</trkpt>
<trkpt lat="48.934250" lon="8.676585">
<ele>382.0</ele>
<speed>4.1</speed>
<course>159.1</course>
<desc>Speed 4.1 km/h Distance 6.25 km</desc>
<time>2010-02-28T11:28:53.60</time>
<name>4342</name>
</trkpt>
<trkpt lat="48.934238" lon="8.676592">
<ele>382.0</ele>
<speed>5.1</speed>
<course>142.5</course>
<desc>Speed 5.1 km/h Distance 6.25 km</desc>
<time>2010-02-28T11:28:54.60</time>
<name>4343</name>
</trkpt>
<trkpt lat="48.934228" lon="8.676603">
<ele>381.5</ele>
<speed>5.4</speed>
<course>127.3</course>
<desc>Speed 5.4 km/h Distance 6.25 km</desc>
<time>2010-02-28T11:28:55.60</time>
<name>4344</name>
</trkpt>
<trkpt lat="48.934222" lon="8.676617">
<ele>381.5</ele>
<speed>4.5</speed>
<course>183.9</course>
<desc>Speed 4.5 km/h Distance 6.25 km</desc>
<time>2010-02-28T11:28:56.60</time>
<name>4345</name>
</trkpt>
<trkpt lat="48.934208" lon="8.676615">
<ele>381.5</ele>
<speed>5.1</speed>
<course>167.8</course>
<desc>Speed 5.1 km/h Distance 6.26 km</desc>
<time>2010-02-28T11:28:57.60</time>
<name>4346</name>
</trkpt>
<trkpt lat="48.934193" lon="8.676620">
<ele>382.0</ele>
<speed>5.1</speed>
<course>270.0</course>
<desc>Speed 5.1 km/h Distance 6.26 km</desc>
<time>2010-02-28T11:28:58.60</time>
<name>4347</name>
</trkpt>
<trkpt lat="48.934193" lon="8.676605">
<ele>382.0</ele>
<speed>3.5</speed>
<course>252.9</course>
<desc>Speed 3.5 km/h Distance 6.26 km</desc>
<time>2010-02-28T11:28:59.60</time>
<name>4348</name>
</trkpt>
<trkpt lat="48.934192" lon="8.676597">
<ele>382.0</ele>
<speed>1.7</speed>
<course>151.4</course>
<desc>Speed 1.7 km/h Distance 6.26 km</desc>
<time>2010-02-28T11:29:00.60</time>
<name>4349</name>
</trkpt>
<trkpt lat="48.934182" lon="8.676605">
<ele>382.0</ele>
<speed>3.4</speed>
<course>346.5</course>
<desc>Speed 3.4 km/h Distance 6.26 km</desc>
<time>2010-02-28T11:29:01.60</time>
<name>4350</name>
</trkpt>
<trkpt lat="48.934195" lon="8.676600">
<ele>382.0</ele>
<speed>6.8</speed>
<course>149.4</course>
<desc>Speed 6.8 km/h Distance 6.26 km</desc>
<time>2010-02-28T11:29:02.60</time>
<name>4351</name>
</trkpt>
<trkpt lat="48.934178" lon="8.676615">
<ele>382.0</ele>
<speed>5.3</speed>
<course>168.6</course>
<desc>Speed 5.3 km/h Distance 6.26 km</desc>
<time>2010-02-28T11:29:03.60</time>
<name>4352</name>
</trkpt>
<trkpt lat="48.934157" lon="8.676622">
<ele>382.0</ele>
<speed>5.0</speed>
<course>170.3</course>
<desc>Speed 5.0 km/h Distance 6.27 km</desc>
<time>2010-02-28T11:29:04.60</time>
<name>4353</name>
</trkpt>
<trkpt lat="48.934143" lon="8.676625">
<ele>382.0</ele>
<speed>3.0</speed>
<course>157.3</course>
<desc>Speed 3.0 km/h Distance 6.27 km</desc>
<time>2010-02-28T11:29:05.60</time>
<name>4354</name>
</trkpt>
<trkpt lat="48.934125" lon="8.676637">
<ele>382.5</ele>
<speed>4.8</speed>
<course>150.6</course>
<desc>Speed 4.8 km/h Distance 6.27 km</desc>
<time>2010-02-28T11:29:06.60</time>
<name>4355</name>
</trkpt>
<trkpt lat="48.934113" lon="8.676647">
<ele>382.0</ele>
<speed>5.0</speed>
<course>146.6</course>
<desc>Speed 5.0 km/h Distance 6.27 km</desc>
<time>2010-02-28T11:29:07.60</time>
<name>4356</name>
</trkpt>
<trkpt lat="48.934102" lon="8.676658">
<ele>382.5</ele>
<speed>4.4</speed>
<course>139.8</course>
<desc>Speed 4.4 km/h Distance 6.27 km</desc>
<time>2010-02-28T11:29:08.60</time>
<name>4357</name>
</trkpt>
<trkpt lat="48.934090" lon="8.676673">
<ele>382.5</ele>
<speed>4.8</speed>
<course>161.9</course>
<desc>Speed 4.8 km/h Distance 6.28 km</desc>
<time>2010-02-28T11:29:09.60</time>
<name>4358</name>
</trkpt>
<trkpt lat="48.934077" lon="8.676680">
<ele>382.5</ele>
<speed>4.4</speed>
<course>168.8</course>
<desc>Speed 4.4 km/h Distance 6.28 km</desc>
<time>2010-02-28T11:29:10.60</time>
<name>4359</name>
</trkpt>
<trkpt lat="48.934060" lon="8.676685">
<ele>383.0</ele>
<speed>6.0</speed>
<course>116.9</course>
<desc>Speed 6.0 km/h Distance 6.28 km</desc>
<time>2010-02-28T11:29:11.60</time>
<name>4360</name>
</trkpt>
<trkpt lat="48.934050" lon="8.676715">
<ele>383.0</ele>
<speed>7.3</speed>
<course>136.5</course>
<desc>Speed 7.3 km/h Distance 6.28 km</desc>
<time>2010-02-28T11:29:12.60</time>
<name>4361</name>
</trkpt>
<trkpt lat="48.934035" lon="8.676737">
<ele>383.5</ele>
<speed>5.2</speed>
<course>118.5</course>
<desc>Speed 5.2 km/h Distance 6.28 km</desc>
<time>2010-02-28T11:29:13.60</time>
<name>4362</name>
</trkpt>
<trkpt lat="48.934027" lon="8.676760">
<ele>383.5</ele>
<speed>6.2</speed>
<course>140.6</course>
<desc>Speed 6.2 km/h Distance 6.29 km</desc>
<time>2010-02-28T11:29:14.60</time>
<name>4363</name>
</trkpt>
<trkpt lat="48.934013" lon="8.676777">
<ele>383.5</ele>
<speed>4.9</speed>
<course>143.4</course>
<desc>Speed 4.9 km/h Distance 6.29 km</desc>
<time>2010-02-28T11:29:15.60</time>
<name>4364</name>
</trkpt>
<trkpt lat="48.934000" lon="8.676792">
<ele>384.0</ele>
<speed>4.8</speed>
<course>158.5</course>
<desc>Speed 4.8 km/h Distance 6.29 km</desc>
<time>2010-02-28T11:29:16.60</time>
<name>4365</name>
</trkpt>
<trkpt lat="48.933983" lon="8.676802">
<ele>384.0</ele>
<speed>5.0</speed>
<course>153.0</course>
<desc>Speed 5.0 km/h Distance 6.29 km</desc>
<time>2010-02-28T11:29:17.60</time>
<name>4366</name>
</trkpt>
<trkpt lat="48.933968" lon="8.676813">
<ele>384.5</ele>
<speed>4.7</speed>
<course>135.4</course>
<desc>Speed 4.7 km/h Distance 6.29 km</desc>
<time>2010-02-28T11:29:18.60</time>
<name>4367</name>
</trkpt>
<trkpt lat="48.933955" lon="8.676833">
<ele>385.0</ele>
<speed>4.9</speed>
<course>94.6</course>
<desc>Speed 4.9 km/h Distance 6.30 km</desc>
<time>2010-02-28T11:29:19.60</time>
<name>4368</name>
</trkpt>
<trkpt lat="48.933953" lon="8.676865">
<ele>385.0</ele>
<speed>7.9</speed>
<course>78.7</course>
<desc>Speed 7.9 km/h Distance 6.30 km</desc>
<time>2010-02-28T11:29:20.60</time>
<name>4369</name>
</trkpt>
<trkpt lat="48.933967" lon="8.676967">
<ele>385.0</ele>
<speed>8.8</speed>
<course>137.5</course>
<desc>Speed 8.8 km/h Distance 6.31 km</desc>
<time>2010-02-28T11:29:22.60</time>
<name>4370</name>
</trkpt>
<trkpt lat="48.933958" lon="8.676978">
<ele>385.0</ele>
<speed>4.8</speed>
<course>119.1</course>
<desc>Speed 4.8 km/h Distance 6.31 km</desc>
<time>2010-02-28T11:29:23.60</time>
<name>4371</name>
</trkpt>
<trkpt lat="48.933952" lon="8.676997">
<ele>385.0</ele>
<speed>5.5</speed>
<course>157.9</course>
<desc>Speed 5.5 km/h Distance 6.31 km</desc>
<time>2010-02-28T11:29:24.60</time>
<name>4372</name>
</trkpt>
<trkpt lat="48.933938" lon="8.677005">
<ele>385.0</ele>
<speed>5.3</speed>
<course>154.8</course>
<desc>Speed 5.3 km/h Distance 6.31 km</desc>
<time>2010-02-28T11:29:25.60</time>
<name>4373</name>
</trkpt>
<trkpt lat="48.933927" lon="8.677013">
<ele>385.0</ele>
<speed>5.6</speed>
<course>129.7</course>
<desc>Speed 5.6 km/h Distance 6.31 km</desc>
<time>2010-02-28T11:29:26.60</time>
<name>4374</name>
</trkpt>
<trkpt lat="48.933917" lon="8.677032">
<ele>385.0</ele>
<speed>5.6</speed>
<course>139.8</course>
<desc>Speed 5.6 km/h Distance 6.31 km</desc>
<time>2010-02-28T11:29:27.60</time>
<name>4375</name>
</trkpt>
<trkpt lat="48.933905" lon="8.677047">
<ele>384.5</ele>
<speed>5.6</speed>
<course>222.6</course>
<desc>Speed 5.6 km/h Distance 6.31 km</desc>
<time>2010-02-28T11:29:28.60</time>
<name>4376</name>
</trkpt>
<trkpt lat="48.933838" lon="8.676953">
<ele>385.0</ele>
<speed>11.6</speed>
<course>193.6</course>
<desc>Speed 11.6 km/h Distance 6.32 km</desc>
<time>2010-02-28T11:29:30.60</time>
<name>4377</name>
</trkpt>
<trkpt lat="48.933820" lon="8.676947">
<ele>385.0</ele>
<speed>11.5</speed>
<course>172.3</course>
<desc>Speed 11.5 km/h Distance 6.33 km</desc>
<time>2010-02-28T11:29:31.60</time>
<name>4378</name>
</trkpt>
<trkpt lat="48.933803" lon="8.676950">
<ele>385.0</ele>
<speed>5.5</speed>
<course>202.3</course>
<desc>Speed 5.5 km/h Distance 6.33 km</desc>
<time>2010-02-28T11:29:32.60</time>
<name>4379</name>
</trkpt>
<trkpt lat="48.933763" lon="8.676925">
<ele>385.0</ele>
<speed>5.0</speed>
<course>105.9</course>
<desc>Speed 5.0 km/h Distance 6.33 km</desc>
<time>2010-02-28T11:29:34.60</time>
<name>4380</name>
</trkpt>
<trkpt lat="48.933758" lon="8.676952">
<ele>385.0</ele>
<speed>5.0</speed>
<course>131.6</course>
<desc>Speed 5.0 km/h Distance 6.34 km</desc>
<time>2010-02-28T11:29:35.60</time>
<name>4381</name>
</trkpt>
<trkpt lat="48.933747" lon="8.676972">
<ele>385.5</ele>
<speed>5.9</speed>
<course>138.8</course>
<desc>Speed 5.9 km/h Distance 6.34 km</desc>
<time>2010-02-28T11:29:36.60</time>
<name>4382</name>
</trkpt>
<trkpt lat="48.933737" lon="8.676985">
<ele>385.0</ele>
<speed>4.9</speed>
<course>150.6</course>
<desc>Speed 4.9 km/h Distance 6.34 km</desc>
<time>2010-02-28T11:29:37.60</time>
<name>4383</name>
</trkpt>
<trkpt lat="48.933725" lon="8.676995">
<ele>384.5</ele>
<speed>4.6</speed>
<course>150.6</course>
<desc>Speed 4.6 km/h Distance 6.34 km</desc>
<time>2010-02-28T11:29:38.60</time>
<name>4384</name>
</trkpt>
<trkpt lat="48.933713" lon="8.677005">
<ele>384.5</ele>
<speed>6.0</speed>
<course>146.7</course>
<desc>Speed 6.0 km/h Distance 6.34 km</desc>
<time>2010-02-28T11:29:39.60</time>
<name>4385</name>
</trkpt>
<trkpt lat="48.933700" lon="8.677018">
<ele>384.5</ele>
<speed>5.5</speed>
<course>153.1</course>
<desc>Speed 5.5 km/h Distance 6.34 km</desc>
<time>2010-02-28T11:29:40.60</time>
<name>4386</name>
</trkpt>
<trkpt lat="48.933685" lon="8.677030">
<ele>384.5</ele>
<speed>5.5</speed>
<course>156.3</course>
<desc>Speed 5.5 km/h Distance 6.35 km</desc>
<time>2010-02-28T11:29:41.60</time>
<name>4387</name>
</trkpt>
<trkpt lat="48.933670" lon="8.677040">
<ele>385.0</ele>
<speed>6.0</speed>
<course>131.6</course>
<desc>Speed 6.0 km/h Distance 6.35 km</desc>
<time>2010-02-28T11:29:42.60</time>
<name>4388</name>
</trkpt>
<trkpt lat="48.933658" lon="8.677060">
<ele>385.0</ele>
<speed>5.4</speed>
<course>160.1</course>
<desc>Speed 5.4 km/h Distance 6.35 km</desc>
<time>2010-02-28T11:29:43.60</time>
<name>4389</name>
</trkpt>
<trkpt lat="48.933643" lon="8.677068">
<ele>385.0</ele>
<speed>5.8</speed>
<course>160.1</course>
<desc>Speed 5.8 km/h Distance 6.35 km</desc>
<time>2010-02-28T11:29:44.60</time>
<name>4390</name>
</trkpt>
<trkpt lat="48.933628" lon="8.677077">
<ele>385.0</ele>
<speed>5.5</speed>
<course>164.0</course>
<desc>Speed 5.5 km/h Distance 6.35 km</desc>
<time>2010-02-28T11:29:45.60</time>
<name>4391</name>
</trkpt>
<trkpt lat="48.933613" lon="8.677083">
<ele>385.5</ele>
<speed>5.7</speed>
<course>101.7</course>
<desc>Speed 5.7 km/h Distance 6.35 km</desc>
<time>2010-02-28T11:29:46.60</time>
<name>4392</name>
</trkpt>
<trkpt lat="48.933608" lon="8.677120">
<ele>385.5</ele>
<speed>8.2</speed>
<course>156.5</course>
<desc>Speed 8.2 km/h Distance 6.36 km</desc>
<time>2010-02-28T11:29:47.60</time>
<name>4393</name>
</trkpt>
<trkpt lat="48.933593" lon="8.677130">
<ele>386.0</ele>
<speed>5.5</speed>
<course>176.2</course>
<desc>Speed 5.5 km/h Distance 6.36 km</desc>
<time>2010-02-28T11:29:48.60</time>
<name>4394</name>
</trkpt>
<trkpt lat="48.933578" lon="8.677132">
<ele>386.0</ele>
<speed>5.9</speed>
<course>102.9</course>
<desc>Speed 5.9 km/h Distance 6.36 km</desc>
<time>2010-02-28T11:29:49.60</time>
<name>4395</name>
</trkpt>
<trkpt lat="48.933573" lon="8.677165">
<ele>386.0</ele>
<speed>8.2</speed>
<course>127.3</course>
<desc>Speed 8.2 km/h Distance 6.36 km</desc>
<time>2010-02-28T11:29:50.60</time>
<name>4396</name>
</trkpt>
<trkpt lat="48.933563" lon="8.677185">
<ele>386.0</ele>
<speed>5.8</speed>
<course>114.1</course>
<desc>Speed 5.8 km/h Distance 6.37 km</desc>
<time>2010-02-28T11:29:51.60</time>
<name>4397</name>
</trkpt>
<trkpt lat="48.933555" lon="8.677213">
<ele>386.0</ele>
<speed>5.9</speed>
<course>123.1</course>
<desc>Speed 5.9 km/h Distance 6.37 km</desc>
<time>2010-02-28T11:29:52.60</time>
<name>4398</name>
</trkpt>
<trkpt lat="48.933545" lon="8.677237">
<ele>386.5</ele>
<speed>5.7</speed>
<course>127.3</course>
<desc>Speed 5.7 km/h Distance 6.37 km</desc>
<time>2010-02-28T11:29:53.60</time>
<name>4399</name>
</trkpt>
<trkpt lat="48.933535" lon="8.677257">
<ele>386.5</ele>
<speed>5.8</speed>
<course>123.1</course>
<desc>Speed 5.8 km/h Distance 6.37 km</desc>
<time>2010-02-28T11:29:54.60</time>
<name>4400</name>
</trkpt>
<trkpt lat="48.933525" lon="8.677280">
<ele>386.5</ele>
<speed>5.9</speed>
<course>140.6</course>
<desc>Speed 5.9 km/h Distance 6.37 km</desc>
<time>2010-02-28T11:29:55.60</time>
<name>4401</name>
</trkpt>
<trkpt lat="48.933512" lon="8.677297">
<ele>386.5</ele>
<speed>6.0</speed>
<course>134.1</course>
<desc>Speed 6.0 km/h Distance 6.38 km</desc>
<time>2010-02-28T11:29:56.60</time>
<name>4402</name>
</trkpt>
<trkpt lat="48.933500" lon="8.677315">
<ele>386.0</ele>
<speed>6.2</speed>
<course>177.2</course>
<desc>Speed 6.2 km/h Distance 6.38 km</desc>
<time>2010-02-28T11:29:57.60</time>
<name>4403</name>
</trkpt>
<trkpt lat="48.933483" lon="8.677317">
<ele>386.5</ele>
<speed>6.3</speed>
<course>154.0</course>
<desc>Speed 6.3 km/h Distance 6.38 km</desc>
<time>2010-02-28T11:29:58.60</time>
<name>4404</name>
</trkpt>
<trkpt lat="48.933470" lon="8.677327">
<ele>386.5</ele>
<speed>5.3</speed>
<course>150.8</course>
<desc>Speed 5.3 km/h Distance 6.38 km</desc>
<time>2010-02-28T11:29:59.60</time>
<name>4405</name>
</trkpt>
<trkpt lat="48.933458" lon="8.677337">
<ele>386.5</ele>
<speed>5.3</speed>
<course>171.0</course>
<desc>Speed 5.3 km/h Distance 6.38 km</desc>
<time>2010-02-28T11:30:00.60</time>
<name>4406</name>
</trkpt>
<trkpt lat="48.933445" lon="8.677340">
<ele>386.0</ele>
<speed>4.8</speed>
<course>169.6</course>
<desc>Speed 4.8 km/h Distance 6.38 km</desc>
<time>2010-02-28T11:30:01.60</time>
<name>4407</name>
</trkpt>
<trkpt lat="48.933433" lon="8.677343">
<ele>386.0</ele>
<speed>4.4</speed>
<course>163.7</course>
<desc>Speed 4.4 km/h Distance 6.38 km</desc>
<time>2010-02-28T11:30:02.60</time>
<name>4408</name>
</trkpt>
<trkpt lat="48.933418" lon="8.677350">
<ele>386.0</ele>
<speed>5.3</speed>
<course>176.2</course>
<desc>Speed 5.3 km/h Distance 6.39 km</desc>
<time>2010-02-28T11:30:03.60</time>
<name>4409</name>
</trkpt>
<trkpt lat="48.933403" lon="8.677352">
<ele>386.0</ele>
<speed>5.6</speed>
<course>176.2</course>
<desc>Speed 5.6 km/h Distance 6.39 km</desc>
<time>2010-02-28T11:30:04.60</time>
<name>4410</name>
</trkpt>
<trkpt lat="48.933388" lon="8.677353">
<ele>386.0</ele>
<speed>5.4</speed>
<course>176.2</course>
<desc>Speed 5.4 km/h Distance 6.39 km</desc>
<time>2010-02-28T11:30:05.60</time>
<name>4411</name>
</trkpt>
<trkpt lat="48.933373" lon="8.677355">
<ele>386.0</ele>
<speed>6.0</speed>
<course>173.0</course>
<desc>Speed 6.0 km/h Distance 6.39 km</desc>
<time>2010-02-28T11:30:06.60</time>
<name>4412</name>
</trkpt>
<trkpt lat="48.933355" lon="8.677358">
<ele>386.0</ele>
<speed>5.8</speed>
<course>177.2</course>
<desc>Speed 5.8 km/h Distance 6.39 km</desc>
<time>2010-02-28T11:30:07.60</time>
<name>4413</name>
</trkpt>
<trkpt lat="48.933338" lon="8.677360">
<ele>386.0</ele>
<speed>5.9</speed>
<course>176.2</course>
<desc>Speed 5.9 km/h Distance 6.40 km</desc>
<time>2010-02-28T11:30:08.60</time>
<name>4414</name>
</trkpt>
<trkpt lat="48.933323" lon="8.677362">
<ele>386.0</ele>
<speed>5.3</speed>
<course>175.9</course>
<desc>Speed 5.3 km/h Distance 6.40 km</desc>
<time>2010-02-28T11:30:09.60</time>
<name>4415</name>
</trkpt>
<trkpt lat="48.933307" lon="8.677363">
<ele>386.0</ele>
<speed>6.0</speed>
<course>182.8</course>
<desc>Speed 6.0 km/h Distance 6.40 km</desc>
<time>2010-02-28T11:30:10.60</time>
<name>4416</name>
</trkpt>
<trkpt lat="48.933290" lon="8.677362">
<ele>386.5</ele>
<speed>5.2</speed>
<course>159.1</course>
<desc>Speed 5.2 km/h Distance 6.40 km</desc>
<time>2010-02-28T11:30:11.60</time>
<name>4417</name>
</trkpt>
<trkpt lat="48.933278" lon="8.677368">
<ele>386.0</ele>
<speed>4.2</speed>
<course>188.1</course>
<desc>Speed 4.2 km/h Distance 6.40 km</desc>
<time>2010-02-28T11:30:12.60</time>
<name>4418</name>
</trkpt>
<trkpt lat="48.933268" lon="8.677367">
<ele>386.0</ele>
<speed>3.2</speed>
<course>226.6</course>
<desc>Speed 3.2 km/h Distance 6.40 km</desc>
<time>2010-02-28T11:30:13.60</time>
<name>4419</name>
</trkpt>
<trkpt lat="48.933260" lon="8.677353">
<ele>386.0</ele>
<speed>4.9</speed>
<course>217.2</course>
<desc>Speed 4.9 km/h Distance 6.40 km</desc>
<time>2010-02-28T11:30:14.60</time>
<name>4420</name>
</trkpt>
<trkpt lat="48.933258" lon="8.677352">
<ele>386.0</ele>
<speed>1.0</speed>
<course>142.8</course>
<desc>Speed 1.0 km/h Distance 6.41 km</desc>
<time>2010-02-28T11:30:15.60</time>
<name>4421</name>
</trkpt>
<trkpt lat="48.933257" lon="8.677353">
<ele>386.0</ele>
<speed>0.6</speed>
<course>220.9</course>
<desc>Speed 0.6 km/h Distance 6.41 km</desc>
<time>2010-02-28T11:30:16.60</time>
<name>4422</name>
</trkpt>
<trkpt lat="48.933252" lon="8.677347">
<ele>386.0</ele>
<speed>1.3</speed>
<course>212.3</course>
<desc>Speed 1.3 km/h Distance 6.41 km</desc>
<time>2010-02-28T11:30:17.60</time>
<name>4423</name>
</trkpt>
<trkpt lat="48.933247" lon="8.677342">
<ele>386.0</ele>
<speed>2.3</speed>
<course>146.6</course>
<desc>Speed 2.3 km/h Distance 6.41 km</desc>
<time>2010-02-28T11:30:18.60</time>
<name>4424</name>
</trkpt>
<trkpt lat="48.933235" lon="8.677353">
<ele>386.0</ele>
<speed>4.7</speed>
<course>175.9</course>
<desc>Speed 4.7 km/h Distance 6.41 km</desc>
<time>2010-02-28T11:30:19.60</time>
<name>4425</name>
</trkpt>
<trkpt lat="48.933218" lon="8.677355">
<ele>386.0</ele>
<speed>6.5</speed>
<course>132.5</course>
<desc>Speed 6.5 km/h Distance 6.41 km</desc>
<time>2010-02-28T11:30:20.60</time>
<name>4426</name>
</trkpt>
<trkpt lat="48.933208" lon="8.677372">
<ele>386.0</ele>
<speed>4.8</speed>
<course>142.7</course>
<desc>Speed 4.8 km/h Distance 6.41 km</desc>
<time>2010-02-28T11:30:21.60</time>
<name>4427</name>
</trkpt>
<trkpt lat="48.933198" lon="8.677383">
<ele>386.0</ele>
<speed>4.6</speed>
<course>108.1</course>
<desc>Speed 4.6 km/h Distance 6.41 km</desc>
<time>2010-02-28T11:30:22.60</time>
<name>4428</name>
</trkpt>
<trkpt lat="48.933193" lon="8.677407">
<ele>385.5</ele>
<speed>4.8</speed>
<course>146.6</course>
<desc>Speed 4.8 km/h Distance 6.42 km</desc>
<time>2010-02-28T11:30:23.60</time>
<name>4429</name>
</trkpt>
<trkpt lat="48.933182" lon="8.677418">
<ele>386.0</ele>
<speed>5.0</speed>
<course>118.5</course>
<desc>Speed 5.0 km/h Distance 6.42 km</desc>
<time>2010-02-28T11:30:24.60</time>
<name>4430</name>
</trkpt>
<trkpt lat="48.933173" lon="8.677442">
<ele>386.0</ele>
<speed>5.0</speed>
<course>150.2</course>
<desc>Speed 5.0 km/h Distance 6.42 km</desc>
<time>2010-02-28T11:30:25.60</time>
<name>4431</name>
</trkpt>
<trkpt lat="48.933160" lon="8.677453">
<ele>386.0</ele>
<speed>5.1</speed>
<course>138.8</course>
<desc>Speed 5.1 km/h Distance 6.42 km</desc>
<time>2010-02-28T11:30:26.60</time>
<name>4432</name>
</trkpt>
<trkpt lat="48.933150" lon="8.677467">
<ele>386.0</ele>
<speed>5.4</speed>
<course>143.4</course>
<desc>Speed 5.4 km/h Distance 6.42 km</desc>
<time>2010-02-28T11:30:27.60</time>
<name>4433</name>
</trkpt>
<trkpt lat="48.933137" lon="8.677482">
<ele>386.0</ele>
<speed>5.5</speed>
<course>138.8</course>
<desc>Speed 5.5 km/h Distance 6.42 km</desc>
<time>2010-02-28T11:30:28.60</time>
<name>4434</name>
</trkpt>
<trkpt lat="48.933127" lon="8.677495">
<ele>386.0</ele>
<speed>4.7</speed>
<course>135.5</course>
<desc>Speed 4.7 km/h Distance 6.43 km</desc>
<time>2010-02-28T11:30:29.60</time>
<name>4435</name>
</trkpt>
<trkpt lat="48.933113" lon="8.677515">
<ele>386.0</ele>
<speed>6.3</speed>
<course>140.6</course>
<desc>Speed 6.3 km/h Distance 6.43 km</desc>
<time>2010-02-28T11:30:30.60</time>
<name>4436</name>
</trkpt>
<trkpt lat="48.933100" lon="8.677532">
<ele>385.5</ele>
<speed>5.3</speed>
<course>157.4</course>
<desc>Speed 5.3 km/h Distance 6.43 km</desc>
<time>2010-02-28T11:30:31.60</time>
<name>4437</name>
</trkpt>
<trkpt lat="48.933087" lon="8.677540">
<ele>385.5</ele>
<speed>5.3</speed>
<course>129.7</course>
<desc>Speed 5.3 km/h Distance 6.43 km</desc>
<time>2010-02-28T11:30:32.60</time>
<name>4438</name>
</trkpt>
<trkpt lat="48.933077" lon="8.677558">
<ele>385.5</ele>
<speed>5.1</speed>
<course>190.8</course>
<desc>Speed 5.1 km/h Distance 6.43 km</desc>
<time>2010-02-28T11:30:33.60</time>
<name>4439</name>
</trkpt>
<trkpt lat="48.933060" lon="8.677553">
<ele>385.5</ele>
<speed>6.6</speed>
<course>146.8</course>
<desc>Speed 6.6 km/h Distance 6.43 km</desc>
<time>2010-02-28T11:30:34.60</time>
<name>4440</name>
</trkpt>
<trkpt lat="48.933047" lon="8.677567">
<ele>385.5</ele>
<speed>5.0</speed>
<course>146.7</course>
<desc>Speed 5.0 km/h Distance 6.44 km</desc>
<time>2010-02-28T11:30:35.60</time>
<name>4441</name>
</trkpt>
<trkpt lat="48.933035" lon="8.677578">
<ele>385.5</ele>
<speed>5.3</speed>
<course>157.7</course>
<desc>Speed 5.3 km/h Distance 6.44 km</desc>
<time>2010-02-28T11:30:36.60</time>
<name>4442</name>
</trkpt>
<trkpt lat="48.933022" lon="8.677587">
<ele>385.0</ele>
<speed>5.1</speed>
<course>171.2</course>
<desc>Speed 5.1 km/h Distance 6.44 km</desc>
<time>2010-02-28T11:30:37.60</time>
<name>4443</name>
</trkpt>
<trkpt lat="48.933007" lon="8.677590">
<ele>385.0</ele>
<speed>6.3</speed>
<course>132.4</course>
<desc>Speed 6.3 km/h Distance 6.44 km</desc>
<time>2010-02-28T11:30:38.60</time>
<name>4444</name>
</trkpt>
<trkpt lat="48.932997" lon="8.677607">
<ele>384.5</ele>
<speed>5.3</speed>
<course>218.6</course>
<desc>Speed 5.3 km/h Distance 6.44 km</desc>
<time>2010-02-28T11:30:39.60</time>
<name>4445</name>
</trkpt>
<trkpt lat="48.932973" lon="8.677578">
<ele>384.5</ele>
<speed>12.3</speed>
<course>127.3</course>
<desc>Speed 12.3 km/h Distance 6.45 km</desc>
<time>2010-02-28T11:30:40.60</time>
<name>4446</name>
</trkpt>
<trkpt lat="48.932955" lon="8.677615">
<ele>384.0</ele>
<speed>5.9</speed>
<course>164.5</course>
<desc>Speed 5.9 km/h Distance 6.45 km</desc>
<time>2010-02-28T11:30:42.60</time>
<name>4447</name>
</trkpt>
<trkpt lat="48.932943" lon="8.677620">
<ele>384.0</ele>
<speed>5.7</speed>
<course>208.9</course>
<desc>Speed 5.7 km/h Distance 6.45 km</desc>
<time>2010-02-28T11:30:43.60</time>
<name>4448</name>
</trkpt>
<trkpt lat="48.932933" lon="8.677612">
<ele>383.5</ele>
<speed>5.8</speed>
<course>225.9</course>
<desc>Speed 5.8 km/h Distance 6.45 km</desc>
<time>2010-02-28T11:30:44.60</time>
<name>4449</name>
</trkpt>
<trkpt lat="48.932922" lon="8.677593">
<ele>383.5</ele>
<speed>6.0</speed>
<course>237.6</course>
<desc>Speed 6.0 km/h Distance 6.45 km</desc>
<time>2010-02-28T11:30:45.60</time>
<name>4450</name>
</trkpt>
<trkpt lat="48.932913" lon="8.677573">
<ele>383.5</ele>
<speed>6.3</speed>
<course>237.6</course>
<desc>Speed 6.3 km/h Distance 6.46 km</desc>
<time>2010-02-28T11:30:46.60</time>
<name>4451</name>
</trkpt>
<trkpt lat="48.932905" lon="8.677553">
<ele>383.0</ele>
<speed>5.9</speed>
<course>241.0</course>
<desc>Speed 5.9 km/h Distance 6.46 km</desc>
<time>2010-02-28T11:30:47.60</time>
<name>4452</name>
</trkpt>
<trkpt lat="48.932898" lon="8.677535">
<ele>383.0</ele>
<speed>6.0</speed>
<course>246.5</course>
<desc>Speed 6.0 km/h Distance 6.46 km</desc>
<time>2010-02-28T11:30:48.60</time>
<name>4453</name>
</trkpt>
<trkpt lat="48.932892" lon="8.677512">
<ele>383.0</ele>
<speed>6.6</speed>
<course>249.2</course>
<desc>Speed 6.6 km/h Distance 6.46 km</desc>
<time>2010-02-28T11:30:49.60</time>
<name>4454</name>
</trkpt>
<trkpt lat="48.932887" lon="8.677492">
<ele>383.0</ele>
<speed>5.9</speed>
<course>237.7</course>
<desc>Speed 5.9 km/h Distance 6.46 km</desc>
<time>2010-02-28T11:30:50.60</time>
<name>4455</name>
</trkpt>
<trkpt lat="48.932878" lon="8.677472">
<ele>383.0</ele>
<speed>5.9</speed>
<course>241.1</course>
<desc>Speed 5.9 km/h Distance 6.46 km</desc>
<time>2010-02-28T11:30:51.60</time>
<name>4456</name>
</trkpt>
<trkpt lat="48.932872" lon="8.677453">
<ele>383.0</ele>
<speed>5.7</speed>
<course>254.6</course>
<desc>Speed 5.7 km/h Distance 6.47 km</desc>
<time>2010-02-28T11:30:52.60</time>
<name>4457</name>
</trkpt>
<trkpt lat="48.932868" lon="8.677435">
<ele>383.0</ele>
<speed>6.3</speed>
<course>270.0</course>
<desc>Speed 6.3 km/h Distance 6.47 km</desc>
<time>2010-02-28T11:30:53.60</time>
<name>4458</name>
</trkpt>
<trkpt lat="48.932868" lon="8.677413">
<ele>383.0</ele>
<speed>6.1</speed>
<course>320.6</course>
<desc>Speed 6.1 km/h Distance 6.47 km</desc>
<time>2010-02-28T11:30:54.60</time>
<name>4459</name>
</trkpt>
<trkpt lat="48.932875" lon="8.677405">
<ele>382.5</ele>
<speed>5.9</speed>
<course>296.9</course>
<desc>Speed 5.9 km/h Distance 6.47 km</desc>
<time>2010-02-28T11:30:55.60</time>
<name>4460</name>
</trkpt>
<trkpt lat="48.932880" lon="8.677390">
<ele>382.5</ele>
<speed>5.3</speed>
<course>304.1</course>
<desc>Speed 5.3 km/h Distance 6.47 km</desc>
<time>2010-02-28T11:30:56.60</time>
<name>4461</name>
</trkpt>
<trkpt lat="48.932887" lon="8.677375">
<ele>382.5</ele>
<speed>5.3</speed>
<course>317.4</course>
<desc>Speed 5.3 km/h Distance 6.47 km</desc>
<time>2010-02-28T11:30:57.60</time>
<name>4462</name>
</trkpt>
<trkpt lat="48.932895" lon="8.677363">
<ele>382.5</ele>
<speed>5.3</speed>
<course>324.4</course>
<desc>Speed 5.3 km/h Distance 6.47 km</desc>
<time>2010-02-28T11:30:58.60</time>
<name>4463</name>
</trkpt>
<trkpt lat="48.932913" lon="8.677343">
<ele>383.0</ele>
<speed>5.2</speed>
<course>326.6</course>
<desc>Speed 5.2 km/h Distance 6.48 km</desc>
<time>2010-02-28T11:31:00.10</time>
<name>4464</name>
</trkpt>
<trkpt lat="48.932923" lon="8.677333">
<ele>383.0</ele>
<speed>5.1</speed>
<course>327.7</course>
<desc>Speed 5.1 km/h Distance 6.48 km</desc>
<time>2010-02-28T11:31:01.10</time>
<name>4465</name>
</trkpt>
<trkpt lat="48.932928" lon="8.677328">
<ele>382.5</ele>
<speed>2.6</speed>
<course>209.2</course>
<desc>Speed 2.6 km/h Distance 6.48 km</desc>
<time>2010-02-28T11:31:02.10</time>
<name>4466</name>
</trkpt>
<trkpt lat="48.932927" lon="8.677327">
<ele>382.5</ele>
<speed>0.8</speed>
<course>345.1</course>
<desc>Speed 0.8 km/h Distance 6.48 km</desc>
<time>2010-02-28T11:31:03.10</time>
<name>4467</name>
</trkpt>
<trkpt lat="48.932935" lon="8.677323">
<ele>382.5</ele>
<speed>3.2</speed>
<course>331.4</course>
<desc>Speed 3.2 km/h Distance 6.48 km</desc>
<time>2010-02-28T11:31:04.10</time>
<name>4468</name>
</trkpt>
<trkpt lat="48.932945" lon="8.677315">
<ele>382.5</ele>
<speed>5.0</speed>
<course>339.4</course>
<desc>Speed 5.0 km/h Distance 6.48 km</desc>
<time>2010-02-28T11:31:05.10</time>
<name>4469</name>
</trkpt>
<trkpt lat="48.932957" lon="8.677308">
<ele>382.5</ele>
<speed>4.8</speed>
<course>339.4</course>
<desc>Speed 4.8 km/h Distance 6.48 km</desc>
<time>2010-02-28T11:31:06.10</time>
<name>4470</name>
</trkpt>
<trkpt lat="48.932968" lon="8.677302">
<ele>382.5</ele>
<speed>4.8</speed>
<course>335.1</course>
<desc>Speed 4.8 km/h Distance 6.48 km</desc>
<time>2010-02-28T11:31:07.10</time>
<name>4471</name>
</trkpt>
<trkpt lat="48.932980" lon="8.677293">
<ele>382.0</ele>
<speed>5.1</speed>
<course>331.4</course>
<desc>Speed 5.1 km/h Distance 6.48 km</desc>
<time>2010-02-28T11:31:08.10</time>
<name>4472</name>
</trkpt>
<trkpt lat="48.932990" lon="8.677285">
<ele>382.0</ele>
<speed>4.9</speed>
<course>336.2</course>
<desc>Speed 4.9 km/h Distance 6.49 km</desc>
<time>2010-02-28T11:31:09.10</time>
<name>4473</name>
</trkpt>
<trkpt lat="48.933000" lon="8.677278">
<ele>382.5</ele>
<speed>4.5</speed>
<course>334.8</course>
<desc>Speed 4.5 km/h Distance 6.49 km</desc>
<time>2010-02-28T11:31:10.10</time>
<name>4474</name>
</trkpt>
<trkpt lat="48.933012" lon="8.677270">
<ele>382.5</ele>
<speed>5.5</speed>
<course>344.0</course>
<desc>Speed 5.5 km/h Distance 6.49 km</desc>
<time>2010-02-28T11:31:11.11</time>
<name>4475</name>
</trkpt>
<trkpt lat="48.933023" lon="8.677265">
<ele>382.5</ele>
<speed>5.0</speed>
<course>339.1</course>
<desc>Speed 5.0 km/h Distance 6.49 km</desc>
<time>2010-02-28T11:31:12.10</time>
<name>4476</name>
</trkpt>
<trkpt lat="48.933035" lon="8.677258">
<ele>382.5</ele>
<speed>5.1</speed>
<course>330.6</course>
<desc>Speed 5.1 km/h Distance 6.49 km</desc>
<time>2010-02-28T11:31:13.10</time>
<name>4477</name>
</trkpt>
<trkpt lat="48.933047" lon="8.677248">
<ele>382.5</ele>
<speed>5.3</speed>
<course>326.8</course>
<desc>Speed 5.3 km/h Distance 6.49 km</desc>
<time>2010-02-28T11:31:14.09</time>
<name>4478</name>
</trkpt>
<trkpt lat="48.933057" lon="8.677238">
<ele>382.5</ele>
<speed>5.1</speed>
<course>236.0</course>
<desc>Speed 5.1 km/h Distance 6.49 km</desc>
<time>2010-02-28T11:31:15.10</time>
<name>4479</name>
</trkpt>
<trkpt lat="48.933050" lon="8.677223">
<ele>384.0</ele>
<speed>4.0</speed>
<course>332.3</course>
<desc>Speed 4.0 km/h Distance 6.50 km</desc>
<time>2010-02-28T11:31:16.09</time>
<name>4480</name>
</trkpt>
<trkpt lat="48.933067" lon="8.677210">
<ele>383.0</ele>
<speed>7.5</speed>
<course>321.9</course>
<desc>Speed 7.5 km/h Distance 6.50 km</desc>
<time>2010-02-28T11:31:17.09</time>
<name>4481</name>
</trkpt>
<trkpt lat="48.933075" lon="8.677200">
<ele>383.0</ele>
<speed>4.7</speed>
<course>334.8</course>
<desc>Speed 4.7 km/h Distance 6.50 km</desc>
<time>2010-02-28T11:31:18.09</time>
<name>4482</name>
</trkpt>
<trkpt lat="48.933087" lon="8.677192">
<ele>383.0</ele>
<speed>5.3</speed>
<course>330.8</course>
<desc>Speed 5.3 km/h Distance 6.50 km</desc>
<time>2010-02-28T11:31:19.09</time>
<name>4483</name>
</trkpt>
<trkpt lat="48.933098" lon="8.677182">
<ele>383.0</ele>
<speed>5.3</speed>
<course>312.2</course>
<desc>Speed 5.3 km/h Distance 6.50 km</desc>
<time>2010-02-28T11:31:20.09</time>
<name>4484</name>
</trkpt>
<trkpt lat="48.933103" lon="8.677173">
<ele>383.0</ele>
<speed>3.1</speed>
<course>326.8</course>
<desc>Speed 3.1 km/h Distance 6.50 km</desc>
<time>2010-02-28T11:31:21.09</time>
<name>4485</name>
</trkpt>
<trkpt lat="48.933112" lon="8.677165">
<ele>383.0</ele>
<speed>4.3</speed>
<course>326.8</course>
<desc>Speed 4.3 km/h Distance 6.50 km</desc>
<time>2010-02-28T11:31:22.09</time>
<name>4486</name>
</trkpt>
<trkpt lat="48.933122" lon="8.677155">
<ele>382.5</ele>
<speed>5.0</speed>
<course>330.6</course>
<desc>Speed 5.0 km/h Distance 6.50 km</desc>
<time>2010-02-28T11:31:23.09</time>
<name>4487</name>
</trkpt>
<trkpt lat="48.933133" lon="8.677145">
<ele>383.0</ele>
<speed>5.3</speed>
<course>322.5</course>
<desc>Speed 5.3 km/h Distance 6.51 km</desc>
<time>2010-02-28T11:31:24.09</time>
<name>4488</name>
</trkpt>
<trkpt lat="48.933143" lon="8.677133">
<ele>383.0</ele>
<speed>5.3</speed>
<course>334.8</course>
<desc>Speed 5.3 km/h Distance 6.51 km</desc>
<time>2010-02-28T11:31:25.09</time>
<name>4489</name>
</trkpt>
<trkpt lat="48.933155" lon="8.677125">
<ele>382.5</ele>
<speed>5.1</speed>
<course>326.8</course>
<desc>Speed 5.1 km/h Distance 6.51 km</desc>
<time>2010-02-28T11:31:26.09</time>
<name>4490</name>
</trkpt>
<trkpt lat="48.933165" lon="8.677115">
<ele>383.0</ele>
<speed>4.8</speed>
<course>326.8</course>
<desc>Speed 4.8 km/h Distance 6.51 km</desc>
<time>2010-02-28T11:31:27.09</time>
<name>4491</name>
</trkpt>
<trkpt lat="48.933175" lon="8.677105">
<ele>382.5</ele>
<speed>5.0</speed>
<course>322.5</course>
<desc>Speed 5.0 km/h Distance 6.51 km</desc>
<time>2010-02-28T11:31:28.09</time>
<name>4492</name>
</trkpt>
<trkpt lat="48.933185" lon="8.677093">
<ele>382.5</ele>
<speed>5.0</speed>
<course>322.8</course>
<desc>Speed 5.0 km/h Distance 6.51 km</desc>
<time>2010-02-28T11:31:29.09</time>
<name>4493</name>
</trkpt>
<trkpt lat="48.933195" lon="8.677082">
<ele>382.5</ele>
<speed>5.1</speed>
<course>326.9</course>
<desc>Speed 5.1 km/h Distance 6.51 km</desc>
<time>2010-02-28T11:31:30.09</time>
<name>4494</name>
</trkpt>
<trkpt lat="48.933207" lon="8.677070">
<ele>382.5</ele>
<speed>5.3</speed>
<course>326.8</course>
<desc>Speed 5.3 km/h Distance 6.52 km</desc>
<time>2010-02-28T11:31:31.09</time>
<name>4495</name>
</trkpt>
<trkpt lat="48.933217" lon="8.677060">
<ele>382.5</ele>
<speed>5.3</speed>
<course>330.6</course>
<desc>Speed 5.3 km/h Distance 6.52 km</desc>
<time>2010-02-28T11:31:32.09</time>
<name>4496</name>
</trkpt>
<trkpt lat="48.933228" lon="8.677050">
<ele>382.5</ele>
<speed>5.2</speed>
<course>330.6</course>
<desc>Speed 5.2 km/h Distance 6.52 km</desc>
<time>2010-02-28T11:31:33.09</time>
<name>4497</name>
</trkpt>
<trkpt lat="48.933240" lon="8.677040">
<ele>382.5</ele>
<speed>5.2</speed>
<course>334.8</course>
<desc>Speed 5.2 km/h Distance 6.52 km</desc>
<time>2010-02-28T11:31:34.09</time>
<name>4498</name>
</trkpt>
<trkpt lat="48.933252" lon="8.677032">
<ele>382.5</ele>
<speed>5.3</speed>
<course>326.7</course>
<desc>Speed 5.3 km/h Distance 6.52 km</desc>
<time>2010-02-28T11:31:35.09</time>
<name>4499</name>
</trkpt>
<trkpt lat="48.933263" lon="8.677020">
<ele>382.5</ele>
<speed>5.5</speed>
<course>322.5</course>
<desc>Speed 5.5 km/h Distance 6.52 km</desc>
<time>2010-02-28T11:31:36.09</time>
<name>4500</name>
</trkpt>
<trkpt lat="48.933273" lon="8.677008">
<ele>382.5</ele>
<speed>5.2</speed>
<course>318.6</course>
<desc>Speed 5.2 km/h Distance 6.52 km</desc>
<time>2010-02-28T11:31:37.09</time>
<name>4501</name>
</trkpt>
<trkpt lat="48.933283" lon="8.676995">
<ele>382.5</ele>
<speed>5.2</speed>
<course>326.7</course>
<desc>Speed 5.2 km/h Distance 6.53 km</desc>
<time>2010-02-28T11:31:38.08</time>
<name>4502</name>
</trkpt>
<trkpt lat="48.933295" lon="8.676983">
<ele>382.5</ele>
<speed>5.5</speed>
<course>335.1</course>
<desc>Speed 5.5 km/h Distance 6.53 km</desc>
<time>2010-02-28T11:31:39.09</time>
<name>4503</name>
</trkpt>
<trkpt lat="48.933307" lon="8.676975">
<ele>382.5</ele>
<speed>5.4</speed>
<course>322.5</course>
<desc>Speed 5.4 km/h Distance 6.53 km</desc>
<time>2010-02-28T11:31:40.08</time>
<name>4504</name>
</trkpt>
<trkpt lat="48.933317" lon="8.676963">
<ele>382.5</ele>
<speed>5.4</speed>
<course>318.8</course>
<desc>Speed 5.4 km/h Distance 6.53 km</desc>
<time>2010-02-28T11:31:41.08</time>
<name>4505</name>
</trkpt>
<trkpt lat="48.933327" lon="8.676950">
<ele>382.5</ele>
<speed>5.4</speed>
<course>326.9</course>
<desc>Speed 5.4 km/h Distance 6.53 km</desc>
<time>2010-02-28T11:31:42.08</time>
<name>4506</name>
</trkpt>
<trkpt lat="48.933338" lon="8.676938">
<ele>382.5</ele>
<speed>5.7</speed>
<course>326.9</course>
<desc>Speed 5.7 km/h Distance 6.53 km</desc>
<time>2010-02-28T11:31:43.08</time>
<name>4507</name>
</trkpt>
<trkpt lat="48.933350" lon="8.676927">
<ele>382.5</ele>
<speed>5.5</speed>
<course>322.5</course>
<desc>Speed 5.5 km/h Distance 6.54 km</desc>
<time>2010-02-28T11:31:44.08</time>
<name>4508</name>
</trkpt>
<trkpt lat="48.933360" lon="8.676915">
<ele>382.5</ele>
<speed>5.6</speed>
<course>318.7</course>
<desc>Speed 5.6 km/h Distance 6.54 km</desc>
<time>2010-02-28T11:31:45.08</time>
<name>4509</name>
</trkpt>
<trkpt lat="48.933370" lon="8.676902">
<ele>382.5</ele>
<speed>5.0</speed>
<course>282.3</course>
<desc>Speed 5.0 km/h Distance 6.54 km</desc>
<time>2010-02-28T11:31:46.08</time>
<name>4510</name>
</trkpt>
<trkpt lat="48.933372" lon="8.676890">
<ele>382.5</ele>
<speed>3.2</speed>
<course>220.9</course>
<desc>Speed 3.2 km/h Distance 6.54 km</desc>
<time>2010-02-28T11:31:47.08</time>
<name>4511</name>
</trkpt>
<trkpt lat="48.933367" lon="8.676883">
<ele>382.5</ele>
<speed>2.4</speed>
<course>322.8</course>
<desc>Speed 2.4 km/h Distance 6.54 km</desc>
<time>2010-02-28T11:31:48.08</time>
<name>4512</name>
</trkpt>
<trkpt lat="48.933368" lon="8.676882">
<ele>383.0</ele>
<speed>0.8</speed>
<course>344.5</course>
<desc>Speed 0.8 km/h Distance 6.54 km</desc>
<time>2010-02-28T11:31:49.08</time>
<name>4513</name>
</trkpt>
<trkpt lat="48.933380" lon="8.676877">
<ele>383.0</ele>
<speed>4.8</speed>
<course>331.4</course>
<desc>Speed 4.8 km/h Distance 6.54 km</desc>
<time>2010-02-28T11:31:50.08</time>
<name>4514</name>
</trkpt>
<trkpt lat="48.933390" lon="8.676868">
<ele>383.0</ele>
<speed>5.2</speed>
<course>318.7</course>
<desc>Speed 5.2 km/h Distance 6.54 km</desc>
<time>2010-02-28T11:31:51.08</time>
<name>4515</name>
</trkpt>
<trkpt lat="48.933400" lon="8.676855">
<ele>383.0</ele>
<speed>5.5</speed>
<course>326.7</course>
<desc>Speed 5.5 km/h Distance 6.54 km</desc>
<time>2010-02-28T11:31:52.08</time>
<name>4516</name>
</trkpt>
<trkpt lat="48.933412" lon="8.676843">
<ele>383.5</ele>
<speed>5.2</speed>
<course>318.8</course>
<desc>Speed 5.2 km/h Distance 6.55 km</desc>
<time>2010-02-28T11:31:53.08</time>
<name>4517</name>
</trkpt>
<trkpt lat="48.933422" lon="8.676830">
<ele>383.5</ele>
<speed>5.3</speed>
<course>318.7</course>
<desc>Speed 5.3 km/h Distance 6.55 km</desc>
<time>2010-02-28T11:31:54.08</time>
<name>4518</name>
</trkpt>
<trkpt lat="48.933432" lon="8.676817">
<ele>384.0</ele>
<speed>5.3</speed>
<course>313.6</course>
<desc>Speed 5.3 km/h Distance 6.55 km</desc>
<time>2010-02-28T11:31:55.08</time>
<name>4519</name>
</trkpt>
<trkpt lat="48.933440" lon="8.676803">
<ele>384.0</ele>
<speed>4.9</speed>
<course>326.8</course>
<desc>Speed 4.9 km/h Distance 6.55 km</desc>
<time>2010-02-28T11:31:56.08</time>
<name>4520</name>
</trkpt>
<trkpt lat="48.933450" lon="8.676793">
<ele>384.0</ele>
<speed>4.8</speed>
<course>330.6</course>
<desc>Speed 4.8 km/h Distance 6.55 km</desc>
<time>2010-02-28T11:31:57.08</time>
<name>4521</name>
</trkpt>
<trkpt lat="48.933462" lon="8.676783">
<ele>384.0</ele>
<speed>5.2</speed>
<course>322.5</course>
<desc>Speed 5.2 km/h Distance 6.55 km</desc>
<time>2010-02-28T11:31:58.08</time>
<name>4522</name>
</trkpt>
<trkpt lat="48.933472" lon="8.676772">
<ele>384.5</ele>
<speed>5.0</speed>
<course>322.5</course>
<desc>Speed 5.0 km/h Distance 6.55 km</desc>
<time>2010-02-28T11:31:59.09</time>
<name>4523</name>
</trkpt>
<trkpt lat="48.933482" lon="8.676760">
<ele>384.5</ele>
<speed>5.2</speed>
<course>330.6</course>
<desc>Speed 5.2 km/h Distance 6.56 km</desc>
<time>2010-02-28T11:32:00.08</time>
<name>4524</name>
</trkpt>
<trkpt lat="48.933493" lon="8.676750">
<ele>384.5</ele>
<speed>5.1</speed>
<course>313.4</course>
<desc>Speed 5.1 km/h Distance 6.56 km</desc>
<time>2010-02-28T11:32:01.08</time>
<name>4525</name>
</trkpt>
<trkpt lat="48.933502" lon="8.676737">
<ele>384.5</ele>
<speed>5.0</speed>
<course>318.6</course>
<desc>Speed 5.0 km/h Distance 6.56 km</desc>
<time>2010-02-28T11:32:02.08</time>
<name>4526</name>
</trkpt>
<trkpt lat="48.933512" lon="8.676723">
<ele>384.5</ele>
<speed>4.9</speed>
<course>315.5</course>
<desc>Speed 4.9 km/h Distance 6.56 km</desc>
<time>2010-02-28T11:32:03.08</time>
<name>4527</name>
</trkpt>
<trkpt lat="48.933522" lon="8.676708">
<ele>384.5</ele>
<speed>5.4</speed>
<course>318.8</course>
<desc>Speed 5.4 km/h Distance 6.56 km</desc>
<time>2010-02-28T11:32:04.08</time>
<name>4528</name>
</trkpt>
<trkpt lat="48.933532" lon="8.676695">
<ele>384.5</ele>
<speed>5.3</speed>
<course>326.8</course>
<desc>Speed 5.3 km/h Distance 6.56 km</desc>
<time>2010-02-28T11:32:05.08</time>
<name>4529</name>
</trkpt>
<trkpt lat="48.933542" lon="8.676685">
<ele>384.0</ele>
<speed>4.9</speed>
<course>322.5</course>
<desc>Speed 4.9 km/h Distance 6.56 km</desc>
<time>2010-02-28T11:32:06.07</time>
<name>4530</name>
</trkpt>
<trkpt lat="48.933552" lon="8.676673">
<ele>384.0</ele>
<speed>5.1</speed>
<course>330.6</course>
<desc>Speed 5.1 km/h Distance 6.57 km</desc>
<time>2010-02-28T11:32:07.07</time>
<name>4531</name>
</trkpt>
<trkpt lat="48.933563" lon="8.676663">
<ele>384.0</ele>
<speed>5.1</speed>
<course>326.6</course>
<desc>Speed 5.1 km/h Distance 6.57 km</desc>
<time>2010-02-28T11:32:08.07</time>
<name>4532</name>
</trkpt>
<trkpt lat="48.933575" lon="8.676652">
<ele>384.5</ele>
<speed>5.0</speed>
<course>326.6</course>
<desc>Speed 5.0 km/h Distance 6.57 km</desc>
<time>2010-02-28T11:32:09.07</time>
<name>4533</name>
</trkpt>
<trkpt lat="48.933585" lon="8.676642">
<ele>384.5</ele>
<speed>5.1</speed>
<course>315.3</course>
<desc>Speed 5.1 km/h Distance 6.57 km</desc>
<time>2010-02-28T11:32:10.07</time>
<name>4534</name>
</trkpt>
<trkpt lat="48.933595" lon="8.676627">
<ele>384.5</ele>
<speed>5.3</speed>
<course>318.7</course>
<desc>Speed 5.3 km/h Distance 6.57 km</desc>
<time>2010-02-28T11:32:11.08</time>
<name>4535</name>
</trkpt>
<trkpt lat="48.933605" lon="8.676613">
<ele>385.0</ele>
<speed>5.4</speed>
<course>315.5</course>
<desc>Speed 5.4 km/h Distance 6.57 km</desc>
<time>2010-02-28T11:32:12.07</time>
<name>4536</name>
</trkpt>
<trkpt lat="48.933615" lon="8.676598">
<ele>385.0</ele>
<speed>5.5</speed>
<course>326.7</course>
<desc>Speed 5.5 km/h Distance 6.57 km</desc>
<time>2010-02-28T11:32:13.07</time>
<name>4537</name>
</trkpt>
<trkpt lat="48.933627" lon="8.676587">
<ele>385.0</ele>
<speed>5.5</speed>
<course>326.7</course>
<desc>Speed 5.5 km/h Distance 6.58 km</desc>
<time>2010-02-28T11:32:14.07</time>
<name>4538</name>
</trkpt>
<trkpt lat="48.933638" lon="8.676575">
<ele>385.0</ele>
<speed>5.2</speed>
<course>322.5</course>
<desc>Speed 5.2 km/h Distance 6.58 km</desc>
<time>2010-02-28T11:32:15.07</time>
<name>4539</name>
</trkpt>
<trkpt lat="48.933648" lon="8.676563">
<ele>385.0</ele>
<speed>5.3</speed>
<course>318.8</course>
<desc>Speed 5.3 km/h Distance 6.58 km</desc>
<time>2010-02-28T11:32:16.07</time>
<name>4540</name>
</trkpt>
<trkpt lat="48.933658" lon="8.676550">
<ele>385.0</ele>
<speed>5.2</speed>
<course>323.1</course>
<desc>Speed 5.2 km/h Distance 6.58 km</desc>
<time>2010-02-28T11:32:17.07</time>
<name>4541</name>
</trkpt>
<trkpt lat="48.933670" lon="8.676537">
<ele>385.0</ele>
<speed>5.4</speed>
<course>318.6</course>
<desc>Speed 5.4 km/h Distance 6.58 km</desc>
<time>2010-02-28T11:32:18.07</time>
<name>4542</name>
</trkpt>
<trkpt lat="48.933680" lon="8.676523">
<ele>385.0</ele>
<speed>5.3</speed>
<course>318.6</course>
<desc>Speed 5.3 km/h Distance 6.58 km</desc>
<time>2010-02-28T11:32:19.07</time>
<name>4543</name>
</trkpt>
<trkpt lat="48.933690" lon="8.676510">
<ele>385.0</ele>
<speed>5.2</speed>
<course>326.6</course>
<desc>Speed 5.2 km/h Distance 6.59 km</desc>
<time>2010-02-28T11:32:20.07</time>
<name>4544</name>
</trkpt>
<trkpt lat="48.933702" lon="8.676498">
<ele>385.0</ele>
<speed>5.4</speed>
<course>334.8</course>
<desc>Speed 5.4 km/h Distance 6.59 km</desc>
<time>2010-02-28T11:32:21.07</time>
<name>4545</name>
</trkpt>
<trkpt lat="48.933713" lon="8.676490">
<ele>385.0</ele>
<speed>5.3</speed>
<course>326.7</course>
<desc>Speed 5.3 km/h Distance 6.59 km</desc>
<time>2010-02-28T11:32:22.07</time>
<name>4546</name>
</trkpt>
<trkpt lat="48.933725" lon="8.676478">
<ele>385.5</ele>
<speed>5.0</speed>
<course>326.8</course>
<desc>Speed 5.0 km/h Distance 6.59 km</desc>
<time>2010-02-28T11:32:23.07</time>
<name>4547</name>
</trkpt>
<trkpt lat="48.933735" lon="8.676468">
<ele>385.5</ele>
<speed>4.8</speed>
<course>322.5</course>
<desc>Speed 4.8 km/h Distance 6.59 km</desc>
<time>2010-02-28T11:32:24.07</time>
<name>4548</name>
</trkpt>
<trkpt lat="48.933745" lon="8.676457">
<ele>385.5</ele>
<speed>5.2</speed>
<course>318.6</course>
<desc>Speed 5.2 km/h Distance 6.59 km</desc>
<time>2010-02-28T11:32:25.07</time>
<name>4549</name>
</trkpt>
<trkpt lat="48.933755" lon="8.676443">
<ele>385.5</ele>
<speed>5.5</speed>
<course>319.8</course>
<desc>Speed 5.5 km/h Distance 6.59 km</desc>
<time>2010-02-28T11:32:26.07</time>
<name>4550</name>
</trkpt>
<trkpt lat="48.933767" lon="8.676428">
<ele>385.5</ele>
<speed>5.4</speed>
<course>322.5</course>
<desc>Speed 5.4 km/h Distance 6.60 km</desc>
<time>2010-02-28T11:32:27.07</time>
<name>4551</name>
</trkpt>
<trkpt lat="48.933777" lon="8.676417">
<ele>385.5</ele>
<speed>5.1</speed>
<course>322.5</course>
<desc>Speed 5.1 km/h Distance 6.60 km</desc>
<time>2010-02-28T11:32:28.07</time>
<name>4552</name>
</trkpt>
<trkpt lat="48.933787" lon="8.676405">
<ele>385.5</ele>
<speed>4.9</speed>
<course>322.5</course>
<desc>Speed 4.9 km/h Distance 6.60 km</desc>
<time>2010-02-28T11:32:29.10</time>
<name>4553</name>
</trkpt>
<trkpt lat="48.933797" lon="8.676393">
<ele>385.5</ele>
<speed>5.0</speed>
<course>322.5</course>
<desc>Speed 5.0 km/h Distance 6.60 km</desc>
<time>2010-02-28T11:32:30.06</time>
<name>4554</name>
</trkpt>
<trkpt lat="48.933807" lon="8.676382">
<ele>385.5</ele>
<speed>5.0</speed>
<course>304.0</course>
<desc>Speed 5.0 km/h Distance 6.60 km</desc>
<time>2010-02-28T11:32:31.06</time>
<name>4555</name>
</trkpt>
<trkpt lat="48.933813" lon="8.676367">
<ele>386.0</ele>
<speed>4.6</speed>
<course>318.7</course>
<desc>Speed 4.6 km/h Distance 6.60 km</desc>
<time>2010-02-28T11:32:32.06</time>
<name>4556</name>
</trkpt>
<trkpt lat="48.933823" lon="8.676353">
<ele>386.0</ele>
<speed>5.6</speed>
<course>323.1</course>
<desc>Speed 5.6 km/h Distance 6.60 km</desc>
<time>2010-02-28T11:32:33.06</time>
<name>4557</name>
</trkpt>
<trkpt lat="48.933835" lon="8.676340">
<ele>386.5</ele>
<speed>5.5</speed>
<course>326.8</course>
<desc>Speed 5.5 km/h Distance 6.61 km</desc>
<time>2010-02-28T11:32:34.06</time>
<name>4558</name>
</trkpt>
<trkpt lat="48.933845" lon="8.676330">
<ele>386.5</ele>
<speed>5.0</speed>
<course>321.9</course>
<desc>Speed 5.0 km/h Distance 6.61 km</desc>
<time>2010-02-28T11:32:35.06</time>
<name>4559</name>
</trkpt>
<trkpt lat="48.933853" lon="8.676320">
<ele>387.0</ele>
<speed>4.4</speed>
<course>321.9</course>
<desc>Speed 4.4 km/h Distance 6.61 km</desc>
<time>2010-02-28T11:32:36.06</time>
<name>4560</name>
</trkpt>
<trkpt lat="48.933862" lon="8.676310">
<ele>387.0</ele>
<speed>4.0</speed>
<course>311.1</course>
<desc>Speed 4.0 km/h Distance 6.61 km</desc>
<time>2010-02-28T11:32:37.06</time>
<name>4561</name>
</trkpt>
<trkpt lat="48.933868" lon="8.676298">
<ele>387.5</ele>
<speed>4.6</speed>
<course>318.7</course>
<desc>Speed 4.6 km/h Distance 6.61 km</desc>
<time>2010-02-28T11:32:38.06</time>
<name>4562</name>
</trkpt>
<trkpt lat="48.933878" lon="8.676285">
<ele>387.5</ele>
<speed>5.4</speed>
<course>317.4</course>
<desc>Speed 5.4 km/h Distance 6.61 km</desc>
<time>2010-02-28T11:32:39.06</time>
<name>4563</name>
</trkpt>
<trkpt lat="48.933887" lon="8.676273">
<ele>388.0</ele>
<speed>4.8</speed>
<course>313.4</course>
<desc>Speed 4.8 km/h Distance 6.61 km</desc>
<time>2010-02-28T11:32:40.06</time>
<name>4564</name>
</trkpt>
<trkpt lat="48.933895" lon="8.676260">
<ele>388.5</ele>
<speed>4.8</speed>
<course>326.8</course>
<desc>Speed 4.8 km/h Distance 6.61 km</desc>
<time>2010-02-28T11:32:41.06</time>
<name>4565</name>
</trkpt>
<trkpt lat="48.933905" lon="8.676250">
<ele>388.5</ele>
<speed>4.9</speed>
<course>321.9</course>
<desc>Speed 4.9 km/h Distance 6.62 km</desc>
<time>2010-02-28T11:32:42.07</time>
<name>4566</name>
</trkpt>
<trkpt lat="48.933913" lon="8.676240">
<ele>389.0</ele>
<speed>4.0</speed>
<course>321.9</course>
<desc>Speed 4.0 km/h Distance 6.62 km</desc>
<time>2010-02-28T11:32:43.06</time>
<name>4567</name>
</trkpt>
<trkpt lat="48.933922" lon="8.676230">
<ele>389.0</ele>
<speed>4.6</speed>
<course>313.4</course>
<desc>Speed 4.6 km/h Distance 6.62 km</desc>
<time>2010-02-28T11:32:44.06</time>
<name>4568</name>
</trkpt>
<trkpt lat="48.933930" lon="8.676217">
<ele>389.0</ele>
<speed>4.5</speed>
<course>318.6</course>
<desc>Speed 4.5 km/h Distance 6.62 km</desc>
<time>2010-02-28T11:32:45.06</time>
<name>4569</name>
</trkpt>
<trkpt lat="48.933940" lon="8.676203">
<ele>389.0</ele>
<speed>5.4</speed>
<course>318.7</course>
<desc>Speed 5.4 km/h Distance 6.62 km</desc>
<time>2010-02-28T11:32:46.07</time>
<name>4570</name>
</trkpt>
<trkpt lat="48.933950" lon="8.676190">
<ele>389.5</ele>
<speed>4.9</speed>
<course>270.0</course>
<desc>Speed 4.9 km/h Distance 6.62 km</desc>
<time>2010-02-28T11:32:47.06</time>
<name>4571</name>
</trkpt>
<trkpt lat="48.933950" lon="8.676173">
<ele>391.0</ele>
<speed>4.4</speed>
<course>241.5</course>
<desc>Speed 4.4 km/h Distance 6.62 km</desc>
<time>2010-02-28T11:32:48.06</time>
<name>4572</name>
</trkpt>
<trkpt lat="48.933942" lon="8.676150">
<ele>393.0</ele>
<speed>6.7</speed>
<course>315.5</course>
<desc>Speed 6.7 km/h Distance 6.63 km</desc>
<time>2010-02-28T11:32:49.06</time>
<name>4573</name>
</trkpt>
<trkpt lat="48.933952" lon="8.676135">
<ele>392.0</ele>
<speed>5.3</speed>
<course>283.2</course>
<desc>Speed 5.3 km/h Distance 6.63 km</desc>
<time>2010-02-28T11:32:50.05</time>
<name>4574</name>
</trkpt>
<trkpt lat="48.933955" lon="8.676113">
<ele>392.5</ele>
<speed>5.7</speed>
<course>287.0</course>
<desc>Speed 5.7 km/h Distance 6.63 km</desc>
<time>2010-02-28T11:32:51.06</time>
<name>4575</name>
</trkpt>
<trkpt lat="48.933958" lon="8.676097">
<ele>393.0</ele>
<speed>4.6</speed>
<course>313.6</course>
<desc>Speed 4.6 km/h Distance 6.63 km</desc>
<time>2010-02-28T11:32:52.06</time>
<name>4576</name>
</trkpt>
<trkpt lat="48.933967" lon="8.676083">
<ele>393.5</ele>
<speed>4.9</speed>
<course>315.5</course>
<desc>Speed 4.9 km/h Distance 6.63 km</desc>
<time>2010-02-28T11:32:53.05</time>
<name>4577</name>
</trkpt>
<trkpt lat="48.933977" lon="8.676068">
<ele>393.5</ele>
<speed>5.5</speed>
<course>310.3</course>
<desc>Speed 5.5 km/h Distance 6.63 km</desc>
<time>2010-02-28T11:32:54.05</time>
<name>4578</name>
</trkpt>
<trkpt lat="48.933985" lon="8.676053">
<ele>393.5</ele>
<speed>5.3</speed>
<course>318.8</course>
<desc>Speed 5.3 km/h Distance 6.63 km</desc>
<time>2010-02-28T11:32:55.06</time>
<name>4579</name>
</trkpt>
<trkpt lat="48.933995" lon="8.676040">
<ele>393.5</ele>
<speed>4.9</speed>
<course>319.8</course>
<desc>Speed 4.9 km/h Distance 6.64 km</desc>
<time>2010-02-28T11:32:56.06</time>
<name>4580</name>
</trkpt>
<trkpt lat="48.934007" lon="8.676025">
<ele>392.5</ele>
<speed>5.8</speed>
<course>290.8</course>
<desc>Speed 5.8 km/h Distance 6.64 km</desc>
<time>2010-02-28T11:32:57.06</time>
<name>4581</name>
</trkpt>
<trkpt lat="48.934012" lon="8.676005">
<ele>392.5</ele>
<speed>5.4</speed>
<course>292.5</course>
<desc>Speed 5.4 km/h Distance 6.64 km</desc>
<time>2010-02-28T11:32:58.06</time>
<name>4582</name>
</trkpt>
<trkpt lat="48.934017" lon="8.675987">
<ele>392.5</ele>
<speed>5.5</speed>
<course>304.7</course>
<desc>Speed 5.5 km/h Distance 6.64 km</desc>
<time>2010-02-28T11:32:59.06</time>
<name>4583</name>
</trkpt>
<trkpt lat="48.934025" lon="8.675968">
<ele>392.5</ele>
<speed>5.3</speed>
<course>326.7</course>
<desc>Speed 5.3 km/h Distance 6.64 km</desc>
<time>2010-02-28T11:33:00.06</time>
<name>4584</name>
</trkpt>
<trkpt lat="48.934040" lon="8.675953">
<ele>391.5</ele>
<speed>7.2</speed>
<course>322.5</course>
<desc>Speed 7.2 km/h Distance 6.64 km</desc>
<time>2010-02-28T11:33:01.06</time>
<name>4585</name>
</trkpt>
<trkpt lat="48.934050" lon="8.675942">
<ele>391.0</ele>
<speed>5.3</speed>
<course>315.5</course>
<desc>Speed 5.3 km/h Distance 6.65 km</desc>
<time>2010-02-28T11:33:02.06</time>
<name>4586</name>
</trkpt>
<trkpt lat="48.934057" lon="8.675932">
<ele>391.5</ele>
<speed>3.7</speed>
<course>307.6</course>
<desc>Speed 3.7 km/h Distance 6.65 km</desc>
<time>2010-02-28T11:33:03.06</time>
<name>4587</name>
</trkpt>
<trkpt lat="48.934060" lon="8.675925">
<ele>392.0</ele>
<speed>2.3</speed>
<course>347.4</course>
<desc>Speed 2.3 km/h Distance 6.65 km</desc>
<time>2010-02-28T11:33:04.05</time>
<name>4588</name>
</trkpt>
<trkpt lat="48.934070" lon="8.675922">
<ele>392.5</ele>
<speed>4.0</speed>
<course>330.4</course>
<desc>Speed 4.0 km/h Distance 6.65 km</desc>
<time>2010-02-28T11:33:05.05</time>
<name>4589</name>
</trkpt>
<trkpt lat="48.934082" lon="8.675912">
<ele>392.0</ele>
<speed>4.9</speed>
<course>345.1</course>
<desc>Speed 4.9 km/h Distance 6.65 km</desc>
<time>2010-02-28T11:33:06.06</time>
<name>4590</name>
</trkpt>
<trkpt lat="48.934090" lon="8.675908">
<ele>392.0</ele>
<speed>3.4</speed>
<course>334.8</course>
<desc>Speed 3.4 km/h Distance 6.65 km</desc>
<time>2010-02-28T11:33:07.05</time>
<name>4591</name>
</trkpt>
<trkpt lat="48.934102" lon="8.675900">
<ele>392.0</ele>
<speed>4.9</speed>
<course>336.2</course>
<desc>Speed 4.9 km/h Distance 6.65 km</desc>
<time>2010-02-28T11:33:08.07</time>
<name>4592</name>
</trkpt>
<trkpt lat="48.934112" lon="8.675893">
<ele>391.5</ele>
<speed>4.4</speed>
<course>339.1</course>
<desc>Speed 4.4 km/h Distance 6.65 km</desc>
<time>2010-02-28T11:33:09.05</time>
<name>4593</name>
</trkpt>
<trkpt lat="48.934123" lon="8.675887">
<ele>391.5</ele>
<speed>4.3</speed>
<course>338.5</course>
<desc>Speed 4.3 km/h Distance 6.65 km</desc>
<time>2010-02-28T11:33:10.05</time>
<name>4594</name>
</trkpt>
<trkpt lat="48.934132" lon="8.675882">
<ele>391.0</ele>
<speed>3.1</speed>
<course>10.3</course>
<desc>Speed 3.1 km/h Distance 6.66 km</desc>
<time>2010-02-28T11:33:11.05</time>
<name>4595</name>
</trkpt>
<trkpt lat="48.934138" lon="8.675883">
<ele>391.0</ele>
<speed>1.4</speed>
<course>304.1</course>
<desc>Speed 1.4 km/h Distance 6.66 km</desc>
<time>2010-02-28T11:33:12.05</time>
<name>4596</name>
</trkpt>
<trkpt lat="48.934145" lon="8.675868">
<ele>391.0</ele>
<speed>4.6</speed>
<course>317.4</course>
<desc>Speed 4.6 km/h Distance 6.66 km</desc>
<time>2010-02-28T11:33:13.05</time>
<name>4597</name>
</trkpt>
<trkpt lat="48.934153" lon="8.675857">
<ele>390.5</ele>
<speed>4.3</speed>
<course>337.7</course>
<desc>Speed 4.3 km/h Distance 6.66 km</desc>
<time>2010-02-28T11:33:14.05</time>
<name>4598</name>
</trkpt>
<trkpt lat="48.934167" lon="8.675848">
<ele>390.5</ele>
<speed>4.6</speed>
<course>321.6</course>
<desc>Speed 4.6 km/h Distance 6.66 km</desc>
<time>2010-02-28T11:33:15.04</time>
<name>4599</name>
</trkpt>
<trkpt lat="48.934175" lon="8.675838">
<ele>390.5</ele>
<speed>4.4</speed>
<course>284.2</course>
<desc>Speed 4.4 km/h Distance 6.66 km</desc>
<time>2010-02-28T11:33:16.05</time>
<name>4600</name>
</trkpt>
<trkpt lat="48.934178" lon="8.675818">
<ele>390.5</ele>
<speed>5.3</speed>
<course>307.3</course>
<desc>Speed 5.3 km/h Distance 6.66 km</desc>
<time>2010-02-28T11:33:17.05</time>
<name>4601</name>
</trkpt>
<trkpt lat="48.934185" lon="8.675805">
<ele>390.5</ele>
<speed>3.8</speed>
<course>303.1</course>
<desc>Speed 3.8 km/h Distance 6.66 km</desc>
<time>2010-02-28T11:33:18.05</time>
<name>4602</name>
</trkpt>
<trkpt lat="48.934190" lon="8.675793">
<ele>390.5</ele>
<speed>4.2</speed>
<course>307.3</course>
<desc>Speed 4.2 km/h Distance 6.67 km</desc>
<time>2010-02-28T11:33:19.04</time>
<name>4603</name>
</trkpt>
<trkpt lat="48.934198" lon="8.675777">
<ele>390.5</ele>
<speed>5.0</speed>
<course>299.7</course>
<desc>Speed 5.0 km/h Distance 6.67 km</desc>
<time>2010-02-28T11:33:20.05</time>
<name>4604</name>
</trkpt>
<trkpt lat="48.934203" lon="8.675763">
<ele>390.5</ele>
<speed>4.2</speed>
<course>296.9</course>
<desc>Speed 4.2 km/h Distance 6.67 km</desc>
<time>2010-02-28T11:33:21.05</time>
<name>4605</name>
</trkpt>
<trkpt lat="48.934208" lon="8.675748">
<ele>390.0</ele>
<speed>4.0</speed>
<course>339.2</course>
<desc>Speed 4.0 km/h Distance 6.67 km</desc>
<time>2010-02-28T11:33:22.05</time>
<name>4606</name>
</trkpt>
<trkpt lat="48.934217" lon="8.675743">
<ele>390.5</ele>
<speed>3.7</speed>
<course>311.6</course>
<desc>Speed 3.7 km/h Distance 6.67 km</desc>
<time>2010-02-28T11:33:23.08</time>
<name>4607</name>
</trkpt>
<trkpt lat="48.934228" lon="8.675723">
<ele>390.5</ele>
<speed>5.4</speed>
<course>304.1</course>
<desc>Speed 5.4 km/h Distance 6.67 km</desc>
<time>2010-02-28T11:33:24.05</time>
<name>4608</name>
</trkpt>
<trkpt lat="48.934242" lon="8.675693">
<ele>390.5</ele>
<speed>6.1</speed>
<course>316.5</course>
<desc>Speed 6.1 km/h Distance 6.68 km</desc>
<time>2010-02-28T11:33:25.05</time>
<name>4609</name>
</trkpt>
<trkpt lat="48.934257" lon="8.675672">
<ele>390.5</ele>
<speed>8.6</speed>
<course>270.0</course>
<desc>Speed 8.6 km/h Distance 6.68 km</desc>
<time>2010-02-28T11:33:26.05</time>
<name>4610</name>
</trkpt>
<trkpt lat="48.934257" lon="8.675653">
<ele>390.5</ele>
<speed>3.8</speed>
<course>311.0</course>
<desc>Speed 3.8 km/h Distance 6.68 km</desc>
<time>2010-02-28T11:33:27.07</time>
<name>4611</name>
</trkpt>
<trkpt lat="48.934270" lon="8.675630">
<ele>390.5</ele>
<speed>3.6</speed>
<course>323.7</course>
<desc>Speed 3.6 km/h Distance 6.68 km</desc>
<time>2010-02-28T11:33:28.05</time>
<name>4612</name>
</trkpt>
<trkpt lat="48.934312" lon="8.675583">
<ele>391.0</ele>
<speed>3.5</speed>
<course>288.7</course>
<desc>Speed 3.5 km/h Distance 6.69 km</desc>
<time>2010-02-28T11:33:30.04</time>
<name>4613</name>
</trkpt>
<trkpt lat="48.934315" lon="8.675568">
<ele>391.0</ele>
<speed>3.9</speed>
<course>356.2</course>
<desc>Speed 3.9 km/h Distance 6.69 km</desc>
<time>2010-02-28T11:33:31.04</time>
<name>4614</name>
</trkpt>
<trkpt lat="48.934330" lon="8.675567">
<ele>391.0</ele>
<speed>4.5</speed>
<course>334.8</course>
<desc>Speed 4.5 km/h Distance 6.69 km</desc>
<time>2010-02-28T11:33:32.05</time>
<name>4615</name>
</trkpt>
<trkpt lat="48.934342" lon="8.675558">
<ele>391.0</ele>
<speed>2.6</speed>
<course>218.1</course>
<desc>Speed 2.6 km/h Distance 6.69 km</desc>
<time>2010-02-28T11:33:33.05</time>
<name>4616</name>
</trkpt>
<trkpt lat="48.934333" lon="8.675548">
<ele>391.5</ele>
<speed>3.5</speed>
<course>315.2</course>
<desc>Speed 3.5 km/h Distance 6.69 km</desc>
<time>2010-02-28T11:33:34.04</time>
<name>4617</name>
</trkpt>
<trkpt lat="48.934340" lon="8.675538">
<ele>391.5</ele>
<speed>3.2</speed>
<course>296.9</course>
<desc>Speed 3.2 km/h Distance 6.69 km</desc>
<time>2010-02-28T11:33:35.04</time>
<name>4618</name>
</trkpt>
<trkpt lat="48.934345" lon="8.675523">
<ele>391.5</ele>
<speed>3.9</speed>
<course>307.3</course>
<desc>Speed 3.9 km/h Distance 6.69 km</desc>
<time>2010-02-28T11:33:36.05</time>
<name>4619</name>
</trkpt>
<trkpt lat="48.934353" lon="8.675507">
<ele>391.5</ele>
<speed>3.7</speed>
<course>347.4</course>
<desc>Speed 3.7 km/h Distance 6.70 km</desc>
<time>2010-02-28T11:33:37.04</time>
<name>4620</name>
</trkpt>
<trkpt lat="48.934358" lon="8.675505">
<ele>392.0</ele>
<speed>3.6</speed>
<course>313.5</course>
<desc>Speed 3.6 km/h Distance 6.70 km</desc>
<time>2010-02-28T11:33:38.05</time>
<name>4621</name>
</trkpt>
<trkpt lat="48.934367" lon="8.675492">
<ele>392.0</ele>
<speed>1.9</speed>
<course>315.5</course>
<desc>Speed 1.9 km/h Distance 6.70 km</desc>
<time>2010-02-28T11:33:39.05</time>
<name>4622</name>
</trkpt>
<trkpt lat="48.934373" lon="8.675482">
<ele>392.0</ele>
<speed>3.4</speed>
<course>317.4</course>
<desc>Speed 3.4 km/h Distance 6.70 km</desc>
<time>2010-02-28T11:33:40.04</time>
<name>4623</name>
</trkpt>
<trkpt lat="48.934390" lon="8.675458">
<ele>392.0</ele>
<speed>9.0</speed>
<course>290.9</course>
<desc>Speed 9.0 km/h Distance 6.70 km</desc>
<time>2010-02-28T11:33:41.04</time>
<name>4624</name>
</trkpt>
<trkpt lat="48.934393" lon="8.675445">
<ele>392.5</ele>
<speed>2.4</speed>
<course>270.0</course>
<desc>Speed 2.4 km/h Distance 6.70 km</desc>
<time>2010-02-28T11:33:42.05</time>
<name>4625</name>
</trkpt>
<trkpt lat="48.934393" lon="8.675433">
<ele>392.0</ele>
<speed>2.4</speed>
<course>270.0</course>
<desc>Speed 2.4 km/h Distance 6.70 km</desc>
<time>2010-02-28T11:33:43.04</time>
<name>4626</name>
</trkpt>
<trkpt lat="48.934393" lon="8.675420">
<ele>392.0</ele>
<speed>2.6</speed>
<course>232.7</course>
<desc>Speed 2.6 km/h Distance 6.70 km</desc>
<time>2010-02-28T11:33:44.04</time>
<name>4627</name>
</trkpt>
<trkpt lat="48.934382" lon="8.675397">
<ele>392.5</ele>
<speed>4.9</speed>
<course>232.4</course>
<desc>Speed 4.9 km/h Distance 6.71 km</desc>
<time>2010-02-28T11:33:45.05</time>
<name>4628</name>
</trkpt>
<trkpt lat="48.934378" lon="8.675390">
<ele>393.0</ele>
<speed>1.7</speed>
<course>237.6</course>
<desc>Speed 1.7 km/h Distance 6.71 km</desc>
<time>2010-02-28T11:33:46.04</time>
<name>4629</name>
</trkpt>
<trkpt lat="48.934370" lon="8.675370">
<ele>393.0</ele>
<speed>2.3</speed>
<course>280.7</course>
<desc>Speed 2.3 km/h Distance 6.71 km</desc>
<time>2010-02-28T11:33:47.13</time>
<name>4630</name>
</trkpt>
<trkpt lat="48.934372" lon="8.675357">
<ele>393.5</ele>
<speed>4.0</speed>
<course>259.3</course>
<desc>Speed 4.0 km/h Distance 6.71 km</desc>
<time>2010-02-28T11:33:48.04</time>
<name>4631</name>
</trkpt>
<trkpt lat="48.934370" lon="8.675343">
<ele>393.5</ele>
<speed>3.3</speed>
<course>238.6</course>
<desc>Speed 3.3 km/h Distance 6.71 km</desc>
<time>2010-02-28T11:33:49.24</time>
<name>4632</name>
</trkpt>
<trkpt lat="48.934367" lon="8.675335">
<ele>394.0</ele>
<speed>3.1</speed>
<course>282.3</course>
<desc>Speed 3.1 km/h Distance 6.71 km</desc>
<time>2010-02-28T11:33:50.04</time>
<name>4633</name>
</trkpt>
<trkpt lat="48.934368" lon="8.675323">
<ele>394.0</ele>
<speed>3.1</speed>
<course>280.8</course>
<desc>Speed 3.1 km/h Distance 6.71 km</desc>
<time>2010-02-28T11:33:51.15</time>
<name>4634</name>
</trkpt>
<trkpt lat="48.934370" lon="8.675310">
<ele>394.0</ele>
<speed>3.1</speed>
<course>197.5</course>
<desc>Speed 3.1 km/h Distance 6.71 km</desc>
<time>2010-02-28T11:33:53.30</time>
<name>4635</name>
</trkpt>
<trkpt lat="48.934363" lon="8.675307">
<ele>394.0</ele>
<speed>3.1</speed>
<course>211.6</course>
<desc>Speed 3.1 km/h Distance 6.71 km</desc>
<time>2010-02-28T11:33:55.21</time>
<name>4636</name>
</trkpt>
<trkpt lat="48.934360" lon="8.675303">
<ele>394.0</ele>
<speed>3.1</speed>
<course>270.0</course>
<desc>Speed 3.1 km/h Distance 6.71 km</desc>
<time>2010-02-28T11:33:56.03</time>
<name>4637</name>
</trkpt>
<trkpt lat="48.934360" lon="8.675298">
<ele>394.0</ele>
<speed>3.1</speed>
<course>202.6</course>
<desc>Speed 3.1 km/h Distance 6.72 km</desc>
<time>2010-02-28T11:33:57.02</time>
<name>4638</name>
</trkpt>
<trkpt lat="48.934342" lon="8.675287">
<ele>394.0</ele>
<speed>1.0</speed>
<course>277.2</course>
<desc>Speed 1.0 km/h Distance 6.72 km</desc>
<time>2010-02-28T11:33:58.02</time>
<name>4639</name>
</trkpt>
<trkpt lat="48.934343" lon="8.675267">
<ele>394.0</ele>
<speed>3.6</speed>
<course>303.3</course>
<desc>Speed 3.6 km/h Distance 6.72 km</desc>
<time>2010-02-28T11:33:59.02</time>
<name>4640</name>
</trkpt>
<trkpt lat="48.934348" lon="8.675255">
<ele>394.0</ele>
<speed>3.6</speed>
<course>290.8</course>
<desc>Speed 3.6 km/h Distance 6.72 km</desc>
<time>2010-02-28T11:34:00.02</time>
<name>4641</name>
</trkpt>
<trkpt lat="48.934352" lon="8.675242">
<ele>394.0</ele>
<speed>3.6</speed>
<course>180.0</course>
<desc>Speed 3.6 km/h Distance 6.72 km</desc>
<time>2010-02-28T11:34:01.09</time>
<name>4642</name>
</trkpt>
<trkpt lat="48.934343" lon="8.675242">
<ele>394.5</ele>
<speed>0.4</speed>
<course>270.0</course>
<desc>Speed 0.4 km/h Distance 6.72 km</desc>
<time>2010-02-28T11:34:02.04</time>
<name>4643</name>
</trkpt>
<trkpt lat="48.934343" lon="8.675227">
<ele>394.5</ele>
<speed>5.5</speed>
<course>227.6</course>
<desc>Speed 5.5 km/h Distance 6.72 km</desc>
<time>2010-02-28T11:34:03.07</time>
<name>4644</name>
</trkpt>
<trkpt lat="48.934333" lon="8.675210">
<ele>394.5</ele>
<speed>0.8</speed>
<course>213.3</course>
<desc>Speed 0.8 km/h Distance 6.72 km</desc>
<time>2010-02-28T11:34:04.13</time>
<name>4645</name>
</trkpt>
<trkpt lat="48.934303" lon="8.675180">
<ele>394.5</ele>
<speed>0.0</speed>
<course>262.3</course>
<desc>Speed 0.0 km/h Distance 6.73 km</desc>
<time>2010-02-28T11:34:06.01</time>
<name>4646</name>
</trkpt>
<trkpt lat="48.934297" lon="8.675105">
<ele>395.0</ele>
<speed>0.6</speed>
<course>235.4</course>
<desc>Speed 0.6 km/h Distance 6.73 km</desc>
<time>2010-02-28T11:34:08.05</time>
<name>4647</name>
</trkpt>
<trkpt lat="48.934288" lon="8.675087">
<ele>395.0</ele>
<speed>1.2</speed>
<course>284.1</course>
<desc>Speed 1.2 km/h Distance 6.74 km</desc>
<time>2010-02-28T11:34:09.00</time>
<name>4648</name>
</trkpt>
<trkpt lat="48.934290" lon="8.675077">
<ele>395.0</ele>
<speed>0.5</speed>
<course>255.9</course>
<desc>Speed 0.5 km/h Distance 6.74 km</desc>
<time>2010-02-28T11:34:10.00</time>
<name>4649</name>
</trkpt>
<trkpt lat="48.934288" lon="8.675067">
<ele>395.0</ele>
<speed>1.0</speed>
<course>243.0</course>
<desc>Speed 1.0 km/h Distance 6.74 km</desc>
<time>2010-02-28T11:34:11.01</time>
<name>4650</name>
</trkpt>
<trkpt lat="48.934285" lon="8.675057">
<ele>395.0</ele>
<speed>0.7</speed>
<course>160.3</course>
<desc>Speed 0.7 km/h Distance 6.74 km</desc>
<time>2010-02-28T11:34:12.00</time>
<name>4651</name>
</trkpt>
<trkpt lat="48.934267" lon="8.675067">
<ele>395.0</ele>
<speed>2.2</speed>
<course>231.9</course>
<desc>Speed 2.2 km/h Distance 6.74 km</desc>
<time>2010-02-28T11:34:13.99</time>
<name>4652</name>
</trkpt>
<trkpt lat="48.934265" lon="8.675063">
<ele>395.0</ele>
<speed>1.5</speed>
<course>332.9</course>
<desc>Speed 1.5 km/h Distance 6.74 km</desc>
<time>2010-02-28T11:34:14.99</time>
<name>4653</name>
</trkpt>
<trkpt lat="48.934385" lon="8.674970">
<ele>396.5</ele>
<speed>1.8</speed>
<course>172.6</course>
<desc>Speed 1.8 km/h Distance 6.76 km</desc>
<time>2010-02-28T11:34:17.99</time>
<name>4654</name>
</trkpt>
<trkpt lat="48.934378" lon="8.674972">
<ele>396.5</ele>
<speed>1.0</speed>
<course>180.0</course>
<desc>Speed 1.0 km/h Distance 6.76 km</desc>
<time>2010-02-28T11:34:18.98</time>
<name>4655</name>
</trkpt>
<trkpt lat="48.934375" lon="8.674972">
<ele>396.5</ele>
<speed>0.7</speed>
<course>180.0</course>
<desc>Speed 0.7 km/h Distance 6.76 km</desc>
<time>2010-02-28T11:34:20.09</time>
<name>4656</name>
</trkpt>
<trkpt lat="48.934375" lon="8.674972">
<ele>396.5</ele>
<speed>0.7</speed>
<course>253.3</course>
<desc>Speed 0.7 km/h Distance 6.76 km</desc>
<time>2010-02-28T11:34:21.02</time>
<name>4657</name>
</trkpt>
<trkpt lat="48.934373" lon="8.674963">
<ele>396.5</ele>
<speed>0.3</speed>
<course>347.4</course>
<desc>Speed 0.3 km/h Distance 6.76 km</desc>
<time>2010-02-28T11:34:22.02</time>
<name>4658</name>
</trkpt>
<trkpt lat="48.934378" lon="8.674962">
<ele>396.5</ele>
<speed>2.4</speed>
<course>167.4</course>
<desc>Speed 2.4 km/h Distance 6.76 km</desc>
<time>2010-02-28T11:34:23.02</time>
<name>4659</name>
</trkpt>
<trkpt lat="48.934373" lon="8.674963">
<ele>396.5</ele>
<speed>0.4</speed>
<course>0.0</course>
<desc>Speed 0.4 km/h Distance 6.76 km</desc>
<time>2010-02-28T11:34:24.02</time>
<name>4660</name>
</trkpt>
<trkpt lat="48.934377" lon="8.674963">
<ele>396.0</ele>
<speed>0.4</speed>
<course>61.0</course>
<desc>Speed 0.4 km/h Distance 6.76 km</desc>
<time>2010-02-28T11:34:25.04</time>
<name>4661</name>
</trkpt>
<trkpt lat="48.934383" lon="8.674982">
<ele>395.5</ele>
<speed>1.0</speed>
<course>20.9</course>
<desc>Speed 1.0 km/h Distance 6.76 km</desc>
<time>2010-02-28T11:34:27.04</time>
<name>4662</name>
</trkpt>
<trkpt lat="48.934395" lon="8.674988">
<ele>395.5</ele>
<speed>1.3</speed>
<course>72.9</course>
<desc>Speed 1.3 km/h Distance 6.76 km</desc>
<time>2010-02-28T11:34:28.04</time>
<name>4663</name>
</trkpt>
<trkpt lat="48.934397" lon="8.674997">
<ele>395.5</ele>
<speed>1.3</speed>
<course>22.2</course>
<desc>Speed 1.3 km/h Distance 6.76 km</desc>
<time>2010-02-28T11:34:29.04</time>
<name>4664</name>
</trkpt>
<trkpt lat="48.934402" lon="8.675000">
<ele>395.5</ele>
<speed>1.3</speed>
<course>20.4</course>
<desc>Speed 1.3 km/h Distance 6.76 km</desc>
<time>2010-02-28T11:34:30.04</time>
<name>4665</name>
</trkpt>
<trkpt lat="48.934452" lon="8.675028">
<ele>395.0</ele>
<speed>2.5</speed>
<course>313.9</course>
<desc>Speed 2.5 km/h Distance 6.77 km</desc>
<time>2010-02-28T11:34:32.07</time>
<name>4666</name>
</trkpt>
<trkpt lat="48.934638" lon="8.674733">
<ele>392.5</ele>
<speed>18.8</speed>
<course>171.2</course>
<desc>Speed 18.8 km/h Distance 6.80 km</desc>
<time>2010-02-28T11:34:36.07</time>
<name>4667</name>
</trkpt>
<trkpt lat="48.934553" lon="8.674753">
<ele>391.0</ele>
<speed>13.1</speed>
<course>184.7</course>
<desc>Speed 13.1 km/h Distance 6.81 km</desc>
<time>2010-02-28T11:34:38.07</time>
<name>4668</name>
</trkpt>
<trkpt lat="48.934542" lon="8.674752">
<ele>392.0</ele>
<speed>9.4</speed>
<course>174.9</course>
<desc>Speed 9.4 km/h Distance 6.81 km</desc>
<time>2010-02-28T11:34:40.07</time>
<name>4669</name>
</trkpt>
<trkpt lat="48.934507" lon="8.674757">
<ele>392.0</ele>
<speed>12.2</speed>
<course>254.5</course>
<desc>Speed 12.2 km/h Distance 6.81 km</desc>
<time>2010-02-28T11:34:41.07</time>
<name>4670</name>
</trkpt>
<trkpt lat="48.934503" lon="8.674738">
<ele>391.5</ele>
<speed>7.5</speed>
<course>165.7</course>
<desc>Speed 7.5 km/h Distance 6.82 km</desc>
<time>2010-02-28T11:34:42.07</time>
<name>4671</name>
</trkpt>
<trkpt lat="48.934482" lon="8.674747">
<ele>393.5</ele>
<speed>5.2</speed>
<course>270.0</course>
<desc>Speed 5.2 km/h Distance 6.82 km</desc>
<time>2010-02-28T11:34:43.07</time>
<name>4672</name>
</trkpt>
<trkpt lat="48.934482" lon="8.674728">
<ele>393.5</ele>
<speed>3.6</speed>
<course>192.6</course>
<desc>Speed 3.6 km/h Distance 6.82 km</desc>
<time>2010-02-28T11:34:44.07</time>
<name>4673</name>
</trkpt>
<trkpt lat="48.934472" lon="8.674725">
<ele>394.0</ele>
<speed>3.6</speed>
<course>278.7</course>
<desc>Speed 3.6 km/h Distance 6.82 km</desc>
<time>2010-02-28T11:34:45.07</time>
<name>4674</name>
</trkpt>
<trkpt lat="48.934473" lon="8.674708">
<ele>394.0</ele>
<speed>3.6</speed>
<course>245.1</course>
<desc>Speed 3.6 km/h Distance 6.82 km</desc>
<time>2010-02-28T11:34:46.37</time>
<name>4675</name>
</trkpt>
<trkpt lat="48.934462" lon="8.674670">
<ele>394.5</ele>
<speed>4.5</speed>
<course>299.7</course>
<desc>Speed 4.5 km/h Distance 6.82 km</desc>
<time>2010-02-28T11:34:48.08</time>
<name>4676</name>
</trkpt>
<trkpt lat="48.934467" lon="8.674657">
<ele>395.0</ele>
<speed>1.5</speed>
<course>318.0</course>
<desc>Speed 1.5 km/h Distance 6.83 km</desc>
<time>2010-02-28T11:34:49.08</time>
<name>4677</name>
</trkpt>
<trkpt lat="48.934480" lon="8.674638">
<ele>396.0</ele>
<speed>5.1</speed>
<course>202.2</course>
<desc>Speed 5.1 km/h Distance 6.83 km</desc>
<time>2010-02-28T11:34:50.08</time>
<name>4678</name>
</trkpt>
<trkpt lat="48.934475" lon="8.674635">
<ele>396.5</ele>
<speed>2.8</speed>
<course>322.1</course>
<desc>Speed 2.8 km/h Distance 6.83 km</desc>
<time>2010-02-28T11:34:51.08</time>
<name>4679</name>
</trkpt>
<trkpt lat="48.934493" lon="8.674613">
<ele>396.5</ele>
<speed>5.1</speed>
<course>321.6</course>
<desc>Speed 5.1 km/h Distance 6.83 km</desc>
<time>2010-02-28T11:34:52.08</time>
<name>4680</name>
</trkpt>
<trkpt lat="48.934502" lon="8.674603">
<ele>397.0</ele>
<speed>5.0</speed>
<course>321.9</course>
<desc>Speed 5.0 km/h Distance 6.83 km</desc>
<time>2010-02-28T11:34:53.10</time>
<name>4681</name>
</trkpt>
<trkpt lat="48.934510" lon="8.674593">
<ele>397.0</ele>
<speed>3.7</speed>
<course>206.2</course>
<desc>Speed 3.7 km/h Distance 6.83 km</desc>
<time>2010-02-28T11:34:54.08</time>
<name>4682</name>
</trkpt>
<trkpt lat="48.934490" lon="8.674578">
<ele>397.5</ele>
<speed>6.3</speed>
<course>166.0</course>
<desc>Speed 6.3 km/h Distance 6.84 km</desc>
<time>2010-02-28T11:34:55.08</time>
<name>4683</name>
</trkpt>
<trkpt lat="48.934468" lon="8.674587">
<ele>398.0</ele>
<speed>11.6</speed>
<course>247.4</course>
<desc>Speed 11.6 km/h Distance 6.84 km</desc>
<time>2010-02-28T11:34:56.08</time>
<name>4684</name>
</trkpt>
<trkpt lat="48.934463" lon="8.674568">
<ele>398.0</ele>
<speed>4.6</speed>
<course>323.8</course>
<desc>Speed 4.6 km/h Distance 6.84 km</desc>
<time>2010-02-28T11:34:57.08</time>
<name>4685</name>
</trkpt>
<trkpt lat="48.934478" lon="8.674552">
<ele>398.0</ele>
<speed>3.6</speed>
<course>165.1</course>
<desc>Speed 3.6 km/h Distance 6.84 km</desc>
<time>2010-02-28T11:34:58.08</time>
<name>4686</name>
</trkpt>
<trkpt lat="48.934470" lon="8.674555">
<ele>398.0</ele>
<speed>3.0</speed>
<course>321.1</course>
<desc>Speed 3.0 km/h Distance 6.84 km</desc>
<time>2010-02-28T11:34:59.08</time>
<name>4687</name>
</trkpt>
<trkpt lat="48.934543" lon="8.674465">
<ele>397.5</ele>
<speed>18.5</speed>
<course>208.7</course>
<desc>Speed 18.5 km/h Distance 6.85 km</desc>
<time>2010-02-28T11:35:02.08</time>
<name>4688</name>
</trkpt>
<trkpt lat="48.934513" lon="8.674440">
<ele>398.0</ele>
<speed>4.0</speed>
<course>226.4</course>
<desc>Speed 4.0 km/h Distance 6.86 km</desc>
<time>2010-02-28T11:35:05.08</time>
<name>4689</name>
</trkpt>
<trkpt lat="48.934488" lon="8.674400">
<ele>399.5</ele>
<speed>10.5</speed>
<course>323.9</course>
<desc>Speed 10.5 km/h Distance 6.86 km</desc>
<time>2010-02-28T11:35:07.08</time>
<name>4690</name>
</trkpt>
<trkpt lat="48.934563" lon="8.674317">
<ele>399.5</ele>
<speed>24.3</speed>
<course>237.9</course>
<desc>Speed 24.3 km/h Distance 6.87 km</desc>
<time>2010-02-28T11:35:09.09</time>
<name>4691</name>
</trkpt>
<trkpt lat="48.934552" lon="8.674288">
<ele>399.0</ele>
<speed>4.8</speed>
<course>227.6</course>
<desc>Speed 4.8 km/h Distance 6.87 km</desc>
<time>2010-02-28T11:35:12.47</time>
<name>4692</name>
</trkpt>
<trkpt lat="48.934522" lon="8.674238">
<ele>400.5</ele>
<speed>4.0</speed>
<course>249.2</course>
<desc>Speed 4.0 km/h Distance 6.88 km</desc>
<time>2010-02-28T11:35:15.13</time>
<name>4693</name>
</trkpt>
<trkpt lat="48.934518" lon="8.674225">
<ele>400.5</ele>
<speed>4.0</speed>
<course>270.0</course>
<desc>Speed 4.0 km/h Distance 6.88 km</desc>
<time>2010-02-28T11:35:16.32</time>
<name>4694</name>
</trkpt>
<trkpt lat="48.934518" lon="8.674218">
<ele>400.5</ele>
<speed>4.0</speed>
<course>199.9</course>
<desc>Speed 4.0 km/h Distance 6.88 km</desc>
<time>2010-02-28T11:35:17.19</time>
<name>4695</name>
</trkpt>
<trkpt lat="48.934485" lon="8.674200">
<ele>400.5</ele>
<speed>3.9</speed>
<course>243.1</course>
<desc>Speed 3.9 km/h Distance 6.88 km</desc>
<time>2010-02-28T11:35:19.19</time>
<name>4696</name>
</trkpt>
<trkpt lat="48.934480" lon="8.674185">
<ele>400.5</ele>
<speed>3.9</speed>
<course>324.6</course>
<desc>Speed 3.9 km/h Distance 6.89 km</desc>
<time>2010-02-28T11:35:20.19</time>
<name>4697</name>
</trkpt>
<trkpt lat="48.934500" lon="8.674163">
<ele>400.5</ele>
<speed>10.4</speed>
<course>310.3</course>
<desc>Speed 10.4 km/h Distance 6.89 km</desc>
<time>2010-02-28T11:35:21.28</time>
<name>4698</name>
</trkpt>
<trkpt lat="48.934508" lon="8.674148">
<ele>400.5</ele>
<speed>3.9</speed>
<course>295.7</course>
<desc>Speed 3.9 km/h Distance 6.89 km</desc>
<time>2010-02-28T11:35:22.22</time>
<name>4699</name>
</trkpt>
<trkpt lat="48.934518" lon="8.674117">
<ele>400.5</ele>
<speed>8.3</speed>
<course>315.3</course>
<desc>Speed 8.3 km/h Distance 6.89 km</desc>
<time>2010-02-28T11:35:23.22</time>
<name>4700</name>
</trkpt>
<trkpt lat="48.934528" lon="8.674102">
<ele>400.5</ele>
<speed>3.7</speed>
<course>311.6</course>
<desc>Speed 3.7 km/h Distance 6.89 km</desc>
<time>2010-02-28T11:35:24.22</time>
<name>4701</name>
</trkpt>
<trkpt lat="48.934540" lon="8.674082">
<ele>401.0</ele>
<speed>3.1</speed>
<course>295.4</course>
<desc>Speed 3.1 km/h Distance 6.90 km</desc>
<time>2010-02-28T11:35:25.22</time>
<name>4702</name>
</trkpt>
<trkpt lat="48.934548" lon="8.674055">
<ele>400.5</ele>
<speed>5.7</speed>
<course>300.6</course>
<desc>Speed 5.7 km/h Distance 6.90 km</desc>
<time>2010-02-28T11:35:26.22</time>
<name>4703</name>
</trkpt>
<trkpt lat="48.934560" lon="8.674025">
<ele>400.5</ele>
<speed>7.2</speed>
<course>310.9</course>
<desc>Speed 7.2 km/h Distance 6.90 km</desc>
<time>2010-02-28T11:35:27.22</time>
<name>4704</name>
</trkpt>
<trkpt lat="48.934567" lon="8.674013">
<ele>400.5</ele>
<speed>3.9</speed>
<course>301.4</course>
<desc>Speed 3.9 km/h Distance 6.90 km</desc>
<time>2010-02-28T11:35:28.22</time>
<name>4705</name>
</trkpt>
<trkpt lat="48.934577" lon="8.673988">
<ele>400.5</ele>
<speed>5.9</speed>
<course>326.8</course>
<desc>Speed 5.9 km/h Distance 6.90 km</desc>
<time>2010-02-28T11:35:29.22</time>
<name>4706</name>
</trkpt>
<trkpt lat="48.934587" lon="8.673978">
<ele>400.5</ele>
<speed>2.4</speed>
<course>304.1</course>
<desc>Speed 2.4 km/h Distance 6.90 km</desc>
<time>2010-02-28T11:35:30.22</time>
<name>4707</name>
</trkpt>
<trkpt lat="48.934593" lon="8.673963">
<ele>400.5</ele>
<speed>3.4</speed>
<course>294.6</course>
<desc>Speed 3.4 km/h Distance 6.91 km</desc>
<time>2010-02-28T11:35:31.22</time>
<name>4708</name>
</trkpt>
<trkpt lat="48.934598" lon="8.673947">
<ele>400.0</ele>
<speed>3.7</speed>
<course>314.1</course>
<desc>Speed 3.7 km/h Distance 6.91 km</desc>
<time>2010-02-28T11:35:32.22</time>
<name>4709</name>
</trkpt>
<trkpt lat="48.934610" lon="8.673928">
<ele>400.5</ele>
<speed>4.8</speed>
<course>263.8</course>
<desc>Speed 4.8 km/h Distance 6.91 km</desc>
<time>2010-02-28T11:35:33.22</time>
<name>4710</name>
</trkpt>
<trkpt lat="48.934608" lon="8.673905">
<ele>400.5</ele>
<speed>4.9</speed>
<course>292.6</course>
<desc>Speed 4.9 km/h Distance 6.91 km</desc>
<time>2010-02-28T11:35:34.22</time>
<name>4711</name>
</trkpt>
<trkpt lat="48.934613" lon="8.673887">
<ele>400.5</ele>
<speed>4.6</speed>
<course>347.4</course>
<desc>Speed 4.6 km/h Distance 6.91 km</desc>
<time>2010-02-28T11:35:35.22</time>
<name>4712</name>
</trkpt>
<trkpt lat="48.934617" lon="8.673885">
<ele>400.5</ele>
<speed>1.2</speed>
<course>317.4</course>
<desc>Speed 1.2 km/h Distance 6.91 km</desc>
<time>2010-02-28T11:35:36.22</time>
<name>4713</name>
</trkpt>
<trkpt lat="48.934625" lon="8.673873">
<ele>400.5</ele>
<speed>4.3</speed>
<course>307.3</course>
<desc>Speed 4.3 km/h Distance 6.91 km</desc>
<time>2010-02-28T11:35:37.22</time>
<name>4714</name>
</trkpt>
<trkpt lat="48.934637" lon="8.673850">
<ele>401.5</ele>
<speed>2.7</speed>
<course>244.2</course>
<desc>Speed 2.7 km/h Distance 6.92 km</desc>
<time>2010-02-28T11:35:38.22</time>
<name>4715</name>
</trkpt>
<trkpt lat="48.934593" lon="8.673713">
<ele>402.5</ele>
<speed>17.5</speed>
<course>305.1</course>
<desc>Speed 17.5 km/h Distance 6.93 km</desc>
<time>2010-02-28T11:35:41.22</time>
<name>4716</name>
</trkpt>
<trkpt lat="48.934613" lon="8.673670">
<ele>402.5</ele>
<speed>4.9</speed>
<course>332.3</course>
<desc>Speed 4.9 km/h Distance 6.93 km</desc>
<time>2010-02-28T11:35:44.22</time>
<name>4717</name>
</trkpt>
<trkpt lat="48.934630" lon="8.673657">
<ele>403.0</ele>
<speed>5.4</speed>
<course>192.6</course>
<desc>Speed 5.4 km/h Distance 6.93 km</desc>
<time>2010-02-28T11:35:45.22</time>
<name>4718</name>
</trkpt>
<trkpt lat="48.934625" lon="8.673655">
<ele>403.0</ele>
<speed>7.1</speed>
<course>316.5</course>
<desc>Speed 7.1 km/h Distance 6.93 km</desc>
<time>2010-02-28T11:35:46.22</time>
<name>4719</name>
</trkpt>
<trkpt lat="48.934640" lon="8.673633">
<ele>403.0</ele>
<speed>5.1</speed>
<course>334.8</course>
<desc>Speed 5.1 km/h Distance 6.94 km</desc>
<time>2010-02-28T11:35:47.22</time>
<name>4720</name>
</trkpt>
<trkpt lat="48.934663" lon="8.673617">
<ele>403.0</ele>
<speed>5.3</speed>
<course>333.8</course>
<desc>Speed 5.3 km/h Distance 6.94 km</desc>
<time>2010-02-28T11:35:48.22</time>
<name>4721</name>
</trkpt>
<trkpt lat="48.934683" lon="8.673602">
<ele>402.5</ele>
<speed>4.6</speed>
<course>331.2</course>
<desc>Speed 4.6 km/h Distance 6.94 km</desc>
<time>2010-02-28T11:35:49.22</time>
<name>4722</name>
</trkpt>
<trkpt lat="48.934703" lon="8.673585">
<ele>402.5</ele>
<speed>4.6</speed>
<course>323.1</course>
<desc>Speed 4.6 km/h Distance 6.94 km</desc>
<time>2010-02-28T11:35:50.22</time>
<name>4723</name>
</trkpt>
<trkpt lat="48.934715" lon="8.673572">
<ele>402.0</ele>
<speed>6.2</speed>
<course>326.7</course>
<desc>Speed 6.2 km/h Distance 6.95 km</desc>
<time>2010-02-28T11:35:51.22</time>
<name>4724</name>
</trkpt>
<trkpt lat="48.934727" lon="8.673560">
<ele>402.5</ele>
<speed>4.8</speed>
<course>315.4</course>
<desc>Speed 4.8 km/h Distance 6.95 km</desc>
<time>2010-02-28T11:35:52.22</time>
<name>4725</name>
</trkpt>
<trkpt lat="48.934740" lon="8.673540">
<ele>402.5</ele>
<speed>6.3</speed>
<course>304.1</course>
<desc>Speed 6.3 km/h Distance 6.95 km</desc>
<time>2010-02-28T11:35:53.22</time>
<name>4726</name>
</trkpt>
<trkpt lat="48.934747" lon="8.673525">
<ele>402.5</ele>
<speed>6.3</speed>
<course>318.0</course>
<desc>Speed 6.3 km/h Distance 6.95 km</desc>
<time>2010-02-28T11:35:54.22</time>
<name>4727</name>
</trkpt>
<trkpt lat="48.934760" lon="8.673507">
<ele>402.5</ele>
<speed>5.9</speed>
<course>331.0</course>
<desc>Speed 5.9 km/h Distance 6.95 km</desc>
<time>2010-02-28T11:35:55.22</time>
<name>4728</name>
</trkpt>
<trkpt lat="48.934772" lon="8.673497">
<ele>402.5</ele>
<speed>3.5</speed>
<course>304.7</course>
<desc>Speed 3.5 km/h Distance 6.95 km</desc>
<time>2010-02-28T11:35:56.22</time>
<name>4729</name>
</trkpt>
<trkpt lat="48.934780" lon="8.673478">
<ele>402.5</ele>
<speed>5.4</speed>
<course>301.3</course>
<desc>Speed 5.4 km/h Distance 6.96 km</desc>
<time>2010-02-28T11:35:57.22</time>
<name>4730</name>
</trkpt>
<trkpt lat="48.934787" lon="8.673462">
<ele>402.5</ele>
<speed>5.4</speed>
<course>270.0</course>
<desc>Speed 5.4 km/h Distance 6.96 km</desc>
<time>2010-02-28T11:35:58.22</time>
<name>4731</name>
</trkpt>
<trkpt lat="48.934787" lon="8.673452">
<ele>402.0</ele>
<speed>5.4</speed>
<course>286.9</course>
<desc>Speed 5.4 km/h Distance 6.96 km</desc>
<time>2010-02-28T11:35:59.22</time>
<name>4732</name>
</trkpt>
<trkpt lat="48.934790" lon="8.673435">
<ele>402.0</ele>
<speed>5.1</speed>
<course>285.4</course>
<desc>Speed 5.1 km/h Distance 6.96 km</desc>
<time>2010-02-28T11:36:00.22</time>
<name>4733</name>
</trkpt>
<trkpt lat="48.934793" lon="8.673417">
<ele>402.0</ele>
<speed>6.2</speed>
<course>290.9</course>
<desc>Speed 6.2 km/h Distance 6.96 km</desc>
<time>2010-02-28T11:36:01.22</time>
<name>4734</name>
</trkpt>
<trkpt lat="48.934797" lon="8.673403">
<ele>402.0</ele>
<speed>6.2</speed>
<course>326.8</course>
<desc>Speed 6.2 km/h Distance 6.96 km</desc>
<time>2010-02-28T11:36:02.22</time>
<name>4735</name>
</trkpt>
<trkpt lat="48.934802" lon="8.673398">
<ele>401.5</ele>
<speed>4.5</speed>
<course>301.4</course>
<desc>Speed 4.5 km/h Distance 6.96 km</desc>
<time>2010-02-28T11:36:03.22</time>
<name>4736</name>
</trkpt>
<trkpt lat="48.934805" lon="8.673390">
<ele>401.5</ele>
<speed>4.5</speed>
<course>297.0</course>
<desc>Speed 4.5 km/h Distance 6.96 km</desc>
<time>2010-02-28T11:36:04.22</time>
<name>4737</name>
</trkpt>
<trkpt lat="48.934808" lon="8.673380">
<ele>401.5</ele>
<speed>4.5</speed>
<course>270.0</course>
<desc>Speed 4.5 km/h Distance 6.96 km</desc>
<time>2010-02-28T11:36:05.22</time>
<name>4738</name>
</trkpt>
<trkpt lat="48.934808" lon="8.673363">
<ele>401.5</ele>
<speed>4.9</speed>
<course>182.8</course>
<desc>Speed 4.9 km/h Distance 6.97 km</desc>
<time>2010-02-28T11:36:06.22</time>
<name>4739</name>
</trkpt>
<trkpt lat="48.934780" lon="8.673362">
<ele>401.5</ele>
<speed>9.0</speed>
<course>217.5</course>
<desc>Speed 9.0 km/h Distance 6.97 km</desc>
<time>2010-02-28T11:36:07.22</time>
<name>4740</name>
</trkpt>
<trkpt lat="48.934770" lon="8.673350">
<ele>401.5</ele>
<speed>5.2</speed>
<course>226.4</course>
<desc>Speed 5.2 km/h Distance 6.97 km</desc>
<time>2010-02-28T11:36:08.22</time>
<name>4741</name>
</trkpt>
<trkpt lat="48.934762" lon="8.673337">
<ele>401.5</ele>
<speed>5.2</speed>
<course>270.0</course>
<desc>Speed 5.2 km/h Distance 6.97 km</desc>
<time>2010-02-28T11:36:09.22</time>
<name>4742</name>
</trkpt>
<trkpt lat="48.934762" lon="8.673320">
<ele>401.5</ele>
<speed>3.7</speed>
<course>279.6</course>
<desc>Speed 3.7 km/h Distance 6.97 km</desc>
<time>2010-02-28T11:36:10.22</time>
<name>4743</name>
</trkpt>
<trkpt lat="48.934763" lon="8.673305">
<ele>401.5</ele>
<speed>3.1</speed>
<course>251.3</course>
<desc>Speed 3.1 km/h Distance 6.97 km</desc>
<time>2010-02-28T11:36:11.22</time>
<name>4744</name>
</trkpt>
<trkpt lat="48.934760" lon="8.673290">
<ele>402.0</ele>
<speed>4.5</speed>
<course>240.3</course>
<desc>Speed 4.5 km/h Distance 6.97 km</desc>
<time>2010-02-28T11:36:12.22</time>
<name>4745</name>
</trkpt>
<trkpt lat="48.934755" lon="8.673277">
<ele>402.0</ele>
<speed>4.5</speed>
<course>302.3</course>
<desc>Speed 4.5 km/h Distance 6.98 km</desc>
<time>2010-02-28T11:36:13.22</time>
<name>4746</name>
</trkpt>
<trkpt lat="48.934763" lon="8.673257">
<ele>402.0</ele>
<speed>5.0</speed>
<course>322.5</course>
<desc>Speed 5.0 km/h Distance 6.98 km</desc>
<time>2010-02-28T11:36:14.22</time>
<name>4747</name>
</trkpt>
<trkpt lat="48.934783" lon="8.673233">
<ele>401.5</ele>
<speed>9.1</speed>
<course>319.5</course>
<desc>Speed 9.1 km/h Distance 6.98 km</desc>
<time>2010-02-28T11:36:15.22</time>
<name>4748</name>
</trkpt>
<trkpt lat="48.934800" lon="8.673212">
<ele>401.5</ele>
<speed>5.4</speed>
<course>320.6</course>
<desc>Speed 5.4 km/h Distance 6.98 km</desc>
<time>2010-02-28T11:36:16.22</time>
<name>4749</name>
</trkpt>
<trkpt lat="48.934820" lon="8.673187">
<ele>401.5</ele>
<speed>5.0</speed>
<course>313.6</course>
<desc>Speed 5.0 km/h Distance 6.99 km</desc>
<time>2010-02-28T11:36:17.22</time>
<name>4750</name>
</trkpt>
<trkpt lat="48.934837" lon="8.673160">
<ele>401.0</ele>
<speed>4.9</speed>
<course>321.7</course>
<desc>Speed 4.9 km/h Distance 6.99 km</desc>
<time>2010-02-28T11:36:18.22</time>
<name>4751</name>
</trkpt>
<trkpt lat="48.934853" lon="8.673140">
<ele>400.5</ele>
<speed>5.3</speed>
<course>315.4</course>
<desc>Speed 5.3 km/h Distance 6.99 km</desc>
<time>2010-02-28T11:36:19.22</time>
<name>4752</name>
</trkpt>
<trkpt lat="48.934870" lon="8.673115">
<ele>400.0</ele>
<speed>5.8</speed>
<course>312.4</course>
<desc>Speed 5.8 km/h Distance 6.99 km</desc>
<time>2010-02-28T11:36:20.22</time>
<name>4753</name>
</trkpt>
<trkpt lat="48.934885" lon="8.673090">
<ele>400.0</ele>
<speed>5.2</speed>
<course>318.8</course>
<desc>Speed 5.2 km/h Distance 7.00 km</desc>
<time>2010-02-28T11:36:21.22</time>
<name>4754</name>
</trkpt>
<trkpt lat="48.934895" lon="8.673077">
<ele>400.0</ele>
<speed>4.5</speed>
<course>221.9</course>
<desc>Speed 4.5 km/h Distance 7.00 km</desc>
<time>2010-02-28T11:36:22.22</time>
<name>4755</name>
</trkpt>
<trkpt lat="48.934890" lon="8.673070">
<ele>398.5</ele>
<speed>4.2</speed>
<course>333.6</course>
<desc>Speed 4.2 km/h Distance 7.00 km</desc>
<time>2010-02-28T11:36:23.22</time>
<name>4756</name>
</trkpt>
<trkpt lat="48.934897" lon="8.673065">
<ele>399.0</ele>
<speed>4.2</speed>
<course>279.6</course>
<desc>Speed 4.2 km/h Distance 7.00 km</desc>
<time>2010-02-28T11:36:24.22</time>
<name>4757</name>
</trkpt>
<trkpt lat="48.934898" lon="8.673050">
<ele>399.0</ele>
<speed>4.0</speed>
<course>282.3</course>
<desc>Speed 4.0 km/h Distance 7.00 km</desc>
<time>2010-02-28T11:36:25.22</time>
<name>4758</name>
</trkpt>
<trkpt lat="48.934900" lon="8.673038">
<ele>398.5</ele>
<speed>4.0</speed>
<course>293.5</course>
<desc>Speed 4.0 km/h Distance 7.00 km</desc>
<time>2010-02-28T11:36:26.22</time>
<name>4759</name>
</trkpt>
<trkpt lat="48.934903" lon="8.673027">
<ele>398.5</ele>
<speed>4.2</speed>
<course>301.4</course>
<desc>Speed 4.2 km/h Distance 7.00 km</desc>
<time>2010-02-28T11:36:27.22</time>
<name>4760</name>
</trkpt>
<trkpt lat="48.934910" lon="8.673010">
<ele>398.5</ele>
<speed>4.8</speed>
<course>322.5</course>
<desc>Speed 4.8 km/h Distance 7.00 km</desc>
<time>2010-02-28T11:36:28.22</time>
<name>4761</name>
</trkpt>
<trkpt lat="48.934920" lon="8.672998">
<ele>398.5</ele>
<speed>4.9</speed>
<course>310.9</course>
<desc>Speed 4.9 km/h Distance 7.00 km</desc>
<time>2010-02-28T11:36:29.22</time>
<name>4762</name>
</trkpt>
<trkpt lat="48.934927" lon="8.672987">
<ele>398.5</ele>
<speed>4.9</speed>
<course>290.8</course>
<desc>Speed 4.9 km/h Distance 7.01 km</desc>
<time>2010-02-28T11:36:30.22</time>
<name>4763</name>
</trkpt>
<trkpt lat="48.934932" lon="8.672967">
<ele>398.0</ele>
<speed>5.2</speed>
<course>302.4</course>
<desc>Speed 5.2 km/h Distance 7.01 km</desc>
<time>2010-02-28T11:36:31.22</time>
<name>4764</name>
</trkpt>
<trkpt lat="48.934940" lon="8.672947">
<ele>398.0</ele>
<speed>5.3</speed>
<course>300.4</course>
<desc>Speed 5.3 km/h Distance 7.01 km</desc>
<time>2010-02-28T11:36:32.22</time>
<name>4765</name>
</trkpt>
<trkpt lat="48.934948" lon="8.672925">
<ele>398.0</ele>
<speed>5.2</speed>
<course>299.7</course>
<desc>Speed 5.2 km/h Distance 7.01 km</desc>
<time>2010-02-28T11:36:33.22</time>
<name>4766</name>
</trkpt>
<trkpt lat="48.934958" lon="8.672898">
<ele>397.5</ele>
<speed>6.4</speed>
<course>324.2</course>
<desc>Speed 6.4 km/h Distance 7.01 km</desc>
<time>2010-02-28T11:36:34.22</time>
<name>4767</name>
</trkpt>
<trkpt lat="48.934975" lon="8.672880">
<ele>397.5</ele>
<speed>5.2</speed>
<course>302.4</course>
<desc>Speed 5.2 km/h Distance 7.02 km</desc>
<time>2010-02-28T11:36:35.22</time>
<name>4768</name>
</trkpt>
<trkpt lat="48.934983" lon="8.672860">
<ele>397.5</ele>
<speed>5.5</speed>
<course>299.0</course>
<desc>Speed 5.5 km/h Distance 7.02 km</desc>
<time>2010-02-28T11:36:36.22</time>
<name>4769</name>
</trkpt>
<trkpt lat="48.934990" lon="8.672842">
<ele>397.5</ele>
<speed>5.5</speed>
<course>296.9</course>
<desc>Speed 5.5 km/h Distance 7.02 km</desc>
<time>2010-02-28T11:36:37.22</time>
<name>4770</name>
</trkpt>
<trkpt lat="48.935000" lon="8.672812">
<ele>397.0</ele>
<speed>6.7</speed>
<course>292.5</course>
<desc>Speed 6.7 km/h Distance 7.02 km</desc>
<time>2010-02-28T11:36:38.22</time>
<name>4771</name>
</trkpt>
<trkpt lat="48.935005" lon="8.672793">
<ele>397.0</ele>
<speed>4.0</speed>
<course>270.0</course>
<desc>Speed 4.0 km/h Distance 7.02 km</desc>
<time>2010-02-28T11:36:39.22</time>
<name>4772</name>
</trkpt>
<trkpt lat="48.935005" lon="8.672772">
<ele>397.0</ele>
<speed>2.5</speed>
<course>292.1</course>
<desc>Speed 2.5 km/h Distance 7.02 km</desc>
<time>2010-02-28T11:36:40.22</time>
<name>4773</name>
</trkpt>
<trkpt lat="48.935012" lon="8.672747">
<ele>396.5</ele>
<speed>2.7</speed>
<course>304.7</course>
<desc>Speed 2.7 km/h Distance 7.03 km</desc>
<time>2010-02-28T11:36:41.22</time>
<name>4774</name>
</trkpt>
<trkpt lat="48.935020" lon="8.672728">
<ele>396.5</ele>
<speed>4.4</speed>
<course>302.4</course>
<desc>Speed 4.4 km/h Distance 7.03 km</desc>
<time>2010-02-28T11:36:42.22</time>
<name>4775</name>
</trkpt>
<trkpt lat="48.935028" lon="8.672708">
<ele>396.5</ele>
<speed>5.1</speed>
<course>304.7</course>
<desc>Speed 5.1 km/h Distance 7.03 km</desc>
<time>2010-02-28T11:36:43.22</time>
<name>4776</name>
</trkpt>
<trkpt lat="48.935037" lon="8.672690">
<ele>396.0</ele>
<speed>5.4</speed>
<course>319.7</course>
<desc>Speed 5.4 km/h Distance 7.03 km</desc>
<time>2010-02-28T11:36:44.22</time>
<name>4777</name>
</trkpt>
<trkpt lat="48.935048" lon="8.672675">
<ele>396.0</ele>
<speed>4.4</speed>
<course>317.9</course>
<desc>Speed 4.4 km/h Distance 7.03 km</desc>
<time>2010-02-28T11:36:45.22</time>
<name>4778</name>
</trkpt>
<trkpt lat="48.935062" lon="8.672657">
<ele>396.0</ele>
<speed>5.6</speed>
<course>332.1</course>
<desc>Speed 5.6 km/h Distance 7.03 km</desc>
<time>2010-02-28T11:36:46.22</time>
<name>4779</name>
</trkpt>
<trkpt lat="48.935070" lon="8.672650">
<ele>396.0</ele>
<speed>4.2</speed>
<course>323.6</course>
<desc>Speed 4.2 km/h Distance 7.04 km</desc>
<time>2010-02-28T11:36:47.22</time>
<name>4780</name>
</trkpt>
<trkpt lat="48.935083" lon="8.672635">
<ele>395.5</ele>
<speed>5.3</speed>
<course>349.6</course>
<desc>Speed 5.3 km/h Distance 7.04 km</desc>
<time>2010-02-28T11:36:48.22</time>
<name>4781</name>
</trkpt>
<trkpt lat="48.935095" lon="8.672632">
<ele>395.5</ele>
<speed>4.1</speed>
<course>326.8</course>
<desc>Speed 4.1 km/h Distance 7.04 km</desc>
<time>2010-02-28T11:36:49.22</time>
<name>4782</name>
</trkpt>
<trkpt lat="48.935105" lon="8.672622">
<ele>395.5</ele>
<speed>4.2</speed>
<course>331.4</course>
<desc>Speed 4.2 km/h Distance 7.04 km</desc>
<time>2010-02-28T11:36:50.22</time>
<name>4783</name>
</trkpt>
<trkpt lat="48.935115" lon="8.672613">
<ele>395.0</ele>
<speed>5.0</speed>
<course>334.8</course>
<desc>Speed 5.0 km/h Distance 7.04 km</desc>
<time>2010-02-28T11:36:51.22</time>
<name>4784</name>
</trkpt>
<trkpt lat="48.935127" lon="8.672605">
<ele>395.0</ele>
<speed>5.2</speed>
<course>326.3</course>
<desc>Speed 5.2 km/h Distance 7.04 km</desc>
<time>2010-02-28T11:36:52.22</time>
<name>4785</name>
</trkpt>
<trkpt lat="48.935133" lon="8.672598">
<ele>395.0</ele>
<speed>2.9</speed>
<course>307.0</course>
<desc>Speed 2.9 km/h Distance 7.04 km</desc>
<time>2010-02-28T11:36:53.22</time>
<name>4786</name>
</trkpt>
<trkpt lat="48.935137" lon="8.672592">
<ele>395.0</ele>
<speed>2.9</speed>
<course>332.1</course>
<desc>Speed 2.9 km/h Distance 7.04 km</desc>
<time>2010-02-28T11:36:54.22</time>
<name>4787</name>
</trkpt>
<trkpt lat="48.935145" lon="8.672585">
<ele>394.5</ele>
<speed>5.4</speed>
<course>326.6</course>
<desc>Speed 5.4 km/h Distance 7.05 km</desc>
<time>2010-02-28T11:36:55.22</time>
<name>4788</name>
</trkpt>
<trkpt lat="48.935157" lon="8.672573">
<ele>394.5</ele>
<speed>4.6</speed>
<course>316.8</course>
<desc>Speed 4.6 km/h Distance 7.05 km</desc>
<time>2010-02-28T11:36:56.22</time>
<name>4789</name>
</trkpt>
<trkpt lat="48.935168" lon="8.672557">
<ele>394.0</ele>
<speed>5.0</speed>
<course>192.2</course>
<desc>Speed 5.0 km/h Distance 7.05 km</desc>
<time>2010-02-28T11:36:57.22</time>
<name>4790</name>
</trkpt>
<trkpt lat="48.935153" lon="8.672552">
<ele>394.0</ele>
<speed>6.8</speed>
<course>326.7</course>
<desc>Speed 6.8 km/h Distance 7.05 km</desc>
<time>2010-02-28T11:36:58.22</time>
<name>4791</name>
</trkpt>
<trkpt lat="48.935165" lon="8.672540">
<ele>394.0</ele>
<speed>4.5</speed>
<course>321.2</course>
<desc>Speed 4.5 km/h Distance 7.05 km</desc>
<time>2010-02-28T11:36:59.22</time>
<name>4792</name>
</trkpt>
<trkpt lat="48.935180" lon="8.672522">
<ele>394.5</ele>
<speed>7.5</speed>
<course>317.4</course>
<desc>Speed 7.5 km/h Distance 7.05 km</desc>
<time>2010-02-28T11:37:00.22</time>
<name>4793</name>
</trkpt>
<trkpt lat="48.935188" lon="8.672510">
<ele>394.5</ele>
<speed>3.8</speed>
<course>307.3</course>
<desc>Speed 3.8 km/h Distance 7.06 km</desc>
<time>2010-02-28T11:37:01.22</time>
<name>4794</name>
</trkpt>
<trkpt lat="48.935195" lon="8.672497">
<ele>394.5</ele>
<speed>4.0</speed>
<course>310.3</course>
<desc>Speed 4.0 km/h Distance 7.06 km</desc>
<time>2010-02-28T11:37:02.22</time>
<name>4795</name>
</trkpt>
<trkpt lat="48.935203" lon="8.672482">
<ele>394.5</ele>
<speed>4.9</speed>
<course>307.0</course>
<desc>Speed 4.9 km/h Distance 7.06 km</desc>
<time>2010-02-28T11:37:03.22</time>
<name>4796</name>
</trkpt>
<trkpt lat="48.935210" lon="8.672468">
<ele>393.5</ele>
<speed>3.7</speed>
<course>307.3</course>
<desc>Speed 3.7 km/h Distance 7.06 km</desc>
<time>2010-02-28T11:37:04.22</time>
<name>4797</name>
</trkpt>
<trkpt lat="48.935220" lon="8.672448">
<ele>393.5</ele>
<speed>5.6</speed>
<course>315.3</course>
<desc>Speed 5.6 km/h Distance 7.06 km</desc>
<time>2010-02-28T11:37:05.22</time>
<name>4798</name>
</trkpt>
<trkpt lat="48.935230" lon="8.672433">
<ele>393.5</ele>
<speed>5.2</speed>
<course>344.0</course>
<desc>Speed 5.2 km/h Distance 7.06 km</desc>
<time>2010-02-28T11:37:06.22</time>
<name>4799</name>
</trkpt>
<trkpt lat="48.935242" lon="8.672428">
<ele>393.0</ele>
<speed>5.3</speed>
<course>320.6</course>
<desc>Speed 5.3 km/h Distance 7.06 km</desc>
<time>2010-02-28T11:37:07.22</time>
<name>4800</name>
</trkpt>
<trkpt lat="48.935255" lon="8.672412">
<ele>393.0</ele>
<speed>5.5</speed>
<course>326.8</course>
<desc>Speed 5.5 km/h Distance 7.07 km</desc>
<time>2010-02-28T11:37:08.22</time>
<name>4801</name>
</trkpt>
<trkpt lat="48.935268" lon="8.672398">
<ele>393.0</ele>
<speed>4.4</speed>
<course>331.8</course>
<desc>Speed 4.4 km/h Distance 7.07 km</desc>
<time>2010-02-28T11:37:09.22</time>
<name>4802</name>
</trkpt>
<trkpt lat="48.935287" lon="8.672383">
<ele>392.5</ele>
<speed>5.4</speed>
<course>326.8</course>
<desc>Speed 5.4 km/h Distance 7.07 km</desc>
<time>2010-02-28T11:37:10.22</time>
<name>4803</name>
</trkpt>
<trkpt lat="48.935305" lon="8.672365">
<ele>392.5</ele>
<speed>5.0</speed>
<course>323.1</course>
<desc>Speed 5.0 km/h Distance 7.07 km</desc>
<time>2010-02-28T11:37:11.22</time>
<name>4804</name>
</trkpt>
<trkpt lat="48.935328" lon="8.672338">
<ele>393.0</ele>
<speed>5.8</speed>
<course>309.7</course>
<desc>Speed 5.8 km/h Distance 7.08 km</desc>
<time>2010-02-28T11:37:12.22</time>
<name>4805</name>
</trkpt>
<trkpt lat="48.935338" lon="8.672320">
<ele>392.5</ele>
<speed>5.0</speed>
<course>320.6</course>
<desc>Speed 5.0 km/h Distance 7.08 km</desc>
<time>2010-02-28T11:37:13.22</time>
<name>4806</name>
</trkpt>
<trkpt lat="48.935352" lon="8.672303">
<ele>392.5</ele>
<speed>5.1</speed>
<course>326.7</course>
<desc>Speed 5.1 km/h Distance 7.08 km</desc>
<time>2010-02-28T11:37:14.22</time>
<name>4807</name>
</trkpt>
<trkpt lat="48.935367" lon="8.672288">
<ele>392.5</ele>
<speed>5.0</speed>
<course>319.6</course>
<desc>Speed 5.0 km/h Distance 7.08 km</desc>
<time>2010-02-28T11:37:15.22</time>
<name>4808</name>
</trkpt>
<trkpt lat="48.935383" lon="8.672267">
<ele>392.5</ele>
<speed>4.9</speed>
<course>316.7</course>
<desc>Speed 4.9 km/h Distance 7.08 km</desc>
<time>2010-02-28T11:37:16.22</time>
<name>4809</name>
</trkpt>
<trkpt lat="48.935395" lon="8.672250">
<ele>392.5</ele>
<speed>6.2</speed>
<course>320.6</course>
<desc>Speed 6.2 km/h Distance 7.09 km</desc>
<time>2010-02-28T11:37:17.22</time>
<name>4810</name>
</trkpt>
<trkpt lat="48.935408" lon="8.672233">
<ele>392.5</ele>
<speed>5.5</speed>
<course>330.0</course>
<desc>Speed 5.5 km/h Distance 7.09 km</desc>
<time>2010-02-28T11:37:18.22</time>
<name>4811</name>
</trkpt>
<trkpt lat="48.935422" lon="8.672222">
<ele>392.0</ele>
<speed>5.2</speed>
<course>323.9</course>
<desc>Speed 5.2 km/h Distance 7.09 km</desc>
<time>2010-02-28T11:37:19.22</time>
<name>4812</name>
</trkpt>
<trkpt lat="48.935437" lon="8.672205">
<ele>392.0</ele>
<speed>5.4</speed>
<course>183.8</course>
<desc>Speed 5.4 km/h Distance 7.09 km</desc>
<time>2010-02-28T11:37:20.22</time>
<name>4813</name>
</trkpt>
<trkpt lat="48.935422" lon="8.672203">
<ele>391.5</ele>
<speed>6.0</speed>
<course>322.8</course>
<desc>Speed 6.0 km/h Distance 7.09 km</desc>
<time>2010-02-28T11:37:21.22</time>
<name>4814</name>
</trkpt>
<trkpt lat="48.935443" lon="8.672178">
<ele>391.5</ele>
<speed>10.7</speed>
<course>322.5</course>
<desc>Speed 10.7 km/h Distance 7.10 km</desc>
<time>2010-02-28T11:37:22.22</time>
<name>4815</name>
</trkpt>
<trkpt lat="48.935453" lon="8.672167">
<ele>391.0</ele>
<speed>6.3</speed>
<course>319.8</course>
<desc>Speed 6.3 km/h Distance 7.10 km</desc>
<time>2010-02-28T11:37:23.22</time>
<name>4816</name>
</trkpt>
<trkpt lat="48.935465" lon="8.672152">
<ele>391.0</ele>
<speed>6.0</speed>
<course>312.5</course>
<desc>Speed 6.0 km/h Distance 7.10 km</desc>
<time>2010-02-28T11:37:24.22</time>
<name>4817</name>
</trkpt>
<trkpt lat="48.935475" lon="8.672135">
<ele>391.0</ele>
<speed>5.5</speed>
<course>319.8</course>
<desc>Speed 5.5 km/h Distance 7.10 km</desc>
<time>2010-02-28T11:37:25.22</time>
<name>4818</name>
</trkpt>
<trkpt lat="48.935487" lon="8.672120">
<ele>391.0</ele>
<speed>5.2</speed>
<course>319.8</course>
<desc>Speed 5.2 km/h Distance 7.10 km</desc>
<time>2010-02-28T11:37:26.22</time>
<name>4819</name>
</trkpt>
<trkpt lat="48.935498" lon="8.672105">
<ele>390.5</ele>
<speed>4.6</speed>
<course>326.7</course>
<desc>Speed 4.6 km/h Distance 7.10 km</desc>
<time>2010-02-28T11:37:27.22</time>
<name>4820</name>
</trkpt>
<trkpt lat="48.935512" lon="8.672092">
<ele>390.5</ele>
<speed>4.7</speed>
<course>333.0</course>
<desc>Speed 4.7 km/h Distance 7.11 km</desc>
<time>2010-02-28T11:37:28.22</time>
<name>4821</name>
</trkpt>
<trkpt lat="48.935527" lon="8.672080">
<ele>390.5</ele>
<speed>4.1</speed>
<course>323.1</course>
<desc>Speed 4.1 km/h Distance 7.11 km</desc>
<time>2010-02-28T11:37:29.22</time>
<name>4822</name>
</trkpt>
<trkpt lat="48.935538" lon="8.672067">
<ele>390.5</ele>
<speed>5.4</speed>
<course>337.9</course>
<desc>Speed 5.4 km/h Distance 7.11 km</desc>
<time>2010-02-28T11:37:30.22</time>
<name>4823</name>
</trkpt>
<trkpt lat="48.935552" lon="8.672058">
<ele>390.5</ele>
<speed>4.8</speed>
<course>311.7</course>
<desc>Speed 4.8 km/h Distance 7.11 km</desc>
<time>2010-02-28T11:37:31.22</time>
<name>4824</name>
</trkpt>
<trkpt lat="48.935563" lon="8.672038">
<ele>390.0</ele>
<speed>5.8</speed>
<course>321.7</course>
<desc>Speed 5.8 km/h Distance 7.11 km</desc>
<time>2010-02-28T11:37:32.22</time>
<name>4825</name>
</trkpt>
<trkpt lat="48.935580" lon="8.672018">
<ele>390.0</ele>
<speed>6.1</speed>
<course>317.4</course>
<desc>Speed 6.1 km/h Distance 7.12 km</desc>
<time>2010-02-28T11:37:33.22</time>
<name>4826</name>
</trkpt>
<trkpt lat="48.935597" lon="8.671995">
<ele>390.0</ele>
<speed>6.4</speed>
<course>333.2</course>
<desc>Speed 6.4 km/h Distance 7.12 km</desc>
<time>2010-02-28T11:37:34.22</time>
<name>4827</name>
</trkpt>
<trkpt lat="48.935618" lon="8.671978">
<ele>390.0</ele>
<speed>5.3</speed>
<course>326.6</course>
<desc>Speed 5.3 km/h Distance 7.12 km</desc>
<time>2010-02-28T11:37:35.22</time>
<name>4828</name>
</trkpt>
<trkpt lat="48.935630" lon="8.671967">
<ele>390.0</ele>
<speed>5.2</speed>
<course>310.3</course>
<desc>Speed 5.2 km/h Distance 7.12 km</desc>
<time>2010-02-28T11:37:36.22</time>
<name>4829</name>
</trkpt>
<trkpt lat="48.935638" lon="8.671952">
<ele>390.0</ele>
<speed>4.4</speed>
<course>315.5</course>
<desc>Speed 4.4 km/h Distance 7.12 km</desc>
<time>2010-02-28T11:37:37.22</time>
<name>4830</name>
</trkpt>
<trkpt lat="48.935648" lon="8.671937">
<ele>390.5</ele>
<speed>3.9</speed>
<course>296.9</course>
<desc>Speed 3.9 km/h Distance 7.13 km</desc>
<time>2010-02-28T11:37:38.22</time>
<name>4831</name>
</trkpt>
<trkpt lat="48.935655" lon="8.671917">
<ele>390.5</ele>
<speed>5.3</speed>
<course>339.4</course>
<desc>Speed 5.3 km/h Distance 7.13 km</desc>
<time>2010-02-28T11:37:39.22</time>
<name>4832</name>
</trkpt>
<trkpt lat="48.935667" lon="8.671910">
<ele>390.0</ele>
<speed>5.1</speed>
<course>337.5</course>
<desc>Speed 5.1 km/h Distance 7.13 km</desc>
<time>2010-02-28T11:37:40.22</time>
<name>4833</name>
</trkpt>
<trkpt lat="48.935685" lon="8.671898">
<ele>390.0</ele>
<speed>5.3</speed>
<course>324.2</course>
<desc>Speed 5.3 km/h Distance 7.13 km</desc>
<time>2010-02-28T11:37:41.22</time>
<name>4834</name>
</trkpt>
<trkpt lat="48.935702" lon="8.671880">
<ele>390.0</ele>
<speed>4.9</speed>
<course>319.5</course>
<desc>Speed 4.9 km/h Distance 7.13 km</desc>
<time>2010-02-28T11:37:42.22</time>
<name>4835</name>
</trkpt>
<trkpt lat="48.935718" lon="8.671858">
<ele>389.5</ele>
<speed>5.4</speed>
<course>331.3</course>
<desc>Speed 5.4 km/h Distance 7.14 km</desc>
<time>2010-02-28T11:37:43.22</time>
<name>4836</name>
</trkpt>
<trkpt lat="48.935738" lon="8.671842">
<ele>389.5</ele>
<speed>5.4</speed>
<course>348.8</course>
<desc>Speed 5.4 km/h Distance 7.14 km</desc>
<time>2010-02-28T11:37:44.22</time>
<name>4837</name>
</trkpt>
<trkpt lat="48.935755" lon="8.671837">
<ele>389.5</ele>
<speed>5.5</speed>
<course>343.4</course>
<desc>Speed 5.5 km/h Distance 7.14 km</desc>
<time>2010-02-28T11:37:45.22</time>
<name>4838</name>
</trkpt>
<trkpt lat="48.935773" lon="8.671828">
<ele>389.0</ele>
<speed>4.9</speed>
<course>347.4</course>
<desc>Speed 4.9 km/h Distance 7.14 km</desc>
<time>2010-02-28T11:37:46.22</time>
<name>4839</name>
</trkpt>
<trkpt lat="48.935793" lon="8.671822">
<ele>389.0</ele>
<speed>5.3</speed>
<course>331.3</course>
<desc>Speed 5.3 km/h Distance 7.14 km</desc>
<time>2010-02-28T11:37:47.22</time>
<name>4840</name>
</trkpt>
<trkpt lat="48.935813" lon="8.671805">
<ele>389.0</ele>
<speed>5.7</speed>
<course>333.7</course>
<desc>Speed 5.7 km/h Distance 7.15 km</desc>
<time>2010-02-28T11:37:48.22</time>
<name>4841</name>
</trkpt>
<trkpt lat="48.935833" lon="8.671790">
<ele>389.5</ele>
<speed>5.8</speed>
<course>323.8</course>
<desc>Speed 5.8 km/h Distance 7.15 km</desc>
<time>2010-02-28T11:37:49.22</time>
<name>4842</name>
</trkpt>
<trkpt lat="48.935848" lon="8.671773">
<ele>389.5</ele>
<speed>5.9</speed>
<course>320.6</course>
<desc>Speed 5.9 km/h Distance 7.15 km</desc>
<time>2010-02-28T11:37:50.22</time>
<name>4843</name>
</trkpt>
<trkpt lat="48.935862" lon="8.671757">
<ele>389.0</ele>
<speed>5.7</speed>
<course>321.2</course>
<desc>Speed 5.7 km/h Distance 7.15 km</desc>
<time>2010-02-28T11:37:51.22</time>
<name>4844</name>
</trkpt>
<trkpt lat="48.935877" lon="8.671738">
<ele>389.0</ele>
<speed>5.9</speed>
<course>321.2</course>
<desc>Speed 5.9 km/h Distance 7.16 km</desc>
<time>2010-02-28T11:37:52.22</time>
<name>4845</name>
</trkpt>
<trkpt lat="48.935892" lon="8.671720">
<ele>389.0</ele>
<speed>5.7</speed>
<course>321.2</course>
<desc>Speed 5.7 km/h Distance 7.16 km</desc>
<time>2010-02-28T11:37:53.22</time>
<name>4846</name>
</trkpt>
<trkpt lat="48.935907" lon="8.671702">
<ele>389.0</ele>
<speed>5.4</speed>
<course>326.7</course>
<desc>Speed 5.4 km/h Distance 7.16 km</desc>
<time>2010-02-28T11:37:54.22</time>
<name>4847</name>
</trkpt>
<trkpt lat="48.935922" lon="8.671687">
<ele>389.0</ele>
<speed>5.6</speed>
<course>319.8</course>
<desc>Speed 5.6 km/h Distance 7.16 km</desc>
<time>2010-02-28T11:37:55.22</time>
<name>4848</name>
</trkpt>
<trkpt lat="48.935933" lon="8.671672">
<ele>389.0</ele>
<speed>5.9</speed>
<course>319.8</course>
<desc>Speed 5.9 km/h Distance 7.16 km</desc>
<time>2010-02-28T11:37:56.22</time>
<name>4849</name>
</trkpt>
<trkpt lat="48.935945" lon="8.671657">
<ele>389.0</ele>
<speed>5.7</speed>
<course>323.4</course>
<desc>Speed 5.7 km/h Distance 7.16 km</desc>
<time>2010-02-28T11:37:57.22</time>
<name>4850</name>
</trkpt>
<trkpt lat="48.935958" lon="8.671642">
<ele>389.0</ele>
<speed>6.0</speed>
<course>318.7</course>
<desc>Speed 6.0 km/h Distance 7.17 km</desc>
<time>2010-02-28T11:37:58.22</time>
<name>4851</name>
</trkpt>
<trkpt lat="48.935968" lon="8.671628">
<ele>389.0</ele>
<speed>5.8</speed>
<course>316.8</course>
<desc>Speed 5.8 km/h Distance 7.17 km</desc>
<time>2010-02-28T11:37:59.22</time>
<name>4852</name>
</trkpt>
<trkpt lat="48.935980" lon="8.671612">
<ele>389.0</ele>
<speed>5.7</speed>
<course>311.4</course>
<desc>Speed 5.7 km/h Distance 7.17 km</desc>
<time>2010-02-28T11:38:00.22</time>
<name>4853</name>
</trkpt>
<trkpt lat="48.935998" lon="8.671580">
<ele>390.5</ele>
<speed>10.8</speed>
<course>314.1</course>
<desc>Speed 10.8 km/h Distance 7.17 km</desc>
<time>2010-02-28T11:38:01.22</time>
<name>4854</name>
</trkpt>
<trkpt lat="48.936010" lon="8.671562">
<ele>390.5</ele>
<speed>5.6</speed>
<course>320.6</course>
<desc>Speed 5.6 km/h Distance 7.17 km</desc>
<time>2010-02-28T11:38:02.22</time>
<name>4855</name>
</trkpt>
<trkpt lat="48.936023" lon="8.671545">
<ele>390.5</ele>
<speed>5.8</speed>
<course>321.7</course>
<desc>Speed 5.8 km/h Distance 7.18 km</desc>
<time>2010-02-28T11:38:03.22</time>
<name>4856</name>
</trkpt>
<trkpt lat="48.936040" lon="8.671525">
<ele>390.0</ele>
<speed>6.4</speed>
<course>323.9</course>
<desc>Speed 6.4 km/h Distance 7.18 km</desc>
<time>2010-02-28T11:38:04.22</time>
<name>4857</name>
</trkpt>
<trkpt lat="48.936055" lon="8.671508">
<ele>390.0</ele>
<speed>5.7</speed>
<course>321.7</course>
<desc>Speed 5.7 km/h Distance 7.18 km</desc>
<time>2010-02-28T11:38:05.22</time>
<name>4858</name>
</trkpt>
<trkpt lat="48.936072" lon="8.671488">
<ele>390.0</ele>
<speed>5.8</speed>
<course>323.4</course>
<desc>Speed 5.8 km/h Distance 7.18 km</desc>
<time>2010-02-28T11:38:06.22</time>
<name>4859</name>
</trkpt>
<trkpt lat="48.936085" lon="8.671473">
<ele>389.5</ele>
<speed>6.0</speed>
<course>331.1</course>
<desc>Speed 6.0 km/h Distance 7.19 km</desc>
<time>2010-02-28T11:38:07.22</time>
<name>4860</name>
</trkpt>
<trkpt lat="48.936095" lon="8.671465">
<ele>389.5</ele>
<speed>3.3</speed>
<course>326.7</course>
<desc>Speed 3.3 km/h Distance 7.19 km</desc>
<time>2010-02-28T11:38:08.22</time>
<name>4861</name>
</trkpt>
<trkpt lat="48.936108" lon="8.671452">
<ele>389.0</ele>
<speed>4.8</speed>
<course>333.1</course>
<desc>Speed 4.8 km/h Distance 7.19 km</desc>
<time>2010-02-28T11:38:09.22</time>
<name>4862</name>
</trkpt>
<trkpt lat="48.936123" lon="8.671440">
<ele>389.0</ele>
<speed>5.3</speed>
<course>298.6</course>
<desc>Speed 5.3 km/h Distance 7.19 km</desc>
<time>2010-02-28T11:38:10.22</time>
<name>4863</name>
</trkpt>
<trkpt lat="48.936132" lon="8.671417">
<ele>388.5</ele>
<speed>7.4</speed>
<course>313.6</course>
<desc>Speed 7.4 km/h Distance 7.19 km</desc>
<time>2010-02-28T11:38:11.22</time>
<name>4864</name>
</trkpt>
<trkpt lat="48.936140" lon="8.671403">
<ele>388.0</ele>
<speed>5.4</speed>
<course>317.4</course>
<desc>Speed 5.4 km/h Distance 7.19 km</desc>
<time>2010-02-28T11:38:12.22</time>
<name>4865</name>
</trkpt>
<trkpt lat="48.936148" lon="8.671392">
<ele>387.5</ele>
<speed>5.3</speed>
<course>270.0</course>
<desc>Speed 5.3 km/h Distance 7.19 km</desc>
<time>2010-02-28T11:38:13.22</time>
<name>4866</name>
</trkpt>
<trkpt lat="48.936148" lon="8.671383">
<ele>386.0</ele>
<speed>1.8</speed>
<course>313.6</course>
<desc>Speed 1.8 km/h Distance 7.20 km</desc>
<time>2010-02-28T11:38:14.22</time>
<name>4867</name>
</trkpt>
<trkpt lat="48.936157" lon="8.671370">
<ele>386.0</ele>
<speed>4.8</speed>
<course>319.8</course>
<desc>Speed 4.8 km/h Distance 7.20 km</desc>
<time>2010-02-28T11:38:15.22</time>
<name>4868</name>
</trkpt>
<trkpt lat="48.936168" lon="8.671355">
<ele>385.5</ele>
<speed>6.1</speed>
<course>330.2</course>
<desc>Speed 6.1 km/h Distance 7.20 km</desc>
<time>2010-02-28T11:38:16.22</time>
<name>4869</name>
</trkpt>
<trkpt lat="48.936182" lon="8.671343">
<ele>385.5</ele>
<speed>5.3</speed>
<course>326.7</course>
<desc>Speed 5.3 km/h Distance 7.20 km</desc>
<time>2010-02-28T11:38:17.22</time>
<name>4870</name>
</trkpt>
<trkpt lat="48.936193" lon="8.671332">
<ele>385.5</ele>
<speed>5.3</speed>
<course>333.0</course>
<desc>Speed 5.3 km/h Distance 7.20 km</desc>
<time>2010-02-28T11:38:18.22</time>
<name>4871</name>
</trkpt>
<trkpt lat="48.936208" lon="8.671320">
<ele>385.5</ele>
<speed>5.1</speed>
<course>341.8</course>
<desc>Speed 5.1 km/h Distance 7.20 km</desc>
<time>2010-02-28T11:38:19.22</time>
<name>4872</name>
</trkpt>
<trkpt lat="48.936218" lon="8.671315">
<ele>385.0</ele>
<speed>4.9</speed>
<course>344.0</course>
<desc>Speed 4.9 km/h Distance 7.20 km</desc>
<time>2010-02-28T11:38:20.22</time>
<name>4873</name>
</trkpt>
<trkpt lat="48.936230" lon="8.671310">
<ele>384.5</ele>
<speed>5.0</speed>
<course>117.0</course>
<desc>Speed 5.0 km/h Distance 7.21 km</desc>
<time>2010-02-28T11:38:21.22</time>
<name>4874</name>
</trkpt>
<trkpt lat="48.936227" lon="8.671320">
<ele>384.0</ele>
<speed>1.8</speed>
<course>322.5</course>
<desc>Speed 1.8 km/h Distance 7.21 km</desc>
<time>2010-02-28T11:38:22.22</time>
<name>4875</name>
</trkpt>
<trkpt lat="48.936247" lon="8.671297">
<ele>384.0</ele>
<speed>1.6</speed>
<course>318.7</course>
<desc>Speed 1.6 km/h Distance 7.21 km</desc>
<time>2010-02-28T11:38:24.22</time>
<name>4876</name>
</trkpt>
<trkpt lat="48.936257" lon="8.671283">
<ele>384.0</ele>
<speed>5.0</speed>
<course>326.6</course>
<desc>Speed 5.0 km/h Distance 7.21 km</desc>
<time>2010-02-28T11:38:25.22</time>
<name>4877</name>
</trkpt>
<trkpt lat="48.936267" lon="8.671273">
<ele>383.5</ele>
<speed>4.7</speed>
<course>329.9</course>
<desc>Speed 4.7 km/h Distance 7.21 km</desc>
<time>2010-02-28T11:38:26.22</time>
<name>4878</name>
</trkpt>
<trkpt lat="48.936280" lon="8.671262">
<ele>383.5</ele>
<speed>4.7</speed>
<course>336.2</course>
<desc>Speed 4.7 km/h Distance 7.21 km</desc>
<time>2010-02-28T11:38:27.22</time>
<name>4879</name>
</trkpt>
<trkpt lat="48.936290" lon="8.671255">
<ele>383.0</ele>
<speed>3.6</speed>
<course>355.0</course>
<desc>Speed 3.6 km/h Distance 7.22 km</desc>
<time>2010-02-28T11:38:28.22</time>
<name>4880</name>
</trkpt>
<trkpt lat="48.936298" lon="8.671253">
<ele>383.0</ele>
<speed>3.5</speed>
<course>322.8</course>
<desc>Speed 3.5 km/h Distance 7.22 km</desc>
<time>2010-02-28T11:38:29.22</time>
<name>4881</name>
</trkpt>
<trkpt lat="48.936300" lon="8.671252">
<ele>381.5</ele>
<speed>1.4</speed>
<course>326.7</course>
<desc>Speed 1.4 km/h Distance 7.22 km</desc>
<time>2010-02-28T11:38:30.22</time>
<name>4882</name>
</trkpt>
<trkpt lat="48.936315" lon="8.671237">
<ele>381.5</ele>
<speed>5.0</speed>
<course>329.7</course>
<desc>Speed 5.0 km/h Distance 7.22 km</desc>
<time>2010-02-28T11:38:31.22</time>
<name>4883</name>
</trkpt>
<trkpt lat="48.936330" lon="8.671223">
<ele>382.0</ele>
<speed>4.4</speed>
<course>323.8</course>
<desc>Speed 4.4 km/h Distance 7.22 km</desc>
<time>2010-02-28T11:38:32.22</time>
<name>4884</name>
</trkpt>
<trkpt lat="48.936345" lon="8.671207">
<ele>382.5</ele>
<speed>4.6</speed>
<course>329.7</course>
<desc>Speed 4.6 km/h Distance 7.22 km</desc>
<time>2010-02-28T11:38:33.22</time>
<name>4885</name>
</trkpt>
<trkpt lat="48.936360" lon="8.671193">
<ele>383.0</ele>
<speed>4.4</speed>
<course>318.8</course>
<desc>Speed 4.4 km/h Distance 7.22 km</desc>
<time>2010-02-28T11:38:34.22</time>
<name>4886</name>
</trkpt>
<trkpt lat="48.936370" lon="8.671180">
<ele>382.5</ele>
<speed>4.9</speed>
<course>323.1</course>
<desc>Speed 4.9 km/h Distance 7.23 km</desc>
<time>2010-02-28T11:38:35.22</time>
<name>4887</name>
</trkpt>
<trkpt lat="48.936382" lon="8.671167">
<ele>383.0</ele>
<speed>4.8</speed>
<course>317.4</course>
<desc>Speed 4.8 km/h Distance 7.23 km</desc>
<time>2010-02-28T11:38:36.22</time>
<name>4888</name>
</trkpt>
<trkpt lat="48.936390" lon="8.671155">
<ele>382.5</ele>
<speed>4.2</speed>
<course>326.7</course>
<desc>Speed 4.2 km/h Distance 7.23 km</desc>
<time>2010-02-28T11:38:37.22</time>
<name>4889</name>
</trkpt>
<trkpt lat="48.936402" lon="8.671143">
<ele>382.5</ele>
<speed>4.7</speed>
<course>330.6</course>
<desc>Speed 4.7 km/h Distance 7.23 km</desc>
<time>2010-02-28T11:38:38.22</time>
<name>4890</name>
</trkpt>
<trkpt lat="48.936413" lon="8.671133">
<ele>382.5</ele>
<speed>5.0</speed>
<course>321.9</course>
<desc>Speed 5.0 km/h Distance 7.23 km</desc>
<time>2010-02-28T11:38:39.22</time>
<name>4891</name>
</trkpt>
<trkpt lat="48.936422" lon="8.671123">
<ele>382.5</ele>
<speed>4.2</speed>
<course>322.5</course>
<desc>Speed 4.2 km/h Distance 7.23 km</desc>
<time>2010-02-28T11:38:40.22</time>
<name>4892</name>
</trkpt>
<trkpt lat="48.936432" lon="8.671112">
<ele>382.0</ele>
<speed>4.2</speed>
<course>327.7</course>
<desc>Speed 4.2 km/h Distance 7.23 km</desc>
<time>2010-02-28T11:38:41.22</time>
<name>4893</name>
</trkpt>
<trkpt lat="48.936437" lon="8.671107">
<ele>381.5</ele>
<speed>2.2</speed>
<course>312.2</course>
<desc>Speed 2.2 km/h Distance 7.24 km</desc>
<time>2010-02-28T11:38:42.22</time>
<name>4894</name>
</trkpt>
<trkpt lat="48.936442" lon="8.671098">
<ele>381.0</ele>
<speed>2.3</speed>
<course>310.3</course>
<desc>Speed 2.3 km/h Distance 7.24 km</desc>
<time>2010-02-28T11:38:43.22</time>
<name>4895</name>
</trkpt>
<trkpt lat="48.936450" lon="8.671083">
<ele>381.0</ele>
<speed>4.4</speed>
<course>320.6</course>
<desc>Speed 4.4 km/h Distance 7.24 km</desc>
<time>2010-02-28T11:38:44.22</time>
<name>4896</name>
</trkpt>
<trkpt lat="48.936463" lon="8.671067">
<ele>381.0</ele>
<speed>5.0</speed>
<course>326.7</course>
<desc>Speed 5.0 km/h Distance 7.24 km</desc>
<time>2010-02-28T11:38:45.22</time>
<name>4897</name>
</trkpt>
<trkpt lat="48.936478" lon="8.671052">
<ele>381.0</ele>
<speed>6.3</speed>
<course>326.7</course>
<desc>Speed 6.3 km/h Distance 7.24 km</desc>
<time>2010-02-28T11:38:46.22</time>
<name>4898</name>
</trkpt>
<trkpt lat="48.936492" lon="8.671038">
<ele>381.0</ele>
<speed>5.2</speed>
<course>311.6</course>
<desc>Speed 5.2 km/h Distance 7.24 km</desc>
<time>2010-02-28T11:38:47.22</time>
<name>4899</name>
</trkpt>
<trkpt lat="48.936503" lon="8.671018">
<ele>380.5</ele>
<speed>5.5</speed>
<course>331.8</course>
<desc>Speed 5.5 km/h Distance 7.25 km</desc>
<time>2010-02-28T11:38:48.22</time>
<name>4900</name>
</trkpt>
<trkpt lat="48.936522" lon="8.671003">
<ele>380.5</ele>
<speed>6.6</speed>
<course>326.8</course>
<desc>Speed 6.6 km/h Distance 7.25 km</desc>
<time>2010-02-28T11:38:49.22</time>
<name>4901</name>
</trkpt>
<trkpt lat="48.936527" lon="8.670998">
<ele>380.0</ele>
<speed>0.5</speed>
<course>326.3</course>
<desc>Speed 0.5 km/h Distance 7.25 km</desc>
<time>2010-02-28T11:38:50.22</time>
<name>4902</name>
</trkpt>
<trkpt lat="48.936530" lon="8.670995">
<ele>380.0</ele>
<speed>0.5</speed>
<course>315.4</course>
<desc>Speed 0.5 km/h Distance 7.25 km</desc>
<time>2010-02-28T11:38:51.22</time>
<name>4903</name>
</trkpt>
<trkpt lat="48.936540" lon="8.670980">
<ele>380.0</ele>
<speed>4.9</speed>
<course>322.5</course>
<desc>Speed 4.9 km/h Distance 7.25 km</desc>
<time>2010-02-28T11:38:52.22</time>
<name>4904</name>
</trkpt>
<trkpt lat="48.936550" lon="8.670968">
<ele>380.0</ele>
<speed>5.1</speed>
<course>315.5</course>
<desc>Speed 5.1 km/h Distance 7.25 km</desc>
<time>2010-02-28T11:38:53.22</time>
<name>4905</name>
</trkpt>
<trkpt lat="48.936557" lon="8.670958">
<ele>379.5</ele>
<speed>3.7</speed>
<course>326.8</course>
<desc>Speed 3.7 km/h Distance 7.25 km</desc>
<time>2010-02-28T11:38:54.22</time>
<name>4906</name>
</trkpt>
<trkpt lat="48.936567" lon="8.670948">
<ele>379.0</ele>
<speed>4.5</speed>
<course>320.6</course>
<desc>Speed 4.5 km/h Distance 7.25 km</desc>
<time>2010-02-28T11:38:55.22</time>
<name>4907</name>
</trkpt>
<trkpt lat="48.936573" lon="8.670940">
<ele>378.5</ele>
<speed>3.2</speed>
<course>307.4</course>
<desc>Speed 3.2 km/h Distance 7.26 km</desc>
<time>2010-02-28T11:38:56.22</time>
<name>4908</name>
</trkpt>
<trkpt lat="48.936578" lon="8.670930">
<ele>378.0</ele>
<speed>3.4</speed>
<course>304.0</course>
<desc>Speed 3.4 km/h Distance 7.26 km</desc>
<time>2010-02-28T11:38:57.22</time>
<name>4909</name>
</trkpt>
<trkpt lat="48.936585" lon="8.670915">
<ele>378.0</ele>
<speed>5.4</speed>
<course>286.9</course>
<desc>Speed 5.4 km/h Distance 7.26 km</desc>
<time>2010-02-28T11:38:58.22</time>
<name>4910</name>
</trkpt>
<trkpt lat="48.936588" lon="8.670898">
<ele>378.0</ele>
<speed>3.7</speed>
<course>315.5</course>
<desc>Speed 3.7 km/h Distance 7.26 km</desc>
<time>2010-02-28T11:38:59.22</time>
<name>4911</name>
</trkpt>
<trkpt lat="48.936602" lon="8.670878">
<ele>378.0</ele>
<speed>4.2</speed>
<course>326.7</course>
<desc>Speed 4.2 km/h Distance 7.26 km</desc>
<time>2010-02-28T11:39:00.22</time>
<name>4912</name>
</trkpt>
<trkpt lat="48.936618" lon="8.670862">
<ele>378.0</ele>
<speed>5.0</speed>
<course>322.1</course>
<desc>Speed 5.0 km/h Distance 7.26 km</desc>
<time>2010-02-28T11:39:01.22</time>
<name>4913</name>
</trkpt>
<trkpt lat="48.936637" lon="8.670840">
<ele>378.0</ele>
<speed>3.8</speed>
<course>316.5</course>
<desc>Speed 3.8 km/h Distance 7.27 km</desc>
<time>2010-02-28T11:39:02.22</time>
<name>4914</name>
</trkpt>
<trkpt lat="48.936652" lon="8.670818">
<ele>378.5</ele>
<speed>5.8</speed>
<course>324.7</course>
<desc>Speed 5.8 km/h Distance 7.27 km</desc>
<time>2010-02-28T11:39:03.22</time>
<name>4915</name>
</trkpt>
<trkpt lat="48.936673" lon="8.670795">
<ele>379.0</ele>
<speed>4.1</speed>
<course>317.8</course>
<desc>Speed 4.1 km/h Distance 7.27 km</desc>
<time>2010-02-28T11:39:04.22</time>
<name>4916</name>
</trkpt>
<trkpt lat="48.936687" lon="8.670777">
<ele>379.5</ele>
<speed>4.1</speed>
<course>285.9</course>
<desc>Speed 4.1 km/h Distance 7.27 km</desc>
<time>2010-02-28T11:39:05.22</time>
<name>4917</name>
</trkpt>
<trkpt lat="48.936692" lon="8.670750">
<ele>380.0</ele>
<speed>6.0</speed>
<course>314.1</course>
<desc>Speed 6.0 km/h Distance 7.27 km</desc>
<time>2010-02-28T11:39:06.22</time>
<name>4918</name>
</trkpt>
<trkpt lat="48.936703" lon="8.670732">
<ele>380.0</ele>
<speed>4.6</speed>
<course>319.3</course>
<desc>Speed 4.6 km/h Distance 7.28 km</desc>
<time>2010-02-28T11:39:07.22</time>
<name>4919</name>
</trkpt>
<trkpt lat="48.936747" lon="8.670675">
<ele>381.5</ele>
<speed>5.0</speed>
<course>320.9</course>
<desc>Speed 5.0 km/h Distance 7.28 km</desc>
<time>2010-02-28T11:39:09.22</time>
<name>4920</name>
</trkpt>
<trkpt lat="48.936782" lon="8.670632">
<ele>382.0</ele>
<speed>5.3</speed>
<course>320.6</course>
<desc>Speed 5.3 km/h Distance 7.29 km</desc>
<time>2010-02-28T11:39:11.22</time>
<name>4921</name>
</trkpt>
<trkpt lat="48.936802" lon="8.670607">
<ele>383.0</ele>
<speed>4.5</speed>
<course>323.1</course>
<desc>Speed 4.5 km/h Distance 7.29 km</desc>
<time>2010-02-28T11:39:12.22</time>
<name>4922</name>
</trkpt>
<trkpt lat="48.936813" lon="8.670593">
<ele>382.5</ele>
<speed>4.3</speed>
<course>330.2</course>
<desc>Speed 4.3 km/h Distance 7.29 km</desc>
<time>2010-02-28T11:39:13.22</time>
<name>4923</name>
</trkpt>
<trkpt lat="48.936827" lon="8.670582">
<ele>382.5</ele>
<speed>4.6</speed>
<course>326.6</course>
<desc>Speed 4.6 km/h Distance 7.29 km</desc>
<time>2010-02-28T11:39:14.22</time>
<name>4924</name>
</trkpt>
<trkpt lat="48.936840" lon="8.670568">
<ele>382.5</ele>
<speed>4.3</speed>
<course>319.8</course>
<desc>Speed 4.3 km/h Distance 7.30 km</desc>
<time>2010-02-28T11:39:15.22</time>
<name>4925</name>
</trkpt>
<trkpt lat="48.936852" lon="8.670553">
<ele>382.0</ele>
<speed>5.0</speed>
<course>309.7</course>
<desc>Speed 5.0 km/h Distance 7.30 km</desc>
<time>2010-02-28T11:39:16.22</time>
<name>4926</name>
</trkpt>
<trkpt lat="48.936862" lon="8.670535">
<ele>382.0</ele>
<speed>5.9</speed>
<course>323.1</course>
<desc>Speed 5.9 km/h Distance 7.30 km</desc>
<time>2010-02-28T11:39:17.22</time>
<name>4927</name>
</trkpt>
<trkpt lat="48.936873" lon="8.670522">
<ele>382.0</ele>
<speed>5.3</speed>
<course>323.1</course>
<desc>Speed 5.3 km/h Distance 7.30 km</desc>
<time>2010-02-28T11:39:18.22</time>
<name>4928</name>
</trkpt>
<trkpt lat="48.936885" lon="8.670508">
<ele>381.5</ele>
<speed>5.0</speed>
<course>320.6</course>
<desc>Speed 5.0 km/h Distance 7.30 km</desc>
<time>2010-02-28T11:39:19.22</time>
<name>4929</name>
</trkpt>
<trkpt lat="48.936898" lon="8.670492">
<ele>381.0</ele>
<speed>5.4</speed>
<course>336.3</course>
<desc>Speed 5.4 km/h Distance 7.30 km</desc>
<time>2010-02-28T11:39:20.22</time>
<name>4930</name>
</trkpt>
<trkpt lat="48.936913" lon="8.670482">
<ele>380.0</ele>
<speed>5.2</speed>
<course>318.6</course>
<desc>Speed 5.2 km/h Distance 7.31 km</desc>
<time>2010-02-28T11:39:21.22</time>
<name>4931</name>
</trkpt>
<trkpt lat="48.936923" lon="8.670468">
<ele>379.5</ele>
<speed>5.3</speed>
<course>341.6</course>
<desc>Speed 5.3 km/h Distance 7.31 km</desc>
<time>2010-02-28T11:39:22.22</time>
<name>4932</name>
</trkpt>
<trkpt lat="48.936937" lon="8.670462">
<ele>379.0</ele>
<speed>4.8</speed>
<course>313.6</course>
<desc>Speed 4.8 km/h Distance 7.31 km</desc>
<time>2010-02-28T11:39:23.22</time>
<name>4933</name>
</trkpt>
<trkpt lat="48.936945" lon="8.670448">
<ele>379.0</ele>
<speed>4.5</speed>
<course>317.4</course>
<desc>Speed 4.5 km/h Distance 7.31 km</desc>
<time>2010-02-28T11:39:24.22</time>
<name>4934</name>
</trkpt>
<trkpt lat="48.936953" lon="8.670437">
<ele>379.0</ele>
<speed>4.2</speed>
<course>312.4</course>
<desc>Speed 4.2 km/h Distance 7.31 km</desc>
<time>2010-02-28T11:39:25.22</time>
<name>4935</name>
</trkpt>
<trkpt lat="48.936963" lon="8.670420">
<ele>378.5</ele>
<speed>5.1</speed>
<course>286.9</course>
<desc>Speed 5.1 km/h Distance 7.31 km</desc>
<time>2010-02-28T11:39:26.22</time>
<name>4936</name>
</trkpt>
<trkpt lat="48.936967" lon="8.670403">
<ele>379.5</ele>
<speed>4.4</speed>
<course>318.8</course>
<desc>Speed 4.4 km/h Distance 7.31 km</desc>
<time>2010-02-28T11:39:27.22</time>
<name>4937</name>
</trkpt>
<trkpt lat="48.936977" lon="8.670390">
<ele>379.5</ele>
<speed>5.4</speed>
<course>299.0</course>
<desc>Speed 5.4 km/h Distance 7.32 km</desc>
<time>2010-02-28T11:39:28.22</time>
<name>4938</name>
</trkpt>
<trkpt lat="48.936983" lon="8.670372">
<ele>380.0</ele>
<speed>4.9</speed>
<course>310.2</course>
<desc>Speed 4.9 km/h Distance 7.32 km</desc>
<time>2010-02-28T11:39:29.22</time>
<name>4939</name>
</trkpt>
<trkpt lat="48.936992" lon="8.670357">
<ele>380.0</ele>
<speed>4.9</speed>
<course>330.6</course>
<desc>Speed 4.9 km/h Distance 7.32 km</desc>
<time>2010-02-28T11:39:30.22</time>
<name>4940</name>
</trkpt>
<trkpt lat="48.937003" lon="8.670347">
<ele>380.0</ele>
<speed>5.0</speed>
<course>307.3</course>
<desc>Speed 5.0 km/h Distance 7.32 km</desc>
<time>2010-02-28T11:39:31.22</time>
<name>4941</name>
</trkpt>
<trkpt lat="48.937012" lon="8.670330">
<ele>380.0</ele>
<speed>5.4</speed>
<course>326.8</course>
<desc>Speed 5.4 km/h Distance 7.32 km</desc>
<time>2010-02-28T11:39:32.22</time>
<name>4942</name>
</trkpt>
<trkpt lat="48.937022" lon="8.670320">
<ele>380.0</ele>
<speed>4.8</speed>
<course>322.7</course>
<desc>Speed 4.8 km/h Distance 7.32 km</desc>
<time>2010-02-28T11:39:33.22</time>
<name>4943</name>
</trkpt>
<trkpt lat="48.937032" lon="8.670308">
<ele>380.0</ele>
<speed>4.4</speed>
<course>336.2</course>
<desc>Speed 4.4 km/h Distance 7.33 km</desc>
<time>2010-02-28T11:39:34.22</time>
<name>4944</name>
</trkpt>
<trkpt lat="48.937042" lon="8.670302">
<ele>380.0</ele>
<speed>4.8</speed>
<course>319.8</course>
<desc>Speed 4.8 km/h Distance 7.33 km</desc>
<time>2010-02-28T11:39:35.22</time>
<name>4945</name>
</trkpt>
<trkpt lat="48.937053" lon="8.670287">
<ele>380.0</ele>
<speed>4.6</speed>
<course>326.6</course>
<desc>Speed 4.6 km/h Distance 7.33 km</desc>
<time>2010-02-28T11:39:36.22</time>
<name>4946</name>
</trkpt>
<trkpt lat="48.937067" lon="8.670273">
<ele>379.5</ele>
<speed>5.8</speed>
<course>326.7</course>
<desc>Speed 5.8 km/h Distance 7.33 km</desc>
<time>2010-02-28T11:39:37.22</time>
<name>4947</name>
</trkpt>
<trkpt lat="48.937083" lon="8.670257">
<ele>379.0</ele>
<speed>5.1</speed>
<course>326.6</course>
<desc>Speed 5.1 km/h Distance 7.33 km</desc>
<time>2010-02-28T11:39:38.22</time>
<name>4948</name>
</trkpt>
<trkpt lat="48.937097" lon="8.670243">
<ele>379.0</ele>
<speed>5.2</speed>
<course>323.5</course>
<desc>Speed 5.2 km/h Distance 7.33 km</desc>
<time>2010-02-28T11:39:39.22</time>
<name>4949</name>
</trkpt>
<trkpt lat="48.937110" lon="8.670228">
<ele>379.0</ele>
<speed>5.3</speed>
<course>336.5</course>
<desc>Speed 5.3 km/h Distance 7.34 km</desc>
<time>2010-02-28T11:39:40.22</time>
<name>4950</name>
</trkpt>
<trkpt lat="48.937125" lon="8.670218">
<ele>378.5</ele>
<speed>5.3</speed>
<course>320.6</course>
<desc>Speed 5.3 km/h Distance 7.34 km</desc>
<time>2010-02-28T11:39:41.22</time>
<name>4951</name>
</trkpt>
<trkpt lat="48.937138" lon="8.670202">
<ele>378.5</ele>
<speed>5.3</speed>
<course>343.7</course>
<desc>Speed 5.3 km/h Distance 7.34 km</desc>
<time>2010-02-28T11:39:42.22</time>
<name>4952</name>
</trkpt>
<trkpt lat="48.937153" lon="8.670195">
<ele>377.5</ele>
<speed>4.0</speed>
<course>318.7</course>
<desc>Speed 4.0 km/h Distance 7.34 km</desc>
<time>2010-02-28T11:39:43.22</time>
<name>4953</name>
</trkpt>
<trkpt lat="48.937163" lon="8.670182">
<ele>377.0</ele>
<speed>3.9</speed>
<course>307.3</course>
<desc>Speed 3.9 km/h Distance 7.34 km</desc>
<time>2010-02-28T11:39:44.22</time>
<name>4954</name>
</trkpt>
<trkpt lat="48.937172" lon="8.670165">
<ele>377.0</ele>
<speed>4.3</speed>
<course>322.5</course>
<desc>Speed 4.3 km/h Distance 7.34 km</desc>
<time>2010-02-28T11:39:45.22</time>
<name>4955</name>
</trkpt>
<trkpt lat="48.937182" lon="8.670153">
<ele>376.5</ele>
<speed>3.4</speed>
<course>4.5</course>
<desc>Speed 3.4 km/h Distance 7.35 km</desc>
<time>2010-02-28T11:39:46.22</time>
<name>4956</name>
</trkpt>
<trkpt lat="48.937200" lon="8.670155">
<ele>375.0</ele>
<speed>6.3</speed>
<course>303.1</course>
<desc>Speed 6.3 km/h Distance 7.35 km</desc>
<time>2010-02-28T11:39:47.22</time>
<name>4957</name>
</trkpt>
<trkpt lat="48.937205" lon="8.670143">
<ele>375.0</ele>
<speed>3.2</speed>
<course>299.7</course>
<desc>Speed 3.2 km/h Distance 7.35 km</desc>
<time>2010-02-28T11:39:48.22</time>
<name>4958</name>
</trkpt>
<trkpt lat="48.937210" lon="8.670130">
<ele>375.0</ele>
<speed>3.4</speed>
<course>333.8</course>
<desc>Speed 3.4 km/h Distance 7.35 km</desc>
<time>2010-02-28T11:39:49.22</time>
<name>4959</name>
</trkpt>
<trkpt lat="48.937223" lon="8.670120">
<ele>374.0</ele>
<speed>4.5</speed>
<course>313.6</course>
<desc>Speed 4.5 km/h Distance 7.35 km</desc>
<time>2010-02-28T11:39:50.22</time>
<name>4960</name>
</trkpt>
<trkpt lat="48.937232" lon="8.670107">
<ele>373.5</ele>
<speed>3.7</speed>
<course>180.0</course>
<desc>Speed 3.7 km/h Distance 7.35 km</desc>
<time>2010-02-28T11:39:51.22</time>
<name>4961</name>
</trkpt>
<trkpt lat="48.937213" lon="8.670107">
<ele>373.5</ele>
<speed>7.5</speed>
<course>317.4</course>
<desc>Speed 7.5 km/h Distance 7.35 km</desc>
<time>2010-02-28T11:39:52.22</time>
<name>4962</name>
</trkpt>
<trkpt lat="48.937222" lon="8.670095">
<ele>373.5</ele>
<speed>3.6</speed>
<course>307.3</course>
<desc>Speed 3.6 km/h Distance 7.36 km</desc>
<time>2010-02-28T11:39:53.22</time>
<name>4963</name>
</trkpt>
<trkpt lat="48.937228" lon="8.670082">
<ele>373.5</ele>
<speed>4.0</speed>
<course>348.8</course>
<desc>Speed 4.0 km/h Distance 7.36 km</desc>
<time>2010-02-28T11:39:54.22</time>
<name>4964</name>
</trkpt>
<trkpt lat="48.937240" lon="8.670078">
<ele>372.0</ele>
<speed>3.5</speed>
<course>351.0</course>
<desc>Speed 3.5 km/h Distance 7.36 km</desc>
<time>2010-02-28T11:39:55.22</time>
<name>4965</name>
</trkpt>
<trkpt lat="48.937253" lon="8.670075">
<ele>372.0</ele>
<speed>4.7</speed>
<course>348.8</course>
<desc>Speed 4.7 km/h Distance 7.36 km</desc>
<time>2010-02-28T11:39:56.22</time>
<name>4966</name>
</trkpt>
<trkpt lat="48.937265" lon="8.670072">
<ele>372.0</ele>
<speed>3.4</speed>
<course>0.0</course>
<desc>Speed 3.4 km/h Distance 7.36 km</desc>
<time>2010-02-28T11:39:57.22</time>
<name>4967</name>
</trkpt>
<trkpt lat="48.937275" lon="8.670072">
<ele>372.0</ele>
<speed>3.1</speed>
<course>0.0</course>
<desc>Speed 3.1 km/h Distance 7.36 km</desc>
<time>2010-02-28T11:39:58.22</time>
<name>4968</name>
</trkpt>
<trkpt lat="48.937293" lon="8.670072">
<ele>371.5</ele>
<speed>4.8</speed>
<course>347.7</course>
<desc>Speed 4.8 km/h Distance 7.36 km</desc>
<time>2010-02-28T11:39:59.22</time>
<name>4969</name>
</trkpt>
<trkpt lat="48.937313" lon="8.670065">
<ele>371.5</ele>
<speed>4.4</speed>
<course>354.1</course>
<desc>Speed 4.4 km/h Distance 7.37 km</desc>
<time>2010-02-28T11:40:00.22</time>
<name>4970</name>
</trkpt>
<trkpt lat="48.937328" lon="8.670063">
<ele>372.0</ele>
<speed>4.4</speed>
<course>29.8</course>
<desc>Speed 4.4 km/h Distance 7.37 km</desc>
<time>2010-02-28T11:40:01.22</time>
<name>4971</name>
</trkpt>
<trkpt lat="48.937342" lon="8.670075">
<ele>372.0</ele>
<speed>3.0</speed>
<course>322.8</course>
<desc>Speed 3.0 km/h Distance 7.37 km</desc>
<time>2010-02-28T11:40:02.22</time>
<name>4972</name>
</trkpt>
<trkpt lat="48.937343" lon="8.670073">
<ele>372.0</ele>
<speed>1.2</speed>
<course>0.0</course>
<desc>Speed 1.2 km/h Distance 7.37 km</desc>
<time>2010-02-28T11:40:03.22</time>
<name>4973</name>
</trkpt>
<trkpt lat="48.937348" lon="8.670073">
<ele>372.0</ele>
<speed>1.2</speed>
<course>11.2</course>
<desc>Speed 1.2 km/h Distance 7.37 km</desc>
<time>2010-02-28T11:40:04.22</time>
<name>4974</name>
</trkpt>
<trkpt lat="48.937365" lon="8.670078">
<ele>371.5</ele>
<speed>0.6</speed>
<course>6.3</course>
<desc>Speed 0.6 km/h Distance 7.37 km</desc>
<time>2010-02-28T11:40:05.22</time>
<name>4975</name>
</trkpt>
<trkpt lat="48.937415" lon="8.670087">
<ele>369.5</ele>
<speed>3.9</speed>
<course>353.0</course>
<desc>Speed 3.9 km/h Distance 7.38 km</desc>
<time>2010-02-28T11:40:07.22</time>
<name>4976</name>
</trkpt>
<trkpt lat="48.937433" lon="8.670083">
<ele>369.0</ele>
<speed>3.6</speed>
<course>3.8</course>
<desc>Speed 3.6 km/h Distance 7.38 km</desc>
<time>2010-02-28T11:40:08.22</time>
<name>4977</name>
</trkpt>
<trkpt lat="48.937448" lon="8.670085">
<ele>369.0</ele>
<speed>4.9</speed>
<course>351.2</course>
<desc>Speed 4.9 km/h Distance 7.38 km</desc>
<time>2010-02-28T11:40:09.22</time>
<name>4978</name>
</trkpt>
<trkpt lat="48.937468" lon="8.670080">
<ele>369.0</ele>
<speed>6.9</speed>
<course>8.1</course>
<desc>Speed 6.9 km/h Distance 7.38 km</desc>
<time>2010-02-28T11:40:10.22</time>
<name>4979</name>
</trkpt>
<trkpt lat="48.937483" lon="8.670083">
<ele>368.0</ele>
<speed>4.5</speed>
<course>11.6</course>
<desc>Speed 4.5 km/h Distance 7.39 km</desc>
<time>2010-02-28T11:40:11.22</time>
<name>4980</name>
</trkpt>
<trkpt lat="48.937505" lon="8.670090">
<ele>367.5</ele>
<speed>5.6</speed>
<course>14.9</course>
<desc>Speed 5.6 km/h Distance 7.39 km</desc>
<time>2010-02-28T11:40:12.22</time>
<name>4981</name>
</trkpt>
<trkpt lat="48.937522" lon="8.670097">
<ele>367.0</ele>
<speed>4.8</speed>
<course>18.1</course>
<desc>Speed 4.8 km/h Distance 7.39 km</desc>
<time>2010-02-28T11:40:13.22</time>
<name>4982</name>
</trkpt>
<trkpt lat="48.937535" lon="8.670103">
<ele>367.0</ele>
<speed>3.5</speed>
<course>7.7</course>
<desc>Speed 3.5 km/h Distance 7.39 km</desc>
<time>2010-02-28T11:40:14.22</time>
<name>4983</name>
</trkpt>
<trkpt lat="48.937552" lon="8.670107">
<ele>366.0</ele>
<speed>4.2</speed>
<course>26.4</course>
<desc>Speed 4.2 km/h Distance 7.39 km</desc>
<time>2010-02-28T11:40:15.22</time>
<name>4984</name>
</trkpt>
<trkpt lat="48.937558" lon="8.670112">
<ele>365.5</ele>
<speed>2.7</speed>
<course>352.6</course>
<desc>Speed 2.7 km/h Distance 7.39 km</desc>
<time>2010-02-28T11:40:16.22</time>
<name>4985</name>
</trkpt>
<trkpt lat="48.937565" lon="8.670110">
<ele>365.0</ele>
<speed>2.6</speed>
<course>7.4</course>
<desc>Speed 2.6 km/h Distance 7.40 km</desc>
<time>2010-02-28T11:40:17.22</time>
<name>4986</name>
</trkpt>
<trkpt lat="48.937572" lon="8.670112">
<ele>365.0</ele>
<speed>3.2</speed>
<course>336.2</course>
<desc>Speed 3.2 km/h Distance 7.40 km</desc>
<time>2010-02-28T11:40:18.22</time>
<name>4987</name>
</trkpt>
<trkpt lat="48.937582" lon="8.670105">
<ele>364.5</ele>
<speed>3.9</speed>
<course>338.5</course>
<desc>Speed 3.9 km/h Distance 7.40 km</desc>
<time>2010-02-28T11:40:19.22</time>
<name>4988</name>
</trkpt>
<trkpt lat="48.937590" lon="8.670100">
<ele>364.5</ele>
<speed>3.5</speed>
<course>339.1</course>
<desc>Speed 3.5 km/h Distance 7.40 km</desc>
<time>2010-02-28T11:40:20.22</time>
<name>4989</name>
</trkpt>
<trkpt lat="48.937602" lon="8.670093">
<ele>365.0</ele>
<speed>3.2</speed>
<course>352.3</course>
<desc>Speed 3.2 km/h Distance 7.40 km</desc>
<time>2010-02-28T11:40:21.22</time>
<name>4990</name>
</trkpt>
<trkpt lat="48.937610" lon="8.670092">
<ele>364.5</ele>
<speed>3.2</speed>
<course>18.8</course>
<desc>Speed 3.2 km/h Distance 7.40 km</desc>
<time>2010-02-28T11:40:22.22</time>
<name>4991</name>
</trkpt>
<trkpt lat="48.937617" lon="8.670095">
<ele>364.5</ele>
<speed>2.6</speed>
<course>7.7</course>
<desc>Speed 2.6 km/h Distance 7.40 km</desc>
<time>2010-02-28T11:40:23.22</time>
<name>4992</name>
</trkpt>
<trkpt lat="48.937625" lon="8.670097">
<ele>364.0</ele>
<speed>2.6</speed>
<course>10.3</course>
<desc>Speed 2.6 km/h Distance 7.40 km</desc>
<time>2010-02-28T11:40:24.22</time>
<name>4993</name>
</trkpt>
<trkpt lat="48.937632" lon="8.670098">
<ele>364.0</ele>
<speed>2.4</speed>
<course>346.5</course>
<desc>Speed 2.4 km/h Distance 7.40 km</desc>
<time>2010-02-28T11:40:25.22</time>
<name>4994</name>
</trkpt>
<trkpt lat="48.937645" lon="8.670093">
<ele>363.5</ele>
<speed>3.9</speed>
<course>322.8</course>
<desc>Speed 3.9 km/h Distance 7.40 km</desc>
<time>2010-02-28T11:40:26.22</time>
<name>4995</name>
</trkpt>
<trkpt lat="48.937647" lon="8.670092">
<ele>363.5</ele>
<speed>0.5</speed>
<course>356.2</course>
<desc>Speed 0.5 km/h Distance 7.41 km</desc>
<time>2010-02-28T11:40:27.22</time>
<name>4996</name>
</trkpt>
<trkpt lat="48.937662" lon="8.670090">
<ele>363.0</ele>
<speed>4.7</speed>
<course>340.5</course>
<desc>Speed 4.7 km/h Distance 7.41 km</desc>
<time>2010-02-28T11:40:28.22</time>
<name>4997</name>
</trkpt>
<trkpt lat="48.937683" lon="8.670078">
<ele>363.5</ele>
<speed>4.1</speed>
<course>294.6</course>
<desc>Speed 4.1 km/h Distance 7.41 km</desc>
<time>2010-02-28T11:40:29.22</time>
<name>4998</name>
</trkpt>
<trkpt lat="48.937688" lon="8.670062">
<ele>364.0</ele>
<speed>4.4</speed>
<course>320.6</course>
<desc>Speed 4.4 km/h Distance 7.41 km</desc>
<time>2010-02-28T11:40:30.22</time>
<name>4999</name>
</trkpt>
<trkpt lat="48.937695" lon="8.670053">
<ele>364.0</ele>
<speed>3.0</speed>
<course>2.2</course>
<desc>Speed 3.0 km/h Distance 7.41 km</desc>
<time>2010-02-28T11:40:31.22</time>
<name>5000</name>
</trkpt>
<trkpt lat="48.937707" lon="8.670053">
<ele>363.5</ele>
<speed>4.0</speed>
<course>355.6</course>
<desc>Speed 4.0 km/h Distance 7.41 km</desc>
<time>2010-02-28T11:40:32.22</time>
<name>5001</name>
</trkpt>
<trkpt lat="48.937717" lon="8.670052">
<ele>363.5</ele>
<speed>4.0</speed>
<course>11.6</course>
<desc>Speed 4.0 km/h Distance 7.41 km</desc>
<time>2010-02-28T11:40:33.22</time>
<name>5002</name>
</trkpt>
<trkpt lat="48.937727" lon="8.670055">
<ele>363.0</ele>
<speed>3.9</speed>
<course>355.3</course>
<desc>Speed 3.9 km/h Distance 7.42 km</desc>
<time>2010-02-28T11:40:34.22</time>
<name>5003</name>
</trkpt>
<trkpt lat="48.937738" lon="8.670053">
<ele>363.0</ele>
<speed>4.6</speed>
<course>7.4</course>
<desc>Speed 4.6 km/h Distance 7.42 km</desc>
<time>2010-02-28T11:40:35.22</time>
<name>5004</name>
</trkpt>
<trkpt lat="48.937745" lon="8.670055">
<ele>363.0</ele>
<speed>3.0</speed>
<course>43.5</course>
<desc>Speed 3.0 km/h Distance 7.42 km</desc>
<time>2010-02-28T11:40:36.22</time>
<name>5005</name>
</trkpt>
<trkpt lat="48.937748" lon="8.670060">
<ele>362.5</ele>
<speed>2.1</speed>
<course>17.5</course>
<desc>Speed 2.1 km/h Distance 7.42 km</desc>
<time>2010-02-28T11:40:37.22</time>
<name>5006</name>
</trkpt>
<trkpt lat="48.937755" lon="8.670063">
<ele>362.5</ele>
<speed>2.6</speed>
<course>33.2</course>
<desc>Speed 2.6 km/h Distance 7.42 km</desc>
<time>2010-02-28T11:40:38.22</time>
<name>5007</name>
</trkpt>
<trkpt lat="48.937760" lon="8.670068">
<ele>362.5</ele>
<speed>2.1</speed>
<course>11.6</course>
<desc>Speed 2.1 km/h Distance 7.42 km</desc>
<time>2010-02-28T11:40:39.22</time>
<name>5008</name>
</trkpt>
<trkpt lat="48.937770" lon="8.670072">
<ele>362.5</ele>
<speed>3.2</speed>
<course>0.0</course>
<desc>Speed 3.2 km/h Distance 7.42 km</desc>
<time>2010-02-28T11:40:40.22</time>
<name>5009</name>
</trkpt>
<trkpt lat="48.937782" lon="8.670072">
<ele>362.0</ele>
<speed>4.5</speed>
<course>350.5</course>
<desc>Speed 4.5 km/h Distance 7.42 km</desc>
<time>2010-02-28T11:40:41.22</time>
<name>5010</name>
</trkpt>
<trkpt lat="48.937793" lon="8.670068">
<ele>362.0</ele>
<speed>4.1</speed>
<course>43.5</course>
<desc>Speed 4.1 km/h Distance 7.42 km</desc>
<time>2010-02-28T11:40:42.22</time>
<name>5011</name>
</trkpt>
<trkpt lat="48.937797" lon="8.670073">
<ele>362.0</ele>
<speed>1.6</speed>
<course>355.0</course>
<desc>Speed 1.6 km/h Distance 7.42 km</desc>
<time>2010-02-28T11:40:43.22</time>
<name>5012</name>
</trkpt>
<trkpt lat="48.937805" lon="8.670072">
<ele>362.0</ele>
<speed>3.2</speed>
<course>2.2</course>
<desc>Speed 3.2 km/h Distance 7.42 km</desc>
<time>2010-02-28T11:40:44.23</time>
<name>5013</name>
</trkpt>
<trkpt lat="48.937817" lon="8.670072">
<ele>362.0</ele>
<speed>3.4</speed>
<course>356.2</course>
<desc>Speed 3.4 km/h Distance 7.43 km</desc>
<time>2010-02-28T11:40:45.24</time>
<name>5014</name>
</trkpt>
<trkpt lat="48.937832" lon="8.670070">
<ele>362.0</ele>
<speed>3.6</speed>
<course>346.4</course>
<desc>Speed 3.6 km/h Distance 7.43 km</desc>
<time>2010-02-28T11:40:46.24</time>
<name>5015</name>
</trkpt>
<trkpt lat="48.937850" lon="8.670063">
<ele>362.0</ele>
<speed>3.9</speed>
<course>1.9</course>
<desc>Speed 3.9 km/h Distance 7.43 km</desc>
<time>2010-02-28T11:40:47.24</time>
<name>5016</name>
</trkpt>
<trkpt lat="48.937865" lon="8.670063">
<ele>362.0</ele>
<speed>4.5</speed>
<course>354.4</course>
<desc>Speed 4.5 km/h Distance 7.43 km</desc>
<time>2010-02-28T11:40:48.24</time>
<name>5017</name>
</trkpt>
<trkpt lat="48.937885" lon="8.670060">
<ele>362.0</ele>
<speed>6.5</speed>
<course>3.8</course>
<desc>Speed 6.5 km/h Distance 7.43 km</desc>
<time>2010-02-28T11:40:49.24</time>
<name>5018</name>
</trkpt>
<trkpt lat="48.937900" lon="8.670062">
<ele>361.5</ele>
<speed>3.7</speed>
<course>4.4</course>
<desc>Speed 3.7 km/h Distance 7.44 km</desc>
<time>2010-02-28T11:40:50.24</time>
<name>5019</name>
</trkpt>
<trkpt lat="48.937910" lon="8.670063">
<ele>361.5</ele>
<speed>3.0</speed>
<course>353.4</course>
<desc>Speed 3.0 km/h Distance 7.44 km</desc>
<time>2010-02-28T11:40:51.24</time>
<name>5020</name>
</trkpt>
<trkpt lat="48.937920" lon="8.670062">
<ele>361.5</ele>
<speed>1.7</speed>
<course>6.3</course>
<desc>Speed 1.7 km/h Distance 7.44 km</desc>
<time>2010-02-28T11:40:52.24</time>
<name>5021</name>
</trkpt>
<trkpt lat="48.937932" lon="8.670063">
<ele>361.5</ele>
<speed>3.0</speed>
<course>345.2</course>
<desc>Speed 3.0 km/h Distance 7.44 km</desc>
<time>2010-02-28T11:40:53.24</time>
<name>5022</name>
</trkpt>
<trkpt lat="48.937973" lon="8.670047">
<ele>361.5</ele>
<speed>1.6</speed>
<course>344.3</course>
<desc>Speed 1.6 km/h Distance 7.44 km</desc>
<time>2010-02-28T11:40:55.24</time>
<name>5023</name>
</trkpt>
<trkpt lat="48.938020" lon="8.670027">
<ele>362.0</ele>
<speed>4.4</speed>
<course>345.1</course>
<desc>Speed 4.4 km/h Distance 7.45 km</desc>
<time>2010-02-28T11:40:57.24</time>
<name>5024</name>
</trkpt>
<trkpt lat="48.938037" lon="8.670020">
<ele>362.0</ele>
<speed>6.3</speed>
<course>12.6</course>
<desc>Speed 6.3 km/h Distance 7.45 km</desc>
<time>2010-02-28T11:40:58.24</time>
<name>5025</name>
</trkpt>
<trkpt lat="48.938040" lon="8.670020">
<ele>362.0</ele>
<speed>0.3</speed>
<course>0.0</course>
<desc>Speed 0.3 km/h Distance 7.45 km</desc>
<time>2010-02-28T11:40:59.24</time>
<name>5026</name>
</trkpt>
<trkpt lat="48.938043" lon="8.670020">
<ele>362.5</ele>
<speed>0.6</speed>
<course>346.2</course>
<desc>Speed 0.6 km/h Distance 7.45 km</desc>
<time>2010-02-28T11:41:00.24</time>
<name>5027</name>
</trkpt>
<trkpt lat="48.938052" lon="8.670017">
<ele>362.5</ele>
<speed>2.2</speed>
<course>106.9</course>
<desc>Speed 2.2 km/h Distance 7.45 km</desc>
<time>2010-02-28T11:41:01.24</time>
<name>5028</name>
</trkpt>
<trkpt lat="48.938048" lon="8.670033">
<ele>362.5</ele>
<speed>4.8</speed>
<course>44.5</course>
<desc>Speed 4.8 km/h Distance 7.45 km</desc>
<time>2010-02-28T11:41:02.24</time>
<name>5029</name>
</trkpt>
<trkpt lat="48.938065" lon="8.670058">
<ele>362.5</ele>
<speed>3.3</speed>
<course>44.5</course>
<desc>Speed 3.3 km/h Distance 7.46 km</desc>
<time>2010-02-28T11:41:03.75</time>
<name>5030</name>
</trkpt>
<trkpt lat="48.938065" lon="8.670058">
<ele>362.5</ele>
<speed>3.3</speed>
<course>33.0</course>
<desc>Speed 3.3 km/h Distance 7.46 km</desc>
<time>2010-02-28T11:41:04.24</time>
<name>5031</name>
</trkpt>
<trkpt lat="48.938075" lon="8.670068">
<ele>362.5</ele>
<speed>3.9</speed>
<course>60.2</course>
<desc>Speed 3.9 km/h Distance 7.46 km</desc>
<time>2010-02-28T11:41:05.24</time>
<name>5032</name>
</trkpt>
<trkpt lat="48.938085" lon="8.670095">
<ele>362.5</ele>
<speed>3.4</speed>
<course>48.9</course>
<desc>Speed 3.4 km/h Distance 7.46 km</desc>
<time>2010-02-28T11:41:06.74</time>
<name>5033</name>
</trkpt>
<trkpt lat="48.938092" lon="8.670107">
<ele>363.0</ele>
<speed>3.1</speed>
<course>48.9</course>
<desc>Speed 3.1 km/h Distance 7.46 km</desc>
<time>2010-02-28T11:41:07.75</time>
<name>5034</name>
</trkpt>
<trkpt lat="48.938092" lon="8.670107">
<ele>363.0</ele>
<speed>3.1</speed>
<course>58.6</course>
<desc>Speed 3.1 km/h Distance 7.46 km</desc>
<time>2010-02-28T11:41:08.24</time>
<name>5035</name>
</trkpt>
<trkpt lat="48.938095" lon="8.670115">
<ele>363.0</ele>
<speed>2.3</speed>
<course>69.2</course>
<desc>Speed 2.3 km/h Distance 7.46 km</desc>
<time>2010-02-28T11:41:09.24</time>
<name>5036</name>
</trkpt>
<trkpt lat="48.938102" lon="8.670142">
<ele>362.5</ele>
<speed>3.2</speed>
<course>69.2</course>
<desc>Speed 3.2 km/h Distance 7.46 km</desc>
<time>2010-02-28T11:41:10.75</time>
<name>5037</name>
</trkpt>
<trkpt lat="48.938102" lon="8.670142">
<ele>362.5</ele>
<speed>3.2</speed>
<course>77.7</course>
<desc>Speed 3.2 km/h Distance 7.46 km</desc>
<time>2010-02-28T11:41:11.24</time>
<name>5038</name>
</trkpt>
<trkpt lat="48.938103" lon="8.670153">
<ele>363.0</ele>
<speed>3.2</speed>
<course>90.0</course>
<desc>Speed 3.2 km/h Distance 7.46 km</desc>
<time>2010-02-28T11:41:12.24</time>
<name>5039</name>
</trkpt>
<trkpt lat="48.938103" lon="8.670168">
<ele>363.0</ele>
<speed>3.3</speed>
<course>90.0</course>
<desc>Speed 3.3 km/h Distance 7.47 km</desc>
<time>2010-02-28T11:41:13.24</time>
<name>5040</name>
</trkpt>
<trkpt lat="48.938103" lon="8.670183">
<ele>363.0</ele>
<speed>3.0</speed>
<course>76.5</course>
<desc>Speed 3.0 km/h Distance 7.47 km</desc>
<time>2010-02-28T11:41:14.24</time>
<name>5041</name>
</trkpt>
<trkpt lat="48.938108" lon="8.670215">
<ele>363.0</ele>
<speed>3.5</speed>
<course>33.2</course>
<desc>Speed 3.5 km/h Distance 7.47 km</desc>
<time>2010-02-28T11:41:15.73</time>
<name>5042</name>
</trkpt>
<trkpt lat="48.938115" lon="8.670222">
<ele>363.0</ele>
<speed>3.3</speed>
<course>65.5</course>
<desc>Speed 3.3 km/h Distance 7.47 km</desc>
<time>2010-02-28T11:41:16.73</time>
<name>5043</name>
</trkpt>
<trkpt lat="48.938120" lon="8.670238">
<ele>363.0</ele>
<speed>4.6</speed>
<course>38.1</course>
<desc>Speed 4.6 km/h Distance 7.47 km</desc>
<time>2010-02-28T11:41:17.74</time>
<name>5044</name>
</trkpt>
<trkpt lat="48.938128" lon="8.670248">
<ele>363.5</ele>
<speed>3.9</speed>
<course>119.4</course>
<desc>Speed 3.9 km/h Distance 7.47 km</desc>
<time>2010-02-28T11:41:18.74</time>
<name>5045</name>
</trkpt>
<trkpt lat="48.938112" lon="8.670293">
<ele>362.0</ele>
<speed>2.8</speed>
<course>13.8</course>
<desc>Speed 2.8 km/h Distance 7.48 km</desc>
<time>2010-02-28T11:41:20.73</time>
<name>5046</name>
</trkpt>
<trkpt lat="48.938120" lon="8.670297">
<ele>362.0</ele>
<speed>3.1</speed>
<course>27.5</course>
<desc>Speed 3.1 km/h Distance 7.48 km</desc>
<time>2010-02-28T11:41:21.74</time>
<name>5047</name>
</trkpt>
<trkpt lat="48.938128" lon="8.670303">
<ele>362.0</ele>
<speed>3.1</speed>
<course>13.8</course>
<desc>Speed 3.1 km/h Distance 7.48 km</desc>
<time>2010-02-28T11:41:22.74</time>
<name>5048</name>
</trkpt>
<trkpt lat="48.938137" lon="8.670307">
<ele>362.5</ele>
<speed>3.1</speed>
<course>10.3</course>
<desc>Speed 3.1 km/h Distance 7.48 km</desc>
<time>2010-02-28T11:41:23.74</time>
<name>5049</name>
</trkpt>
<trkpt lat="48.938143" lon="8.670308">
<ele>362.5</ele>
<speed>1.8</speed>
<course>0.0</course>
<desc>Speed 1.8 km/h Distance 7.48 km</desc>
<time>2010-02-28T11:41:24.73</time>
<name>5050</name>
</trkpt>
<trkpt lat="48.938152" lon="8.670308">
<ele>362.5</ele>
<speed>2.7</speed>
<course>332.0</course>
<desc>Speed 2.7 km/h Distance 7.48 km</desc>
<time>2010-02-28T11:41:25.74</time>
<name>5051</name>
</trkpt>
<trkpt lat="48.938187" lon="8.670280">
<ele>363.0</ele>
<speed>2.8</speed>
<course>332.0</course>
<desc>Speed 2.8 km/h Distance 7.49 km</desc>
<time>2010-02-28T11:41:27.74</time>
<name>5052</name>
</trkpt>
<trkpt lat="48.938187" lon="8.670280">
<ele>363.0</ele>
<speed>2.8</speed>
<course>319.8</course>
<desc>Speed 2.8 km/h Distance 7.49 km</desc>
<time>2010-02-28T11:41:28.24</time>
<name>5053</name>
</trkpt>
<trkpt lat="48.938210" lon="8.670250">
<ele>363.0</ele>
<speed>3.1</speed>
<course>309.6</course>
<desc>Speed 3.1 km/h Distance 7.49 km</desc>
<time>2010-02-28T11:41:29.74</time>
<name>5054</name>
</trkpt>
<trkpt lat="48.938220" lon="8.670232">
<ele>363.5</ele>
<speed>3.7</speed>
<course>313.5</course>
<desc>Speed 3.7 km/h Distance 7.49 km</desc>
<time>2010-02-28T11:41:30.73</time>
<name>5055</name>
</trkpt>
<trkpt lat="48.938228" lon="8.670218">
<ele>363.5</ele>
<speed>4.0</speed>
<course>317.4</course>
<desc>Speed 4.0 km/h Distance 7.49 km</desc>
<time>2010-02-28T11:41:31.74</time>
<name>5056</name>
</trkpt>
<trkpt lat="48.938237" lon="8.670207">
<ele>363.5</ele>
<speed>4.1</speed>
<course>326.7</course>
<desc>Speed 4.1 km/h Distance 7.49 km</desc>
<time>2010-02-28T11:41:32.73</time>
<name>5057</name>
</trkpt>
<trkpt lat="48.938270" lon="8.670173">
<ele>365.5</ele>
<speed>4.0</speed>
<course>307.4</course>
<desc>Speed 4.0 km/h Distance 7.50 km</desc>
<time>2010-02-28T11:41:34.73</time>
<name>5058</name>
</trkpt>
<trkpt lat="48.938275" lon="8.670163">
<ele>366.0</ele>
<speed>3.7</speed>
<course>316.6</course>
<desc>Speed 3.7 km/h Distance 7.50 km</desc>
<time>2010-02-28T11:41:35.76</time>
<name>5059</name>
</trkpt>
<trkpt lat="48.938302" lon="8.670125">
<ele>367.0</ele>
<speed>4.4</speed>
<course>310.3</course>
<desc>Speed 4.4 km/h Distance 7.50 km</desc>
<time>2010-02-28T11:41:37.73</time>
<name>5060</name>
</trkpt>
<trkpt lat="48.938310" lon="8.670110">
<ele>367.5</ele>
<speed>3.3</speed>
<course>282.3</course>
<desc>Speed 3.3 km/h Distance 7.50 km</desc>
<time>2010-02-28T11:41:38.73</time>
<name>5061</name>
</trkpt>
<trkpt lat="48.938312" lon="8.670098">
<ele>367.5</ele>
<speed>2.8</speed>
<course>316.8</course>
<desc>Speed 2.8 km/h Distance 7.51 km</desc>
<time>2010-02-28T11:41:39.73</time>
<name>5062</name>
</trkpt>
<trkpt lat="48.938323" lon="8.670082">
<ele>367.5</ele>
<speed>4.3</speed>
<course>329.0</course>
<desc>Speed 4.3 km/h Distance 7.51 km</desc>
<time>2010-02-28T11:41:40.73</time>
<name>5063</name>
</trkpt>
<trkpt lat="48.938362" lon="8.670047">
<ele>368.0</ele>
<speed>6.2</speed>
<course>292.1</course>
<desc>Speed 6.2 km/h Distance 7.51 km</desc>
<time>2010-02-28T11:41:42.76</time>
<name>5064</name>
</trkpt>
<trkpt lat="48.938368" lon="8.670022">
<ele>368.0</ele>
<speed>4.3</speed>
<course>337.7</course>
<desc>Speed 4.3 km/h Distance 7.51 km</desc>
<time>2010-02-28T11:41:44.73</time>
<name>5065</name>
</trkpt>
<trkpt lat="48.938382" lon="8.670013">
<ele>368.0</ele>
<speed>3.6</speed>
<course>307.3</course>
<desc>Speed 3.6 km/h Distance 7.52 km</desc>
<time>2010-02-28T11:41:45.72</time>
<name>5066</name>
</trkpt>
<trkpt lat="48.938388" lon="8.670000">
<ele>368.5</ele>
<speed>3.9</speed>
<course>331.2</course>
<desc>Speed 3.9 km/h Distance 7.52 km</desc>
<time>2010-02-28T11:41:46.73</time>
<name>5067</name>
</trkpt>
<trkpt lat="48.938408" lon="8.669983">
<ele>368.5</ele>
<speed>9.4</speed>
<course>336.2</course>
<desc>Speed 9.4 km/h Distance 7.52 km</desc>
<time>2010-02-28T11:41:47.73</time>
<name>5068</name>
</trkpt>
<trkpt lat="48.938418" lon="8.669977">
<ele>368.5</ele>
<speed>4.0</speed>
<course>1.2</course>
<desc>Speed 4.0 km/h Distance 7.52 km</desc>
<time>2010-02-28T11:41:48.73</time>
<name>5069</name>
</trkpt>
<trkpt lat="48.938432" lon="8.669977">
<ele>368.5</ele>
<speed>4.4</speed>
<course>297.4</course>
<desc>Speed 4.4 km/h Distance 7.52 km</desc>
<time>2010-02-28T11:41:49.73</time>
<name>5070</name>
</trkpt>
<trkpt lat="48.938433" lon="8.669972">
<ele>368.5</ele>
<speed>1.7</speed>
<course>159.2</course>
<desc>Speed 1.7 km/h Distance 7.52 km</desc>
<time>2010-02-28T11:41:50.73</time>
<name>5071</name>
</trkpt>
<trkpt lat="48.938390" lon="8.669997">
<ele>369.0</ele>
<speed>1.3</speed>
<course>315.5</course>
<desc>Speed 1.3 km/h Distance 7.53 km</desc>
<time>2010-02-28T11:41:52.73</time>
<name>5072</name>
</trkpt>
<trkpt lat="48.938393" lon="8.669992">
<ele>369.0</ele>
<speed>1.9</speed>
<course>318.8</course>
<desc>Speed 1.9 km/h Distance 7.53 km</desc>
<time>2010-02-28T11:41:53.73</time>
<name>5073</name>
</trkpt>
<trkpt lat="48.938403" lon="8.669978">
<ele>369.0</ele>
<speed>4.0</speed>
<course>339.9</course>
<desc>Speed 4.0 km/h Distance 7.53 km</desc>
<time>2010-02-28T11:41:55.73</time>
<name>5074</name>
</trkpt>
<trkpt lat="48.938418" lon="8.669970">
<ele>369.0</ele>
<speed>6.6</speed>
<course>347.6</course>
<desc>Speed 6.6 km/h Distance 7.53 km</desc>
<time>2010-02-28T11:41:56.73</time>
<name>5075</name>
</trkpt>
<trkpt lat="48.938443" lon="8.669962">
<ele>368.5</ele>
<speed>1.7</speed>
<course>347.6</course>
<desc>Speed 1.7 km/h Distance 7.53 km</desc>
<time>2010-02-28T11:41:57.76</time>
<name>5076</name>
</trkpt>
<trkpt lat="48.938443" lon="8.669962">
<ele>368.5</ele>
<speed>1.7</speed>
<course>320.6</course>
<desc>Speed 1.7 km/h Distance 7.53 km</desc>
<time>2010-02-28T11:41:58.24</time>
<name>5077</name>
</trkpt>
<trkpt lat="48.938450" lon="8.669953">
<ele>369.0</ele>
<speed>1.5</speed>
<course>320.6</course>
<desc>Speed 1.5 km/h Distance 7.54 km</desc>
<time>2010-02-28T11:41:59.75</time>
<name>5078</name>
</trkpt>
<trkpt lat="48.938450" lon="8.669953">
<ele>369.0</ele>
<speed>1.5</speed>
<course>335.6</course>
<desc>Speed 1.5 km/h Distance 7.54 km</desc>
<time>2010-02-28T11:42:00.24</time>
<name>5079</name>
</trkpt>
<trkpt lat="48.938542" lon="8.669890">
<ele>369.0</ele>
<speed>1.4</speed>
<course>337.0</course>
<desc>Speed 1.4 km/h Distance 7.55 km</desc>
<time>2010-02-28T11:42:03.73</time>
<name>5080</name>
</trkpt>
<trkpt lat="48.938545" lon="8.669888">
<ele>369.0</ele>
<speed>1.4</speed>
<course>162.5</course>
<desc>Speed 1.4 km/h Distance 7.55 km</desc>
<time>2010-02-28T11:42:04.73</time>
<name>5081</name>
</trkpt>
<trkpt lat="48.938538" lon="8.669892">
<ele>369.0</ele>
<speed>1.4</speed>
<course>331.0</course>
<desc>Speed 1.4 km/h Distance 7.55 km</desc>
<time>2010-02-28T11:42:05.72</time>
<name>5082</name>
</trkpt>
<trkpt lat="48.938582" lon="8.669855">
<ele>369.0</ele>
<speed>5.4</speed>
<course>184.5</course>
<desc>Speed 5.4 km/h Distance 7.55 km</desc>
<time>2010-02-28T11:42:07.72</time>
<name>5083</name>
</trkpt>
<trkpt lat="48.938563" lon="8.669853">
<ele>369.0</ele>
<speed>7.1</speed>
<course>202.9</course>
<desc>Speed 7.1 km/h Distance 7.55 km</desc>
<time>2010-02-28T11:42:08.73</time>
<name>5084</name>
</trkpt>
<trkpt lat="48.938545" lon="8.669842">
<ele>369.0</ele>
<speed>6.8</speed>
<course>205.2</course>
<desc>Speed 6.8 km/h Distance 7.56 km</desc>
<time>2010-02-28T11:42:09.73</time>
<name>5085</name>
</trkpt>
<trkpt lat="48.938533" lon="8.669833">
<ele>369.0</ele>
<speed>6.8</speed>
<course>245.4</course>
<desc>Speed 6.8 km/h Distance 7.56 km</desc>
<time>2010-02-28T11:42:10.73</time>
<name>5086</name>
</trkpt>
<trkpt lat="48.938528" lon="8.669817">
<ele>369.0</ele>
<speed>4.5</speed>
<course>195.3</course>
<desc>Speed 4.5 km/h Distance 7.56 km</desc>
<time>2010-02-28T11:42:11.73</time>
<name>5087</name>
</trkpt>
<trkpt lat="48.938508" lon="8.669808">
<ele>369.0</ele>
<speed>5.9</speed>
<course>276.2</course>
<desc>Speed 5.9 km/h Distance 7.56 km</desc>
<time>2010-02-28T11:42:12.72</time>
<name>5088</name>
</trkpt>
<trkpt lat="48.938510" lon="8.669785">
<ele>369.0</ele>
<speed>4.8</speed>
<course>247.4</course>
<desc>Speed 4.8 km/h Distance 7.56 km</desc>
<time>2010-02-28T11:42:13.72</time>
<name>5089</name>
</trkpt>
<trkpt lat="48.938505" lon="8.669767">
<ele>369.5</ele>
<speed>5.6</speed>
<course>203.3</course>
<desc>Speed 5.6 km/h Distance 7.57 km</desc>
<time>2010-02-28T11:42:14.72</time>
<name>5090</name>
</trkpt>
<trkpt lat="48.938490" lon="8.669757">
<ele>369.5</ele>
<speed>6.7</speed>
<course>312.4</course>
<desc>Speed 6.7 km/h Distance 7.57 km</desc>
<time>2010-02-28T11:42:15.73</time>
<name>5091</name>
</trkpt>
<trkpt lat="48.938500" lon="8.669740">
<ele>369.5</ele>
<speed>5.6</speed>
<course>304.7</course>
<desc>Speed 5.6 km/h Distance 7.57 km</desc>
<time>2010-02-28T11:42:16.73</time>
<name>5092</name>
</trkpt>
<trkpt lat="48.938508" lon="8.669722">
<ele>369.5</ele>
<speed>4.0</speed>
<course>243.0</course>
<desc>Speed 4.0 km/h Distance 7.57 km</desc>
<time>2010-02-28T11:42:17.72</time>
<name>5093</name>
</trkpt>
<trkpt lat="48.938505" lon="8.669712">
<ele>369.5</ele>
<speed>3.2</speed>
<course>317.5</course>
<desc>Speed 3.2 km/h Distance 7.57 km</desc>
<time>2010-02-28T11:42:18.73</time>
<name>5094</name>
</trkpt>
<trkpt lat="48.938522" lon="8.669688">
<ele>369.5</ele>
<speed>9.3</speed>
<course>295.1</course>
<desc>Speed 9.3 km/h Distance 7.57 km</desc>
<time>2010-02-28T11:42:19.71</time>
<name>5095</name>
</trkpt>
<trkpt lat="48.938528" lon="8.669667">
<ele>369.5</ele>
<speed>5.8</speed>
<course>289.4</course>
<desc>Speed 5.8 km/h Distance 7.58 km</desc>
<time>2010-02-28T11:42:20.71</time>
<name>5096</name>
</trkpt>
<trkpt lat="48.938533" lon="8.669645">
<ele>369.5</ele>
<speed>5.4</speed>
<course>321.2</course>
<desc>Speed 5.4 km/h Distance 7.58 km</desc>
<time>2010-02-28T11:42:21.71</time>
<name>5097</name>
</trkpt>
<trkpt lat="48.938548" lon="8.669627">
<ele>369.5</ele>
<speed>6.0</speed>
<course>290.8</course>
<desc>Speed 6.0 km/h Distance 7.58 km</desc>
<time>2010-02-28T11:42:22.72</time>
<name>5098</name>
</trkpt>
<trkpt lat="48.938552" lon="8.669613">
<ele>369.5</ele>
<speed>3.1</speed>
<course>270.0</course>
<desc>Speed 3.1 km/h Distance 7.58 km</desc>
<time>2010-02-28T11:42:23.71</time>
<name>5099</name>
</trkpt>
<trkpt lat="48.938552" lon="8.669600">
<ele>369.5</ele>
<speed>4.4</speed>
<course>255.9</course>
<desc>Speed 4.4 km/h Distance 7.58 km</desc>
<time>2010-02-28T11:42:24.71</time>
<name>5100</name>
</trkpt>
<trkpt lat="48.938550" lon="8.669590">
<ele>369.5</ele>
<speed>2.7</speed>
<course>311.6</course>
<desc>Speed 2.7 km/h Distance 7.58 km</desc>
<time>2010-02-28T11:42:25.72</time>
<name>5101</name>
</trkpt>
<trkpt lat="48.938562" lon="8.669570">
<ele>369.5</ele>
<speed>4.0</speed>
<course>218.1</course>
<desc>Speed 4.0 km/h Distance 7.58 km</desc>
<time>2010-02-28T11:42:26.71</time>
<name>5102</name>
</trkpt>
<trkpt lat="48.938553" lon="8.669560">
<ele>369.5</ele>
<speed>3.5</speed>
<course>279.6</course>
<desc>Speed 3.5 km/h Distance 7.59 km</desc>
<time>2010-02-28T11:42:27.71</time>
<name>5103</name>
</trkpt>
<trkpt lat="48.938555" lon="8.669545">
<ele>369.5</ele>
<speed>4.1</speed>
<course>314.1</course>
<desc>Speed 4.1 km/h Distance 7.59 km</desc>
<time>2010-02-28T11:42:28.72</time>
<name>5104</name>
</trkpt>
<trkpt lat="48.938567" lon="8.669527">
<ele>369.5</ele>
<speed>6.1</speed>
<course>280.8</course>
<desc>Speed 6.1 km/h Distance 7.59 km</desc>
<time>2010-02-28T11:42:29.72</time>
<name>5105</name>
</trkpt>
<trkpt lat="48.938568" lon="8.669513">
<ele>370.0</ele>
<speed>4.4</speed>
<course>286.9</course>
<desc>Speed 4.4 km/h Distance 7.59 km</desc>
<time>2010-02-28T11:42:30.71</time>
<name>5106</name>
</trkpt>
<trkpt lat="48.938572" lon="8.669497">
<ele>370.0</ele>
<speed>6.0</speed>
<course>229.8</course>
<desc>Speed 6.0 km/h Distance 7.59 km</desc>
<time>2010-02-28T11:42:31.71</time>
<name>5107</name>
</trkpt>
<trkpt lat="48.938563" lon="8.669482">
<ele>370.0</ele>
<speed>5.0</speed>
<course>296.9</course>
<desc>Speed 5.0 km/h Distance 7.59 km</desc>
<time>2010-02-28T11:42:32.72</time>
<name>5108</name>
</trkpt>
<trkpt lat="48.938570" lon="8.669462">
<ele>370.0</ele>
<speed>5.4</speed>
<course>299.7</course>
<desc>Speed 5.4 km/h Distance 7.59 km</desc>
<time>2010-02-28T11:42:33.72</time>
<name>5109</name>
</trkpt>
<trkpt lat="48.938580" lon="8.669435">
<ele>370.0</ele>
<speed>5.8</speed>
<course>201.6</course>
<desc>Speed 5.8 km/h Distance 7.60 km</desc>
<time>2010-02-28T11:42:34.72</time>
<name>5110</name>
</trkpt>
<trkpt lat="48.938563" lon="8.669425">
<ele>370.0</ele>
<speed>7.5</speed>
<course>298.5</course>
<desc>Speed 7.5 km/h Distance 7.60 km</desc>
<time>2010-02-28T11:42:35.72</time>
<name>5111</name>
</trkpt>
<trkpt lat="48.938572" lon="8.669402">
<ele>370.0</ele>
<speed>4.9</speed>
<course>288.1</course>
<desc>Speed 4.9 km/h Distance 7.60 km</desc>
<time>2010-02-28T11:42:36.72</time>
<name>5112</name>
</trkpt>
<trkpt lat="48.938577" lon="8.669378">
<ele>370.0</ele>
<speed>6.4</speed>
<course>270.0</course>
<desc>Speed 6.4 km/h Distance 7.60 km</desc>
<time>2010-02-28T11:42:37.71</time>
<name>5113</name>
</trkpt>
<trkpt lat="48.938577" lon="8.669362">
<ele>370.0</ele>
<speed>5.0</speed>
<course>262.1</course>
<desc>Speed 5.0 km/h Distance 7.60 km</desc>
<time>2010-02-28T11:42:38.72</time>
<name>5114</name>
</trkpt>
<trkpt lat="48.938575" lon="8.669343">
<ele>370.0</ele>
<speed>4.7</speed>
<course>227.8</course>
<desc>Speed 4.7 km/h Distance 7.60 km</desc>
<time>2010-02-28T11:42:39.71</time>
<name>5115</name>
</trkpt>
<trkpt lat="48.938570" lon="8.669335">
<ele>370.0</ele>
<speed>4.7</speed>
<course>285.9</course>
<desc>Speed 4.7 km/h Distance 7.61 km</desc>
<time>2010-02-28T11:42:40.71</time>
<name>5116</name>
</trkpt>
<trkpt lat="48.938575" lon="8.669308">
<ele>370.0</ele>
<speed>9.0</speed>
<course>213.3</course>
<desc>Speed 9.0 km/h Distance 7.61 km</desc>
<time>2010-02-28T11:42:41.70</time>
<name>5117</name>
</trkpt>
<trkpt lat="48.938560" lon="8.669293">
<ele>370.0</ele>
<speed>6.0</speed>
<course>220.3</course>
<desc>Speed 6.0 km/h Distance 7.61 km</desc>
<time>2010-02-28T11:42:42.70</time>
<name>5118</name>
</trkpt>
<trkpt lat="48.938548" lon="8.669278">
<ele>370.5</ele>
<speed>5.2</speed>
<course>213.3</course>
<desc>Speed 5.2 km/h Distance 7.61 km</desc>
<time>2010-02-28T11:42:43.71</time>
<name>5119</name>
</trkpt>
<trkpt lat="48.938537" lon="8.669267">
<ele>370.5</ele>
<speed>4.3</speed>
<course>225.9</course>
<desc>Speed 4.3 km/h Distance 7.61 km</desc>
<time>2010-02-28T11:42:44.71</time>
<name>5120</name>
</trkpt>
<trkpt lat="48.938525" lon="8.669248">
<ele>370.5</ele>
<speed>6.4</speed>
<course>243.2</course>
<desc>Speed 6.4 km/h Distance 7.61 km</desc>
<time>2010-02-28T11:42:45.71</time>
<name>5121</name>
</trkpt>
<trkpt lat="48.938522" lon="8.669238">
<ele>370.5</ele>
<speed>4.9</speed>
<course>288.6</course>
<desc>Speed 4.9 km/h Distance 7.61 km</desc>
<time>2010-02-28T11:42:46.71</time>
<name>5122</name>
</trkpt>
<trkpt lat="48.938525" lon="8.669223">
<ele>370.5</ele>
<speed>4.4</speed>
<course>262.1</course>
<desc>Speed 4.4 km/h Distance 7.62 km</desc>
<time>2010-02-28T11:42:47.70</time>
<name>5123</name>
</trkpt>
<trkpt lat="48.938523" lon="8.669205">
<ele>370.5</ele>
<speed>4.9</speed>
<course>238.7</course>
<desc>Speed 4.9 km/h Distance 7.62 km</desc>
<time>2010-02-28T11:42:48.72</time>
<name>5124</name>
</trkpt>
<trkpt lat="48.938517" lon="8.669188">
<ele>370.5</ele>
<speed>6.9</speed>
<course>321.7</course>
<desc>Speed 6.9 km/h Distance 7.62 km</desc>
<time>2010-02-28T11:42:49.71</time>
<name>5125</name>
</trkpt>
<trkpt lat="48.938542" lon="8.669158">
<ele>370.5</ele>
<speed>10.8</speed>
<course>289.4</course>
<desc>Speed 10.8 km/h Distance 7.62 km</desc>
<time>2010-02-28T11:42:50.71</time>
<name>5126</name>
</trkpt>
<trkpt lat="48.938547" lon="8.669137">
<ele>370.5</ele>
<speed>7.8</speed>
<course>260.4</course>
<desc>Speed 7.8 km/h Distance 7.62 km</desc>
<time>2010-02-28T11:42:52.71</time>
<name>5127</name>
</trkpt>
<trkpt lat="48.938545" lon="8.669122">
<ele>370.5</ele>
<speed>4.5</speed>
<course>209.8</course>
<desc>Speed 4.5 km/h Distance 7.63 km</desc>
<time>2010-02-28T11:42:53.71</time>
<name>5128</name>
</trkpt>
<trkpt lat="48.938532" lon="8.669110">
<ele>370.5</ele>
<speed>4.7</speed>
<course>270.0</course>
<desc>Speed 4.7 km/h Distance 7.63 km</desc>
<time>2010-02-28T11:42:54.71</time>
<name>5129</name>
</trkpt>
<trkpt lat="48.938532" lon="8.669095">
<ele>371.0</ele>
<speed>8.8</speed>
<course>285.5</course>
<desc>Speed 8.8 km/h Distance 7.63 km</desc>
<time>2010-02-28T11:42:55.71</time>
<name>5130</name>
</trkpt>
<trkpt lat="48.938535" lon="8.669077">
<ele>371.0</ele>
<speed>7.7</speed>
<course>295.1</course>
<desc>Speed 7.7 km/h Distance 7.63 km</desc>
<time>2010-02-28T11:42:56.71</time>
<name>5131</name>
</trkpt>
<trkpt lat="48.938542" lon="8.669055">
<ele>371.0</ele>
<speed>6.7</speed>
<course>207.0</course>
<desc>Speed 6.7 km/h Distance 7.63 km</desc>
<time>2010-02-28T11:42:57.71</time>
<name>5132</name>
</trkpt>
<trkpt lat="48.938527" lon="8.669043">
<ele>371.0</ele>
<speed>4.5</speed>
<course>280.8</course>
<desc>Speed 4.5 km/h Distance 7.63 km</desc>
<time>2010-02-28T11:42:58.71</time>
<name>5133</name>
</trkpt>
<trkpt lat="48.938528" lon="8.669030">
<ele>371.0</ele>
<speed>7.2</speed>
<course>313.1</course>
<desc>Speed 7.2 km/h Distance 7.63 km</desc>
<time>2010-02-28T11:42:59.71</time>
<name>5134</name>
</trkpt>
<trkpt lat="48.938542" lon="8.669008">
<ele>371.0</ele>
<speed>10.5</speed>
<course>185.5</course>
<desc>Speed 10.5 km/h Distance 7.64 km</desc>
<time>2010-02-28T11:43:00.71</time>
<name>5135</name>
</trkpt>
<trkpt lat="48.938520" lon="8.669005">
<ele>371.0</ele>
<speed>4.1</speed>
<course>182.2</course>
<desc>Speed 4.1 km/h Distance 7.64 km</desc>
<time>2010-02-28T11:43:01.71</time>
<name>5136</name>
</trkpt>
<trkpt lat="48.938493" lon="8.669003">
<ele>371.0</ele>
<speed>5.2</speed>
<course>187.3</course>
<desc>Speed 5.2 km/h Distance 7.64 km</desc>
<time>2010-02-28T11:43:02.71</time>
<name>5137</name>
</trkpt>
<trkpt lat="48.938433" lon="8.668992">
<ele>371.5</ele>
<speed>10.2</speed>
<course>270.0</course>
<desc>Speed 10.2 km/h Distance 7.65 km</desc>
<time>2010-02-28T11:43:04.71</time>
<name>5138</name>
</trkpt>
<trkpt lat="48.938433" lon="8.668965">
<ele>371.5</ele>
<speed>6.5</speed>
<course>175.0</course>
<desc>Speed 6.5 km/h Distance 7.65 km</desc>
<time>2010-02-28T11:43:06.71</time>
<name>5139</name>
</trkpt>
<trkpt lat="48.938425" lon="8.668965">
<ele>371.5</ele>
<speed>1.1</speed>
<course>184.7</course>
<desc>Speed 1.1 km/h Distance 7.65 km</desc>
<time>2010-02-28T11:43:07.71</time>
<name>5140</name>
</trkpt>
<trkpt lat="48.938413" lon="8.668963">
<ele>371.5</ele>
<speed>1.7</speed>
<course>172.3</course>
<desc>Speed 1.7 km/h Distance 7.65 km</desc>
<time>2010-02-28T11:43:08.71</time>
<name>5141</name>
</trkpt>
<trkpt lat="48.938405" lon="8.668965">
<ele>371.5</ele>
<speed>0.6</speed>
<course>341.2</course>
<desc>Speed 0.6 km/h Distance 7.65 km</desc>
<time>2010-02-28T11:43:09.70</time>
<name>5142</name>
</trkpt>
<trkpt lat="48.938412" lon="8.668962">
<ele>371.5</ele>
<speed>0.3</speed>
<course>172.6</course>
<desc>Speed 0.3 km/h Distance 7.65 km</desc>
<time>2010-02-28T11:43:10.71</time>
<name>5143</name>
</trkpt>
<trkpt lat="48.938405" lon="8.668962">
<ele>371.5</ele>
<speed>0.9</speed>
<course>157.9</course>
<desc>Speed 0.9 km/h Distance 7.66 km</desc>
<time>2010-02-28T11:43:11.70</time>
<name>5144</name>
</trkpt>
<trkpt lat="48.938392" lon="8.668970">
<ele>372.0</ele>
<speed>1.0</speed>
<course>180.0</course>
<desc>Speed 1.0 km/h Distance 7.66 km</desc>
<time>2010-02-28T11:43:12.70</time>
<name>5145</name>
</trkpt>
<trkpt lat="48.938388" lon="8.668970">
<ele>372.0</ele>
<speed>0.1</speed>
<course>341.9</course>
<desc>Speed 0.1 km/h Distance 7.66 km</desc>
<time>2010-02-28T11:43:13.70</time>
<name>5146</name>
</trkpt>
<trkpt lat="48.938402" lon="8.668963">
<ele>372.0</ele>
<speed>0.1</speed>
<course>167.4</course>
<desc>Speed 0.1 km/h Distance 7.66 km</desc>
<time>2010-02-28T11:43:14.69</time>
<name>5147</name>
</trkpt>
<trkpt lat="48.938400" lon="8.668963">
<ele>372.0</ele>
<speed>0.3</speed>
<course>203.0</course>
<desc>Speed 0.3 km/h Distance 7.66 km</desc>
<time>2010-02-28T11:43:15.69</time>
<name>5148</name>
</trkpt>
<trkpt lat="48.938397" lon="8.668962">
<ele>372.0</ele>
<speed>0.4</speed>
<course>192.6</course>
<desc>Speed 0.4 km/h Distance 7.66 km</desc>
<time>2010-02-28T11:43:16.70</time>
<name>5149</name>
</trkpt>
<trkpt lat="48.938393" lon="8.668960">
<ele>372.0</ele>
<speed>0.4</speed>
<course>167.4</course>
<desc>Speed 0.4 km/h Distance 7.66 km</desc>
<time>2010-02-28T11:43:17.70</time>
<name>5150</name>
</trkpt>
<trkpt lat="48.938392" lon="8.668960">
<ele>372.0</ele>
<speed>0.2</speed>
<course>270.0</course>
<desc>Speed 0.2 km/h Distance 7.66 km</desc>
<time>2010-02-28T11:43:18.70</time>
<name>5151</name>
</trkpt>
<trkpt lat="48.938392" lon="8.668958">
<ele>372.0</ele>
<speed>0.2</speed>
<course>167.4</course>
<desc>Speed 0.2 km/h Distance 7.66 km</desc>
<time>2010-02-28T11:43:19.69</time>
<name>5152</name>
</trkpt>
<trkpt lat="48.938390" lon="8.668958">
<ele>372.0</ele>
<speed>0.5</speed>
<course>167.4</course>
<desc>Speed 0.5 km/h Distance 7.66 km</desc>
<time>2010-02-28T11:43:20.69</time>
<name>5153</name>
</trkpt>
<trkpt lat="48.938388" lon="8.668958">
<ele>372.0</ele>
<speed>0.3</speed>
<course>167.4</course>
<desc>Speed 0.3 km/h Distance 7.66 km</desc>
<time>2010-02-28T11:43:21.70</time>
<name>5154</name>
</trkpt>
<trkpt lat="48.938388" lon="8.668958">
<ele>372.5</ele>
<speed>0.4</speed>
<course>167.4</course>
<desc>Speed 0.4 km/h Distance 7.66 km</desc>
<time>2010-02-28T11:43:22.70</time>
<name>5155</name>
</trkpt>
<trkpt lat="48.938387" lon="8.668958">
<ele>372.5</ele>
<speed>0.3</speed>
<course>180.0</course>
<desc>Speed 0.3 km/h Distance 7.66 km</desc>
<time>2010-02-28T11:43:23.70</time>
<name>5156</name>
</trkpt>
<trkpt lat="48.938385" lon="8.668958">
<ele>372.5</ele>
<speed>0.1</speed>
<course>167.4</course>
<desc>Speed 0.1 km/h Distance 7.66 km</desc>
<time>2010-02-28T11:43:24.70</time>
<name>5157</name>
</trkpt>
<trkpt lat="48.938383" lon="8.668958">
<ele>372.5</ele>
<speed>0.1</speed>
<course>167.4</course>
<desc>Speed 0.1 km/h Distance 7.66 km</desc>
<time>2010-02-28T11:43:25.70</time>
<name>5158</name>
</trkpt>
<trkpt lat="48.938383" lon="8.668958">
<ele>372.5</ele>
<speed>0.3</speed>
<course>270.0</course>
<desc>Speed 0.3 km/h Distance 7.66 km</desc>
<time>2010-02-28T11:43:26.70</time>
<name>5159</name>
</trkpt>
<trkpt lat="48.938383" lon="8.668957">
<ele>372.5</ele>
<speed>0.4</speed>
<course>167.4</course>
<desc>Speed 0.4 km/h Distance 7.66 km</desc>
<time>2010-02-28T11:43:27.70</time>
<name>5160</name>
</trkpt>
<trkpt lat="48.938382" lon="8.668957">
<ele>372.5</ele>
<speed>0.3</speed>
<course>167.4</course>
<desc>Speed 0.3 km/h Distance 7.66 km</desc>
<time>2010-02-28T11:43:28.70</time>
<name>5161</name>
</trkpt>
<trkpt lat="48.938382" lon="8.668957">
<ele>372.5</ele>
<speed>0.1</speed>
<course>167.4</course>
<desc>Speed 0.1 km/h Distance 7.66 km</desc>
<time>2010-02-28T11:43:29.70</time>
<name>5162</name>
</trkpt>
<trkpt lat="48.938382" lon="8.668957">
<ele>372.5</ele>
<speed>0.3</speed>
<course>180.0</course>
<desc>Speed 0.3 km/h Distance 7.66 km</desc>
<time>2010-02-28T11:43:30.69</time>
<name>5163</name>
</trkpt>
<trkpt lat="48.938380" lon="8.668957">
<ele>372.5</ele>
<speed>0.3</speed>
<course>172.3</course>
<desc>Speed 0.3 km/h Distance 7.66 km</desc>
<time>2010-02-28T11:43:31.69</time>
<name>5164</name>
</trkpt>
<trkpt lat="48.938372" lon="8.668958">
<ele>372.5</ele>
<speed>0.8</speed>
<course>161.2</course>
<desc>Speed 0.8 km/h Distance 7.66 km</desc>
<time>2010-02-28T11:43:32.69</time>
<name>5165</name>
</trkpt>
<trkpt lat="48.938368" lon="8.668960">
<ele>372.5</ele>
<speed>2.1</speed>
<course>270.0</course>
<desc>Speed 2.1 km/h Distance 7.66 km</desc>
<time>2010-02-28T11:43:33.69</time>
<name>5166</name>
</trkpt>
<trkpt lat="48.938368" lon="8.668958">
<ele>372.5</ele>
<speed>0.3</speed>
<course>156.2</course>
<desc>Speed 0.3 km/h Distance 7.66 km</desc>
<time>2010-02-28T11:43:34.69</time>
<name>5167</name>
</trkpt>
<trkpt lat="48.938363" lon="8.668962">
<ele>372.5</ele>
<speed>1.6</speed>
<course>270.0</course>
<desc>Speed 1.6 km/h Distance 7.66 km</desc>
<time>2010-02-28T11:43:35.69</time>
<name>5168</name>
</trkpt>
<trkpt lat="48.938363" lon="8.668960">
<ele>372.5</ele>
<speed>0.4</speed>
<course>167.4</course>
<desc>Speed 0.4 km/h Distance 7.66 km</desc>
<time>2010-02-28T11:43:36.69</time>
<name>5169</name>
</trkpt>
<trkpt lat="48.938362" lon="8.668960">
<ele>372.5</ele>
<speed>0.3</speed>
<course>301.4</course>
<desc>Speed 0.3 km/h Distance 7.66 km</desc>
<time>2010-02-28T11:43:37.69</time>
<name>5170</name>
</trkpt>
<trkpt lat="48.938365" lon="8.668952">
<ele>373.0</ele>
<speed>1.3</speed>
<course>308.1</course>
<desc>Speed 1.3 km/h Distance 7.66 km</desc>
<time>2010-02-28T11:43:38.69</time>
<name>5171</name>
</trkpt>
<trkpt lat="48.938367" lon="8.668948">
<ele>373.0</ele>
<speed>1.8</speed>
<course>233.0</course>
<desc>Speed 1.8 km/h Distance 7.66 km</desc>
<time>2010-02-28T11:43:39.69</time>
<name>5172</name>
</trkpt>
<trkpt lat="48.938363" lon="8.668942">
<ele>373.0</ele>
<speed>2.8</speed>
<course>252.9</course>
<desc>Speed 2.8 km/h Distance 7.67 km</desc>
<time>2010-02-28T11:43:40.69</time>
<name>5173</name>
</trkpt>
<trkpt lat="48.938362" lon="8.668933">
<ele>373.0</ele>
<speed>3.0</speed>
<course>282.3</course>
<desc>Speed 3.0 km/h Distance 7.67 km</desc>
<time>2010-02-28T11:43:41.69</time>
<name>5174</name>
</trkpt>
<trkpt lat="48.938363" lon="8.668922">
<ele>373.5</ele>
<speed>3.1</speed>
<course>249.1</course>
<desc>Speed 3.1 km/h Distance 7.67 km</desc>
<time>2010-02-28T11:43:42.69</time>
<name>5175</name>
</trkpt>
<trkpt lat="48.938362" lon="8.668915">
<ele>373.5</ele>
<speed>2.4</speed>
<course>233.9</course>
<desc>Speed 2.4 km/h Distance 7.67 km</desc>
<time>2010-02-28T11:43:43.68</time>
<name>5176</name>
</trkpt>
<trkpt lat="48.938360" lon="8.668912">
<ele>373.5</ele>
<speed>1.8</speed>
<course>315.5</course>
<desc>Speed 1.8 km/h Distance 7.67 km</desc>
<time>2010-02-28T11:43:44.68</time>
<name>5177</name>
</trkpt>
<trkpt lat="48.938363" lon="8.668907">
<ele>373.5</ele>
<speed>2.3</speed>
<course>311.1</course>
<desc>Speed 2.3 km/h Distance 7.67 km</desc>
<time>2010-02-28T11:43:45.69</time>
<name>5178</name>
</trkpt>
<trkpt lat="48.938370" lon="8.668895">
<ele>373.5</ele>
<speed>2.9</speed>
<course>315.5</course>
<desc>Speed 2.9 km/h Distance 7.67 km</desc>
<time>2010-02-28T11:43:46.69</time>
<name>5179</name>
</trkpt>
<trkpt lat="48.938377" lon="8.668885">
<ele>373.5</ele>
<speed>2.4</speed>
<course>315.5</course>
<desc>Speed 2.4 km/h Distance 7.67 km</desc>
<time>2010-02-28T11:43:47.69</time>
<name>5180</name>
</trkpt>
<trkpt lat="48.938383" lon="8.668875">
<ele>373.5</ele>
<speed>3.2</speed>
<course>319.1</course>
<desc>Speed 3.2 km/h Distance 7.67 km</desc>
<time>2010-02-28T11:43:48.69</time>
<name>5181</name>
</trkpt>
<trkpt lat="48.938388" lon="8.668868">
<ele>373.5</ele>
<speed>1.9</speed>
<course>333.8</course>
<desc>Speed 1.9 km/h Distance 7.67 km</desc>
<time>2010-02-28T11:43:49.69</time>
<name>5182</name>
</trkpt>
<trkpt lat="48.938402" lon="8.668858">
<ele>374.0</ele>
<speed>2.1</speed>
<course>307.0</course>
<desc>Speed 2.1 km/h Distance 7.67 km</desc>
<time>2010-02-28T11:43:50.69</time>
<name>5183</name>
</trkpt>
<trkpt lat="48.938405" lon="8.668852">
<ele>374.0</ele>
<speed>1.0</speed>
<course>290.5</course>
<desc>Speed 1.0 km/h Distance 7.67 km</desc>
<time>2010-02-28T11:43:51.69</time>
<name>5184</name>
</trkpt>
<trkpt lat="48.938407" lon="8.668845">
<ele>374.0</ele>
<speed>1.9</speed>
<course>270.0</course>
<desc>Speed 1.9 km/h Distance 7.67 km</desc>
<time>2010-02-28T11:43:52.69</time>
<name>5185</name>
</trkpt>
<trkpt lat="48.938407" lon="8.668835">
<ele>374.0</ele>
<speed>1.5</speed>
<course>282.3</course>
<desc>Speed 1.5 km/h Distance 7.68 km</desc>
<time>2010-02-28T11:43:53.69</time>
<name>5186</name>
</trkpt>
<trkpt lat="48.938408" lon="8.668823">
<ele>374.0</ele>
<speed>2.8</speed>
<course>280.7</course>
<desc>Speed 2.8 km/h Distance 7.68 km</desc>
<time>2010-02-28T11:43:54.69</time>
<name>5187</name>
</trkpt>
<trkpt lat="48.938410" lon="8.668810">
<ele>374.0</ele>
<speed>2.8</speed>
<course>315.5</course>
<desc>Speed 2.8 km/h Distance 7.68 km</desc>
<time>2010-02-28T11:43:55.69</time>
<name>5188</name>
</trkpt>
<trkpt lat="48.938417" lon="8.668800">
<ele>374.0</ele>
<speed>3.1</speed>
<course>303.1</course>
<desc>Speed 3.1 km/h Distance 7.68 km</desc>
<time>2010-02-28T11:43:56.69</time>
<name>5189</name>
</trkpt>
<trkpt lat="48.938422" lon="8.668788">
<ele>374.0</ele>
<speed>3.4</speed>
<course>302.9</course>
<desc>Speed 3.4 km/h Distance 7.68 km</desc>
<time>2010-02-28T11:43:57.68</time>
<name>5190</name>
</trkpt>
<trkpt lat="48.938427" lon="8.668777">
<ele>374.0</ele>
<speed>1.5</speed>
<course>279.6</course>
<desc>Speed 1.5 km/h Distance 7.68 km</desc>
<time>2010-02-28T11:43:58.69</time>
<name>5191</name>
</trkpt>
<trkpt lat="48.938428" lon="8.668762">
<ele>374.0</ele>
<speed>2.7</speed>
<course>326.5</course>
<desc>Speed 2.7 km/h Distance 7.68 km</desc>
<time>2010-02-28T11:43:59.69</time>
<name>5192</name>
</trkpt>
<trkpt lat="48.938437" lon="8.668753">
<ele>374.0</ele>
<speed>3.2</speed>
<course>332.1</course>
<desc>Speed 3.2 km/h Distance 7.68 km</desc>
<time>2010-02-28T11:44:00.69</time>
<name>5193</name>
</trkpt>
<trkpt lat="48.938445" lon="8.668747">
<ele>374.0</ele>
<speed>3.9</speed>
<course>342.5</course>
<desc>Speed 3.9 km/h Distance 7.68 km</desc>
<time>2010-02-28T11:44:01.68</time>
<name>5194</name>
</trkpt>
<trkpt lat="48.938452" lon="8.668743">
<ele>374.5</ele>
<speed>0.7</speed>
<course>326.8</course>
<desc>Speed 0.7 km/h Distance 7.68 km</desc>
<time>2010-02-28T11:44:02.68</time>
<name>5195</name>
</trkpt>
<trkpt lat="48.938460" lon="8.668735">
<ele>374.5</ele>
<speed>2.6</speed>
<course>312.9</course>
<desc>Speed 2.6 km/h Distance 7.69 km</desc>
<time>2010-02-28T11:44:03.68</time>
<name>5196</name>
</trkpt>
<trkpt lat="48.938465" lon="8.668727">
<ele>374.5</ele>
<speed>2.6</speed>
<course>297.0</course>
<desc>Speed 2.6 km/h Distance 7.69 km</desc>
<time>2010-02-28T11:44:04.68</time>
<name>5197</name>
</trkpt>
<trkpt lat="48.938468" lon="8.668717">
<ele>374.5</ele>
<speed>2.3</speed>
<course>224.5</course>
<desc>Speed 2.3 km/h Distance 7.69 km</desc>
<time>2010-02-28T11:44:05.68</time>
<name>5198</name>
</trkpt>
<trkpt lat="48.938465" lon="8.668712">
<ele>374.5</ele>
<speed>1.6</speed>
<course>284.2</course>
<desc>Speed 1.6 km/h Distance 7.69 km</desc>
<time>2010-02-28T11:44:06.68</time>
<name>5199</name>
</trkpt>
<trkpt lat="48.938467" lon="8.668702">
<ele>374.5</ele>
<speed>1.7</speed>
<course>293.5</course>
<desc>Speed 1.7 km/h Distance 7.69 km</desc>
<time>2010-02-28T11:44:07.68</time>
<name>5200</name>
</trkpt>
<trkpt lat="48.938470" lon="8.668690">
<ele>374.5</ele>
<speed>2.1</speed>
<course>307.2</course>
<desc>Speed 2.1 km/h Distance 7.69 km</desc>
<time>2010-02-28T11:44:08.68</time>
<name>5201</name>
</trkpt>
<trkpt lat="48.938475" lon="8.668680">
<ele>374.5</ele>
<speed>1.6</speed>
<course>316.8</course>
<desc>Speed 1.6 km/h Distance 7.69 km</desc>
<time>2010-02-28T11:44:09.68</time>
<name>5202</name>
</trkpt>
<trkpt lat="48.938487" lon="8.668663">
<ele>374.5</ele>
<speed>6.1</speed>
<course>318.7</course>
<desc>Speed 6.1 km/h Distance 7.69 km</desc>
<time>2010-02-28T11:44:10.69</time>
<name>5203</name>
</trkpt>
<trkpt lat="48.938497" lon="8.668650">
<ele>374.5</ele>
<speed>3.2</speed>
<course>327.7</course>
<desc>Speed 3.2 km/h Distance 7.69 km</desc>
<time>2010-02-28T11:44:11.68</time>
<name>5204</name>
</trkpt>
<trkpt lat="48.938502" lon="8.668645">
<ele>374.5</ele>
<speed>1.2</speed>
<course>317.4</course>
<desc>Speed 1.2 km/h Distance 7.69 km</desc>
<time>2010-02-28T11:44:12.67</time>
<name>5205</name>
</trkpt>
<trkpt lat="48.938510" lon="8.668633">
<ele>374.5</ele>
<speed>3.0</speed>
<course>326.6</course>
<desc>Speed 3.0 km/h Distance 7.70 km</desc>
<time>2010-02-28T11:44:13.68</time>
<name>5206</name>
</trkpt>
<trkpt lat="48.938520" lon="8.668623">
<ele>374.5</ele>
<speed>2.4</speed>
<course>317.8</course>
<desc>Speed 2.4 km/h Distance 7.70 km</desc>
<time>2010-02-28T11:44:14.68</time>
<name>5207</name>
</trkpt>
<trkpt lat="48.938533" lon="8.668605">
<ele>374.5</ele>
<speed>3.7</speed>
<course>326.8</course>
<desc>Speed 3.7 km/h Distance 7.70 km</desc>
<time>2010-02-28T11:44:15.68</time>
<name>5208</name>
</trkpt>
<trkpt lat="48.938543" lon="8.668595">
<ele>374.0</ele>
<speed>3.1</speed>
<course>322.5</course>
<desc>Speed 3.1 km/h Distance 7.70 km</desc>
<time>2010-02-28T11:44:16.71</time>
<name>5209</name>
</trkpt>
<trkpt lat="48.938553" lon="8.668583">
<ele>374.0</ele>
<speed>2.3</speed>
<course>311.6</course>
<desc>Speed 2.3 km/h Distance 7.70 km</desc>
<time>2010-02-28T11:44:17.67</time>
<name>5210</name>
</trkpt>
<trkpt lat="48.938565" lon="8.668563">
<ele>374.0</ele>
<speed>2.5</speed>
<course>320.6</course>
<desc>Speed 2.5 km/h Distance 7.70 km</desc>
<time>2010-02-28T11:44:18.67</time>
<name>5211</name>
</trkpt>
<trkpt lat="48.938572" lon="8.668555">
<ele>374.0</ele>
<speed>3.0</speed>
<course>304.1</course>
<desc>Speed 3.0 km/h Distance 7.70 km</desc>
<time>2010-02-28T11:44:19.67</time>
<name>5212</name>
</trkpt>
<trkpt lat="48.938578" lon="8.668540">
<ele>374.0</ele>
<speed>2.8</speed>
<course>310.3</course>
<desc>Speed 2.8 km/h Distance 7.71 km</desc>
<time>2010-02-28T11:44:20.67</time>
<name>5213</name>
</trkpt>
<trkpt lat="48.938587" lon="8.668525">
<ele>374.0</ele>
<speed>2.9</speed>
<course>293.5</course>
<desc>Speed 2.9 km/h Distance 7.71 km</desc>
<time>2010-02-28T11:44:21.67</time>
<name>5214</name>
</trkpt>
<trkpt lat="48.938590" lon="8.668513">
<ele>374.0</ele>
<speed>3.3</speed>
<course>329.4</course>
<desc>Speed 3.3 km/h Distance 7.71 km</desc>
<time>2010-02-28T11:44:22.67</time>
<name>5215</name>
</trkpt>
<trkpt lat="48.938607" lon="8.668498">
<ele>374.0</ele>
<speed>2.3</speed>
<course>8.1</course>
<desc>Speed 2.3 km/h Distance 7.71 km</desc>
<time>2010-02-28T11:44:23.67</time>
<name>5216</name>
</trkpt>
<trkpt lat="48.938630" lon="8.668503">
<ele>374.0</ele>
<speed>6.4</speed>
<course>341.8</course>
<desc>Speed 6.4 km/h Distance 7.71 km</desc>
<time>2010-02-28T11:44:24.67</time>
<name>5217</name>
</trkpt>
<trkpt lat="48.938650" lon="8.668493">
<ele>374.0</ele>
<speed>3.9</speed>
<course>290.9</course>
<desc>Speed 3.9 km/h Distance 7.72 km</desc>
<time>2010-02-28T11:44:25.70</time>
<name>5218</name>
</trkpt>
<trkpt lat="48.938657" lon="8.668467">
<ele>374.0</ele>
<speed>6.6</speed>
<course>249.1</course>
<desc>Speed 6.6 km/h Distance 7.72 km</desc>
<time>2010-02-28T11:44:26.67</time>
<name>5219</name>
</trkpt>
<trkpt lat="48.938655" lon="8.668460">
<ele>374.0</ele>
<speed>2.2</speed>
<course>335.7</course>
<desc>Speed 2.2 km/h Distance 7.72 km</desc>
<time>2010-02-28T11:44:27.67</time>
<name>5220</name>
</trkpt>
<trkpt lat="48.938708" lon="8.668423">
<ele>374.0</ele>
<speed>9.8</speed>
<course>307.2</course>
<desc>Speed 9.8 km/h Distance 7.72 km</desc>
<time>2010-02-28T11:44:29.67</time>
<name>5221</name>
</trkpt>
<trkpt lat="48.938713" lon="8.668413">
<ele>374.0</ele>
<speed>3.2</speed>
<course>316.5</course>
<desc>Speed 3.2 km/h Distance 7.73 km</desc>
<time>2010-02-28T11:44:30.66</time>
<name>5222</name>
</trkpt>
<trkpt lat="48.938743" lon="8.668370">
<ele>374.0</ele>
<speed>3.6</speed>
<course>307.3</course>
<desc>Speed 3.6 km/h Distance 7.73 km</desc>
<time>2010-02-28T11:44:32.69</time>
<name>5223</name>
</trkpt>
<trkpt lat="48.938752" lon="8.668353">
<ele>373.5</ele>
<speed>2.7</speed>
<course>284.2</course>
<desc>Speed 2.7 km/h Distance 7.73 km</desc>
<time>2010-02-28T11:44:33.66</time>
<name>5224</name>
</trkpt>
<trkpt lat="48.938755" lon="8.668333">
<ele>374.0</ele>
<speed>5.1</speed>
<course>326.7</course>
<desc>Speed 5.1 km/h Distance 7.73 km</desc>
<time>2010-02-28T11:44:34.66</time>
<name>5225</name>
</trkpt>
<trkpt lat="48.938778" lon="8.668310">
<ele>374.0</ele>
<speed>4.3</speed>
<course>294.5</course>
<desc>Speed 4.3 km/h Distance 7.74 km</desc>
<time>2010-02-28T11:44:35.66</time>
<name>5226</name>
</trkpt>
<trkpt lat="48.938783" lon="8.668293">
<ele>374.0</ele>
<speed>4.0</speed>
<course>288.7</course>
<desc>Speed 4.0 km/h Distance 7.74 km</desc>
<time>2010-02-28T11:44:36.66</time>
<name>5227</name>
</trkpt>
<trkpt lat="48.938787" lon="8.668278">
<ele>374.0</ele>
<speed>3.7</speed>
<course>277.2</course>
<desc>Speed 3.7 km/h Distance 7.74 km</desc>
<time>2010-02-28T11:44:37.66</time>
<name>5228</name>
</trkpt>
<trkpt lat="48.938788" lon="8.668258">
<ele>374.0</ele>
<speed>3.2</speed>
<course>333.6</course>
<desc>Speed 3.2 km/h Distance 7.74 km</desc>
<time>2010-02-28T11:44:38.66</time>
<name>5229</name>
</trkpt>
<trkpt lat="48.938795" lon="8.668253">
<ele>374.0</ele>
<speed>3.2</speed>
<course>308.1</course>
<desc>Speed 3.2 km/h Distance 7.74 km</desc>
<time>2010-02-28T11:44:39.66</time>
<name>5230</name>
</trkpt>
<trkpt lat="48.938797" lon="8.668250">
<ele>374.0</ele>
<speed>1.0</speed>
<course>308.1</course>
<desc>Speed 1.0 km/h Distance 7.74 km</desc>
<time>2010-02-28T11:44:40.65</time>
<name>5231</name>
</trkpt>
<trkpt lat="48.938798" lon="8.668247">
<ele>374.0</ele>
<speed>1.4</speed>
<course>223.5</course>
<desc>Speed 1.4 km/h Distance 7.74 km</desc>
<time>2010-02-28T11:44:41.66</time>
<name>5232</name>
</trkpt>
<trkpt lat="48.938795" lon="8.668242">
<ele>374.0</ele>
<speed>1.8</speed>
<course>350.5</course>
<desc>Speed 1.8 km/h Distance 7.74 km</desc>
<time>2010-02-28T11:44:42.65</time>
<name>5233</name>
</trkpt>
<trkpt lat="48.938807" lon="8.668238">
<ele>374.0</ele>
<speed>3.1</speed>
<course>322.8</course>
<desc>Speed 3.1 km/h Distance 7.74 km</desc>
<time>2010-02-28T11:44:43.65</time>
<name>5234</name>
</trkpt>
<trkpt lat="48.938817" lon="8.668227">
<ele>374.0</ele>
<speed>3.6</speed>
<course>324.0</course>
<desc>Speed 3.6 km/h Distance 7.74 km</desc>
<time>2010-02-28T11:44:44.64</time>
<name>5235</name>
</trkpt>
<trkpt lat="48.938832" lon="8.668210">
<ele>374.0</ele>
<speed>4.2</speed>
<course>318.8</course>
<desc>Speed 4.2 km/h Distance 7.75 km</desc>
<time>2010-02-28T11:44:45.64</time>
<name>5236</name>
</trkpt>
<trkpt lat="48.938842" lon="8.668197">
<ele>374.0</ele>
<speed>2.3</speed>
<course>326.3</course>
<desc>Speed 2.3 km/h Distance 7.75 km</desc>
<time>2010-02-28T11:44:46.65</time>
<name>5237</name>
</trkpt>
<trkpt lat="48.938848" lon="8.668190">
<ele>374.0</ele>
<speed>3.3</speed>
<course>326.8</course>
<desc>Speed 3.3 km/h Distance 7.75 km</desc>
<time>2010-02-28T11:44:47.64</time>
<name>5238</name>
</trkpt>
<trkpt lat="48.938857" lon="8.668182">
<ele>374.0</ele>
<speed>3.1</speed>
<course>287.1</course>
<desc>Speed 3.1 km/h Distance 7.75 km</desc>
<time>2010-02-28T11:44:48.65</time>
<name>5239</name>
</trkpt>
<trkpt lat="48.938858" lon="8.668173">
<ele>374.0</ele>
<speed>2.0</speed>
<course>329.9</course>
<desc>Speed 2.0 km/h Distance 7.75 km</desc>
<time>2010-02-28T11:44:49.65</time>
<name>5240</name>
</trkpt>
<trkpt lat="48.938887" lon="8.668148">
<ele>374.0</ele>
<speed>2.7</speed>
<course>280.8</course>
<desc>Speed 2.7 km/h Distance 7.75 km</desc>
<time>2010-02-28T11:44:51.65</time>
<name>5241</name>
</trkpt>
<trkpt lat="48.938890" lon="8.668122">
<ele>374.0</ele>
<speed>6.7</speed>
<course>312.6</course>
<desc>Speed 6.7 km/h Distance 7.76 km</desc>
<time>2010-02-28T11:44:52.65</time>
<name>5242</name>
</trkpt>
<trkpt lat="48.938895" lon="8.668113">
<ele>374.0</ele>
<speed>4.0</speed>
<course>192.6</course>
<desc>Speed 4.0 km/h Distance 7.76 km</desc>
<time>2010-02-28T11:44:53.64</time>
<name>5243</name>
</trkpt>
<trkpt lat="48.938893" lon="8.668112">
<ele>374.0</ele>
<speed>0.8</speed>
<course>337.8</course>
<desc>Speed 0.8 km/h Distance 7.76 km</desc>
<time>2010-02-28T11:44:54.64</time>
<name>5244</name>
</trkpt>
<trkpt lat="48.938898" lon="8.668108">
<ele>374.0</ele>
<speed>0.2</speed>
<course>335.2</course>
<desc>Speed 0.2 km/h Distance 7.76 km</desc>
<time>2010-02-28T11:44:55.64</time>
<name>5245</name>
</trkpt>
<trkpt lat="48.938905" lon="8.668103">
<ele>373.5</ele>
<speed>0.5</speed>
<course>13.5</course>
<desc>Speed 0.5 km/h Distance 7.76 km</desc>
<time>2010-02-28T11:44:56.64</time>
<name>5246</name>
</trkpt>
<trkpt lat="48.938918" lon="8.668108">
<ele>373.5</ele>
<speed>1.3</speed>
<course>326.8</course>
<desc>Speed 1.3 km/h Distance 7.76 km</desc>
<time>2010-02-28T11:44:57.64</time>
<name>5247</name>
</trkpt>
<trkpt lat="48.938928" lon="8.668098">
<ele>373.5</ele>
<speed>2.9</speed>
<course>341.8</course>
<desc>Speed 2.9 km/h Distance 7.76 km</desc>
<time>2010-02-28T11:44:58.64</time>
<name>5248</name>
</trkpt>
<trkpt lat="48.938938" lon="8.668093">
<ele>373.5</ele>
<speed>3.0</speed>
<course>336.2</course>
<desc>Speed 3.0 km/h Distance 7.76 km</desc>
<time>2010-02-28T11:44:59.64</time>
<name>5249</name>
</trkpt>
<trkpt lat="48.938948" lon="8.668087">
<ele>373.5</ele>
<speed>2.7</speed>
<course>337.4</course>
<desc>Speed 2.7 km/h Distance 7.76 km</desc>
<time>2010-02-28T11:45:00.64</time>
<name>5250</name>
</trkpt>
<trkpt lat="48.938962" lon="8.668078">
<ele>373.5</ele>
<speed>3.9</speed>
<course>316.7</course>
<desc>Speed 3.9 km/h Distance 7.77 km</desc>
<time>2010-02-28T11:45:01.64</time>
<name>5251</name>
</trkpt>
<trkpt lat="48.938973" lon="8.668062">
<ele>373.5</ele>
<speed>3.7</speed>
<course>326.7</course>
<desc>Speed 3.7 km/h Distance 7.77 km</desc>
<time>2010-02-28T11:45:02.64</time>
<name>5252</name>
</trkpt>
<trkpt lat="48.938985" lon="8.668050">
<ele>373.5</ele>
<speed>3.4</speed>
<course>299.7</course>
<desc>Speed 3.4 km/h Distance 7.77 km</desc>
<time>2010-02-28T11:45:03.64</time>
<name>5253</name>
</trkpt>
<trkpt lat="48.938990" lon="8.668037">
<ele>373.5</ele>
<speed>3.4</speed>
<course>310.3</course>
<desc>Speed 3.4 km/h Distance 7.77 km</desc>
<time>2010-02-28T11:45:04.64</time>
<name>5254</name>
</trkpt>
<trkpt lat="48.938998" lon="8.668022">
<ele>373.5</ele>
<speed>4.1</speed>
<course>326.6</course>
<desc>Speed 4.1 km/h Distance 7.77 km</desc>
<time>2010-02-28T11:45:05.64</time>
<name>5255</name>
</trkpt>
<trkpt lat="48.939010" lon="8.668010">
<ele>373.5</ele>
<speed>3.9</speed>
<course>320.6</course>
<desc>Speed 3.9 km/h Distance 7.77 km</desc>
<time>2010-02-28T11:45:06.66</time>
<name>5256</name>
</trkpt>
<trkpt lat="48.939023" lon="8.667993">
<ele>373.0</ele>
<speed>4.1</speed>
<course>329.7</course>
<desc>Speed 4.1 km/h Distance 7.78 km</desc>
<time>2010-02-28T11:45:07.64</time>
<name>5257</name>
</trkpt>
<trkpt lat="48.939038" lon="8.667980">
<ele>373.0</ele>
<speed>3.6</speed>
<course>318.8</course>
<desc>Speed 3.6 km/h Distance 7.78 km</desc>
<time>2010-02-28T11:45:08.66</time>
<name>5258</name>
</trkpt>
<trkpt lat="48.939048" lon="8.667967">
<ele>373.0</ele>
<speed>4.4</speed>
<course>326.7</course>
<desc>Speed 4.4 km/h Distance 7.78 km</desc>
<time>2010-02-28T11:45:09.66</time>
<name>5259</name>
</trkpt>
<trkpt lat="48.939062" lon="8.667953">
<ele>373.0</ele>
<speed>3.7</speed>
<course>319.8</course>
<desc>Speed 3.7 km/h Distance 7.78 km</desc>
<time>2010-02-28T11:45:10.64</time>
<name>5260</name>
</trkpt>
<trkpt lat="48.939073" lon="8.667938">
<ele>373.0</ele>
<speed>4.7</speed>
<course>315.4</course>
<desc>Speed 4.7 km/h Distance 7.78 km</desc>
<time>2010-02-28T11:45:11.64</time>
<name>5261</name>
</trkpt>
<trkpt lat="48.939083" lon="8.667923">
<ele>373.0</ele>
<speed>4.6</speed>
<course>318.8</course>
<desc>Speed 4.6 km/h Distance 7.78 km</desc>
<time>2010-02-28T11:45:12.64</time>
<name>5262</name>
</trkpt>
<trkpt lat="48.939093" lon="8.667910">
<ele>373.0</ele>
<speed>4.0</speed>
<course>326.6</course>
<desc>Speed 4.0 km/h Distance 7.79 km</desc>
<time>2010-02-28T11:45:13.64</time>
<name>5263</name>
</trkpt>
<trkpt lat="48.939105" lon="8.667898">
<ele>373.0</ele>
<speed>4.1</speed>
<course>315.5</course>
<desc>Speed 4.1 km/h Distance 7.79 km</desc>
<time>2010-02-28T11:45:14.65</time>
<name>5264</name>
</trkpt>
<trkpt lat="48.939115" lon="8.667883">
<ele>373.0</ele>
<speed>3.8</speed>
<course>317.9</course>
<desc>Speed 3.8 km/h Distance 7.79 km</desc>
<time>2010-02-28T11:45:15.63</time>
<name>5265</name>
</trkpt>
<trkpt lat="48.939128" lon="8.667865">
<ele>372.5</ele>
<speed>4.6</speed>
<course>315.5</course>
<desc>Speed 4.6 km/h Distance 7.79 km</desc>
<time>2010-02-28T11:45:16.63</time>
<name>5266</name>
</trkpt>
<trkpt lat="48.939138" lon="8.667850">
<ele>372.5</ele>
<speed>3.4</speed>
<course>332.1</course>
<desc>Speed 3.4 km/h Distance 7.79 km</desc>
<time>2010-02-28T11:45:17.66</time>
<name>5267</name>
</trkpt>
<trkpt lat="48.939147" lon="8.667843">
<ele>372.5</ele>
<speed>3.3</speed>
<course>323.1</course>
<desc>Speed 3.3 km/h Distance 7.79 km</desc>
<time>2010-02-28T11:45:18.63</time>
<name>5268</name>
</trkpt>
<trkpt lat="48.939158" lon="8.667830">
<ele>373.0</ele>
<speed>3.5</speed>
<course>326.2</course>
<desc>Speed 3.5 km/h Distance 7.79 km</desc>
<time>2010-02-28T11:45:19.63</time>
<name>5269</name>
</trkpt>
<trkpt lat="48.939167" lon="8.667822">
<ele>373.0</ele>
<speed>3.1</speed>
<course>321.9</course>
<desc>Speed 3.1 km/h Distance 7.80 km</desc>
<time>2010-02-28T11:45:20.63</time>
<name>5270</name>
</trkpt>
<trkpt lat="48.939175" lon="8.667812">
<ele>373.0</ele>
<speed>3.0</speed>
<course>333.6</course>
<desc>Speed 3.0 km/h Distance 7.80 km</desc>
<time>2010-02-28T11:45:21.63</time>
<name>5271</name>
</trkpt>
<trkpt lat="48.939188" lon="8.667802">
<ele>373.0</ele>
<speed>4.9</speed>
<course>312.4</course>
<desc>Speed 4.9 km/h Distance 7.80 km</desc>
<time>2010-02-28T11:45:22.63</time>
<name>5272</name>
</trkpt>
<trkpt lat="48.939198" lon="8.667785">
<ele>373.0</ele>
<speed>4.9</speed>
<course>320.6</course>
<desc>Speed 4.9 km/h Distance 7.80 km</desc>
<time>2010-02-28T11:45:23.63</time>
<name>5273</name>
</trkpt>
<trkpt lat="48.939212" lon="8.667768">
<ele>373.0</ele>
<speed>5.2</speed>
<course>329.3</course>
<desc>Speed 5.2 km/h Distance 7.80 km</desc>
<time>2010-02-28T11:45:24.63</time>
<name>5274</name>
</trkpt>
<trkpt lat="48.939228" lon="8.667753">
<ele>373.0</ele>
<speed>4.9</speed>
<course>311.0</course>
<desc>Speed 4.9 km/h Distance 7.80 km</desc>
<time>2010-02-28T11:45:25.63</time>
<name>5275</name>
</trkpt>
<trkpt lat="48.939242" lon="8.667730">
<ele>373.0</ele>
<speed>5.4</speed>
<course>304.1</course>
<desc>Speed 5.4 km/h Distance 7.81 km</desc>
<time>2010-02-28T11:45:26.63</time>
<name>5276</name>
</trkpt>
<trkpt lat="48.939248" lon="8.667715">
<ele>373.0</ele>
<speed>4.8</speed>
<course>180.0</course>
<desc>Speed 4.8 km/h Distance 7.81 km</desc>
<time>2010-02-28T11:45:27.63</time>
<name>5277</name>
</trkpt>
<trkpt lat="48.939232" lon="8.667715">
<ele>373.0</ele>
<speed>7.9</speed>
<course>337.0</course>
<desc>Speed 7.9 km/h Distance 7.81 km</desc>
<time>2010-02-28T11:45:28.63</time>
<name>5278</name>
</trkpt>
<trkpt lat="48.939260" lon="8.667697">
<ele>373.0</ele>
<speed>10.5</speed>
<course>329.7</course>
<desc>Speed 10.5 km/h Distance 7.81 km</desc>
<time>2010-02-28T11:45:29.63</time>
<name>5279</name>
</trkpt>
<trkpt lat="48.939275" lon="8.667683">
<ele>373.0</ele>
<speed>5.1</speed>
<course>339.1</course>
<desc>Speed 5.1 km/h Distance 7.82 km</desc>
<time>2010-02-28T11:45:30.63</time>
<name>5280</name>
</trkpt>
<trkpt lat="48.939287" lon="8.667677">
<ele>373.0</ele>
<speed>4.1</speed>
<course>326.8</course>
<desc>Speed 4.1 km/h Distance 7.82 km</desc>
<time>2010-02-28T11:45:31.63</time>
<name>5281</name>
</trkpt>
<trkpt lat="48.939300" lon="8.667663">
<ele>373.0</ele>
<speed>4.1</speed>
<course>299.7</course>
<desc>Speed 4.1 km/h Distance 7.82 km</desc>
<time>2010-02-28T11:45:32.62</time>
<name>5282</name>
</trkpt>
<trkpt lat="48.939305" lon="8.667650">
<ele>373.0</ele>
<speed>3.6</speed>
<course>296.9</course>
<desc>Speed 3.6 km/h Distance 7.82 km</desc>
<time>2010-02-28T11:45:33.82</time>
<name>5283</name>
</trkpt>
<trkpt lat="48.939310" lon="8.667635">
<ele>373.0</ele>
<speed>4.2</speed>
<course>316.8</course>
<desc>Speed 4.2 km/h Distance 7.82 km</desc>
<time>2010-02-28T11:45:34.63</time>
<name>5284</name>
</trkpt>
<trkpt lat="48.939322" lon="8.667618">
<ele>373.5</ele>
<speed>4.8</speed>
<course>323.1</course>
<desc>Speed 4.8 km/h Distance 7.82 km</desc>
<time>2010-02-28T11:45:35.63</time>
<name>5285</name>
</trkpt>
<trkpt lat="48.939333" lon="8.667605">
<ele>373.5</ele>
<speed>5.0</speed>
<course>318.8</course>
<desc>Speed 5.0 km/h Distance 7.82 km</desc>
<time>2010-02-28T11:45:36.62</time>
<name>5286</name>
</trkpt>
<trkpt lat="48.939343" lon="8.667592">
<ele>373.5</ele>
<speed>4.6</speed>
<course>310.9</course>
<desc>Speed 4.6 km/h Distance 7.83 km</desc>
<time>2010-02-28T11:45:37.62</time>
<name>5287</name>
</trkpt>
<trkpt lat="48.939350" lon="8.667580">
<ele>373.5</ele>
<speed>2.6</speed>
<course>301.4</course>
<desc>Speed 2.6 km/h Distance 7.83 km</desc>
<time>2010-02-28T11:45:38.62</time>
<name>5288</name>
</trkpt>
<trkpt lat="48.939357" lon="8.667563">
<ele>373.5</ele>
<speed>3.9</speed>
<course>315.5</course>
<desc>Speed 3.9 km/h Distance 7.83 km</desc>
<time>2010-02-28T11:45:39.62</time>
<name>5289</name>
</trkpt>
<trkpt lat="48.939363" lon="8.667553">
<ele>373.5</ele>
<speed>3.3</speed>
<course>333.2</course>
<desc>Speed 3.3 km/h Distance 7.83 km</desc>
<time>2010-02-28T11:45:40.62</time>
<name>5290</name>
</trkpt>
<trkpt lat="48.939385" lon="8.667537">
<ele>373.5</ele>
<speed>8.4</speed>
<course>290.9</course>
<desc>Speed 8.4 km/h Distance 7.83 km</desc>
<time>2010-02-28T11:45:41.61</time>
<name>5291</name>
</trkpt>
<trkpt lat="48.939388" lon="8.667523">
<ele>373.5</ele>
<speed>3.3</speed>
<course>330.8</course>
<desc>Speed 3.3 km/h Distance 7.83 km</desc>
<time>2010-02-28T11:45:42.62</time>
<name>5292</name>
</trkpt>
<trkpt lat="48.939400" lon="8.667513">
<ele>373.5</ele>
<speed>4.7</speed>
<course>296.9</course>
<desc>Speed 4.7 km/h Distance 7.83 km</desc>
<time>2010-02-28T11:45:43.62</time>
<name>5293</name>
</trkpt>
<trkpt lat="48.939405" lon="8.667498">
<ele>373.5</ele>
<speed>4.2</speed>
<course>316.7</course>
<desc>Speed 4.2 km/h Distance 7.84 km</desc>
<time>2010-02-28T11:45:44.62</time>
<name>5294</name>
</trkpt>
<trkpt lat="48.939417" lon="8.667482">
<ele>373.5</ele>
<speed>3.0</speed>
<course>313.6</course>
<desc>Speed 3.0 km/h Distance 7.84 km</desc>
<time>2010-02-28T11:45:45.62</time>
<name>5295</name>
</trkpt>
<trkpt lat="48.939425" lon="8.667468">
<ele>373.5</ele>
<speed>3.7</speed>
<course>320.6</course>
<desc>Speed 3.7 km/h Distance 7.84 km</desc>
<time>2010-02-28T11:45:46.61</time>
<name>5296</name>
</trkpt>
<trkpt lat="48.939438" lon="8.667452">
<ele>373.5</ele>
<speed>4.0</speed>
<course>326.7</course>
<desc>Speed 4.0 km/h Distance 7.84 km</desc>
<time>2010-02-28T11:45:47.61</time>
<name>5297</name>
</trkpt>
<trkpt lat="48.939455" lon="8.667435">
<ele>373.0</ele>
<speed>4.6</speed>
<course>310.2</course>
<desc>Speed 4.6 km/h Distance 7.84 km</desc>
<time>2010-02-28T11:45:48.62</time>
<name>5298</name>
</trkpt>
<trkpt lat="48.939463" lon="8.667420">
<ele>373.0</ele>
<speed>4.7</speed>
<course>326.7</course>
<desc>Speed 4.7 km/h Distance 7.84 km</desc>
<time>2010-02-28T11:45:49.62</time>
<name>5299</name>
</trkpt>
<trkpt lat="48.939480" lon="8.667403">
<ele>373.0</ele>
<speed>4.3</speed>
<course>313.6</course>
<desc>Speed 4.3 km/h Distance 7.85 km</desc>
<time>2010-02-28T11:45:50.62</time>
<name>5300</name>
</trkpt>
<trkpt lat="48.939488" lon="8.667390">
<ele>373.0</ele>
<speed>4.9</speed>
<course>315.5</course>
<desc>Speed 4.9 km/h Distance 7.85 km</desc>
<time>2010-02-28T11:45:51.62</time>
<name>5301</name>
</trkpt>
<trkpt lat="48.939498" lon="8.667375">
<ele>373.0</ele>
<speed>5.2</speed>
<course>326.7</course>
<desc>Speed 5.2 km/h Distance 7.85 km</desc>
<time>2010-02-28T11:45:52.62</time>
<name>5302</name>
</trkpt>
<trkpt lat="48.939510" lon="8.667363">
<ele>373.0</ele>
<speed>4.6</speed>
<course>334.0</course>
<desc>Speed 4.6 km/h Distance 7.85 km</desc>
<time>2010-02-28T11:45:53.62</time>
<name>5303</name>
</trkpt>
<trkpt lat="48.939523" lon="8.667353">
<ele>372.5</ele>
<speed>4.6</speed>
<course>318.8</course>
<desc>Speed 4.6 km/h Distance 7.85 km</desc>
<time>2010-02-28T11:45:54.62</time>
<name>5304</name>
</trkpt>
<trkpt lat="48.939533" lon="8.667340">
<ele>372.5</ele>
<speed>4.1</speed>
<course>315.5</course>
<desc>Speed 4.1 km/h Distance 7.85 km</desc>
<time>2010-02-28T11:45:55.62</time>
<name>5305</name>
</trkpt>
<trkpt lat="48.939543" lon="8.667325">
<ele>372.5</ele>
<speed>4.1</speed>
<course>326.6</course>
<desc>Speed 4.1 km/h Distance 7.86 km</desc>
<time>2010-02-28T11:45:56.62</time>
<name>5306</name>
</trkpt>
<trkpt lat="48.939555" lon="8.667313">
<ele>372.5</ele>
<speed>4.2</speed>
<course>280.7</course>
<desc>Speed 4.2 km/h Distance 7.86 km</desc>
<time>2010-02-28T11:45:57.62</time>
<name>5307</name>
</trkpt>
<trkpt lat="48.939557" lon="8.667300">
<ele>372.0</ele>
<speed>3.9</speed>
<course>288.7</course>
<desc>Speed 3.9 km/h Distance 7.86 km</desc>
<time>2010-02-28T11:45:58.62</time>
<name>5308</name>
</trkpt>
<trkpt lat="48.939560" lon="8.667285">
<ele>372.5</ele>
<speed>4.2</speed>
<course>331.1</course>
<desc>Speed 4.2 km/h Distance 7.86 km</desc>
<time>2010-02-28T11:45:59.62</time>
<name>5309</name>
</trkpt>
<trkpt lat="48.939570" lon="8.667277">
<ele>372.5</ele>
<speed>4.7</speed>
<course>320.6</course>
<desc>Speed 4.7 km/h Distance 7.86 km</desc>
<time>2010-02-28T11:46:00.62</time>
<name>5310</name>
</trkpt>
<trkpt lat="48.939577" lon="8.667268">
<ele>372.0</ele>
<speed>4.1</speed>
<course>321.0</course>
<desc>Speed 4.1 km/h Distance 7.86 km</desc>
<time>2010-02-28T11:46:01.62</time>
<name>5311</name>
</trkpt>
<trkpt lat="48.939583" lon="8.667260">
<ele>372.0</ele>
<speed>4.2</speed>
<course>286.9</course>
<desc>Speed 4.2 km/h Distance 7.86 km</desc>
<time>2010-02-28T11:46:02.62</time>
<name>5312</name>
</trkpt>
<trkpt lat="48.939585" lon="8.667252">
<ele>372.0</ele>
<speed>3.6</speed>
<course>318.6</course>
<desc>Speed 3.6 km/h Distance 7.86 km</desc>
<time>2010-02-28T11:46:03.62</time>
<name>5313</name>
</trkpt>
<trkpt lat="48.939590" lon="8.667245">
<ele>372.0</ele>
<speed>3.6</speed>
<course>317.2</course>
<desc>Speed 3.6 km/h Distance 7.86 km</desc>
<time>2010-02-28T11:46:04.62</time>
<name>5314</name>
</trkpt>
<trkpt lat="48.939598" lon="8.667233">
<ele>372.0</ele>
<speed>3.2</speed>
<course>310.2</course>
<desc>Speed 3.2 km/h Distance 7.87 km</desc>
<time>2010-02-28T11:46:05.62</time>
<name>5315</name>
</trkpt>
<trkpt lat="48.939607" lon="8.667218">
<ele>371.5</ele>
<speed>4.1</speed>
<course>307.3</course>
<desc>Speed 4.1 km/h Distance 7.87 km</desc>
<time>2010-02-28T11:46:06.62</time>
<name>5316</name>
</trkpt>
<trkpt lat="48.939615" lon="8.667202">
<ele>371.5</ele>
<speed>3.9</speed>
<course>330.6</course>
<desc>Speed 3.9 km/h Distance 7.87 km</desc>
<time>2010-02-28T11:46:07.61</time>
<name>5317</name>
</trkpt>
<trkpt lat="48.939627" lon="8.667192">
<ele>371.5</ele>
<speed>4.8</speed>
<course>339.9</course>
<desc>Speed 4.8 km/h Distance 7.87 km</desc>
<time>2010-02-28T11:46:08.61</time>
<name>5318</name>
</trkpt>
<trkpt lat="48.939635" lon="8.667187">
<ele>371.5</ele>
<speed>3.2</speed>
<course>318.7</course>
<desc>Speed 3.2 km/h Distance 7.87 km</desc>
<time>2010-02-28T11:46:09.61</time>
<name>5319</name>
</trkpt>
<trkpt lat="48.939645" lon="8.667173">
<ele>371.0</ele>
<speed>4.6</speed>
<course>292.5</course>
<desc>Speed 4.6 km/h Distance 7.87 km</desc>
<time>2010-02-28T11:46:10.63</time>
<name>5320</name>
</trkpt>
<trkpt lat="48.939650" lon="8.667155">
<ele>371.5</ele>
<speed>4.9</speed>
<course>310.9</course>
<desc>Speed 4.9 km/h Distance 7.87 km</desc>
<time>2010-02-28T11:46:11.62</time>
<name>5321</name>
</trkpt>
<trkpt lat="48.939657" lon="8.667143">
<ele>371.0</ele>
<speed>3.2</speed>
<course>317.4</course>
<desc>Speed 3.2 km/h Distance 7.87 km</desc>
<time>2010-02-28T11:46:12.62</time>
<name>5322</name>
</trkpt>
<trkpt lat="48.939665" lon="8.667132">
<ele>371.0</ele>
<speed>4.7</speed>
<course>307.3</course>
<desc>Speed 4.7 km/h Distance 7.88 km</desc>
<time>2010-02-28T11:46:13.62</time>
<name>5323</name>
</trkpt>
<trkpt lat="48.939672" lon="8.667118">
<ele>371.0</ele>
<speed>4.6</speed>
<course>290.9</course>
<desc>Speed 4.6 km/h Distance 7.88 km</desc>
<time>2010-02-28T11:46:14.62</time>
<name>5324</name>
</trkpt>
<trkpt lat="48.939675" lon="8.667105">
<ele>371.0</ele>
<speed>4.1</speed>
<course>317.4</course>
<desc>Speed 4.1 km/h Distance 7.88 km</desc>
<time>2010-02-28T11:46:15.62</time>
<name>5325</name>
</trkpt>
<trkpt lat="48.939683" lon="8.667093">
<ele>371.0</ele>
<speed>3.9</speed>
<course>313.6</course>
<desc>Speed 3.9 km/h Distance 7.88 km</desc>
<time>2010-02-28T11:46:16.61</time>
<name>5326</name>
</trkpt>
<trkpt lat="48.939692" lon="8.667080">
<ele>371.0</ele>
<speed>4.5</speed>
<course>326.8</course>
<desc>Speed 4.5 km/h Distance 7.88 km</desc>
<time>2010-02-28T11:46:17.60</time>
<name>5327</name>
</trkpt>
<trkpt lat="48.939700" lon="8.667072">
<ele>371.0</ele>
<speed>3.9</speed>
<course>290.8</course>
<desc>Speed 3.9 km/h Distance 7.88 km</desc>
<time>2010-02-28T11:46:18.61</time>
<name>5328</name>
</trkpt>
<trkpt lat="48.939705" lon="8.667052">
<ele>371.0</ele>
<speed>4.7</speed>
<course>332.5</course>
<desc>Speed 4.7 km/h Distance 7.88 km</desc>
<time>2010-02-28T11:46:19.60</time>
<name>5329</name>
</trkpt>
<trkpt lat="48.939713" lon="8.667045">
<ele>371.0</ele>
<speed>3.5</speed>
<course>315.5</course>
<desc>Speed 3.5 km/h Distance 7.88 km</desc>
<time>2010-02-28T11:46:20.60</time>
<name>5330</name>
</trkpt>
<trkpt lat="48.939720" lon="8.667035">
<ele>371.0</ele>
<speed>3.7</speed>
<course>320.6</course>
<desc>Speed 3.7 km/h Distance 7.89 km</desc>
<time>2010-02-28T11:46:21.61</time>
<name>5331</name>
</trkpt>
<trkpt lat="48.939727" lon="8.667027">
<ele>371.0</ele>
<speed>3.5</speed>
<course>279.6</course>
<desc>Speed 3.5 km/h Distance 7.89 km</desc>
<time>2010-02-28T11:46:22.60</time>
<name>5332</name>
</trkpt>
<trkpt lat="48.939728" lon="8.667012">
<ele>371.0</ele>
<speed>2.9</speed>
<course>312.9</course>
<desc>Speed 2.9 km/h Distance 7.89 km</desc>
<time>2010-02-28T11:46:23.60</time>
<name>5333</name>
</trkpt>
<trkpt lat="48.939733" lon="8.667003">
<ele>371.0</ele>
<speed>2.3</speed>
<course>341.2</course>
<desc>Speed 2.3 km/h Distance 7.89 km</desc>
<time>2010-02-28T11:46:24.61</time>
<name>5334</name>
</trkpt>
<trkpt lat="48.939737" lon="8.667002">
<ele>371.0</ele>
<speed>1.2</speed>
<course>318.6</course>
<desc>Speed 1.2 km/h Distance 7.89 km</desc>
<time>2010-02-28T11:46:25.61</time>
<name>5335</name>
</trkpt>
<trkpt lat="48.939742" lon="8.666995">
<ele>371.5</ele>
<speed>2.0</speed>
<course>303.3</course>
<desc>Speed 2.0 km/h Distance 7.89 km</desc>
<time>2010-02-28T11:46:26.60</time>
<name>5336</name>
</trkpt>
<trkpt lat="48.939747" lon="8.666983">
<ele>371.0</ele>
<speed>3.3</speed>
<course>325.9</course>
<desc>Speed 3.3 km/h Distance 7.89 km</desc>
<time>2010-02-28T11:46:27.61</time>
<name>5337</name>
</trkpt>
<trkpt lat="48.939752" lon="8.666978">
<ele>371.0</ele>
<speed>2.4</speed>
<course>326.3</course>
<desc>Speed 2.4 km/h Distance 7.89 km</desc>
<time>2010-02-28T11:46:28.61</time>
<name>5338</name>
</trkpt>
<trkpt lat="48.939758" lon="8.666972">
<ele>371.0</ele>
<speed>3.1</speed>
<course>307.2</course>
<desc>Speed 3.1 km/h Distance 7.89 km</desc>
<time>2010-02-28T11:46:29.61</time>
<name>5339</name>
</trkpt>
<trkpt lat="48.939763" lon="8.666962">
<ele>371.0</ele>
<speed>3.4</speed>
<course>317.2</course>
<desc>Speed 3.4 km/h Distance 7.89 km</desc>
<time>2010-02-28T11:46:30.61</time>
<name>5340</name>
</trkpt>
<trkpt lat="48.939772" lon="8.666950">
<ele>371.0</ele>
<speed>3.2</speed>
<course>293.5</course>
<desc>Speed 3.2 km/h Distance 7.89 km</desc>
<time>2010-02-28T11:46:31.60</time>
<name>5341</name>
</trkpt>
<trkpt lat="48.939775" lon="8.666938">
<ele>371.0</ele>
<speed>2.5</speed>
<course>320.6</course>
<desc>Speed 2.5 km/h Distance 7.90 km</desc>
<time>2010-02-28T11:46:32.60</time>
<name>5342</name>
</trkpt>
<trkpt lat="48.939782" lon="8.666930">
<ele>371.0</ele>
<speed>2.3</speed>
<course>326.8</course>
<desc>Speed 2.3 km/h Distance 7.90 km</desc>
<time>2010-02-28T11:46:33.60</time>
<name>5343</name>
</trkpt>
<trkpt lat="48.939792" lon="8.666920">
<ele>371.0</ele>
<speed>3.1</speed>
<course>326.3</course>
<desc>Speed 3.1 km/h Distance 7.90 km</desc>
<time>2010-02-28T11:46:34.61</time>
<name>5344</name>
</trkpt>
<trkpt lat="48.939798" lon="8.666913">
<ele>371.0</ele>
<speed>3.6</speed>
<course>320.6</course>
<desc>Speed 3.6 km/h Distance 7.90 km</desc>
<time>2010-02-28T11:46:35.61</time>
<name>5345</name>
</trkpt>
<trkpt lat="48.939805" lon="8.666905">
<ele>371.0</ele>
<speed>2.3</speed>
<course>310.3</course>
<desc>Speed 2.3 km/h Distance 7.90 km</desc>
<time>2010-02-28T11:46:36.61</time>
<name>5346</name>
</trkpt>
<trkpt lat="48.939813" lon="8.666890">
<ele>371.0</ele>
<speed>4.4</speed>
<course>326.8</course>
<desc>Speed 4.4 km/h Distance 7.90 km</desc>
<time>2010-02-28T11:46:37.61</time>
<name>5347</name>
</trkpt>
<trkpt lat="48.939823" lon="8.666880">
<ele>371.5</ele>
<speed>2.3</speed>
<course>315.5</course>
<desc>Speed 2.3 km/h Distance 7.90 km</desc>
<time>2010-02-28T11:46:38.61</time>
<name>5348</name>
</trkpt>
<trkpt lat="48.939827" lon="8.666875">
<ele>371.0</ele>
<speed>2.6</speed>
<course>312.2</course>
<desc>Speed 2.6 km/h Distance 7.90 km</desc>
<time>2010-02-28T11:46:39.61</time>
<name>5349</name>
</trkpt>
<trkpt lat="48.939832" lon="8.666867">
<ele>371.0</ele>
<speed>3.3</speed>
<course>323.1</course>
<desc>Speed 3.3 km/h Distance 7.90 km</desc>
<time>2010-02-28T11:46:40.61</time>
<name>5350</name>
</trkpt>
<trkpt lat="48.939843" lon="8.666853">
<ele>371.5</ele>
<speed>3.9</speed>
<course>313.5</course>
<desc>Speed 3.9 km/h Distance 7.91 km</desc>
<time>2010-02-28T11:46:41.61</time>
<name>5351</name>
</trkpt>
<trkpt lat="48.939852" lon="8.666840">
<ele>371.5</ele>
<speed>4.0</speed>
<course>270.0</course>
<desc>Speed 4.0 km/h Distance 7.91 km</desc>
<time>2010-02-28T11:46:42.61</time>
<name>5352</name>
</trkpt>
<trkpt lat="48.939852" lon="8.666835">
<ele>371.5</ele>
<speed>1.8</speed>
<course>336.2</course>
<desc>Speed 1.8 km/h Distance 7.91 km</desc>
<time>2010-02-28T11:46:43.61</time>
<name>5353</name>
</trkpt>
<trkpt lat="48.939862" lon="8.666828">
<ele>371.5</ele>
<speed>3.1</speed>
<course>343.0</course>
<desc>Speed 3.1 km/h Distance 7.91 km</desc>
<time>2010-02-28T11:46:44.61</time>
<name>5354</name>
</trkpt>
<trkpt lat="48.939872" lon="8.666823">
<ele>371.0</ele>
<speed>1.1</speed>
<course>355.6</course>
<desc>Speed 1.1 km/h Distance 7.91 km</desc>
<time>2010-02-28T11:46:45.60</time>
<name>5355</name>
</trkpt>
<trkpt lat="48.939882" lon="8.666822">
<ele>371.0</ele>
<speed>0.2</speed>
<course>332.5</course>
<desc>Speed 0.2 km/h Distance 7.91 km</desc>
<time>2010-02-28T11:46:46.60</time>
<name>5356</name>
</trkpt>
<trkpt lat="48.939890" lon="8.666815">
<ele>371.0</ele>
<speed>1.0</speed>
<course>326.3</course>
<desc>Speed 1.0 km/h Distance 7.91 km</desc>
<time>2010-02-28T11:46:47.60</time>
<name>5357</name>
</trkpt>
<trkpt lat="48.939897" lon="8.666808">
<ele>371.0</ele>
<speed>2.4</speed>
<course>336.2</course>
<desc>Speed 2.4 km/h Distance 7.91 km</desc>
<time>2010-02-28T11:46:48.60</time>
<name>5358</name>
</trkpt>
<trkpt lat="48.939907" lon="8.666802">
<ele>371.0</ele>
<speed>3.0</speed>
<course>336.6</course>
<desc>Speed 3.0 km/h Distance 7.91 km</desc>
<time>2010-02-28T11:46:49.60</time>
<name>5359</name>
</trkpt>
<trkpt lat="48.939917" lon="8.666795">
<ele>371.0</ele>
<speed>3.0</speed>
<course>332.1</course>
<desc>Speed 3.0 km/h Distance 7.91 km</desc>
<time>2010-02-28T11:46:50.60</time>
<name>5360</name>
</trkpt>
<trkpt lat="48.939925" lon="8.666788">
<ele>371.0</ele>
<speed>3.4</speed>
<course>170.5</course>
<desc>Speed 3.4 km/h Distance 7.92 km</desc>
<time>2010-02-28T11:46:51.60</time>
<name>5361</name>
</trkpt>
<trkpt lat="48.939913" lon="8.666792">
<ele>371.0</ele>
<speed>6.8</speed>
<course>297.4</course>
<desc>Speed 6.8 km/h Distance 7.92 km</desc>
<time>2010-02-28T11:46:52.60</time>
<name>5362</name>
</trkpt>
<trkpt lat="48.939915" lon="8.666787">
<ele>371.0</ele>
<speed>1.2</speed>
<course>337.8</course>
<desc>Speed 1.2 km/h Distance 7.92 km</desc>
<time>2010-02-28T11:46:53.60</time>
<name>5363</name>
</trkpt>
<trkpt lat="48.939920" lon="8.666783">
<ele>371.0</ele>
<speed>0.8</speed>
<course>319.1</course>
<desc>Speed 0.8 km/h Distance 7.92 km</desc>
<time>2010-02-28T11:46:54.60</time>
<name>5364</name>
</trkpt>
<trkpt lat="48.939925" lon="8.666777">
<ele>371.5</ele>
<speed>1.7</speed>
<course>319.1</course>
<desc>Speed 1.7 km/h Distance 7.92 km</desc>
<time>2010-02-28T11:46:55.60</time>
<name>5365</name>
</trkpt>
<trkpt lat="48.939925" lon="8.666778">
<ele>371.5</ele>
<speed>0.1</speed>
<course>12.6</course>
<desc>Speed 0.1 km/h Distance 7.92 km</desc>
<time>2010-02-28T11:46:56.60</time>
<name>5366</name>
</trkpt>
<trkpt lat="48.939927" lon="8.666778">
<ele>371.5</ele>
<speed>0.4</speed>
<course>270.0</course>
<desc>Speed 0.4 km/h Distance 7.92 km</desc>
<time>2010-02-28T11:46:57.60</time>
<name>5367</name>
</trkpt>
<trkpt lat="48.939927" lon="8.666775">
<ele>371.5</ele>
<speed>1.5</speed>
<course>339.9</course>
<desc>Speed 1.5 km/h Distance 7.92 km</desc>
<time>2010-02-28T11:46:58.59</time>
<name>5368</name>
</trkpt>
<trkpt lat="48.939942" lon="8.666767">
<ele>370.5</ele>
<speed>6.3</speed>
<course>333.6</course>
<desc>Speed 6.3 km/h Distance 7.92 km</desc>
<time>2010-02-28T11:46:59.60</time>
<name>5369</name>
</trkpt>
<trkpt lat="48.939948" lon="8.666762">
<ele>370.5</ele>
<speed>3.3</speed>
<course>315.5</course>
<desc>Speed 3.3 km/h Distance 7.92 km</desc>
<time>2010-02-28T11:47:00.60</time>
<name>5370</name>
</trkpt>
<trkpt lat="48.939955" lon="8.666752">
<ele>371.0</ele>
<speed>3.3</speed>
<course>335.8</course>
<desc>Speed 3.3 km/h Distance 7.92 km</desc>
<time>2010-02-28T11:47:01.60</time>
<name>5371</name>
</trkpt>
<trkpt lat="48.939965" lon="8.666745">
<ele>371.0</ele>
<speed>3.7</speed>
<course>331.4</course>
<desc>Speed 3.7 km/h Distance 7.92 km</desc>
<time>2010-02-28T11:47:02.60</time>
<name>5372</name>
</trkpt>
<trkpt lat="48.939975" lon="8.666737">
<ele>371.5</ele>
<speed>3.7</speed>
<course>319.8</course>
<desc>Speed 3.7 km/h Distance 7.93 km</desc>
<time>2010-02-28T11:47:03.59</time>
<name>5373</name>
</trkpt>
<trkpt lat="48.939987" lon="8.666722">
<ele>371.5</ele>
<speed>4.8</speed>
<course>332.8</course>
<desc>Speed 4.8 km/h Distance 7.93 km</desc>
<time>2010-02-28T11:47:04.60</time>
<name>5374</name>
</trkpt>
<trkpt lat="48.940002" lon="8.666710">
<ele>371.5</ele>
<speed>4.4</speed>
<course>336.2</course>
<desc>Speed 4.4 km/h Distance 7.93 km</desc>
<time>2010-02-28T11:47:05.60</time>
<name>5375</name>
</trkpt>
<trkpt lat="48.940012" lon="8.666703">
<ele>371.5</ele>
<speed>3.9</speed>
<course>315.5</course>
<desc>Speed 3.9 km/h Distance 7.93 km</desc>
<time>2010-02-28T11:47:06.63</time>
<name>5376</name>
</trkpt>
<trkpt lat="48.940018" lon="8.666693">
<ele>371.5</ele>
<speed>3.6</speed>
<course>35.9</course>
<desc>Speed 3.6 km/h Distance 7.93 km</desc>
<time>2010-02-28T11:47:07.59</time>
<name>5377</name>
</trkpt>
<trkpt lat="48.940035" lon="8.666712">
<ele>369.5</ele>
<speed>7.0</speed>
<course>282.3</course>
<desc>Speed 7.0 km/h Distance 7.93 km</desc>
<time>2010-02-28T11:47:09.64</time>
<name>5378</name>
</trkpt>
<trkpt lat="48.940037" lon="8.666700">
<ele>369.0</ele>
<speed>3.2</speed>
<course>0.0</course>
<desc>Speed 3.2 km/h Distance 7.93 km</desc>
<time>2010-02-28T11:47:10.60</time>
<name>5379</name>
</trkpt>
<trkpt lat="48.940040" lon="8.666700">
<ele>369.0</ele>
<speed>0.6</speed>
<course>299.0</course>
<desc>Speed 0.6 km/h Distance 7.94 km</desc>
<time>2010-02-28T11:47:11.59</time>
<name>5380</name>
</trkpt>
<trkpt lat="48.940047" lon="8.666682">
<ele>369.0</ele>
<speed>1.7</speed>
<course>323.4</course>
<desc>Speed 1.7 km/h Distance 7.94 km</desc>
<time>2010-02-28T11:47:12.59</time>
<name>5381</name>
</trkpt>
<trkpt lat="48.940060" lon="8.666667">
<ele>368.5</ele>
<speed>1.6</speed>
<course>347.4</course>
<desc>Speed 1.6 km/h Distance 7.94 km</desc>
<time>2010-02-28T11:47:13.59</time>
<name>5382</name>
</trkpt>
<trkpt lat="48.940065" lon="8.666665">
<ele>368.0</ele>
<speed>0.9</speed>
<course>341.2</course>
<desc>Speed 0.9 km/h Distance 7.94 km</desc>
<time>2010-02-28T11:47:14.74</time>
<name>5383</name>
</trkpt>
<trkpt lat="48.940068" lon="8.666663">
<ele>368.0</ele>
<speed>0.2</speed>
<course>270.0</course>
<desc>Speed 0.2 km/h Distance 7.94 km</desc>
<time>2010-02-28T11:47:15.59</time>
<name>5384</name>
</trkpt>
<trkpt lat="48.940068" lon="8.666655">
<ele>368.0</ele>
<speed>0.3</speed>
<course>330.8</course>
<desc>Speed 0.3 km/h Distance 7.94 km</desc>
<time>2010-02-28T11:47:16.58</time>
<name>5385</name>
</trkpt>
<trkpt lat="48.940070" lon="8.666653">
<ele>368.0</ele>
<speed>0.2</speed>
<course>330.8</course>
<desc>Speed 0.2 km/h Distance 7.94 km</desc>
<time>2010-02-28T11:47:17.60</time>
<name>5386</name>
</trkpt>
<trkpt lat="48.940070" lon="8.666653">
<ele>368.0</ele>
<speed>0.7</speed>
<course>33.7</course>
<desc>Speed 0.7 km/h Distance 7.94 km</desc>
<time>2010-02-28T11:47:18.58</time>
<name>5387</name>
</trkpt>
<trkpt lat="48.940073" lon="8.666657">
<ele>368.0</ele>
<speed>0.4</speed>
<course>128.1</course>
<desc>Speed 0.4 km/h Distance 7.94 km</desc>
<time>2010-02-28T11:47:19.57</time>
<name>5388</name>
</trkpt>
<trkpt lat="48.940072" lon="8.666660">
<ele>368.0</ele>
<speed>1.3</speed>
<course>90.0</course>
<desc>Speed 1.3 km/h Distance 7.94 km</desc>
<time>2010-02-28T11:47:20.59</time>
<name>5389</name>
</trkpt>
<trkpt lat="48.940072" lon="8.666663">
<ele>368.0</ele>
<speed>1.3</speed>
<course>139.1</course>
<desc>Speed 1.3 km/h Distance 7.94 km</desc>
<time>2010-02-28T11:47:21.58</time>
<name>5390</name>
</trkpt>
<trkpt lat="48.940067" lon="8.666670">
<ele>368.0</ele>
<speed>2.2</speed>
<course>18.8</course>
<desc>Speed 2.2 km/h Distance 7.94 km</desc>
<time>2010-02-28T11:47:22.58</time>
<name>5391</name>
</trkpt>
<trkpt lat="48.940070" lon="8.666672">
<ele>368.0</ele>
<speed>0.4</speed>
<course>58.6</course>
<desc>Speed 0.4 km/h Distance 7.94 km</desc>
<time>2010-02-28T11:47:23.58</time>
<name>5392</name>
</trkpt>
<trkpt lat="48.940073" lon="8.666680">
<ele>368.0</ele>
<speed>0.7</speed>
<course>62.6</course>
<desc>Speed 0.7 km/h Distance 7.94 km</desc>
<time>2010-02-28T11:47:24.57</time>
<name>5393</name>
</trkpt>
<trkpt lat="48.940075" lon="8.666685">
<ele>368.0</ele>
<speed>0.5</speed>
<course>12.6</course>
<desc>Speed 0.5 km/h Distance 7.94 km</desc>
<time>2010-02-28T11:47:25.57</time>
<name>5394</name>
</trkpt>
<trkpt lat="48.940077" lon="8.666687">
<ele>368.0</ele>
<speed>0.4</speed>
<course>37.2</course>
<desc>Speed 0.4 km/h Distance 7.94 km</desc>
<time>2010-02-28T11:47:26.57</time>
<name>5395</name>
</trkpt>
<trkpt lat="48.940078" lon="8.666688">
<ele>368.0</ele>
<speed>0.3</speed>
<course>12.6</course>
<desc>Speed 0.3 km/h Distance 7.94 km</desc>
<time>2010-02-28T11:47:27.57</time>
<name>5396</name>
</trkpt>
<trkpt lat="48.940082" lon="8.666688">
<ele>368.0</ele>
<speed>0.2</speed>
<course>347.4</course>
<desc>Speed 0.2 km/h Distance 7.94 km</desc>
<time>2010-02-28T11:47:28.57</time>
<name>5397</name>
</trkpt>
<trkpt lat="48.940087" lon="8.666687">
<ele>367.5</ele>
<speed>1.5</speed>
<course>270.0</course>
<desc>Speed 1.5 km/h Distance 7.94 km</desc>
<time>2010-02-28T11:47:29.57</time>
<name>5398</name>
</trkpt>
<trkpt lat="48.940087" lon="8.666682">
<ele>367.0</ele>
<speed>0.9</speed>
<course>336.2</course>
<desc>Speed 0.9 km/h Distance 7.95 km</desc>
<time>2010-02-28T11:47:30.57</time>
<name>5399</name>
</trkpt>
<trkpt lat="48.940092" lon="8.666678">
<ele>367.0</ele>
<speed>0.6</speed>
<course>301.4</course>
<desc>Speed 0.6 km/h Distance 7.95 km</desc>
<time>2010-02-28T11:47:31.56</time>
<name>5400</name>
</trkpt>
<trkpt lat="48.940095" lon="8.666670">
<ele>367.0</ele>
<speed>0.4</speed>
<course>12.6</course>
<desc>Speed 0.4 km/h Distance 7.95 km</desc>
<time>2010-02-28T11:47:32.57</time>
<name>5401</name>
</trkpt>
<trkpt lat="48.940097" lon="8.666670">
<ele>367.0</ele>
<speed>0.7</speed>
<course>37.2</course>
<desc>Speed 0.7 km/h Distance 7.95 km</desc>
<time>2010-02-28T11:47:33.56</time>
<name>5402</name>
</trkpt>
<trkpt lat="48.940098" lon="8.666672">
<ele>367.0</ele>
<speed>0.5</speed>
<course>90.0</course>
<desc>Speed 0.5 km/h Distance 7.95 km</desc>
<time>2010-02-28T11:47:34.56</time>
<name>5403</name>
</trkpt>
<trkpt lat="48.940098" lon="8.666675">
<ele>367.0</ele>
<speed>0.9</speed>
<course>290.5</course>
<desc>Speed 0.9 km/h Distance 7.95 km</desc>
<time>2010-02-28T11:47:35.58</time>
<name>5404</name>
</trkpt>
<trkpt lat="48.940100" lon="8.666668">
<ele>367.0</ele>
<speed>1.0</speed>
<course>290.8</course>
<desc>Speed 1.0 km/h Distance 7.95 km</desc>
<time>2010-02-28T11:47:36.83</time>
<name>5405</name>
</trkpt>
<trkpt lat="48.940113" lon="8.666615">
<ele>367.0</ele>
<speed>1.3</speed>
<course>213.7</course>
<desc>Speed 1.3 km/h Distance 7.95 km</desc>
<time>2010-02-28T11:47:39.15</time>
<name>5406</name>
</trkpt>
<trkpt lat="48.940107" lon="8.666608">
<ele>365.0</ele>
<speed>3.1</speed>
<course>338.5</course>
<desc>Speed 3.1 km/h Distance 7.95 km</desc>
<time>2010-02-28T11:47:40.67</time>
<name>5407</name>
</trkpt>
<trkpt lat="48.940123" lon="8.666598">
<ele>365.0</ele>
<speed>3.1</speed>
<course>12.6</course>
<desc>Speed 3.1 km/h Distance 7.95 km</desc>
<time>2010-02-28T11:47:41.56</time>
<name>5408</name>
</trkpt>
<trkpt lat="48.940127" lon="8.666600">
<ele>366.5</ele>
<speed>3.1</speed>
<course>346.0</course>
<desc>Speed 3.1 km/h Distance 7.96 km</desc>
<time>2010-02-28T11:47:42.56</time>
<name>5409</name>
</trkpt>
<trkpt lat="48.940140" lon="8.666595">
<ele>367.5</ele>
<speed>0.6</speed>
<course>29.0</course>
<desc>Speed 0.6 km/h Distance 7.96 km</desc>
<time>2010-02-28T11:47:43.57</time>
<name>5410</name>
</trkpt>
<trkpt lat="48.940162" lon="8.666613">
<ele>368.0</ele>
<speed>6.4</speed>
<course>39.4</course>
<desc>Speed 6.4 km/h Distance 7.96 km</desc>
<time>2010-02-28T11:47:45.53</time>
<name>5411</name>
</trkpt>
<trkpt lat="48.940182" lon="8.666638">
<ele>368.5</ele>
<speed>0.6</speed>
<course>0.0</course>
<desc>Speed 0.6 km/h Distance 7.96 km</desc>
<time>2010-02-28T11:47:46.56</time>
<name>5412</name>
</trkpt>
<trkpt lat="48.940187" lon="8.666638">
<ele>369.0</ele>
<speed>2.3</speed>
<course>29.2</course>
<desc>Speed 2.3 km/h Distance 7.96 km</desc>
<time>2010-02-28T11:47:47.78</time>
<name>5413</name>
</trkpt>
<trkpt lat="48.940188" lon="8.666640">
<ele>369.5</ele>
<speed>2.3</speed>
<course>54.4</course>
<desc>Speed 2.3 km/h Distance 7.96 km</desc>
<time>2010-02-28T11:47:48.56</time>
<name>5414</name>
</trkpt>
<trkpt lat="48.940202" lon="8.666668">
<ele>369.5</ele>
<speed>0.4</speed>
<course>135.5</course>
<desc>Speed 0.4 km/h Distance 7.97 km</desc>
<time>2010-02-28T11:47:49.55</time>
<name>5415</name>
</trkpt>
<trkpt lat="48.940198" lon="8.666673">
<ele>370.0</ele>
<speed>1.0</speed>
<course>293.5</course>
<desc>Speed 1.0 km/h Distance 7.97 km</desc>
<time>2010-02-28T11:47:50.55</time>
<name>5416</name>
</trkpt>
<trkpt lat="48.940202" lon="8.666662">
<ele>370.0</ele>
<speed>2.7</speed>
<course>326.6</course>
<desc>Speed 2.7 km/h Distance 7.97 km</desc>
<time>2010-02-28T11:47:51.55</time>
<name>5417</name>
</trkpt>
<trkpt lat="48.940215" lon="8.666648">
<ele>370.5</ele>
<speed>3.6</speed>
<course>284.2</course>
<desc>Speed 3.6 km/h Distance 7.97 km</desc>
<time>2010-02-28T11:47:52.55</time>
<name>5418</name>
</trkpt>
<trkpt lat="48.940218" lon="8.666628">
<ele>370.5</ele>
<speed>5.4</speed>
<course>346.5</course>
<desc>Speed 5.4 km/h Distance 7.97 km</desc>
<time>2010-02-28T11:47:53.62</time>
<name>5419</name>
</trkpt>
<trkpt lat="48.940232" lon="8.666623">
<ele>370.5</ele>
<speed>5.4</speed>
<course>285.9</course>
<desc>Speed 5.4 km/h Distance 7.97 km</desc>
<time>2010-02-28T11:47:54.56</time>
<name>5420</name>
</trkpt>
<trkpt lat="48.940237" lon="8.666597">
<ele>371.0</ele>
<speed>4.8</speed>
<course>326.7</course>
<desc>Speed 4.8 km/h Distance 7.97 km</desc>
<time>2010-02-28T11:47:55.56</time>
<name>5421</name>
</trkpt>
<trkpt lat="48.940257" lon="8.666577">
<ele>371.5</ele>
<speed>5.7</speed>
<course>339.0</course>
<desc>Speed 5.7 km/h Distance 7.98 km</desc>
<time>2010-02-28T11:47:56.57</time>
<name>5422</name>
</trkpt>
<trkpt lat="48.940277" lon="8.666565">
<ele>371.5</ele>
<speed>5.4</speed>
<course>337.3</course>
<desc>Speed 5.4 km/h Distance 7.98 km</desc>
<time>2010-02-28T11:47:57.55</time>
<name>5423</name>
</trkpt>
<trkpt lat="48.940295" lon="8.666553">
<ele>371.5</ele>
<speed>4.5</speed>
<course>323.8</course>
<desc>Speed 4.5 km/h Distance 7.98 km</desc>
<time>2010-02-28T11:47:58.55</time>
<name>5424</name>
</trkpt>
<trkpt lat="48.940310" lon="8.666537">
<ele>371.5</ele>
<speed>4.9</speed>
<course>339.9</course>
<desc>Speed 4.9 km/h Distance 7.98 km</desc>
<time>2010-02-28T11:47:59.55</time>
<name>5425</name>
</trkpt>
<trkpt lat="48.940325" lon="8.666528">
<ele>371.0</ele>
<speed>4.6</speed>
<course>326.7</course>
<desc>Speed 4.6 km/h Distance 7.99 km</desc>
<time>2010-02-28T11:48:00.55</time>
<name>5426</name>
</trkpt>
<trkpt lat="48.940337" lon="8.666517">
<ele>371.0</ele>
<speed>4.1</speed>
<course>5.0</course>
<desc>Speed 4.1 km/h Distance 7.99 km</desc>
<time>2010-02-28T11:48:01.55</time>
<name>5427</name>
</trkpt>
<trkpt lat="48.940345" lon="8.666517">
<ele>371.0</ele>
<speed>1.7</speed>
<course>311.6</course>
<desc>Speed 1.7 km/h Distance 7.99 km</desc>
<time>2010-02-28T11:48:02.55</time>
<name>5428</name>
</trkpt>
<trkpt lat="48.940357" lon="8.666497">
<ele>371.5</ele>
<speed>6.7</speed>
<course>11.1</course>
<desc>Speed 6.7 km/h Distance 7.99 km</desc>
<time>2010-02-28T11:48:04.55</time>
<name>5429</name>
</trkpt>
<trkpt lat="48.940402" lon="8.666510">
<ele>372.0</ele>
<speed>0.1</speed>
<course>90.0</course>
<desc>Speed 0.1 km/h Distance 7.99 km</desc>
<time>2010-02-28T11:48:06.55</time>
<name>5430</name>
</trkpt>
<trkpt lat="48.940402" lon="8.666512">
<ele>372.0</ele>
<speed>0.1</speed>
<course>177.4</course>
<desc>Speed 0.1 km/h Distance 7.99 km</desc>
<time>2010-02-28T11:48:07.56</time>
<name>5431</name>
</trkpt>
<trkpt lat="48.940330" lon="8.666517">
<ele>376.0</ele>
<speed>0.5</speed>
<course>90.0</course>
<desc>Speed 0.5 km/h Distance 8.00 km</desc>
<time>2010-02-28T11:48:09.55</time>
<name>5432</name>
</trkpt>
<trkpt lat="48.940330" lon="8.666520">
<ele>376.0</ele>
<speed>0.5</speed>
<course>230.0</course>
<desc>Speed 0.5 km/h Distance 8.00 km</desc>
<time>2010-02-28T11:48:10.56</time>
<name>5433</name>
</trkpt>
<trkpt lat="48.940303" lon="8.666472">
<ele>378.0</ele>
<speed>4.1</speed>
<course>247.1</course>
<desc>Speed 4.1 km/h Distance 8.01 km</desc>
<time>2010-02-28T11:48:12.55</time>
<name>5434</name>
</trkpt>
<trkpt lat="48.940295" lon="8.666442">
<ele>379.5</ele>
<speed>6.0</speed>
<course>336.6</course>
<desc>Speed 6.0 km/h Distance 8.01 km</desc>
<time>2010-02-28T11:48:13.55</time>
<name>5435</name>
</trkpt>
<trkpt lat="48.940305" lon="8.666435">
<ele>379.5</ele>
<speed>6.2</speed>
<course>289.3</course>
<desc>Speed 6.2 km/h Distance 8.01 km</desc>
<time>2010-02-28T11:48:14.55</time>
<name>5436</name>
</trkpt>
<trkpt lat="48.940310" lon="8.666413">
<ele>379.0</ele>
<speed>3.5</speed>
<course>317.4</course>
<desc>Speed 3.5 km/h Distance 8.01 km</desc>
<time>2010-02-28T11:48:15.55</time>
<name>5437</name>
</trkpt>
<trkpt lat="48.940318" lon="8.666402">
<ele>378.5</ele>
<speed>4.1</speed>
<course>289.4</course>
<desc>Speed 4.1 km/h Distance 8.01 km</desc>
<time>2010-02-28T11:48:16.55</time>
<name>5438</name>
</trkpt>
<trkpt lat="48.940323" lon="8.666380">
<ele>379.5</ele>
<speed>4.4</speed>
<course>310.3</course>
<desc>Speed 4.4 km/h Distance 8.02 km</desc>
<time>2010-02-28T11:48:17.55</time>
<name>5439</name>
</trkpt>
<trkpt lat="48.940332" lon="8.666365">
<ele>379.0</ele>
<speed>3.2</speed>
<course>326.7</course>
<desc>Speed 3.2 km/h Distance 8.02 km</desc>
<time>2010-02-28T11:48:18.55</time>
<name>5440</name>
</trkpt>
<trkpt lat="48.940347" lon="8.666350">
<ele>378.5</ele>
<speed>3.2</speed>
<course>331.2</course>
<desc>Speed 3.2 km/h Distance 8.02 km</desc>
<time>2010-02-28T11:48:19.55</time>
<name>5441</name>
</trkpt>
<trkpt lat="48.940367" lon="8.666333">
<ele>377.5</ele>
<speed>4.8</speed>
<course>322.2</course>
<desc>Speed 4.8 km/h Distance 8.02 km</desc>
<time>2010-02-28T11:48:20.55</time>
<name>5442</name>
</trkpt>
<trkpt lat="48.940385" lon="8.666312">
<ele>377.0</ele>
<speed>5.0</speed>
<course>326.7</course>
<desc>Speed 5.0 km/h Distance 8.02 km</desc>
<time>2010-02-28T11:48:21.55</time>
<name>5443</name>
</trkpt>
<trkpt lat="48.940403" lon="8.666293">
<ele>376.5</ele>
<speed>4.7</speed>
<course>286.9</course>
<desc>Speed 4.7 km/h Distance 8.03 km</desc>
<time>2010-02-28T11:48:22.55</time>
<name>5444</name>
</trkpt>
<trkpt lat="48.940405" lon="8.666285">
<ele>375.0</ele>
<speed>3.7</speed>
<course>307.4</course>
<desc>Speed 3.7 km/h Distance 8.03 km</desc>
<time>2010-02-28T11:48:23.55</time>
<name>5445</name>
</trkpt>
<trkpt lat="48.940410" lon="8.666275">
<ele>374.5</ele>
<speed>3.5</speed>
<course>270.0</course>
<desc>Speed 3.5 km/h Distance 8.03 km</desc>
<time>2010-02-28T11:48:24.55</time>
<name>5446</name>
</trkpt>
<trkpt lat="48.940410" lon="8.666265">
<ele>374.5</ele>
<speed>2.1</speed>
<course>301.3</course>
<desc>Speed 2.1 km/h Distance 8.03 km</desc>
<time>2010-02-28T11:48:25.55</time>
<name>5447</name>
</trkpt>
<trkpt lat="48.940417" lon="8.666248">
<ele>375.0</ele>
<speed>2.5</speed>
<course>206.4</course>
<desc>Speed 2.5 km/h Distance 8.03 km</desc>
<time>2010-02-28T11:48:26.55</time>
<name>5448</name>
</trkpt>
<trkpt lat="48.940410" lon="8.666243">
<ele>374.0</ele>
<speed>2.3</speed>
<course>297.4</course>
<desc>Speed 2.3 km/h Distance 8.03 km</desc>
<time>2010-02-28T11:48:27.55</time>
<name>5449</name>
</trkpt>
<trkpt lat="48.940412" lon="8.666238">
<ele>373.5</ele>
<speed>3.6</speed>
<course>270.0</course>
<desc>Speed 3.6 km/h Distance 8.03 km</desc>
<time>2010-02-28T11:48:28.55</time>
<name>5450</name>
</trkpt>
<trkpt lat="48.940412" lon="8.666233">
<ele>373.5</ele>
<speed>3.2</speed>
<course>202.2</course>
<desc>Speed 3.2 km/h Distance 8.03 km</desc>
<time>2010-02-28T11:48:29.55</time>
<name>5451</name>
</trkpt>
<trkpt lat="48.940407" lon="8.666230">
<ele>374.0</ele>
<speed>1.5</speed>
<course>202.3</course>
<desc>Speed 1.5 km/h Distance 8.03 km</desc>
<time>2010-02-28T11:48:30.55</time>
<name>5452</name>
</trkpt>
<trkpt lat="48.940393" lon="8.666222">
<ele>375.5</ele>
<speed>4.7</speed>
<course>180.0</course>
<desc>Speed 4.7 km/h Distance 8.03 km</desc>
<time>2010-02-28T11:48:31.55</time>
<name>5453</name>
</trkpt>
<trkpt lat="48.940388" lon="8.666222">
<ele>375.5</ele>
<speed>1.1</speed>
<course>317.5</course>
<desc>Speed 1.1 km/h Distance 8.03 km</desc>
<time>2010-02-28T11:48:32.55</time>
<name>5454</name>
</trkpt>
<trkpt lat="48.940392" lon="8.666217">
<ele>375.5</ele>
<speed>2.6</speed>
<course>255.6</course>
<desc>Speed 2.6 km/h Distance 8.04 km</desc>
<time>2010-02-28T11:48:33.55</time>
<name>5455</name>
</trkpt>
<trkpt lat="48.940390" lon="8.666207">
<ele>375.5</ele>
<speed>2.6</speed>
<course>167.4</course>
<desc>Speed 2.6 km/h Distance 8.04 km</desc>
<time>2010-02-28T11:48:34.55</time>
<name>5456</name>
</trkpt>
<trkpt lat="48.940388" lon="8.666207">
<ele>375.5</ele>
<speed>2.1</speed>
<course>167.4</course>
<desc>Speed 2.1 km/h Distance 8.04 km</desc>
<time>2010-02-28T11:48:35.55</time>
<name>5457</name>
</trkpt>
<trkpt lat="48.940387" lon="8.666208">
<ele>375.5</ele>
<speed>0.2</speed>
<course>270.0</course>
<desc>Speed 0.2 km/h Distance 8.04 km</desc>
<time>2010-02-28T11:48:36.55</time>
<name>5458</name>
</trkpt>
<trkpt lat="48.940387" lon="8.666207">
<ele>375.5</ele>
<speed>1.0</speed>
<course>307.0</course>
<desc>Speed 1.0 km/h Distance 8.04 km</desc>
<time>2010-02-28T11:48:37.56</time>
<name>5459</name>
</trkpt>
<trkpt lat="48.940390" lon="8.666200">
<ele>375.5</ele>
<speed>1.2</speed>
<course>0.0</course>
<desc>Speed 1.2 km/h Distance 8.04 km</desc>
<time>2010-02-28T11:48:38.57</time>
<name>5460</name>
</trkpt>
<trkpt lat="48.940395" lon="8.666200">
<ele>375.5</ele>
<speed>2.3</speed>
<course>322.5</course>
<desc>Speed 2.3 km/h Distance 8.04 km</desc>
<time>2010-02-28T11:48:39.57</time>
<name>5461</name>
</trkpt>
<trkpt lat="48.940405" lon="8.666188">
<ele>375.5</ele>
<speed>4.5</speed>
<course>331.1</course>
<desc>Speed 4.5 km/h Distance 8.04 km</desc>
<time>2010-02-28T11:48:40.57</time>
<name>5462</name>
</trkpt>
<trkpt lat="48.940415" lon="8.666180">
<ele>375.0</ele>
<speed>4.0</speed>
<course>326.6</course>
<desc>Speed 4.0 km/h Distance 8.04 km</desc>
<time>2010-02-28T11:48:41.57</time>
<name>5463</name>
</trkpt>
<trkpt lat="48.940425" lon="8.666170">
<ele>375.0</ele>
<speed>4.5</speed>
<course>324.5</course>
<desc>Speed 4.5 km/h Distance 8.04 km</desc>
<time>2010-02-28T11:48:42.57</time>
<name>5464</name>
</trkpt>
<trkpt lat="48.940428" lon="8.666167">
<ele>375.0</ele>
<speed>2.1</speed>
<course>167.7</course>
<desc>Speed 2.1 km/h Distance 8.04 km</desc>
<time>2010-02-28T11:48:43.57</time>
<name>5465</name>
</trkpt>
<trkpt lat="48.940408" lon="8.666173">
<ele>375.5</ele>
<speed>8.3</speed>
<course>338.5</course>
<desc>Speed 8.3 km/h Distance 8.04 km</desc>
<time>2010-02-28T11:48:44.57</time>
<name>5466</name>
</trkpt>
<trkpt lat="48.940417" lon="8.666168">
<ele>375.5</ele>
<speed>3.6</speed>
<course>270.0</course>
<desc>Speed 3.6 km/h Distance 8.05 km</desc>
<time>2010-02-28T11:48:45.57</time>
<name>5467</name>
</trkpt>
<trkpt lat="48.940417" lon="8.666167">
<ele>375.5</ele>
<speed>0.5</speed>
<course>142.8</course>
<desc>Speed 0.5 km/h Distance 8.05 km</desc>
<time>2010-02-28T11:48:46.57</time>
<name>5468</name>
</trkpt>
<trkpt lat="48.940415" lon="8.666168">
<ele>375.0</ele>
<speed>0.8</speed>
<course>12.6</course>
<desc>Speed 0.8 km/h Distance 8.05 km</desc>
<time>2010-02-28T11:48:47.57</time>
<name>5469</name>
</trkpt>
<trkpt lat="48.940417" lon="8.666168">
<ele>375.0</ele>
<speed>0.2</speed>
<course>296.8</course>
<desc>Speed 0.2 km/h Distance 8.05 km</desc>
<time>2010-02-28T11:48:48.57</time>
<name>5470</name>
</trkpt>
<trkpt lat="48.940420" lon="8.666158">
<ele>375.5</ele>
<speed>2.2</speed>
<course>322.8</course>
<desc>Speed 2.2 km/h Distance 8.05 km</desc>
<time>2010-02-28T11:48:49.57</time>
<name>5471</name>
</trkpt>
<trkpt lat="48.940422" lon="8.666157">
<ele>375.5</ele>
<speed>0.5</speed>
<course>322.8</course>
<desc>Speed 0.5 km/h Distance 8.05 km</desc>
<time>2010-02-28T11:48:50.57</time>
<name>5472</name>
</trkpt>
<trkpt lat="48.940423" lon="8.666155">
<ele>375.5</ele>
<speed>0.5</speed>
<course>326.3</course>
<desc>Speed 0.5 km/h Distance 8.05 km</desc>
<time>2010-02-28T11:48:51.57</time>
<name>5473</name>
</trkpt>
<trkpt lat="48.940427" lon="8.666152">
<ele>376.0</ele>
<speed>0.1</speed>
<course>326.3</course>
<desc>Speed 0.1 km/h Distance 8.05 km</desc>
<time>2010-02-28T11:48:52.57</time>
<name>5474</name>
</trkpt>
<trkpt lat="48.940430" lon="8.666148">
<ele>376.0</ele>
<speed>0.3</speed>
<course>326.3</course>
<desc>Speed 0.3 km/h Distance 8.05 km</desc>
<time>2010-02-28T11:48:53.57</time>
<name>5475</name>
</trkpt>
<trkpt lat="48.940433" lon="8.666145">
<ele>376.5</ele>
<speed>0.1</speed>
<course>315.5</course>
<desc>Speed 0.1 km/h Distance 8.05 km</desc>
<time>2010-02-28T11:48:54.57</time>
<name>5476</name>
</trkpt>
<trkpt lat="48.940437" lon="8.666140">
<ele>376.5</ele>
<speed>0.2</speed>
<course>282.9</course>
<desc>Speed 0.2 km/h Distance 8.05 km</desc>
<time>2010-02-28T11:48:55.57</time>
<name>5477</name>
</trkpt>
<trkpt lat="48.940442" lon="8.666107">
<ele>377.0</ele>
<speed>0.3</speed>
<course>310.9</course>
<desc>Speed 0.3 km/h Distance 8.05 km</desc>
<time>2010-02-28T11:48:57.57</time>
<name>5478</name>
</trkpt>
<trkpt lat="48.940448" lon="8.666095">
<ele>377.0</ele>
<speed>2.3</speed>
<course>327.7</course>
<desc>Speed 2.3 km/h Distance 8.05 km</desc>
<time>2010-02-28T11:48:58.57</time>
<name>5479</name>
</trkpt>
<trkpt lat="48.940453" lon="8.666090">
<ele>376.5</ele>
<speed>1.3</speed>
<course>322.8</course>
<desc>Speed 1.3 km/h Distance 8.05 km</desc>
<time>2010-02-28T11:48:59.57</time>
<name>5480</name>
</trkpt>
<trkpt lat="48.940455" lon="8.666088">
<ele>376.5</ele>
<speed>0.6</speed>
<course>78.8</course>
<desc>Speed 0.6 km/h Distance 8.05 km</desc>
<time>2010-02-28T11:49:00.57</time>
<name>5481</name>
</trkpt>
<trkpt lat="48.940467" lon="8.666178">
<ele>376.5</ele>
<speed>13.9</speed>
<course>41.4</course>
<desc>Speed 13.9 km/h Distance 8.06 km</desc>
<time>2010-02-28T11:49:02.71</time>
<name>5482</name>
</trkpt>
<trkpt lat="48.940472" lon="8.666185">
<ele>376.0</ele>
<speed>1.9</speed>
<course>319.1</course>
<desc>Speed 1.9 km/h Distance 8.06 km</desc>
<time>2010-02-28T11:49:04.61</time>
<name>5483</name>
</trkpt>
<trkpt lat="48.940477" lon="8.666178">
<ele>375.5</ele>
<speed>1.2</speed>
<course>319.3</course>
<desc>Speed 1.2 km/h Distance 8.06 km</desc>
<time>2010-02-28T11:49:05.81</time>
<name>5484</name>
</trkpt>
<trkpt lat="48.940498" lon="8.666150">
<ele>375.0</ele>
<speed>0.2</speed>
<course>338.5</course>
<desc>Speed 0.2 km/h Distance 8.07 km</desc>
<time>2010-02-28T11:49:07.63</time>
<name>5485</name>
</trkpt>
<trkpt lat="48.940507" lon="8.666145">
<ele>374.5</ele>
<speed>1.8</speed>
<course>270.0</course>
<desc>Speed 1.8 km/h Distance 8.07 km</desc>
<time>2010-02-28T11:49:08.63</time>
<name>5486</name>
</trkpt>
<trkpt lat="48.940507" lon="8.666142">
<ele>374.5</ele>
<speed>0.3</speed>
<course>270.0</course>
<desc>Speed 0.3 km/h Distance 8.07 km</desc>
<time>2010-02-28T11:49:09.73</time>
<name>5487</name>
</trkpt>
<trkpt lat="48.940507" lon="8.666132">
<ele>374.0</ele>
<speed>1.1</speed>
<course>341.2</course>
<desc>Speed 1.1 km/h Distance 8.07 km</desc>
<time>2010-02-28T11:49:10.65</time>
<name>5488</name>
</trkpt>
<trkpt lat="48.940513" lon="8.666128">
<ele>374.0</ele>
<speed>2.7</speed>
<course>246.5</course>
<desc>Speed 2.7 km/h Distance 8.07 km</desc>
<time>2010-02-28T11:49:11.65</time>
<name>5489</name>
</trkpt>
<trkpt lat="48.940500" lon="8.666082">
<ele>373.5</ele>
<speed>1.1</speed>
<course>62.6</course>
<desc>Speed 1.1 km/h Distance 8.07 km</desc>
<time>2010-02-28T11:49:13.81</time>
<name>5490</name>
</trkpt>
<trkpt lat="48.940502" lon="8.666087">
<ele>373.5</ele>
<speed>1.4</speed>
<course>270.0</course>
<desc>Speed 1.4 km/h Distance 8.07 km</desc>
<time>2010-02-28T11:49:14.65</time>
<name>5491</name>
</trkpt>
<trkpt lat="48.940502" lon="8.666075">
<ele>373.0</ele>
<speed>1.6</speed>
<course>0.0</course>
<desc>Speed 1.6 km/h Distance 8.07 km</desc>
<time>2010-02-28T11:49:15.65</time>
<name>5492</name>
</trkpt>
<trkpt lat="48.940507" lon="8.666075">
<ele>373.0</ele>
<speed>0.2</speed>
<course>347.4</course>
<desc>Speed 0.2 km/h Distance 8.07 km</desc>
<time>2010-02-28T11:49:16.65</time>
<name>5493</name>
</trkpt>
<trkpt lat="48.940517" lon="8.666072">
<ele>372.5</ele>
<speed>1.3</speed>
<course>16.0</course>
<desc>Speed 1.3 km/h Distance 8.07 km</desc>
<time>2010-02-28T11:49:17.80</time>
<name>5494</name>
</trkpt>
<trkpt lat="48.940528" lon="8.666077">
<ele>372.0</ele>
<speed>1.1</speed>
<course>341.2</course>
<desc>Speed 1.1 km/h Distance 8.08 km</desc>
<time>2010-02-28T11:49:18.68</time>
<name>5495</name>
</trkpt>
<trkpt lat="48.940535" lon="8.666073">
<ele>372.0</ele>
<speed>2.5</speed>
<course>289.4</course>
<desc>Speed 2.5 km/h Distance 8.08 km</desc>
<time>2010-02-28T11:49:19.68</time>
<name>5496</name>
</trkpt>
<trkpt lat="48.940540" lon="8.666052">
<ele>372.0</ele>
<speed>4.0</speed>
<course>279.6</course>
<desc>Speed 4.0 km/h Distance 8.08 km</desc>
<time>2010-02-28T11:49:20.68</time>
<name>5497</name>
</trkpt>
<trkpt lat="48.940542" lon="8.666037">
<ele>372.0</ele>
<speed>3.5</speed>
<course>296.9</course>
<desc>Speed 3.5 km/h Distance 8.08 km</desc>
<time>2010-02-28T11:49:21.83</time>
<name>5498</name>
</trkpt>
<trkpt lat="48.940548" lon="8.666017">
<ele>372.0</ele>
<speed>5.1</speed>
<course>276.2</course>
<desc>Speed 5.1 km/h Distance 8.08 km</desc>
<time>2010-02-28T11:49:22.69</time>
<name>5499</name>
</trkpt>
<trkpt lat="48.940550" lon="8.665993">
<ele>371.5</ele>
<speed>4.2</speed>
<course>301.4</course>
<desc>Speed 4.2 km/h Distance 8.08 km</desc>
<time>2010-02-28T11:49:23.69</time>
<name>5500</name>
</trkpt>
<trkpt lat="48.940557" lon="8.665977">
<ele>371.5</ele>
<speed>3.3</speed>
<course>14.9</course>
<desc>Speed 3.3 km/h Distance 8.08 km</desc>
<time>2010-02-28T11:49:24.69</time>
<name>5501</name>
</trkpt>
<trkpt lat="48.940568" lon="8.665982">
<ele>370.0</ele>
<speed>1.9</speed>
<course>309.4</course>
<desc>Speed 1.9 km/h Distance 8.09 km</desc>
<time>2010-02-28T11:49:25.85</time>
<name>5502</name>
</trkpt>
<trkpt lat="48.940580" lon="8.665960">
<ele>369.5</ele>
<speed>2.4</speed>
<course>326.8</course>
<desc>Speed 2.4 km/h Distance 8.09 km</desc>
<time>2010-02-28T11:49:27.71</time>
<name>5503</name>
</trkpt>
<trkpt lat="48.940590" lon="8.665950">
<ele>369.5</ele>
<speed>3.7</speed>
<course>310.3</course>
<desc>Speed 3.7 km/h Distance 8.09 km</desc>
<time>2010-02-28T11:49:28.71</time>
<name>5504</name>
</trkpt>
<trkpt lat="48.940598" lon="8.665935">
<ele>369.0</ele>
<speed>3.6</speed>
<course>301.4</course>
<desc>Speed 3.6 km/h Distance 8.09 km</desc>
<time>2010-02-28T11:49:29.87</time>
<name>5505</name>
</trkpt>
<trkpt lat="48.940605" lon="8.665918">
<ele>368.5</ele>
<speed>2.7</speed>
<course>299.0</course>
<desc>Speed 2.7 km/h Distance 8.09 km</desc>
<time>2010-02-28T11:49:30.72</time>
<name>5506</name>
</trkpt>
<trkpt lat="48.940612" lon="8.665900">
<ele>368.5</ele>
<speed>2.3</speed>
<course>0.0</course>
<desc>Speed 2.3 km/h Distance 8.09 km</desc>
<time>2010-02-28T11:49:31.72</time>
<name>5507</name>
</trkpt>
<trkpt lat="48.940623" lon="8.665900">
<ele>368.0</ele>
<speed>1.8</speed>
<course>340.1</course>
<desc>Speed 1.8 km/h Distance 8.09 km</desc>
<time>2010-02-28T11:49:32.96</time>
<name>5508</name>
</trkpt>
<trkpt lat="48.940638" lon="8.665892">
<ele>367.5</ele>
<speed>4.9</speed>
<course>295.1</course>
<desc>Speed 4.9 km/h Distance 8.10 km</desc>
<time>2010-02-28T11:49:34.03</time>
<name>5509</name>
</trkpt>
<trkpt lat="48.940645" lon="8.665870">
<ele>367.5</ele>
<speed>5.2</speed>
<course>335.3</course>
<desc>Speed 5.2 km/h Distance 8.10 km</desc>
<time>2010-02-28T11:49:34.83</time>
<name>5510</name>
</trkpt>
<trkpt lat="48.940662" lon="8.665858">
<ele>367.5</ele>
<speed>5.8</speed>
<course>337.4</course>
<desc>Speed 5.8 km/h Distance 8.10 km</desc>
<time>2010-02-28T11:49:35.84</time>
<name>5511</name>
</trkpt>
<trkpt lat="48.940675" lon="8.665850">
<ele>367.0</ele>
<speed>4.7</speed>
<course>304.7</course>
<desc>Speed 4.7 km/h Distance 8.10 km</desc>
<time>2010-02-28T11:49:36.85</time>
<name>5512</name>
</trkpt>
<trkpt lat="48.940683" lon="8.665832">
<ele>367.0</ele>
<speed>4.5</speed>
<course>326.9</course>
<desc>Speed 4.5 km/h Distance 8.10 km</desc>
<time>2010-02-28T11:49:37.85</time>
<name>5513</name>
</trkpt>
<trkpt lat="48.940695" lon="8.665820">
<ele>366.5</ele>
<speed>3.7</speed>
<course>44.5</course>
<desc>Speed 3.7 km/h Distance 8.10 km</desc>
<time>2010-02-28T11:49:38.85</time>
<name>5514</name>
</trkpt>
<trkpt lat="48.940708" lon="8.665840">
<ele>366.5</ele>
<speed>5.6</speed>
<course>305.4</course>
<desc>Speed 5.6 km/h Distance 8.11 km</desc>
<time>2010-02-28T11:49:39.85</time>
<name>5515</name>
</trkpt>
<trkpt lat="48.940720" lon="8.665815">
<ele>366.5</ele>
<speed>7.8</speed>
<course>339.9</course>
<desc>Speed 7.8 km/h Distance 8.11 km</desc>
<time>2010-02-28T11:49:40.85</time>
<name>5516</name>
</trkpt>
<trkpt lat="48.940735" lon="8.665807">
<ele>366.5</ele>
<speed>4.4</speed>
<course>353.4</course>
<desc>Speed 4.4 km/h Distance 8.11 km</desc>
<time>2010-02-28T11:49:41.85</time>
<name>5517</name>
</trkpt>
<trkpt lat="48.940755" lon="8.665803">
<ele>366.0</ele>
<speed>4.2</speed>
<course>7.4</course>
<desc>Speed 4.2 km/h Distance 8.11 km</desc>
<time>2010-02-28T11:49:42.85</time>
<name>5518</name>
</trkpt>
<trkpt lat="48.940762" lon="8.665805">
<ele>364.5</ele>
<speed>2.1</speed>
<course>7.4</course>
<desc>Speed 2.1 km/h Distance 8.11 km</desc>
<time>2010-02-28T11:49:43.85</time>
<name>5519</name>
</trkpt>
<trkpt lat="48.940768" lon="8.665807">
<ele>364.5</ele>
<speed>2.1</speed>
<course>326.6</course>
<desc>Speed 2.1 km/h Distance 8.11 km</desc>
<time>2010-02-28T11:49:45.85</time>
<name>5520</name>
</trkpt>
<trkpt lat="48.940782" lon="8.665793">
<ele>365.0</ele>
<speed>5.1</speed>
<course>336.3</course>
<desc>Speed 5.1 km/h Distance 8.12 km</desc>
<time>2010-02-28T11:49:46.85</time>
<name>5521</name>
</trkpt>
<trkpt lat="48.940797" lon="8.665783">
<ele>364.5</ele>
<speed>4.0</speed>
<course>323.7</course>
<desc>Speed 4.0 km/h Distance 8.12 km</desc>
<time>2010-02-28T11:49:47.85</time>
<name>5522</name>
</trkpt>
<trkpt lat="48.940825" lon="8.665752">
<ele>366.0</ele>
<speed>4.4</speed>
<course>277.2</course>
<desc>Speed 4.4 km/h Distance 8.12 km</desc>
<time>2010-02-28T11:49:49.85</time>
<name>5523</name>
</trkpt>
<trkpt lat="48.940827" lon="8.665732">
<ele>367.0</ele>
<speed>3.7</speed>
<course>14.9</course>
<desc>Speed 3.7 km/h Distance 8.12 km</desc>
<time>2010-02-28T11:49:50.85</time>
<name>5524</name>
</trkpt>
<trkpt lat="48.940835" lon="8.665735">
<ele>367.5</ele>
<speed>3.5</speed>
<course>264.4</course>
<desc>Speed 3.5 km/h Distance 8.12 km</desc>
<time>2010-02-28T11:49:51.85</time>
<name>5525</name>
</trkpt>
<trkpt lat="48.940832" lon="8.665683">
<ele>367.0</ele>
<speed>3.3</speed>
<course>321.9</course>
<desc>Speed 3.3 km/h Distance 8.13 km</desc>
<time>2010-02-28T11:49:53.85</time>
<name>5526</name>
</trkpt>
<trkpt lat="48.940840" lon="8.665673">
<ele>366.5</ele>
<speed>2.3</speed>
<course>318.6</course>
<desc>Speed 2.3 km/h Distance 8.13 km</desc>
<time>2010-02-28T11:49:54.85</time>
<name>5527</name>
</trkpt>
<trkpt lat="48.940845" lon="8.665667">
<ele>366.5</ele>
<speed>1.2</speed>
<course>307.0</course>
<desc>Speed 1.2 km/h Distance 8.13 km</desc>
<time>2010-02-28T11:49:55.85</time>
<name>5528</name>
</trkpt>
<trkpt lat="48.940848" lon="8.665660">
<ele>366.5</ele>
<speed>0.9</speed>
<course>337.9</course>
<desc>Speed 0.9 km/h Distance 8.13 km</desc>
<time>2010-02-28T11:49:56.85</time>
<name>5529</name>
</trkpt>
<trkpt lat="48.940862" lon="8.665652">
<ele>366.0</ele>
<speed>3.5</speed>
<course>347.8</course>
<desc>Speed 3.5 km/h Distance 8.13 km</desc>
<time>2010-02-28T11:49:57.85</time>
<name>5530</name>
</trkpt>
<trkpt lat="48.940877" lon="8.665647">
<ele>366.0</ele>
<speed>4.1</speed>
<course>339.4</course>
<desc>Speed 4.1 km/h Distance 8.13 km</desc>
<time>2010-02-28T11:49:58.85</time>
<name>5531</name>
</trkpt>
<trkpt lat="48.940888" lon="8.665640">
<ele>365.5</ele>
<speed>4.0</speed>
<course>330.6</course>
<desc>Speed 4.0 km/h Distance 8.14 km</desc>
<time>2010-02-28T11:49:59.85</time>
<name>5532</name>
</trkpt>
<trkpt lat="48.940900" lon="8.665630">
<ele>365.5</ele>
<speed>3.2</speed>
<course>357.2</course>
<desc>Speed 3.2 km/h Distance 8.14 km</desc>
<time>2010-02-28T11:50:00.85</time>
<name>5533</name>
</trkpt>
<trkpt lat="48.940917" lon="8.665628">
<ele>365.0</ele>
<speed>4.5</speed>
<course>3.7</course>
<desc>Speed 4.5 km/h Distance 8.14 km</desc>
<time>2010-02-28T11:50:01.85</time>
<name>5534</name>
</trkpt>
<trkpt lat="48.940935" lon="8.665630">
<ele>364.5</ele>
<speed>4.4</speed>
<course>2.7</course>
<desc>Speed 4.4 km/h Distance 8.14 km</desc>
<time>2010-02-28T11:50:02.85</time>
<name>5535</name>
</trkpt>
<trkpt lat="48.940955" lon="8.665632">
<ele>364.0</ele>
<speed>4.2</speed>
<course>1.2</course>
<desc>Speed 4.2 km/h Distance 8.14 km</desc>
<time>2010-02-28T11:50:03.85</time>
<name>5536</name>
</trkpt>
<trkpt lat="48.940975" lon="8.665632">
<ele>363.5</ele>
<speed>3.0</speed>
<course>329.7</course>
<desc>Speed 3.0 km/h Distance 8.15 km</desc>
<time>2010-02-28T11:50:04.85</time>
<name>5537</name>
</trkpt>
<trkpt lat="48.940990" lon="8.665618">
<ele>363.0</ele>
<speed>3.2</speed>
<course>303.7</course>
<desc>Speed 3.2 km/h Distance 8.15 km</desc>
<time>2010-02-28T11:50:05.85</time>
<name>5538</name>
</trkpt>
<trkpt lat="48.941002" lon="8.665592">
<ele>363.0</ele>
<speed>4.5</speed>
<course>17.5</course>
<desc>Speed 4.5 km/h Distance 8.15 km</desc>
<time>2010-02-28T11:50:06.85</time>
<name>5539</name>
</trkpt>
<trkpt lat="48.941008" lon="8.665595">
<ele>362.5</ele>
<speed>1.4</speed>
<course>20.6</course>
<desc>Speed 1.4 km/h Distance 8.15 km</desc>
<time>2010-02-28T11:50:07.85</time>
<name>5540</name>
</trkpt>
<trkpt lat="48.941020" lon="8.665602">
<ele>362.5</ele>
<speed>3.0</speed>
<course>8.8</course>
<desc>Speed 3.0 km/h Distance 8.15 km</desc>
<time>2010-02-28T11:50:08.85</time>
<name>5541</name>
</trkpt>
<trkpt lat="48.941035" lon="8.665605">
<ele>362.0</ele>
<speed>4.3</speed>
<course>41.3</course>
<desc>Speed 4.3 km/h Distance 8.15 km</desc>
<time>2010-02-28T11:50:09.85</time>
<name>5542</name>
</trkpt>
<trkpt lat="48.941045" lon="8.665618">
<ele>362.0</ele>
<speed>4.2</speed>
<course>16.3</course>
<desc>Speed 4.2 km/h Distance 8.16 km</desc>
<time>2010-02-28T11:50:10.85</time>
<name>5543</name>
</trkpt>
<trkpt lat="48.941060" lon="8.665625">
<ele>361.5</ele>
<speed>5.0</speed>
<course>38.1</course>
<desc>Speed 5.0 km/h Distance 8.16 km</desc>
<time>2010-02-28T11:50:11.85</time>
<name>5544</name>
</trkpt>
<trkpt lat="48.941068" lon="8.665635">
<ele>361.5</ele>
<speed>4.4</speed>
<course>29.8</course>
<desc>Speed 4.4 km/h Distance 8.16 km</desc>
<time>2010-02-28T11:50:12.85</time>
<name>5545</name>
</trkpt>
<trkpt lat="48.941082" lon="8.665647">
<ele>361.5</ele>
<speed>5.0</speed>
<course>33.3</course>
<desc>Speed 5.0 km/h Distance 8.16 km</desc>
<time>2010-02-28T11:50:13.85</time>
<name>5546</name>
</trkpt>
<trkpt lat="48.941093" lon="8.665658">
<ele>361.0</ele>
<speed>5.1</speed>
<course>44.5</course>
<desc>Speed 5.1 km/h Distance 8.16 km</desc>
<time>2010-02-28T11:50:14.85</time>
<name>5547</name>
</trkpt>
<trkpt lat="48.941103" lon="8.665673">
<ele>361.0</ele>
<speed>4.4</speed>
<course>36.6</course>
<desc>Speed 4.4 km/h Distance 8.16 km</desc>
<time>2010-02-28T11:50:15.85</time>
<name>5548</name>
</trkpt>
<trkpt lat="48.941117" lon="8.665688">
<ele>360.5</ele>
<speed>4.9</speed>
<course>39.4</course>
<desc>Speed 4.9 km/h Distance 8.16 km</desc>
<time>2010-02-28T11:50:16.85</time>
<name>5549</name>
</trkpt>
<trkpt lat="48.941130" lon="8.665705">
<ele>359.5</ele>
<speed>5.3</speed>
<course>50.6</course>
<desc>Speed 5.3 km/h Distance 8.17 km</desc>
<time>2010-02-28T11:50:17.85</time>
<name>5550</name>
</trkpt>
<trkpt lat="48.941142" lon="8.665727">
<ele>359.0</ele>
<speed>5.4</speed>
<course>44.5</course>
<desc>Speed 5.4 km/h Distance 8.17 km</desc>
<time>2010-02-28T11:50:18.85</time>
<name>5551</name>
</trkpt>
<trkpt lat="48.941152" lon="8.665742">
<ele>359.0</ele>
<speed>5.3</speed>
<course>52.7</course>
<desc>Speed 5.3 km/h Distance 8.17 km</desc>
<time>2010-02-28T11:50:19.85</time>
<name>5552</name>
</trkpt>
<trkpt lat="48.941160" lon="8.665758">
<ele>358.5</ele>
<speed>4.8</speed>
<course>65.5</course>
<desc>Speed 4.8 km/h Distance 8.17 km</desc>
<time>2010-02-28T11:50:20.85</time>
<name>5553</name>
</trkpt>
<trkpt lat="48.941165" lon="8.665775">
<ele>358.5</ele>
<speed>4.6</speed>
<course>56.1</course>
<desc>Speed 4.6 km/h Distance 8.17 km</desc>
<time>2010-02-28T11:50:21.85</time>
<name>5554</name>
</trkpt>
<trkpt lat="48.941172" lon="8.665790">
<ele>358.5</ele>
<speed>4.5</speed>
<course>52.7</course>
<desc>Speed 4.5 km/h Distance 8.17 km</desc>
<time>2010-02-28T11:50:22.85</time>
<name>5555</name>
</trkpt>
<trkpt lat="48.941178" lon="8.665803">
<ele>358.5</ele>
<speed>4.0</speed>
<course>41.2</course>
<desc>Speed 4.0 km/h Distance 8.18 km</desc>
<time>2010-02-28T11:50:23.85</time>
<name>5556</name>
</trkpt>
<trkpt lat="48.941188" lon="8.665817">
<ele>358.0</ele>
<speed>4.5</speed>
<course>33.1</course>
<desc>Speed 4.5 km/h Distance 8.18 km</desc>
<time>2010-02-28T11:50:24.85</time>
<name>5557</name>
</trkpt>
<trkpt lat="48.941200" lon="8.665828">
<ele>358.0</ele>
<speed>5.0</speed>
<course>36.9</course>
<desc>Speed 5.0 km/h Distance 8.18 km</desc>
<time>2010-02-28T11:50:25.85</time>
<name>5558</name>
</trkpt>
<trkpt lat="48.941212" lon="8.665842">
<ele>357.5</ele>
<speed>4.9</speed>
<course>40.2</course>
<desc>Speed 4.9 km/h Distance 8.18 km</desc>
<time>2010-02-28T11:50:26.85</time>
<name>5559</name>
</trkpt>
<trkpt lat="48.941223" lon="8.665857">
<ele>357.5</ele>
<speed>4.9</speed>
<course>33.4</course>
<desc>Speed 4.9 km/h Distance 8.18 km</desc>
<time>2010-02-28T11:50:27.85</time>
<name>5560</name>
</trkpt>
<trkpt lat="48.941237" lon="8.665870">
<ele>357.0</ele>
<speed>4.8</speed>
<course>49.7</course>
<desc>Speed 4.8 km/h Distance 8.18 km</desc>
<time>2010-02-28T11:50:28.85</time>
<name>5561</name>
</trkpt>
<trkpt lat="48.941245" lon="8.665885">
<ele>357.0</ele>
<speed>4.6</speed>
<course>35.1</course>
<desc>Speed 4.6 km/h Distance 8.19 km</desc>
<time>2010-02-28T11:50:29.85</time>
<name>5562</name>
</trkpt>
<trkpt lat="48.941268" lon="8.665910">
<ele>357.0</ele>
<speed>10.3</speed>
<course>55.4</course>
<desc>Speed 10.3 km/h Distance 8.19 km</desc>
<time>2010-02-28T11:50:30.85</time>
<name>5563</name>
</trkpt>
<trkpt lat="48.941277" lon="8.665928">
<ele>357.0</ele>
<speed>4.9</speed>
<course>71.9</course>
<desc>Speed 4.9 km/h Distance 8.19 km</desc>
<time>2010-02-28T11:50:31.85</time>
<name>5564</name>
</trkpt>
<trkpt lat="48.941282" lon="8.665952">
<ele>356.5</ele>
<speed>4.8</speed>
<course>39.0</course>
<desc>Speed 4.8 km/h Distance 8.19 km</desc>
<time>2010-02-28T11:50:32.85</time>
<name>5565</name>
</trkpt>
<trkpt lat="48.941288" lon="8.665960">
<ele>356.5</ele>
<speed>3.0</speed>
<course>33.2</course>
<desc>Speed 3.0 km/h Distance 8.19 km</desc>
<time>2010-02-28T11:50:33.85</time>
<name>5566</name>
</trkpt>
<trkpt lat="48.941297" lon="8.665968">
<ele>356.5</ele>
<speed>3.7</speed>
<course>37.3</course>
<desc>Speed 3.7 km/h Distance 8.19 km</desc>
<time>2010-02-28T11:50:34.85</time>
<name>5567</name>
</trkpt>
<trkpt lat="48.941307" lon="8.665980">
<ele>356.5</ele>
<speed>4.5</speed>
<course>41.2</course>
<desc>Speed 4.5 km/h Distance 8.20 km</desc>
<time>2010-02-28T11:50:35.85</time>
<name>5568</name>
</trkpt>
<trkpt lat="48.941317" lon="8.665993">
<ele>356.5</ele>
<speed>4.7</speed>
<course>41.3</course>
<desc>Speed 4.7 km/h Distance 8.20 km</desc>
<time>2010-02-28T11:50:36.85</time>
<name>5569</name>
</trkpt>
<trkpt lat="48.941327" lon="8.666007">
<ele>356.5</ele>
<speed>4.7</speed>
<course>38.1</course>
<desc>Speed 4.7 km/h Distance 8.20 km</desc>
<time>2010-02-28T11:50:37.85</time>
<name>5570</name>
</trkpt>
<trkpt lat="48.941335" lon="8.666017">
<ele>356.5</ele>
<speed>3.7</speed>
<course>37.5</course>
<desc>Speed 3.7 km/h Distance 8.20 km</desc>
<time>2010-02-28T11:50:38.85</time>
<name>5571</name>
</trkpt>
<trkpt lat="48.941345" lon="8.666028">
<ele>356.5</ele>
<speed>4.8</speed>
<course>44.6</course>
<desc>Speed 4.8 km/h Distance 8.20 km</desc>
<time>2010-02-28T11:50:39.85</time>
<name>5572</name>
</trkpt>
<trkpt lat="48.941355" lon="8.666043">
<ele>356.5</ele>
<speed>5.3</speed>
<course>27.2</course>
<desc>Speed 5.3 km/h Distance 8.20 km</desc>
<time>2010-02-28T11:50:40.85</time>
<name>5573</name>
</trkpt>
<trkpt lat="48.941370" lon="8.666055">
<ele>356.5</ele>
<speed>5.4</speed>
<course>33.2</course>
<desc>Speed 5.4 km/h Distance 8.20 km</desc>
<time>2010-02-28T11:50:41.85</time>
<name>5574</name>
</trkpt>
<trkpt lat="48.941380" lon="8.666065">
<ele>356.5</ele>
<speed>4.4</speed>
<course>38.1</course>
<desc>Speed 4.4 km/h Distance 8.21 km</desc>
<time>2010-02-28T11:50:42.85</time>
<name>5575</name>
</trkpt>
<trkpt lat="48.941388" lon="8.666075">
<ele>356.5</ele>
<speed>4.0</speed>
<course>25.2</course>
<desc>Speed 4.0 km/h Distance 8.21 km</desc>
<time>2010-02-28T11:50:43.85</time>
<name>5576</name>
</trkpt>
<trkpt lat="48.941400" lon="8.666083">
<ele>356.5</ele>
<speed>4.6</speed>
<course>33.4</course>
<desc>Speed 4.6 km/h Distance 8.21 km</desc>
<time>2010-02-28T11:50:44.85</time>
<name>5577</name>
</trkpt>
<trkpt lat="48.941413" lon="8.666097">
<ele>356.5</ele>
<speed>5.5</speed>
<course>47.6</course>
<desc>Speed 5.5 km/h Distance 8.21 km</desc>
<time>2010-02-28T11:50:45.85</time>
<name>5578</name>
</trkpt>
<trkpt lat="48.941423" lon="8.666113">
<ele>356.0</ele>
<speed>5.4</speed>
<course>50.3</course>
<desc>Speed 5.4 km/h Distance 8.21 km</desc>
<time>2010-02-28T11:50:46.85</time>
<name>5579</name>
</trkpt>
<trkpt lat="48.941433" lon="8.666132">
<ele>356.0</ele>
<speed>5.5</speed>
<course>36.5</course>
<desc>Speed 5.5 km/h Distance 8.21 km</desc>
<time>2010-02-28T11:50:47.85</time>
<name>5580</name>
</trkpt>
<trkpt lat="48.941447" lon="8.666147">
<ele>355.5</ele>
<speed>5.9</speed>
<course>36.9</course>
<desc>Speed 5.9 km/h Distance 8.22 km</desc>
<time>2010-02-28T11:50:48.85</time>
<name>5581</name>
</trkpt>
<trkpt lat="48.941458" lon="8.666160">
<ele>355.5</ele>
<speed>5.6</speed>
<course>33.3</course>
<desc>Speed 5.6 km/h Distance 8.22 km</desc>
<time>2010-02-28T11:50:49.85</time>
<name>5582</name>
</trkpt>
<trkpt lat="48.941470" lon="8.666172">
<ele>355.0</ele>
<speed>5.4</speed>
<course>29.8</course>
<desc>Speed 5.4 km/h Distance 8.22 km</desc>
<time>2010-02-28T11:50:50.85</time>
<name>5583</name>
</trkpt>
<trkpt lat="48.941483" lon="8.666183">
<ele>355.0</ele>
<speed>6.2</speed>
<course>37.5</course>
<desc>Speed 6.2 km/h Distance 8.22 km</desc>
<time>2010-02-28T11:50:51.85</time>
<name>5584</name>
</trkpt>
<trkpt lat="48.941493" lon="8.666195">
<ele>355.0</ele>
<speed>5.3</speed>
<course>25.2</course>
<desc>Speed 5.3 km/h Distance 8.22 km</desc>
<time>2010-02-28T11:50:52.85</time>
<name>5585</name>
</trkpt>
<trkpt lat="48.941505" lon="8.666203">
<ele>355.0</ele>
<speed>5.0</speed>
<course>37.3</course>
<desc>Speed 5.0 km/h Distance 8.22 km</desc>
<time>2010-02-28T11:50:53.85</time>
<name>5586</name>
</trkpt>
<trkpt lat="48.941515" lon="8.666215">
<ele>354.5</ele>
<speed>5.2</speed>
<course>24.6</course>
<desc>Speed 5.2 km/h Distance 8.22 km</desc>
<time>2010-02-28T11:50:54.85</time>
<name>5587</name>
</trkpt>
<trkpt lat="48.941527" lon="8.666223">
<ele>354.5</ele>
<speed>5.3</speed>
<course>33.4</course>
<desc>Speed 5.3 km/h Distance 8.23 km</desc>
<time>2010-02-28T11:50:55.85</time>
<name>5588</name>
</trkpt>
<trkpt lat="48.941538" lon="8.666235">
<ele>354.5</ele>
<speed>5.9</speed>
<course>41.2</course>
<desc>Speed 5.9 km/h Distance 8.23 km</desc>
<time>2010-02-28T11:50:56.85</time>
<name>5589</name>
</trkpt>
<trkpt lat="48.941548" lon="8.666248">
<ele>354.5</ele>
<speed>5.6</speed>
<course>33.1</course>
<desc>Speed 5.6 km/h Distance 8.23 km</desc>
<time>2010-02-28T11:50:57.85</time>
<name>5590</name>
</trkpt>
<trkpt lat="48.941560" lon="8.666260">
<ele>354.5</ele>
<speed>5.1</speed>
<course>48.9</course>
<desc>Speed 5.1 km/h Distance 8.23 km</desc>
<time>2010-02-28T11:50:58.85</time>
<name>5591</name>
</trkpt>
<trkpt lat="48.941567" lon="8.666272">
<ele>354.5</ele>
<speed>4.0</speed>
<course>48.9</course>
<desc>Speed 4.0 km/h Distance 8.23 km</desc>
<time>2010-02-28T11:50:59.85</time>
<name>5592</name>
</trkpt>
<trkpt lat="48.941573" lon="8.666283">
<ele>354.5</ele>
<speed>3.8</speed>
<course>14.9</course>
<desc>Speed 3.8 km/h Distance 8.23 km</desc>
<time>2010-02-28T11:51:00.85</time>
<name>5593</name>
</trkpt>
<trkpt lat="48.941582" lon="8.666287">
<ele>354.5</ele>
<speed>3.9</speed>
<course>16.0</course>
<desc>Speed 3.9 km/h Distance 8.23 km</desc>
<time>2010-02-28T11:51:01.85</time>
<name>5594</name>
</trkpt>
<trkpt lat="48.941593" lon="8.666292">
<ele>354.5</ele>
<speed>4.5</speed>
<course>22.3</course>
<desc>Speed 4.5 km/h Distance 8.24 km</desc>
<time>2010-02-28T11:51:02.85</time>
<name>5595</name>
</trkpt>
<trkpt lat="48.941607" lon="8.666300">
<ele>354.5</ele>
<speed>5.7</speed>
<course>25.2</course>
<desc>Speed 5.7 km/h Distance 8.24 km</desc>
<time>2010-02-28T11:51:03.85</time>
<name>5596</name>
</trkpt>
<trkpt lat="48.941618" lon="8.666308">
<ele>354.5</ele>
<speed>4.6</speed>
<course>37.5</course>
<desc>Speed 4.6 km/h Distance 8.24 km</desc>
<time>2010-02-28T11:51:04.85</time>
<name>5597</name>
</trkpt>
<trkpt lat="48.941628" lon="8.666320">
<ele>354.5</ele>
<speed>4.8</speed>
<course>25.2</course>
<desc>Speed 4.8 km/h Distance 8.24 km</desc>
<time>2010-02-28T11:51:05.85</time>
<name>5598</name>
</trkpt>
<trkpt lat="48.941640" lon="8.666328">
<ele>354.5</ele>
<speed>5.4</speed>
<course>20.9</course>
<desc>Speed 5.4 km/h Distance 8.24 km</desc>
<time>2010-02-28T11:51:06.85</time>
<name>5599</name>
</trkpt>
<trkpt lat="48.941652" lon="8.666335">
<ele>354.5</ele>
<speed>4.8</speed>
<course>25.2</course>
<desc>Speed 4.8 km/h Distance 8.24 km</desc>
<time>2010-02-28T11:51:07.85</time>
<name>5600</name>
</trkpt>
<trkpt lat="48.941663" lon="8.666343">
<ele>354.5</ele>
<speed>5.0</speed>
<course>28.6</course>
<desc>Speed 5.0 km/h Distance 8.24 km</desc>
<time>2010-02-28T11:51:08.85</time>
<name>5601</name>
</trkpt>
<trkpt lat="48.941673" lon="8.666352">
<ele>354.0</ele>
<speed>4.3</speed>
<course>38.1</course>
<desc>Speed 4.3 km/h Distance 8.25 km</desc>
<time>2010-02-28T11:51:09.85</time>
<name>5602</name>
</trkpt>
<trkpt lat="48.941682" lon="8.666362">
<ele>354.0</ele>
<speed>4.2</speed>
<course>33.3</course>
<desc>Speed 4.2 km/h Distance 8.25 km</desc>
<time>2010-02-28T11:51:10.85</time>
<name>5603</name>
</trkpt>
<trkpt lat="48.941693" lon="8.666373">
<ele>354.0</ele>
<speed>5.2</speed>
<course>44.5</course>
<desc>Speed 5.2 km/h Distance 8.25 km</desc>
<time>2010-02-28T11:51:11.85</time>
<name>5604</name>
</trkpt>
<trkpt lat="48.941703" lon="8.666388">
<ele>354.0</ele>
<speed>5.4</speed>
<course>33.3</course>
<desc>Speed 5.4 km/h Distance 8.25 km</desc>
<time>2010-02-28T11:51:12.85</time>
<name>5605</name>
</trkpt>
<trkpt lat="48.941715" lon="8.666400">
<ele>354.0</ele>
<speed>5.6</speed>
<course>30.0</course>
<desc>Speed 5.6 km/h Distance 8.25 km</desc>
<time>2010-02-28T11:51:13.85</time>
<name>5606</name>
</trkpt>
<trkpt lat="48.941728" lon="8.666412">
<ele>354.0</ele>
<speed>5.8</speed>
<course>23.8</course>
<desc>Speed 5.8 km/h Distance 8.25 km</desc>
<time>2010-02-28T11:51:14.85</time>
<name>5607</name>
</trkpt>
<trkpt lat="48.941743" lon="8.666422">
<ele>354.0</ele>
<speed>6.0</speed>
<course>30.0</course>
<desc>Speed 6.0 km/h Distance 8.25 km</desc>
<time>2010-02-28T11:51:15.85</time>
<name>5608</name>
</trkpt>
<trkpt lat="48.941757" lon="8.666433">
<ele>354.0</ele>
<speed>6.1</speed>
<course>33.4</course>
<desc>Speed 6.1 km/h Distance 8.26 km</desc>
<time>2010-02-28T11:51:16.85</time>
<name>5609</name>
</trkpt>
<trkpt lat="48.941770" lon="8.666447">
<ele>353.5</ele>
<speed>6.0</speed>
<course>24.7</course>
<desc>Speed 6.0 km/h Distance 8.26 km</desc>
<time>2010-02-28T11:51:17.85</time>
<name>5610</name>
</trkpt>
<trkpt lat="48.941787" lon="8.666458">
<ele>353.5</ele>
<speed>6.7</speed>
<course>26.9</course>
<desc>Speed 6.7 km/h Distance 8.26 km</desc>
<time>2010-02-28T11:51:18.85</time>
<name>5611</name>
</trkpt>
<trkpt lat="48.941802" lon="8.666470">
<ele>353.5</ele>
<speed>6.2</speed>
<course>26.4</course>
<desc>Speed 6.2 km/h Distance 8.26 km</desc>
<time>2010-02-28T11:51:19.85</time>
<name>5612</name>
</trkpt>
<trkpt lat="48.941815" lon="8.666480">
<ele>353.5</ele>
<speed>6.2</speed>
<course>20.1</course>
<desc>Speed 6.2 km/h Distance 8.26 km</desc>
<time>2010-02-28T11:51:20.85</time>
<name>5613</name>
</trkpt>
<trkpt lat="48.941830" lon="8.666488">
<ele>353.5</ele>
<speed>6.5</speed>
<course>40.3</course>
<desc>Speed 6.5 km/h Distance 8.27 km</desc>
<time>2010-02-28T11:51:21.85</time>
<name>5614</name>
</trkpt>
<trkpt lat="48.941842" lon="8.666503">
<ele>353.5</ele>
<speed>5.9</speed>
<course>40.3</course>
<desc>Speed 5.9 km/h Distance 8.27 km</desc>
<time>2010-02-28T11:51:22.85</time>
<name>5615</name>
</trkpt>
<trkpt lat="48.941853" lon="8.666518">
<ele>353.5</ele>
<speed>6.3</speed>
<course>33.4</course>
<desc>Speed 6.3 km/h Distance 8.27 km</desc>
<time>2010-02-28T11:51:23.85</time>
<name>5616</name>
</trkpt>
<trkpt lat="48.941867" lon="8.666532">
<ele>353.5</ele>
<speed>6.3</speed>
<course>36.9</course>
<desc>Speed 6.3 km/h Distance 8.27 km</desc>
<time>2010-02-28T11:51:24.85</time>
<name>5617</name>
</trkpt>
<trkpt lat="48.941878" lon="8.666545">
<ele>353.5</ele>
<speed>5.8</speed>
<course>33.3</course>
<desc>Speed 5.8 km/h Distance 8.27 km</desc>
<time>2010-02-28T11:51:25.85</time>
<name>5618</name>
</trkpt>
<trkpt lat="48.941890" lon="8.666557">
<ele>353.5</ele>
<speed>5.9</speed>
<course>43.3</course>
<desc>Speed 5.9 km/h Distance 8.27 km</desc>
<time>2010-02-28T11:51:26.85</time>
<name>5619</name>
</trkpt>
<trkpt lat="48.941902" lon="8.666573">
<ele>353.5</ele>
<speed>6.2</speed>
<course>47.6</course>
<desc>Speed 6.2 km/h Distance 8.28 km</desc>
<time>2010-02-28T11:51:27.85</time>
<name>5620</name>
</trkpt>
<trkpt lat="48.941912" lon="8.666590">
<ele>353.5</ele>
<speed>6.2</speed>
<course>36.9</course>
<desc>Speed 6.2 km/h Distance 8.28 km</desc>
<time>2010-02-28T11:51:28.85</time>
<name>5621</name>
</trkpt>
<trkpt lat="48.941923" lon="8.666603">
<ele>353.5</ele>
<speed>6.1</speed>
<course>40.2</course>
<desc>Speed 6.1 km/h Distance 8.28 km</desc>
<time>2010-02-28T11:51:29.85</time>
<name>5622</name>
</trkpt>
<trkpt lat="48.941935" lon="8.666618">
<ele>353.5</ele>
<speed>6.4</speed>
<course>30.0</course>
<desc>Speed 6.4 km/h Distance 8.28 km</desc>
<time>2010-02-28T11:51:30.85</time>
<name>5623</name>
</trkpt>
<trkpt lat="48.941948" lon="8.666630">
<ele>353.0</ele>
<speed>6.4</speed>
<course>40.2</course>
<desc>Speed 6.4 km/h Distance 8.28 km</desc>
<time>2010-02-28T11:51:31.85</time>
<name>5624</name>
</trkpt>
<trkpt lat="48.941960" lon="8.666645">
<ele>353.0</ele>
<speed>6.6</speed>
<course>23.7</course>
<desc>Speed 6.6 km/h Distance 8.28 km</desc>
<time>2010-02-28T11:51:32.85</time>
<name>5625</name>
</trkpt>
<trkpt lat="48.941975" lon="8.666655">
<ele>353.0</ele>
<speed>6.6</speed>
<course>33.4</course>
<desc>Speed 6.6 km/h Distance 8.29 km</desc>
<time>2010-02-28T11:51:33.85</time>
<name>5626</name>
</trkpt>
<trkpt lat="48.941988" lon="8.666668">
<ele>353.0</ele>
<speed>6.2</speed>
<course>33.3</course>
<desc>Speed 6.2 km/h Distance 8.29 km</desc>
<time>2010-02-28T11:51:34.85</time>
<name>5627</name>
</trkpt>
<trkpt lat="48.942002" lon="8.666682">
<ele>353.0</ele>
<speed>6.8</speed>
<course>33.4</course>
<desc>Speed 6.8 km/h Distance 8.29 km</desc>
<time>2010-02-28T11:51:35.85</time>
<name>5628</name>
</trkpt>
<trkpt lat="48.942015" lon="8.666695">
<ele>353.0</ele>
<speed>6.2</speed>
<course>21.5</course>
<desc>Speed 6.2 km/h Distance 8.29 km</desc>
<time>2010-02-28T11:51:36.85</time>
<name>5629</name>
</trkpt>
<trkpt lat="48.942032" lon="8.666705">
<ele>353.0</ele>
<speed>7.1</speed>
<course>19.9</course>
<desc>Speed 7.1 km/h Distance 8.29 km</desc>
<time>2010-02-28T11:51:37.85</time>
<name>5630</name>
</trkpt>
<trkpt lat="48.942047" lon="8.666713">
<ele>353.0</ele>
<speed>6.2</speed>
<course>13.5</course>
<desc>Speed 6.2 km/h Distance 8.29 km</desc>
<time>2010-02-28T11:51:38.85</time>
<name>5631</name>
</trkpt>
<trkpt lat="48.942060" lon="8.666718">
<ele>353.0</ele>
<speed>6.5</speed>
<course>14.9</course>
<desc>Speed 6.5 km/h Distance 8.30 km</desc>
<time>2010-02-28T11:51:39.85</time>
<name>5632</name>
</trkpt>
<trkpt lat="48.942072" lon="8.666723">
<ele>353.0</ele>
<speed>6.0</speed>
<course>3.8</course>
<desc>Speed 6.0 km/h Distance 8.30 km</desc>
<time>2010-02-28T11:51:40.85</time>
<name>5633</name>
</trkpt>
<trkpt lat="48.942087" lon="8.666725">
<ele>353.0</ele>
<speed>5.7</speed>
<course>18.1</course>
<desc>Speed 5.7 km/h Distance 8.30 km</desc>
<time>2010-02-28T11:51:41.85</time>
<name>5634</name>
</trkpt>
<trkpt lat="48.942100" lon="8.666732">
<ele>353.0</ele>
<speed>5.9</speed>
<course>18.2</course>
<desc>Speed 5.9 km/h Distance 8.30 km</desc>
<time>2010-02-28T11:51:42.85</time>
<name>5635</name>
</trkpt>
<trkpt lat="48.942110" lon="8.666737">
<ele>353.0</ele>
<speed>6.0</speed>
<course>14.9</course>
<desc>Speed 6.0 km/h Distance 8.30 km</desc>
<time>2010-02-28T11:51:43.85</time>
<name>5636</name>
</trkpt>
<trkpt lat="48.942118" lon="8.666740">
<ele>353.0</ele>
<speed>5.2</speed>
<course>5.0</course>
<desc>Speed 5.2 km/h Distance 8.30 km</desc>
<time>2010-02-28T11:51:44.85</time>
<name>5637</name>
</trkpt>
<trkpt lat="48.942127" lon="8.666740">
<ele>352.5</ele>
<speed>6.7</speed>
<course>33.2</course>
<desc>Speed 6.7 km/h Distance 8.30 km</desc>
<time>2010-02-28T11:51:45.85</time>
<name>5638</name>
</trkpt>
<trkpt lat="48.942135" lon="8.666748">
<ele>352.5</ele>
<speed>6.1</speed>
<course>13.5</course>
<desc>Speed 6.1 km/h Distance 8.31 km</desc>
<time>2010-02-28T11:51:46.85</time>
<name>5639</name>
</trkpt>
<trkpt lat="48.942148" lon="8.666753">
<ele>352.5</ele>
<speed>4.9</speed>
<course>20.6</course>
<desc>Speed 4.9 km/h Distance 8.31 km</desc>
<time>2010-02-28T11:51:47.85</time>
<name>5640</name>
</trkpt>
<trkpt lat="48.942160" lon="8.666760">
<ele>352.0</ele>
<speed>5.3</speed>
<course>11.2</course>
<desc>Speed 5.3 km/h Distance 8.31 km</desc>
<time>2010-02-28T11:51:48.85</time>
<name>5641</name>
</trkpt>
<trkpt lat="48.942177" lon="8.666765">
<ele>352.0</ele>
<speed>6.7</speed>
<course>95.4</course>
<desc>Speed 6.7 km/h Distance 8.31 km</desc>
<time>2010-02-28T11:51:49.85</time>
<name>5642</name>
</trkpt>
<trkpt lat="48.942175" lon="8.666792">
<ele>352.0</ele>
<speed>6.8</speed>
<course>69.2</course>
<desc>Speed 6.8 km/h Distance 8.31 km</desc>
<time>2010-02-28T11:51:50.85</time>
<name>5643</name>
</trkpt>
<trkpt lat="48.942178" lon="8.666805">
<ele>352.0</ele>
<speed>4.1</speed>
<course>0.0</course>
<desc>Speed 4.1 km/h Distance 8.31 km</desc>
<time>2010-02-28T11:51:51.85</time>
<name>5644</name>
</trkpt>
<trkpt lat="48.942200" lon="8.666805">
<ele>352.0</ele>
<speed>8.1</speed>
<course>8.1</course>
<desc>Speed 8.1 km/h Distance 8.32 km</desc>
<time>2010-02-28T11:51:52.85</time>
<name>5645</name>
</trkpt>
<trkpt lat="48.942215" lon="8.666808">
<ele>351.5</ele>
<speed>6.6</speed>
<course>14.0</course>
<desc>Speed 6.6 km/h Distance 8.32 km</desc>
<time>2010-02-28T11:51:53.85</time>
<name>5646</name>
</trkpt>
<trkpt lat="48.942228" lon="8.666813">
<ele>351.0</ele>
<speed>6.6</speed>
<course>12.6</course>
<desc>Speed 6.6 km/h Distance 8.32 km</desc>
<time>2010-02-28T11:51:54.85</time>
<name>5647</name>
</trkpt>
<trkpt lat="48.942238" lon="8.666817">
<ele>350.0</ele>
<speed>4.8</speed>
<course>33.7</course>
<desc>Speed 4.8 km/h Distance 8.32 km</desc>
<time>2010-02-28T11:51:55.85</time>
<name>5648</name>
</trkpt>
<trkpt lat="48.942242" lon="8.666820">
<ele>351.0</ele>
<speed>1.8</speed>
<course>5.3</course>
<desc>Speed 1.8 km/h Distance 8.32 km</desc>
<time>2010-02-28T11:51:56.85</time>
<name>5649</name>
</trkpt>
<trkpt lat="48.942255" lon="8.666822">
<ele>351.0</ele>
<speed>4.9</speed>
<course>0.0</course>
<desc>Speed 4.9 km/h Distance 8.32 km</desc>
<time>2010-02-28T11:51:57.85</time>
<name>5650</name>
</trkpt>
<trkpt lat="48.942270" lon="8.666822">
<ele>351.0</ele>
<speed>5.7</speed>
<course>14.3</course>
<desc>Speed 5.7 km/h Distance 8.32 km</desc>
<time>2010-02-28T11:51:58.85</time>
<name>5651</name>
</trkpt>
<trkpt lat="48.942287" lon="8.666828">
<ele>350.5</ele>
<speed>6.6</speed>
<course>90.0</course>
<desc>Speed 6.6 km/h Distance 8.33 km</desc>
<time>2010-02-28T11:51:59.85</time>
<name>5652</name>
</trkpt>
<trkpt lat="48.942287" lon="8.666840">
<ele>350.5</ele>
<speed>3.2</speed>
<course>334.0</course>
<desc>Speed 3.2 km/h Distance 8.33 km</desc>
<time>2010-02-28T11:52:00.85</time>
<name>5653</name>
</trkpt>
<trkpt lat="48.942300" lon="8.666830">
<ele>351.0</ele>
<speed>5.5</speed>
<course>356.2</course>
<desc>Speed 5.5 km/h Distance 8.33 km</desc>
<time>2010-02-28T11:52:01.85</time>
<name>5654</name>
</trkpt>
<trkpt lat="48.942315" lon="8.666828">
<ele>351.0</ele>
<speed>5.1</speed>
<course>0.0</course>
<desc>Speed 5.1 km/h Distance 8.33 km</desc>
<time>2010-02-28T11:52:02.85</time>
<name>5655</name>
</trkpt>
<trkpt lat="48.942330" lon="8.666828">
<ele>351.5</ele>
<speed>5.0</speed>
<course>352.3</course>
<desc>Speed 5.0 km/h Distance 8.33 km</desc>
<time>2010-02-28T11:52:03.85</time>
<name>5656</name>
</trkpt>
<trkpt lat="48.942347" lon="8.666825">
<ele>351.5</ele>
<speed>5.3</speed>
<course>0.0</course>
<desc>Speed 5.3 km/h Distance 8.33 km</desc>
<time>2010-02-28T11:52:04.85</time>
<name>5657</name>
</trkpt>
<trkpt lat="48.942362" lon="8.666825">
<ele>351.5</ele>
<speed>4.6</speed>
<course>357.8</course>
<desc>Speed 4.6 km/h Distance 8.33 km</desc>
<time>2010-02-28T11:52:05.85</time>
<name>5658</name>
</trkpt>
<trkpt lat="48.942385" lon="8.666823">
<ele>350.0</ele>
<speed>6.2</speed>
<course>357.2</course>
<desc>Speed 6.2 km/h Distance 8.34 km</desc>
<time>2010-02-28T11:52:06.85</time>
<name>5659</name>
</trkpt>
<trkpt lat="48.942402" lon="8.666822">
<ele>350.0</ele>
<speed>5.7</speed>
<course>16.6</course>
<desc>Speed 5.7 km/h Distance 8.34 km</desc>
<time>2010-02-28T11:52:07.85</time>
<name>5660</name>
</trkpt>
<trkpt lat="48.942417" lon="8.666828">
<ele>349.5</ele>
<speed>6.6</speed>
<course>8.1</course>
<desc>Speed 6.6 km/h Distance 8.34 km</desc>
<time>2010-02-28T11:52:08.85</time>
<name>5661</name>
</trkpt>
<trkpt lat="48.942432" lon="8.666832">
<ele>349.0</ele>
<speed>5.6</speed>
<course>9.0</course>
<desc>Speed 5.6 km/h Distance 8.34 km</desc>
<time>2010-02-28T11:52:09.85</time>
<name>5662</name>
</trkpt>
<trkpt lat="48.942445" lon="8.666835">
<ele>348.5</ele>
<speed>4.8</speed>
<course>347.4</course>
<desc>Speed 4.8 km/h Distance 8.34 km</desc>
<time>2010-02-28T11:52:10.85</time>
<name>5663</name>
</trkpt>
<trkpt lat="48.942460" lon="8.666830">
<ele>348.5</ele>
<speed>5.7</speed>
<course>332.8</course>
<desc>Speed 5.7 km/h Distance 8.35 km</desc>
<time>2010-02-28T11:52:11.85</time>
<name>5664</name>
</trkpt>
<trkpt lat="48.942475" lon="8.666818">
<ele>348.0</ele>
<speed>5.9</speed>
<course>320.6</course>
<desc>Speed 5.9 km/h Distance 8.35 km</desc>
<time>2010-02-28T11:52:12.85</time>
<name>5665</name>
</trkpt>
<trkpt lat="48.942482" lon="8.666810">
<ele>348.0</ele>
<speed>3.2</speed>
<course>353.5</course>
<desc>Speed 3.2 km/h Distance 8.35 km</desc>
<time>2010-02-28T11:52:13.85</time>
<name>5666</name>
</trkpt>
<trkpt lat="48.942500" lon="8.666807">
<ele>348.0</ele>
<speed>6.6</speed>
<course>9.0</course>
<desc>Speed 6.6 km/h Distance 8.35 km</desc>
<time>2010-02-28T11:52:14.85</time>
<name>5667</name>
</trkpt>
<trkpt lat="48.942513" lon="8.666810">
<ele>347.5</ele>
<speed>4.6</speed>
<course>351.9</course>
<desc>Speed 4.6 km/h Distance 8.35 km</desc>
<time>2010-02-28T11:52:15.85</time>
<name>5668</name>
</trkpt>
<trkpt lat="48.942528" lon="8.666807">
<ele>347.5</ele>
<speed>5.2</speed>
<course>0.0</course>
<desc>Speed 5.2 km/h Distance 8.35 km</desc>
<time>2010-02-28T11:52:16.85</time>
<name>5669</name>
</trkpt>
<trkpt lat="48.942545" lon="8.666807">
<ele>348.0</ele>
<speed>5.8</speed>
<course>347.7</course>
<desc>Speed 5.8 km/h Distance 8.36 km</desc>
<time>2010-02-28T11:52:17.87</time>
<name>5670</name>
</trkpt>
<trkpt lat="48.942595" lon="8.666790">
<ele>348.5</ele>
<speed>8.0</speed>
<course>349.8</course>
<desc>Speed 8.0 km/h Distance 8.36 km</desc>
<time>2010-02-28T11:52:19.87</time>
<name>5671</name>
</trkpt>
<trkpt lat="48.942613" lon="8.666785">
<ele>348.5</ele>
<speed>7.3</speed>
<course>5.0</course>
<desc>Speed 7.3 km/h Distance 8.36 km</desc>
<time>2010-02-28T11:52:20.87</time>
<name>5672</name>
</trkpt>
<trkpt lat="48.942628" lon="8.666787">
<ele>348.5</ele>
<speed>5.4</speed>
<course>16.4</course>
<desc>Speed 5.4 km/h Distance 8.36 km</desc>
<time>2010-02-28T11:52:21.87</time>
<name>5673</name>
</trkpt>
<trkpt lat="48.942640" lon="8.666792">
<ele>348.5</ele>
<speed>4.8</speed>
<course>28.6</course>
<desc>Speed 4.8 km/h Distance 8.37 km</desc>
<time>2010-02-28T11:52:22.87</time>
<name>5674</name>
</trkpt>
<trkpt lat="48.942650" lon="8.666800">
<ele>348.5</ele>
<speed>4.5</speed>
<course>14.9</course>
<desc>Speed 4.5 km/h Distance 8.37 km</desc>
<time>2010-02-28T11:52:23.87</time>
<name>5675</name>
</trkpt>
<trkpt lat="48.942662" lon="8.666805">
<ele>348.5</ele>
<speed>4.8</speed>
<course>4.4</course>
<desc>Speed 4.8 km/h Distance 8.37 km</desc>
<time>2010-02-28T11:52:24.87</time>
<name>5676</name>
</trkpt>
<trkpt lat="48.942672" lon="8.666805">
<ele>348.5</ele>
<speed>4.6</speed>
<course>0.0</course>
<desc>Speed 4.6 km/h Distance 8.37 km</desc>
<time>2010-02-28T11:52:25.87</time>
<name>5677</name>
</trkpt>
<trkpt lat="48.942685" lon="8.666805">
<ele>348.5</ele>
<speed>4.9</speed>
<course>13.8</course>
<desc>Speed 4.9 km/h Distance 8.37 km</desc>
<time>2010-02-28T11:52:26.87</time>
<name>5678</name>
</trkpt>
<trkpt lat="48.942693" lon="8.666808">
<ele>348.0</ele>
<speed>3.1</speed>
<course>2.5</course>
<desc>Speed 3.1 km/h Distance 8.37 km</desc>
<time>2010-02-28T11:52:27.87</time>
<name>5679</name>
</trkpt>
<trkpt lat="48.942712" lon="8.666810">
<ele>348.0</ele>
<speed>6.8</speed>
<course>0.0</course>
<desc>Speed 6.8 km/h Distance 8.37 km</desc>
<time>2010-02-28T11:52:28.87</time>
<name>5680</name>
</trkpt>
<trkpt lat="48.942728" lon="8.666810">
<ele>348.0</ele>
<speed>6.2</speed>
<course>349.8</course>
<desc>Speed 6.2 km/h Distance 8.38 km</desc>
<time>2010-02-28T11:52:29.87</time>
<name>5681</name>
</trkpt>
<trkpt lat="48.942747" lon="8.666805">
<ele>348.0</ele>
<speed>7.4</speed>
<course>337.9</course>
<desc>Speed 7.4 km/h Distance 8.38 km</desc>
<time>2010-02-28T11:52:30.87</time>
<name>5682</name>
</trkpt>
<trkpt lat="48.942755" lon="8.666800">
<ele>348.0</ele>
<speed>4.6</speed>
<course>5.0</course>
<desc>Speed 4.6 km/h Distance 8.38 km</desc>
<time>2010-02-28T11:52:31.87</time>
<name>5683</name>
</trkpt>
<trkpt lat="48.942763" lon="8.666800">
<ele>348.0</ele>
<speed>5.3</speed>
<course>341.2</course>
<desc>Speed 5.3 km/h Distance 8.38 km</desc>
<time>2010-02-28T11:52:32.87</time>
<name>5684</name>
</trkpt>
<trkpt lat="48.942767" lon="8.666798">
<ele>347.5</ele>
<speed>4.4</speed>
<course>344.0</course>
<desc>Speed 4.4 km/h Distance 8.38 km</desc>
<time>2010-02-28T11:52:33.87</time>
<name>5685</name>
</trkpt>
<trkpt lat="48.942778" lon="8.666793">
<ele>347.5</ele>
<speed>4.5</speed>
<course>344.0</course>
<desc>Speed 4.5 km/h Distance 8.38 km</desc>
<time>2010-02-28T11:52:34.87</time>
<name>5686</name>
</trkpt>
<trkpt lat="48.942793" lon="8.666787">
<ele>347.5</ele>
<speed>6.0</speed>
<course>40.9</course>
<desc>Speed 6.0 km/h Distance 8.38 km</desc>
<time>2010-02-28T11:52:35.87</time>
<name>5687</name>
</trkpt>
<trkpt lat="48.942798" lon="8.666793">
<ele>346.5</ele>
<speed>1.5</speed>
<course>351.0</course>
<desc>Speed 1.5 km/h Distance 8.38 km</desc>
<time>2010-02-28T11:52:36.87</time>
<name>5688</name>
</trkpt>
<trkpt lat="48.942812" lon="8.666790">
<ele>345.5</ele>
<speed>4.2</speed>
<course>348.4</course>
<desc>Speed 4.2 km/h Distance 8.39 km</desc>
<time>2010-02-28T11:52:37.87</time>
<name>5689</name>
</trkpt>
<trkpt lat="48.942833" lon="8.666783">
<ele>346.5</ele>
<speed>8.5</speed>
<course>335.1</course>
<desc>Speed 8.5 km/h Distance 8.39 km</desc>
<time>2010-02-28T11:52:38.87</time>
<name>5690</name>
</trkpt>
<trkpt lat="48.942845" lon="8.666775">
<ele>346.5</ele>
<speed>5.3</speed>
<course>297.0</course>
<desc>Speed 5.3 km/h Distance 8.39 km</desc>
<time>2010-02-28T11:52:39.87</time>
<name>5691</name>
</trkpt>
<trkpt lat="48.942848" lon="8.666765">
<ele>346.0</ele>
<speed>2.8</speed>
<course>307.4</course>
<desc>Speed 2.8 km/h Distance 8.39 km</desc>
<time>2010-02-28T11:52:40.87</time>
<name>5692</name>
</trkpt>
<trkpt lat="48.942853" lon="8.666755">
<ele>346.0</ele>
<speed>3.2</speed>
<course>346.2</course>
<desc>Speed 3.2 km/h Distance 8.39 km</desc>
<time>2010-02-28T11:52:41.87</time>
<name>5693</name>
</trkpt>
<trkpt lat="48.942862" lon="8.666752">
<ele>344.5</ele>
<speed>3.0</speed>
<course>294.5</course>
<desc>Speed 3.0 km/h Distance 8.39 km</desc>
<time>2010-02-28T11:52:42.87</time>
<name>5694</name>
</trkpt>
<trkpt lat="48.942867" lon="8.666735">
<ele>344.5</ele>
<speed>4.8</speed>
<course>311.0</course>
<desc>Speed 4.8 km/h Distance 8.39 km</desc>
<time>2010-02-28T11:52:43.87</time>
<name>5695</name>
</trkpt>
<trkpt lat="48.942880" lon="8.666712">
<ele>346.0</ele>
<speed>7.5</speed>
<course>331.4</course>
<desc>Speed 7.5 km/h Distance 8.40 km</desc>
<time>2010-02-28T11:52:44.87</time>
<name>5696</name>
</trkpt>
<trkpt lat="48.942890" lon="8.666703">
<ele>346.0</ele>
<speed>4.4</speed>
<course>339.9</course>
<desc>Speed 4.4 km/h Distance 8.40 km</desc>
<time>2010-02-28T11:52:45.87</time>
<name>5697</name>
</trkpt>
<trkpt lat="48.942905" lon="8.666695">
<ele>345.5</ele>
<speed>5.1</speed>
<course>347.8</course>
<desc>Speed 5.1 km/h Distance 8.40 km</desc>
<time>2010-02-28T11:52:46.87</time>
<name>5698</name>
</trkpt>
<trkpt lat="48.942920" lon="8.666690">
<ele>345.5</ele>
<speed>5.4</speed>
<course>1.2</course>
<desc>Speed 5.4 km/h Distance 8.40 km</desc>
<time>2010-02-28T11:52:47.87</time>
<name>5699</name>
</trkpt>
<trkpt lat="48.942933" lon="8.666690">
<ele>345.5</ele>
<speed>3.8</speed>
<course>355.0</course>
<desc>Speed 3.8 km/h Distance 8.40 km</desc>
<time>2010-02-28T11:52:48.87</time>
<name>5700</name>
</trkpt>
<trkpt lat="48.942942" lon="8.666688">
<ele>345.0</ele>
<speed>2.9</speed>
<course>333.6</course>
<desc>Speed 2.9 km/h Distance 8.40 km</desc>
<time>2010-02-28T11:52:49.87</time>
<name>5701</name>
</trkpt>
<trkpt lat="48.942948" lon="8.666683">
<ele>345.0</ele>
<speed>2.5</speed>
<course>327.7</course>
<desc>Speed 2.5 km/h Distance 8.40 km</desc>
<time>2010-02-28T11:52:50.87</time>
<name>5702</name>
</trkpt>
<trkpt lat="48.942953" lon="8.666678">
<ele>344.0</ele>
<speed>2.0</speed>
<course>338.5</course>
<desc>Speed 2.0 km/h Distance 8.41 km</desc>
<time>2010-02-28T11:52:51.87</time>
<name>5703</name>
</trkpt>
<trkpt lat="48.942970" lon="8.666668">
<ele>344.5</ele>
<speed>6.8</speed>
<course>334.0</course>
<desc>Speed 6.8 km/h Distance 8.41 km</desc>
<time>2010-02-28T11:52:52.87</time>
<name>5704</name>
</trkpt>
<trkpt lat="48.942983" lon="8.666658">
<ele>344.5</ele>
<speed>5.3</speed>
<course>330.8</course>
<desc>Speed 5.3 km/h Distance 8.41 km</desc>
<time>2010-02-28T11:52:53.87</time>
<name>5705</name>
</trkpt>
<trkpt lat="48.942995" lon="8.666648">
<ele>344.5</ele>
<speed>4.8</speed>
<course>334.8</course>
<desc>Speed 4.8 km/h Distance 8.41 km</desc>
<time>2010-02-28T11:52:54.87</time>
<name>5706</name>
</trkpt>
<trkpt lat="48.943007" lon="8.666640">
<ele>344.5</ele>
<speed>4.2</speed>
<course>340.1</course>
<desc>Speed 4.2 km/h Distance 8.41 km</desc>
<time>2010-02-28T11:52:55.87</time>
<name>5707</name>
</trkpt>
<trkpt lat="48.943022" lon="8.666632">
<ele>344.0</ele>
<speed>5.0</speed>
<course>349.6</course>
<desc>Speed 5.0 km/h Distance 8.41 km</desc>
<time>2010-02-28T11:52:56.87</time>
<name>5708</name>
</trkpt>
<trkpt lat="48.943033" lon="8.666628">
<ele>343.0</ele>
<speed>1.7</speed>
<course>320.6</course>
<desc>Speed 1.7 km/h Distance 8.41 km</desc>
<time>2010-02-28T11:52:57.87</time>
<name>5709</name>
</trkpt>
<trkpt lat="48.943040" lon="8.666620">
<ele>343.0</ele>
<speed>1.3</speed>
<course>323.1</course>
<desc>Speed 1.3 km/h Distance 8.42 km</desc>
<time>2010-02-28T11:52:58.87</time>
<name>5710</name>
</trkpt>
<trkpt lat="48.943052" lon="8.666607">
<ele>343.0</ele>
<speed>5.0</speed>
<course>336.3</course>
<desc>Speed 5.0 km/h Distance 8.42 km</desc>
<time>2010-02-28T11:52:59.87</time>
<name>5711</name>
</trkpt>
<trkpt lat="48.943067" lon="8.666597">
<ele>343.0</ele>
<speed>5.0</speed>
<course>330.0</course>
<desc>Speed 5.0 km/h Distance 8.42 km</desc>
<time>2010-02-28T11:53:00.87</time>
<name>5712</name>
</trkpt>
<trkpt lat="48.943080" lon="8.666585">
<ele>343.0</ele>
<speed>5.0</speed>
<course>323.4</course>
<desc>Speed 5.0 km/h Distance 8.42 km</desc>
<time>2010-02-28T11:53:01.87</time>
<name>5713</name>
</trkpt>
<trkpt lat="48.943093" lon="8.666570">
<ele>342.5</ele>
<speed>5.1</speed>
<course>329.7</course>
<desc>Speed 5.1 km/h Distance 8.42 km</desc>
<time>2010-02-28T11:53:02.87</time>
<name>5714</name>
</trkpt>
<trkpt lat="48.943108" lon="8.666557">
<ele>343.0</ele>
<speed>5.4</speed>
<course>326.7</course>
<desc>Speed 5.4 km/h Distance 8.42 km</desc>
<time>2010-02-28T11:53:03.87</time>
<name>5715</name>
</trkpt>
<trkpt lat="48.943123" lon="8.666542">
<ele>343.0</ele>
<speed>5.2</speed>
<course>326.7</course>
<desc>Speed 5.2 km/h Distance 8.43 km</desc>
<time>2010-02-28T11:53:04.87</time>
<name>5716</name>
</trkpt>
<trkpt lat="48.943138" lon="8.666527">
<ele>343.5</ele>
<speed>5.2</speed>
<course>326.6</course>
<desc>Speed 5.2 km/h Distance 8.43 km</desc>
<time>2010-02-28T11:53:05.87</time>
<name>5717</name>
</trkpt>
<trkpt lat="48.943152" lon="8.666513">
<ele>343.0</ele>
<speed>5.0</speed>
<course>326.6</course>
<desc>Speed 5.0 km/h Distance 8.43 km</desc>
<time>2010-02-28T11:53:06.87</time>
<name>5718</name>
</trkpt>
<trkpt lat="48.943165" lon="8.666500">
<ele>343.0</ele>
<speed>5.1</speed>
<course>326.6</course>
<desc>Speed 5.1 km/h Distance 8.43 km</desc>
<time>2010-02-28T11:53:07.87</time>
<name>5719</name>
</trkpt>
<trkpt lat="48.943178" lon="8.666487">
<ele>343.0</ele>
<speed>4.8</speed>
<course>330.0</course>
<desc>Speed 4.8 km/h Distance 8.43 km</desc>
<time>2010-02-28T11:53:08.87</time>
<name>5720</name>
</trkpt>
<trkpt lat="48.943192" lon="8.666475">
<ele>343.0</ele>
<speed>3.9</speed>
<course>302.1</course>
<desc>Speed 3.9 km/h Distance 8.44 km</desc>
<time>2010-02-28T11:53:09.87</time>
<name>5721</name>
</trkpt>
<trkpt lat="48.943203" lon="8.666447">
<ele>343.5</ele>
<speed>7.3</speed>
<course>314.1</course>
<desc>Speed 7.3 km/h Distance 8.44 km</desc>
<time>2010-02-28T11:53:10.87</time>
<name>5722</name>
</trkpt>
<trkpt lat="48.943215" lon="8.666428">
<ele>343.0</ele>
<speed>4.9</speed>
<course>353.4</course>
<desc>Speed 4.9 km/h Distance 8.44 km</desc>
<time>2010-02-28T11:53:11.87</time>
<name>5723</name>
</trkpt>
<trkpt lat="48.943225" lon="8.666427">
<ele>343.5</ele>
<speed>3.4</speed>
<course>348.8</course>
<desc>Speed 3.4 km/h Distance 8.44 km</desc>
<time>2010-02-28T11:53:12.87</time>
<name>5724</name>
</trkpt>
<trkpt lat="48.943237" lon="8.666423">
<ele>343.5</ele>
<speed>3.4</speed>
<course>348.8</course>
<desc>Speed 3.4 km/h Distance 8.44 km</desc>
<time>2010-02-28T11:53:14.13</time>
<name>5725</name>
</trkpt>
</trkseg>
</trk>
</gpx>
